<?xml version="1.0" encoding="UTF-8"?>
<gpx creator="StravaGPX Android" version="1.1" xmlns="http://www.topografix.com/GPX/1/1" xmlns:xsi="http://www.w3.org/2001/XMLSchema-instance" xsi:schemaLocation="http://www.topografix.com/GPX/1/1 http://www.topografix.com/GPX/1/1/gpx.xsd">
  <metadata>
    <name>Himmelreich</name>
    <link href="https://www.strava.com/activities/19964251438"></link>
    <bounds minlat="48.763705" minlon="9.796468" maxlat="48.801230" maxlon="9.925505"></bounds>
    <keywords>activities:19964251438</keywords>
    <time>2026-08-30T10:25:58Z</time>
  </metadata>
  <trk>
    <name>Himmelreich</name>
    <trkseg>
      <trkpt lat="48.799687" lon="9.796468">
        <ele>328.8</ele>
        <time>2026-08-30T10:27:10Z</time>
      </trkpt>
      <trkpt lat="48.799690" lon="9.796520">
        <ele>328.8</ele>
        <time>2026-08-30T10:27:11Z</time>
      </trkpt>
      <trkpt lat="48.799694" lon="9.796571">
        <ele>328.8</ele>
        <time>2026-08-30T10:27:12Z</time>
      </trkpt>
      <trkpt lat="48.799697" lon="9.796612">
        <ele>328.8</ele>
        <time>2026-08-30T10:27:13Z</time>
      </trkpt>
      <trkpt lat="48.799699" lon="9.796652">
        <ele>328.8</ele>
        <time>2026-08-30T10:27:14Z</time>
      </trkpt>
      <trkpt lat="48.799700" lon="9.796680">
        <ele>328.6</ele>
        <time>2026-08-30T10:27:15Z</time>
      </trkpt>
      <trkpt lat="48.799700" lon="9.796690">
        <ele>328.6</ele>
        <time>2026-08-30T10:27:16Z</time>
      </trkpt>
      <trkpt lat="48.799697" lon="9.796695">
        <ele>328.6</ele>
        <time>2026-08-30T10:27:17Z</time>
      </trkpt>
      <trkpt lat="48.799696" lon="9.796698">
        <ele>328.6</ele>
        <time>2026-08-30T10:27:18Z</time>
      </trkpt>
      <trkpt lat="48.799696" lon="9.796699">
        <ele>328.6</ele>
        <time>2026-08-30T10:27:19Z</time>
      </trkpt>
      <trkpt lat="48.799696" lon="9.796699">
        <ele>328.6</ele>
        <time>2026-08-30T10:27:20Z</time>
      </trkpt>
      <trkpt lat="48.799696" lon="9.796699">
        <ele>328.6</ele>
        <time>2026-08-30T10:27:21Z</time>
      </trkpt>
      <trkpt lat="48.799696" lon="9.796699">
        <ele>328.6</ele>
        <time>2026-08-30T10:27:22Z</time>
      </trkpt>
      <trkpt lat="48.799696" lon="9.796699">
        <ele>328.6</ele>
        <time>2026-08-30T10:27:23Z</time>
      </trkpt>
      <trkpt lat="48.799696" lon="9.796699">
        <ele>328.4</ele>
        <time>2026-08-30T10:27:24Z</time>
      </trkpt>
      <trkpt lat="48.799696" lon="9.796699">
        <ele>328.4</ele>
        <time>2026-08-30T10:27:25Z</time>
      </trkpt>
      <trkpt lat="48.799696" lon="9.796699">
        <ele>328.4</ele>
        <time>2026-08-30T10:27:26Z</time>
      </trkpt>
      <trkpt lat="48.799696" lon="9.796699">
        <ele>328.4</ele>
        <time>2026-08-30T10:27:27Z</time>
      </trkpt>
      <trkpt lat="48.799696" lon="9.796699">
        <ele>328.4</ele>
        <time>2026-08-30T10:27:28Z</time>
      </trkpt>
      <trkpt lat="48.799696" lon="9.796699">
        <ele>328.4</ele>
        <time>2026-08-30T10:27:29Z</time>
      </trkpt>
      <trkpt lat="48.799696" lon="9.796699">
        <ele>328.4</ele>
        <time>2026-08-30T10:27:30Z</time>
      </trkpt>
      <trkpt lat="48.799696" lon="9.796699">
        <ele>328.4</ele>
        <time>2026-08-30T10:27:31Z</time>
      </trkpt>
      <trkpt lat="48.799696" lon="9.796699">
        <ele>328.4</ele>
        <time>2026-08-30T10:27:32Z</time>
      </trkpt>
      <trkpt lat="48.799696" lon="9.796699">
        <ele>328.4</ele>
        <time>2026-08-30T10:27:33Z</time>
      </trkpt>
      <trkpt lat="48.799696" lon="9.796699">
        <ele>328.4</ele>
        <time>2026-08-30T10:27:34Z</time>
      </trkpt>
      <trkpt lat="48.799696" lon="9.796699">
        <ele>328.4</ele>
        <time>2026-08-30T10:27:35Z</time>
      </trkpt>
      <trkpt lat="48.799696" lon="9.796699">
        <ele>328.4</ele>
        <time>2026-08-30T10:27:36Z</time>
      </trkpt>
      <trkpt lat="48.799696" lon="9.796699">
        <ele>328.4</ele>
        <time>2026-08-30T10:27:37Z</time>
      </trkpt>
      <trkpt lat="48.799696" lon="9.796699">
        <ele>328.4</ele>
        <time>2026-08-30T10:27:38Z</time>
      </trkpt>
      <trkpt lat="48.799696" lon="9.796699">
        <ele>328.4</ele>
        <time>2026-08-30T10:27:39Z</time>
      </trkpt>
      <trkpt lat="48.799696" lon="9.796699">
        <ele>328.4</ele>
        <time>2026-08-30T10:27:40Z</time>
      </trkpt>
      <trkpt lat="48.799696" lon="9.796699">
        <ele>328.4</ele>
        <time>2026-08-30T10:27:41Z</time>
      </trkpt>
      <trkpt lat="48.799696" lon="9.796699">
        <ele>328.4</ele>
        <time>2026-08-30T10:27:42Z</time>
      </trkpt>
      <trkpt lat="48.799696" lon="9.796699">
        <ele>328.4</ele>
        <time>2026-08-30T10:27:43Z</time>
      </trkpt>
      <trkpt lat="48.799696" lon="9.796699">
        <ele>328.4</ele>
        <time>2026-08-30T10:27:44Z</time>
      </trkpt>
      <trkpt lat="48.799696" lon="9.796699">
        <ele>328.4</ele>
        <time>2026-08-30T10:27:45Z</time>
      </trkpt>
      <trkpt lat="48.799696" lon="9.796699">
        <ele>328.4</ele>
        <time>2026-08-30T10:27:46Z</time>
      </trkpt>
      <trkpt lat="48.799696" lon="9.796699">
        <ele>328.4</ele>
        <time>2026-08-30T10:27:47Z</time>
      </trkpt>
      <trkpt lat="48.799696" lon="9.796699">
        <ele>328.4</ele>
        <time>2026-08-30T10:27:48Z</time>
      </trkpt>
      <trkpt lat="48.799696" lon="9.796699">
        <ele>328.4</ele>
        <time>2026-08-30T10:27:49Z</time>
      </trkpt>
      <trkpt lat="48.799696" lon="9.796699">
        <ele>328.4</ele>
        <time>2026-08-30T10:27:50Z</time>
      </trkpt>
      <trkpt lat="48.799696" lon="9.796699">
        <ele>328.2</ele>
        <time>2026-08-30T10:27:51Z</time>
      </trkpt>
      <trkpt lat="48.799696" lon="9.796699">
        <ele>328.2</ele>
        <time>2026-08-30T10:27:52Z</time>
      </trkpt>
      <trkpt lat="48.799696" lon="9.796699">
        <ele>328.2</ele>
        <time>2026-08-30T10:27:53Z</time>
      </trkpt>
      <trkpt lat="48.799696" lon="9.796699">
        <ele>328.2</ele>
        <time>2026-08-30T10:27:54Z</time>
      </trkpt>
      <trkpt lat="48.799696" lon="9.796699">
        <ele>328.2</ele>
        <time>2026-08-30T10:27:55Z</time>
      </trkpt>
      <trkpt lat="48.799696" lon="9.796699">
        <ele>328.2</ele>
        <time>2026-08-30T10:27:56Z</time>
      </trkpt>
      <trkpt lat="48.799696" lon="9.796699">
        <ele>328.2</ele>
        <time>2026-08-30T10:27:57Z</time>
      </trkpt>
      <trkpt lat="48.799696" lon="9.796699">
        <ele>328.2</ele>
        <time>2026-08-30T10:27:58Z</time>
      </trkpt>
      <trkpt lat="48.799696" lon="9.796699">
        <ele>328.2</ele>
        <time>2026-08-30T10:27:59Z</time>
      </trkpt>
      <trkpt lat="48.799696" lon="9.796699">
        <ele>328.2</ele>
        <time>2026-08-30T10:28:00Z</time>
      </trkpt>
      <trkpt lat="48.799696" lon="9.796699">
        <ele>328.2</ele>
        <time>2026-08-30T10:28:01Z</time>
      </trkpt>
      <trkpt lat="48.799696" lon="9.796699">
        <ele>328.2</ele>
        <time>2026-08-30T10:28:02Z</time>
      </trkpt>
      <trkpt lat="48.799696" lon="9.796699">
        <ele>328.2</ele>
        <time>2026-08-30T10:28:03Z</time>
      </trkpt>
      <trkpt lat="48.799696" lon="9.796699">
        <ele>328.2</ele>
        <time>2026-08-30T10:28:04Z</time>
      </trkpt>
      <trkpt lat="48.799696" lon="9.796699">
        <ele>328.2</ele>
        <time>2026-08-30T10:28:05Z</time>
      </trkpt>
      <trkpt lat="48.799696" lon="9.796699">
        <ele>328.2</ele>
        <time>2026-08-30T10:28:06Z</time>
      </trkpt>
      <trkpt lat="48.799696" lon="9.796699">
        <ele>328.2</ele>
        <time>2026-08-30T10:28:07Z</time>
      </trkpt>
      <trkpt lat="48.799696" lon="9.796699">
        <ele>328.2</ele>
        <time>2026-08-30T10:28:08Z</time>
      </trkpt>
      <trkpt lat="48.799696" lon="9.796699">
        <ele>328.2</ele>
        <time>2026-08-30T10:28:09Z</time>
      </trkpt>
      <trkpt lat="48.799696" lon="9.796699">
        <ele>328.2</ele>
        <time>2026-08-30T10:28:10Z</time>
      </trkpt>
      <trkpt lat="48.799696" lon="9.796699">
        <ele>328.2</ele>
        <time>2026-08-30T10:28:11Z</time>
      </trkpt>
      <trkpt lat="48.799696" lon="9.796699">
        <ele>328</ele>
        <time>2026-08-30T10:28:12Z</time>
      </trkpt>
      <trkpt lat="48.799696" lon="9.796699">
        <ele>328</ele>
        <time>2026-08-30T10:28:13Z</time>
      </trkpt>
      <trkpt lat="48.799696" lon="9.796699">
        <ele>328</ele>
        <time>2026-08-30T10:28:14Z</time>
      </trkpt>
      <trkpt lat="48.799696" lon="9.796699">
        <ele>328</ele>
        <time>2026-08-30T10:28:15Z</time>
      </trkpt>
      <trkpt lat="48.799696" lon="9.796699">
        <ele>328</ele>
        <time>2026-08-30T10:28:16Z</time>
      </trkpt>
      <trkpt lat="48.799696" lon="9.796699">
        <ele>328</ele>
        <time>2026-08-30T10:28:17Z</time>
      </trkpt>
      <trkpt lat="48.799696" lon="9.796699">
        <ele>328</ele>
        <time>2026-08-30T10:28:18Z</time>
      </trkpt>
      <trkpt lat="48.799696" lon="9.796699">
        <ele>328</ele>
        <time>2026-08-30T10:28:19Z</time>
      </trkpt>
      <trkpt lat="48.799696" lon="9.796699">
        <ele>328</ele>
        <time>2026-08-30T10:28:20Z</time>
      </trkpt>
      <trkpt lat="48.799696" lon="9.796699">
        <ele>328</ele>
        <time>2026-08-30T10:28:21Z</time>
      </trkpt>
      <trkpt lat="48.799696" lon="9.796699">
        <ele>328</ele>
        <time>2026-08-30T10:28:22Z</time>
      </trkpt>
      <trkpt lat="48.799696" lon="9.796699">
        <ele>328</ele>
        <time>2026-08-30T10:28:23Z</time>
      </trkpt>
      <trkpt lat="48.799696" lon="9.796699">
        <ele>328</ele>
        <time>2026-08-30T10:28:24Z</time>
      </trkpt>
      <trkpt lat="48.799696" lon="9.796699">
        <ele>328</ele>
        <time>2026-08-30T10:28:25Z</time>
      </trkpt>
      <trkpt lat="48.799696" lon="9.796699">
        <ele>328</ele>
        <time>2026-08-30T10:28:26Z</time>
      </trkpt>
      <trkpt lat="48.799696" lon="9.796699">
        <ele>328</ele>
        <time>2026-08-30T10:28:27Z</time>
      </trkpt>
      <trkpt lat="48.799696" lon="9.796699">
        <ele>328</ele>
        <time>2026-08-30T10:28:28Z</time>
      </trkpt>
      <trkpt lat="48.799696" lon="9.796699">
        <ele>328</ele>
        <time>2026-08-30T10:28:29Z</time>
      </trkpt>
      <trkpt lat="48.799696" lon="9.796699">
        <ele>328</ele>
        <time>2026-08-30T10:28:30Z</time>
      </trkpt>
      <trkpt lat="48.799696" lon="9.796699">
        <ele>328</ele>
        <time>2026-08-30T10:28:31Z</time>
      </trkpt>
      <trkpt lat="48.799696" lon="9.796699">
        <ele>328</ele>
        <time>2026-08-30T10:28:32Z</time>
      </trkpt>
      <trkpt lat="48.799696" lon="9.796699">
        <ele>328</ele>
        <time>2026-08-30T10:28:33Z</time>
      </trkpt>
      <trkpt lat="48.799696" lon="9.796699">
        <ele>328</ele>
        <time>2026-08-30T10:28:34Z</time>
      </trkpt>
      <trkpt lat="48.799696" lon="9.796699">
        <ele>328</ele>
        <time>2026-08-30T10:28:35Z</time>
      </trkpt>
      <trkpt lat="48.799696" lon="9.796699">
        <ele>328.2</ele>
        <time>2026-08-30T10:28:36Z</time>
      </trkpt>
      <trkpt lat="48.799696" lon="9.796699">
        <ele>328.2</ele>
        <time>2026-08-30T10:28:37Z</time>
      </trkpt>
      <trkpt lat="48.799696" lon="9.796699">
        <ele>328.2</ele>
        <time>2026-08-30T10:28:38Z</time>
      </trkpt>
      <trkpt lat="48.799696" lon="9.796699">
        <ele>328.2</ele>
        <time>2026-08-30T10:28:39Z</time>
      </trkpt>
      <trkpt lat="48.799696" lon="9.796699">
        <ele>328.2</ele>
        <time>2026-08-30T10:28:40Z</time>
      </trkpt>
      <trkpt lat="48.799696" lon="9.796699">
        <ele>328.2</ele>
        <time>2026-08-30T10:28:41Z</time>
      </trkpt>
      <trkpt lat="48.799696" lon="9.796699">
        <ele>328.2</ele>
        <time>2026-08-30T10:28:42Z</time>
      </trkpt>
      <trkpt lat="48.799696" lon="9.796699">
        <ele>328.2</ele>
        <time>2026-08-30T10:28:43Z</time>
      </trkpt>
      <trkpt lat="48.799696" lon="9.796699">
        <ele>328.2</ele>
        <time>2026-08-30T10:28:44Z</time>
      </trkpt>
      <trkpt lat="48.799696" lon="9.796699">
        <ele>328.2</ele>
        <time>2026-08-30T10:28:45Z</time>
      </trkpt>
      <trkpt lat="48.799696" lon="9.796699">
        <ele>328.2</ele>
        <time>2026-08-30T10:28:46Z</time>
      </trkpt>
      <trkpt lat="48.799696" lon="9.796699">
        <ele>328.2</ele>
        <time>2026-08-30T10:28:47Z</time>
      </trkpt>
      <trkpt lat="48.799696" lon="9.796699">
        <ele>328.2</ele>
        <time>2026-08-30T10:28:48Z</time>
      </trkpt>
      <trkpt lat="48.799696" lon="9.796699">
        <ele>328.2</ele>
        <time>2026-08-30T10:28:49Z</time>
      </trkpt>
      <trkpt lat="48.799696" lon="9.796699">
        <ele>328.2</ele>
        <time>2026-08-30T10:28:50Z</time>
      </trkpt>
      <trkpt lat="48.799696" lon="9.796699">
        <ele>328.2</ele>
        <time>2026-08-30T10:28:51Z</time>
      </trkpt>
      <trkpt lat="48.799696" lon="9.796699">
        <ele>328.2</ele>
        <time>2026-08-30T10:28:52Z</time>
      </trkpt>
      <trkpt lat="48.799696" lon="9.796699">
        <ele>328.2</ele>
        <time>2026-08-30T10:28:53Z</time>
      </trkpt>
      <trkpt lat="48.799696" lon="9.796699">
        <ele>328.2</ele>
        <time>2026-08-30T10:28:54Z</time>
      </trkpt>
      <trkpt lat="48.799696" lon="9.796699">
        <ele>328.2</ele>
        <time>2026-08-30T10:28:55Z</time>
      </trkpt>
      <trkpt lat="48.799696" lon="9.796699">
        <ele>328.2</ele>
        <time>2026-08-30T10:28:56Z</time>
      </trkpt>
      <trkpt lat="48.799696" lon="9.796699">
        <ele>328.4</ele>
        <time>2026-08-30T10:28:57Z</time>
      </trkpt>
      <trkpt lat="48.799696" lon="9.796699">
        <ele>328.4</ele>
        <time>2026-08-30T10:28:58Z</time>
      </trkpt>
      <trkpt lat="48.799696" lon="9.796699">
        <ele>328.4</ele>
        <time>2026-08-30T10:28:59Z</time>
      </trkpt>
      <trkpt lat="48.799696" lon="9.796699">
        <ele>328.4</ele>
        <time>2026-08-30T10:29:00Z</time>
      </trkpt>
      <trkpt lat="48.799696" lon="9.796699">
        <ele>328.4</ele>
        <time>2026-08-30T10:29:01Z</time>
      </trkpt>
      <trkpt lat="48.799696" lon="9.796699">
        <ele>328.4</ele>
        <time>2026-08-30T10:29:02Z</time>
      </trkpt>
      <trkpt lat="48.799696" lon="9.796699">
        <ele>328.4</ele>
        <time>2026-08-30T10:29:03Z</time>
      </trkpt>
      <trkpt lat="48.799696" lon="9.796699">
        <ele>328.4</ele>
        <time>2026-08-30T10:29:04Z</time>
      </trkpt>
      <trkpt lat="48.799696" lon="9.796699">
        <ele>328.4</ele>
        <time>2026-08-30T10:29:05Z</time>
      </trkpt>
      <trkpt lat="48.799696" lon="9.796699">
        <ele>328.4</ele>
        <time>2026-08-30T10:29:06Z</time>
      </trkpt>
      <trkpt lat="48.799696" lon="9.796699">
        <ele>328.6</ele>
        <time>2026-08-30T10:29:07Z</time>
      </trkpt>
      <trkpt lat="48.799696" lon="9.796699">
        <ele>328.6</ele>
        <time>2026-08-30T10:29:08Z</time>
      </trkpt>
      <trkpt lat="48.799696" lon="9.796699">
        <ele>328.6</ele>
        <time>2026-08-30T10:29:09Z</time>
      </trkpt>
      <trkpt lat="48.799696" lon="9.796699">
        <ele>328.6</ele>
        <time>2026-08-30T10:29:10Z</time>
      </trkpt>
      <trkpt lat="48.799696" lon="9.796699">
        <ele>328.6</ele>
        <time>2026-08-30T10:29:11Z</time>
      </trkpt>
      <trkpt lat="48.799696" lon="9.796699">
        <ele>328.6</ele>
        <time>2026-08-30T10:29:12Z</time>
      </trkpt>
      <trkpt lat="48.799696" lon="9.796699">
        <ele>328.6</ele>
        <time>2026-08-30T10:29:13Z</time>
      </trkpt>
      <trkpt lat="48.799696" lon="9.796699">
        <ele>328.6</ele>
        <time>2026-08-30T10:29:14Z</time>
      </trkpt>
      <trkpt lat="48.799696" lon="9.796699">
        <ele>328.6</ele>
        <time>2026-08-30T10:29:15Z</time>
      </trkpt>
      <trkpt lat="48.799696" lon="9.796699">
        <ele>328.6</ele>
        <time>2026-08-30T10:29:16Z</time>
      </trkpt>
      <trkpt lat="48.799696" lon="9.796699">
        <ele>328.6</ele>
        <time>2026-08-30T10:29:17Z</time>
      </trkpt>
      <trkpt lat="48.799696" lon="9.796699">
        <ele>328.6</ele>
        <time>2026-08-30T10:29:18Z</time>
      </trkpt>
      <trkpt lat="48.799696" lon="9.796699">
        <ele>328.6</ele>
        <time>2026-08-30T10:29:19Z</time>
      </trkpt>
      <trkpt lat="48.799696" lon="9.796699">
        <ele>328.6</ele>
        <time>2026-08-30T10:29:20Z</time>
      </trkpt>
      <trkpt lat="48.799697" lon="9.796695">
        <ele>328.6</ele>
        <time>2026-08-30T10:29:21Z</time>
      </trkpt>
      <trkpt lat="48.799703" lon="9.796713">
        <ele>328.6</ele>
        <time>2026-08-30T10:29:22Z</time>
      </trkpt>
      <trkpt lat="48.799709" lon="9.796727">
        <ele>328.6</ele>
        <time>2026-08-30T10:29:23Z</time>
      </trkpt>
      <trkpt lat="48.799721" lon="9.796749">
        <ele>328.6</ele>
        <time>2026-08-30T10:29:24Z</time>
      </trkpt>
      <trkpt lat="48.799740" lon="9.796783">
        <ele>328.4</ele>
        <time>2026-08-30T10:29:25Z</time>
      </trkpt>
      <trkpt lat="48.799750" lon="9.796816">
        <ele>328.4</ele>
        <time>2026-08-30T10:29:26Z</time>
      </trkpt>
      <trkpt lat="48.799752" lon="9.796842">
        <ele>328.2</ele>
        <time>2026-08-30T10:29:27Z</time>
      </trkpt>
      <trkpt lat="48.799754" lon="9.796864">
        <ele>328.2</ele>
        <time>2026-08-30T10:29:28Z</time>
      </trkpt>
      <trkpt lat="48.799759" lon="9.796887">
        <ele>328.2</ele>
        <time>2026-08-30T10:29:29Z</time>
      </trkpt>
      <trkpt lat="48.799769" lon="9.796927">
        <ele>328.2</ele>
        <time>2026-08-30T10:29:30Z</time>
      </trkpt>
      <trkpt lat="48.799775" lon="9.796956">
        <ele>328.2</ele>
        <time>2026-08-30T10:29:31Z</time>
      </trkpt>
      <trkpt lat="48.799777" lon="9.796986">
        <ele>328.2</ele>
        <time>2026-08-30T10:29:32Z</time>
      </trkpt>
      <trkpt lat="48.799775" lon="9.797019">
        <ele>328</ele>
        <time>2026-08-30T10:29:33Z</time>
      </trkpt>
      <trkpt lat="48.799774" lon="9.797052">
        <ele>328</ele>
        <time>2026-08-30T10:29:34Z</time>
      </trkpt>
      <trkpt lat="48.799769" lon="9.797086">
        <ele>328</ele>
        <time>2026-08-30T10:29:35Z</time>
      </trkpt>
      <trkpt lat="48.799768" lon="9.797120">
        <ele>328</ele>
        <time>2026-08-30T10:29:36Z</time>
      </trkpt>
      <trkpt lat="48.799776" lon="9.797163">
        <ele>328</ele>
        <time>2026-08-30T10:29:37Z</time>
      </trkpt>
      <trkpt lat="48.799784" lon="9.797210">
        <ele>328</ele>
        <time>2026-08-30T10:29:38Z</time>
      </trkpt>
      <trkpt lat="48.799803" lon="9.797266">
        <ele>327.8</ele>
        <time>2026-08-30T10:29:39Z</time>
      </trkpt>
      <trkpt lat="48.799822" lon="9.797323">
        <ele>327.8</ele>
        <time>2026-08-30T10:29:40Z</time>
      </trkpt>
      <trkpt lat="48.799842" lon="9.797377">
        <ele>327.8</ele>
        <time>2026-08-30T10:29:41Z</time>
      </trkpt>
      <trkpt lat="48.799857" lon="9.797432">
        <ele>327.6</ele>
        <time>2026-08-30T10:29:42Z</time>
      </trkpt>
      <trkpt lat="48.799871" lon="9.797486">
        <ele>327.6</ele>
        <time>2026-08-30T10:29:43Z</time>
      </trkpt>
      <trkpt lat="48.799886" lon="9.797538">
        <ele>327.4</ele>
        <time>2026-08-30T10:29:44Z</time>
      </trkpt>
      <trkpt lat="48.799901" lon="9.797587">
        <ele>327.4</ele>
        <time>2026-08-30T10:29:45Z</time>
      </trkpt>
      <trkpt lat="48.799917" lon="9.797629">
        <ele>327.2</ele>
        <time>2026-08-30T10:29:46Z</time>
      </trkpt>
      <trkpt lat="48.799933" lon="9.797669">
        <ele>327.2</ele>
        <time>2026-08-30T10:29:47Z</time>
      </trkpt>
      <trkpt lat="48.799942" lon="9.797712">
        <ele>327.2</ele>
        <time>2026-08-30T10:29:48Z</time>
      </trkpt>
      <trkpt lat="48.799945" lon="9.797757">
        <ele>327</ele>
        <time>2026-08-30T10:29:49Z</time>
      </trkpt>
      <trkpt lat="48.799945" lon="9.797809">
        <ele>327</ele>
        <time>2026-08-30T10:29:50Z</time>
      </trkpt>
      <trkpt lat="48.799939" lon="9.797867">
        <ele>327</ele>
        <time>2026-08-30T10:29:51Z</time>
      </trkpt>
      <trkpt lat="48.799928" lon="9.797923">
        <ele>327</ele>
        <time>2026-08-30T10:29:52Z</time>
      </trkpt>
      <trkpt lat="48.799911" lon="9.797968">
        <ele>327</ele>
        <time>2026-08-30T10:29:53Z</time>
      </trkpt>
      <trkpt lat="48.799891" lon="9.798016">
        <ele>326.8</ele>
        <time>2026-08-30T10:29:54Z</time>
      </trkpt>
      <trkpt lat="48.799864" lon="9.798057">
        <ele>326.8</ele>
        <time>2026-08-30T10:29:55Z</time>
      </trkpt>
      <trkpt lat="48.799841" lon="9.798102">
        <ele>326.8</ele>
        <time>2026-08-30T10:29:56Z</time>
      </trkpt>
      <trkpt lat="48.799821" lon="9.798140">
        <ele>326.6</ele>
        <time>2026-08-30T10:29:57Z</time>
      </trkpt>
      <trkpt lat="48.799801" lon="9.798172">
        <ele>326.6</ele>
        <time>2026-08-30T10:29:58Z</time>
      </trkpt>
      <trkpt lat="48.799780" lon="9.798201">
        <ele>326.6</ele>
        <time>2026-08-30T10:29:59Z</time>
      </trkpt>
      <trkpt lat="48.799750" lon="9.798228">
        <ele>326.6</ele>
        <time>2026-08-30T10:30:00Z</time>
      </trkpt>
      <trkpt lat="48.799723" lon="9.798249">
        <ele>326.6</ele>
        <time>2026-08-30T10:30:01Z</time>
      </trkpt>
      <trkpt lat="48.799696" lon="9.798273">
        <ele>326.6</ele>
        <time>2026-08-30T10:30:02Z</time>
      </trkpt>
      <trkpt lat="48.799674" lon="9.798302">
        <ele>326.6</ele>
        <time>2026-08-30T10:30:03Z</time>
      </trkpt>
      <trkpt lat="48.799650" lon="9.798334">
        <ele>326.8</ele>
        <time>2026-08-30T10:30:04Z</time>
      </trkpt>
      <trkpt lat="48.799627" lon="9.798366">
        <ele>326.8</ele>
        <time>2026-08-30T10:30:05Z</time>
      </trkpt>
      <trkpt lat="48.799602" lon="9.798402">
        <ele>326.8</ele>
        <time>2026-08-30T10:30:06Z</time>
      </trkpt>
      <trkpt lat="48.799575" lon="9.798437">
        <ele>327</ele>
        <time>2026-08-30T10:30:07Z</time>
      </trkpt>
      <trkpt lat="48.799544" lon="9.798464">
        <ele>327</ele>
        <time>2026-08-30T10:30:08Z</time>
      </trkpt>
      <trkpt lat="48.799514" lon="9.798486">
        <ele>327</ele>
        <time>2026-08-30T10:30:09Z</time>
      </trkpt>
      <trkpt lat="48.799482" lon="9.798503">
        <ele>327</ele>
        <time>2026-08-30T10:30:10Z</time>
      </trkpt>
      <trkpt lat="48.799452" lon="9.798523">
        <ele>327</ele>
        <time>2026-08-30T10:30:11Z</time>
      </trkpt>
      <trkpt lat="48.799424" lon="9.798550">
        <ele>327</ele>
        <time>2026-08-30T10:30:12Z</time>
      </trkpt>
      <trkpt lat="48.799408" lon="9.798591">
        <ele>327</ele>
        <time>2026-08-30T10:30:13Z</time>
      </trkpt>
      <trkpt lat="48.799412" lon="9.798634">
        <ele>327</ele>
        <time>2026-08-30T10:30:14Z</time>
      </trkpt>
      <trkpt lat="48.799423" lon="9.798672">
        <ele>327</ele>
        <time>2026-08-30T10:30:15Z</time>
      </trkpt>
      <trkpt lat="48.799434" lon="9.798721">
        <ele>327</ele>
        <time>2026-08-30T10:30:16Z</time>
      </trkpt>
      <trkpt lat="48.799440" lon="9.798771">
        <ele>327</ele>
        <time>2026-08-30T10:30:17Z</time>
      </trkpt>
      <trkpt lat="48.799453" lon="9.798821">
        <ele>327</ele>
        <time>2026-08-30T10:30:18Z</time>
      </trkpt>
      <trkpt lat="48.799465" lon="9.798883">
        <ele>327</ele>
        <time>2026-08-30T10:30:19Z</time>
      </trkpt>
      <trkpt lat="48.799475" lon="9.798945">
        <ele>327</ele>
        <time>2026-08-30T10:30:20Z</time>
      </trkpt>
      <trkpt lat="48.799490" lon="9.799012">
        <ele>327.2</ele>
        <time>2026-08-30T10:30:21Z</time>
      </trkpt>
      <trkpt lat="48.799505" lon="9.799078">
        <ele>327.2</ele>
        <time>2026-08-30T10:30:22Z</time>
      </trkpt>
      <trkpt lat="48.799516" lon="9.799134">
        <ele>327.4</ele>
        <time>2026-08-30T10:30:23Z</time>
      </trkpt>
      <trkpt lat="48.799528" lon="9.799188">
        <ele>327.4</ele>
        <time>2026-08-30T10:30:24Z</time>
      </trkpt>
      <trkpt lat="48.799541" lon="9.799244">
        <ele>327.4</ele>
        <time>2026-08-30T10:30:25Z</time>
      </trkpt>
      <trkpt lat="48.799554" lon="9.799291">
        <ele>327.6</ele>
        <time>2026-08-30T10:30:26Z</time>
      </trkpt>
      <trkpt lat="48.799570" lon="9.799335">
        <ele>327.6</ele>
        <time>2026-08-30T10:30:27Z</time>
      </trkpt>
      <trkpt lat="48.799582" lon="9.799386">
        <ele>327.8</ele>
        <time>2026-08-30T10:30:28Z</time>
      </trkpt>
      <trkpt lat="48.799593" lon="9.799439">
        <ele>328</ele>
        <time>2026-08-30T10:30:29Z</time>
      </trkpt>
      <trkpt lat="48.799610" lon="9.799487">
        <ele>328</ele>
        <time>2026-08-30T10:30:30Z</time>
      </trkpt>
      <trkpt lat="48.799632" lon="9.799540">
        <ele>328.2</ele>
        <time>2026-08-30T10:30:31Z</time>
      </trkpt>
      <trkpt lat="48.799654" lon="9.799591">
        <ele>328.2</ele>
        <time>2026-08-30T10:30:32Z</time>
      </trkpt>
      <trkpt lat="48.799679" lon="9.799642">
        <ele>328.4</ele>
        <time>2026-08-30T10:30:33Z</time>
      </trkpt>
      <trkpt lat="48.799701" lon="9.799689">
        <ele>328.6</ele>
        <time>2026-08-30T10:30:34Z</time>
      </trkpt>
      <trkpt lat="48.799725" lon="9.799740">
        <ele>328.8</ele>
        <time>2026-08-30T10:30:35Z</time>
      </trkpt>
      <trkpt lat="48.799741" lon="9.799784">
        <ele>328.8</ele>
        <time>2026-08-30T10:30:36Z</time>
      </trkpt>
      <trkpt lat="48.799759" lon="9.799829">
        <ele>329</ele>
        <time>2026-08-30T10:30:37Z</time>
      </trkpt>
      <trkpt lat="48.799774" lon="9.799877">
        <ele>329</ele>
        <time>2026-08-30T10:30:38Z</time>
      </trkpt>
      <trkpt lat="48.799790" lon="9.799928">
        <ele>329.2</ele>
        <time>2026-08-30T10:30:39Z</time>
      </trkpt>
      <trkpt lat="48.799805" lon="9.799983">
        <ele>329.4</ele>
        <time>2026-08-30T10:30:40Z</time>
      </trkpt>
      <trkpt lat="48.799818" lon="9.800038">
        <ele>329.4</ele>
        <time>2026-08-30T10:30:41Z</time>
      </trkpt>
      <trkpt lat="48.799832" lon="9.800085">
        <ele>329.6</ele>
        <time>2026-08-30T10:30:42Z</time>
      </trkpt>
      <trkpt lat="48.799840" lon="9.800134">
        <ele>329.6</ele>
        <time>2026-08-30T10:30:43Z</time>
      </trkpt>
      <trkpt lat="48.799848" lon="9.800194">
        <ele>329.8</ele>
        <time>2026-08-30T10:30:44Z</time>
      </trkpt>
      <trkpt lat="48.799858" lon="9.800244">
        <ele>330</ele>
        <time>2026-08-30T10:30:45Z</time>
      </trkpt>
      <trkpt lat="48.799869" lon="9.800287">
        <ele>330</ele>
        <time>2026-08-30T10:30:46Z</time>
      </trkpt>
      <trkpt lat="48.799874" lon="9.800323">
        <ele>330</ele>
        <time>2026-08-30T10:30:47Z</time>
      </trkpt>
      <trkpt lat="48.799872" lon="9.800358">
        <ele>330.2</ele>
        <time>2026-08-30T10:30:48Z</time>
      </trkpt>
      <trkpt lat="48.799864" lon="9.800394">
        <ele>330.2</ele>
        <time>2026-08-30T10:30:49Z</time>
      </trkpt>
      <trkpt lat="48.799864" lon="9.800438">
        <ele>330.4</ele>
        <time>2026-08-30T10:30:50Z</time>
      </trkpt>
      <trkpt lat="48.799871" lon="9.800468">
        <ele>330.4</ele>
        <time>2026-08-30T10:30:51Z</time>
      </trkpt>
      <trkpt lat="48.799886" lon="9.800485">
        <ele>330.4</ele>
        <time>2026-08-30T10:30:52Z</time>
      </trkpt>
      <trkpt lat="48.799904" lon="9.800506">
        <ele>330.4</ele>
        <time>2026-08-30T10:30:53Z</time>
      </trkpt>
      <trkpt lat="48.799916" lon="9.800543">
        <ele>330.4</ele>
        <time>2026-08-30T10:30:54Z</time>
      </trkpt>
      <trkpt lat="48.799931" lon="9.800595">
        <ele>330.4</ele>
        <time>2026-08-30T10:30:55Z</time>
      </trkpt>
      <trkpt lat="48.799947" lon="9.800643">
        <ele>330.4</ele>
        <time>2026-08-30T10:30:56Z</time>
      </trkpt>
      <trkpt lat="48.799966" lon="9.800699">
        <ele>330.4</ele>
        <time>2026-08-30T10:30:57Z</time>
      </trkpt>
      <trkpt lat="48.799983" lon="9.800749">
        <ele>330.4</ele>
        <time>2026-08-30T10:30:58Z</time>
      </trkpt>
      <trkpt lat="48.799998" lon="9.800802">
        <ele>330.4</ele>
        <time>2026-08-30T10:30:59Z</time>
      </trkpt>
      <trkpt lat="48.800016" lon="9.800857">
        <ele>330.4</ele>
        <time>2026-08-30T10:31:00Z</time>
      </trkpt>
      <trkpt lat="48.800034" lon="9.800917">
        <ele>330.4</ele>
        <time>2026-08-30T10:31:01Z</time>
      </trkpt>
      <trkpt lat="48.800052" lon="9.800976">
        <ele>330.4</ele>
        <time>2026-08-30T10:31:02Z</time>
      </trkpt>
      <trkpt lat="48.800071" lon="9.801032">
        <ele>330.4</ele>
        <time>2026-08-30T10:31:03Z</time>
      </trkpt>
      <trkpt lat="48.800087" lon="9.801087">
        <ele>330.4</ele>
        <time>2026-08-30T10:31:04Z</time>
      </trkpt>
      <trkpt lat="48.800105" lon="9.801144">
        <ele>330.2</ele>
        <time>2026-08-30T10:31:05Z</time>
      </trkpt>
      <trkpt lat="48.800120" lon="9.801215">
        <ele>330.2</ele>
        <time>2026-08-30T10:31:06Z</time>
      </trkpt>
      <trkpt lat="48.800142" lon="9.801279">
        <ele>330.2</ele>
        <time>2026-08-30T10:31:07Z</time>
      </trkpt>
      <trkpt lat="48.800160" lon="9.801342">
        <ele>330.2</ele>
        <time>2026-08-30T10:31:08Z</time>
      </trkpt>
      <trkpt lat="48.800189" lon="9.801404">
        <ele>330</ele>
        <time>2026-08-30T10:31:09Z</time>
      </trkpt>
      <trkpt lat="48.800216" lon="9.801465">
        <ele>330</ele>
        <time>2026-08-30T10:31:10Z</time>
      </trkpt>
      <trkpt lat="48.800240" lon="9.801516">
        <ele>330</ele>
        <time>2026-08-30T10:31:11Z</time>
      </trkpt>
      <trkpt lat="48.800267" lon="9.801565">
        <ele>330</ele>
        <time>2026-08-30T10:31:12Z</time>
      </trkpt>
      <trkpt lat="48.800289" lon="9.801625">
        <ele>329.8</ele>
        <time>2026-08-30T10:31:13Z</time>
      </trkpt>
      <trkpt lat="48.800316" lon="9.801679">
        <ele>329.8</ele>
        <time>2026-08-30T10:31:14Z</time>
      </trkpt>
      <trkpt lat="48.800340" lon="9.801727">
        <ele>329.8</ele>
        <time>2026-08-30T10:31:15Z</time>
      </trkpt>
      <trkpt lat="48.800366" lon="9.801770">
        <ele>329.8</ele>
        <time>2026-08-30T10:31:16Z</time>
      </trkpt>
      <trkpt lat="48.800392" lon="9.801809">
        <ele>329.8</ele>
        <time>2026-08-30T10:31:17Z</time>
      </trkpt>
      <trkpt lat="48.800420" lon="9.801846">
        <ele>330</ele>
        <time>2026-08-30T10:31:18Z</time>
      </trkpt>
      <trkpt lat="48.800438" lon="9.801890">
        <ele>330</ele>
        <time>2026-08-30T10:31:19Z</time>
      </trkpt>
      <trkpt lat="48.800458" lon="9.801933">
        <ele>330</ele>
        <time>2026-08-30T10:31:20Z</time>
      </trkpt>
      <trkpt lat="48.800478" lon="9.801987">
        <ele>330</ele>
        <time>2026-08-30T10:31:21Z</time>
      </trkpt>
      <trkpt lat="48.800501" lon="9.802035">
        <ele>330</ele>
        <time>2026-08-30T10:31:22Z</time>
      </trkpt>
      <trkpt lat="48.800525" lon="9.802082">
        <ele>330</ele>
        <time>2026-08-30T10:31:23Z</time>
      </trkpt>
      <trkpt lat="48.800546" lon="9.802127">
        <ele>330</ele>
        <time>2026-08-30T10:31:24Z</time>
      </trkpt>
      <trkpt lat="48.800570" lon="9.802178">
        <ele>330</ele>
        <time>2026-08-30T10:31:25Z</time>
      </trkpt>
      <trkpt lat="48.800598" lon="9.802221">
        <ele>330</ele>
        <time>2026-08-30T10:31:26Z</time>
      </trkpt>
      <trkpt lat="48.800628" lon="9.802264">
        <ele>329.8</ele>
        <time>2026-08-30T10:31:27Z</time>
      </trkpt>
      <trkpt lat="48.800653" lon="9.802318">
        <ele>329.8</ele>
        <time>2026-08-30T10:31:28Z</time>
      </trkpt>
      <trkpt lat="48.800685" lon="9.802368">
        <ele>329.8</ele>
        <time>2026-08-30T10:31:29Z</time>
      </trkpt>
      <trkpt lat="48.800714" lon="9.802417">
        <ele>329.8</ele>
        <time>2026-08-30T10:31:30Z</time>
      </trkpt>
      <trkpt lat="48.800743" lon="9.802473">
        <ele>329.8</ele>
        <time>2026-08-30T10:31:31Z</time>
      </trkpt>
      <trkpt lat="48.800777" lon="9.802525">
        <ele>329.6</ele>
        <time>2026-08-30T10:31:32Z</time>
      </trkpt>
      <trkpt lat="48.800810" lon="9.802565">
        <ele>329.6</ele>
        <time>2026-08-30T10:31:33Z</time>
      </trkpt>
      <trkpt lat="48.800846" lon="9.802605">
        <ele>329.6</ele>
        <time>2026-08-30T10:31:34Z</time>
      </trkpt>
      <trkpt lat="48.800871" lon="9.802662">
        <ele>329.4</ele>
        <time>2026-08-30T10:31:35Z</time>
      </trkpt>
      <trkpt lat="48.800890" lon="9.802724">
        <ele>329.4</ele>
        <time>2026-08-30T10:31:36Z</time>
      </trkpt>
      <trkpt lat="48.800904" lon="9.802782">
        <ele>329.4</ele>
        <time>2026-08-30T10:31:37Z</time>
      </trkpt>
      <trkpt lat="48.800916" lon="9.802845">
        <ele>329.4</ele>
        <time>2026-08-30T10:31:38Z</time>
      </trkpt>
      <trkpt lat="48.800926" lon="9.802906">
        <ele>329.4</ele>
        <time>2026-08-30T10:31:39Z</time>
      </trkpt>
      <trkpt lat="48.800940" lon="9.802965">
        <ele>329.4</ele>
        <time>2026-08-30T10:31:40Z</time>
      </trkpt>
      <trkpt lat="48.800947" lon="9.803025">
        <ele>329.4</ele>
        <time>2026-08-30T10:31:41Z</time>
      </trkpt>
      <trkpt lat="48.800955" lon="9.803081">
        <ele>329.6</ele>
        <time>2026-08-30T10:31:42Z</time>
      </trkpt>
      <trkpt lat="48.800968" lon="9.803136">
        <ele>329.6</ele>
        <time>2026-08-30T10:31:43Z</time>
      </trkpt>
      <trkpt lat="48.800978" lon="9.803185">
        <ele>329.8</ele>
        <time>2026-08-30T10:31:44Z</time>
      </trkpt>
      <trkpt lat="48.800980" lon="9.803224">
        <ele>330</ele>
        <time>2026-08-30T10:31:45Z</time>
      </trkpt>
      <trkpt lat="48.800975" lon="9.803264">
        <ele>330.2</ele>
        <time>2026-08-30T10:31:46Z</time>
      </trkpt>
      <trkpt lat="48.800964" lon="9.803312">
        <ele>330.4</ele>
        <time>2026-08-30T10:31:47Z</time>
      </trkpt>
      <trkpt lat="48.800948" lon="9.803353">
        <ele>330.6</ele>
        <time>2026-08-30T10:31:48Z</time>
      </trkpt>
      <trkpt lat="48.800929" lon="9.803396">
        <ele>330.6</ele>
        <time>2026-08-30T10:31:49Z</time>
      </trkpt>
      <trkpt lat="48.800902" lon="9.803447">
        <ele>330.8</ele>
        <time>2026-08-30T10:31:50Z</time>
      </trkpt>
      <trkpt lat="48.800881" lon="9.803504">
        <ele>330.8</ele>
        <time>2026-08-30T10:31:51Z</time>
      </trkpt>
      <trkpt lat="48.800881" lon="9.803570">
        <ele>330.6</ele>
        <time>2026-08-30T10:31:52Z</time>
      </trkpt>
      <trkpt lat="48.800889" lon="9.803636">
        <ele>330.6</ele>
        <time>2026-08-30T10:31:53Z</time>
      </trkpt>
      <trkpt lat="48.800929" lon="9.803683">
        <ele>330.4</ele>
        <time>2026-08-30T10:31:54Z</time>
      </trkpt>
      <trkpt lat="48.800949" lon="9.803737">
        <ele>330.2</ele>
        <time>2026-08-30T10:31:55Z</time>
      </trkpt>
      <trkpt lat="48.800955" lon="9.803808">
        <ele>329.8</ele>
        <time>2026-08-30T10:31:56Z</time>
      </trkpt>
      <trkpt lat="48.800966" lon="9.803892">
        <ele>329.6</ele>
        <time>2026-08-30T10:31:57Z</time>
      </trkpt>
      <trkpt lat="48.800974" lon="9.803976">
        <ele>329.4</ele>
        <time>2026-08-30T10:31:58Z</time>
      </trkpt>
      <trkpt lat="48.800990" lon="9.804069">
        <ele>329.2</ele>
        <time>2026-08-30T10:31:59Z</time>
      </trkpt>
      <trkpt lat="48.800989" lon="9.804177">
        <ele>329.2</ele>
        <time>2026-08-30T10:32:00Z</time>
      </trkpt>
      <trkpt lat="48.800995" lon="9.804273">
        <ele>329.2</ele>
        <time>2026-08-30T10:32:01Z</time>
      </trkpt>
      <trkpt lat="48.800995" lon="9.804369">
        <ele>329.2</ele>
        <time>2026-08-30T10:32:02Z</time>
      </trkpt>
      <trkpt lat="48.800990" lon="9.804462">
        <ele>329.2</ele>
        <time>2026-08-30T10:32:03Z</time>
      </trkpt>
      <trkpt lat="48.800951" lon="9.804526">
        <ele>329.2</ele>
        <time>2026-08-30T10:32:04Z</time>
      </trkpt>
      <trkpt lat="48.800951" lon="9.804526">
        <ele>329.2</ele>
        <time>2026-08-30T10:32:05Z</time>
      </trkpt>
      <trkpt lat="48.800951" lon="9.804526">
        <ele>329.2</ele>
        <time>2026-08-30T10:32:06Z</time>
      </trkpt>
      <trkpt lat="48.800968" lon="9.804455">
        <ele>329.2</ele>
        <time>2026-08-30T10:32:07Z</time>
      </trkpt>
      <trkpt lat="48.800924" lon="9.804455">
        <ele>329.4</ele>
        <time>2026-08-30T10:32:08Z</time>
      </trkpt>
      <trkpt lat="48.800905" lon="9.804485">
        <ele>329.6</ele>
        <time>2026-08-30T10:32:09Z</time>
      </trkpt>
      <trkpt lat="48.800894" lon="9.804522">
        <ele>329.8</ele>
        <time>2026-08-30T10:32:10Z</time>
      </trkpt>
      <trkpt lat="48.800906" lon="9.804576">
        <ele>330</ele>
        <time>2026-08-30T10:32:11Z</time>
      </trkpt>
      <trkpt lat="48.800930" lon="9.804594">
        <ele>330.4</ele>
        <time>2026-08-30T10:32:12Z</time>
      </trkpt>
      <trkpt lat="48.800976" lon="9.804609">
        <ele>330.6</ele>
        <time>2026-08-30T10:32:13Z</time>
      </trkpt>
      <trkpt lat="48.801005" lon="9.804602">
        <ele>330.8</ele>
        <time>2026-08-30T10:32:14Z</time>
      </trkpt>
      <trkpt lat="48.801024" lon="9.804585">
        <ele>331</ele>
        <time>2026-08-30T10:32:15Z</time>
      </trkpt>
      <trkpt lat="48.801034" lon="9.804570">
        <ele>331.4</ele>
        <time>2026-08-30T10:32:16Z</time>
      </trkpt>
      <trkpt lat="48.801047" lon="9.804586">
        <ele>331.6</ele>
        <time>2026-08-30T10:32:17Z</time>
      </trkpt>
      <trkpt lat="48.801060" lon="9.804620">
        <ele>331.8</ele>
        <time>2026-08-30T10:32:18Z</time>
      </trkpt>
      <trkpt lat="48.801070" lon="9.804667">
        <ele>332</ele>
        <time>2026-08-30T10:32:19Z</time>
      </trkpt>
      <trkpt lat="48.801080" lon="9.804730">
        <ele>332</ele>
        <time>2026-08-30T10:32:20Z</time>
      </trkpt>
      <trkpt lat="48.801090" lon="9.804792">
        <ele>332</ele>
        <time>2026-08-30T10:32:21Z</time>
      </trkpt>
      <trkpt lat="48.801106" lon="9.804852">
        <ele>332</ele>
        <time>2026-08-30T10:32:22Z</time>
      </trkpt>
      <trkpt lat="48.801117" lon="9.804924">
        <ele>332</ele>
        <time>2026-08-30T10:32:23Z</time>
      </trkpt>
      <trkpt lat="48.801127" lon="9.804995">
        <ele>332</ele>
        <time>2026-08-30T10:32:24Z</time>
      </trkpt>
      <trkpt lat="48.801133" lon="9.805074">
        <ele>332</ele>
        <time>2026-08-30T10:32:25Z</time>
      </trkpt>
      <trkpt lat="48.801139" lon="9.805155">
        <ele>331.8</ele>
        <time>2026-08-30T10:32:26Z</time>
      </trkpt>
      <trkpt lat="48.801145" lon="9.805232">
        <ele>331.8</ele>
        <time>2026-08-30T10:32:27Z</time>
      </trkpt>
      <trkpt lat="48.801156" lon="9.805306">
        <ele>331.8</ele>
        <time>2026-08-30T10:32:28Z</time>
      </trkpt>
      <trkpt lat="48.801168" lon="9.805383">
        <ele>331.8</ele>
        <time>2026-08-30T10:32:29Z</time>
      </trkpt>
      <trkpt lat="48.801176" lon="9.805468">
        <ele>331.8</ele>
        <time>2026-08-30T10:32:30Z</time>
      </trkpt>
      <trkpt lat="48.801183" lon="9.805555">
        <ele>331.8</ele>
        <time>2026-08-30T10:32:31Z</time>
      </trkpt>
      <trkpt lat="48.801190" lon="9.805639">
        <ele>331.8</ele>
        <time>2026-08-30T10:32:32Z</time>
      </trkpt>
      <trkpt lat="48.801196" lon="9.805724">
        <ele>331.6</ele>
        <time>2026-08-30T10:32:33Z</time>
      </trkpt>
      <trkpt lat="48.801201" lon="9.805806">
        <ele>331.6</ele>
        <time>2026-08-30T10:32:34Z</time>
      </trkpt>
      <trkpt lat="48.801208" lon="9.805884">
        <ele>331.6</ele>
        <time>2026-08-30T10:32:35Z</time>
      </trkpt>
      <trkpt lat="48.801216" lon="9.805955">
        <ele>331.6</ele>
        <time>2026-08-30T10:32:36Z</time>
      </trkpt>
      <trkpt lat="48.801225" lon="9.806024">
        <ele>331.6</ele>
        <time>2026-08-30T10:32:37Z</time>
      </trkpt>
      <trkpt lat="48.801230" lon="9.806084">
        <ele>331.4</ele>
        <time>2026-08-30T10:32:38Z</time>
      </trkpt>
      <trkpt lat="48.801218" lon="9.806139">
        <ele>331.4</ele>
        <time>2026-08-30T10:32:39Z</time>
      </trkpt>
      <trkpt lat="48.801190" lon="9.806173">
        <ele>331.4</ele>
        <time>2026-08-30T10:32:40Z</time>
      </trkpt>
      <trkpt lat="48.801155" lon="9.806185">
        <ele>331.4</ele>
        <time>2026-08-30T10:32:41Z</time>
      </trkpt>
      <trkpt lat="48.801118" lon="9.806184">
        <ele>331.2</ele>
        <time>2026-08-30T10:32:42Z</time>
      </trkpt>
      <trkpt lat="48.801082" lon="9.806182">
        <ele>331.2</ele>
        <time>2026-08-30T10:32:43Z</time>
      </trkpt>
      <trkpt lat="48.801042" lon="9.806188">
        <ele>331.4</ele>
        <time>2026-08-30T10:32:44Z</time>
      </trkpt>
      <trkpt lat="48.801005" lon="9.806206">
        <ele>331.4</ele>
        <time>2026-08-30T10:32:45Z</time>
      </trkpt>
      <trkpt lat="48.800971" lon="9.806217">
        <ele>331.4</ele>
        <time>2026-08-30T10:32:46Z</time>
      </trkpt>
      <trkpt lat="48.800939" lon="9.806238">
        <ele>331.6</ele>
        <time>2026-08-30T10:32:47Z</time>
      </trkpt>
      <trkpt lat="48.800902" lon="9.806258">
        <ele>331.6</ele>
        <time>2026-08-30T10:32:48Z</time>
      </trkpt>
      <trkpt lat="48.800865" lon="9.806275">
        <ele>331.8</ele>
        <time>2026-08-30T10:32:49Z</time>
      </trkpt>
      <trkpt lat="48.800834" lon="9.806288">
        <ele>331.8</ele>
        <time>2026-08-30T10:32:50Z</time>
      </trkpt>
      <trkpt lat="48.800804" lon="9.806303">
        <ele>332</ele>
        <time>2026-08-30T10:32:51Z</time>
      </trkpt>
      <trkpt lat="48.800775" lon="9.806317">
        <ele>332</ele>
        <time>2026-08-30T10:32:52Z</time>
      </trkpt>
      <trkpt lat="48.800751" lon="9.806322">
        <ele>332.2</ele>
        <time>2026-08-30T10:32:53Z</time>
      </trkpt>
      <trkpt lat="48.800721" lon="9.806331">
        <ele>332.4</ele>
        <time>2026-08-30T10:32:54Z</time>
      </trkpt>
      <trkpt lat="48.800693" lon="9.806350">
        <ele>332.4</ele>
        <time>2026-08-30T10:32:55Z</time>
      </trkpt>
      <trkpt lat="48.800672" lon="9.806373">
        <ele>332.6</ele>
        <time>2026-08-30T10:32:56Z</time>
      </trkpt>
      <trkpt lat="48.800651" lon="9.806397">
        <ele>332.8</ele>
        <time>2026-08-30T10:32:57Z</time>
      </trkpt>
      <trkpt lat="48.800640" lon="9.806433">
        <ele>333</ele>
        <time>2026-08-30T10:32:58Z</time>
      </trkpt>
      <trkpt lat="48.800630" lon="9.806479">
        <ele>333</ele>
        <time>2026-08-30T10:32:59Z</time>
      </trkpt>
      <trkpt lat="48.800629" lon="9.806530">
        <ele>333.2</ele>
        <time>2026-08-30T10:33:00Z</time>
      </trkpt>
      <trkpt lat="48.800631" lon="9.806591">
        <ele>333.2</ele>
        <time>2026-08-30T10:33:01Z</time>
      </trkpt>
      <trkpt lat="48.800636" lon="9.806656">
        <ele>333.2</ele>
        <time>2026-08-30T10:33:02Z</time>
      </trkpt>
      <trkpt lat="48.800637" lon="9.806719">
        <ele>333.2</ele>
        <time>2026-08-30T10:33:03Z</time>
      </trkpt>
      <trkpt lat="48.800633" lon="9.806788">
        <ele>333.2</ele>
        <time>2026-08-30T10:33:04Z</time>
      </trkpt>
      <trkpt lat="48.800628" lon="9.806861">
        <ele>333.2</ele>
        <time>2026-08-30T10:33:05Z</time>
      </trkpt>
      <trkpt lat="48.800629" lon="9.806937">
        <ele>333.2</ele>
        <time>2026-08-30T10:33:06Z</time>
      </trkpt>
      <trkpt lat="48.800636" lon="9.807007">
        <ele>333.2</ele>
        <time>2026-08-30T10:33:07Z</time>
      </trkpt>
      <trkpt lat="48.800647" lon="9.807072">
        <ele>333.2</ele>
        <time>2026-08-30T10:33:08Z</time>
      </trkpt>
      <trkpt lat="48.800657" lon="9.807137">
        <ele>333.2</ele>
        <time>2026-08-30T10:33:09Z</time>
      </trkpt>
      <trkpt lat="48.800665" lon="9.807201">
        <ele>333</ele>
        <time>2026-08-30T10:33:10Z</time>
      </trkpt>
      <trkpt lat="48.800672" lon="9.807269">
        <ele>333</ele>
        <time>2026-08-30T10:33:11Z</time>
      </trkpt>
      <trkpt lat="48.800677" lon="9.807332">
        <ele>333</ele>
        <time>2026-08-30T10:33:12Z</time>
      </trkpt>
      <trkpt lat="48.800683" lon="9.807395">
        <ele>333</ele>
        <time>2026-08-30T10:33:13Z</time>
      </trkpt>
      <trkpt lat="48.800684" lon="9.807457">
        <ele>333</ele>
        <time>2026-08-30T10:33:14Z</time>
      </trkpt>
      <trkpt lat="48.800689" lon="9.807518">
        <ele>333</ele>
        <time>2026-08-30T10:33:15Z</time>
      </trkpt>
      <trkpt lat="48.800692" lon="9.807589">
        <ele>333</ele>
        <time>2026-08-30T10:33:16Z</time>
      </trkpt>
      <trkpt lat="48.800697" lon="9.807652">
        <ele>333</ele>
        <time>2026-08-30T10:33:17Z</time>
      </trkpt>
      <trkpt lat="48.800700" lon="9.807721">
        <ele>333</ele>
        <time>2026-08-30T10:33:18Z</time>
      </trkpt>
      <trkpt lat="48.800706" lon="9.807791">
        <ele>333</ele>
        <time>2026-08-30T10:33:19Z</time>
      </trkpt>
      <trkpt lat="48.800710" lon="9.807866">
        <ele>332.8</ele>
        <time>2026-08-30T10:33:20Z</time>
      </trkpt>
      <trkpt lat="48.800713" lon="9.807944">
        <ele>332.8</ele>
        <time>2026-08-30T10:33:21Z</time>
      </trkpt>
      <trkpt lat="48.800718" lon="9.808023">
        <ele>332.8</ele>
        <time>2026-08-30T10:33:22Z</time>
      </trkpt>
      <trkpt lat="48.800723" lon="9.808104">
        <ele>332.8</ele>
        <time>2026-08-30T10:33:23Z</time>
      </trkpt>
      <trkpt lat="48.800725" lon="9.808186">
        <ele>332.6</ele>
        <time>2026-08-30T10:33:24Z</time>
      </trkpt>
      <trkpt lat="48.800730" lon="9.808263">
        <ele>332.6</ele>
        <time>2026-08-30T10:33:25Z</time>
      </trkpt>
      <trkpt lat="48.800733" lon="9.808340">
        <ele>332.6</ele>
        <time>2026-08-30T10:33:26Z</time>
      </trkpt>
      <trkpt lat="48.800740" lon="9.808425">
        <ele>332.6</ele>
        <time>2026-08-30T10:33:27Z</time>
      </trkpt>
      <trkpt lat="48.800747" lon="9.808507">
        <ele>332.4</ele>
        <time>2026-08-30T10:33:28Z</time>
      </trkpt>
      <trkpt lat="48.800752" lon="9.808586">
        <ele>332.4</ele>
        <time>2026-08-30T10:33:29Z</time>
      </trkpt>
      <trkpt lat="48.800756" lon="9.808664">
        <ele>332.4</ele>
        <time>2026-08-30T10:33:30Z</time>
      </trkpt>
      <trkpt lat="48.800763" lon="9.808735">
        <ele>332.4</ele>
        <time>2026-08-30T10:33:31Z</time>
      </trkpt>
      <trkpt lat="48.800770" lon="9.808801">
        <ele>332.4</ele>
        <time>2026-08-30T10:33:32Z</time>
      </trkpt>
      <trkpt lat="48.800776" lon="9.808868">
        <ele>332.4</ele>
        <time>2026-08-30T10:33:33Z</time>
      </trkpt>
      <trkpt lat="48.800782" lon="9.808935">
        <ele>332.2</ele>
        <time>2026-08-30T10:33:34Z</time>
      </trkpt>
      <trkpt lat="48.800783" lon="9.809002">
        <ele>332.2</ele>
        <time>2026-08-30T10:33:35Z</time>
      </trkpt>
      <trkpt lat="48.800785" lon="9.809067">
        <ele>332.2</ele>
        <time>2026-08-30T10:33:36Z</time>
      </trkpt>
      <trkpt lat="48.800787" lon="9.809131">
        <ele>332.2</ele>
        <time>2026-08-30T10:33:37Z</time>
      </trkpt>
      <trkpt lat="48.800792" lon="9.809191">
        <ele>332.2</ele>
        <time>2026-08-30T10:33:38Z</time>
      </trkpt>
      <trkpt lat="48.800798" lon="9.809249">
        <ele>332.2</ele>
        <time>2026-08-30T10:33:39Z</time>
      </trkpt>
      <trkpt lat="48.800801" lon="9.809314">
        <ele>332</ele>
        <time>2026-08-30T10:33:40Z</time>
      </trkpt>
      <trkpt lat="48.800803" lon="9.809370">
        <ele>332</ele>
        <time>2026-08-30T10:33:41Z</time>
      </trkpt>
      <trkpt lat="48.800798" lon="9.809423">
        <ele>332</ele>
        <time>2026-08-30T10:33:42Z</time>
      </trkpt>
      <trkpt lat="48.800779" lon="9.809468">
        <ele>332</ele>
        <time>2026-08-30T10:33:43Z</time>
      </trkpt>
      <trkpt lat="48.800747" lon="9.809503">
        <ele>331.8</ele>
        <time>2026-08-30T10:33:44Z</time>
      </trkpt>
      <trkpt lat="48.800711" lon="9.809511">
        <ele>331.8</ele>
        <time>2026-08-30T10:33:45Z</time>
      </trkpt>
      <trkpt lat="48.800672" lon="9.809505">
        <ele>331.8</ele>
        <time>2026-08-30T10:33:46Z</time>
      </trkpt>
      <trkpt lat="48.800632" lon="9.809501">
        <ele>331.8</ele>
        <time>2026-08-30T10:33:47Z</time>
      </trkpt>
      <trkpt lat="48.800594" lon="9.809501">
        <ele>331.8</ele>
        <time>2026-08-30T10:33:48Z</time>
      </trkpt>
      <trkpt lat="48.800552" lon="9.809501">
        <ele>332</ele>
        <time>2026-08-30T10:33:49Z</time>
      </trkpt>
      <trkpt lat="48.800511" lon="9.809505">
        <ele>332</ele>
        <time>2026-08-30T10:33:50Z</time>
      </trkpt>
      <trkpt lat="48.800471" lon="9.809517">
        <ele>332.2</ele>
        <time>2026-08-30T10:33:51Z</time>
      </trkpt>
      <trkpt lat="48.800430" lon="9.809524">
        <ele>332.4</ele>
        <time>2026-08-30T10:33:52Z</time>
      </trkpt>
      <trkpt lat="48.800390" lon="9.809538">
        <ele>332.6</ele>
        <time>2026-08-30T10:33:53Z</time>
      </trkpt>
      <trkpt lat="48.800349" lon="9.809550">
        <ele>332.6</ele>
        <time>2026-08-30T10:33:54Z</time>
      </trkpt>
      <trkpt lat="48.800310" lon="9.809560">
        <ele>332.8</ele>
        <time>2026-08-30T10:33:55Z</time>
      </trkpt>
      <trkpt lat="48.800269" lon="9.809573">
        <ele>333</ele>
        <time>2026-08-30T10:33:56Z</time>
      </trkpt>
      <trkpt lat="48.800234" lon="9.809615">
        <ele>333</ele>
        <time>2026-08-30T10:33:57Z</time>
      </trkpt>
      <trkpt lat="48.800220" lon="9.809668">
        <ele>333.2</ele>
        <time>2026-08-30T10:33:58Z</time>
      </trkpt>
      <trkpt lat="48.800220" lon="9.809727">
        <ele>333.2</ele>
        <time>2026-08-30T10:33:59Z</time>
      </trkpt>
      <trkpt lat="48.800230" lon="9.809787">
        <ele>333.4</ele>
        <time>2026-08-30T10:34:00Z</time>
      </trkpt>
      <trkpt lat="48.800242" lon="9.809851">
        <ele>333.4</ele>
        <time>2026-08-30T10:34:01Z</time>
      </trkpt>
      <trkpt lat="48.800248" lon="9.809921">
        <ele>333.4</ele>
        <time>2026-08-30T10:34:02Z</time>
      </trkpt>
      <trkpt lat="48.800254" lon="9.809990">
        <ele>333.4</ele>
        <time>2026-08-30T10:34:03Z</time>
      </trkpt>
      <trkpt lat="48.800252" lon="9.810054">
        <ele>333.4</ele>
        <time>2026-08-30T10:34:04Z</time>
      </trkpt>
      <trkpt lat="48.800237" lon="9.810114">
        <ele>333.4</ele>
        <time>2026-08-30T10:34:05Z</time>
      </trkpt>
      <trkpt lat="48.800211" lon="9.810175">
        <ele>333.4</ele>
        <time>2026-08-30T10:34:06Z</time>
      </trkpt>
      <trkpt lat="48.800182" lon="9.810232">
        <ele>333.4</ele>
        <time>2026-08-30T10:34:07Z</time>
      </trkpt>
      <trkpt lat="48.800153" lon="9.810287">
        <ele>333.2</ele>
        <time>2026-08-30T10:34:08Z</time>
      </trkpt>
      <trkpt lat="48.800119" lon="9.810343">
        <ele>333.2</ele>
        <time>2026-08-30T10:34:09Z</time>
      </trkpt>
      <trkpt lat="48.800092" lon="9.810401">
        <ele>333.4</ele>
        <time>2026-08-30T10:34:10Z</time>
      </trkpt>
      <trkpt lat="48.800074" lon="9.810465">
        <ele>333.4</ele>
        <time>2026-08-30T10:34:11Z</time>
      </trkpt>
      <trkpt lat="48.800068" lon="9.810529">
        <ele>333.6</ele>
        <time>2026-08-30T10:34:12Z</time>
      </trkpt>
      <trkpt lat="48.800063" lon="9.810596">
        <ele>333.6</ele>
        <time>2026-08-30T10:34:13Z</time>
      </trkpt>
      <trkpt lat="48.800054" lon="9.810663">
        <ele>333.6</ele>
        <time>2026-08-30T10:34:14Z</time>
      </trkpt>
      <trkpt lat="48.800054" lon="9.810729">
        <ele>333.8</ele>
        <time>2026-08-30T10:34:15Z</time>
      </trkpt>
      <trkpt lat="48.800056" lon="9.810796">
        <ele>334</ele>
        <time>2026-08-30T10:34:16Z</time>
      </trkpt>
      <trkpt lat="48.800070" lon="9.810857">
        <ele>334</ele>
        <time>2026-08-30T10:34:17Z</time>
      </trkpt>
      <trkpt lat="48.800081" lon="9.810894">
        <ele>334</ele>
        <time>2026-08-30T10:34:18Z</time>
      </trkpt>
      <trkpt lat="48.800084" lon="9.810921">
        <ele>334.2</ele>
        <time>2026-08-30T10:34:19Z</time>
      </trkpt>
      <trkpt lat="48.800089" lon="9.810957">
        <ele>334.4</ele>
        <time>2026-08-30T10:34:20Z</time>
      </trkpt>
      <trkpt lat="48.800088" lon="9.810993">
        <ele>334.4</ele>
        <time>2026-08-30T10:34:21Z</time>
      </trkpt>
      <trkpt lat="48.800088" lon="9.811034">
        <ele>334.4</ele>
        <time>2026-08-30T10:34:22Z</time>
      </trkpt>
      <trkpt lat="48.800085" lon="9.811079">
        <ele>334.6</ele>
        <time>2026-08-30T10:34:23Z</time>
      </trkpt>
      <trkpt lat="48.800087" lon="9.811136">
        <ele>334.6</ele>
        <time>2026-08-30T10:34:24Z</time>
      </trkpt>
      <trkpt lat="48.800091" lon="9.811194">
        <ele>334.4</ele>
        <time>2026-08-30T10:34:25Z</time>
      </trkpt>
      <trkpt lat="48.800096" lon="9.811256">
        <ele>334.4</ele>
        <time>2026-08-30T10:34:26Z</time>
      </trkpt>
      <trkpt lat="48.800100" lon="9.811315">
        <ele>334.4</ele>
        <time>2026-08-30T10:34:27Z</time>
      </trkpt>
      <trkpt lat="48.800097" lon="9.811383">
        <ele>334.4</ele>
        <time>2026-08-30T10:34:28Z</time>
      </trkpt>
      <trkpt lat="48.800097" lon="9.811446">
        <ele>334.4</ele>
        <time>2026-08-30T10:34:29Z</time>
      </trkpt>
      <trkpt lat="48.800091" lon="9.811512">
        <ele>334.4</ele>
        <time>2026-08-30T10:34:30Z</time>
      </trkpt>
      <trkpt lat="48.800086" lon="9.811580">
        <ele>334.2</ele>
        <time>2026-08-30T10:34:31Z</time>
      </trkpt>
      <trkpt lat="48.800080" lon="9.811641">
        <ele>334.2</ele>
        <time>2026-08-30T10:34:32Z</time>
      </trkpt>
      <trkpt lat="48.800080" lon="9.811700">
        <ele>334.2</ele>
        <time>2026-08-30T10:34:33Z</time>
      </trkpt>
      <trkpt lat="48.800084" lon="9.811757">
        <ele>334</ele>
        <time>2026-08-30T10:34:34Z</time>
      </trkpt>
      <trkpt lat="48.800092" lon="9.811814">
        <ele>334</ele>
        <time>2026-08-30T10:34:35Z</time>
      </trkpt>
      <trkpt lat="48.800090" lon="9.811870">
        <ele>334</ele>
        <time>2026-08-30T10:34:36Z</time>
      </trkpt>
      <trkpt lat="48.800093" lon="9.811928">
        <ele>333.8</ele>
        <time>2026-08-30T10:34:37Z</time>
      </trkpt>
      <trkpt lat="48.800104" lon="9.811986">
        <ele>333.8</ele>
        <time>2026-08-30T10:34:38Z</time>
      </trkpt>
      <trkpt lat="48.800115" lon="9.812044">
        <ele>333.8</ele>
        <time>2026-08-30T10:34:39Z</time>
      </trkpt>
      <trkpt lat="48.800125" lon="9.812102">
        <ele>333.8</ele>
        <time>2026-08-30T10:34:40Z</time>
      </trkpt>
      <trkpt lat="48.800133" lon="9.812156">
        <ele>333.8</ele>
        <time>2026-08-30T10:34:41Z</time>
      </trkpt>
      <trkpt lat="48.800130" lon="9.812217">
        <ele>333.8</ele>
        <time>2026-08-30T10:34:42Z</time>
      </trkpt>
      <trkpt lat="48.800114" lon="9.812274">
        <ele>333.8</ele>
        <time>2026-08-30T10:34:43Z</time>
      </trkpt>
      <trkpt lat="48.800088" lon="9.812313">
        <ele>333.8</ele>
        <time>2026-08-30T10:34:44Z</time>
      </trkpt>
      <trkpt lat="48.800057" lon="9.812319">
        <ele>333.8</ele>
        <time>2026-08-30T10:34:45Z</time>
      </trkpt>
      <trkpt lat="48.800025" lon="9.812323">
        <ele>334</ele>
        <time>2026-08-30T10:34:46Z</time>
      </trkpt>
      <trkpt lat="48.799991" lon="9.812324">
        <ele>334</ele>
        <time>2026-08-30T10:34:47Z</time>
      </trkpt>
      <trkpt lat="48.799958" lon="9.812328">
        <ele>334.2</ele>
        <time>2026-08-30T10:34:48Z</time>
      </trkpt>
      <trkpt lat="48.799923" lon="9.812350">
        <ele>334.2</ele>
        <time>2026-08-30T10:34:49Z</time>
      </trkpt>
      <trkpt lat="48.799893" lon="9.812388">
        <ele>334.4</ele>
        <time>2026-08-30T10:34:50Z</time>
      </trkpt>
      <trkpt lat="48.799871" lon="9.812432">
        <ele>334.6</ele>
        <time>2026-08-30T10:34:51Z</time>
      </trkpt>
      <trkpt lat="48.799866" lon="9.812485">
        <ele>334.6</ele>
        <time>2026-08-30T10:34:52Z</time>
      </trkpt>
      <trkpt lat="48.799861" lon="9.812540">
        <ele>334.8</ele>
        <time>2026-08-30T10:34:53Z</time>
      </trkpt>
      <trkpt lat="48.799862" lon="9.812597">
        <ele>334.8</ele>
        <time>2026-08-30T10:34:54Z</time>
      </trkpt>
      <trkpt lat="48.799865" lon="9.812656">
        <ele>335</ele>
        <time>2026-08-30T10:34:55Z</time>
      </trkpt>
      <trkpt lat="48.799867" lon="9.812724">
        <ele>335</ele>
        <time>2026-08-30T10:34:56Z</time>
      </trkpt>
      <trkpt lat="48.799866" lon="9.812788">
        <ele>335</ele>
        <time>2026-08-30T10:34:57Z</time>
      </trkpt>
      <trkpt lat="48.799868" lon="9.812855">
        <ele>335</ele>
        <time>2026-08-30T10:34:58Z</time>
      </trkpt>
      <trkpt lat="48.799873" lon="9.812924">
        <ele>335</ele>
        <time>2026-08-30T10:34:59Z</time>
      </trkpt>
      <trkpt lat="48.799872" lon="9.812992">
        <ele>335</ele>
        <time>2026-08-30T10:35:00Z</time>
      </trkpt>
      <trkpt lat="48.799869" lon="9.813052">
        <ele>335</ele>
        <time>2026-08-30T10:35:01Z</time>
      </trkpt>
      <trkpt lat="48.799866" lon="9.813100">
        <ele>335.2</ele>
        <time>2026-08-30T10:35:02Z</time>
      </trkpt>
      <trkpt lat="48.799866" lon="9.813149">
        <ele>335.2</ele>
        <time>2026-08-30T10:35:03Z</time>
      </trkpt>
      <trkpt lat="48.799867" lon="9.813190">
        <ele>335.4</ele>
        <time>2026-08-30T10:35:04Z</time>
      </trkpt>
      <trkpt lat="48.799867" lon="9.813224">
        <ele>335.6</ele>
        <time>2026-08-30T10:35:05Z</time>
      </trkpt>
      <trkpt lat="48.799862" lon="9.813266">
        <ele>336</ele>
        <time>2026-08-30T10:35:06Z</time>
      </trkpt>
      <trkpt lat="48.799853" lon="9.813308">
        <ele>336.2</ele>
        <time>2026-08-30T10:35:07Z</time>
      </trkpt>
      <trkpt lat="48.799846" lon="9.813344">
        <ele>336.4</ele>
        <time>2026-08-30T10:35:08Z</time>
      </trkpt>
      <trkpt lat="48.799841" lon="9.813376">
        <ele>336.8</ele>
        <time>2026-08-30T10:35:09Z</time>
      </trkpt>
      <trkpt lat="48.799836" lon="9.813412">
        <ele>337</ele>
        <time>2026-08-30T10:35:10Z</time>
      </trkpt>
      <trkpt lat="48.799831" lon="9.813454">
        <ele>337.2</ele>
        <time>2026-08-30T10:35:11Z</time>
      </trkpt>
      <trkpt lat="48.799828" lon="9.813492">
        <ele>337.4</ele>
        <time>2026-08-30T10:35:12Z</time>
      </trkpt>
      <trkpt lat="48.799825" lon="9.813528">
        <ele>337.8</ele>
        <time>2026-08-30T10:35:13Z</time>
      </trkpt>
      <trkpt lat="48.799822" lon="9.813561">
        <ele>338</ele>
        <time>2026-08-30T10:35:14Z</time>
      </trkpt>
      <trkpt lat="48.799819" lon="9.813597">
        <ele>338.2</ele>
        <time>2026-08-30T10:35:15Z</time>
      </trkpt>
      <trkpt lat="48.799816" lon="9.813633">
        <ele>338.4</ele>
        <time>2026-08-30T10:35:16Z</time>
      </trkpt>
      <trkpt lat="48.799817" lon="9.813675">
        <ele>338.8</ele>
        <time>2026-08-30T10:35:17Z</time>
      </trkpt>
      <trkpt lat="48.799816" lon="9.813718">
        <ele>339</ele>
        <time>2026-08-30T10:35:18Z</time>
      </trkpt>
      <trkpt lat="48.799820" lon="9.813761">
        <ele>339.2</ele>
        <time>2026-08-30T10:35:19Z</time>
      </trkpt>
      <trkpt lat="48.799822" lon="9.813797">
        <ele>339.4</ele>
        <time>2026-08-30T10:35:20Z</time>
      </trkpt>
      <trkpt lat="48.799826" lon="9.813838">
        <ele>339.6</ele>
        <time>2026-08-30T10:35:21Z</time>
      </trkpt>
      <trkpt lat="48.799831" lon="9.813882">
        <ele>339.8</ele>
        <time>2026-08-30T10:35:22Z</time>
      </trkpt>
      <trkpt lat="48.799834" lon="9.813921">
        <ele>340</ele>
        <time>2026-08-30T10:35:23Z</time>
      </trkpt>
      <trkpt lat="48.799841" lon="9.813963">
        <ele>340</ele>
        <time>2026-08-30T10:35:24Z</time>
      </trkpt>
      <trkpt lat="48.799846" lon="9.814011">
        <ele>340.2</ele>
        <time>2026-08-30T10:35:25Z</time>
      </trkpt>
      <trkpt lat="48.799856" lon="9.814055">
        <ele>340.2</ele>
        <time>2026-08-30T10:35:26Z</time>
      </trkpt>
      <trkpt lat="48.799867" lon="9.814099">
        <ele>340.4</ele>
        <time>2026-08-30T10:35:27Z</time>
      </trkpt>
      <trkpt lat="48.799874" lon="9.814150">
        <ele>340.6</ele>
        <time>2026-08-30T10:35:28Z</time>
      </trkpt>
      <trkpt lat="48.799884" lon="9.814203">
        <ele>340.6</ele>
        <time>2026-08-30T10:35:29Z</time>
      </trkpt>
      <trkpt lat="48.799895" lon="9.814259">
        <ele>340.6</ele>
        <time>2026-08-30T10:35:30Z</time>
      </trkpt>
      <trkpt lat="48.799909" lon="9.814312">
        <ele>340.6</ele>
        <time>2026-08-30T10:35:31Z</time>
      </trkpt>
      <trkpt lat="48.799924" lon="9.814370">
        <ele>340.6</ele>
        <time>2026-08-30T10:35:32Z</time>
      </trkpt>
      <trkpt lat="48.799937" lon="9.814436">
        <ele>340.6</ele>
        <time>2026-08-30T10:35:33Z</time>
      </trkpt>
      <trkpt lat="48.799947" lon="9.814507">
        <ele>340.4</ele>
        <time>2026-08-30T10:35:34Z</time>
      </trkpt>
      <trkpt lat="48.799955" lon="9.814570">
        <ele>340.4</ele>
        <time>2026-08-30T10:35:35Z</time>
      </trkpt>
      <trkpt lat="48.799951" lon="9.814642">
        <ele>340.2</ele>
        <time>2026-08-30T10:35:36Z</time>
      </trkpt>
      <trkpt lat="48.799942" lon="9.814719">
        <ele>340</ele>
        <time>2026-08-30T10:35:37Z</time>
      </trkpt>
      <trkpt lat="48.799927" lon="9.814789">
        <ele>340</ele>
        <time>2026-08-30T10:35:38Z</time>
      </trkpt>
      <trkpt lat="48.799915" lon="9.814859">
        <ele>339.8</ele>
        <time>2026-08-30T10:35:39Z</time>
      </trkpt>
      <trkpt lat="48.799896" lon="9.814922">
        <ele>339.8</ele>
        <time>2026-08-30T10:35:40Z</time>
      </trkpt>
      <trkpt lat="48.799876" lon="9.814984">
        <ele>339.6</ele>
        <time>2026-08-30T10:35:41Z</time>
      </trkpt>
      <trkpt lat="48.799859" lon="9.815041">
        <ele>339.6</ele>
        <time>2026-08-30T10:35:42Z</time>
      </trkpt>
      <trkpt lat="48.799835" lon="9.815091">
        <ele>339.6</ele>
        <time>2026-08-30T10:35:43Z</time>
      </trkpt>
      <trkpt lat="48.799809" lon="9.815141">
        <ele>339.6</ele>
        <time>2026-08-30T10:35:44Z</time>
      </trkpt>
      <trkpt lat="48.799781" lon="9.815185">
        <ele>339.8</ele>
        <time>2026-08-30T10:35:45Z</time>
      </trkpt>
      <trkpt lat="48.799752" lon="9.815227">
        <ele>339.8</ele>
        <time>2026-08-30T10:35:46Z</time>
      </trkpt>
      <trkpt lat="48.799730" lon="9.815271">
        <ele>340</ele>
        <time>2026-08-30T10:35:47Z</time>
      </trkpt>
      <trkpt lat="48.799710" lon="9.815322">
        <ele>340.2</ele>
        <time>2026-08-30T10:35:48Z</time>
      </trkpt>
      <trkpt lat="48.799697" lon="9.815374">
        <ele>340.2</ele>
        <time>2026-08-30T10:35:49Z</time>
      </trkpt>
      <trkpt lat="48.799691" lon="9.815433">
        <ele>340.4</ele>
        <time>2026-08-30T10:35:50Z</time>
      </trkpt>
      <trkpt lat="48.799685" lon="9.815498">
        <ele>340.4</ele>
        <time>2026-08-30T10:35:51Z</time>
      </trkpt>
      <trkpt lat="48.799690" lon="9.815564">
        <ele>340.4</ele>
        <time>2026-08-30T10:35:52Z</time>
      </trkpt>
      <trkpt lat="48.799692" lon="9.815632">
        <ele>340.4</ele>
        <time>2026-08-30T10:35:53Z</time>
      </trkpt>
      <trkpt lat="48.799691" lon="9.815696">
        <ele>340.4</ele>
        <time>2026-08-30T10:35:54Z</time>
      </trkpt>
      <trkpt lat="48.799692" lon="9.815769">
        <ele>340.4</ele>
        <time>2026-08-30T10:35:55Z</time>
      </trkpt>
      <trkpt lat="48.799690" lon="9.815845">
        <ele>340.4</ele>
        <time>2026-08-30T10:35:56Z</time>
      </trkpt>
      <trkpt lat="48.799686" lon="9.815924">
        <ele>340.2</ele>
        <time>2026-08-30T10:35:57Z</time>
      </trkpt>
      <trkpt lat="48.799688" lon="9.816001">
        <ele>340.2</ele>
        <time>2026-08-30T10:35:58Z</time>
      </trkpt>
      <trkpt lat="48.799689" lon="9.816076">
        <ele>340.2</ele>
        <time>2026-08-30T10:35:59Z</time>
      </trkpt>
      <trkpt lat="48.799692" lon="9.816152">
        <ele>340</ele>
        <time>2026-08-30T10:36:00Z</time>
      </trkpt>
      <trkpt lat="48.799697" lon="9.816231">
        <ele>340</ele>
        <time>2026-08-30T10:36:01Z</time>
      </trkpt>
      <trkpt lat="48.799702" lon="9.816301">
        <ele>339.8</ele>
        <time>2026-08-30T10:36:02Z</time>
      </trkpt>
      <trkpt lat="48.799712" lon="9.816383">
        <ele>339.8</ele>
        <time>2026-08-30T10:36:03Z</time>
      </trkpt>
      <trkpt lat="48.799719" lon="9.816462">
        <ele>339.6</ele>
        <time>2026-08-30T10:36:04Z</time>
      </trkpt>
      <trkpt lat="48.799725" lon="9.816550">
        <ele>339.6</ele>
        <time>2026-08-30T10:36:05Z</time>
      </trkpt>
      <trkpt lat="48.799733" lon="9.816641">
        <ele>339.4</ele>
        <time>2026-08-30T10:36:06Z</time>
      </trkpt>
      <trkpt lat="48.799739" lon="9.816732">
        <ele>339.4</ele>
        <time>2026-08-30T10:36:07Z</time>
      </trkpt>
      <trkpt lat="48.799745" lon="9.816828">
        <ele>339.2</ele>
        <time>2026-08-30T10:36:08Z</time>
      </trkpt>
      <trkpt lat="48.799747" lon="9.816919">
        <ele>339</ele>
        <time>2026-08-30T10:36:09Z</time>
      </trkpt>
      <trkpt lat="48.799748" lon="9.817003">
        <ele>339</ele>
        <time>2026-08-30T10:36:10Z</time>
      </trkpt>
      <trkpt lat="48.799749" lon="9.817088">
        <ele>338.8</ele>
        <time>2026-08-30T10:36:11Z</time>
      </trkpt>
      <trkpt lat="48.799748" lon="9.817168">
        <ele>338.6</ele>
        <time>2026-08-30T10:36:12Z</time>
      </trkpt>
      <trkpt lat="48.799746" lon="9.817249">
        <ele>338.6</ele>
        <time>2026-08-30T10:36:13Z</time>
      </trkpt>
      <trkpt lat="48.799744" lon="9.817322">
        <ele>338.4</ele>
        <time>2026-08-30T10:36:14Z</time>
      </trkpt>
      <trkpt lat="48.799744" lon="9.817397">
        <ele>338.4</ele>
        <time>2026-08-30T10:36:15Z</time>
      </trkpt>
      <trkpt lat="48.799742" lon="9.817467">
        <ele>338.4</ele>
        <time>2026-08-30T10:36:16Z</time>
      </trkpt>
      <trkpt lat="48.799743" lon="9.817540">
        <ele>338.4</ele>
        <time>2026-08-30T10:36:17Z</time>
      </trkpt>
      <trkpt lat="48.799746" lon="9.817618">
        <ele>338.2</ele>
        <time>2026-08-30T10:36:18Z</time>
      </trkpt>
      <trkpt lat="48.799743" lon="9.817697">
        <ele>338.2</ele>
        <time>2026-08-30T10:36:19Z</time>
      </trkpt>
      <trkpt lat="48.799738" lon="9.817777">
        <ele>338.2</ele>
        <time>2026-08-30T10:36:20Z</time>
      </trkpt>
      <trkpt lat="48.799733" lon="9.817860">
        <ele>338.2</ele>
        <time>2026-08-30T10:36:21Z</time>
      </trkpt>
      <trkpt lat="48.799731" lon="9.817942">
        <ele>338</ele>
        <time>2026-08-30T10:36:22Z</time>
      </trkpt>
      <trkpt lat="48.799730" lon="9.818028">
        <ele>338</ele>
        <time>2026-08-30T10:36:23Z</time>
      </trkpt>
      <trkpt lat="48.799731" lon="9.818117">
        <ele>338</ele>
        <time>2026-08-30T10:36:24Z</time>
      </trkpt>
      <trkpt lat="48.799733" lon="9.818207">
        <ele>337.8</ele>
        <time>2026-08-30T10:36:25Z</time>
      </trkpt>
      <trkpt lat="48.799735" lon="9.818298">
        <ele>337.8</ele>
        <time>2026-08-30T10:36:26Z</time>
      </trkpt>
      <trkpt lat="48.799733" lon="9.818381">
        <ele>337.8</ele>
        <time>2026-08-30T10:36:27Z</time>
      </trkpt>
      <trkpt lat="48.799732" lon="9.818467">
        <ele>337.8</ele>
        <time>2026-08-30T10:36:28Z</time>
      </trkpt>
      <trkpt lat="48.799729" lon="9.818553">
        <ele>337.6</ele>
        <time>2026-08-30T10:36:29Z</time>
      </trkpt>
      <trkpt lat="48.799725" lon="9.818635">
        <ele>337.6</ele>
        <time>2026-08-30T10:36:30Z</time>
      </trkpt>
      <trkpt lat="48.799722" lon="9.818720">
        <ele>337.6</ele>
        <time>2026-08-30T10:36:31Z</time>
      </trkpt>
      <trkpt lat="48.799718" lon="9.818808">
        <ele>337.4</ele>
        <time>2026-08-30T10:36:32Z</time>
      </trkpt>
      <trkpt lat="48.799708" lon="9.818887">
        <ele>337.4</ele>
        <time>2026-08-30T10:36:33Z</time>
      </trkpt>
      <trkpt lat="48.799702" lon="9.818965">
        <ele>337.2</ele>
        <time>2026-08-30T10:36:34Z</time>
      </trkpt>
      <trkpt lat="48.799698" lon="9.819051">
        <ele>337.2</ele>
        <time>2026-08-30T10:36:35Z</time>
      </trkpt>
      <trkpt lat="48.799698" lon="9.819135">
        <ele>337</ele>
        <time>2026-08-30T10:36:36Z</time>
      </trkpt>
      <trkpt lat="48.799698" lon="9.819207">
        <ele>337</ele>
        <time>2026-08-30T10:36:37Z</time>
      </trkpt>
      <trkpt lat="48.799691" lon="9.819274">
        <ele>337</ele>
        <time>2026-08-30T10:36:38Z</time>
      </trkpt>
      <trkpt lat="48.799681" lon="9.819344">
        <ele>336.8</ele>
        <time>2026-08-30T10:36:39Z</time>
      </trkpt>
      <trkpt lat="48.799672" lon="9.819413">
        <ele>336.8</ele>
        <time>2026-08-30T10:36:40Z</time>
      </trkpt>
      <trkpt lat="48.799662" lon="9.819490">
        <ele>336.8</ele>
        <time>2026-08-30T10:36:41Z</time>
      </trkpt>
      <trkpt lat="48.799657" lon="9.819568">
        <ele>336.8</ele>
        <time>2026-08-30T10:36:42Z</time>
      </trkpt>
      <trkpt lat="48.799655" lon="9.819650">
        <ele>336.8</ele>
        <time>2026-08-30T10:36:43Z</time>
      </trkpt>
      <trkpt lat="48.799657" lon="9.819732">
        <ele>336.6</ele>
        <time>2026-08-30T10:36:44Z</time>
      </trkpt>
      <trkpt lat="48.799650" lon="9.819810">
        <ele>336.6</ele>
        <time>2026-08-30T10:36:45Z</time>
      </trkpt>
      <trkpt lat="48.799639" lon="9.819882">
        <ele>336.6</ele>
        <time>2026-08-30T10:36:46Z</time>
      </trkpt>
      <trkpt lat="48.799630" lon="9.819955">
        <ele>336.6</ele>
        <time>2026-08-30T10:36:47Z</time>
      </trkpt>
      <trkpt lat="48.799625" lon="9.820034">
        <ele>336.6</ele>
        <time>2026-08-30T10:36:48Z</time>
      </trkpt>
      <trkpt lat="48.799628" lon="9.820116">
        <ele>336.6</ele>
        <time>2026-08-30T10:36:49Z</time>
      </trkpt>
      <trkpt lat="48.799631" lon="9.820198">
        <ele>336.6</ele>
        <time>2026-08-30T10:36:50Z</time>
      </trkpt>
      <trkpt lat="48.799632" lon="9.820280">
        <ele>336.6</ele>
        <time>2026-08-30T10:36:51Z</time>
      </trkpt>
      <trkpt lat="48.799626" lon="9.820355">
        <ele>336.6</ele>
        <time>2026-08-30T10:36:52Z</time>
      </trkpt>
      <trkpt lat="48.799620" lon="9.820428">
        <ele>336.8</ele>
        <time>2026-08-30T10:36:53Z</time>
      </trkpt>
      <trkpt lat="48.799614" lon="9.820504">
        <ele>336.8</ele>
        <time>2026-08-30T10:36:54Z</time>
      </trkpt>
      <trkpt lat="48.799607" lon="9.820588">
        <ele>336.8</ele>
        <time>2026-08-30T10:36:55Z</time>
      </trkpt>
      <trkpt lat="48.799606" lon="9.820667">
        <ele>336.8</ele>
        <time>2026-08-30T10:36:56Z</time>
      </trkpt>
      <trkpt lat="48.799604" lon="9.820745">
        <ele>336.8</ele>
        <time>2026-08-30T10:36:57Z</time>
      </trkpt>
      <trkpt lat="48.799603" lon="9.820822">
        <ele>336.8</ele>
        <time>2026-08-30T10:36:58Z</time>
      </trkpt>
      <trkpt lat="48.799599" lon="9.820898">
        <ele>336.8</ele>
        <time>2026-08-30T10:36:59Z</time>
      </trkpt>
      <trkpt lat="48.799591" lon="9.820978">
        <ele>336.8</ele>
        <time>2026-08-30T10:37:00Z</time>
      </trkpt>
      <trkpt lat="48.799586" lon="9.821054">
        <ele>336.8</ele>
        <time>2026-08-30T10:37:01Z</time>
      </trkpt>
      <trkpt lat="48.799587" lon="9.821133">
        <ele>336.8</ele>
        <time>2026-08-30T10:37:02Z</time>
      </trkpt>
      <trkpt lat="48.799589" lon="9.821211">
        <ele>336.8</ele>
        <time>2026-08-30T10:37:03Z</time>
      </trkpt>
      <trkpt lat="48.799583" lon="9.821284">
        <ele>336.8</ele>
        <time>2026-08-30T10:37:04Z</time>
      </trkpt>
      <trkpt lat="48.799573" lon="9.821355">
        <ele>336.8</ele>
        <time>2026-08-30T10:37:05Z</time>
      </trkpt>
      <trkpt lat="48.799567" lon="9.821433">
        <ele>336.8</ele>
        <time>2026-08-30T10:37:06Z</time>
      </trkpt>
      <trkpt lat="48.799567" lon="9.821514">
        <ele>337</ele>
        <time>2026-08-30T10:37:07Z</time>
      </trkpt>
      <trkpt lat="48.799566" lon="9.821594">
        <ele>337</ele>
        <time>2026-08-30T10:37:08Z</time>
      </trkpt>
      <trkpt lat="48.799560" lon="9.821671">
        <ele>337</ele>
        <time>2026-08-30T10:37:09Z</time>
      </trkpt>
      <trkpt lat="48.799556" lon="9.821749">
        <ele>337</ele>
        <time>2026-08-30T10:37:10Z</time>
      </trkpt>
      <trkpt lat="48.799552" lon="9.821828">
        <ele>337</ele>
        <time>2026-08-30T10:37:11Z</time>
      </trkpt>
      <trkpt lat="48.799548" lon="9.821907">
        <ele>337</ele>
        <time>2026-08-30T10:37:12Z</time>
      </trkpt>
      <trkpt lat="48.799541" lon="9.821980">
        <ele>337</ele>
        <time>2026-08-30T10:37:13Z</time>
      </trkpt>
      <trkpt lat="48.799533" lon="9.822053">
        <ele>337</ele>
        <time>2026-08-30T10:37:14Z</time>
      </trkpt>
      <trkpt lat="48.799533" lon="9.822128">
        <ele>337</ele>
        <time>2026-08-30T10:37:15Z</time>
      </trkpt>
      <trkpt lat="48.799536" lon="9.822208">
        <ele>337</ele>
        <time>2026-08-30T10:37:16Z</time>
      </trkpt>
      <trkpt lat="48.799536" lon="9.822291">
        <ele>337.2</ele>
        <time>2026-08-30T10:37:17Z</time>
      </trkpt>
      <trkpt lat="48.799531" lon="9.822370">
        <ele>337.2</ele>
        <time>2026-08-30T10:37:18Z</time>
      </trkpt>
      <trkpt lat="48.799525" lon="9.822441">
        <ele>337</ele>
        <time>2026-08-30T10:37:19Z</time>
      </trkpt>
      <trkpt lat="48.799520" lon="9.822518">
        <ele>337.2</ele>
        <time>2026-08-30T10:37:20Z</time>
      </trkpt>
      <trkpt lat="48.799518" lon="9.822595">
        <ele>337.2</ele>
        <time>2026-08-30T10:37:21Z</time>
      </trkpt>
      <trkpt lat="48.799518" lon="9.822672">
        <ele>337.2</ele>
        <time>2026-08-30T10:37:22Z</time>
      </trkpt>
      <trkpt lat="48.799514" lon="9.822751">
        <ele>337.2</ele>
        <time>2026-08-30T10:37:23Z</time>
      </trkpt>
      <trkpt lat="48.799508" lon="9.822826">
        <ele>337.2</ele>
        <time>2026-08-30T10:37:24Z</time>
      </trkpt>
      <trkpt lat="48.799501" lon="9.822899">
        <ele>337.2</ele>
        <time>2026-08-30T10:37:25Z</time>
      </trkpt>
      <trkpt lat="48.799500" lon="9.822980">
        <ele>337.4</ele>
        <time>2026-08-30T10:37:26Z</time>
      </trkpt>
      <trkpt lat="48.799502" lon="9.823052">
        <ele>337.4</ele>
        <time>2026-08-30T10:37:27Z</time>
      </trkpt>
      <trkpt lat="48.799500" lon="9.823122">
        <ele>337.6</ele>
        <time>2026-08-30T10:37:28Z</time>
      </trkpt>
      <trkpt lat="48.799500" lon="9.823191">
        <ele>337.6</ele>
        <time>2026-08-30T10:37:29Z</time>
      </trkpt>
      <trkpt lat="48.799500" lon="9.823265">
        <ele>337.8</ele>
        <time>2026-08-30T10:37:30Z</time>
      </trkpt>
      <trkpt lat="48.799498" lon="9.823337">
        <ele>337.8</ele>
        <time>2026-08-30T10:37:31Z</time>
      </trkpt>
      <trkpt lat="48.799496" lon="9.823413">
        <ele>338</ele>
        <time>2026-08-30T10:37:32Z</time>
      </trkpt>
      <trkpt lat="48.799494" lon="9.823490">
        <ele>338</ele>
        <time>2026-08-30T10:37:33Z</time>
      </trkpt>
      <trkpt lat="48.799493" lon="9.823565">
        <ele>338.2</ele>
        <time>2026-08-30T10:37:34Z</time>
      </trkpt>
      <trkpt lat="48.799493" lon="9.823636">
        <ele>338.2</ele>
        <time>2026-08-30T10:37:35Z</time>
      </trkpt>
      <trkpt lat="48.799490" lon="9.823710">
        <ele>338.2</ele>
        <time>2026-08-30T10:37:36Z</time>
      </trkpt>
      <trkpt lat="48.799487" lon="9.823784">
        <ele>338.4</ele>
        <time>2026-08-30T10:37:37Z</time>
      </trkpt>
      <trkpt lat="48.799485" lon="9.823859">
        <ele>338.4</ele>
        <time>2026-08-30T10:37:38Z</time>
      </trkpt>
      <trkpt lat="48.799488" lon="9.823930">
        <ele>338.4</ele>
        <time>2026-08-30T10:37:39Z</time>
      </trkpt>
      <trkpt lat="48.799493" lon="9.824005">
        <ele>338.6</ele>
        <time>2026-08-30T10:37:40Z</time>
      </trkpt>
      <trkpt lat="48.799498" lon="9.824081">
        <ele>338.6</ele>
        <time>2026-08-30T10:37:41Z</time>
      </trkpt>
      <trkpt lat="48.799499" lon="9.824155">
        <ele>338.6</ele>
        <time>2026-08-30T10:37:42Z</time>
      </trkpt>
      <trkpt lat="48.799500" lon="9.824229">
        <ele>338.6</ele>
        <time>2026-08-30T10:37:43Z</time>
      </trkpt>
      <trkpt lat="48.799504" lon="9.824301">
        <ele>338.8</ele>
        <time>2026-08-30T10:37:44Z</time>
      </trkpt>
      <trkpt lat="48.799511" lon="9.824375">
        <ele>338.8</ele>
        <time>2026-08-30T10:37:45Z</time>
      </trkpt>
      <trkpt lat="48.799520" lon="9.824450">
        <ele>339</ele>
        <time>2026-08-30T10:37:46Z</time>
      </trkpt>
      <trkpt lat="48.799525" lon="9.824522">
        <ele>339</ele>
        <time>2026-08-30T10:37:47Z</time>
      </trkpt>
      <trkpt lat="48.799528" lon="9.824595">
        <ele>339.2</ele>
        <time>2026-08-30T10:37:48Z</time>
      </trkpt>
      <trkpt lat="48.799528" lon="9.824672">
        <ele>339.2</ele>
        <time>2026-08-30T10:37:49Z</time>
      </trkpt>
      <trkpt lat="48.799531" lon="9.824749">
        <ele>339.2</ele>
        <time>2026-08-30T10:37:50Z</time>
      </trkpt>
      <trkpt lat="48.799532" lon="9.824824">
        <ele>339.4</ele>
        <time>2026-08-30T10:37:51Z</time>
      </trkpt>
      <trkpt lat="48.799533" lon="9.824901">
        <ele>339.4</ele>
        <time>2026-08-30T10:37:52Z</time>
      </trkpt>
      <trkpt lat="48.799537" lon="9.824975">
        <ele>339.4</ele>
        <time>2026-08-30T10:37:53Z</time>
      </trkpt>
      <trkpt lat="48.799543" lon="9.825047">
        <ele>339.6</ele>
        <time>2026-08-30T10:37:54Z</time>
      </trkpt>
      <trkpt lat="48.799550" lon="9.825121">
        <ele>339.6</ele>
        <time>2026-08-30T10:37:55Z</time>
      </trkpt>
      <trkpt lat="48.799553" lon="9.825190">
        <ele>339.6</ele>
        <time>2026-08-30T10:37:56Z</time>
      </trkpt>
      <trkpt lat="48.799551" lon="9.825258">
        <ele>339.6</ele>
        <time>2026-08-30T10:37:57Z</time>
      </trkpt>
      <trkpt lat="48.799547" lon="9.825326">
        <ele>339.6</ele>
        <time>2026-08-30T10:37:58Z</time>
      </trkpt>
      <trkpt lat="48.799544" lon="9.825398">
        <ele>339.6</ele>
        <time>2026-08-30T10:37:59Z</time>
      </trkpt>
      <trkpt lat="48.799540" lon="9.825469">
        <ele>339.6</ele>
        <time>2026-08-30T10:38:00Z</time>
      </trkpt>
      <trkpt lat="48.799532" lon="9.825539">
        <ele>339.8</ele>
        <time>2026-08-30T10:38:01Z</time>
      </trkpt>
      <trkpt lat="48.799525" lon="9.825608">
        <ele>339.8</ele>
        <time>2026-08-30T10:38:02Z</time>
      </trkpt>
      <trkpt lat="48.799518" lon="9.825675">
        <ele>339.8</ele>
        <time>2026-08-30T10:38:03Z</time>
      </trkpt>
      <trkpt lat="48.799511" lon="9.825744">
        <ele>339.8</ele>
        <time>2026-08-30T10:38:04Z</time>
      </trkpt>
      <trkpt lat="48.799502" lon="9.825813">
        <ele>339.8</ele>
        <time>2026-08-30T10:38:05Z</time>
      </trkpt>
      <trkpt lat="48.799496" lon="9.825888">
        <ele>340</ele>
        <time>2026-08-30T10:38:06Z</time>
      </trkpt>
      <trkpt lat="48.799490" lon="9.825964">
        <ele>340</ele>
        <time>2026-08-30T10:38:07Z</time>
      </trkpt>
      <trkpt lat="48.799488" lon="9.826037">
        <ele>340</ele>
        <time>2026-08-30T10:38:08Z</time>
      </trkpt>
      <trkpt lat="48.799481" lon="9.826108">
        <ele>340</ele>
        <time>2026-08-30T10:38:09Z</time>
      </trkpt>
      <trkpt lat="48.799476" lon="9.826182">
        <ele>340</ele>
        <time>2026-08-30T10:38:10Z</time>
      </trkpt>
      <trkpt lat="48.799471" lon="9.826250">
        <ele>340</ele>
        <time>2026-08-30T10:38:11Z</time>
      </trkpt>
      <trkpt lat="48.799469" lon="9.826322">
        <ele>340</ele>
        <time>2026-08-30T10:38:12Z</time>
      </trkpt>
      <trkpt lat="48.799465" lon="9.826395">
        <ele>340.2</ele>
        <time>2026-08-30T10:38:13Z</time>
      </trkpt>
      <trkpt lat="48.799461" lon="9.826468">
        <ele>340.2</ele>
        <time>2026-08-30T10:38:14Z</time>
      </trkpt>
      <trkpt lat="48.799455" lon="9.826535">
        <ele>340.2</ele>
        <time>2026-08-30T10:38:15Z</time>
      </trkpt>
      <trkpt lat="48.799449" lon="9.826606">
        <ele>340.4</ele>
        <time>2026-08-30T10:38:16Z</time>
      </trkpt>
      <trkpt lat="48.799446" lon="9.826679">
        <ele>340.6</ele>
        <time>2026-08-30T10:38:17Z</time>
      </trkpt>
      <trkpt lat="48.799441" lon="9.826752">
        <ele>340.6</ele>
        <time>2026-08-30T10:38:18Z</time>
      </trkpt>
      <trkpt lat="48.799432" lon="9.826824">
        <ele>340.8</ele>
        <time>2026-08-30T10:38:19Z</time>
      </trkpt>
      <trkpt lat="48.799427" lon="9.826899">
        <ele>340.8</ele>
        <time>2026-08-30T10:38:20Z</time>
      </trkpt>
      <trkpt lat="48.799425" lon="9.826971">
        <ele>340.8</ele>
        <time>2026-08-30T10:38:21Z</time>
      </trkpt>
      <trkpt lat="48.799426" lon="9.827034">
        <ele>340.8</ele>
        <time>2026-08-30T10:38:22Z</time>
      </trkpt>
      <trkpt lat="48.799426" lon="9.827104">
        <ele>340.8</ele>
        <time>2026-08-30T10:38:23Z</time>
      </trkpt>
      <trkpt lat="48.799421" lon="9.827173">
        <ele>341</ele>
        <time>2026-08-30T10:38:24Z</time>
      </trkpt>
      <trkpt lat="48.799414" lon="9.827246">
        <ele>341</ele>
        <time>2026-08-30T10:38:25Z</time>
      </trkpt>
      <trkpt lat="48.799412" lon="9.827318">
        <ele>341</ele>
        <time>2026-08-30T10:38:26Z</time>
      </trkpt>
      <trkpt lat="48.799414" lon="9.827390">
        <ele>341</ele>
        <time>2026-08-30T10:38:27Z</time>
      </trkpt>
      <trkpt lat="48.799413" lon="9.827461">
        <ele>341</ele>
        <time>2026-08-30T10:38:28Z</time>
      </trkpt>
      <trkpt lat="48.799409" lon="9.827529">
        <ele>341</ele>
        <time>2026-08-30T10:38:29Z</time>
      </trkpt>
      <trkpt lat="48.799402" lon="9.827597">
        <ele>341.2</ele>
        <time>2026-08-30T10:38:30Z</time>
      </trkpt>
      <trkpt lat="48.799400" lon="9.827668">
        <ele>341.2</ele>
        <time>2026-08-30T10:38:31Z</time>
      </trkpt>
      <trkpt lat="48.799402" lon="9.827745">
        <ele>341.2</ele>
        <time>2026-08-30T10:38:32Z</time>
      </trkpt>
      <trkpt lat="48.799403" lon="9.827823">
        <ele>341.2</ele>
        <time>2026-08-30T10:38:33Z</time>
      </trkpt>
      <trkpt lat="48.799401" lon="9.827903">
        <ele>341</ele>
        <time>2026-08-30T10:38:34Z</time>
      </trkpt>
      <trkpt lat="48.799396" lon="9.827984">
        <ele>341</ele>
        <time>2026-08-30T10:38:35Z</time>
      </trkpt>
      <trkpt lat="48.799394" lon="9.828066">
        <ele>341</ele>
        <time>2026-08-30T10:38:36Z</time>
      </trkpt>
      <trkpt lat="48.799397" lon="9.828152">
        <ele>341</ele>
        <time>2026-08-30T10:38:37Z</time>
      </trkpt>
      <trkpt lat="48.799399" lon="9.828234">
        <ele>340.8</ele>
        <time>2026-08-30T10:38:38Z</time>
      </trkpt>
      <trkpt lat="48.799396" lon="9.828317">
        <ele>340.8</ele>
        <time>2026-08-30T10:38:39Z</time>
      </trkpt>
      <trkpt lat="48.799394" lon="9.828400">
        <ele>340.6</ele>
        <time>2026-08-30T10:38:40Z</time>
      </trkpt>
      <trkpt lat="48.799394" lon="9.828483">
        <ele>340.6</ele>
        <time>2026-08-30T10:38:41Z</time>
      </trkpt>
      <trkpt lat="48.799395" lon="9.828563">
        <ele>340.4</ele>
        <time>2026-08-30T10:38:42Z</time>
      </trkpt>
      <trkpt lat="48.799401" lon="9.828645">
        <ele>340.4</ele>
        <time>2026-08-30T10:38:43Z</time>
      </trkpt>
      <trkpt lat="48.799409" lon="9.828726">
        <ele>340.2</ele>
        <time>2026-08-30T10:38:44Z</time>
      </trkpt>
      <trkpt lat="48.799415" lon="9.828802">
        <ele>340.2</ele>
        <time>2026-08-30T10:38:45Z</time>
      </trkpt>
      <trkpt lat="48.799416" lon="9.828884">
        <ele>340.2</ele>
        <time>2026-08-30T10:38:46Z</time>
      </trkpt>
      <trkpt lat="48.799418" lon="9.828964">
        <ele>340.4</ele>
        <time>2026-08-30T10:38:47Z</time>
      </trkpt>
      <trkpt lat="48.799422" lon="9.829042">
        <ele>340.4</ele>
        <time>2026-08-30T10:38:48Z</time>
      </trkpt>
      <trkpt lat="48.799420" lon="9.829118">
        <ele>340.4</ele>
        <time>2026-08-30T10:38:49Z</time>
      </trkpt>
      <trkpt lat="48.799414" lon="9.829195">
        <ele>340.4</ele>
        <time>2026-08-30T10:38:50Z</time>
      </trkpt>
      <trkpt lat="48.799406" lon="9.829271">
        <ele>340.4</ele>
        <time>2026-08-30T10:38:51Z</time>
      </trkpt>
      <trkpt lat="48.799405" lon="9.829351">
        <ele>340.6</ele>
        <time>2026-08-30T10:38:52Z</time>
      </trkpt>
      <trkpt lat="48.799410" lon="9.829433">
        <ele>340.6</ele>
        <time>2026-08-30T10:38:53Z</time>
      </trkpt>
      <trkpt lat="48.799418" lon="9.829512">
        <ele>340.6</ele>
        <time>2026-08-30T10:38:54Z</time>
      </trkpt>
      <trkpt lat="48.799431" lon="9.829589">
        <ele>340.6</ele>
        <time>2026-08-30T10:38:55Z</time>
      </trkpt>
      <trkpt lat="48.799441" lon="9.829668">
        <ele>340.6</ele>
        <time>2026-08-30T10:38:56Z</time>
      </trkpt>
      <trkpt lat="48.799444" lon="9.829747">
        <ele>340.6</ele>
        <time>2026-08-30T10:38:57Z</time>
      </trkpt>
      <trkpt lat="48.799441" lon="9.829828">
        <ele>340.6</ele>
        <time>2026-08-30T10:38:58Z</time>
      </trkpt>
      <trkpt lat="48.799445" lon="9.829904">
        <ele>340.6</ele>
        <time>2026-08-30T10:38:59Z</time>
      </trkpt>
      <trkpt lat="48.799450" lon="9.829980">
        <ele>340.6</ele>
        <time>2026-08-30T10:39:00Z</time>
      </trkpt>
      <trkpt lat="48.799458" lon="9.830061">
        <ele>340.8</ele>
        <time>2026-08-30T10:39:01Z</time>
      </trkpt>
      <trkpt lat="48.799468" lon="9.830140">
        <ele>340.8</ele>
        <time>2026-08-30T10:39:02Z</time>
      </trkpt>
      <trkpt lat="48.799479" lon="9.830218">
        <ele>340.8</ele>
        <time>2026-08-30T10:39:03Z</time>
      </trkpt>
      <trkpt lat="48.799488" lon="9.830292">
        <ele>341</ele>
        <time>2026-08-30T10:39:04Z</time>
      </trkpt>
      <trkpt lat="48.799501" lon="9.830368">
        <ele>341</ele>
        <time>2026-08-30T10:39:05Z</time>
      </trkpt>
      <trkpt lat="48.799516" lon="9.830442">
        <ele>341.2</ele>
        <time>2026-08-30T10:39:06Z</time>
      </trkpt>
      <trkpt lat="48.799527" lon="9.830514">
        <ele>341.2</ele>
        <time>2026-08-30T10:39:07Z</time>
      </trkpt>
      <trkpt lat="48.799534" lon="9.830588">
        <ele>341.4</ele>
        <time>2026-08-30T10:39:08Z</time>
      </trkpt>
      <trkpt lat="48.799544" lon="9.830654">
        <ele>341.6</ele>
        <time>2026-08-30T10:39:09Z</time>
      </trkpt>
      <trkpt lat="48.799557" lon="9.830724">
        <ele>341.6</ele>
        <time>2026-08-30T10:39:10Z</time>
      </trkpt>
      <trkpt lat="48.799571" lon="9.830789">
        <ele>341.8</ele>
        <time>2026-08-30T10:39:11Z</time>
      </trkpt>
      <trkpt lat="48.799585" lon="9.830854">
        <ele>341.8</ele>
        <time>2026-08-30T10:39:12Z</time>
      </trkpt>
      <trkpt lat="48.799598" lon="9.830921">
        <ele>342</ele>
        <time>2026-08-30T10:39:13Z</time>
      </trkpt>
      <trkpt lat="48.799612" lon="9.830986">
        <ele>342</ele>
        <time>2026-08-30T10:39:14Z</time>
      </trkpt>
      <trkpt lat="48.799626" lon="9.831048">
        <ele>342.2</ele>
        <time>2026-08-30T10:39:15Z</time>
      </trkpt>
      <trkpt lat="48.799638" lon="9.831107">
        <ele>342.2</ele>
        <time>2026-08-30T10:39:16Z</time>
      </trkpt>
      <trkpt lat="48.799650" lon="9.831167">
        <ele>342.4</ele>
        <time>2026-08-30T10:39:17Z</time>
      </trkpt>
      <trkpt lat="48.799666" lon="9.831227">
        <ele>342.4</ele>
        <time>2026-08-30T10:39:18Z</time>
      </trkpt>
      <trkpt lat="48.799682" lon="9.831284">
        <ele>342.6</ele>
        <time>2026-08-30T10:39:19Z</time>
      </trkpt>
      <trkpt lat="48.799697" lon="9.831340">
        <ele>342.8</ele>
        <time>2026-08-30T10:39:20Z</time>
      </trkpt>
      <trkpt lat="48.799711" lon="9.831397">
        <ele>342.8</ele>
        <time>2026-08-30T10:39:21Z</time>
      </trkpt>
      <trkpt lat="48.799722" lon="9.831447">
        <ele>343</ele>
        <time>2026-08-30T10:39:22Z</time>
      </trkpt>
      <trkpt lat="48.799734" lon="9.831498">
        <ele>343</ele>
        <time>2026-08-30T10:39:23Z</time>
      </trkpt>
      <trkpt lat="48.799749" lon="9.831543">
        <ele>343.2</ele>
        <time>2026-08-30T10:39:24Z</time>
      </trkpt>
      <trkpt lat="48.799764" lon="9.831586">
        <ele>343.2</ele>
        <time>2026-08-30T10:39:25Z</time>
      </trkpt>
      <trkpt lat="48.799781" lon="9.831624">
        <ele>343.4</ele>
        <time>2026-08-30T10:39:26Z</time>
      </trkpt>
      <trkpt lat="48.799794" lon="9.831670">
        <ele>343.6</ele>
        <time>2026-08-30T10:39:27Z</time>
      </trkpt>
      <trkpt lat="48.799806" lon="9.831713">
        <ele>343.6</ele>
        <time>2026-08-30T10:39:28Z</time>
      </trkpt>
      <trkpt lat="48.799816" lon="9.831758">
        <ele>343.8</ele>
        <time>2026-08-30T10:39:29Z</time>
      </trkpt>
      <trkpt lat="48.799822" lon="9.831800">
        <ele>344</ele>
        <time>2026-08-30T10:39:30Z</time>
      </trkpt>
      <trkpt lat="48.799825" lon="9.831844">
        <ele>344</ele>
        <time>2026-08-30T10:39:31Z</time>
      </trkpt>
      <trkpt lat="48.799819" lon="9.831882">
        <ele>344.2</ele>
        <time>2026-08-30T10:39:32Z</time>
      </trkpt>
      <trkpt lat="48.799807" lon="9.831923">
        <ele>344.4</ele>
        <time>2026-08-30T10:39:33Z</time>
      </trkpt>
      <trkpt lat="48.799787" lon="9.831962">
        <ele>344.4</ele>
        <time>2026-08-30T10:39:34Z</time>
      </trkpt>
      <trkpt lat="48.799766" lon="9.831999">
        <ele>344.6</ele>
        <time>2026-08-30T10:39:35Z</time>
      </trkpt>
      <trkpt lat="48.799748" lon="9.832032">
        <ele>344.6</ele>
        <time>2026-08-30T10:39:36Z</time>
      </trkpt>
      <trkpt lat="48.799729" lon="9.832064">
        <ele>344.8</ele>
        <time>2026-08-30T10:39:37Z</time>
      </trkpt>
      <trkpt lat="48.799707" lon="9.832093">
        <ele>344.8</ele>
        <time>2026-08-30T10:39:38Z</time>
      </trkpt>
      <trkpt lat="48.799685" lon="9.832124">
        <ele>345</ele>
        <time>2026-08-30T10:39:39Z</time>
      </trkpt>
      <trkpt lat="48.799663" lon="9.832154">
        <ele>345.2</ele>
        <time>2026-08-30T10:39:40Z</time>
      </trkpt>
      <trkpt lat="48.799643" lon="9.832179">
        <ele>345.2</ele>
        <time>2026-08-30T10:39:41Z</time>
      </trkpt>
      <trkpt lat="48.799622" lon="9.832196">
        <ele>345.4</ele>
        <time>2026-08-30T10:39:42Z</time>
      </trkpt>
      <trkpt lat="48.799605" lon="9.832211">
        <ele>345.6</ele>
        <time>2026-08-30T10:39:43Z</time>
      </trkpt>
      <trkpt lat="48.799590" lon="9.832231">
        <ele>345.6</ele>
        <time>2026-08-30T10:39:44Z</time>
      </trkpt>
      <trkpt lat="48.799579" lon="9.832250">
        <ele>345.8</ele>
        <time>2026-08-30T10:39:45Z</time>
      </trkpt>
      <trkpt lat="48.799569" lon="9.832267">
        <ele>345.8</ele>
        <time>2026-08-30T10:39:46Z</time>
      </trkpt>
      <trkpt lat="48.799566" lon="9.832291">
        <ele>346</ele>
        <time>2026-08-30T10:39:47Z</time>
      </trkpt>
      <trkpt lat="48.799569" lon="9.832317">
        <ele>346</ele>
        <time>2026-08-30T10:39:48Z</time>
      </trkpt>
      <trkpt lat="48.799584" lon="9.832332">
        <ele>346</ele>
        <time>2026-08-30T10:39:49Z</time>
      </trkpt>
      <trkpt lat="48.799601" lon="9.832358">
        <ele>346</ele>
        <time>2026-08-30T10:39:50Z</time>
      </trkpt>
      <trkpt lat="48.799614" lon="9.832393">
        <ele>346.2</ele>
        <time>2026-08-30T10:39:51Z</time>
      </trkpt>
      <trkpt lat="48.799623" lon="9.832438">
        <ele>346.2</ele>
        <time>2026-08-30T10:39:52Z</time>
      </trkpt>
      <trkpt lat="48.799628" lon="9.832491">
        <ele>346.2</ele>
        <time>2026-08-30T10:39:53Z</time>
      </trkpt>
      <trkpt lat="48.799635" lon="9.832544">
        <ele>346.2</ele>
        <time>2026-08-30T10:39:54Z</time>
      </trkpt>
      <trkpt lat="48.799645" lon="9.832599">
        <ele>346.2</ele>
        <time>2026-08-30T10:39:55Z</time>
      </trkpt>
      <trkpt lat="48.799659" lon="9.832649">
        <ele>346.2</ele>
        <time>2026-08-30T10:39:56Z</time>
      </trkpt>
      <trkpt lat="48.799677" lon="9.832701">
        <ele>346.2</ele>
        <time>2026-08-30T10:39:57Z</time>
      </trkpt>
      <trkpt lat="48.799700" lon="9.832753">
        <ele>346.2</ele>
        <time>2026-08-30T10:39:58Z</time>
      </trkpt>
      <trkpt lat="48.799725" lon="9.832801">
        <ele>346.4</ele>
        <time>2026-08-30T10:39:59Z</time>
      </trkpt>
      <trkpt lat="48.799739" lon="9.832851">
        <ele>346.4</ele>
        <time>2026-08-30T10:40:00Z</time>
      </trkpt>
      <trkpt lat="48.799748" lon="9.832910">
        <ele>346.4</ele>
        <time>2026-08-30T10:40:01Z</time>
      </trkpt>
      <trkpt lat="48.799756" lon="9.832974">
        <ele>346.6</ele>
        <time>2026-08-30T10:40:02Z</time>
      </trkpt>
      <trkpt lat="48.799770" lon="9.833033">
        <ele>346.6</ele>
        <time>2026-08-30T10:40:03Z</time>
      </trkpt>
      <trkpt lat="48.799783" lon="9.833092">
        <ele>346.6</ele>
        <time>2026-08-30T10:40:04Z</time>
      </trkpt>
      <trkpt lat="48.799799" lon="9.833149">
        <ele>346.6</ele>
        <time>2026-08-30T10:40:05Z</time>
      </trkpt>
      <trkpt lat="48.799817" lon="9.833206">
        <ele>346.8</ele>
        <time>2026-08-30T10:40:06Z</time>
      </trkpt>
      <trkpt lat="48.799832" lon="9.833257">
        <ele>346.8</ele>
        <time>2026-08-30T10:40:07Z</time>
      </trkpt>
      <trkpt lat="48.799845" lon="9.833303">
        <ele>346.8</ele>
        <time>2026-08-30T10:40:08Z</time>
      </trkpt>
      <trkpt lat="48.799854" lon="9.833337">
        <ele>346.8</ele>
        <time>2026-08-30T10:40:09Z</time>
      </trkpt>
      <trkpt lat="48.799863" lon="9.833357">
        <ele>347</ele>
        <time>2026-08-30T10:40:10Z</time>
      </trkpt>
      <trkpt lat="48.799872" lon="9.833365">
        <ele>347</ele>
        <time>2026-08-30T10:40:11Z</time>
      </trkpt>
      <trkpt lat="48.799877" lon="9.833376">
        <ele>347</ele>
        <time>2026-08-30T10:40:12Z</time>
      </trkpt>
      <trkpt lat="48.799881" lon="9.833388">
        <ele>347.2</ele>
        <time>2026-08-30T10:40:13Z</time>
      </trkpt>
      <trkpt lat="48.799882" lon="9.833395">
        <ele>347.2</ele>
        <time>2026-08-30T10:40:14Z</time>
      </trkpt>
      <trkpt lat="48.799875" lon="9.833417">
        <ele>347.2</ele>
        <time>2026-08-30T10:40:15Z</time>
      </trkpt>
      <trkpt lat="48.799865" lon="9.833417">
        <ele>347.2</ele>
        <time>2026-08-30T10:40:16Z</time>
      </trkpt>
      <trkpt lat="48.799862" lon="9.833408">
        <ele>347.2</ele>
        <time>2026-08-30T10:40:17Z</time>
      </trkpt>
      <trkpt lat="48.799861" lon="9.833400">
        <ele>347.2</ele>
        <time>2026-08-30T10:40:18Z</time>
      </trkpt>
      <trkpt lat="48.799862" lon="9.833378">
        <ele>347.2</ele>
        <time>2026-08-30T10:40:19Z</time>
      </trkpt>
      <trkpt lat="48.799865" lon="9.833355">
        <ele>347.2</ele>
        <time>2026-08-30T10:40:20Z</time>
      </trkpt>
      <trkpt lat="48.799866" lon="9.833335">
        <ele>347</ele>
        <time>2026-08-30T10:40:21Z</time>
      </trkpt>
      <trkpt lat="48.799864" lon="9.833312">
        <ele>347</ele>
        <time>2026-08-30T10:40:22Z</time>
      </trkpt>
      <trkpt lat="48.799860" lon="9.833282">
        <ele>347</ele>
        <time>2026-08-30T10:40:23Z</time>
      </trkpt>
      <trkpt lat="48.799854" lon="9.833251">
        <ele>347</ele>
        <time>2026-08-30T10:40:24Z</time>
      </trkpt>
      <trkpt lat="48.799848" lon="9.833217">
        <ele>347</ele>
        <time>2026-08-30T10:40:25Z</time>
      </trkpt>
      <trkpt lat="48.799842" lon="9.833179">
        <ele>347</ele>
        <time>2026-08-30T10:40:26Z</time>
      </trkpt>
      <trkpt lat="48.799836" lon="9.833135">
        <ele>347</ele>
        <time>2026-08-30T10:40:27Z</time>
      </trkpt>
      <trkpt lat="48.799824" lon="9.833090">
        <ele>346.8</ele>
        <time>2026-08-30T10:40:28Z</time>
      </trkpt>
      <trkpt lat="48.799813" lon="9.833047">
        <ele>346.8</ele>
        <time>2026-08-30T10:40:29Z</time>
      </trkpt>
      <trkpt lat="48.799800" lon="9.833006">
        <ele>346.8</ele>
        <time>2026-08-30T10:40:30Z</time>
      </trkpt>
      <trkpt lat="48.799781" lon="9.832964">
        <ele>346.8</ele>
        <time>2026-08-30T10:40:31Z</time>
      </trkpt>
      <trkpt lat="48.799767" lon="9.832917">
        <ele>346.8</ele>
        <time>2026-08-30T10:40:32Z</time>
      </trkpt>
      <trkpt lat="48.799759" lon="9.832863">
        <ele>346.8</ele>
        <time>2026-08-30T10:40:33Z</time>
      </trkpt>
      <trkpt lat="48.799751" lon="9.832812">
        <ele>346.8</ele>
        <time>2026-08-30T10:40:34Z</time>
      </trkpt>
      <trkpt lat="48.799739" lon="9.832764">
        <ele>346.8</ele>
        <time>2026-08-30T10:40:35Z</time>
      </trkpt>
      <trkpt lat="48.799723" lon="9.832715">
        <ele>346.6</ele>
        <time>2026-08-30T10:40:36Z</time>
      </trkpt>
      <trkpt lat="48.799704" lon="9.832666">
        <ele>346.6</ele>
        <time>2026-08-30T10:40:37Z</time>
      </trkpt>
      <trkpt lat="48.799689" lon="9.832612">
        <ele>346.6</ele>
        <time>2026-08-30T10:40:38Z</time>
      </trkpt>
      <trkpt lat="48.799674" lon="9.832564">
        <ele>346.6</ele>
        <time>2026-08-30T10:40:39Z</time>
      </trkpt>
      <trkpt lat="48.799661" lon="9.832516">
        <ele>346.6</ele>
        <time>2026-08-30T10:40:40Z</time>
      </trkpt>
      <trkpt lat="48.799645" lon="9.832471">
        <ele>346.6</ele>
        <time>2026-08-30T10:40:41Z</time>
      </trkpt>
      <trkpt lat="48.799621" lon="9.832425">
        <ele>346.6</ele>
        <time>2026-08-30T10:40:42Z</time>
      </trkpt>
      <trkpt lat="48.799593" lon="9.832388">
        <ele>346.6</ele>
        <time>2026-08-30T10:40:43Z</time>
      </trkpt>
      <trkpt lat="48.799562" lon="9.832366">
        <ele>346.6</ele>
        <time>2026-08-30T10:40:44Z</time>
      </trkpt>
      <trkpt lat="48.799533" lon="9.832350">
        <ele>346.8</ele>
        <time>2026-08-30T10:40:45Z</time>
      </trkpt>
      <trkpt lat="48.799504" lon="9.832337">
        <ele>346.8</ele>
        <time>2026-08-30T10:40:46Z</time>
      </trkpt>
      <trkpt lat="48.799475" lon="9.832339">
        <ele>346.8</ele>
        <time>2026-08-30T10:40:47Z</time>
      </trkpt>
      <trkpt lat="48.799448" lon="9.832350">
        <ele>346.8</ele>
        <time>2026-08-30T10:40:48Z</time>
      </trkpt>
      <trkpt lat="48.799423" lon="9.832353">
        <ele>347</ele>
        <time>2026-08-30T10:40:49Z</time>
      </trkpt>
      <trkpt lat="48.799398" lon="9.832368">
        <ele>347</ele>
        <time>2026-08-30T10:40:50Z</time>
      </trkpt>
      <trkpt lat="48.799375" lon="9.832387">
        <ele>347.2</ele>
        <time>2026-08-30T10:40:51Z</time>
      </trkpt>
      <trkpt lat="48.799354" lon="9.832411">
        <ele>347.2</ele>
        <time>2026-08-30T10:40:52Z</time>
      </trkpt>
      <trkpt lat="48.799333" lon="9.832441">
        <ele>347.4</ele>
        <time>2026-08-30T10:40:53Z</time>
      </trkpt>
      <trkpt lat="48.799312" lon="9.832473">
        <ele>347.6</ele>
        <time>2026-08-30T10:40:54Z</time>
      </trkpt>
      <trkpt lat="48.799290" lon="9.832507">
        <ele>347.6</ele>
        <time>2026-08-30T10:40:55Z</time>
      </trkpt>
      <trkpt lat="48.799264" lon="9.832534">
        <ele>347.8</ele>
        <time>2026-08-30T10:40:56Z</time>
      </trkpt>
      <trkpt lat="48.799241" lon="9.832558">
        <ele>347.8</ele>
        <time>2026-08-30T10:40:57Z</time>
      </trkpt>
      <trkpt lat="48.799216" lon="9.832575">
        <ele>348</ele>
        <time>2026-08-30T10:40:58Z</time>
      </trkpt>
      <trkpt lat="48.799189" lon="9.832604">
        <ele>348.2</ele>
        <time>2026-08-30T10:40:59Z</time>
      </trkpt>
      <trkpt lat="48.799164" lon="9.832631">
        <ele>348.2</ele>
        <time>2026-08-30T10:41:00Z</time>
      </trkpt>
      <trkpt lat="48.799139" lon="9.832660">
        <ele>348.4</ele>
        <time>2026-08-30T10:41:01Z</time>
      </trkpt>
      <trkpt lat="48.799117" lon="9.832693">
        <ele>348.6</ele>
        <time>2026-08-30T10:41:02Z</time>
      </trkpt>
      <trkpt lat="48.799097" lon="9.832728">
        <ele>348.6</ele>
        <time>2026-08-30T10:41:03Z</time>
      </trkpt>
      <trkpt lat="48.799071" lon="9.832747">
        <ele>348.8</ele>
        <time>2026-08-30T10:41:04Z</time>
      </trkpt>
      <trkpt lat="48.799046" lon="9.832767">
        <ele>349</ele>
        <time>2026-08-30T10:41:05Z</time>
      </trkpt>
      <trkpt lat="48.799017" lon="9.832789">
        <ele>349</ele>
        <time>2026-08-30T10:41:06Z</time>
      </trkpt>
      <trkpt lat="48.798992" lon="9.832819">
        <ele>349.2</ele>
        <time>2026-08-30T10:41:07Z</time>
      </trkpt>
      <trkpt lat="48.798969" lon="9.832848">
        <ele>349.4</ele>
        <time>2026-08-30T10:41:08Z</time>
      </trkpt>
      <trkpt lat="48.798946" lon="9.832880">
        <ele>349.4</ele>
        <time>2026-08-30T10:41:09Z</time>
      </trkpt>
      <trkpt lat="48.798922" lon="9.832909">
        <ele>349.6</ele>
        <time>2026-08-30T10:41:10Z</time>
      </trkpt>
      <trkpt lat="48.798895" lon="9.832928">
        <ele>349.8</ele>
        <time>2026-08-30T10:41:11Z</time>
      </trkpt>
      <trkpt lat="48.798866" lon="9.832953">
        <ele>350</ele>
        <time>2026-08-30T10:41:12Z</time>
      </trkpt>
      <trkpt lat="48.798842" lon="9.832984">
        <ele>350.2</ele>
        <time>2026-08-30T10:41:13Z</time>
      </trkpt>
      <trkpt lat="48.798820" lon="9.833022">
        <ele>350.2</ele>
        <time>2026-08-30T10:41:14Z</time>
      </trkpt>
      <trkpt lat="48.798802" lon="9.833061">
        <ele>350.4</ele>
        <time>2026-08-30T10:41:15Z</time>
      </trkpt>
      <trkpt lat="48.798782" lon="9.833093">
        <ele>350.6</ele>
        <time>2026-08-30T10:41:16Z</time>
      </trkpt>
      <trkpt lat="48.798761" lon="9.833125">
        <ele>350.8</ele>
        <time>2026-08-30T10:41:17Z</time>
      </trkpt>
      <trkpt lat="48.798744" lon="9.833155">
        <ele>351</ele>
        <time>2026-08-30T10:41:18Z</time>
      </trkpt>
      <trkpt lat="48.798724" lon="9.833181">
        <ele>351.2</ele>
        <time>2026-08-30T10:41:19Z</time>
      </trkpt>
      <trkpt lat="48.798707" lon="9.833213">
        <ele>351.4</ele>
        <time>2026-08-30T10:41:20Z</time>
      </trkpt>
      <trkpt lat="48.798686" lon="9.833251">
        <ele>351.4</ele>
        <time>2026-08-30T10:41:21Z</time>
      </trkpt>
      <trkpt lat="48.798667" lon="9.833284">
        <ele>351.6</ele>
        <time>2026-08-30T10:41:22Z</time>
      </trkpt>
      <trkpt lat="48.798649" lon="9.833320">
        <ele>351.6</ele>
        <time>2026-08-30T10:41:23Z</time>
      </trkpt>
      <trkpt lat="48.798628" lon="9.833353">
        <ele>351.8</ele>
        <time>2026-08-30T10:41:24Z</time>
      </trkpt>
      <trkpt lat="48.798601" lon="9.833385">
        <ele>352</ele>
        <time>2026-08-30T10:41:25Z</time>
      </trkpt>
      <trkpt lat="48.798573" lon="9.833425">
        <ele>352</ele>
        <time>2026-08-30T10:41:26Z</time>
      </trkpt>
      <trkpt lat="48.798546" lon="9.833467">
        <ele>352.2</ele>
        <time>2026-08-30T10:41:27Z</time>
      </trkpt>
      <trkpt lat="48.798520" lon="9.833510">
        <ele>352.2</ele>
        <time>2026-08-30T10:41:28Z</time>
      </trkpt>
      <trkpt lat="48.798497" lon="9.833560">
        <ele>352.4</ele>
        <time>2026-08-30T10:41:29Z</time>
      </trkpt>
      <trkpt lat="48.798477" lon="9.833605">
        <ele>352.6</ele>
        <time>2026-08-30T10:41:30Z</time>
      </trkpt>
      <trkpt lat="48.798455" lon="9.833643">
        <ele>352.6</ele>
        <time>2026-08-30T10:41:31Z</time>
      </trkpt>
      <trkpt lat="48.798436" lon="9.833684">
        <ele>352.8</ele>
        <time>2026-08-30T10:41:32Z</time>
      </trkpt>
      <trkpt lat="48.798410" lon="9.833716">
        <ele>352.8</ele>
        <time>2026-08-30T10:41:33Z</time>
      </trkpt>
      <trkpt lat="48.798382" lon="9.833746">
        <ele>353</ele>
        <time>2026-08-30T10:41:34Z</time>
      </trkpt>
      <trkpt lat="48.798357" lon="9.833780">
        <ele>353.2</ele>
        <time>2026-08-30T10:41:35Z</time>
      </trkpt>
      <trkpt lat="48.798333" lon="9.833816">
        <ele>353.4</ele>
        <time>2026-08-30T10:41:36Z</time>
      </trkpt>
      <trkpt lat="48.798311" lon="9.833857">
        <ele>353.4</ele>
        <time>2026-08-30T10:41:37Z</time>
      </trkpt>
      <trkpt lat="48.798291" lon="9.833894">
        <ele>353.6</ele>
        <time>2026-08-30T10:41:38Z</time>
      </trkpt>
      <trkpt lat="48.798266" lon="9.833929">
        <ele>353.8</ele>
        <time>2026-08-30T10:41:39Z</time>
      </trkpt>
      <trkpt lat="48.798243" lon="9.833957">
        <ele>354</ele>
        <time>2026-08-30T10:41:40Z</time>
      </trkpt>
      <trkpt lat="48.798220" lon="9.833984">
        <ele>354</ele>
        <time>2026-08-30T10:41:41Z</time>
      </trkpt>
      <trkpt lat="48.798200" lon="9.834018">
        <ele>354.2</ele>
        <time>2026-08-30T10:41:42Z</time>
      </trkpt>
      <trkpt lat="48.798180" lon="9.834057">
        <ele>354.4</ele>
        <time>2026-08-30T10:41:43Z</time>
      </trkpt>
      <trkpt lat="48.798165" lon="9.834099">
        <ele>354.4</ele>
        <time>2026-08-30T10:41:44Z</time>
      </trkpt>
      <trkpt lat="48.798155" lon="9.834138">
        <ele>354.6</ele>
        <time>2026-08-30T10:41:45Z</time>
      </trkpt>
      <trkpt lat="48.798148" lon="9.834180">
        <ele>354.8</ele>
        <time>2026-08-30T10:41:46Z</time>
      </trkpt>
      <trkpt lat="48.798138" lon="9.834218">
        <ele>355</ele>
        <time>2026-08-30T10:41:47Z</time>
      </trkpt>
      <trkpt lat="48.798125" lon="9.834262">
        <ele>355.2</ele>
        <time>2026-08-30T10:41:48Z</time>
      </trkpt>
      <trkpt lat="48.798110" lon="9.834296">
        <ele>355.4</ele>
        <time>2026-08-30T10:41:49Z</time>
      </trkpt>
      <trkpt lat="48.798094" lon="9.834327">
        <ele>355.6</ele>
        <time>2026-08-30T10:41:50Z</time>
      </trkpt>
      <trkpt lat="48.798086" lon="9.834366">
        <ele>355.8</ele>
        <time>2026-08-30T10:41:51Z</time>
      </trkpt>
      <trkpt lat="48.798076" lon="9.834406">
        <ele>356</ele>
        <time>2026-08-30T10:41:52Z</time>
      </trkpt>
      <trkpt lat="48.798068" lon="9.834445">
        <ele>356.2</ele>
        <time>2026-08-30T10:41:53Z</time>
      </trkpt>
      <trkpt lat="48.798063" lon="9.834472">
        <ele>356.4</ele>
        <time>2026-08-30T10:41:54Z</time>
      </trkpt>
      <trkpt lat="48.798056" lon="9.834501">
        <ele>356.6</ele>
        <time>2026-08-30T10:41:55Z</time>
      </trkpt>
      <trkpt lat="48.798047" lon="9.834536">
        <ele>356.6</ele>
        <time>2026-08-30T10:41:56Z</time>
      </trkpt>
      <trkpt lat="48.798035" lon="9.834562">
        <ele>356.8</ele>
        <time>2026-08-30T10:41:57Z</time>
      </trkpt>
      <trkpt lat="48.798020" lon="9.834589">
        <ele>357</ele>
        <time>2026-08-30T10:41:58Z</time>
      </trkpt>
      <trkpt lat="48.798005" lon="9.834619">
        <ele>357.2</ele>
        <time>2026-08-30T10:41:59Z</time>
      </trkpt>
      <trkpt lat="48.797991" lon="9.834661">
        <ele>357.4</ele>
        <time>2026-08-30T10:42:00Z</time>
      </trkpt>
      <trkpt lat="48.797982" lon="9.834696">
        <ele>357.6</ele>
        <time>2026-08-30T10:42:01Z</time>
      </trkpt>
      <trkpt lat="48.797973" lon="9.834726">
        <ele>357.6</ele>
        <time>2026-08-30T10:42:02Z</time>
      </trkpt>
      <trkpt lat="48.797960" lon="9.834763">
        <ele>357.8</ele>
        <time>2026-08-30T10:42:03Z</time>
      </trkpt>
      <trkpt lat="48.797951" lon="9.834801">
        <ele>358</ele>
        <time>2026-08-30T10:42:04Z</time>
      </trkpt>
      <trkpt lat="48.797939" lon="9.834838">
        <ele>358.2</ele>
        <time>2026-08-30T10:42:05Z</time>
      </trkpt>
      <trkpt lat="48.797928" lon="9.834872">
        <ele>358.4</ele>
        <time>2026-08-30T10:42:06Z</time>
      </trkpt>
      <trkpt lat="48.797919" lon="9.834908">
        <ele>358.4</ele>
        <time>2026-08-30T10:42:07Z</time>
      </trkpt>
      <trkpt lat="48.797910" lon="9.834946">
        <ele>358.6</ele>
        <time>2026-08-30T10:42:08Z</time>
      </trkpt>
      <trkpt lat="48.797899" lon="9.834978">
        <ele>358.8</ele>
        <time>2026-08-30T10:42:09Z</time>
      </trkpt>
      <trkpt lat="48.797888" lon="9.835011">
        <ele>359</ele>
        <time>2026-08-30T10:42:10Z</time>
      </trkpt>
      <trkpt lat="48.797873" lon="9.835039">
        <ele>359.2</ele>
        <time>2026-08-30T10:42:11Z</time>
      </trkpt>
      <trkpt lat="48.797855" lon="9.835074">
        <ele>359.2</ele>
        <time>2026-08-30T10:42:12Z</time>
      </trkpt>
      <trkpt lat="48.797841" lon="9.835119">
        <ele>359.4</ele>
        <time>2026-08-30T10:42:13Z</time>
      </trkpt>
      <trkpt lat="48.797833" lon="9.835156">
        <ele>359.6</ele>
        <time>2026-08-30T10:42:14Z</time>
      </trkpt>
      <trkpt lat="48.797826" lon="9.835185">
        <ele>359.8</ele>
        <time>2026-08-30T10:42:15Z</time>
      </trkpt>
      <trkpt lat="48.797821" lon="9.835213">
        <ele>360</ele>
        <time>2026-08-30T10:42:16Z</time>
      </trkpt>
      <trkpt lat="48.797818" lon="9.835243">
        <ele>360.2</ele>
        <time>2026-08-30T10:42:17Z</time>
      </trkpt>
      <trkpt lat="48.797815" lon="9.835269">
        <ele>360.4</ele>
        <time>2026-08-30T10:42:18Z</time>
      </trkpt>
      <trkpt lat="48.797813" lon="9.835297">
        <ele>360.6</ele>
        <time>2026-08-30T10:42:19Z</time>
      </trkpt>
      <trkpt lat="48.797809" lon="9.835323">
        <ele>360.8</ele>
        <time>2026-08-30T10:42:20Z</time>
      </trkpt>
      <trkpt lat="48.797800" lon="9.835346">
        <ele>361.2</ele>
        <time>2026-08-30T10:42:21Z</time>
      </trkpt>
      <trkpt lat="48.797791" lon="9.835366">
        <ele>361.4</ele>
        <time>2026-08-30T10:42:22Z</time>
      </trkpt>
      <trkpt lat="48.797785" lon="9.835384">
        <ele>361.6</ele>
        <time>2026-08-30T10:42:23Z</time>
      </trkpt>
      <trkpt lat="48.797780" lon="9.835401">
        <ele>361.8</ele>
        <time>2026-08-30T10:42:24Z</time>
      </trkpt>
      <trkpt lat="48.797776" lon="9.835425">
        <ele>362</ele>
        <time>2026-08-30T10:42:25Z</time>
      </trkpt>
      <trkpt lat="48.797771" lon="9.835448">
        <ele>362.4</ele>
        <time>2026-08-30T10:42:26Z</time>
      </trkpt>
      <trkpt lat="48.797760" lon="9.835470">
        <ele>362.6</ele>
        <time>2026-08-30T10:42:27Z</time>
      </trkpt>
      <trkpt lat="48.797745" lon="9.835482">
        <ele>362.8</ele>
        <time>2026-08-30T10:42:28Z</time>
      </trkpt>
      <trkpt lat="48.797732" lon="9.835497">
        <ele>363</ele>
        <time>2026-08-30T10:42:29Z</time>
      </trkpt>
      <trkpt lat="48.797724" lon="9.835517">
        <ele>363.2</ele>
        <time>2026-08-30T10:42:30Z</time>
      </trkpt>
      <trkpt lat="48.797720" lon="9.835540">
        <ele>363.4</ele>
        <time>2026-08-30T10:42:31Z</time>
      </trkpt>
      <trkpt lat="48.797717" lon="9.835564">
        <ele>363.6</ele>
        <time>2026-08-30T10:42:32Z</time>
      </trkpt>
      <trkpt lat="48.797714" lon="9.835587">
        <ele>363.8</ele>
        <time>2026-08-30T10:42:33Z</time>
      </trkpt>
      <trkpt lat="48.797709" lon="9.835609">
        <ele>364</ele>
        <time>2026-08-30T10:42:34Z</time>
      </trkpt>
      <trkpt lat="48.797702" lon="9.835627">
        <ele>364.2</ele>
        <time>2026-08-30T10:42:35Z</time>
      </trkpt>
      <trkpt lat="48.797696" lon="9.835651">
        <ele>364.6</ele>
        <time>2026-08-30T10:42:36Z</time>
      </trkpt>
      <trkpt lat="48.797691" lon="9.835679">
        <ele>364.8</ele>
        <time>2026-08-30T10:42:37Z</time>
      </trkpt>
      <trkpt lat="48.797688" lon="9.835697">
        <ele>365</ele>
        <time>2026-08-30T10:42:38Z</time>
      </trkpt>
      <trkpt lat="48.797682" lon="9.835719">
        <ele>365.2</ele>
        <time>2026-08-30T10:42:39Z</time>
      </trkpt>
      <trkpt lat="48.797675" lon="9.835740">
        <ele>365.4</ele>
        <time>2026-08-30T10:42:40Z</time>
      </trkpt>
      <trkpt lat="48.797662" lon="9.835762">
        <ele>365.8</ele>
        <time>2026-08-30T10:42:41Z</time>
      </trkpt>
      <trkpt lat="48.797654" lon="9.835785">
        <ele>366</ele>
        <time>2026-08-30T10:42:42Z</time>
      </trkpt>
      <trkpt lat="48.797648" lon="9.835803">
        <ele>366.2</ele>
        <time>2026-08-30T10:42:43Z</time>
      </trkpt>
      <trkpt lat="48.797646" lon="9.835827">
        <ele>366.4</ele>
        <time>2026-08-30T10:42:44Z</time>
      </trkpt>
      <trkpt lat="48.797640" lon="9.835850">
        <ele>366.6</ele>
        <time>2026-08-30T10:42:45Z</time>
      </trkpt>
      <trkpt lat="48.797635" lon="9.835870">
        <ele>366.8</ele>
        <time>2026-08-30T10:42:46Z</time>
      </trkpt>
      <trkpt lat="48.797625" lon="9.835890">
        <ele>367</ele>
        <time>2026-08-30T10:42:47Z</time>
      </trkpt>
      <trkpt lat="48.797613" lon="9.835912">
        <ele>367.4</ele>
        <time>2026-08-30T10:42:48Z</time>
      </trkpt>
      <trkpt lat="48.797609" lon="9.835931">
        <ele>367.6</ele>
        <time>2026-08-30T10:42:49Z</time>
      </trkpt>
      <trkpt lat="48.797603" lon="9.835957">
        <ele>367.8</ele>
        <time>2026-08-30T10:42:50Z</time>
      </trkpt>
      <trkpt lat="48.797598" lon="9.835980">
        <ele>368</ele>
        <time>2026-08-30T10:42:51Z</time>
      </trkpt>
      <trkpt lat="48.797595" lon="9.836002">
        <ele>368.2</ele>
        <time>2026-08-30T10:42:52Z</time>
      </trkpt>
      <trkpt lat="48.797591" lon="9.836028">
        <ele>368.4</ele>
        <time>2026-08-30T10:42:53Z</time>
      </trkpt>
      <trkpt lat="48.797583" lon="9.836046">
        <ele>368.6</ele>
        <time>2026-08-30T10:42:54Z</time>
      </trkpt>
      <trkpt lat="48.797575" lon="9.836066">
        <ele>368.8</ele>
        <time>2026-08-30T10:42:55Z</time>
      </trkpt>
      <trkpt lat="48.797569" lon="9.836086">
        <ele>369</ele>
        <time>2026-08-30T10:42:56Z</time>
      </trkpt>
      <trkpt lat="48.797565" lon="9.836109">
        <ele>369.2</ele>
        <time>2026-08-30T10:42:57Z</time>
      </trkpt>
      <trkpt lat="48.797561" lon="9.836130">
        <ele>369.4</ele>
        <time>2026-08-30T10:42:58Z</time>
      </trkpt>
      <trkpt lat="48.797561" lon="9.836154">
        <ele>369.6</ele>
        <time>2026-08-30T10:42:59Z</time>
      </trkpt>
      <trkpt lat="48.797559" lon="9.836179">
        <ele>369.8</ele>
        <time>2026-08-30T10:43:00Z</time>
      </trkpt>
      <trkpt lat="48.797555" lon="9.836205">
        <ele>370</ele>
        <time>2026-08-30T10:43:01Z</time>
      </trkpt>
      <trkpt lat="48.797549" lon="9.836226">
        <ele>370.2</ele>
        <time>2026-08-30T10:43:02Z</time>
      </trkpt>
      <trkpt lat="48.797538" lon="9.836246">
        <ele>370.6</ele>
        <time>2026-08-30T10:43:03Z</time>
      </trkpt>
      <trkpt lat="48.797523" lon="9.836261">
        <ele>370.6</ele>
        <time>2026-08-30T10:43:04Z</time>
      </trkpt>
      <trkpt lat="48.797510" lon="9.836278">
        <ele>370.8</ele>
        <time>2026-08-30T10:43:05Z</time>
      </trkpt>
      <trkpt lat="48.797503" lon="9.836305">
        <ele>371</ele>
        <time>2026-08-30T10:43:06Z</time>
      </trkpt>
      <trkpt lat="48.797496" lon="9.836330">
        <ele>371.2</ele>
        <time>2026-08-30T10:43:07Z</time>
      </trkpt>
      <trkpt lat="48.797492" lon="9.836354">
        <ele>371.4</ele>
        <time>2026-08-30T10:43:08Z</time>
      </trkpt>
      <trkpt lat="48.797490" lon="9.836384">
        <ele>371.6</ele>
        <time>2026-08-30T10:43:09Z</time>
      </trkpt>
      <trkpt lat="48.797490" lon="9.836408">
        <ele>371.8</ele>
        <time>2026-08-30T10:43:10Z</time>
      </trkpt>
      <trkpt lat="48.797490" lon="9.836431">
        <ele>372</ele>
        <time>2026-08-30T10:43:11Z</time>
      </trkpt>
      <trkpt lat="48.797488" lon="9.836456">
        <ele>372.2</ele>
        <time>2026-08-30T10:43:12Z</time>
      </trkpt>
      <trkpt lat="48.797480" lon="9.836479">
        <ele>372.6</ele>
        <time>2026-08-30T10:43:13Z</time>
      </trkpt>
      <trkpt lat="48.797467" lon="9.836500">
        <ele>372.8</ele>
        <time>2026-08-30T10:43:14Z</time>
      </trkpt>
      <trkpt lat="48.797452" lon="9.836516">
        <ele>373</ele>
        <time>2026-08-30T10:43:15Z</time>
      </trkpt>
      <trkpt lat="48.797436" lon="9.836537">
        <ele>373.2</ele>
        <time>2026-08-30T10:43:16Z</time>
      </trkpt>
      <trkpt lat="48.797424" lon="9.836556">
        <ele>373.4</ele>
        <time>2026-08-30T10:43:17Z</time>
      </trkpt>
      <trkpt lat="48.797418" lon="9.836578">
        <ele>373.6</ele>
        <time>2026-08-30T10:43:18Z</time>
      </trkpt>
      <trkpt lat="48.797413" lon="9.836604">
        <ele>373.8</ele>
        <time>2026-08-30T10:43:19Z</time>
      </trkpt>
      <trkpt lat="48.797409" lon="9.836630">
        <ele>374</ele>
        <time>2026-08-30T10:43:20Z</time>
      </trkpt>
      <trkpt lat="48.797405" lon="9.836654">
        <ele>374.2</ele>
        <time>2026-08-30T10:43:21Z</time>
      </trkpt>
      <trkpt lat="48.797398" lon="9.836678">
        <ele>374.4</ele>
        <time>2026-08-30T10:43:22Z</time>
      </trkpt>
      <trkpt lat="48.797388" lon="9.836701">
        <ele>374.6</ele>
        <time>2026-08-30T10:43:23Z</time>
      </trkpt>
      <trkpt lat="48.797377" lon="9.836723">
        <ele>374.8</ele>
        <time>2026-08-30T10:43:24Z</time>
      </trkpt>
      <trkpt lat="48.797368" lon="9.836749">
        <ele>375</ele>
        <time>2026-08-30T10:43:25Z</time>
      </trkpt>
      <trkpt lat="48.797362" lon="9.836773">
        <ele>375.2</ele>
        <time>2026-08-30T10:43:26Z</time>
      </trkpt>
      <trkpt lat="48.797354" lon="9.836797">
        <ele>375.4</ele>
        <time>2026-08-30T10:43:27Z</time>
      </trkpt>
      <trkpt lat="48.797346" lon="9.836823">
        <ele>375.6</ele>
        <time>2026-08-30T10:43:28Z</time>
      </trkpt>
      <trkpt lat="48.797336" lon="9.836847">
        <ele>375.8</ele>
        <time>2026-08-30T10:43:29Z</time>
      </trkpt>
      <trkpt lat="48.797327" lon="9.836874">
        <ele>376</ele>
        <time>2026-08-30T10:43:30Z</time>
      </trkpt>
      <trkpt lat="48.797318" lon="9.836904">
        <ele>376.2</ele>
        <time>2026-08-30T10:43:31Z</time>
      </trkpt>
      <trkpt lat="48.797311" lon="9.836927">
        <ele>376.4</ele>
        <time>2026-08-30T10:43:32Z</time>
      </trkpt>
      <trkpt lat="48.797306" lon="9.836949">
        <ele>376.6</ele>
        <time>2026-08-30T10:43:33Z</time>
      </trkpt>
      <trkpt lat="48.797301" lon="9.836976">
        <ele>376.8</ele>
        <time>2026-08-30T10:43:34Z</time>
      </trkpt>
      <trkpt lat="48.797295" lon="9.837005">
        <ele>377</ele>
        <time>2026-08-30T10:43:35Z</time>
      </trkpt>
      <trkpt lat="48.797288" lon="9.837029">
        <ele>377.2</ele>
        <time>2026-08-30T10:43:36Z</time>
      </trkpt>
      <trkpt lat="48.797281" lon="9.837057">
        <ele>377.4</ele>
        <time>2026-08-30T10:43:37Z</time>
      </trkpt>
      <trkpt lat="48.797271" lon="9.837080">
        <ele>377.6</ele>
        <time>2026-08-30T10:43:38Z</time>
      </trkpt>
      <trkpt lat="48.797262" lon="9.837108">
        <ele>377.8</ele>
        <time>2026-08-30T10:43:39Z</time>
      </trkpt>
      <trkpt lat="48.797258" lon="9.837132">
        <ele>377.8</ele>
        <time>2026-08-30T10:43:40Z</time>
      </trkpt>
      <trkpt lat="48.797254" lon="9.837157">
        <ele>378</ele>
        <time>2026-08-30T10:43:41Z</time>
      </trkpt>
      <trkpt lat="48.797247" lon="9.837182">
        <ele>378.2</ele>
        <time>2026-08-30T10:43:42Z</time>
      </trkpt>
      <trkpt lat="48.797238" lon="9.837209">
        <ele>378.4</ele>
        <time>2026-08-30T10:43:43Z</time>
      </trkpt>
      <trkpt lat="48.797231" lon="9.837238">
        <ele>378.6</ele>
        <time>2026-08-30T10:43:44Z</time>
      </trkpt>
      <trkpt lat="48.797224" lon="9.837270">
        <ele>378.8</ele>
        <time>2026-08-30T10:43:45Z</time>
      </trkpt>
      <trkpt lat="48.797217" lon="9.837297">
        <ele>379</ele>
        <time>2026-08-30T10:43:46Z</time>
      </trkpt>
      <trkpt lat="48.797212" lon="9.837326">
        <ele>379</ele>
        <time>2026-08-30T10:43:47Z</time>
      </trkpt>
      <trkpt lat="48.797205" lon="9.837355">
        <ele>379.2</ele>
        <time>2026-08-30T10:43:48Z</time>
      </trkpt>
      <trkpt lat="48.797203" lon="9.837384">
        <ele>379.4</ele>
        <time>2026-08-30T10:43:49Z</time>
      </trkpt>
      <trkpt lat="48.797197" lon="9.837413">
        <ele>379.6</ele>
        <time>2026-08-30T10:43:50Z</time>
      </trkpt>
      <trkpt lat="48.797190" lon="9.837442">
        <ele>379.8</ele>
        <time>2026-08-30T10:43:51Z</time>
      </trkpt>
      <trkpt lat="48.797182" lon="9.837473">
        <ele>380</ele>
        <time>2026-08-30T10:43:52Z</time>
      </trkpt>
      <trkpt lat="48.797177" lon="9.837501">
        <ele>380.2</ele>
        <time>2026-08-30T10:43:53Z</time>
      </trkpt>
      <trkpt lat="48.797171" lon="9.837527">
        <ele>380.4</ele>
        <time>2026-08-30T10:43:54Z</time>
      </trkpt>
      <trkpt lat="48.797163" lon="9.837555">
        <ele>380.4</ele>
        <time>2026-08-30T10:43:55Z</time>
      </trkpt>
      <trkpt lat="48.797158" lon="9.837585">
        <ele>380.6</ele>
        <time>2026-08-30T10:43:56Z</time>
      </trkpt>
      <trkpt lat="48.797152" lon="9.837614">
        <ele>380.8</ele>
        <time>2026-08-30T10:43:57Z</time>
      </trkpt>
      <trkpt lat="48.797146" lon="9.837646">
        <ele>381</ele>
        <time>2026-08-30T10:43:58Z</time>
      </trkpt>
      <trkpt lat="48.797135" lon="9.837677">
        <ele>381</ele>
        <time>2026-08-30T10:43:59Z</time>
      </trkpt>
      <trkpt lat="48.797124" lon="9.837708">
        <ele>381.2</ele>
        <time>2026-08-30T10:44:00Z</time>
      </trkpt>
      <trkpt lat="48.797114" lon="9.837742">
        <ele>381.4</ele>
        <time>2026-08-30T10:44:01Z</time>
      </trkpt>
      <trkpt lat="48.797106" lon="9.837773">
        <ele>381.6</ele>
        <time>2026-08-30T10:44:02Z</time>
      </trkpt>
      <trkpt lat="48.797102" lon="9.837802">
        <ele>381.8</ele>
        <time>2026-08-30T10:44:03Z</time>
      </trkpt>
      <trkpt lat="48.797099" lon="9.837830">
        <ele>382</ele>
        <time>2026-08-30T10:44:04Z</time>
      </trkpt>
      <trkpt lat="48.797092" lon="9.837861">
        <ele>382.2</ele>
        <time>2026-08-30T10:44:05Z</time>
      </trkpt>
      <trkpt lat="48.797083" lon="9.837892">
        <ele>382.4</ele>
        <time>2026-08-30T10:44:06Z</time>
      </trkpt>
      <trkpt lat="48.797075" lon="9.837923">
        <ele>382.6</ele>
        <time>2026-08-30T10:44:07Z</time>
      </trkpt>
      <trkpt lat="48.797068" lon="9.837953">
        <ele>382.8</ele>
        <time>2026-08-30T10:44:08Z</time>
      </trkpt>
      <trkpt lat="48.797061" lon="9.837985">
        <ele>383</ele>
        <time>2026-08-30T10:44:09Z</time>
      </trkpt>
      <trkpt lat="48.797053" lon="9.838016">
        <ele>383.2</ele>
        <time>2026-08-30T10:44:10Z</time>
      </trkpt>
      <trkpt lat="48.797043" lon="9.838049">
        <ele>383.4</ele>
        <time>2026-08-30T10:44:11Z</time>
      </trkpt>
      <trkpt lat="48.797034" lon="9.838083">
        <ele>383.6</ele>
        <time>2026-08-30T10:44:12Z</time>
      </trkpt>
      <trkpt lat="48.797029" lon="9.838114">
        <ele>383.6</ele>
        <time>2026-08-30T10:44:13Z</time>
      </trkpt>
      <trkpt lat="48.797023" lon="9.838144">
        <ele>383.8</ele>
        <time>2026-08-30T10:44:14Z</time>
      </trkpt>
      <trkpt lat="48.797017" lon="9.838177">
        <ele>384</ele>
        <time>2026-08-30T10:44:15Z</time>
      </trkpt>
      <trkpt lat="48.797012" lon="9.838207">
        <ele>384.2</ele>
        <time>2026-08-30T10:44:16Z</time>
      </trkpt>
      <trkpt lat="48.797006" lon="9.838237">
        <ele>384.4</ele>
        <time>2026-08-30T10:44:17Z</time>
      </trkpt>
      <trkpt lat="48.797001" lon="9.838270">
        <ele>384.6</ele>
        <time>2026-08-30T10:44:18Z</time>
      </trkpt>
      <trkpt lat="48.796992" lon="9.838299">
        <ele>384.8</ele>
        <time>2026-08-30T10:44:19Z</time>
      </trkpt>
      <trkpt lat="48.796984" lon="9.838335">
        <ele>385</ele>
        <time>2026-08-30T10:44:20Z</time>
      </trkpt>
      <trkpt lat="48.796977" lon="9.838363">
        <ele>385.4</ele>
        <time>2026-08-30T10:44:21Z</time>
      </trkpt>
      <trkpt lat="48.796972" lon="9.838393">
        <ele>385.6</ele>
        <time>2026-08-30T10:44:22Z</time>
      </trkpt>
      <trkpt lat="48.796967" lon="9.838425">
        <ele>385.8</ele>
        <time>2026-08-30T10:44:23Z</time>
      </trkpt>
      <trkpt lat="48.796958" lon="9.838450">
        <ele>386</ele>
        <time>2026-08-30T10:44:24Z</time>
      </trkpt>
      <trkpt lat="48.796951" lon="9.838482">
        <ele>386.2</ele>
        <time>2026-08-30T10:44:25Z</time>
      </trkpt>
      <trkpt lat="48.796944" lon="9.838514">
        <ele>386.4</ele>
        <time>2026-08-30T10:44:26Z</time>
      </trkpt>
      <trkpt lat="48.796934" lon="9.838539">
        <ele>386.6</ele>
        <time>2026-08-30T10:44:27Z</time>
      </trkpt>
      <trkpt lat="48.796922" lon="9.838563">
        <ele>386.8</ele>
        <time>2026-08-30T10:44:28Z</time>
      </trkpt>
      <trkpt lat="48.796907" lon="9.838588">
        <ele>387</ele>
        <time>2026-08-30T10:44:29Z</time>
      </trkpt>
      <trkpt lat="48.796891" lon="9.838612">
        <ele>387.2</ele>
        <time>2026-08-30T10:44:30Z</time>
      </trkpt>
      <trkpt lat="48.796875" lon="9.838631">
        <ele>387.4</ele>
        <time>2026-08-30T10:44:31Z</time>
      </trkpt>
      <trkpt lat="48.796859" lon="9.838645">
        <ele>387.6</ele>
        <time>2026-08-30T10:44:32Z</time>
      </trkpt>
      <trkpt lat="48.796841" lon="9.838653">
        <ele>387.8</ele>
        <time>2026-08-30T10:44:33Z</time>
      </trkpt>
      <trkpt lat="48.796822" lon="9.838662">
        <ele>388</ele>
        <time>2026-08-30T10:44:34Z</time>
      </trkpt>
      <trkpt lat="48.796803" lon="9.838669">
        <ele>388.2</ele>
        <time>2026-08-30T10:44:35Z</time>
      </trkpt>
      <trkpt lat="48.796784" lon="9.838682">
        <ele>388.4</ele>
        <time>2026-08-30T10:44:36Z</time>
      </trkpt>
      <trkpt lat="48.796766" lon="9.838694">
        <ele>388.6</ele>
        <time>2026-08-30T10:44:37Z</time>
      </trkpt>
      <trkpt lat="48.796746" lon="9.838712">
        <ele>388.8</ele>
        <time>2026-08-30T10:44:38Z</time>
      </trkpt>
      <trkpt lat="48.796727" lon="9.838727">
        <ele>389</ele>
        <time>2026-08-30T10:44:39Z</time>
      </trkpt>
      <trkpt lat="48.796711" lon="9.838746">
        <ele>389.2</ele>
        <time>2026-08-30T10:44:40Z</time>
      </trkpt>
      <trkpt lat="48.796697" lon="9.838770">
        <ele>389.4</ele>
        <time>2026-08-30T10:44:41Z</time>
      </trkpt>
      <trkpt lat="48.796684" lon="9.838795">
        <ele>389.6</ele>
        <time>2026-08-30T10:44:42Z</time>
      </trkpt>
      <trkpt lat="48.796676" lon="9.838817">
        <ele>389.8</ele>
        <time>2026-08-30T10:44:43Z</time>
      </trkpt>
      <trkpt lat="48.796666" lon="9.838841">
        <ele>390</ele>
        <time>2026-08-30T10:44:44Z</time>
      </trkpt>
      <trkpt lat="48.796655" lon="9.838869">
        <ele>390.2</ele>
        <time>2026-08-30T10:44:45Z</time>
      </trkpt>
      <trkpt lat="48.796645" lon="9.838892">
        <ele>390.4</ele>
        <time>2026-08-30T10:44:46Z</time>
      </trkpt>
      <trkpt lat="48.796639" lon="9.838916">
        <ele>390.8</ele>
        <time>2026-08-30T10:44:47Z</time>
      </trkpt>
      <trkpt lat="48.796634" lon="9.838945">
        <ele>391</ele>
        <time>2026-08-30T10:44:48Z</time>
      </trkpt>
      <trkpt lat="48.796630" lon="9.838972">
        <ele>391.2</ele>
        <time>2026-08-30T10:44:49Z</time>
      </trkpt>
      <trkpt lat="48.796630" lon="9.839002">
        <ele>391.4</ele>
        <time>2026-08-30T10:44:50Z</time>
      </trkpt>
      <trkpt lat="48.796629" lon="9.839023">
        <ele>391.8</ele>
        <time>2026-08-30T10:44:51Z</time>
      </trkpt>
      <trkpt lat="48.796626" lon="9.839041">
        <ele>392</ele>
        <time>2026-08-30T10:44:52Z</time>
      </trkpt>
      <trkpt lat="48.796621" lon="9.839061">
        <ele>392.2</ele>
        <time>2026-08-30T10:44:53Z</time>
      </trkpt>
      <trkpt lat="48.796617" lon="9.839083">
        <ele>392.4</ele>
        <time>2026-08-30T10:44:54Z</time>
      </trkpt>
      <trkpt lat="48.796613" lon="9.839116">
        <ele>392.6</ele>
        <time>2026-08-30T10:44:55Z</time>
      </trkpt>
      <trkpt lat="48.796613" lon="9.839147">
        <ele>393</ele>
        <time>2026-08-30T10:44:56Z</time>
      </trkpt>
      <trkpt lat="48.796615" lon="9.839174">
        <ele>393.2</ele>
        <time>2026-08-30T10:44:57Z</time>
      </trkpt>
      <trkpt lat="48.796617" lon="9.839199">
        <ele>393.4</ele>
        <time>2026-08-30T10:44:58Z</time>
      </trkpt>
      <trkpt lat="48.796619" lon="9.839223">
        <ele>393.6</ele>
        <time>2026-08-30T10:44:59Z</time>
      </trkpt>
      <trkpt lat="48.796621" lon="9.839247">
        <ele>393.8</ele>
        <time>2026-08-30T10:45:00Z</time>
      </trkpt>
      <trkpt lat="48.796619" lon="9.839269">
        <ele>394</ele>
        <time>2026-08-30T10:45:01Z</time>
      </trkpt>
      <trkpt lat="48.796612" lon="9.839292">
        <ele>394.2</ele>
        <time>2026-08-30T10:45:02Z</time>
      </trkpt>
      <trkpt lat="48.796604" lon="9.839313">
        <ele>394.4</ele>
        <time>2026-08-30T10:45:03Z</time>
      </trkpt>
      <trkpt lat="48.796596" lon="9.839337">
        <ele>394.6</ele>
        <time>2026-08-30T10:45:04Z</time>
      </trkpt>
      <trkpt lat="48.796595" lon="9.839363">
        <ele>394.8</ele>
        <time>2026-08-30T10:45:05Z</time>
      </trkpt>
      <trkpt lat="48.796595" lon="9.839388">
        <ele>395</ele>
        <time>2026-08-30T10:45:06Z</time>
      </trkpt>
      <trkpt lat="48.796594" lon="9.839412">
        <ele>395.2</ele>
        <time>2026-08-30T10:45:07Z</time>
      </trkpt>
      <trkpt lat="48.796591" lon="9.839430">
        <ele>395.4</ele>
        <time>2026-08-30T10:45:08Z</time>
      </trkpt>
      <trkpt lat="48.796590" lon="9.839452">
        <ele>395.6</ele>
        <time>2026-08-30T10:45:09Z</time>
      </trkpt>
      <trkpt lat="48.796590" lon="9.839471">
        <ele>395.8</ele>
        <time>2026-08-30T10:45:10Z</time>
      </trkpt>
      <trkpt lat="48.796591" lon="9.839496">
        <ele>396</ele>
        <time>2026-08-30T10:45:11Z</time>
      </trkpt>
      <trkpt lat="48.796593" lon="9.839521">
        <ele>396.2</ele>
        <time>2026-08-30T10:45:12Z</time>
      </trkpt>
      <trkpt lat="48.796593" lon="9.839547">
        <ele>396.4</ele>
        <time>2026-08-30T10:45:13Z</time>
      </trkpt>
      <trkpt lat="48.796589" lon="9.839573">
        <ele>396.6</ele>
        <time>2026-08-30T10:45:14Z</time>
      </trkpt>
      <trkpt lat="48.796586" lon="9.839594">
        <ele>396.8</ele>
        <time>2026-08-30T10:45:15Z</time>
      </trkpt>
      <trkpt lat="48.796581" lon="9.839613">
        <ele>397</ele>
        <time>2026-08-30T10:45:16Z</time>
      </trkpt>
      <trkpt lat="48.796576" lon="9.839639">
        <ele>397.2</ele>
        <time>2026-08-30T10:45:17Z</time>
      </trkpt>
      <trkpt lat="48.796576" lon="9.839664">
        <ele>397.4</ele>
        <time>2026-08-30T10:45:18Z</time>
      </trkpt>
      <trkpt lat="48.796576" lon="9.839688">
        <ele>397.6</ele>
        <time>2026-08-30T10:45:19Z</time>
      </trkpt>
      <trkpt lat="48.796573" lon="9.839711">
        <ele>397.8</ele>
        <time>2026-08-30T10:45:20Z</time>
      </trkpt>
      <trkpt lat="48.796569" lon="9.839734">
        <ele>398</ele>
        <time>2026-08-30T10:45:21Z</time>
      </trkpt>
      <trkpt lat="48.796564" lon="9.839756">
        <ele>398.2</ele>
        <time>2026-08-30T10:45:22Z</time>
      </trkpt>
      <trkpt lat="48.796562" lon="9.839778">
        <ele>398.4</ele>
        <time>2026-08-30T10:45:23Z</time>
      </trkpt>
      <trkpt lat="48.796560" lon="9.839800">
        <ele>398.6</ele>
        <time>2026-08-30T10:45:24Z</time>
      </trkpt>
      <trkpt lat="48.796558" lon="9.839828">
        <ele>398.8</ele>
        <time>2026-08-30T10:45:25Z</time>
      </trkpt>
      <trkpt lat="48.796557" lon="9.839850">
        <ele>399</ele>
        <time>2026-08-30T10:45:26Z</time>
      </trkpt>
      <trkpt lat="48.796557" lon="9.839875">
        <ele>399.2</ele>
        <time>2026-08-30T10:45:27Z</time>
      </trkpt>
      <trkpt lat="48.796555" lon="9.839898">
        <ele>399.6</ele>
        <time>2026-08-30T10:45:28Z</time>
      </trkpt>
      <trkpt lat="48.796551" lon="9.839921">
        <ele>399.8</ele>
        <time>2026-08-30T10:45:29Z</time>
      </trkpt>
      <trkpt lat="48.796549" lon="9.839945">
        <ele>400</ele>
        <time>2026-08-30T10:45:30Z</time>
      </trkpt>
      <trkpt lat="48.796545" lon="9.839969">
        <ele>400.2</ele>
        <time>2026-08-30T10:45:31Z</time>
      </trkpt>
      <trkpt lat="48.796541" lon="9.839994">
        <ele>400.4</ele>
        <time>2026-08-30T10:45:32Z</time>
      </trkpt>
      <trkpt lat="48.796538" lon="9.840014">
        <ele>400.8</ele>
        <time>2026-08-30T10:45:33Z</time>
      </trkpt>
      <trkpt lat="48.796535" lon="9.840034">
        <ele>401</ele>
        <time>2026-08-30T10:45:34Z</time>
      </trkpt>
      <trkpt lat="48.796534" lon="9.840062">
        <ele>401.2</ele>
        <time>2026-08-30T10:45:35Z</time>
      </trkpt>
      <trkpt lat="48.796534" lon="9.840090">
        <ele>401.4</ele>
        <time>2026-08-30T10:45:36Z</time>
      </trkpt>
      <trkpt lat="48.796534" lon="9.840112">
        <ele>401.6</ele>
        <time>2026-08-30T10:45:37Z</time>
      </trkpt>
      <trkpt lat="48.796531" lon="9.840136">
        <ele>401.8</ele>
        <time>2026-08-30T10:45:38Z</time>
      </trkpt>
      <trkpt lat="48.796526" lon="9.840157">
        <ele>402</ele>
        <time>2026-08-30T10:45:39Z</time>
      </trkpt>
      <trkpt lat="48.796522" lon="9.840178">
        <ele>402.2</ele>
        <time>2026-08-30T10:45:40Z</time>
      </trkpt>
      <trkpt lat="48.796519" lon="9.840205">
        <ele>402.4</ele>
        <time>2026-08-30T10:45:41Z</time>
      </trkpt>
      <trkpt lat="48.796517" lon="9.840232">
        <ele>402.6</ele>
        <time>2026-08-30T10:45:42Z</time>
      </trkpt>
      <trkpt lat="48.796515" lon="9.840258">
        <ele>403</ele>
        <time>2026-08-30T10:45:43Z</time>
      </trkpt>
      <trkpt lat="48.796511" lon="9.840282">
        <ele>403.2</ele>
        <time>2026-08-30T10:45:44Z</time>
      </trkpt>
      <trkpt lat="48.796504" lon="9.840305">
        <ele>403.4</ele>
        <time>2026-08-30T10:45:45Z</time>
      </trkpt>
      <trkpt lat="48.796498" lon="9.840328">
        <ele>403.6</ele>
        <time>2026-08-30T10:45:46Z</time>
      </trkpt>
      <trkpt lat="48.796497" lon="9.840350">
        <ele>403.8</ele>
        <time>2026-08-30T10:45:47Z</time>
      </trkpt>
      <trkpt lat="48.796495" lon="9.840376">
        <ele>404</ele>
        <time>2026-08-30T10:45:48Z</time>
      </trkpt>
      <trkpt lat="48.796492" lon="9.840401">
        <ele>404.2</ele>
        <time>2026-08-30T10:45:49Z</time>
      </trkpt>
      <trkpt lat="48.796488" lon="9.840429">
        <ele>404.4</ele>
        <time>2026-08-30T10:45:50Z</time>
      </trkpt>
      <trkpt lat="48.796487" lon="9.840453">
        <ele>404.6</ele>
        <time>2026-08-30T10:45:51Z</time>
      </trkpt>
      <trkpt lat="48.796484" lon="9.840477">
        <ele>404.8</ele>
        <time>2026-08-30T10:45:52Z</time>
      </trkpt>
      <trkpt lat="48.796480" lon="9.840502">
        <ele>405</ele>
        <time>2026-08-30T10:45:53Z</time>
      </trkpt>
      <trkpt lat="48.796473" lon="9.840523">
        <ele>405.2</ele>
        <time>2026-08-30T10:45:54Z</time>
      </trkpt>
      <trkpt lat="48.796469" lon="9.840545">
        <ele>405.4</ele>
        <time>2026-08-30T10:45:55Z</time>
      </trkpt>
      <trkpt lat="48.796465" lon="9.840571">
        <ele>405.6</ele>
        <time>2026-08-30T10:45:56Z</time>
      </trkpt>
      <trkpt lat="48.796462" lon="9.840593">
        <ele>405.8</ele>
        <time>2026-08-30T10:45:57Z</time>
      </trkpt>
      <trkpt lat="48.796458" lon="9.840620">
        <ele>406</ele>
        <time>2026-08-30T10:45:58Z</time>
      </trkpt>
      <trkpt lat="48.796453" lon="9.840646">
        <ele>406.2</ele>
        <time>2026-08-30T10:45:59Z</time>
      </trkpt>
      <trkpt lat="48.796452" lon="9.840672">
        <ele>406.4</ele>
        <time>2026-08-30T10:46:00Z</time>
      </trkpt>
      <trkpt lat="48.796452" lon="9.840704">
        <ele>406.6</ele>
        <time>2026-08-30T10:46:01Z</time>
      </trkpt>
      <trkpt lat="48.796450" lon="9.840732">
        <ele>406.8</ele>
        <time>2026-08-30T10:46:02Z</time>
      </trkpt>
      <trkpt lat="48.796444" lon="9.840759">
        <ele>407</ele>
        <time>2026-08-30T10:46:03Z</time>
      </trkpt>
      <trkpt lat="48.796436" lon="9.840784">
        <ele>407.2</ele>
        <time>2026-08-30T10:46:04Z</time>
      </trkpt>
      <trkpt lat="48.796428" lon="9.840808">
        <ele>407.4</ele>
        <time>2026-08-30T10:46:05Z</time>
      </trkpt>
      <trkpt lat="48.796424" lon="9.840836">
        <ele>407.6</ele>
        <time>2026-08-30T10:46:06Z</time>
      </trkpt>
      <trkpt lat="48.796419" lon="9.840861">
        <ele>407.8</ele>
        <time>2026-08-30T10:46:07Z</time>
      </trkpt>
      <trkpt lat="48.796418" lon="9.840889">
        <ele>408</ele>
        <time>2026-08-30T10:46:08Z</time>
      </trkpt>
      <trkpt lat="48.796415" lon="9.840911">
        <ele>408.2</ele>
        <time>2026-08-30T10:46:09Z</time>
      </trkpt>
      <trkpt lat="48.796412" lon="9.840944">
        <ele>408.4</ele>
        <time>2026-08-30T10:46:10Z</time>
      </trkpt>
      <trkpt lat="48.796409" lon="9.840973">
        <ele>408.6</ele>
        <time>2026-08-30T10:46:11Z</time>
      </trkpt>
      <trkpt lat="48.796406" lon="9.841000">
        <ele>408.8</ele>
        <time>2026-08-30T10:46:12Z</time>
      </trkpt>
      <trkpt lat="48.796402" lon="9.841023">
        <ele>409</ele>
        <time>2026-08-30T10:46:13Z</time>
      </trkpt>
      <trkpt lat="48.796399" lon="9.841050">
        <ele>409.4</ele>
        <time>2026-08-30T10:46:14Z</time>
      </trkpt>
      <trkpt lat="48.796397" lon="9.841081">
        <ele>409.4</ele>
        <time>2026-08-30T10:46:15Z</time>
      </trkpt>
      <trkpt lat="48.796398" lon="9.841111">
        <ele>409.6</ele>
        <time>2026-08-30T10:46:16Z</time>
      </trkpt>
      <trkpt lat="48.796397" lon="9.841137">
        <ele>409.8</ele>
        <time>2026-08-30T10:46:17Z</time>
      </trkpt>
      <trkpt lat="48.796397" lon="9.841167">
        <ele>410</ele>
        <time>2026-08-30T10:46:18Z</time>
      </trkpt>
      <trkpt lat="48.796394" lon="9.841195">
        <ele>410.2</ele>
        <time>2026-08-30T10:46:19Z</time>
      </trkpt>
      <trkpt lat="48.796388" lon="9.841221">
        <ele>410.6</ele>
        <time>2026-08-30T10:46:20Z</time>
      </trkpt>
      <trkpt lat="48.796381" lon="9.841241">
        <ele>410.8</ele>
        <time>2026-08-30T10:46:21Z</time>
      </trkpt>
      <trkpt lat="48.796372" lon="9.841261">
        <ele>411</ele>
        <time>2026-08-30T10:46:22Z</time>
      </trkpt>
      <trkpt lat="48.796366" lon="9.841283">
        <ele>411.2</ele>
        <time>2026-08-30T10:46:23Z</time>
      </trkpt>
      <trkpt lat="48.796359" lon="9.841313">
        <ele>411.4</ele>
        <time>2026-08-30T10:46:24Z</time>
      </trkpt>
      <trkpt lat="48.796354" lon="9.841347">
        <ele>411.6</ele>
        <time>2026-08-30T10:46:25Z</time>
      </trkpt>
      <trkpt lat="48.796351" lon="9.841375">
        <ele>411.8</ele>
        <time>2026-08-30T10:46:26Z</time>
      </trkpt>
      <trkpt lat="48.796347" lon="9.841400">
        <ele>412</ele>
        <time>2026-08-30T10:46:27Z</time>
      </trkpt>
      <trkpt lat="48.796342" lon="9.841427">
        <ele>412.2</ele>
        <time>2026-08-30T10:46:28Z</time>
      </trkpt>
      <trkpt lat="48.796337" lon="9.841457">
        <ele>412.4</ele>
        <time>2026-08-30T10:46:29Z</time>
      </trkpt>
      <trkpt lat="48.796330" lon="9.841482">
        <ele>412.6</ele>
        <time>2026-08-30T10:46:30Z</time>
      </trkpt>
      <trkpt lat="48.796325" lon="9.841507">
        <ele>412.8</ele>
        <time>2026-08-30T10:46:31Z</time>
      </trkpt>
      <trkpt lat="48.796321" lon="9.841532">
        <ele>413</ele>
        <time>2026-08-30T10:46:32Z</time>
      </trkpt>
      <trkpt lat="48.796315" lon="9.841557">
        <ele>413.2</ele>
        <time>2026-08-30T10:46:33Z</time>
      </trkpt>
      <trkpt lat="48.796304" lon="9.841577">
        <ele>413.4</ele>
        <time>2026-08-30T10:46:34Z</time>
      </trkpt>
      <trkpt lat="48.796294" lon="9.841594">
        <ele>413.6</ele>
        <time>2026-08-30T10:46:35Z</time>
      </trkpt>
      <trkpt lat="48.796283" lon="9.841617">
        <ele>413.8</ele>
        <time>2026-08-30T10:46:36Z</time>
      </trkpt>
      <trkpt lat="48.796275" lon="9.841644">
        <ele>414</ele>
        <time>2026-08-30T10:46:37Z</time>
      </trkpt>
      <trkpt lat="48.796267" lon="9.841669">
        <ele>414.2</ele>
        <time>2026-08-30T10:46:38Z</time>
      </trkpt>
      <trkpt lat="48.796261" lon="9.841696">
        <ele>414.4</ele>
        <time>2026-08-30T10:46:39Z</time>
      </trkpt>
      <trkpt lat="48.796253" lon="9.841719">
        <ele>414.6</ele>
        <time>2026-08-30T10:46:40Z</time>
      </trkpt>
      <trkpt lat="48.796243" lon="9.841741">
        <ele>414.8</ele>
        <time>2026-08-30T10:46:41Z</time>
      </trkpt>
      <trkpt lat="48.796230" lon="9.841766">
        <ele>415</ele>
        <time>2026-08-30T10:46:42Z</time>
      </trkpt>
      <trkpt lat="48.796217" lon="9.841791">
        <ele>415.2</ele>
        <time>2026-08-30T10:46:43Z</time>
      </trkpt>
      <trkpt lat="48.796208" lon="9.841815">
        <ele>415.4</ele>
        <time>2026-08-30T10:46:44Z</time>
      </trkpt>
      <trkpt lat="48.796198" lon="9.841833">
        <ele>415.6</ele>
        <time>2026-08-30T10:46:45Z</time>
      </trkpt>
      <trkpt lat="48.796187" lon="9.841860">
        <ele>415.8</ele>
        <time>2026-08-30T10:46:46Z</time>
      </trkpt>
      <trkpt lat="48.796176" lon="9.841883">
        <ele>416</ele>
        <time>2026-08-30T10:46:47Z</time>
      </trkpt>
      <trkpt lat="48.796167" lon="9.841904">
        <ele>416.2</ele>
        <time>2026-08-30T10:46:48Z</time>
      </trkpt>
      <trkpt lat="48.796159" lon="9.841923">
        <ele>416.4</ele>
        <time>2026-08-30T10:46:49Z</time>
      </trkpt>
      <trkpt lat="48.796152" lon="9.841948">
        <ele>416.6</ele>
        <time>2026-08-30T10:46:50Z</time>
      </trkpt>
      <trkpt lat="48.796143" lon="9.841973">
        <ele>416.8</ele>
        <time>2026-08-30T10:46:51Z</time>
      </trkpt>
      <trkpt lat="48.796134" lon="9.841997">
        <ele>417</ele>
        <time>2026-08-30T10:46:52Z</time>
      </trkpt>
      <trkpt lat="48.796120" lon="9.842023">
        <ele>417.2</ele>
        <time>2026-08-30T10:46:53Z</time>
      </trkpt>
      <trkpt lat="48.796110" lon="9.842047">
        <ele>417.2</ele>
        <time>2026-08-30T10:46:54Z</time>
      </trkpt>
      <trkpt lat="48.796100" lon="9.842076">
        <ele>417.4</ele>
        <time>2026-08-30T10:46:55Z</time>
      </trkpt>
      <trkpt lat="48.796092" lon="9.842106">
        <ele>417.8</ele>
        <time>2026-08-30T10:46:56Z</time>
      </trkpt>
      <trkpt lat="48.796084" lon="9.842134">
        <ele>417.8</ele>
        <time>2026-08-30T10:46:57Z</time>
      </trkpt>
      <trkpt lat="48.796072" lon="9.842160">
        <ele>418</ele>
        <time>2026-08-30T10:46:58Z</time>
      </trkpt>
      <trkpt lat="48.796059" lon="9.842190">
        <ele>418.2</ele>
        <time>2026-08-30T10:46:59Z</time>
      </trkpt>
      <trkpt lat="48.796050" lon="9.842213">
        <ele>418.4</ele>
        <time>2026-08-30T10:47:00Z</time>
      </trkpt>
      <trkpt lat="48.796043" lon="9.842244">
        <ele>418.6</ele>
        <time>2026-08-30T10:47:01Z</time>
      </trkpt>
      <trkpt lat="48.796035" lon="9.842272">
        <ele>418.8</ele>
        <time>2026-08-30T10:47:02Z</time>
      </trkpt>
      <trkpt lat="48.796026" lon="9.842296">
        <ele>419</ele>
        <time>2026-08-30T10:47:03Z</time>
      </trkpt>
      <trkpt lat="48.796019" lon="9.842317">
        <ele>419.2</ele>
        <time>2026-08-30T10:47:04Z</time>
      </trkpt>
      <trkpt lat="48.796014" lon="9.842340">
        <ele>419.4</ele>
        <time>2026-08-30T10:47:05Z</time>
      </trkpt>
      <trkpt lat="48.796006" lon="9.842360">
        <ele>419.6</ele>
        <time>2026-08-30T10:47:06Z</time>
      </trkpt>
      <trkpt lat="48.796000" lon="9.842388">
        <ele>419.8</ele>
        <time>2026-08-30T10:47:07Z</time>
      </trkpt>
      <trkpt lat="48.795993" lon="9.842413">
        <ele>419.8</ele>
        <time>2026-08-30T10:47:08Z</time>
      </trkpt>
      <trkpt lat="48.795984" lon="9.842436">
        <ele>420</ele>
        <time>2026-08-30T10:47:09Z</time>
      </trkpt>
      <trkpt lat="48.795975" lon="9.842465">
        <ele>420.2</ele>
        <time>2026-08-30T10:47:10Z</time>
      </trkpt>
      <trkpt lat="48.795965" lon="9.842493">
        <ele>420.6</ele>
        <time>2026-08-30T10:47:11Z</time>
      </trkpt>
      <trkpt lat="48.795956" lon="9.842524">
        <ele>420.8</ele>
        <time>2026-08-30T10:47:12Z</time>
      </trkpt>
      <trkpt lat="48.795949" lon="9.842551">
        <ele>421</ele>
        <time>2026-08-30T10:47:13Z</time>
      </trkpt>
      <trkpt lat="48.795943" lon="9.842575">
        <ele>421</ele>
        <time>2026-08-30T10:47:14Z</time>
      </trkpt>
      <trkpt lat="48.795936" lon="9.842604">
        <ele>421.2</ele>
        <time>2026-08-30T10:47:15Z</time>
      </trkpt>
      <trkpt lat="48.795927" lon="9.842633">
        <ele>421.4</ele>
        <time>2026-08-30T10:47:16Z</time>
      </trkpt>
      <trkpt lat="48.795919" lon="9.842659">
        <ele>421.6</ele>
        <time>2026-08-30T10:47:17Z</time>
      </trkpt>
      <trkpt lat="48.795912" lon="9.842683">
        <ele>421.8</ele>
        <time>2026-08-30T10:47:18Z</time>
      </trkpt>
      <trkpt lat="48.795908" lon="9.842710">
        <ele>422</ele>
        <time>2026-08-30T10:47:19Z</time>
      </trkpt>
      <trkpt lat="48.795902" lon="9.842732">
        <ele>422.2</ele>
        <time>2026-08-30T10:47:20Z</time>
      </trkpt>
      <trkpt lat="48.795896" lon="9.842755">
        <ele>422.4</ele>
        <time>2026-08-30T10:47:21Z</time>
      </trkpt>
      <trkpt lat="48.795890" lon="9.842777">
        <ele>422.6</ele>
        <time>2026-08-30T10:47:22Z</time>
      </trkpt>
      <trkpt lat="48.795885" lon="9.842804">
        <ele>422.8</ele>
        <time>2026-08-30T10:47:23Z</time>
      </trkpt>
      <trkpt lat="48.795877" lon="9.842833">
        <ele>423</ele>
        <time>2026-08-30T10:47:24Z</time>
      </trkpt>
      <trkpt lat="48.795868" lon="9.842866">
        <ele>423.2</ele>
        <time>2026-08-30T10:47:25Z</time>
      </trkpt>
      <trkpt lat="48.795859" lon="9.842893">
        <ele>423.4</ele>
        <time>2026-08-30T10:47:26Z</time>
      </trkpt>
      <trkpt lat="48.795852" lon="9.842926">
        <ele>423.6</ele>
        <time>2026-08-30T10:47:27Z</time>
      </trkpt>
      <trkpt lat="48.795847" lon="9.842952">
        <ele>423.8</ele>
        <time>2026-08-30T10:47:28Z</time>
      </trkpt>
      <trkpt lat="48.795843" lon="9.842975">
        <ele>423.8</ele>
        <time>2026-08-30T10:47:29Z</time>
      </trkpt>
      <trkpt lat="48.795835" lon="9.843005">
        <ele>424</ele>
        <time>2026-08-30T10:47:30Z</time>
      </trkpt>
      <trkpt lat="48.795828" lon="9.843032">
        <ele>424.2</ele>
        <time>2026-08-30T10:47:31Z</time>
      </trkpt>
      <trkpt lat="48.795821" lon="9.843058">
        <ele>424.4</ele>
        <time>2026-08-30T10:47:32Z</time>
      </trkpt>
      <trkpt lat="48.795815" lon="9.843086">
        <ele>424.6</ele>
        <time>2026-08-30T10:47:33Z</time>
      </trkpt>
      <trkpt lat="48.795808" lon="9.843107">
        <ele>424.8</ele>
        <time>2026-08-30T10:47:34Z</time>
      </trkpt>
      <trkpt lat="48.795800" lon="9.843138">
        <ele>425</ele>
        <time>2026-08-30T10:47:35Z</time>
      </trkpt>
      <trkpt lat="48.795795" lon="9.843172">
        <ele>425.2</ele>
        <time>2026-08-30T10:47:36Z</time>
      </trkpt>
      <trkpt lat="48.795791" lon="9.843200">
        <ele>425.4</ele>
        <time>2026-08-30T10:47:37Z</time>
      </trkpt>
      <trkpt lat="48.795786" lon="9.843233">
        <ele>425.6</ele>
        <time>2026-08-30T10:47:38Z</time>
      </trkpt>
      <trkpt lat="48.795780" lon="9.843259">
        <ele>425.8</ele>
        <time>2026-08-30T10:47:39Z</time>
      </trkpt>
      <trkpt lat="48.795773" lon="9.843289">
        <ele>426</ele>
        <time>2026-08-30T10:47:40Z</time>
      </trkpt>
      <trkpt lat="48.795767" lon="9.843322">
        <ele>426.2</ele>
        <time>2026-08-30T10:47:41Z</time>
      </trkpt>
      <trkpt lat="48.795762" lon="9.843351">
        <ele>426.2</ele>
        <time>2026-08-30T10:47:42Z</time>
      </trkpt>
      <trkpt lat="48.795758" lon="9.843379">
        <ele>426.4</ele>
        <time>2026-08-30T10:47:43Z</time>
      </trkpt>
      <trkpt lat="48.795753" lon="9.843407">
        <ele>426.6</ele>
        <time>2026-08-30T10:47:44Z</time>
      </trkpt>
      <trkpt lat="48.795748" lon="9.843435">
        <ele>426.8</ele>
        <time>2026-08-30T10:47:45Z</time>
      </trkpt>
      <trkpt lat="48.795743" lon="9.843459">
        <ele>427</ele>
        <time>2026-08-30T10:47:46Z</time>
      </trkpt>
      <trkpt lat="48.795735" lon="9.843488">
        <ele>427.2</ele>
        <time>2026-08-30T10:47:47Z</time>
      </trkpt>
      <trkpt lat="48.795730" lon="9.843519">
        <ele>427.4</ele>
        <time>2026-08-30T10:47:48Z</time>
      </trkpt>
      <trkpt lat="48.795725" lon="9.843552">
        <ele>427.6</ele>
        <time>2026-08-30T10:47:49Z</time>
      </trkpt>
      <trkpt lat="48.795720" lon="9.843582">
        <ele>427.8</ele>
        <time>2026-08-30T10:47:50Z</time>
      </trkpt>
      <trkpt lat="48.795712" lon="9.843611">
        <ele>428</ele>
        <time>2026-08-30T10:47:51Z</time>
      </trkpt>
      <trkpt lat="48.795708" lon="9.843644">
        <ele>428</ele>
        <time>2026-08-30T10:47:52Z</time>
      </trkpt>
      <trkpt lat="48.795703" lon="9.843676">
        <ele>428.2</ele>
        <time>2026-08-30T10:47:53Z</time>
      </trkpt>
      <trkpt lat="48.795700" lon="9.843711">
        <ele>428.4</ele>
        <time>2026-08-30T10:47:54Z</time>
      </trkpt>
      <trkpt lat="48.795695" lon="9.843747">
        <ele>428.6</ele>
        <time>2026-08-30T10:47:55Z</time>
      </trkpt>
      <trkpt lat="48.795688" lon="9.843783">
        <ele>428.6</ele>
        <time>2026-08-30T10:47:56Z</time>
      </trkpt>
      <trkpt lat="48.795677" lon="9.843817">
        <ele>428.8</ele>
        <time>2026-08-30T10:47:57Z</time>
      </trkpt>
      <trkpt lat="48.795668" lon="9.843853">
        <ele>429</ele>
        <time>2026-08-30T10:47:58Z</time>
      </trkpt>
      <trkpt lat="48.795661" lon="9.843888">
        <ele>429</ele>
        <time>2026-08-30T10:47:59Z</time>
      </trkpt>
      <trkpt lat="48.795654" lon="9.843930">
        <ele>429.2</ele>
        <time>2026-08-30T10:48:00Z</time>
      </trkpt>
      <trkpt lat="48.795650" lon="9.843968">
        <ele>429.2</ele>
        <time>2026-08-30T10:48:01Z</time>
      </trkpt>
      <trkpt lat="48.795649" lon="9.844011">
        <ele>429.4</ele>
        <time>2026-08-30T10:48:02Z</time>
      </trkpt>
      <trkpt lat="48.795648" lon="9.844057">
        <ele>429.4</ele>
        <time>2026-08-30T10:48:03Z</time>
      </trkpt>
      <trkpt lat="48.795645" lon="9.844104">
        <ele>429.6</ele>
        <time>2026-08-30T10:48:04Z</time>
      </trkpt>
      <trkpt lat="48.795642" lon="9.844149">
        <ele>429.6</ele>
        <time>2026-08-30T10:48:05Z</time>
      </trkpt>
      <trkpt lat="48.795641" lon="9.844197">
        <ele>429.8</ele>
        <time>2026-08-30T10:48:06Z</time>
      </trkpt>
      <trkpt lat="48.795638" lon="9.844245">
        <ele>429.8</ele>
        <time>2026-08-30T10:48:07Z</time>
      </trkpt>
      <trkpt lat="48.795637" lon="9.844293">
        <ele>430</ele>
        <time>2026-08-30T10:48:08Z</time>
      </trkpt>
      <trkpt lat="48.795637" lon="9.844342">
        <ele>430.2</ele>
        <time>2026-08-30T10:48:09Z</time>
      </trkpt>
      <trkpt lat="48.795639" lon="9.844392">
        <ele>430.2</ele>
        <time>2026-08-30T10:48:10Z</time>
      </trkpt>
      <trkpt lat="48.795639" lon="9.844440">
        <ele>430.4</ele>
        <time>2026-08-30T10:48:11Z</time>
      </trkpt>
      <trkpt lat="48.795640" lon="9.844488">
        <ele>430.4</ele>
        <time>2026-08-30T10:48:12Z</time>
      </trkpt>
      <trkpt lat="48.795644" lon="9.844541">
        <ele>430.6</ele>
        <time>2026-08-30T10:48:13Z</time>
      </trkpt>
      <trkpt lat="48.795646" lon="9.844593">
        <ele>430.6</ele>
        <time>2026-08-30T10:48:14Z</time>
      </trkpt>
      <trkpt lat="48.795650" lon="9.844648">
        <ele>430.8</ele>
        <time>2026-08-30T10:48:15Z</time>
      </trkpt>
      <trkpt lat="48.795654" lon="9.844702">
        <ele>430.8</ele>
        <time>2026-08-30T10:48:16Z</time>
      </trkpt>
      <trkpt lat="48.795658" lon="9.844755">
        <ele>430.8</ele>
        <time>2026-08-30T10:48:17Z</time>
      </trkpt>
      <trkpt lat="48.795659" lon="9.844807">
        <ele>431</ele>
        <time>2026-08-30T10:48:18Z</time>
      </trkpt>
      <trkpt lat="48.795661" lon="9.844859">
        <ele>431</ele>
        <time>2026-08-30T10:48:19Z</time>
      </trkpt>
      <trkpt lat="48.795659" lon="9.844912">
        <ele>431</ele>
        <time>2026-08-30T10:48:20Z</time>
      </trkpt>
      <trkpt lat="48.795657" lon="9.844964">
        <ele>431.2</ele>
        <time>2026-08-30T10:48:21Z</time>
      </trkpt>
      <trkpt lat="48.795658" lon="9.845018">
        <ele>431.2</ele>
        <time>2026-08-30T10:48:22Z</time>
      </trkpt>
      <trkpt lat="48.795661" lon="9.845070">
        <ele>431.2</ele>
        <time>2026-08-30T10:48:23Z</time>
      </trkpt>
      <trkpt lat="48.795668" lon="9.845121">
        <ele>431.4</ele>
        <time>2026-08-30T10:48:24Z</time>
      </trkpt>
      <trkpt lat="48.795671" lon="9.845175">
        <ele>431.4</ele>
        <time>2026-08-30T10:48:25Z</time>
      </trkpt>
      <trkpt lat="48.795673" lon="9.845227">
        <ele>431.4</ele>
        <time>2026-08-30T10:48:26Z</time>
      </trkpt>
      <trkpt lat="48.795674" lon="9.845270">
        <ele>431.6</ele>
        <time>2026-08-30T10:48:27Z</time>
      </trkpt>
      <trkpt lat="48.795676" lon="9.845317">
        <ele>431.6</ele>
        <time>2026-08-30T10:48:28Z</time>
      </trkpt>
      <trkpt lat="48.795682" lon="9.845360">
        <ele>431.6</ele>
        <time>2026-08-30T10:48:29Z</time>
      </trkpt>
      <trkpt lat="48.795694" lon="9.845395">
        <ele>431.8</ele>
        <time>2026-08-30T10:48:30Z</time>
      </trkpt>
      <trkpt lat="48.795714" lon="9.845414">
        <ele>431.8</ele>
        <time>2026-08-30T10:48:31Z</time>
      </trkpt>
      <trkpt lat="48.795726" lon="9.845428">
        <ele>431.8</ele>
        <time>2026-08-30T10:48:32Z</time>
      </trkpt>
      <trkpt lat="48.795740" lon="9.845453">
        <ele>431.8</ele>
        <time>2026-08-30T10:48:33Z</time>
      </trkpt>
      <trkpt lat="48.795763" lon="9.845474">
        <ele>431.8</ele>
        <time>2026-08-30T10:48:34Z</time>
      </trkpt>
      <trkpt lat="48.795782" lon="9.845481">
        <ele>432</ele>
        <time>2026-08-30T10:48:35Z</time>
      </trkpt>
      <trkpt lat="48.795797" lon="9.845477">
        <ele>432</ele>
        <time>2026-08-30T10:48:36Z</time>
      </trkpt>
      <trkpt lat="48.795817" lon="9.845471">
        <ele>432</ele>
        <time>2026-08-30T10:48:37Z</time>
      </trkpt>
      <trkpt lat="48.795843" lon="9.845468">
        <ele>432</ele>
        <time>2026-08-30T10:48:38Z</time>
      </trkpt>
      <trkpt lat="48.795868" lon="9.845468">
        <ele>432</ele>
        <time>2026-08-30T10:48:39Z</time>
      </trkpt>
      <trkpt lat="48.795897" lon="9.845466">
        <ele>431.8</ele>
        <time>2026-08-30T10:48:40Z</time>
      </trkpt>
      <trkpt lat="48.795927" lon="9.845462">
        <ele>431.8</ele>
        <time>2026-08-30T10:48:41Z</time>
      </trkpt>
      <trkpt lat="48.795961" lon="9.845454">
        <ele>431.8</ele>
        <time>2026-08-30T10:48:42Z</time>
      </trkpt>
      <trkpt lat="48.795993" lon="9.845445">
        <ele>431.6</ele>
        <time>2026-08-30T10:48:43Z</time>
      </trkpt>
      <trkpt lat="48.796025" lon="9.845431">
        <ele>431.6</ele>
        <time>2026-08-30T10:48:44Z</time>
      </trkpt>
      <trkpt lat="48.796057" lon="9.845421">
        <ele>431.4</ele>
        <time>2026-08-30T10:48:45Z</time>
      </trkpt>
      <trkpt lat="48.796090" lon="9.845415">
        <ele>431.4</ele>
        <time>2026-08-30T10:48:46Z</time>
      </trkpt>
      <trkpt lat="48.796124" lon="9.845408">
        <ele>431.2</ele>
        <time>2026-08-30T10:48:47Z</time>
      </trkpt>
      <trkpt lat="48.796156" lon="9.845405">
        <ele>431.2</ele>
        <time>2026-08-30T10:48:48Z</time>
      </trkpt>
      <trkpt lat="48.796188" lon="9.845409">
        <ele>431</ele>
        <time>2026-08-30T10:48:49Z</time>
      </trkpt>
      <trkpt lat="48.796216" lon="9.845430">
        <ele>431</ele>
        <time>2026-08-30T10:48:50Z</time>
      </trkpt>
      <trkpt lat="48.796240" lon="9.845469">
        <ele>431</ele>
        <time>2026-08-30T10:48:51Z</time>
      </trkpt>
      <trkpt lat="48.796251" lon="9.845521">
        <ele>431</ele>
        <time>2026-08-30T10:48:52Z</time>
      </trkpt>
      <trkpt lat="48.796254" lon="9.845579">
        <ele>431</ele>
        <time>2026-08-30T10:48:53Z</time>
      </trkpt>
      <trkpt lat="48.796254" lon="9.845638">
        <ele>431</ele>
        <time>2026-08-30T10:48:54Z</time>
      </trkpt>
      <trkpt lat="48.796255" lon="9.845702">
        <ele>430.8</ele>
        <time>2026-08-30T10:48:55Z</time>
      </trkpt>
      <trkpt lat="48.796259" lon="9.845763">
        <ele>430.8</ele>
        <time>2026-08-30T10:48:56Z</time>
      </trkpt>
      <trkpt lat="48.796262" lon="9.845821">
        <ele>431</ele>
        <time>2026-08-30T10:48:57Z</time>
      </trkpt>
      <trkpt lat="48.796267" lon="9.845879">
        <ele>431</ele>
        <time>2026-08-30T10:48:58Z</time>
      </trkpt>
      <trkpt lat="48.796273" lon="9.845938">
        <ele>431</ele>
        <time>2026-08-30T10:48:59Z</time>
      </trkpt>
      <trkpt lat="48.796283" lon="9.845999">
        <ele>431</ele>
        <time>2026-08-30T10:49:00Z</time>
      </trkpt>
      <trkpt lat="48.796289" lon="9.846060">
        <ele>431</ele>
        <time>2026-08-30T10:49:01Z</time>
      </trkpt>
      <trkpt lat="48.796297" lon="9.846121">
        <ele>431</ele>
        <time>2026-08-30T10:49:02Z</time>
      </trkpt>
      <trkpt lat="48.796306" lon="9.846179">
        <ele>431.2</ele>
        <time>2026-08-30T10:49:03Z</time>
      </trkpt>
      <trkpt lat="48.796319" lon="9.846232">
        <ele>431.2</ele>
        <time>2026-08-30T10:49:04Z</time>
      </trkpt>
      <trkpt lat="48.796335" lon="9.846287">
        <ele>431.2</ele>
        <time>2026-08-30T10:49:05Z</time>
      </trkpt>
      <trkpt lat="48.796351" lon="9.846342">
        <ele>431.2</ele>
        <time>2026-08-30T10:49:06Z</time>
      </trkpt>
      <trkpt lat="48.796365" lon="9.846398">
        <ele>431.2</ele>
        <time>2026-08-30T10:49:07Z</time>
      </trkpt>
      <trkpt lat="48.796376" lon="9.846454">
        <ele>431.2</ele>
        <time>2026-08-30T10:49:08Z</time>
      </trkpt>
      <trkpt lat="48.796387" lon="9.846508">
        <ele>431.4</ele>
        <time>2026-08-30T10:49:09Z</time>
      </trkpt>
      <trkpt lat="48.796401" lon="9.846562">
        <ele>431.4</ele>
        <time>2026-08-30T10:49:10Z</time>
      </trkpt>
      <trkpt lat="48.796415" lon="9.846615">
        <ele>431.6</ele>
        <time>2026-08-30T10:49:11Z</time>
      </trkpt>
      <trkpt lat="48.796431" lon="9.846669">
        <ele>431.6</ele>
        <time>2026-08-30T10:49:12Z</time>
      </trkpt>
      <trkpt lat="48.796439" lon="9.846719">
        <ele>431.6</ele>
        <time>2026-08-30T10:49:13Z</time>
      </trkpt>
      <trkpt lat="48.796443" lon="9.846772">
        <ele>431.6</ele>
        <time>2026-08-30T10:49:14Z</time>
      </trkpt>
      <trkpt lat="48.796450" lon="9.846826">
        <ele>431.8</ele>
        <time>2026-08-30T10:49:15Z</time>
      </trkpt>
      <trkpt lat="48.796461" lon="9.846876">
        <ele>431.8</ele>
        <time>2026-08-30T10:49:16Z</time>
      </trkpt>
      <trkpt lat="48.796475" lon="9.846927">
        <ele>431.8</ele>
        <time>2026-08-30T10:49:17Z</time>
      </trkpt>
      <trkpt lat="48.796491" lon="9.846978">
        <ele>431.8</ele>
        <time>2026-08-30T10:49:18Z</time>
      </trkpt>
      <trkpt lat="48.796505" lon="9.847035">
        <ele>432</ele>
        <time>2026-08-30T10:49:19Z</time>
      </trkpt>
      <trkpt lat="48.796517" lon="9.847093">
        <ele>432</ele>
        <time>2026-08-30T10:49:20Z</time>
      </trkpt>
      <trkpt lat="48.796531" lon="9.847151">
        <ele>432</ele>
        <time>2026-08-30T10:49:21Z</time>
      </trkpt>
      <trkpt lat="48.796547" lon="9.847209">
        <ele>432</ele>
        <time>2026-08-30T10:49:22Z</time>
      </trkpt>
      <trkpt lat="48.796567" lon="9.847264">
        <ele>432.2</ele>
        <time>2026-08-30T10:49:23Z</time>
      </trkpt>
      <trkpt lat="48.796586" lon="9.847315">
        <ele>432.2</ele>
        <time>2026-08-30T10:49:24Z</time>
      </trkpt>
      <trkpt lat="48.796603" lon="9.847367">
        <ele>432.2</ele>
        <time>2026-08-30T10:49:25Z</time>
      </trkpt>
      <trkpt lat="48.796619" lon="9.847426">
        <ele>432.4</ele>
        <time>2026-08-30T10:49:26Z</time>
      </trkpt>
      <trkpt lat="48.796632" lon="9.847486">
        <ele>432.4</ele>
        <time>2026-08-30T10:49:27Z</time>
      </trkpt>
      <trkpt lat="48.796648" lon="9.847546">
        <ele>432.4</ele>
        <time>2026-08-30T10:49:28Z</time>
      </trkpt>
      <trkpt lat="48.796664" lon="9.847603">
        <ele>432.4</ele>
        <time>2026-08-30T10:49:29Z</time>
      </trkpt>
      <trkpt lat="48.796680" lon="9.847664">
        <ele>432.4</ele>
        <time>2026-08-30T10:49:30Z</time>
      </trkpt>
      <trkpt lat="48.796695" lon="9.847726">
        <ele>432.6</ele>
        <time>2026-08-30T10:49:31Z</time>
      </trkpt>
      <trkpt lat="48.796709" lon="9.847787">
        <ele>432.6</ele>
        <time>2026-08-30T10:49:32Z</time>
      </trkpt>
      <trkpt lat="48.796727" lon="9.847848">
        <ele>432.6</ele>
        <time>2026-08-30T10:49:33Z</time>
      </trkpt>
      <trkpt lat="48.796743" lon="9.847908">
        <ele>432.6</ele>
        <time>2026-08-30T10:49:34Z</time>
      </trkpt>
      <trkpt lat="48.796761" lon="9.847964">
        <ele>432.8</ele>
        <time>2026-08-30T10:49:35Z</time>
      </trkpt>
      <trkpt lat="48.796777" lon="9.848017">
        <ele>432.8</ele>
        <time>2026-08-30T10:49:36Z</time>
      </trkpt>
      <trkpt lat="48.796795" lon="9.848074">
        <ele>432.8</ele>
        <time>2026-08-30T10:49:37Z</time>
      </trkpt>
      <trkpt lat="48.796813" lon="9.848132">
        <ele>433</ele>
        <time>2026-08-30T10:49:38Z</time>
      </trkpt>
      <trkpt lat="48.796829" lon="9.848188">
        <ele>433</ele>
        <time>2026-08-30T10:49:39Z</time>
      </trkpt>
      <trkpt lat="48.796845" lon="9.848247">
        <ele>433</ele>
        <time>2026-08-30T10:49:40Z</time>
      </trkpt>
      <trkpt lat="48.796861" lon="9.848303">
        <ele>433.2</ele>
        <time>2026-08-30T10:49:41Z</time>
      </trkpt>
      <trkpt lat="48.796878" lon="9.848361">
        <ele>433.2</ele>
        <time>2026-08-30T10:49:42Z</time>
      </trkpt>
      <trkpt lat="48.796891" lon="9.848418">
        <ele>433.2</ele>
        <time>2026-08-30T10:49:43Z</time>
      </trkpt>
      <trkpt lat="48.796904" lon="9.848476">
        <ele>433.4</ele>
        <time>2026-08-30T10:49:44Z</time>
      </trkpt>
      <trkpt lat="48.796919" lon="9.848532">
        <ele>433.4</ele>
        <time>2026-08-30T10:49:45Z</time>
      </trkpt>
      <trkpt lat="48.796935" lon="9.848590">
        <ele>433.4</ele>
        <time>2026-08-30T10:49:46Z</time>
      </trkpt>
      <trkpt lat="48.796950" lon="9.848650">
        <ele>433.6</ele>
        <time>2026-08-30T10:49:47Z</time>
      </trkpt>
      <trkpt lat="48.796963" lon="9.848712">
        <ele>433.6</ele>
        <time>2026-08-30T10:49:48Z</time>
      </trkpt>
      <trkpt lat="48.796977" lon="9.848772">
        <ele>433.6</ele>
        <time>2026-08-30T10:49:49Z</time>
      </trkpt>
      <trkpt lat="48.796991" lon="9.848830">
        <ele>433.6</ele>
        <time>2026-08-30T10:49:50Z</time>
      </trkpt>
      <trkpt lat="48.797006" lon="9.848884">
        <ele>433.8</ele>
        <time>2026-08-30T10:49:51Z</time>
      </trkpt>
      <trkpt lat="48.797020" lon="9.848942">
        <ele>433.8</ele>
        <time>2026-08-30T10:49:52Z</time>
      </trkpt>
      <trkpt lat="48.797030" lon="9.849002">
        <ele>433.8</ele>
        <time>2026-08-30T10:49:53Z</time>
      </trkpt>
      <trkpt lat="48.797041" lon="9.849063">
        <ele>434</ele>
        <time>2026-08-30T10:49:54Z</time>
      </trkpt>
      <trkpt lat="48.797057" lon="9.849120">
        <ele>434</ele>
        <time>2026-08-30T10:49:55Z</time>
      </trkpt>
      <trkpt lat="48.797070" lon="9.849172">
        <ele>434.2</ele>
        <time>2026-08-30T10:49:56Z</time>
      </trkpt>
      <trkpt lat="48.797082" lon="9.849227">
        <ele>434.2</ele>
        <time>2026-08-30T10:49:57Z</time>
      </trkpt>
      <trkpt lat="48.797098" lon="9.849283">
        <ele>434.4</ele>
        <time>2026-08-30T10:49:58Z</time>
      </trkpt>
      <trkpt lat="48.797107" lon="9.849339">
        <ele>434.4</ele>
        <time>2026-08-30T10:49:59Z</time>
      </trkpt>
      <trkpt lat="48.797116" lon="9.849396">
        <ele>434.6</ele>
        <time>2026-08-30T10:50:00Z</time>
      </trkpt>
      <trkpt lat="48.797129" lon="9.849450">
        <ele>434.6</ele>
        <time>2026-08-30T10:50:01Z</time>
      </trkpt>
      <trkpt lat="48.797142" lon="9.849506">
        <ele>434.8</ele>
        <time>2026-08-30T10:50:02Z</time>
      </trkpt>
      <trkpt lat="48.797156" lon="9.849562">
        <ele>434.8</ele>
        <time>2026-08-30T10:50:03Z</time>
      </trkpt>
      <trkpt lat="48.797169" lon="9.849618">
        <ele>435</ele>
        <time>2026-08-30T10:50:04Z</time>
      </trkpt>
      <trkpt lat="48.797181" lon="9.849673">
        <ele>435</ele>
        <time>2026-08-30T10:50:05Z</time>
      </trkpt>
      <trkpt lat="48.797193" lon="9.849729">
        <ele>435</ele>
        <time>2026-08-30T10:50:06Z</time>
      </trkpt>
      <trkpt lat="48.797201" lon="9.849787">
        <ele>435.2</ele>
        <time>2026-08-30T10:50:07Z</time>
      </trkpt>
      <trkpt lat="48.797212" lon="9.849848">
        <ele>435.2</ele>
        <time>2026-08-30T10:50:08Z</time>
      </trkpt>
      <trkpt lat="48.797222" lon="9.849909">
        <ele>435.2</ele>
        <time>2026-08-30T10:50:09Z</time>
      </trkpt>
      <trkpt lat="48.797232" lon="9.849969">
        <ele>435.2</ele>
        <time>2026-08-30T10:50:10Z</time>
      </trkpt>
      <trkpt lat="48.797241" lon="9.850032">
        <ele>435.4</ele>
        <time>2026-08-30T10:50:11Z</time>
      </trkpt>
      <trkpt lat="48.797249" lon="9.850095">
        <ele>435.4</ele>
        <time>2026-08-30T10:50:12Z</time>
      </trkpt>
      <trkpt lat="48.797258" lon="9.850159">
        <ele>435.4</ele>
        <time>2026-08-30T10:50:13Z</time>
      </trkpt>
      <trkpt lat="48.797267" lon="9.850222">
        <ele>435.4</ele>
        <time>2026-08-30T10:50:14Z</time>
      </trkpt>
      <trkpt lat="48.797281" lon="9.850285">
        <ele>435.4</ele>
        <time>2026-08-30T10:50:15Z</time>
      </trkpt>
      <trkpt lat="48.797288" lon="9.850351">
        <ele>435.4</ele>
        <time>2026-08-30T10:50:16Z</time>
      </trkpt>
      <trkpt lat="48.797290" lon="9.850420">
        <ele>435.4</ele>
        <time>2026-08-30T10:50:17Z</time>
      </trkpt>
      <trkpt lat="48.797294" lon="9.850490">
        <ele>435.4</ele>
        <time>2026-08-30T10:50:18Z</time>
      </trkpt>
      <trkpt lat="48.797302" lon="9.850561">
        <ele>435.4</ele>
        <time>2026-08-30T10:50:19Z</time>
      </trkpt>
      <trkpt lat="48.797313" lon="9.850633">
        <ele>435.4</ele>
        <time>2026-08-30T10:50:20Z</time>
      </trkpt>
      <trkpt lat="48.797326" lon="9.850701">
        <ele>435.4</ele>
        <time>2026-08-30T10:50:21Z</time>
      </trkpt>
      <trkpt lat="48.797334" lon="9.850763">
        <ele>435.2</ele>
        <time>2026-08-30T10:50:22Z</time>
      </trkpt>
      <trkpt lat="48.797341" lon="9.850828">
        <ele>435.2</ele>
        <time>2026-08-30T10:50:23Z</time>
      </trkpt>
      <trkpt lat="48.797347" lon="9.850894">
        <ele>435.2</ele>
        <time>2026-08-30T10:50:24Z</time>
      </trkpt>
      <trkpt lat="48.797354" lon="9.850965">
        <ele>435.2</ele>
        <time>2026-08-30T10:50:25Z</time>
      </trkpt>
      <trkpt lat="48.797362" lon="9.851032">
        <ele>435</ele>
        <time>2026-08-30T10:50:26Z</time>
      </trkpt>
      <trkpt lat="48.797369" lon="9.851098">
        <ele>435</ele>
        <time>2026-08-30T10:50:27Z</time>
      </trkpt>
      <trkpt lat="48.797377" lon="9.851165">
        <ele>435</ele>
        <time>2026-08-30T10:50:28Z</time>
      </trkpt>
      <trkpt lat="48.797387" lon="9.851235">
        <ele>434.8</ele>
        <time>2026-08-30T10:50:29Z</time>
      </trkpt>
      <trkpt lat="48.797396" lon="9.851304">
        <ele>434.8</ele>
        <time>2026-08-30T10:50:30Z</time>
      </trkpt>
      <trkpt lat="48.797401" lon="9.851373">
        <ele>434.8</ele>
        <time>2026-08-30T10:50:31Z</time>
      </trkpt>
      <trkpt lat="48.797408" lon="9.851440">
        <ele>434.8</ele>
        <time>2026-08-30T10:50:32Z</time>
      </trkpt>
      <trkpt lat="48.797417" lon="9.851508">
        <ele>434.6</ele>
        <time>2026-08-30T10:50:33Z</time>
      </trkpt>
      <trkpt lat="48.797425" lon="9.851577">
        <ele>434.6</ele>
        <time>2026-08-30T10:50:34Z</time>
      </trkpt>
      <trkpt lat="48.797430" lon="9.851646">
        <ele>434.6</ele>
        <time>2026-08-30T10:50:35Z</time>
      </trkpt>
      <trkpt lat="48.797433" lon="9.851715">
        <ele>434.6</ele>
        <time>2026-08-30T10:50:36Z</time>
      </trkpt>
      <trkpt lat="48.797438" lon="9.851786">
        <ele>434.4</ele>
        <time>2026-08-30T10:50:37Z</time>
      </trkpt>
      <trkpt lat="48.797441" lon="9.851855">
        <ele>434.4</ele>
        <time>2026-08-30T10:50:38Z</time>
      </trkpt>
      <trkpt lat="48.797446" lon="9.851925">
        <ele>434.2</ele>
        <time>2026-08-30T10:50:39Z</time>
      </trkpt>
      <trkpt lat="48.797452" lon="9.851993">
        <ele>434.2</ele>
        <time>2026-08-30T10:50:40Z</time>
      </trkpt>
      <trkpt lat="48.797453" lon="9.852062">
        <ele>434.2</ele>
        <time>2026-08-30T10:50:41Z</time>
      </trkpt>
      <trkpt lat="48.797458" lon="9.852133">
        <ele>434</ele>
        <time>2026-08-30T10:50:42Z</time>
      </trkpt>
      <trkpt lat="48.797467" lon="9.852205">
        <ele>434</ele>
        <time>2026-08-30T10:50:43Z</time>
      </trkpt>
      <trkpt lat="48.797473" lon="9.852278">
        <ele>433.8</ele>
        <time>2026-08-30T10:50:44Z</time>
      </trkpt>
      <trkpt lat="48.797478" lon="9.852352">
        <ele>433.8</ele>
        <time>2026-08-30T10:50:45Z</time>
      </trkpt>
      <trkpt lat="48.797481" lon="9.852430">
        <ele>433.6</ele>
        <time>2026-08-30T10:50:46Z</time>
      </trkpt>
      <trkpt lat="48.797488" lon="9.852509">
        <ele>433.6</ele>
        <time>2026-08-30T10:50:47Z</time>
      </trkpt>
      <trkpt lat="48.797494" lon="9.852588">
        <ele>433.4</ele>
        <time>2026-08-30T10:50:48Z</time>
      </trkpt>
      <trkpt lat="48.797496" lon="9.852666">
        <ele>433.2</ele>
        <time>2026-08-30T10:50:49Z</time>
      </trkpt>
      <trkpt lat="48.797497" lon="9.852747">
        <ele>433.2</ele>
        <time>2026-08-30T10:50:50Z</time>
      </trkpt>
      <trkpt lat="48.797496" lon="9.852829">
        <ele>433</ele>
        <time>2026-08-30T10:50:51Z</time>
      </trkpt>
      <trkpt lat="48.797496" lon="9.852911">
        <ele>433</ele>
        <time>2026-08-30T10:50:52Z</time>
      </trkpt>
      <trkpt lat="48.797497" lon="9.852994">
        <ele>432.8</ele>
        <time>2026-08-30T10:50:53Z</time>
      </trkpt>
      <trkpt lat="48.797497" lon="9.853079">
        <ele>432.6</ele>
        <time>2026-08-30T10:50:54Z</time>
      </trkpt>
      <trkpt lat="48.797496" lon="9.853164">
        <ele>432.6</ele>
        <time>2026-08-30T10:50:55Z</time>
      </trkpt>
      <trkpt lat="48.797497" lon="9.853248">
        <ele>432.4</ele>
        <time>2026-08-30T10:50:56Z</time>
      </trkpt>
      <trkpt lat="48.797496" lon="9.853328">
        <ele>432.2</ele>
        <time>2026-08-30T10:50:57Z</time>
      </trkpt>
      <trkpt lat="48.797496" lon="9.853414">
        <ele>432</ele>
        <time>2026-08-30T10:50:58Z</time>
      </trkpt>
      <trkpt lat="48.797494" lon="9.853492">
        <ele>431.8</ele>
        <time>2026-08-30T10:50:59Z</time>
      </trkpt>
      <trkpt lat="48.797491" lon="9.853569">
        <ele>431.6</ele>
        <time>2026-08-30T10:51:00Z</time>
      </trkpt>
      <trkpt lat="48.797486" lon="9.853649">
        <ele>431.4</ele>
        <time>2026-08-30T10:51:01Z</time>
      </trkpt>
      <trkpt lat="48.797479" lon="9.853725">
        <ele>431.2</ele>
        <time>2026-08-30T10:51:02Z</time>
      </trkpt>
      <trkpt lat="48.797473" lon="9.853803">
        <ele>431.2</ele>
        <time>2026-08-30T10:51:03Z</time>
      </trkpt>
      <trkpt lat="48.797462" lon="9.853882">
        <ele>431</ele>
        <time>2026-08-30T10:51:04Z</time>
      </trkpt>
      <trkpt lat="48.797455" lon="9.853963">
        <ele>431</ele>
        <time>2026-08-30T10:51:05Z</time>
      </trkpt>
      <trkpt lat="48.797447" lon="9.854047">
        <ele>430.8</ele>
        <time>2026-08-30T10:51:06Z</time>
      </trkpt>
      <trkpt lat="48.797436" lon="9.854131">
        <ele>430.8</ele>
        <time>2026-08-30T10:51:07Z</time>
      </trkpt>
      <trkpt lat="48.797424" lon="9.854215">
        <ele>430.6</ele>
        <time>2026-08-30T10:51:08Z</time>
      </trkpt>
      <trkpt lat="48.797411" lon="9.854300">
        <ele>430.4</ele>
        <time>2026-08-30T10:51:09Z</time>
      </trkpt>
      <trkpt lat="48.797400" lon="9.854387">
        <ele>430.4</ele>
        <time>2026-08-30T10:51:10Z</time>
      </trkpt>
      <trkpt lat="48.797390" lon="9.854477">
        <ele>430.2</ele>
        <time>2026-08-30T10:51:11Z</time>
      </trkpt>
      <trkpt lat="48.797381" lon="9.854562">
        <ele>430.2</ele>
        <time>2026-08-30T10:51:12Z</time>
      </trkpt>
      <trkpt lat="48.797369" lon="9.854646">
        <ele>430</ele>
        <time>2026-08-30T10:51:13Z</time>
      </trkpt>
      <trkpt lat="48.797357" lon="9.854730">
        <ele>430</ele>
        <time>2026-08-30T10:51:14Z</time>
      </trkpt>
      <trkpt lat="48.797348" lon="9.854815">
        <ele>429.8</ele>
        <time>2026-08-30T10:51:15Z</time>
      </trkpt>
      <trkpt lat="48.797333" lon="9.854898">
        <ele>429.8</ele>
        <time>2026-08-30T10:51:16Z</time>
      </trkpt>
      <trkpt lat="48.797318" lon="9.854975">
        <ele>429.8</ele>
        <time>2026-08-30T10:51:17Z</time>
      </trkpt>
      <trkpt lat="48.797301" lon="9.855055">
        <ele>429.6</ele>
        <time>2026-08-30T10:51:18Z</time>
      </trkpt>
      <trkpt lat="48.797282" lon="9.855130">
        <ele>429.6</ele>
        <time>2026-08-30T10:51:19Z</time>
      </trkpt>
      <trkpt lat="48.797262" lon="9.855200">
        <ele>429.6</ele>
        <time>2026-08-30T10:51:20Z</time>
      </trkpt>
      <trkpt lat="48.797240" lon="9.855271">
        <ele>429.6</ele>
        <time>2026-08-30T10:51:21Z</time>
      </trkpt>
      <trkpt lat="48.797222" lon="9.855346">
        <ele>429.6</ele>
        <time>2026-08-30T10:51:22Z</time>
      </trkpt>
      <trkpt lat="48.797204" lon="9.855420">
        <ele>429.6</ele>
        <time>2026-08-30T10:51:23Z</time>
      </trkpt>
      <trkpt lat="48.797187" lon="9.855492">
        <ele>429.6</ele>
        <time>2026-08-30T10:51:24Z</time>
      </trkpt>
      <trkpt lat="48.797169" lon="9.855564">
        <ele>429.8</ele>
        <time>2026-08-30T10:51:25Z</time>
      </trkpt>
      <trkpt lat="48.797159" lon="9.855637">
        <ele>429.8</ele>
        <time>2026-08-30T10:51:26Z</time>
      </trkpt>
      <trkpt lat="48.797154" lon="9.855714">
        <ele>429.8</ele>
        <time>2026-08-30T10:51:27Z</time>
      </trkpt>
      <trkpt lat="48.797156" lon="9.855794">
        <ele>429.8</ele>
        <time>2026-08-30T10:51:28Z</time>
      </trkpt>
      <trkpt lat="48.797160" lon="9.855876">
        <ele>429.8</ele>
        <time>2026-08-30T10:51:29Z</time>
      </trkpt>
      <trkpt lat="48.797172" lon="9.855955">
        <ele>429.6</ele>
        <time>2026-08-30T10:51:30Z</time>
      </trkpt>
      <trkpt lat="48.797187" lon="9.856021">
        <ele>429.6</ele>
        <time>2026-08-30T10:51:31Z</time>
      </trkpt>
      <trkpt lat="48.797189" lon="9.856077">
        <ele>429.6</ele>
        <time>2026-08-30T10:51:32Z</time>
      </trkpt>
      <trkpt lat="48.797180" lon="9.856134">
        <ele>429.6</ele>
        <time>2026-08-30T10:51:33Z</time>
      </trkpt>
      <trkpt lat="48.797163" lon="9.856192">
        <ele>429.8</ele>
        <time>2026-08-30T10:51:34Z</time>
      </trkpt>
      <trkpt lat="48.797133" lon="9.856241">
        <ele>429.8</ele>
        <time>2026-08-30T10:51:35Z</time>
      </trkpt>
      <trkpt lat="48.797095" lon="9.856281">
        <ele>429.8</ele>
        <time>2026-08-30T10:51:36Z</time>
      </trkpt>
      <trkpt lat="48.797058" lon="9.856325">
        <ele>429.6</ele>
        <time>2026-08-30T10:51:37Z</time>
      </trkpt>
      <trkpt lat="48.797031" lon="9.856378">
        <ele>429.6</ele>
        <time>2026-08-30T10:51:38Z</time>
      </trkpt>
      <trkpt lat="48.797009" lon="9.856436">
        <ele>429.8</ele>
        <time>2026-08-30T10:51:39Z</time>
      </trkpt>
      <trkpt lat="48.796989" lon="9.856489">
        <ele>429.8</ele>
        <time>2026-08-30T10:51:40Z</time>
      </trkpt>
      <trkpt lat="48.796965" lon="9.856534">
        <ele>429.8</ele>
        <time>2026-08-30T10:51:41Z</time>
      </trkpt>
      <trkpt lat="48.796942" lon="9.856580">
        <ele>430</ele>
        <time>2026-08-30T10:51:42Z</time>
      </trkpt>
      <trkpt lat="48.796917" lon="9.856625">
        <ele>430.2</ele>
        <time>2026-08-30T10:51:43Z</time>
      </trkpt>
      <trkpt lat="48.796896" lon="9.856674">
        <ele>430.2</ele>
        <time>2026-08-30T10:51:44Z</time>
      </trkpt>
      <trkpt lat="48.796876" lon="9.856722">
        <ele>430.4</ele>
        <time>2026-08-30T10:51:45Z</time>
      </trkpt>
      <trkpt lat="48.796854" lon="9.856771">
        <ele>430.6</ele>
        <time>2026-08-30T10:51:46Z</time>
      </trkpt>
      <trkpt lat="48.796834" lon="9.856822">
        <ele>430.8</ele>
        <time>2026-08-30T10:51:47Z</time>
      </trkpt>
      <trkpt lat="48.796815" lon="9.856871">
        <ele>431</ele>
        <time>2026-08-30T10:51:48Z</time>
      </trkpt>
      <trkpt lat="48.796799" lon="9.856923">
        <ele>431.2</ele>
        <time>2026-08-30T10:51:49Z</time>
      </trkpt>
      <trkpt lat="48.796781" lon="9.856969">
        <ele>431.4</ele>
        <time>2026-08-30T10:51:50Z</time>
      </trkpt>
      <trkpt lat="48.796765" lon="9.857018">
        <ele>431.6</ele>
        <time>2026-08-30T10:51:51Z</time>
      </trkpt>
      <trkpt lat="48.796752" lon="9.857068">
        <ele>431.8</ele>
        <time>2026-08-30T10:51:52Z</time>
      </trkpt>
      <trkpt lat="48.796742" lon="9.857114">
        <ele>432</ele>
        <time>2026-08-30T10:51:53Z</time>
      </trkpt>
      <trkpt lat="48.796727" lon="9.857164">
        <ele>432.2</ele>
        <time>2026-08-30T10:51:54Z</time>
      </trkpt>
      <trkpt lat="48.796708" lon="9.857206">
        <ele>432.4</ele>
        <time>2026-08-30T10:51:55Z</time>
      </trkpt>
      <trkpt lat="48.796687" lon="9.857251">
        <ele>432.6</ele>
        <time>2026-08-30T10:51:56Z</time>
      </trkpt>
      <trkpt lat="48.796660" lon="9.857297">
        <ele>432.6</ele>
        <time>2026-08-30T10:51:57Z</time>
      </trkpt>
      <trkpt lat="48.796633" lon="9.857340">
        <ele>432.8</ele>
        <time>2026-08-30T10:51:58Z</time>
      </trkpt>
      <trkpt lat="48.796603" lon="9.857375">
        <ele>432.8</ele>
        <time>2026-08-30T10:51:59Z</time>
      </trkpt>
      <trkpt lat="48.796575" lon="9.857400">
        <ele>433</ele>
        <time>2026-08-30T10:52:00Z</time>
      </trkpt>
      <trkpt lat="48.796551" lon="9.857414">
        <ele>433</ele>
        <time>2026-08-30T10:52:01Z</time>
      </trkpt>
      <trkpt lat="48.796528" lon="9.857441">
        <ele>433.2</ele>
        <time>2026-08-30T10:52:02Z</time>
      </trkpt>
      <trkpt lat="48.796511" lon="9.857469">
        <ele>433.4</ele>
        <time>2026-08-30T10:52:03Z</time>
      </trkpt>
      <trkpt lat="48.796491" lon="9.857492">
        <ele>433.6</ele>
        <time>2026-08-30T10:52:04Z</time>
      </trkpt>
      <trkpt lat="48.796474" lon="9.857519">
        <ele>434</ele>
        <time>2026-08-30T10:52:05Z</time>
      </trkpt>
      <trkpt lat="48.796454" lon="9.857549">
        <ele>434.2</ele>
        <time>2026-08-30T10:52:06Z</time>
      </trkpt>
      <trkpt lat="48.796435" lon="9.857575">
        <ele>434.4</ele>
        <time>2026-08-30T10:52:07Z</time>
      </trkpt>
      <trkpt lat="48.796414" lon="9.857602">
        <ele>434.6</ele>
        <time>2026-08-30T10:52:08Z</time>
      </trkpt>
      <trkpt lat="48.796394" lon="9.857631">
        <ele>434.8</ele>
        <time>2026-08-30T10:52:09Z</time>
      </trkpt>
      <trkpt lat="48.796373" lon="9.857660">
        <ele>435</ele>
        <time>2026-08-30T10:52:10Z</time>
      </trkpt>
      <trkpt lat="48.796353" lon="9.857688">
        <ele>435.2</ele>
        <time>2026-08-30T10:52:11Z</time>
      </trkpt>
      <trkpt lat="48.796332" lon="9.857721">
        <ele>435.4</ele>
        <time>2026-08-30T10:52:12Z</time>
      </trkpt>
      <trkpt lat="48.796311" lon="9.857757">
        <ele>435.6</ele>
        <time>2026-08-30T10:52:13Z</time>
      </trkpt>
      <trkpt lat="48.796292" lon="9.857796">
        <ele>435.8</ele>
        <time>2026-08-30T10:52:14Z</time>
      </trkpt>
      <trkpt lat="48.796272" lon="9.857832">
        <ele>436</ele>
        <time>2026-08-30T10:52:15Z</time>
      </trkpt>
      <trkpt lat="48.796250" lon="9.857869">
        <ele>436</ele>
        <time>2026-08-30T10:52:16Z</time>
      </trkpt>
      <trkpt lat="48.796229" lon="9.857903">
        <ele>436.2</ele>
        <time>2026-08-30T10:52:17Z</time>
      </trkpt>
      <trkpt lat="48.796206" lon="9.857940">
        <ele>436.2</ele>
        <time>2026-08-30T10:52:18Z</time>
      </trkpt>
      <trkpt lat="48.796180" lon="9.857974">
        <ele>436.4</ele>
        <time>2026-08-30T10:52:19Z</time>
      </trkpt>
      <trkpt lat="48.796154" lon="9.858004">
        <ele>436.4</ele>
        <time>2026-08-30T10:52:20Z</time>
      </trkpt>
      <trkpt lat="48.796128" lon="9.858037">
        <ele>436.4</ele>
        <time>2026-08-30T10:52:21Z</time>
      </trkpt>
      <trkpt lat="48.796103" lon="9.858073">
        <ele>436.6</ele>
        <time>2026-08-30T10:52:22Z</time>
      </trkpt>
      <trkpt lat="48.796077" lon="9.858110">
        <ele>436.6</ele>
        <time>2026-08-30T10:52:23Z</time>
      </trkpt>
      <trkpt lat="48.796049" lon="9.858143">
        <ele>436.6</ele>
        <time>2026-08-30T10:52:24Z</time>
      </trkpt>
      <trkpt lat="48.796025" lon="9.858178">
        <ele>436.6</ele>
        <time>2026-08-30T10:52:25Z</time>
      </trkpt>
      <trkpt lat="48.795998" lon="9.858212">
        <ele>436.6</ele>
        <time>2026-08-30T10:52:26Z</time>
      </trkpt>
      <trkpt lat="48.795970" lon="9.858237">
        <ele>436.6</ele>
        <time>2026-08-30T10:52:27Z</time>
      </trkpt>
      <trkpt lat="48.795939" lon="9.858264">
        <ele>436.6</ele>
        <time>2026-08-30T10:52:28Z</time>
      </trkpt>
      <trkpt lat="48.795908" lon="9.858297">
        <ele>436.6</ele>
        <time>2026-08-30T10:52:29Z</time>
      </trkpt>
      <trkpt lat="48.795878" lon="9.858332">
        <ele>436.4</ele>
        <time>2026-08-30T10:52:30Z</time>
      </trkpt>
      <trkpt lat="48.795850" lon="9.858367">
        <ele>436.4</ele>
        <time>2026-08-30T10:52:31Z</time>
      </trkpt>
      <trkpt lat="48.795818" lon="9.858399">
        <ele>436.4</ele>
        <time>2026-08-30T10:52:32Z</time>
      </trkpt>
      <trkpt lat="48.795783" lon="9.858428">
        <ele>436.2</ele>
        <time>2026-08-30T10:52:33Z</time>
      </trkpt>
      <trkpt lat="48.795748" lon="9.858456">
        <ele>436.2</ele>
        <time>2026-08-30T10:52:34Z</time>
      </trkpt>
      <trkpt lat="48.795717" lon="9.858491">
        <ele>436.2</ele>
        <time>2026-08-30T10:52:35Z</time>
      </trkpt>
      <trkpt lat="48.795681" lon="9.858521">
        <ele>436</ele>
        <time>2026-08-30T10:52:36Z</time>
      </trkpt>
      <trkpt lat="48.795645" lon="9.858554">
        <ele>435.8</ele>
        <time>2026-08-30T10:52:37Z</time>
      </trkpt>
      <trkpt lat="48.795610" lon="9.858593">
        <ele>435.8</ele>
        <time>2026-08-30T10:52:38Z</time>
      </trkpt>
      <trkpt lat="48.795570" lon="9.858624">
        <ele>435.6</ele>
        <time>2026-08-30T10:52:39Z</time>
      </trkpt>
      <trkpt lat="48.795530" lon="9.858662">
        <ele>435.4</ele>
        <time>2026-08-30T10:52:40Z</time>
      </trkpt>
      <trkpt lat="48.795487" lon="9.858695">
        <ele>435.2</ele>
        <time>2026-08-30T10:52:41Z</time>
      </trkpt>
      <trkpt lat="48.795442" lon="9.858728">
        <ele>435</ele>
        <time>2026-08-30T10:52:42Z</time>
      </trkpt>
      <trkpt lat="48.795393" lon="9.858761">
        <ele>434.8</ele>
        <time>2026-08-30T10:52:43Z</time>
      </trkpt>
      <trkpt lat="48.795341" lon="9.858791">
        <ele>434.6</ele>
        <time>2026-08-30T10:52:44Z</time>
      </trkpt>
      <trkpt lat="48.795286" lon="9.858827">
        <ele>434.4</ele>
        <time>2026-08-30T10:52:45Z</time>
      </trkpt>
      <trkpt lat="48.795226" lon="9.858868">
        <ele>434</ele>
        <time>2026-08-30T10:52:46Z</time>
      </trkpt>
      <trkpt lat="48.795166" lon="9.858906">
        <ele>433.8</ele>
        <time>2026-08-30T10:52:47Z</time>
      </trkpt>
      <trkpt lat="48.795104" lon="9.858948">
        <ele>433.4</ele>
        <time>2026-08-30T10:52:48Z</time>
      </trkpt>
      <trkpt lat="48.795039" lon="9.858987">
        <ele>433</ele>
        <time>2026-08-30T10:52:49Z</time>
      </trkpt>
      <trkpt lat="48.794975" lon="9.859022">
        <ele>432.6</ele>
        <time>2026-08-30T10:52:50Z</time>
      </trkpt>
      <trkpt lat="48.794910" lon="9.859053">
        <ele>432.2</ele>
        <time>2026-08-30T10:52:51Z</time>
      </trkpt>
      <trkpt lat="48.794848" lon="9.859084">
        <ele>431.8</ele>
        <time>2026-08-30T10:52:52Z</time>
      </trkpt>
      <trkpt lat="48.794784" lon="9.859113">
        <ele>431.6</ele>
        <time>2026-08-30T10:52:53Z</time>
      </trkpt>
      <trkpt lat="48.794716" lon="9.859146">
        <ele>431.2</ele>
        <time>2026-08-30T10:52:54Z</time>
      </trkpt>
      <trkpt lat="48.794649" lon="9.859177">
        <ele>431</ele>
        <time>2026-08-30T10:52:55Z</time>
      </trkpt>
      <trkpt lat="48.794584" lon="9.859205">
        <ele>430.6</ele>
        <time>2026-08-30T10:52:56Z</time>
      </trkpt>
      <trkpt lat="48.794516" lon="9.859232">
        <ele>430.4</ele>
        <time>2026-08-30T10:52:57Z</time>
      </trkpt>
      <trkpt lat="48.794449" lon="9.859258">
        <ele>430</ele>
        <time>2026-08-30T10:52:58Z</time>
      </trkpt>
      <trkpt lat="48.794380" lon="9.859281">
        <ele>429.8</ele>
        <time>2026-08-30T10:52:59Z</time>
      </trkpt>
      <trkpt lat="48.794309" lon="9.859307">
        <ele>429.6</ele>
        <time>2026-08-30T10:53:00Z</time>
      </trkpt>
      <trkpt lat="48.794238" lon="9.859337">
        <ele>429.2</ele>
        <time>2026-08-30T10:53:01Z</time>
      </trkpt>
      <trkpt lat="48.794167" lon="9.859368">
        <ele>428.8</ele>
        <time>2026-08-30T10:53:02Z</time>
      </trkpt>
      <trkpt lat="48.794107" lon="9.859394">
        <ele>428.6</ele>
        <time>2026-08-30T10:53:03Z</time>
      </trkpt>
      <trkpt lat="48.794054" lon="9.859418">
        <ele>428.2</ele>
        <time>2026-08-30T10:53:04Z</time>
      </trkpt>
      <trkpt lat="48.794004" lon="9.859439">
        <ele>427.8</ele>
        <time>2026-08-30T10:53:05Z</time>
      </trkpt>
      <trkpt lat="48.793953" lon="9.859460">
        <ele>427.6</ele>
        <time>2026-08-30T10:53:06Z</time>
      </trkpt>
      <trkpt lat="48.793894" lon="9.859481">
        <ele>427.2</ele>
        <time>2026-08-30T10:53:07Z</time>
      </trkpt>
      <trkpt lat="48.793840" lon="9.859503">
        <ele>427</ele>
        <time>2026-08-30T10:53:08Z</time>
      </trkpt>
      <trkpt lat="48.793786" lon="9.859523">
        <ele>426.8</ele>
        <time>2026-08-30T10:53:09Z</time>
      </trkpt>
      <trkpt lat="48.793733" lon="9.859548">
        <ele>426.6</ele>
        <time>2026-08-30T10:53:10Z</time>
      </trkpt>
      <trkpt lat="48.793684" lon="9.859573">
        <ele>426.4</ele>
        <time>2026-08-30T10:53:11Z</time>
      </trkpt>
      <trkpt lat="48.793635" lon="9.859597">
        <ele>426.2</ele>
        <time>2026-08-30T10:53:12Z</time>
      </trkpt>
      <trkpt lat="48.793594" lon="9.859618">
        <ele>426</ele>
        <time>2026-08-30T10:53:13Z</time>
      </trkpt>
      <trkpt lat="48.793564" lon="9.859655">
        <ele>425.8</ele>
        <time>2026-08-30T10:53:14Z</time>
      </trkpt>
      <trkpt lat="48.793536" lon="9.859706">
        <ele>425.6</ele>
        <time>2026-08-30T10:53:15Z</time>
      </trkpt>
      <trkpt lat="48.793507" lon="9.859759">
        <ele>425.4</ele>
        <time>2026-08-30T10:53:16Z</time>
      </trkpt>
      <trkpt lat="48.793473" lon="9.859802">
        <ele>425</ele>
        <time>2026-08-30T10:53:17Z</time>
      </trkpt>
      <trkpt lat="48.793433" lon="9.859845">
        <ele>424.8</ele>
        <time>2026-08-30T10:53:18Z</time>
      </trkpt>
      <trkpt lat="48.793395" lon="9.859882">
        <ele>424.6</ele>
        <time>2026-08-30T10:53:19Z</time>
      </trkpt>
      <trkpt lat="48.793354" lon="9.859884">
        <ele>424.4</ele>
        <time>2026-08-30T10:53:20Z</time>
      </trkpt>
      <trkpt lat="48.793320" lon="9.859864">
        <ele>424.2</ele>
        <time>2026-08-30T10:53:21Z</time>
      </trkpt>
      <trkpt lat="48.793286" lon="9.859838">
        <ele>424.2</ele>
        <time>2026-08-30T10:53:22Z</time>
      </trkpt>
      <trkpt lat="48.793245" lon="9.859816">
        <ele>424</ele>
        <time>2026-08-30T10:53:23Z</time>
      </trkpt>
      <trkpt lat="48.793199" lon="9.859815">
        <ele>424</ele>
        <time>2026-08-30T10:53:24Z</time>
      </trkpt>
      <trkpt lat="48.793152" lon="9.859826">
        <ele>423.8</ele>
        <time>2026-08-30T10:53:25Z</time>
      </trkpt>
      <trkpt lat="48.793103" lon="9.859852">
        <ele>423.6</ele>
        <time>2026-08-30T10:53:26Z</time>
      </trkpt>
      <trkpt lat="48.793050" lon="9.859877">
        <ele>423.6</ele>
        <time>2026-08-30T10:53:27Z</time>
      </trkpt>
      <trkpt lat="48.792998" lon="9.859907">
        <ele>423.4</ele>
        <time>2026-08-30T10:53:28Z</time>
      </trkpt>
      <trkpt lat="48.792948" lon="9.859933">
        <ele>423.2</ele>
        <time>2026-08-30T10:53:29Z</time>
      </trkpt>
      <trkpt lat="48.792897" lon="9.859962">
        <ele>423</ele>
        <time>2026-08-30T10:53:30Z</time>
      </trkpt>
      <trkpt lat="48.792848" lon="9.859993">
        <ele>423</ele>
        <time>2026-08-30T10:53:31Z</time>
      </trkpt>
      <trkpt lat="48.792797" lon="9.860026">
        <ele>422.8</ele>
        <time>2026-08-30T10:53:32Z</time>
      </trkpt>
      <trkpt lat="48.792747" lon="9.860060">
        <ele>422.8</ele>
        <time>2026-08-30T10:53:33Z</time>
      </trkpt>
      <trkpt lat="48.792698" lon="9.860100">
        <ele>422.6</ele>
        <time>2026-08-30T10:53:34Z</time>
      </trkpt>
      <trkpt lat="48.792652" lon="9.860135">
        <ele>422.6</ele>
        <time>2026-08-30T10:53:35Z</time>
      </trkpt>
      <trkpt lat="48.792608" lon="9.860169">
        <ele>422.6</ele>
        <time>2026-08-30T10:53:36Z</time>
      </trkpt>
      <trkpt lat="48.792564" lon="9.860203">
        <ele>422.4</ele>
        <time>2026-08-30T10:53:37Z</time>
      </trkpt>
      <trkpt lat="48.792519" lon="9.860235">
        <ele>422.4</ele>
        <time>2026-08-30T10:53:38Z</time>
      </trkpt>
      <trkpt lat="48.792476" lon="9.860270">
        <ele>422.2</ele>
        <time>2026-08-30T10:53:39Z</time>
      </trkpt>
      <trkpt lat="48.792435" lon="9.860307">
        <ele>422.2</ele>
        <time>2026-08-30T10:53:40Z</time>
      </trkpt>
      <trkpt lat="48.792393" lon="9.860345">
        <ele>422</ele>
        <time>2026-08-30T10:53:41Z</time>
      </trkpt>
      <trkpt lat="48.792354" lon="9.860383">
        <ele>421.8</ele>
        <time>2026-08-30T10:53:42Z</time>
      </trkpt>
      <trkpt lat="48.792311" lon="9.860416">
        <ele>421.8</ele>
        <time>2026-08-30T10:53:43Z</time>
      </trkpt>
      <trkpt lat="48.792268" lon="9.860449">
        <ele>421.6</ele>
        <time>2026-08-30T10:53:44Z</time>
      </trkpt>
      <trkpt lat="48.792226" lon="9.860485">
        <ele>421.4</ele>
        <time>2026-08-30T10:53:45Z</time>
      </trkpt>
      <trkpt lat="48.792185" lon="9.860527">
        <ele>421.4</ele>
        <time>2026-08-30T10:53:46Z</time>
      </trkpt>
      <trkpt lat="48.792143" lon="9.860569">
        <ele>421.2</ele>
        <time>2026-08-30T10:53:47Z</time>
      </trkpt>
      <trkpt lat="48.792102" lon="9.860608">
        <ele>421.2</ele>
        <time>2026-08-30T10:53:48Z</time>
      </trkpt>
      <trkpt lat="48.792060" lon="9.860645">
        <ele>421.2</ele>
        <time>2026-08-30T10:53:49Z</time>
      </trkpt>
      <trkpt lat="48.792016" lon="9.860679">
        <ele>421</ele>
        <time>2026-08-30T10:53:50Z</time>
      </trkpt>
      <trkpt lat="48.791973" lon="9.860718">
        <ele>421</ele>
        <time>2026-08-30T10:53:51Z</time>
      </trkpt>
      <trkpt lat="48.791930" lon="9.860754">
        <ele>420.8</ele>
        <time>2026-08-30T10:53:52Z</time>
      </trkpt>
      <trkpt lat="48.791886" lon="9.860790">
        <ele>420.8</ele>
        <time>2026-08-30T10:53:53Z</time>
      </trkpt>
      <trkpt lat="48.791843" lon="9.860824">
        <ele>420.6</ele>
        <time>2026-08-30T10:53:54Z</time>
      </trkpt>
      <trkpt lat="48.791800" lon="9.860863">
        <ele>420.4</ele>
        <time>2026-08-30T10:53:55Z</time>
      </trkpt>
      <trkpt lat="48.791757" lon="9.860900">
        <ele>420.2</ele>
        <time>2026-08-30T10:53:56Z</time>
      </trkpt>
      <trkpt lat="48.791714" lon="9.860936">
        <ele>420</ele>
        <time>2026-08-30T10:53:57Z</time>
      </trkpt>
      <trkpt lat="48.791670" lon="9.860971">
        <ele>419.8</ele>
        <time>2026-08-30T10:53:58Z</time>
      </trkpt>
      <trkpt lat="48.791623" lon="9.861002">
        <ele>419.8</ele>
        <time>2026-08-30T10:53:59Z</time>
      </trkpt>
      <trkpt lat="48.791578" lon="9.861031">
        <ele>419.6</ele>
        <time>2026-08-30T10:54:00Z</time>
      </trkpt>
      <trkpt lat="48.791532" lon="9.861062">
        <ele>419.4</ele>
        <time>2026-08-30T10:54:01Z</time>
      </trkpt>
      <trkpt lat="48.791485" lon="9.861097">
        <ele>419.2</ele>
        <time>2026-08-30T10:54:02Z</time>
      </trkpt>
      <trkpt lat="48.791440" lon="9.861128">
        <ele>419.2</ele>
        <time>2026-08-30T10:54:03Z</time>
      </trkpt>
      <trkpt lat="48.791395" lon="9.861154">
        <ele>419</ele>
        <time>2026-08-30T10:54:04Z</time>
      </trkpt>
      <trkpt lat="48.791348" lon="9.861178">
        <ele>418.8</ele>
        <time>2026-08-30T10:54:05Z</time>
      </trkpt>
      <trkpt lat="48.791301" lon="9.861200">
        <ele>418.6</ele>
        <time>2026-08-30T10:54:06Z</time>
      </trkpt>
      <trkpt lat="48.791254" lon="9.861222">
        <ele>418.6</ele>
        <time>2026-08-30T10:54:07Z</time>
      </trkpt>
      <trkpt lat="48.791207" lon="9.861245">
        <ele>418.4</ele>
        <time>2026-08-30T10:54:08Z</time>
      </trkpt>
      <trkpt lat="48.791156" lon="9.861263">
        <ele>418.2</ele>
        <time>2026-08-30T10:54:09Z</time>
      </trkpt>
      <trkpt lat="48.791105" lon="9.861285">
        <ele>418</ele>
        <time>2026-08-30T10:54:10Z</time>
      </trkpt>
      <trkpt lat="48.791053" lon="9.861299">
        <ele>418</ele>
        <time>2026-08-30T10:54:11Z</time>
      </trkpt>
      <trkpt lat="48.791004" lon="9.861314">
        <ele>417.8</ele>
        <time>2026-08-30T10:54:12Z</time>
      </trkpt>
      <trkpt lat="48.790954" lon="9.861333">
        <ele>417.6</ele>
        <time>2026-08-30T10:54:13Z</time>
      </trkpt>
      <trkpt lat="48.790900" lon="9.861356">
        <ele>417.2</ele>
        <time>2026-08-30T10:54:14Z</time>
      </trkpt>
      <trkpt lat="48.790848" lon="9.861378">
        <ele>417</ele>
        <time>2026-08-30T10:54:15Z</time>
      </trkpt>
      <trkpt lat="48.790793" lon="9.861403">
        <ele>416.8</ele>
        <time>2026-08-30T10:54:16Z</time>
      </trkpt>
      <trkpt lat="48.790738" lon="9.861428">
        <ele>416.6</ele>
        <time>2026-08-30T10:54:17Z</time>
      </trkpt>
      <trkpt lat="48.790683" lon="9.861465">
        <ele>416.6</ele>
        <time>2026-08-30T10:54:18Z</time>
      </trkpt>
      <trkpt lat="48.790628" lon="9.861502">
        <ele>416.4</ele>
        <time>2026-08-30T10:54:19Z</time>
      </trkpt>
      <trkpt lat="48.790573" lon="9.861545">
        <ele>416.2</ele>
        <time>2026-08-30T10:54:20Z</time>
      </trkpt>
      <trkpt lat="48.790518" lon="9.861587">
        <ele>416</ele>
        <time>2026-08-30T10:54:21Z</time>
      </trkpt>
      <trkpt lat="48.790462" lon="9.861637">
        <ele>415.6</ele>
        <time>2026-08-30T10:54:22Z</time>
      </trkpt>
      <trkpt lat="48.790407" lon="9.861692">
        <ele>415.4</ele>
        <time>2026-08-30T10:54:23Z</time>
      </trkpt>
      <trkpt lat="48.790357" lon="9.861753">
        <ele>415.2</ele>
        <time>2026-08-30T10:54:24Z</time>
      </trkpt>
      <trkpt lat="48.790306" lon="9.861818">
        <ele>414.8</ele>
        <time>2026-08-30T10:54:25Z</time>
      </trkpt>
      <trkpt lat="48.790261" lon="9.861884">
        <ele>414.6</ele>
        <time>2026-08-30T10:54:26Z</time>
      </trkpt>
      <trkpt lat="48.790215" lon="9.861954">
        <ele>414.4</ele>
        <time>2026-08-30T10:54:27Z</time>
      </trkpt>
      <trkpt lat="48.790175" lon="9.862027">
        <ele>414.2</ele>
        <time>2026-08-30T10:54:28Z</time>
      </trkpt>
      <trkpt lat="48.790137" lon="9.862101">
        <ele>414</ele>
        <time>2026-08-30T10:54:29Z</time>
      </trkpt>
      <trkpt lat="48.790107" lon="9.862182">
        <ele>413.6</ele>
        <time>2026-08-30T10:54:30Z</time>
      </trkpt>
      <trkpt lat="48.790076" lon="9.862262">
        <ele>413.4</ele>
        <time>2026-08-30T10:54:31Z</time>
      </trkpt>
      <trkpt lat="48.790046" lon="9.862343">
        <ele>413.4</ele>
        <time>2026-08-30T10:54:32Z</time>
      </trkpt>
      <trkpt lat="48.790016" lon="9.862422">
        <ele>413.2</ele>
        <time>2026-08-30T10:54:33Z</time>
      </trkpt>
      <trkpt lat="48.789990" lon="9.862502">
        <ele>413</ele>
        <time>2026-08-30T10:54:34Z</time>
      </trkpt>
      <trkpt lat="48.789973" lon="9.862588">
        <ele>412.8</ele>
        <time>2026-08-30T10:54:35Z</time>
      </trkpt>
      <trkpt lat="48.789974" lon="9.862677">
        <ele>412.8</ele>
        <time>2026-08-30T10:54:36Z</time>
      </trkpt>
      <trkpt lat="48.789985" lon="9.862767">
        <ele>412.6</ele>
        <time>2026-08-30T10:54:37Z</time>
      </trkpt>
      <trkpt lat="48.789985" lon="9.862861">
        <ele>412.4</ele>
        <time>2026-08-30T10:54:38Z</time>
      </trkpt>
      <trkpt lat="48.789975" lon="9.862957">
        <ele>412.2</ele>
        <time>2026-08-30T10:54:39Z</time>
      </trkpt>
      <trkpt lat="48.789957" lon="9.863049">
        <ele>412</ele>
        <time>2026-08-30T10:54:40Z</time>
      </trkpt>
      <trkpt lat="48.789938" lon="9.863134">
        <ele>411.6</ele>
        <time>2026-08-30T10:54:41Z</time>
      </trkpt>
      <trkpt lat="48.789920" lon="9.863228">
        <ele>411.4</ele>
        <time>2026-08-30T10:54:42Z</time>
      </trkpt>
      <trkpt lat="48.789909" lon="9.863328">
        <ele>411.2</ele>
        <time>2026-08-30T10:54:43Z</time>
      </trkpt>
      <trkpt lat="48.789907" lon="9.863429">
        <ele>411</ele>
        <time>2026-08-30T10:54:44Z</time>
      </trkpt>
      <trkpt lat="48.789921" lon="9.863526">
        <ele>410.8</ele>
        <time>2026-08-30T10:54:45Z</time>
      </trkpt>
      <trkpt lat="48.789939" lon="9.863611">
        <ele>410.6</ele>
        <time>2026-08-30T10:54:46Z</time>
      </trkpt>
      <trkpt lat="48.789956" lon="9.863696">
        <ele>410.6</ele>
        <time>2026-08-30T10:54:47Z</time>
      </trkpt>
      <trkpt lat="48.789971" lon="9.863780">
        <ele>410.4</ele>
        <time>2026-08-30T10:54:48Z</time>
      </trkpt>
      <trkpt lat="48.789985" lon="9.863861">
        <ele>410.4</ele>
        <time>2026-08-30T10:54:49Z</time>
      </trkpt>
      <trkpt lat="48.789993" lon="9.863937">
        <ele>410.6</ele>
        <time>2026-08-30T10:54:50Z</time>
      </trkpt>
      <trkpt lat="48.789999" lon="9.864006">
        <ele>410.8</ele>
        <time>2026-08-30T10:54:51Z</time>
      </trkpt>
      <trkpt lat="48.790007" lon="9.864070">
        <ele>411</ele>
        <time>2026-08-30T10:54:52Z</time>
      </trkpt>
      <trkpt lat="48.790011" lon="9.864131">
        <ele>411.2</ele>
        <time>2026-08-30T10:54:53Z</time>
      </trkpt>
      <trkpt lat="48.790017" lon="9.864187">
        <ele>411.4</ele>
        <time>2026-08-30T10:54:54Z</time>
      </trkpt>
      <trkpt lat="48.790025" lon="9.864241">
        <ele>411.6</ele>
        <time>2026-08-30T10:54:55Z</time>
      </trkpt>
      <trkpt lat="48.790029" lon="9.864301">
        <ele>412</ele>
        <time>2026-08-30T10:54:56Z</time>
      </trkpt>
      <trkpt lat="48.790033" lon="9.864365">
        <ele>412</ele>
        <time>2026-08-30T10:54:57Z</time>
      </trkpt>
      <trkpt lat="48.790038" lon="9.864430">
        <ele>412.2</ele>
        <time>2026-08-30T10:54:58Z</time>
      </trkpt>
      <trkpt lat="48.790041" lon="9.864495">
        <ele>412.2</ele>
        <time>2026-08-30T10:54:59Z</time>
      </trkpt>
      <trkpt lat="48.790043" lon="9.864565">
        <ele>412.2</ele>
        <time>2026-08-30T10:55:00Z</time>
      </trkpt>
      <trkpt lat="48.790047" lon="9.864637">
        <ele>412.4</ele>
        <time>2026-08-30T10:55:01Z</time>
      </trkpt>
      <trkpt lat="48.790051" lon="9.864710">
        <ele>412.4</ele>
        <time>2026-08-30T10:55:02Z</time>
      </trkpt>
      <trkpt lat="48.790050" lon="9.864786">
        <ele>412.4</ele>
        <time>2026-08-30T10:55:03Z</time>
      </trkpt>
      <trkpt lat="48.790048" lon="9.864866">
        <ele>412.4</ele>
        <time>2026-08-30T10:55:04Z</time>
      </trkpt>
      <trkpt lat="48.790049" lon="9.864948">
        <ele>412.4</ele>
        <time>2026-08-30T10:55:05Z</time>
      </trkpt>
      <trkpt lat="48.790051" lon="9.865028">
        <ele>412.4</ele>
        <time>2026-08-30T10:55:06Z</time>
      </trkpt>
      <trkpt lat="48.790051" lon="9.865108">
        <ele>412.4</ele>
        <time>2026-08-30T10:55:07Z</time>
      </trkpt>
      <trkpt lat="48.790050" lon="9.865190">
        <ele>412.4</ele>
        <time>2026-08-30T10:55:08Z</time>
      </trkpt>
      <trkpt lat="48.790048" lon="9.865271">
        <ele>412.4</ele>
        <time>2026-08-30T10:55:09Z</time>
      </trkpt>
      <trkpt lat="48.790049" lon="9.865352">
        <ele>412.4</ele>
        <time>2026-08-30T10:55:10Z</time>
      </trkpt>
      <trkpt lat="48.790048" lon="9.865433">
        <ele>412.4</ele>
        <time>2026-08-30T10:55:11Z</time>
      </trkpt>
      <trkpt lat="48.790042" lon="9.865515">
        <ele>412.4</ele>
        <time>2026-08-30T10:55:12Z</time>
      </trkpt>
      <trkpt lat="48.790034" lon="9.865593">
        <ele>412.6</ele>
        <time>2026-08-30T10:55:13Z</time>
      </trkpt>
      <trkpt lat="48.790025" lon="9.865673">
        <ele>412.6</ele>
        <time>2026-08-30T10:55:14Z</time>
      </trkpt>
      <trkpt lat="48.790017" lon="9.865750">
        <ele>412.6</ele>
        <time>2026-08-30T10:55:15Z</time>
      </trkpt>
      <trkpt lat="48.790009" lon="9.865827">
        <ele>412.6</ele>
        <time>2026-08-30T10:55:16Z</time>
      </trkpt>
      <trkpt lat="48.790002" lon="9.865906">
        <ele>412.6</ele>
        <time>2026-08-30T10:55:17Z</time>
      </trkpt>
      <trkpt lat="48.789993" lon="9.865989">
        <ele>412.6</ele>
        <time>2026-08-30T10:55:18Z</time>
      </trkpt>
      <trkpt lat="48.789982" lon="9.866066">
        <ele>412.6</ele>
        <time>2026-08-30T10:55:19Z</time>
      </trkpt>
      <trkpt lat="48.789971" lon="9.866145">
        <ele>412.6</ele>
        <time>2026-08-30T10:55:20Z</time>
      </trkpt>
      <trkpt lat="48.789963" lon="9.866224">
        <ele>412.6</ele>
        <time>2026-08-30T10:55:21Z</time>
      </trkpt>
      <trkpt lat="48.789954" lon="9.866301">
        <ele>412.6</ele>
        <time>2026-08-30T10:55:22Z</time>
      </trkpt>
      <trkpt lat="48.789939" lon="9.866383">
        <ele>412.6</ele>
        <time>2026-08-30T10:55:23Z</time>
      </trkpt>
      <trkpt lat="48.789928" lon="9.866462">
        <ele>412.6</ele>
        <time>2026-08-30T10:55:24Z</time>
      </trkpt>
      <trkpt lat="48.789921" lon="9.866547">
        <ele>412.6</ele>
        <time>2026-08-30T10:55:25Z</time>
      </trkpt>
      <trkpt lat="48.789918" lon="9.866631">
        <ele>412.8</ele>
        <time>2026-08-30T10:55:26Z</time>
      </trkpt>
      <trkpt lat="48.789916" lon="9.866710">
        <ele>412.8</ele>
        <time>2026-08-30T10:55:27Z</time>
      </trkpt>
      <trkpt lat="48.789914" lon="9.866788">
        <ele>412.8</ele>
        <time>2026-08-30T10:55:28Z</time>
      </trkpt>
      <trkpt lat="48.789915" lon="9.866869">
        <ele>412.8</ele>
        <time>2026-08-30T10:55:29Z</time>
      </trkpt>
      <trkpt lat="48.789912" lon="9.866951">
        <ele>412.8</ele>
        <time>2026-08-30T10:55:30Z</time>
      </trkpt>
      <trkpt lat="48.789907" lon="9.867028">
        <ele>412.8</ele>
        <time>2026-08-30T10:55:31Z</time>
      </trkpt>
      <trkpt lat="48.789901" lon="9.867109">
        <ele>412.8</ele>
        <time>2026-08-30T10:55:32Z</time>
      </trkpt>
      <trkpt lat="48.789892" lon="9.867194">
        <ele>412.8</ele>
        <time>2026-08-30T10:55:33Z</time>
      </trkpt>
      <trkpt lat="48.789878" lon="9.867275">
        <ele>413</ele>
        <time>2026-08-30T10:55:34Z</time>
      </trkpt>
      <trkpt lat="48.789857" lon="9.867354">
        <ele>413</ele>
        <time>2026-08-30T10:55:35Z</time>
      </trkpt>
      <trkpt lat="48.789833" lon="9.867430">
        <ele>413</ele>
        <time>2026-08-30T10:55:36Z</time>
      </trkpt>
      <trkpt lat="48.789811" lon="9.867505">
        <ele>413</ele>
        <time>2026-08-30T10:55:37Z</time>
      </trkpt>
      <trkpt lat="48.789786" lon="9.867582">
        <ele>413.2</ele>
        <time>2026-08-30T10:55:38Z</time>
      </trkpt>
      <trkpt lat="48.789759" lon="9.867653">
        <ele>413.2</ele>
        <time>2026-08-30T10:55:39Z</time>
      </trkpt>
      <trkpt lat="48.789731" lon="9.867723">
        <ele>413.2</ele>
        <time>2026-08-30T10:55:40Z</time>
      </trkpt>
      <trkpt lat="48.789703" lon="9.867792">
        <ele>413.2</ele>
        <time>2026-08-30T10:55:41Z</time>
      </trkpt>
      <trkpt lat="48.789681" lon="9.867862">
        <ele>413.2</ele>
        <time>2026-08-30T10:55:42Z</time>
      </trkpt>
      <trkpt lat="48.789659" lon="9.867933">
        <ele>413.4</ele>
        <time>2026-08-30T10:55:43Z</time>
      </trkpt>
      <trkpt lat="48.789639" lon="9.868007">
        <ele>413.4</ele>
        <time>2026-08-30T10:55:44Z</time>
      </trkpt>
      <trkpt lat="48.789620" lon="9.868078">
        <ele>413.6</ele>
        <time>2026-08-30T10:55:45Z</time>
      </trkpt>
      <trkpt lat="48.789602" lon="9.868146">
        <ele>413.6</ele>
        <time>2026-08-30T10:55:46Z</time>
      </trkpt>
      <trkpt lat="48.789584" lon="9.868212">
        <ele>413.8</ele>
        <time>2026-08-30T10:55:47Z</time>
      </trkpt>
      <trkpt lat="48.789566" lon="9.868276">
        <ele>414</ele>
        <time>2026-08-30T10:55:48Z</time>
      </trkpt>
      <trkpt lat="48.789551" lon="9.868334">
        <ele>414</ele>
        <time>2026-08-30T10:55:49Z</time>
      </trkpt>
      <trkpt lat="48.789537" lon="9.868389">
        <ele>414.2</ele>
        <time>2026-08-30T10:55:50Z</time>
      </trkpt>
      <trkpt lat="48.789521" lon="9.868447">
        <ele>414.4</ele>
        <time>2026-08-30T10:55:51Z</time>
      </trkpt>
      <trkpt lat="48.789506" lon="9.868501">
        <ele>414.8</ele>
        <time>2026-08-30T10:55:52Z</time>
      </trkpt>
      <trkpt lat="48.789493" lon="9.868553">
        <ele>415</ele>
        <time>2026-08-30T10:55:53Z</time>
      </trkpt>
      <trkpt lat="48.789479" lon="9.868604">
        <ele>415.2</ele>
        <time>2026-08-30T10:55:54Z</time>
      </trkpt>
      <trkpt lat="48.789465" lon="9.868656">
        <ele>415.4</ele>
        <time>2026-08-30T10:55:55Z</time>
      </trkpt>
      <trkpt lat="48.789448" lon="9.868703">
        <ele>415.4</ele>
        <time>2026-08-30T10:55:56Z</time>
      </trkpt>
      <trkpt lat="48.789429" lon="9.868751">
        <ele>415.6</ele>
        <time>2026-08-30T10:55:57Z</time>
      </trkpt>
      <trkpt lat="48.789416" lon="9.868802">
        <ele>415.8</ele>
        <time>2026-08-30T10:55:58Z</time>
      </trkpt>
      <trkpt lat="48.789404" lon="9.868854">
        <ele>416</ele>
        <time>2026-08-30T10:55:59Z</time>
      </trkpt>
      <trkpt lat="48.789389" lon="9.868905">
        <ele>416.2</ele>
        <time>2026-08-30T10:56:00Z</time>
      </trkpt>
      <trkpt lat="48.789373" lon="9.868954">
        <ele>416.2</ele>
        <time>2026-08-30T10:56:01Z</time>
      </trkpt>
      <trkpt lat="48.789356" lon="9.869007">
        <ele>416.4</ele>
        <time>2026-08-30T10:56:02Z</time>
      </trkpt>
      <trkpt lat="48.789345" lon="9.869057">
        <ele>416.6</ele>
        <time>2026-08-30T10:56:03Z</time>
      </trkpt>
      <trkpt lat="48.789333" lon="9.869111">
        <ele>416.8</ele>
        <time>2026-08-30T10:56:04Z</time>
      </trkpt>
      <trkpt lat="48.789321" lon="9.869164">
        <ele>416.8</ele>
        <time>2026-08-30T10:56:05Z</time>
      </trkpt>
      <trkpt lat="48.789308" lon="9.869220">
        <ele>417</ele>
        <time>2026-08-30T10:56:06Z</time>
      </trkpt>
      <trkpt lat="48.789295" lon="9.869275">
        <ele>417</ele>
        <time>2026-08-30T10:56:07Z</time>
      </trkpt>
      <trkpt lat="48.789281" lon="9.869330">
        <ele>417.2</ele>
        <time>2026-08-30T10:56:08Z</time>
      </trkpt>
      <trkpt lat="48.789264" lon="9.869383">
        <ele>417.4</ele>
        <time>2026-08-30T10:56:09Z</time>
      </trkpt>
      <trkpt lat="48.789248" lon="9.869437">
        <ele>417.6</ele>
        <time>2026-08-30T10:56:10Z</time>
      </trkpt>
      <trkpt lat="48.789234" lon="9.869491">
        <ele>417.6</ele>
        <time>2026-08-30T10:56:11Z</time>
      </trkpt>
      <trkpt lat="48.789224" lon="9.869547">
        <ele>417.8</ele>
        <time>2026-08-30T10:56:12Z</time>
      </trkpt>
      <trkpt lat="48.789216" lon="9.869604">
        <ele>418</ele>
        <time>2026-08-30T10:56:13Z</time>
      </trkpt>
      <trkpt lat="48.789207" lon="9.869654">
        <ele>418.2</ele>
        <time>2026-08-30T10:56:14Z</time>
      </trkpt>
      <trkpt lat="48.789195" lon="9.869698">
        <ele>418.4</ele>
        <time>2026-08-30T10:56:15Z</time>
      </trkpt>
      <trkpt lat="48.789185" lon="9.869735">
        <ele>418.6</ele>
        <time>2026-08-30T10:56:16Z</time>
      </trkpt>
      <trkpt lat="48.789171" lon="9.869770">
        <ele>418.8</ele>
        <time>2026-08-30T10:56:17Z</time>
      </trkpt>
      <trkpt lat="48.789152" lon="9.869806">
        <ele>419</ele>
        <time>2026-08-30T10:56:18Z</time>
      </trkpt>
      <trkpt lat="48.789131" lon="9.869841">
        <ele>419</ele>
        <time>2026-08-30T10:56:19Z</time>
      </trkpt>
      <trkpt lat="48.789106" lon="9.869876">
        <ele>419.2</ele>
        <time>2026-08-30T10:56:20Z</time>
      </trkpt>
      <trkpt lat="48.789077" lon="9.869913">
        <ele>419.2</ele>
        <time>2026-08-30T10:56:21Z</time>
      </trkpt>
      <trkpt lat="48.789052" lon="9.869948">
        <ele>419.2</ele>
        <time>2026-08-30T10:56:22Z</time>
      </trkpt>
      <trkpt lat="48.789029" lon="9.869994">
        <ele>419.4</ele>
        <time>2026-08-30T10:56:23Z</time>
      </trkpt>
      <trkpt lat="48.789015" lon="9.870054">
        <ele>419.4</ele>
        <time>2026-08-30T10:56:24Z</time>
      </trkpt>
      <trkpt lat="48.789006" lon="9.870127">
        <ele>419.4</ele>
        <time>2026-08-30T10:56:25Z</time>
      </trkpt>
      <trkpt lat="48.789001" lon="9.870203">
        <ele>419.4</ele>
        <time>2026-08-30T10:56:26Z</time>
      </trkpt>
      <trkpt lat="48.788998" lon="9.870278">
        <ele>419.2</ele>
        <time>2026-08-30T10:56:27Z</time>
      </trkpt>
      <trkpt lat="48.788995" lon="9.870356">
        <ele>419.2</ele>
        <time>2026-08-30T10:56:28Z</time>
      </trkpt>
      <trkpt lat="48.788995" lon="9.870439">
        <ele>419</ele>
        <time>2026-08-30T10:56:29Z</time>
      </trkpt>
      <trkpt lat="48.788995" lon="9.870519">
        <ele>419</ele>
        <time>2026-08-30T10:56:30Z</time>
      </trkpt>
      <trkpt lat="48.788993" lon="9.870601">
        <ele>419</ele>
        <time>2026-08-30T10:56:31Z</time>
      </trkpt>
      <trkpt lat="48.788992" lon="9.870684">
        <ele>418.8</ele>
        <time>2026-08-30T10:56:32Z</time>
      </trkpt>
      <trkpt lat="48.788991" lon="9.870767">
        <ele>418.6</ele>
        <time>2026-08-30T10:56:33Z</time>
      </trkpt>
      <trkpt lat="48.788988" lon="9.870849">
        <ele>418.6</ele>
        <time>2026-08-30T10:56:34Z</time>
      </trkpt>
      <trkpt lat="48.788987" lon="9.870938">
        <ele>418.4</ele>
        <time>2026-08-30T10:56:35Z</time>
      </trkpt>
      <trkpt lat="48.788984" lon="9.871029">
        <ele>418.2</ele>
        <time>2026-08-30T10:56:36Z</time>
      </trkpt>
      <trkpt lat="48.788981" lon="9.871119">
        <ele>418</ele>
        <time>2026-08-30T10:56:37Z</time>
      </trkpt>
      <trkpt lat="48.788980" lon="9.871210">
        <ele>417.8</ele>
        <time>2026-08-30T10:56:38Z</time>
      </trkpt>
      <trkpt lat="48.788977" lon="9.871305">
        <ele>417.6</ele>
        <time>2026-08-30T10:56:39Z</time>
      </trkpt>
      <trkpt lat="48.788973" lon="9.871401">
        <ele>417.4</ele>
        <time>2026-08-30T10:56:40Z</time>
      </trkpt>
      <trkpt lat="48.788973" lon="9.871496">
        <ele>417.2</ele>
        <time>2026-08-30T10:56:41Z</time>
      </trkpt>
      <trkpt lat="48.788973" lon="9.871589">
        <ele>417</ele>
        <time>2026-08-30T10:56:42Z</time>
      </trkpt>
      <trkpt lat="48.788976" lon="9.871680">
        <ele>416.8</ele>
        <time>2026-08-30T10:56:43Z</time>
      </trkpt>
      <trkpt lat="48.788979" lon="9.871774">
        <ele>416.6</ele>
        <time>2026-08-30T10:56:44Z</time>
      </trkpt>
      <trkpt lat="48.788979" lon="9.871865">
        <ele>416.6</ele>
        <time>2026-08-30T10:56:45Z</time>
      </trkpt>
      <trkpt lat="48.788988" lon="9.871955">
        <ele>416.4</ele>
        <time>2026-08-30T10:56:46Z</time>
      </trkpt>
      <trkpt lat="48.789000" lon="9.872040">
        <ele>416.2</ele>
        <time>2026-08-30T10:56:47Z</time>
      </trkpt>
      <trkpt lat="48.789012" lon="9.872120">
        <ele>416.2</ele>
        <time>2026-08-30T10:56:48Z</time>
      </trkpt>
      <trkpt lat="48.789022" lon="9.872197">
        <ele>416.2</ele>
        <time>2026-08-30T10:56:49Z</time>
      </trkpt>
      <trkpt lat="48.789035" lon="9.872272">
        <ele>416.2</ele>
        <time>2026-08-30T10:56:50Z</time>
      </trkpt>
      <trkpt lat="48.789046" lon="9.872342">
        <ele>416.4</ele>
        <time>2026-08-30T10:56:51Z</time>
      </trkpt>
      <trkpt lat="48.789055" lon="9.872413">
        <ele>416.4</ele>
        <time>2026-08-30T10:56:52Z</time>
      </trkpt>
      <trkpt lat="48.789065" lon="9.872483">
        <ele>416.6</ele>
        <time>2026-08-30T10:56:53Z</time>
      </trkpt>
      <trkpt lat="48.789078" lon="9.872562">
        <ele>416.8</ele>
        <time>2026-08-30T10:56:54Z</time>
      </trkpt>
      <trkpt lat="48.789086" lon="9.872635">
        <ele>417</ele>
        <time>2026-08-30T10:56:55Z</time>
      </trkpt>
      <trkpt lat="48.789096" lon="9.872711">
        <ele>417</ele>
        <time>2026-08-30T10:56:56Z</time>
      </trkpt>
      <trkpt lat="48.789111" lon="9.872790">
        <ele>417</ele>
        <time>2026-08-30T10:56:57Z</time>
      </trkpt>
      <trkpt lat="48.789129" lon="9.872873">
        <ele>417</ele>
        <time>2026-08-30T10:56:58Z</time>
      </trkpt>
      <trkpt lat="48.789143" lon="9.872959">
        <ele>417</ele>
        <time>2026-08-30T10:56:59Z</time>
      </trkpt>
      <trkpt lat="48.789156" lon="9.873044">
        <ele>417</ele>
        <time>2026-08-30T10:57:00Z</time>
      </trkpt>
      <trkpt lat="48.789171" lon="9.873126">
        <ele>417</ele>
        <time>2026-08-30T10:57:01Z</time>
      </trkpt>
      <trkpt lat="48.789187" lon="9.873206">
        <ele>417</ele>
        <time>2026-08-30T10:57:02Z</time>
      </trkpt>
      <trkpt lat="48.789199" lon="9.873281">
        <ele>417.2</ele>
        <time>2026-08-30T10:57:03Z</time>
      </trkpt>
      <trkpt lat="48.789216" lon="9.873356">
        <ele>417.2</ele>
        <time>2026-08-30T10:57:04Z</time>
      </trkpt>
      <trkpt lat="48.789233" lon="9.873426">
        <ele>417.4</ele>
        <time>2026-08-30T10:57:05Z</time>
      </trkpt>
      <trkpt lat="48.789245" lon="9.873495">
        <ele>417.4</ele>
        <time>2026-08-30T10:57:06Z</time>
      </trkpt>
      <trkpt lat="48.789262" lon="9.873562">
        <ele>417.4</ele>
        <time>2026-08-30T10:57:07Z</time>
      </trkpt>
      <trkpt lat="48.789278" lon="9.873630">
        <ele>417.6</ele>
        <time>2026-08-30T10:57:08Z</time>
      </trkpt>
      <trkpt lat="48.789299" lon="9.873699">
        <ele>417.6</ele>
        <time>2026-08-30T10:57:09Z</time>
      </trkpt>
      <trkpt lat="48.789317" lon="9.873767">
        <ele>417.8</ele>
        <time>2026-08-30T10:57:10Z</time>
      </trkpt>
      <trkpt lat="48.789332" lon="9.873831">
        <ele>417.8</ele>
        <time>2026-08-30T10:57:11Z</time>
      </trkpt>
      <trkpt lat="48.789347" lon="9.873894">
        <ele>418</ele>
        <time>2026-08-30T10:57:12Z</time>
      </trkpt>
      <trkpt lat="48.789363" lon="9.873960">
        <ele>418.2</ele>
        <time>2026-08-30T10:57:13Z</time>
      </trkpt>
      <trkpt lat="48.789377" lon="9.874022">
        <ele>418.4</ele>
        <time>2026-08-30T10:57:14Z</time>
      </trkpt>
      <trkpt lat="48.789391" lon="9.874083">
        <ele>418.4</ele>
        <time>2026-08-30T10:57:15Z</time>
      </trkpt>
      <trkpt lat="48.789405" lon="9.874140">
        <ele>418.6</ele>
        <time>2026-08-30T10:57:16Z</time>
      </trkpt>
      <trkpt lat="48.789418" lon="9.874201">
        <ele>418.8</ele>
        <time>2026-08-30T10:57:17Z</time>
      </trkpt>
      <trkpt lat="48.789427" lon="9.874263">
        <ele>419</ele>
        <time>2026-08-30T10:57:18Z</time>
      </trkpt>
      <trkpt lat="48.789435" lon="9.874325">
        <ele>419.2</ele>
        <time>2026-08-30T10:57:19Z</time>
      </trkpt>
      <trkpt lat="48.789442" lon="9.874386">
        <ele>419.4</ele>
        <time>2026-08-30T10:57:20Z</time>
      </trkpt>
      <trkpt lat="48.789450" lon="9.874449">
        <ele>419.6</ele>
        <time>2026-08-30T10:57:21Z</time>
      </trkpt>
      <trkpt lat="48.789455" lon="9.874513">
        <ele>419.8</ele>
        <time>2026-08-30T10:57:22Z</time>
      </trkpt>
      <trkpt lat="48.789460" lon="9.874574">
        <ele>419.8</ele>
        <time>2026-08-30T10:57:23Z</time>
      </trkpt>
      <trkpt lat="48.789466" lon="9.874637">
        <ele>420</ele>
        <time>2026-08-30T10:57:24Z</time>
      </trkpt>
      <trkpt lat="48.789469" lon="9.874699">
        <ele>420.2</ele>
        <time>2026-08-30T10:57:25Z</time>
      </trkpt>
      <trkpt lat="48.789474" lon="9.874763">
        <ele>420.2</ele>
        <time>2026-08-30T10:57:26Z</time>
      </trkpt>
      <trkpt lat="48.789480" lon="9.874824">
        <ele>420.4</ele>
        <time>2026-08-30T10:57:27Z</time>
      </trkpt>
      <trkpt lat="48.789484" lon="9.874882">
        <ele>420.4</ele>
        <time>2026-08-30T10:57:28Z</time>
      </trkpt>
      <trkpt lat="48.789488" lon="9.874943">
        <ele>420.6</ele>
        <time>2026-08-30T10:57:29Z</time>
      </trkpt>
      <trkpt lat="48.789490" lon="9.874999">
        <ele>420.6</ele>
        <time>2026-08-30T10:57:30Z</time>
      </trkpt>
      <trkpt lat="48.789496" lon="9.875062">
        <ele>420.8</ele>
        <time>2026-08-30T10:57:31Z</time>
      </trkpt>
      <trkpt lat="48.789499" lon="9.875122">
        <ele>420.8</ele>
        <time>2026-08-30T10:57:32Z</time>
      </trkpt>
      <trkpt lat="48.789498" lon="9.875183">
        <ele>420.8</ele>
        <time>2026-08-30T10:57:33Z</time>
      </trkpt>
      <trkpt lat="48.789498" lon="9.875248">
        <ele>420.8</ele>
        <time>2026-08-30T10:57:34Z</time>
      </trkpt>
      <trkpt lat="48.789501" lon="9.875315">
        <ele>420.8</ele>
        <time>2026-08-30T10:57:35Z</time>
      </trkpt>
      <trkpt lat="48.789504" lon="9.875387">
        <ele>420.6</ele>
        <time>2026-08-30T10:57:36Z</time>
      </trkpt>
      <trkpt lat="48.789507" lon="9.875466">
        <ele>420.6</ele>
        <time>2026-08-30T10:57:37Z</time>
      </trkpt>
      <trkpt lat="48.789512" lon="9.875553">
        <ele>420.4</ele>
        <time>2026-08-30T10:57:38Z</time>
      </trkpt>
      <trkpt lat="48.789530" lon="9.875642">
        <ele>420.2</ele>
        <time>2026-08-30T10:57:39Z</time>
      </trkpt>
      <trkpt lat="48.789558" lon="9.875728">
        <ele>419.8</ele>
        <time>2026-08-30T10:57:40Z</time>
      </trkpt>
      <trkpt lat="48.789590" lon="9.875812">
        <ele>419.6</ele>
        <time>2026-08-30T10:57:41Z</time>
      </trkpt>
      <trkpt lat="48.789618" lon="9.875894">
        <ele>419.4</ele>
        <time>2026-08-30T10:57:42Z</time>
      </trkpt>
      <trkpt lat="48.789628" lon="9.875978">
        <ele>419.2</ele>
        <time>2026-08-30T10:57:43Z</time>
      </trkpt>
      <trkpt lat="48.789628" lon="9.876064">
        <ele>419</ele>
        <time>2026-08-30T10:57:44Z</time>
      </trkpt>
      <trkpt lat="48.789618" lon="9.876147">
        <ele>418.8</ele>
        <time>2026-08-30T10:57:45Z</time>
      </trkpt>
      <trkpt lat="48.789602" lon="9.876228">
        <ele>418.8</ele>
        <time>2026-08-30T10:57:46Z</time>
      </trkpt>
      <trkpt lat="48.789587" lon="9.876305">
        <ele>418.8</ele>
        <time>2026-08-30T10:57:47Z</time>
      </trkpt>
      <trkpt lat="48.789573" lon="9.876379">
        <ele>418.8</ele>
        <time>2026-08-30T10:57:48Z</time>
      </trkpt>
      <trkpt lat="48.789560" lon="9.876453">
        <ele>418.8</ele>
        <time>2026-08-30T10:57:49Z</time>
      </trkpt>
      <trkpt lat="48.789546" lon="9.876523">
        <ele>419</ele>
        <time>2026-08-30T10:57:50Z</time>
      </trkpt>
      <trkpt lat="48.789538" lon="9.876585">
        <ele>419.2</ele>
        <time>2026-08-30T10:57:51Z</time>
      </trkpt>
      <trkpt lat="48.789533" lon="9.876649">
        <ele>419.4</ele>
        <time>2026-08-30T10:57:52Z</time>
      </trkpt>
      <trkpt lat="48.789528" lon="9.876710">
        <ele>419.6</ele>
        <time>2026-08-30T10:57:53Z</time>
      </trkpt>
      <trkpt lat="48.789518" lon="9.876767">
        <ele>419.6</ele>
        <time>2026-08-30T10:57:54Z</time>
      </trkpt>
      <trkpt lat="48.789494" lon="9.876811">
        <ele>419.8</ele>
        <time>2026-08-30T10:57:55Z</time>
      </trkpt>
      <trkpt lat="48.789461" lon="9.876841">
        <ele>420</ele>
        <time>2026-08-30T10:57:56Z</time>
      </trkpt>
      <trkpt lat="48.789421" lon="9.876859">
        <ele>420</ele>
        <time>2026-08-30T10:57:57Z</time>
      </trkpt>
      <trkpt lat="48.789379" lon="9.876869">
        <ele>420</ele>
        <time>2026-08-30T10:57:58Z</time>
      </trkpt>
      <trkpt lat="48.789333" lon="9.876875">
        <ele>420</ele>
        <time>2026-08-30T10:57:59Z</time>
      </trkpt>
      <trkpt lat="48.789285" lon="9.876887">
        <ele>420</ele>
        <time>2026-08-30T10:58:00Z</time>
      </trkpt>
      <trkpt lat="48.789238" lon="9.876902">
        <ele>419.8</ele>
        <time>2026-08-30T10:58:01Z</time>
      </trkpt>
      <trkpt lat="48.789190" lon="9.876919">
        <ele>419.8</ele>
        <time>2026-08-30T10:58:02Z</time>
      </trkpt>
      <trkpt lat="48.789142" lon="9.876932">
        <ele>419.8</ele>
        <time>2026-08-30T10:58:03Z</time>
      </trkpt>
      <trkpt lat="48.789094" lon="9.876954">
        <ele>419.6</ele>
        <time>2026-08-30T10:58:04Z</time>
      </trkpt>
      <trkpt lat="48.789047" lon="9.876971">
        <ele>419.6</ele>
        <time>2026-08-30T10:58:05Z</time>
      </trkpt>
      <trkpt lat="48.788998" lon="9.876989">
        <ele>419.4</ele>
        <time>2026-08-30T10:58:06Z</time>
      </trkpt>
      <trkpt lat="48.788952" lon="9.877006">
        <ele>419.4</ele>
        <time>2026-08-30T10:58:07Z</time>
      </trkpt>
      <trkpt lat="48.788910" lon="9.877022">
        <ele>419.2</ele>
        <time>2026-08-30T10:58:08Z</time>
      </trkpt>
      <trkpt lat="48.788868" lon="9.877035">
        <ele>419.2</ele>
        <time>2026-08-30T10:58:09Z</time>
      </trkpt>
      <trkpt lat="48.788824" lon="9.877049">
        <ele>419.2</ele>
        <time>2026-08-30T10:58:10Z</time>
      </trkpt>
      <trkpt lat="48.788780" lon="9.877063">
        <ele>419</ele>
        <time>2026-08-30T10:58:11Z</time>
      </trkpt>
      <trkpt lat="48.788736" lon="9.877078">
        <ele>419</ele>
        <time>2026-08-30T10:58:12Z</time>
      </trkpt>
      <trkpt lat="48.788690" lon="9.877090">
        <ele>419</ele>
        <time>2026-08-30T10:58:13Z</time>
      </trkpt>
      <trkpt lat="48.788646" lon="9.877102">
        <ele>418.8</ele>
        <time>2026-08-30T10:58:14Z</time>
      </trkpt>
      <trkpt lat="48.788600" lon="9.877111">
        <ele>418.6</ele>
        <time>2026-08-30T10:58:15Z</time>
      </trkpt>
      <trkpt lat="48.788555" lon="9.877124">
        <ele>418.6</ele>
        <time>2026-08-30T10:58:16Z</time>
      </trkpt>
      <trkpt lat="48.788512" lon="9.877133">
        <ele>418.4</ele>
        <time>2026-08-30T10:58:17Z</time>
      </trkpt>
      <trkpt lat="48.788465" lon="9.877135">
        <ele>418.4</ele>
        <time>2026-08-30T10:58:18Z</time>
      </trkpt>
      <trkpt lat="48.788415" lon="9.877157">
        <ele>418.2</ele>
        <time>2026-08-30T10:58:19Z</time>
      </trkpt>
      <trkpt lat="48.788379" lon="9.877204">
        <ele>418</ele>
        <time>2026-08-30T10:58:20Z</time>
      </trkpt>
      <trkpt lat="48.788355" lon="9.877266">
        <ele>417.8</ele>
        <time>2026-08-30T10:58:21Z</time>
      </trkpt>
      <trkpt lat="48.788340" lon="9.877342">
        <ele>417.8</ele>
        <time>2026-08-30T10:58:22Z</time>
      </trkpt>
      <trkpt lat="48.788331" lon="9.877417">
        <ele>417.6</ele>
        <time>2026-08-30T10:58:23Z</time>
      </trkpt>
      <trkpt lat="48.788326" lon="9.877493">
        <ele>417.4</ele>
        <time>2026-08-30T10:58:24Z</time>
      </trkpt>
      <trkpt lat="48.788318" lon="9.877575">
        <ele>417.2</ele>
        <time>2026-08-30T10:58:25Z</time>
      </trkpt>
      <trkpt lat="48.788310" lon="9.877657">
        <ele>417.2</ele>
        <time>2026-08-30T10:58:26Z</time>
      </trkpt>
      <trkpt lat="48.788306" lon="9.877743">
        <ele>417</ele>
        <time>2026-08-30T10:58:27Z</time>
      </trkpt>
      <trkpt lat="48.788302" lon="9.877822">
        <ele>417</ele>
        <time>2026-08-30T10:58:28Z</time>
      </trkpt>
      <trkpt lat="48.788299" lon="9.877900">
        <ele>416.8</ele>
        <time>2026-08-30T10:58:29Z</time>
      </trkpt>
      <trkpt lat="48.788296" lon="9.877978">
        <ele>416.8</ele>
        <time>2026-08-30T10:58:30Z</time>
      </trkpt>
      <trkpt lat="48.788288" lon="9.878053">
        <ele>416.8</ele>
        <time>2026-08-30T10:58:31Z</time>
      </trkpt>
      <trkpt lat="48.788275" lon="9.878123">
        <ele>416.8</ele>
        <time>2026-08-30T10:58:32Z</time>
      </trkpt>
      <trkpt lat="48.788269" lon="9.878197">
        <ele>416.6</ele>
        <time>2026-08-30T10:58:33Z</time>
      </trkpt>
      <trkpt lat="48.788264" lon="9.878272">
        <ele>416.6</ele>
        <time>2026-08-30T10:58:34Z</time>
      </trkpt>
      <trkpt lat="48.788256" lon="9.878346">
        <ele>416.4</ele>
        <time>2026-08-30T10:58:35Z</time>
      </trkpt>
      <trkpt lat="48.788242" lon="9.878423">
        <ele>416.4</ele>
        <time>2026-08-30T10:58:36Z</time>
      </trkpt>
      <trkpt lat="48.788227" lon="9.878498">
        <ele>416.2</ele>
        <time>2026-08-30T10:58:37Z</time>
      </trkpt>
      <trkpt lat="48.788216" lon="9.878576">
        <ele>416.2</ele>
        <time>2026-08-30T10:58:38Z</time>
      </trkpt>
      <trkpt lat="48.788214" lon="9.878654">
        <ele>416</ele>
        <time>2026-08-30T10:58:39Z</time>
      </trkpt>
      <trkpt lat="48.788226" lon="9.878733">
        <ele>416</ele>
        <time>2026-08-30T10:58:40Z</time>
      </trkpt>
      <trkpt lat="48.788241" lon="9.878794">
        <ele>415.8</ele>
        <time>2026-08-30T10:58:41Z</time>
      </trkpt>
      <trkpt lat="48.788257" lon="9.878849">
        <ele>415.8</ele>
        <time>2026-08-30T10:58:42Z</time>
      </trkpt>
      <trkpt lat="48.788272" lon="9.878904">
        <ele>415.8</ele>
        <time>2026-08-30T10:58:43Z</time>
      </trkpt>
      <trkpt lat="48.788280" lon="9.878965">
        <ele>415.6</ele>
        <time>2026-08-30T10:58:44Z</time>
      </trkpt>
      <trkpt lat="48.788269" lon="9.879030">
        <ele>415.6</ele>
        <time>2026-08-30T10:58:45Z</time>
      </trkpt>
      <trkpt lat="48.788247" lon="9.879087">
        <ele>415.6</ele>
        <time>2026-08-30T10:58:46Z</time>
      </trkpt>
      <trkpt lat="48.788216" lon="9.879145">
        <ele>415.4</ele>
        <time>2026-08-30T10:58:47Z</time>
      </trkpt>
      <trkpt lat="48.788184" lon="9.879205">
        <ele>415.4</ele>
        <time>2026-08-30T10:58:48Z</time>
      </trkpt>
      <trkpt lat="48.788156" lon="9.879269">
        <ele>415.2</ele>
        <time>2026-08-30T10:58:49Z</time>
      </trkpt>
      <trkpt lat="48.788133" lon="9.879336">
        <ele>415</ele>
        <time>2026-08-30T10:58:50Z</time>
      </trkpt>
      <trkpt lat="48.788118" lon="9.879416">
        <ele>415</ele>
        <time>2026-08-30T10:58:51Z</time>
      </trkpt>
      <trkpt lat="48.788105" lon="9.879491">
        <ele>414.8</ele>
        <time>2026-08-30T10:58:52Z</time>
      </trkpt>
      <trkpt lat="48.788079" lon="9.879544">
        <ele>414.8</ele>
        <time>2026-08-30T10:58:53Z</time>
      </trkpt>
      <trkpt lat="48.788046" lon="9.879567">
        <ele>414.8</ele>
        <time>2026-08-30T10:58:54Z</time>
      </trkpt>
      <trkpt lat="48.788010" lon="9.879576">
        <ele>414.8</ele>
        <time>2026-08-30T10:58:55Z</time>
      </trkpt>
      <trkpt lat="48.787973" lon="9.879598">
        <ele>414.8</ele>
        <time>2026-08-30T10:58:56Z</time>
      </trkpt>
      <trkpt lat="48.787940" lon="9.879643">
        <ele>414.8</ele>
        <time>2026-08-30T10:58:57Z</time>
      </trkpt>
      <trkpt lat="48.787917" lon="9.879703">
        <ele>414.8</ele>
        <time>2026-08-30T10:58:58Z</time>
      </trkpt>
      <trkpt lat="48.787902" lon="9.879772">
        <ele>414.8</ele>
        <time>2026-08-30T10:58:59Z</time>
      </trkpt>
      <trkpt lat="48.787890" lon="9.879843">
        <ele>415</ele>
        <time>2026-08-30T10:59:00Z</time>
      </trkpt>
      <trkpt lat="48.787879" lon="9.879912">
        <ele>415</ele>
        <time>2026-08-30T10:59:01Z</time>
      </trkpt>
      <trkpt lat="48.787867" lon="9.879983">
        <ele>415.2</ele>
        <time>2026-08-30T10:59:02Z</time>
      </trkpt>
      <trkpt lat="48.787853" lon="9.880047">
        <ele>415.2</ele>
        <time>2026-08-30T10:59:03Z</time>
      </trkpt>
      <trkpt lat="48.787839" lon="9.880119">
        <ele>415.2</ele>
        <time>2026-08-30T10:59:04Z</time>
      </trkpt>
      <trkpt lat="48.787826" lon="9.880190">
        <ele>415.4</ele>
        <time>2026-08-30T10:59:05Z</time>
      </trkpt>
      <trkpt lat="48.787813" lon="9.880255">
        <ele>415.4</ele>
        <time>2026-08-30T10:59:06Z</time>
      </trkpt>
      <trkpt lat="48.787801" lon="9.880326">
        <ele>415.6</ele>
        <time>2026-08-30T10:59:07Z</time>
      </trkpt>
      <trkpt lat="48.787791" lon="9.880397">
        <ele>415.8</ele>
        <time>2026-08-30T10:59:08Z</time>
      </trkpt>
      <trkpt lat="48.787781" lon="9.880466">
        <ele>415.8</ele>
        <time>2026-08-30T10:59:09Z</time>
      </trkpt>
      <trkpt lat="48.787768" lon="9.880535">
        <ele>416</ele>
        <time>2026-08-30T10:59:10Z</time>
      </trkpt>
      <trkpt lat="48.787753" lon="9.880605">
        <ele>416</ele>
        <time>2026-08-30T10:59:11Z</time>
      </trkpt>
      <trkpt lat="48.787739" lon="9.880672">
        <ele>416.2</ele>
        <time>2026-08-30T10:59:12Z</time>
      </trkpt>
      <trkpt lat="48.787727" lon="9.880740">
        <ele>416.2</ele>
        <time>2026-08-30T10:59:13Z</time>
      </trkpt>
      <trkpt lat="48.787716" lon="9.880807">
        <ele>416.4</ele>
        <time>2026-08-30T10:59:14Z</time>
      </trkpt>
      <trkpt lat="48.787702" lon="9.880873">
        <ele>416.6</ele>
        <time>2026-08-30T10:59:15Z</time>
      </trkpt>
      <trkpt lat="48.787692" lon="9.880938">
        <ele>416.6</ele>
        <time>2026-08-30T10:59:16Z</time>
      </trkpt>
      <trkpt lat="48.787679" lon="9.881001">
        <ele>416.8</ele>
        <time>2026-08-30T10:59:17Z</time>
      </trkpt>
      <trkpt lat="48.787666" lon="9.881063">
        <ele>417</ele>
        <time>2026-08-30T10:59:18Z</time>
      </trkpt>
      <trkpt lat="48.787655" lon="9.881129">
        <ele>417</ele>
        <time>2026-08-30T10:59:19Z</time>
      </trkpt>
      <trkpt lat="48.787644" lon="9.881195">
        <ele>417.2</ele>
        <time>2026-08-30T10:59:20Z</time>
      </trkpt>
      <trkpt lat="48.787636" lon="9.881257">
        <ele>417.4</ele>
        <time>2026-08-30T10:59:21Z</time>
      </trkpt>
      <trkpt lat="48.787628" lon="9.881322">
        <ele>417.6</ele>
        <time>2026-08-30T10:59:22Z</time>
      </trkpt>
      <trkpt lat="48.787619" lon="9.881383">
        <ele>417.6</ele>
        <time>2026-08-30T10:59:23Z</time>
      </trkpt>
      <trkpt lat="48.787610" lon="9.881446">
        <ele>417.8</ele>
        <time>2026-08-30T10:59:24Z</time>
      </trkpt>
      <trkpt lat="48.787601" lon="9.881512">
        <ele>417.8</ele>
        <time>2026-08-30T10:59:25Z</time>
      </trkpt>
      <trkpt lat="48.787591" lon="9.881580">
        <ele>418</ele>
        <time>2026-08-30T10:59:26Z</time>
      </trkpt>
      <trkpt lat="48.787580" lon="9.881645">
        <ele>418.2</ele>
        <time>2026-08-30T10:59:27Z</time>
      </trkpt>
      <trkpt lat="48.787570" lon="9.881709">
        <ele>418.2</ele>
        <time>2026-08-30T10:59:28Z</time>
      </trkpt>
      <trkpt lat="48.787562" lon="9.881771">
        <ele>418.4</ele>
        <time>2026-08-30T10:59:29Z</time>
      </trkpt>
      <trkpt lat="48.787554" lon="9.881838">
        <ele>418.6</ele>
        <time>2026-08-30T10:59:30Z</time>
      </trkpt>
      <trkpt lat="48.787542" lon="9.881905">
        <ele>418.8</ele>
        <time>2026-08-30T10:59:31Z</time>
      </trkpt>
      <trkpt lat="48.787531" lon="9.881969">
        <ele>419</ele>
        <time>2026-08-30T10:59:32Z</time>
      </trkpt>
      <trkpt lat="48.787522" lon="9.882031">
        <ele>419</ele>
        <time>2026-08-30T10:59:33Z</time>
      </trkpt>
      <trkpt lat="48.787514" lon="9.882093">
        <ele>419.2</ele>
        <time>2026-08-30T10:59:34Z</time>
      </trkpt>
      <trkpt lat="48.787503" lon="9.882157">
        <ele>419.4</ele>
        <time>2026-08-30T10:59:35Z</time>
      </trkpt>
      <trkpt lat="48.787495" lon="9.882220">
        <ele>419.6</ele>
        <time>2026-08-30T10:59:36Z</time>
      </trkpt>
      <trkpt lat="48.787486" lon="9.882284">
        <ele>419.8</ele>
        <time>2026-08-30T10:59:37Z</time>
      </trkpt>
      <trkpt lat="48.787479" lon="9.882348">
        <ele>419.8</ele>
        <time>2026-08-30T10:59:38Z</time>
      </trkpt>
      <trkpt lat="48.787472" lon="9.882409">
        <ele>420</ele>
        <time>2026-08-30T10:59:39Z</time>
      </trkpt>
      <trkpt lat="48.787465" lon="9.882467">
        <ele>420.2</ele>
        <time>2026-08-30T10:59:40Z</time>
      </trkpt>
      <trkpt lat="48.787458" lon="9.882527">
        <ele>420.4</ele>
        <time>2026-08-30T10:59:41Z</time>
      </trkpt>
      <trkpt lat="48.787451" lon="9.882591">
        <ele>420.4</ele>
        <time>2026-08-30T10:59:42Z</time>
      </trkpt>
      <trkpt lat="48.787444" lon="9.882656">
        <ele>420.6</ele>
        <time>2026-08-30T10:59:43Z</time>
      </trkpt>
      <trkpt lat="48.787433" lon="9.882723">
        <ele>420.8</ele>
        <time>2026-08-30T10:59:44Z</time>
      </trkpt>
      <trkpt lat="48.787424" lon="9.882784">
        <ele>420.8</ele>
        <time>2026-08-30T10:59:45Z</time>
      </trkpt>
      <trkpt lat="48.787418" lon="9.882849">
        <ele>421</ele>
        <time>2026-08-30T10:59:46Z</time>
      </trkpt>
      <trkpt lat="48.787415" lon="9.882909">
        <ele>421</ele>
        <time>2026-08-30T10:59:47Z</time>
      </trkpt>
      <trkpt lat="48.787412" lon="9.882970">
        <ele>421.2</ele>
        <time>2026-08-30T10:59:48Z</time>
      </trkpt>
      <trkpt lat="48.787411" lon="9.883032">
        <ele>421.2</ele>
        <time>2026-08-30T10:59:49Z</time>
      </trkpt>
      <trkpt lat="48.787409" lon="9.883095">
        <ele>421.4</ele>
        <time>2026-08-30T10:59:50Z</time>
      </trkpt>
      <trkpt lat="48.787403" lon="9.883158">
        <ele>421.6</ele>
        <time>2026-08-30T10:59:51Z</time>
      </trkpt>
      <trkpt lat="48.787394" lon="9.883217">
        <ele>421.6</ele>
        <time>2026-08-30T10:59:52Z</time>
      </trkpt>
      <trkpt lat="48.787380" lon="9.883279">
        <ele>421.8</ele>
        <time>2026-08-30T10:59:53Z</time>
      </trkpt>
      <trkpt lat="48.787366" lon="9.883338">
        <ele>422</ele>
        <time>2026-08-30T10:59:54Z</time>
      </trkpt>
      <trkpt lat="48.787352" lon="9.883398">
        <ele>422.2</ele>
        <time>2026-08-30T10:59:55Z</time>
      </trkpt>
      <trkpt lat="48.787342" lon="9.883457">
        <ele>422.2</ele>
        <time>2026-08-30T10:59:56Z</time>
      </trkpt>
      <trkpt lat="48.787335" lon="9.883519">
        <ele>422.4</ele>
        <time>2026-08-30T10:59:57Z</time>
      </trkpt>
      <trkpt lat="48.787327" lon="9.883581">
        <ele>422.6</ele>
        <time>2026-08-30T10:59:58Z</time>
      </trkpt>
      <trkpt lat="48.787322" lon="9.883639">
        <ele>422.6</ele>
        <time>2026-08-30T10:59:59Z</time>
      </trkpt>
      <trkpt lat="48.787317" lon="9.883699">
        <ele>422.8</ele>
        <time>2026-08-30T11:00:00Z</time>
      </trkpt>
      <trkpt lat="48.787313" lon="9.883756">
        <ele>423</ele>
        <time>2026-08-30T11:00:01Z</time>
      </trkpt>
      <trkpt lat="48.787305" lon="9.883811">
        <ele>423</ele>
        <time>2026-08-30T11:00:02Z</time>
      </trkpt>
      <trkpt lat="48.787298" lon="9.883870">
        <ele>423.2</ele>
        <time>2026-08-30T11:00:03Z</time>
      </trkpt>
      <trkpt lat="48.787294" lon="9.883928">
        <ele>423.2</ele>
        <time>2026-08-30T11:00:04Z</time>
      </trkpt>
      <trkpt lat="48.787290" lon="9.883988">
        <ele>423.4</ele>
        <time>2026-08-30T11:00:05Z</time>
      </trkpt>
      <trkpt lat="48.787286" lon="9.884048">
        <ele>423.6</ele>
        <time>2026-08-30T11:00:06Z</time>
      </trkpt>
      <trkpt lat="48.787280" lon="9.884107">
        <ele>423.6</ele>
        <time>2026-08-30T11:00:07Z</time>
      </trkpt>
      <trkpt lat="48.787275" lon="9.884164">
        <ele>423.8</ele>
        <time>2026-08-30T11:00:08Z</time>
      </trkpt>
      <trkpt lat="48.787270" lon="9.884225">
        <ele>424</ele>
        <time>2026-08-30T11:00:09Z</time>
      </trkpt>
      <trkpt lat="48.787267" lon="9.884280">
        <ele>424.2</ele>
        <time>2026-08-30T11:00:10Z</time>
      </trkpt>
      <trkpt lat="48.787264" lon="9.884338">
        <ele>424.2</ele>
        <time>2026-08-30T11:00:11Z</time>
      </trkpt>
      <trkpt lat="48.787259" lon="9.884402">
        <ele>424.4</ele>
        <time>2026-08-30T11:00:12Z</time>
      </trkpt>
      <trkpt lat="48.787254" lon="9.884461">
        <ele>424.6</ele>
        <time>2026-08-30T11:00:13Z</time>
      </trkpt>
      <trkpt lat="48.787248" lon="9.884512">
        <ele>424.8</ele>
        <time>2026-08-30T11:00:14Z</time>
      </trkpt>
      <trkpt lat="48.787244" lon="9.884567">
        <ele>424.8</ele>
        <time>2026-08-30T11:00:15Z</time>
      </trkpt>
      <trkpt lat="48.787239" lon="9.884627">
        <ele>425</ele>
        <time>2026-08-30T11:00:16Z</time>
      </trkpt>
      <trkpt lat="48.787231" lon="9.884684">
        <ele>425.2</ele>
        <time>2026-08-30T11:00:17Z</time>
      </trkpt>
      <trkpt lat="48.787229" lon="9.884744">
        <ele>425.2</ele>
        <time>2026-08-30T11:00:18Z</time>
      </trkpt>
      <trkpt lat="48.787226" lon="9.884796">
        <ele>425.4</ele>
        <time>2026-08-30T11:00:19Z</time>
      </trkpt>
      <trkpt lat="48.787222" lon="9.884850">
        <ele>425.6</ele>
        <time>2026-08-30T11:00:20Z</time>
      </trkpt>
      <trkpt lat="48.787218" lon="9.884903">
        <ele>425.6</ele>
        <time>2026-08-30T11:00:21Z</time>
      </trkpt>
      <trkpt lat="48.787214" lon="9.884957">
        <ele>425.8</ele>
        <time>2026-08-30T11:00:22Z</time>
      </trkpt>
      <trkpt lat="48.787210" lon="9.885015">
        <ele>426</ele>
        <time>2026-08-30T11:00:23Z</time>
      </trkpt>
      <trkpt lat="48.787207" lon="9.885070">
        <ele>426</ele>
        <time>2026-08-30T11:00:24Z</time>
      </trkpt>
      <trkpt lat="48.787204" lon="9.885122">
        <ele>426.2</ele>
        <time>2026-08-30T11:00:25Z</time>
      </trkpt>
      <trkpt lat="48.787201" lon="9.885177">
        <ele>426.2</ele>
        <time>2026-08-30T11:00:26Z</time>
      </trkpt>
      <trkpt lat="48.787197" lon="9.885235">
        <ele>426.4</ele>
        <time>2026-08-30T11:00:27Z</time>
      </trkpt>
      <trkpt lat="48.787192" lon="9.885290">
        <ele>426.4</ele>
        <time>2026-08-30T11:00:28Z</time>
      </trkpt>
      <trkpt lat="48.787189" lon="9.885346">
        <ele>426.6</ele>
        <time>2026-08-30T11:00:29Z</time>
      </trkpt>
      <trkpt lat="48.787181" lon="9.885401">
        <ele>426.8</ele>
        <time>2026-08-30T11:00:30Z</time>
      </trkpt>
      <trkpt lat="48.787178" lon="9.885457">
        <ele>426.8</ele>
        <time>2026-08-30T11:00:31Z</time>
      </trkpt>
      <trkpt lat="48.787175" lon="9.885512">
        <ele>427</ele>
        <time>2026-08-30T11:00:32Z</time>
      </trkpt>
      <trkpt lat="48.787172" lon="9.885566">
        <ele>427</ele>
        <time>2026-08-30T11:00:33Z</time>
      </trkpt>
      <trkpt lat="48.787171" lon="9.885624">
        <ele>427.2</ele>
        <time>2026-08-30T11:00:34Z</time>
      </trkpt>
      <trkpt lat="48.787170" lon="9.885677">
        <ele>427.4</ele>
        <time>2026-08-30T11:00:35Z</time>
      </trkpt>
      <trkpt lat="48.787169" lon="9.885735">
        <ele>427.6</ele>
        <time>2026-08-30T11:00:36Z</time>
      </trkpt>
      <trkpt lat="48.787169" lon="9.885793">
        <ele>427.6</ele>
        <time>2026-08-30T11:00:37Z</time>
      </trkpt>
      <trkpt lat="48.787168" lon="9.885848">
        <ele>427.8</ele>
        <time>2026-08-30T11:00:38Z</time>
      </trkpt>
      <trkpt lat="48.787168" lon="9.885900">
        <ele>428</ele>
        <time>2026-08-30T11:00:39Z</time>
      </trkpt>
      <trkpt lat="48.787169" lon="9.885952">
        <ele>428</ele>
        <time>2026-08-30T11:00:40Z</time>
      </trkpt>
      <trkpt lat="48.787173" lon="9.886011">
        <ele>428.2</ele>
        <time>2026-08-30T11:00:41Z</time>
      </trkpt>
      <trkpt lat="48.787176" lon="9.886066">
        <ele>428.2</ele>
        <time>2026-08-30T11:00:42Z</time>
      </trkpt>
      <trkpt lat="48.787180" lon="9.886122">
        <ele>428.4</ele>
        <time>2026-08-30T11:00:43Z</time>
      </trkpt>
      <trkpt lat="48.787182" lon="9.886176">
        <ele>428.6</ele>
        <time>2026-08-30T11:00:44Z</time>
      </trkpt>
      <trkpt lat="48.787187" lon="9.886234">
        <ele>428.6</ele>
        <time>2026-08-30T11:00:45Z</time>
      </trkpt>
      <trkpt lat="48.787194" lon="9.886289">
        <ele>428.8</ele>
        <time>2026-08-30T11:00:46Z</time>
      </trkpt>
      <trkpt lat="48.787199" lon="9.886344">
        <ele>428.8</ele>
        <time>2026-08-30T11:00:47Z</time>
      </trkpt>
      <trkpt lat="48.787205" lon="9.886399">
        <ele>429</ele>
        <time>2026-08-30T11:00:48Z</time>
      </trkpt>
      <trkpt lat="48.787214" lon="9.886454">
        <ele>429.2</ele>
        <time>2026-08-30T11:00:49Z</time>
      </trkpt>
      <trkpt lat="48.787222" lon="9.886505">
        <ele>429.2</ele>
        <time>2026-08-30T11:00:50Z</time>
      </trkpt>
      <trkpt lat="48.787234" lon="9.886558">
        <ele>429.4</ele>
        <time>2026-08-30T11:00:51Z</time>
      </trkpt>
      <trkpt lat="48.787245" lon="9.886610">
        <ele>429.4</ele>
        <time>2026-08-30T11:00:52Z</time>
      </trkpt>
      <trkpt lat="48.787257" lon="9.886661">
        <ele>429.6</ele>
        <time>2026-08-30T11:00:53Z</time>
      </trkpt>
      <trkpt lat="48.787271" lon="9.886714">
        <ele>429.6</ele>
        <time>2026-08-30T11:00:54Z</time>
      </trkpt>
      <trkpt lat="48.787285" lon="9.886772">
        <ele>429.8</ele>
        <time>2026-08-30T11:00:55Z</time>
      </trkpt>
      <trkpt lat="48.787302" lon="9.886824">
        <ele>429.8</ele>
        <time>2026-08-30T11:00:56Z</time>
      </trkpt>
      <trkpt lat="48.787322" lon="9.886883">
        <ele>430</ele>
        <time>2026-08-30T11:00:57Z</time>
      </trkpt>
      <trkpt lat="48.787340" lon="9.886944">
        <ele>430</ele>
        <time>2026-08-30T11:00:58Z</time>
      </trkpt>
      <trkpt lat="48.787359" lon="9.887000">
        <ele>430.2</ele>
        <time>2026-08-30T11:00:59Z</time>
      </trkpt>
      <trkpt lat="48.787371" lon="9.887054">
        <ele>430.2</ele>
        <time>2026-08-30T11:01:00Z</time>
      </trkpt>
      <trkpt lat="48.787386" lon="9.887110">
        <ele>430.4</ele>
        <time>2026-08-30T11:01:01Z</time>
      </trkpt>
      <trkpt lat="48.787404" lon="9.887166">
        <ele>430.4</ele>
        <time>2026-08-30T11:01:02Z</time>
      </trkpt>
      <trkpt lat="48.787422" lon="9.887222">
        <ele>430.4</ele>
        <time>2026-08-30T11:01:03Z</time>
      </trkpt>
      <trkpt lat="48.787443" lon="9.887276">
        <ele>430.4</ele>
        <time>2026-08-30T11:01:04Z</time>
      </trkpt>
      <trkpt lat="48.787468" lon="9.887330">
        <ele>430.6</ele>
        <time>2026-08-30T11:01:05Z</time>
      </trkpt>
      <trkpt lat="48.787489" lon="9.887376">
        <ele>430.6</ele>
        <time>2026-08-30T11:01:06Z</time>
      </trkpt>
      <trkpt lat="48.787512" lon="9.887424">
        <ele>430.6</ele>
        <time>2026-08-30T11:01:07Z</time>
      </trkpt>
      <trkpt lat="48.787532" lon="9.887471">
        <ele>430.8</ele>
        <time>2026-08-30T11:01:08Z</time>
      </trkpt>
      <trkpt lat="48.787550" lon="9.887520">
        <ele>430.8</ele>
        <time>2026-08-30T11:01:09Z</time>
      </trkpt>
      <trkpt lat="48.787565" lon="9.887570">
        <ele>430.8</ele>
        <time>2026-08-30T11:01:10Z</time>
      </trkpt>
      <trkpt lat="48.787573" lon="9.887614">
        <ele>430.8</ele>
        <time>2026-08-30T11:01:11Z</time>
      </trkpt>
      <trkpt lat="48.787575" lon="9.887652">
        <ele>430.8</ele>
        <time>2026-08-30T11:01:12Z</time>
      </trkpt>
      <trkpt lat="48.787570" lon="9.887682">
        <ele>430.8</ele>
        <time>2026-08-30T11:01:13Z</time>
      </trkpt>
      <trkpt lat="48.787564" lon="9.887710">
        <ele>430.8</ele>
        <time>2026-08-30T11:01:14Z</time>
      </trkpt>
      <trkpt lat="48.787557" lon="9.887739">
        <ele>430.8</ele>
        <time>2026-08-30T11:01:15Z</time>
      </trkpt>
      <trkpt lat="48.787552" lon="9.887766">
        <ele>430.8</ele>
        <time>2026-08-30T11:01:16Z</time>
      </trkpt>
      <trkpt lat="48.787550" lon="9.887796">
        <ele>430.8</ele>
        <time>2026-08-30T11:01:17Z</time>
      </trkpt>
      <trkpt lat="48.787549" lon="9.887821">
        <ele>430.8</ele>
        <time>2026-08-30T11:01:18Z</time>
      </trkpt>
      <trkpt lat="48.787545" lon="9.887845">
        <ele>430.8</ele>
        <time>2026-08-30T11:01:19Z</time>
      </trkpt>
      <trkpt lat="48.787536" lon="9.887869">
        <ele>430.8</ele>
        <time>2026-08-30T11:01:20Z</time>
      </trkpt>
      <trkpt lat="48.787527" lon="9.887906">
        <ele>430.8</ele>
        <time>2026-08-30T11:01:21Z</time>
      </trkpt>
      <trkpt lat="48.787512" lon="9.887938">
        <ele>430.8</ele>
        <time>2026-08-30T11:01:22Z</time>
      </trkpt>
      <trkpt lat="48.787498" lon="9.887972">
        <ele>430.8</ele>
        <time>2026-08-30T11:01:23Z</time>
      </trkpt>
      <trkpt lat="48.787481" lon="9.888020">
        <ele>430.8</ele>
        <time>2026-08-30T11:01:24Z</time>
      </trkpt>
      <trkpt lat="48.787468" lon="9.888066">
        <ele>430.8</ele>
        <time>2026-08-30T11:01:25Z</time>
      </trkpt>
      <trkpt lat="48.787454" lon="9.888110">
        <ele>430.8</ele>
        <time>2026-08-30T11:01:26Z</time>
      </trkpt>
      <trkpt lat="48.787441" lon="9.888155">
        <ele>431</ele>
        <time>2026-08-30T11:01:27Z</time>
      </trkpt>
      <trkpt lat="48.787424" lon="9.888192">
        <ele>431</ele>
        <time>2026-08-30T11:01:28Z</time>
      </trkpt>
      <trkpt lat="48.787407" lon="9.888224">
        <ele>431</ele>
        <time>2026-08-30T11:01:29Z</time>
      </trkpt>
      <trkpt lat="48.787390" lon="9.888252">
        <ele>431.2</ele>
        <time>2026-08-30T11:01:30Z</time>
      </trkpt>
      <trkpt lat="48.787375" lon="9.888281">
        <ele>431.4</ele>
        <time>2026-08-30T11:01:31Z</time>
      </trkpt>
      <trkpt lat="48.787361" lon="9.888312">
        <ele>431.6</ele>
        <time>2026-08-30T11:01:32Z</time>
      </trkpt>
      <trkpt lat="48.787350" lon="9.888338">
        <ele>431.8</ele>
        <time>2026-08-30T11:01:33Z</time>
      </trkpt>
      <trkpt lat="48.787343" lon="9.888364">
        <ele>431.8</ele>
        <time>2026-08-30T11:01:34Z</time>
      </trkpt>
      <trkpt lat="48.787332" lon="9.888393">
        <ele>432</ele>
        <time>2026-08-30T11:01:35Z</time>
      </trkpt>
      <trkpt lat="48.787318" lon="9.888413">
        <ele>432.2</ele>
        <time>2026-08-30T11:01:36Z</time>
      </trkpt>
      <trkpt lat="48.787305" lon="9.888436">
        <ele>432.4</ele>
        <time>2026-08-30T11:01:37Z</time>
      </trkpt>
      <trkpt lat="48.787293" lon="9.888461">
        <ele>432.6</ele>
        <time>2026-08-30T11:01:38Z</time>
      </trkpt>
      <trkpt lat="48.787282" lon="9.888487">
        <ele>432.8</ele>
        <time>2026-08-30T11:01:39Z</time>
      </trkpt>
      <trkpt lat="48.787267" lon="9.888514">
        <ele>433</ele>
        <time>2026-08-30T11:01:40Z</time>
      </trkpt>
      <trkpt lat="48.787255" lon="9.888541">
        <ele>433.2</ele>
        <time>2026-08-30T11:01:41Z</time>
      </trkpt>
      <trkpt lat="48.787235" lon="9.888562">
        <ele>433.4</ele>
        <time>2026-08-30T11:01:42Z</time>
      </trkpt>
      <trkpt lat="48.787215" lon="9.888578">
        <ele>433.4</ele>
        <time>2026-08-30T11:01:43Z</time>
      </trkpt>
      <trkpt lat="48.787193" lon="9.888599">
        <ele>433.6</ele>
        <time>2026-08-30T11:01:44Z</time>
      </trkpt>
      <trkpt lat="48.787172" lon="9.888616">
        <ele>433.8</ele>
        <time>2026-08-30T11:01:45Z</time>
      </trkpt>
      <trkpt lat="48.787147" lon="9.888632">
        <ele>434</ele>
        <time>2026-08-30T11:01:46Z</time>
      </trkpt>
      <trkpt lat="48.787123" lon="9.888652">
        <ele>434.2</ele>
        <time>2026-08-30T11:01:47Z</time>
      </trkpt>
      <trkpt lat="48.787103" lon="9.888676">
        <ele>434.4</ele>
        <time>2026-08-30T11:01:48Z</time>
      </trkpt>
      <trkpt lat="48.787086" lon="9.888694">
        <ele>434.6</ele>
        <time>2026-08-30T11:01:49Z</time>
      </trkpt>
      <trkpt lat="48.787069" lon="9.888709">
        <ele>434.8</ele>
        <time>2026-08-30T11:01:50Z</time>
      </trkpt>
      <trkpt lat="48.787047" lon="9.888730">
        <ele>434.8</ele>
        <time>2026-08-30T11:01:51Z</time>
      </trkpt>
      <trkpt lat="48.787028" lon="9.888752">
        <ele>435</ele>
        <time>2026-08-30T11:01:52Z</time>
      </trkpt>
      <trkpt lat="48.787008" lon="9.888772">
        <ele>435.2</ele>
        <time>2026-08-30T11:01:53Z</time>
      </trkpt>
      <trkpt lat="48.786986" lon="9.888786">
        <ele>435.2</ele>
        <time>2026-08-30T11:01:54Z</time>
      </trkpt>
      <trkpt lat="48.786963" lon="9.888802">
        <ele>435.4</ele>
        <time>2026-08-30T11:01:55Z</time>
      </trkpt>
      <trkpt lat="48.786939" lon="9.888815">
        <ele>435.6</ele>
        <time>2026-08-30T11:01:56Z</time>
      </trkpt>
      <trkpt lat="48.786914" lon="9.888827">
        <ele>435.6</ele>
        <time>2026-08-30T11:01:57Z</time>
      </trkpt>
      <trkpt lat="48.786886" lon="9.888838">
        <ele>435.8</ele>
        <time>2026-08-30T11:01:58Z</time>
      </trkpt>
      <trkpt lat="48.786859" lon="9.888849">
        <ele>435.8</ele>
        <time>2026-08-30T11:01:59Z</time>
      </trkpt>
      <trkpt lat="48.786834" lon="9.888868">
        <ele>436</ele>
        <time>2026-08-30T11:02:00Z</time>
      </trkpt>
      <trkpt lat="48.786809" lon="9.888889">
        <ele>436</ele>
        <time>2026-08-30T11:02:01Z</time>
      </trkpt>
      <trkpt lat="48.786787" lon="9.888914">
        <ele>436</ele>
        <time>2026-08-30T11:02:02Z</time>
      </trkpt>
      <trkpt lat="48.786766" lon="9.888940">
        <ele>436.2</ele>
        <time>2026-08-30T11:02:03Z</time>
      </trkpt>
      <trkpt lat="48.786742" lon="9.888960">
        <ele>436.2</ele>
        <time>2026-08-30T11:02:04Z</time>
      </trkpt>
      <trkpt lat="48.786717" lon="9.888985">
        <ele>436.4</ele>
        <time>2026-08-30T11:02:05Z</time>
      </trkpt>
      <trkpt lat="48.786691" lon="9.889013">
        <ele>436.4</ele>
        <time>2026-08-30T11:02:06Z</time>
      </trkpt>
      <trkpt lat="48.786664" lon="9.889040">
        <ele>436.4</ele>
        <time>2026-08-30T11:02:07Z</time>
      </trkpt>
      <trkpt lat="48.786638" lon="9.889066">
        <ele>436.6</ele>
        <time>2026-08-30T11:02:08Z</time>
      </trkpt>
      <trkpt lat="48.786611" lon="9.889093">
        <ele>436.6</ele>
        <time>2026-08-30T11:02:09Z</time>
      </trkpt>
      <trkpt lat="48.786583" lon="9.889121">
        <ele>436.8</ele>
        <time>2026-08-30T11:02:10Z</time>
      </trkpt>
      <trkpt lat="48.786557" lon="9.889144">
        <ele>436.8</ele>
        <time>2026-08-30T11:02:11Z</time>
      </trkpt>
      <trkpt lat="48.786534" lon="9.889172">
        <ele>437</ele>
        <time>2026-08-30T11:02:12Z</time>
      </trkpt>
      <trkpt lat="48.786512" lon="9.889201">
        <ele>437</ele>
        <time>2026-08-30T11:02:13Z</time>
      </trkpt>
      <trkpt lat="48.786489" lon="9.889231">
        <ele>437</ele>
        <time>2026-08-30T11:02:14Z</time>
      </trkpt>
      <trkpt lat="48.786465" lon="9.889261">
        <ele>437.2</ele>
        <time>2026-08-30T11:02:15Z</time>
      </trkpt>
      <trkpt lat="48.786444" lon="9.889289">
        <ele>437.2</ele>
        <time>2026-08-30T11:02:16Z</time>
      </trkpt>
      <trkpt lat="48.786420" lon="9.889318">
        <ele>437.4</ele>
        <time>2026-08-30T11:02:17Z</time>
      </trkpt>
      <trkpt lat="48.786398" lon="9.889353">
        <ele>437.6</ele>
        <time>2026-08-30T11:02:18Z</time>
      </trkpt>
      <trkpt lat="48.786378" lon="9.889393">
        <ele>437.6</ele>
        <time>2026-08-30T11:02:19Z</time>
      </trkpt>
      <trkpt lat="48.786359" lon="9.889434">
        <ele>437.8</ele>
        <time>2026-08-30T11:02:20Z</time>
      </trkpt>
      <trkpt lat="48.786341" lon="9.889475">
        <ele>437.8</ele>
        <time>2026-08-30T11:02:21Z</time>
      </trkpt>
      <trkpt lat="48.786323" lon="9.889510">
        <ele>438</ele>
        <time>2026-08-30T11:02:22Z</time>
      </trkpt>
      <trkpt lat="48.786303" lon="9.889543">
        <ele>438.2</ele>
        <time>2026-08-30T11:02:23Z</time>
      </trkpt>
      <trkpt lat="48.786285" lon="9.889582">
        <ele>438.2</ele>
        <time>2026-08-30T11:02:24Z</time>
      </trkpt>
      <trkpt lat="48.786269" lon="9.889622">
        <ele>438.4</ele>
        <time>2026-08-30T11:02:25Z</time>
      </trkpt>
      <trkpt lat="48.786250" lon="9.889660">
        <ele>438.6</ele>
        <time>2026-08-30T11:02:26Z</time>
      </trkpt>
      <trkpt lat="48.786236" lon="9.889698">
        <ele>438.6</ele>
        <time>2026-08-30T11:02:27Z</time>
      </trkpt>
      <trkpt lat="48.786224" lon="9.889735">
        <ele>438.8</ele>
        <time>2026-08-30T11:02:28Z</time>
      </trkpt>
      <trkpt lat="48.786216" lon="9.889772">
        <ele>439</ele>
        <time>2026-08-30T11:02:29Z</time>
      </trkpt>
      <trkpt lat="48.786206" lon="9.889813">
        <ele>439</ele>
        <time>2026-08-30T11:02:30Z</time>
      </trkpt>
      <trkpt lat="48.786193" lon="9.889853">
        <ele>439.2</ele>
        <time>2026-08-30T11:02:31Z</time>
      </trkpt>
      <trkpt lat="48.786174" lon="9.889892">
        <ele>439.2</ele>
        <time>2026-08-30T11:02:32Z</time>
      </trkpt>
      <trkpt lat="48.786154" lon="9.889930">
        <ele>439.4</ele>
        <time>2026-08-30T11:02:33Z</time>
      </trkpt>
      <trkpt lat="48.786135" lon="9.889967">
        <ele>439.6</ele>
        <time>2026-08-30T11:02:34Z</time>
      </trkpt>
      <trkpt lat="48.786117" lon="9.890007">
        <ele>439.6</ele>
        <time>2026-08-30T11:02:35Z</time>
      </trkpt>
      <trkpt lat="48.786098" lon="9.890043">
        <ele>439.8</ele>
        <time>2026-08-30T11:02:36Z</time>
      </trkpt>
      <trkpt lat="48.786080" lon="9.890075">
        <ele>439.8</ele>
        <time>2026-08-30T11:02:37Z</time>
      </trkpt>
      <trkpt lat="48.786064" lon="9.890111">
        <ele>440</ele>
        <time>2026-08-30T11:02:38Z</time>
      </trkpt>
      <trkpt lat="48.786049" lon="9.890151">
        <ele>440</ele>
        <time>2026-08-30T11:02:39Z</time>
      </trkpt>
      <trkpt lat="48.786029" lon="9.890183">
        <ele>440.2</ele>
        <time>2026-08-30T11:02:40Z</time>
      </trkpt>
      <trkpt lat="48.786007" lon="9.890218">
        <ele>440.4</ele>
        <time>2026-08-30T11:02:41Z</time>
      </trkpt>
      <trkpt lat="48.785989" lon="9.890247">
        <ele>440.4</ele>
        <time>2026-08-30T11:02:42Z</time>
      </trkpt>
      <trkpt lat="48.785971" lon="9.890280">
        <ele>440.6</ele>
        <time>2026-08-30T11:02:43Z</time>
      </trkpt>
      <trkpt lat="48.785949" lon="9.890319">
        <ele>440.8</ele>
        <time>2026-08-30T11:02:44Z</time>
      </trkpt>
      <trkpt lat="48.785929" lon="9.890350">
        <ele>441</ele>
        <time>2026-08-30T11:02:45Z</time>
      </trkpt>
      <trkpt lat="48.785913" lon="9.890382">
        <ele>441.2</ele>
        <time>2026-08-30T11:02:46Z</time>
      </trkpt>
      <trkpt lat="48.785893" lon="9.890416">
        <ele>441.2</ele>
        <time>2026-08-30T11:02:47Z</time>
      </trkpt>
      <trkpt lat="48.785870" lon="9.890453">
        <ele>441.4</ele>
        <time>2026-08-30T11:02:48Z</time>
      </trkpt>
      <trkpt lat="48.785850" lon="9.890485">
        <ele>441.6</ele>
        <time>2026-08-30T11:02:49Z</time>
      </trkpt>
      <trkpt lat="48.785830" lon="9.890521">
        <ele>441.6</ele>
        <time>2026-08-30T11:02:50Z</time>
      </trkpt>
      <trkpt lat="48.785804" lon="9.890562">
        <ele>441.6</ele>
        <time>2026-08-30T11:02:51Z</time>
      </trkpt>
      <trkpt lat="48.785777" lon="9.890593">
        <ele>441.8</ele>
        <time>2026-08-30T11:02:52Z</time>
      </trkpt>
      <trkpt lat="48.785746" lon="9.890623">
        <ele>441.8</ele>
        <time>2026-08-30T11:02:53Z</time>
      </trkpt>
      <trkpt lat="48.785718" lon="9.890653">
        <ele>441.8</ele>
        <time>2026-08-30T11:02:54Z</time>
      </trkpt>
      <trkpt lat="48.785692" lon="9.890686">
        <ele>441.8</ele>
        <time>2026-08-30T11:02:55Z</time>
      </trkpt>
      <trkpt lat="48.785661" lon="9.890707">
        <ele>442</ele>
        <time>2026-08-30T11:02:56Z</time>
      </trkpt>
      <trkpt lat="48.785632" lon="9.890729">
        <ele>442</ele>
        <time>2026-08-30T11:02:57Z</time>
      </trkpt>
      <trkpt lat="48.785602" lon="9.890753">
        <ele>442</ele>
        <time>2026-08-30T11:02:58Z</time>
      </trkpt>
      <trkpt lat="48.785572" lon="9.890772">
        <ele>442</ele>
        <time>2026-08-30T11:02:59Z</time>
      </trkpt>
      <trkpt lat="48.785544" lon="9.890787">
        <ele>442</ele>
        <time>2026-08-30T11:03:00Z</time>
      </trkpt>
      <trkpt lat="48.785516" lon="9.890808">
        <ele>442</ele>
        <time>2026-08-30T11:03:01Z</time>
      </trkpt>
      <trkpt lat="48.785490" lon="9.890829">
        <ele>442.2</ele>
        <time>2026-08-30T11:03:02Z</time>
      </trkpt>
      <trkpt lat="48.785461" lon="9.890846">
        <ele>442.2</ele>
        <time>2026-08-30T11:03:03Z</time>
      </trkpt>
      <trkpt lat="48.785434" lon="9.890865">
        <ele>442.4</ele>
        <time>2026-08-30T11:03:04Z</time>
      </trkpt>
      <trkpt lat="48.785410" lon="9.890889">
        <ele>442.6</ele>
        <time>2026-08-30T11:03:05Z</time>
      </trkpt>
      <trkpt lat="48.785387" lon="9.890910">
        <ele>442.8</ele>
        <time>2026-08-30T11:03:06Z</time>
      </trkpt>
      <trkpt lat="48.785361" lon="9.890939">
        <ele>442.8</ele>
        <time>2026-08-30T11:03:07Z</time>
      </trkpt>
      <trkpt lat="48.785335" lon="9.890959">
        <ele>443</ele>
        <time>2026-08-30T11:03:08Z</time>
      </trkpt>
      <trkpt lat="48.785310" lon="9.890983">
        <ele>443.2</ele>
        <time>2026-08-30T11:03:09Z</time>
      </trkpt>
      <trkpt lat="48.785284" lon="9.891007">
        <ele>443.4</ele>
        <time>2026-08-30T11:03:10Z</time>
      </trkpt>
      <trkpt lat="48.785260" lon="9.891030">
        <ele>443.4</ele>
        <time>2026-08-30T11:03:11Z</time>
      </trkpt>
      <trkpt lat="48.785234" lon="9.891050">
        <ele>443.6</ele>
        <time>2026-08-30T11:03:12Z</time>
      </trkpt>
      <trkpt lat="48.785210" lon="9.891069">
        <ele>443.8</ele>
        <time>2026-08-30T11:03:13Z</time>
      </trkpt>
      <trkpt lat="48.785185" lon="9.891088">
        <ele>444</ele>
        <time>2026-08-30T11:03:14Z</time>
      </trkpt>
      <trkpt lat="48.785162" lon="9.891108">
        <ele>444</ele>
        <time>2026-08-30T11:03:15Z</time>
      </trkpt>
      <trkpt lat="48.785142" lon="9.891131">
        <ele>444.2</ele>
        <time>2026-08-30T11:03:16Z</time>
      </trkpt>
      <trkpt lat="48.785120" lon="9.891150">
        <ele>444.4</ele>
        <time>2026-08-30T11:03:17Z</time>
      </trkpt>
      <trkpt lat="48.785099" lon="9.891170">
        <ele>444.6</ele>
        <time>2026-08-30T11:03:18Z</time>
      </trkpt>
      <trkpt lat="48.785073" lon="9.891192">
        <ele>444.6</ele>
        <time>2026-08-30T11:03:19Z</time>
      </trkpt>
      <trkpt lat="48.785051" lon="9.891211">
        <ele>444.8</ele>
        <time>2026-08-30T11:03:20Z</time>
      </trkpt>
      <trkpt lat="48.785029" lon="9.891237">
        <ele>445</ele>
        <time>2026-08-30T11:03:21Z</time>
      </trkpt>
      <trkpt lat="48.785007" lon="9.891262">
        <ele>445</ele>
        <time>2026-08-30T11:03:22Z</time>
      </trkpt>
      <trkpt lat="48.784982" lon="9.891288">
        <ele>445.2</ele>
        <time>2026-08-30T11:03:23Z</time>
      </trkpt>
      <trkpt lat="48.784958" lon="9.891310">
        <ele>445.4</ele>
        <time>2026-08-30T11:03:24Z</time>
      </trkpt>
      <trkpt lat="48.784935" lon="9.891330">
        <ele>445.6</ele>
        <time>2026-08-30T11:03:25Z</time>
      </trkpt>
      <trkpt lat="48.784913" lon="9.891343">
        <ele>445.6</ele>
        <time>2026-08-30T11:03:26Z</time>
      </trkpt>
      <trkpt lat="48.784888" lon="9.891364">
        <ele>445.8</ele>
        <time>2026-08-30T11:03:27Z</time>
      </trkpt>
      <trkpt lat="48.784864" lon="9.891389">
        <ele>445.8</ele>
        <time>2026-08-30T11:03:28Z</time>
      </trkpt>
      <trkpt lat="48.784841" lon="9.891414">
        <ele>445.8</ele>
        <time>2026-08-30T11:03:29Z</time>
      </trkpt>
      <trkpt lat="48.784816" lon="9.891438">
        <ele>446</ele>
        <time>2026-08-30T11:03:30Z</time>
      </trkpt>
      <trkpt lat="48.784792" lon="9.891455">
        <ele>446.2</ele>
        <time>2026-08-30T11:03:31Z</time>
      </trkpt>
      <trkpt lat="48.784768" lon="9.891467">
        <ele>446.2</ele>
        <time>2026-08-30T11:03:32Z</time>
      </trkpt>
      <trkpt lat="48.784741" lon="9.891478">
        <ele>446.2</ele>
        <time>2026-08-30T11:03:33Z</time>
      </trkpt>
      <trkpt lat="48.784713" lon="9.891494">
        <ele>446.4</ele>
        <time>2026-08-30T11:03:34Z</time>
      </trkpt>
      <trkpt lat="48.784686" lon="9.891507">
        <ele>446.4</ele>
        <time>2026-08-30T11:03:35Z</time>
      </trkpt>
      <trkpt lat="48.784657" lon="9.891522">
        <ele>446.6</ele>
        <time>2026-08-30T11:03:36Z</time>
      </trkpt>
      <trkpt lat="48.784628" lon="9.891536">
        <ele>446.6</ele>
        <time>2026-08-30T11:03:37Z</time>
      </trkpt>
      <trkpt lat="48.784600" lon="9.891544">
        <ele>446.8</ele>
        <time>2026-08-30T11:03:38Z</time>
      </trkpt>
      <trkpt lat="48.784569" lon="9.891549">
        <ele>446.8</ele>
        <time>2026-08-30T11:03:39Z</time>
      </trkpt>
      <trkpt lat="48.784540" lon="9.891557">
        <ele>446.8</ele>
        <time>2026-08-30T11:03:40Z</time>
      </trkpt>
      <trkpt lat="48.784510" lon="9.891567">
        <ele>447</ele>
        <time>2026-08-30T11:03:41Z</time>
      </trkpt>
      <trkpt lat="48.784479" lon="9.891582">
        <ele>447</ele>
        <time>2026-08-30T11:03:42Z</time>
      </trkpt>
      <trkpt lat="48.784451" lon="9.891595">
        <ele>447</ele>
        <time>2026-08-30T11:03:43Z</time>
      </trkpt>
      <trkpt lat="48.784420" lon="9.891612">
        <ele>447.2</ele>
        <time>2026-08-30T11:03:44Z</time>
      </trkpt>
      <trkpt lat="48.784393" lon="9.891634">
        <ele>447.2</ele>
        <time>2026-08-30T11:03:45Z</time>
      </trkpt>
      <trkpt lat="48.784364" lon="9.891655">
        <ele>447.2</ele>
        <time>2026-08-30T11:03:46Z</time>
      </trkpt>
      <trkpt lat="48.784339" lon="9.891681">
        <ele>447.4</ele>
        <time>2026-08-30T11:03:47Z</time>
      </trkpt>
      <trkpt lat="48.784311" lon="9.891708">
        <ele>447.4</ele>
        <time>2026-08-30T11:03:48Z</time>
      </trkpt>
      <trkpt lat="48.784289" lon="9.891739">
        <ele>447.4</ele>
        <time>2026-08-30T11:03:49Z</time>
      </trkpt>
      <trkpt lat="48.784270" lon="9.891776">
        <ele>447.6</ele>
        <time>2026-08-30T11:03:50Z</time>
      </trkpt>
      <trkpt lat="48.784252" lon="9.891812">
        <ele>447.6</ele>
        <time>2026-08-30T11:03:51Z</time>
      </trkpt>
      <trkpt lat="48.784234" lon="9.891847">
        <ele>447.8</ele>
        <time>2026-08-30T11:03:52Z</time>
      </trkpt>
      <trkpt lat="48.784210" lon="9.891878">
        <ele>447.8</ele>
        <time>2026-08-30T11:03:53Z</time>
      </trkpt>
      <trkpt lat="48.784185" lon="9.891909">
        <ele>447.8</ele>
        <time>2026-08-30T11:03:54Z</time>
      </trkpt>
      <trkpt lat="48.784165" lon="9.891942">
        <ele>448</ele>
        <time>2026-08-30T11:03:55Z</time>
      </trkpt>
      <trkpt lat="48.784143" lon="9.891976">
        <ele>448</ele>
        <time>2026-08-30T11:03:56Z</time>
      </trkpt>
      <trkpt lat="48.784122" lon="9.892010">
        <ele>448.2</ele>
        <time>2026-08-30T11:03:57Z</time>
      </trkpt>
      <trkpt lat="48.784102" lon="9.892043">
        <ele>448.4</ele>
        <time>2026-08-30T11:03:58Z</time>
      </trkpt>
      <trkpt lat="48.784085" lon="9.892078">
        <ele>448.4</ele>
        <time>2026-08-30T11:03:59Z</time>
      </trkpt>
      <trkpt lat="48.784065" lon="9.892113">
        <ele>448.6</ele>
        <time>2026-08-30T11:04:00Z</time>
      </trkpt>
      <trkpt lat="48.784042" lon="9.892141">
        <ele>448.8</ele>
        <time>2026-08-30T11:04:01Z</time>
      </trkpt>
      <trkpt lat="48.784017" lon="9.892172">
        <ele>448.8</ele>
        <time>2026-08-30T11:04:02Z</time>
      </trkpt>
      <trkpt lat="48.783997" lon="9.892205">
        <ele>449</ele>
        <time>2026-08-30T11:04:03Z</time>
      </trkpt>
      <trkpt lat="48.783982" lon="9.892243">
        <ele>449.2</ele>
        <time>2026-08-30T11:04:04Z</time>
      </trkpt>
      <trkpt lat="48.783965" lon="9.892279">
        <ele>449.2</ele>
        <time>2026-08-30T11:04:05Z</time>
      </trkpt>
      <trkpt lat="48.783947" lon="9.892316">
        <ele>449.4</ele>
        <time>2026-08-30T11:04:06Z</time>
      </trkpt>
      <trkpt lat="48.783931" lon="9.892351">
        <ele>449.6</ele>
        <time>2026-08-30T11:04:07Z</time>
      </trkpt>
      <trkpt lat="48.783917" lon="9.892388">
        <ele>449.6</ele>
        <time>2026-08-30T11:04:08Z</time>
      </trkpt>
      <trkpt lat="48.783901" lon="9.892420">
        <ele>449.8</ele>
        <time>2026-08-30T11:04:09Z</time>
      </trkpt>
      <trkpt lat="48.783884" lon="9.892456">
        <ele>450</ele>
        <time>2026-08-30T11:04:10Z</time>
      </trkpt>
      <trkpt lat="48.783866" lon="9.892489">
        <ele>450</ele>
        <time>2026-08-30T11:04:11Z</time>
      </trkpt>
      <trkpt lat="48.783847" lon="9.892524">
        <ele>450.2</ele>
        <time>2026-08-30T11:04:12Z</time>
      </trkpt>
      <trkpt lat="48.783828" lon="9.892556">
        <ele>450.4</ele>
        <time>2026-08-30T11:04:13Z</time>
      </trkpt>
      <trkpt lat="48.783811" lon="9.892588">
        <ele>450.4</ele>
        <time>2026-08-30T11:04:14Z</time>
      </trkpt>
      <trkpt lat="48.783793" lon="9.892620">
        <ele>450.6</ele>
        <time>2026-08-30T11:04:15Z</time>
      </trkpt>
      <trkpt lat="48.783775" lon="9.892653">
        <ele>450.8</ele>
        <time>2026-08-30T11:04:16Z</time>
      </trkpt>
      <trkpt lat="48.783758" lon="9.892687">
        <ele>450.8</ele>
        <time>2026-08-30T11:04:17Z</time>
      </trkpt>
      <trkpt lat="48.783743" lon="9.892719">
        <ele>451</ele>
        <time>2026-08-30T11:04:18Z</time>
      </trkpt>
      <trkpt lat="48.783726" lon="9.892745">
        <ele>451.2</ele>
        <time>2026-08-30T11:04:19Z</time>
      </trkpt>
      <trkpt lat="48.783707" lon="9.892775">
        <ele>451.2</ele>
        <time>2026-08-30T11:04:20Z</time>
      </trkpt>
      <trkpt lat="48.783688" lon="9.892808">
        <ele>451.4</ele>
        <time>2026-08-30T11:04:21Z</time>
      </trkpt>
      <trkpt lat="48.783669" lon="9.892844">
        <ele>451.4</ele>
        <time>2026-08-30T11:04:22Z</time>
      </trkpt>
      <trkpt lat="48.783652" lon="9.892877">
        <ele>451.6</ele>
        <time>2026-08-30T11:04:23Z</time>
      </trkpt>
      <trkpt lat="48.783634" lon="9.892908">
        <ele>451.6</ele>
        <time>2026-08-30T11:04:24Z</time>
      </trkpt>
      <trkpt lat="48.783611" lon="9.892939">
        <ele>451.8</ele>
        <time>2026-08-30T11:04:25Z</time>
      </trkpt>
      <trkpt lat="48.783588" lon="9.892964">
        <ele>452</ele>
        <time>2026-08-30T11:04:26Z</time>
      </trkpt>
      <trkpt lat="48.783566" lon="9.892993">
        <ele>452</ele>
        <time>2026-08-30T11:04:27Z</time>
      </trkpt>
      <trkpt lat="48.783550" lon="9.893017">
        <ele>452.2</ele>
        <time>2026-08-30T11:04:28Z</time>
      </trkpt>
      <trkpt lat="48.783536" lon="9.893046">
        <ele>452.4</ele>
        <time>2026-08-30T11:04:29Z</time>
      </trkpt>
      <trkpt lat="48.783517" lon="9.893081">
        <ele>452.4</ele>
        <time>2026-08-30T11:04:30Z</time>
      </trkpt>
      <trkpt lat="48.783497" lon="9.893114">
        <ele>452.6</ele>
        <time>2026-08-30T11:04:31Z</time>
      </trkpt>
      <trkpt lat="48.783475" lon="9.893147">
        <ele>452.8</ele>
        <time>2026-08-30T11:04:32Z</time>
      </trkpt>
      <trkpt lat="48.783454" lon="9.893185">
        <ele>452.8</ele>
        <time>2026-08-30T11:04:33Z</time>
      </trkpt>
      <trkpt lat="48.783432" lon="9.893217">
        <ele>453</ele>
        <time>2026-08-30T11:04:34Z</time>
      </trkpt>
      <trkpt lat="48.783410" lon="9.893248">
        <ele>453</ele>
        <time>2026-08-30T11:04:35Z</time>
      </trkpt>
      <trkpt lat="48.783390" lon="9.893274">
        <ele>453.2</ele>
        <time>2026-08-30T11:04:36Z</time>
      </trkpt>
      <trkpt lat="48.783370" lon="9.893302">
        <ele>453.2</ele>
        <time>2026-08-30T11:04:37Z</time>
      </trkpt>
      <trkpt lat="48.783351" lon="9.893330">
        <ele>453.4</ele>
        <time>2026-08-30T11:04:38Z</time>
      </trkpt>
      <trkpt lat="48.783330" lon="9.893364">
        <ele>453.4</ele>
        <time>2026-08-30T11:04:39Z</time>
      </trkpt>
      <trkpt lat="48.783310" lon="9.893398">
        <ele>453.6</ele>
        <time>2026-08-30T11:04:40Z</time>
      </trkpt>
      <trkpt lat="48.783290" lon="9.893437">
        <ele>453.8</ele>
        <time>2026-08-30T11:04:41Z</time>
      </trkpt>
      <trkpt lat="48.783273" lon="9.893468">
        <ele>453.8</ele>
        <time>2026-08-30T11:04:42Z</time>
      </trkpt>
      <trkpt lat="48.783251" lon="9.893497">
        <ele>454</ele>
        <time>2026-08-30T11:04:43Z</time>
      </trkpt>
      <trkpt lat="48.783229" lon="9.893530">
        <ele>454.2</ele>
        <time>2026-08-30T11:04:44Z</time>
      </trkpt>
      <trkpt lat="48.783207" lon="9.893563">
        <ele>454.2</ele>
        <time>2026-08-30T11:04:45Z</time>
      </trkpt>
      <trkpt lat="48.783182" lon="9.893591">
        <ele>454.4</ele>
        <time>2026-08-30T11:04:46Z</time>
      </trkpt>
      <trkpt lat="48.783152" lon="9.893614">
        <ele>454.4</ele>
        <time>2026-08-30T11:04:47Z</time>
      </trkpt>
      <trkpt lat="48.783122" lon="9.893642">
        <ele>454.6</ele>
        <time>2026-08-30T11:04:48Z</time>
      </trkpt>
      <trkpt lat="48.783097" lon="9.893675">
        <ele>454.6</ele>
        <time>2026-08-30T11:04:49Z</time>
      </trkpt>
      <trkpt lat="48.783078" lon="9.893709">
        <ele>454.8</ele>
        <time>2026-08-30T11:04:50Z</time>
      </trkpt>
      <trkpt lat="48.783058" lon="9.893737">
        <ele>455</ele>
        <time>2026-08-30T11:04:51Z</time>
      </trkpt>
      <trkpt lat="48.783035" lon="9.893760">
        <ele>455.2</ele>
        <time>2026-08-30T11:04:52Z</time>
      </trkpt>
      <trkpt lat="48.783013" lon="9.893782">
        <ele>455.2</ele>
        <time>2026-08-30T11:04:53Z</time>
      </trkpt>
      <trkpt lat="48.782990" lon="9.893800">
        <ele>455.4</ele>
        <time>2026-08-30T11:04:54Z</time>
      </trkpt>
      <trkpt lat="48.782967" lon="9.893822">
        <ele>455.6</ele>
        <time>2026-08-30T11:04:55Z</time>
      </trkpt>
      <trkpt lat="48.782944" lon="9.893847">
        <ele>455.8</ele>
        <time>2026-08-30T11:04:56Z</time>
      </trkpt>
      <trkpt lat="48.782924" lon="9.893860">
        <ele>456</ele>
        <time>2026-08-30T11:04:57Z</time>
      </trkpt>
      <trkpt lat="48.782906" lon="9.893869">
        <ele>456.2</ele>
        <time>2026-08-30T11:04:58Z</time>
      </trkpt>
      <trkpt lat="48.782883" lon="9.893876">
        <ele>456.4</ele>
        <time>2026-08-30T11:04:59Z</time>
      </trkpt>
      <trkpt lat="48.782862" lon="9.893883">
        <ele>456.6</ele>
        <time>2026-08-30T11:05:00Z</time>
      </trkpt>
      <trkpt lat="48.782840" lon="9.893891">
        <ele>456.8</ele>
        <time>2026-08-30T11:05:01Z</time>
      </trkpt>
      <trkpt lat="48.782818" lon="9.893890">
        <ele>457</ele>
        <time>2026-08-30T11:05:02Z</time>
      </trkpt>
      <trkpt lat="48.782793" lon="9.893892">
        <ele>457.2</ele>
        <time>2026-08-30T11:05:03Z</time>
      </trkpt>
      <trkpt lat="48.782769" lon="9.893894">
        <ele>457.4</ele>
        <time>2026-08-30T11:05:04Z</time>
      </trkpt>
      <trkpt lat="48.782748" lon="9.893902">
        <ele>457.4</ele>
        <time>2026-08-30T11:05:05Z</time>
      </trkpt>
      <trkpt lat="48.782723" lon="9.893909">
        <ele>457.6</ele>
        <time>2026-08-30T11:05:06Z</time>
      </trkpt>
      <trkpt lat="48.782699" lon="9.893915">
        <ele>457.8</ele>
        <time>2026-08-30T11:05:07Z</time>
      </trkpt>
      <trkpt lat="48.782672" lon="9.893920">
        <ele>457.8</ele>
        <time>2026-08-30T11:05:08Z</time>
      </trkpt>
      <trkpt lat="48.782644" lon="9.893924">
        <ele>458</ele>
        <time>2026-08-30T11:05:09Z</time>
      </trkpt>
      <trkpt lat="48.782617" lon="9.893930">
        <ele>458.2</ele>
        <time>2026-08-30T11:05:10Z</time>
      </trkpt>
      <trkpt lat="48.782591" lon="9.893939">
        <ele>458.4</ele>
        <time>2026-08-30T11:05:11Z</time>
      </trkpt>
      <trkpt lat="48.782566" lon="9.893946">
        <ele>458.4</ele>
        <time>2026-08-30T11:05:12Z</time>
      </trkpt>
      <trkpt lat="48.782541" lon="9.893952">
        <ele>458.6</ele>
        <time>2026-08-30T11:05:13Z</time>
      </trkpt>
      <trkpt lat="48.782514" lon="9.893958">
        <ele>458.8</ele>
        <time>2026-08-30T11:05:14Z</time>
      </trkpt>
      <trkpt lat="48.782486" lon="9.893963">
        <ele>458.8</ele>
        <time>2026-08-30T11:05:15Z</time>
      </trkpt>
      <trkpt lat="48.782456" lon="9.893972">
        <ele>459</ele>
        <time>2026-08-30T11:05:16Z</time>
      </trkpt>
      <trkpt lat="48.782429" lon="9.893981">
        <ele>459</ele>
        <time>2026-08-30T11:05:17Z</time>
      </trkpt>
      <trkpt lat="48.782401" lon="9.893989">
        <ele>459.2</ele>
        <time>2026-08-30T11:05:18Z</time>
      </trkpt>
      <trkpt lat="48.782373" lon="9.893991">
        <ele>459.4</ele>
        <time>2026-08-30T11:05:19Z</time>
      </trkpt>
      <trkpt lat="48.782344" lon="9.893990">
        <ele>459.4</ele>
        <time>2026-08-30T11:05:20Z</time>
      </trkpt>
      <trkpt lat="48.782312" lon="9.893996">
        <ele>459.6</ele>
        <time>2026-08-30T11:05:21Z</time>
      </trkpt>
      <trkpt lat="48.782282" lon="9.894000">
        <ele>459.8</ele>
        <time>2026-08-30T11:05:22Z</time>
      </trkpt>
      <trkpt lat="48.782255" lon="9.894005">
        <ele>459.8</ele>
        <time>2026-08-30T11:05:23Z</time>
      </trkpt>
      <trkpt lat="48.782228" lon="9.894012">
        <ele>460</ele>
        <time>2026-08-30T11:05:24Z</time>
      </trkpt>
      <trkpt lat="48.782204" lon="9.894017">
        <ele>460</ele>
        <time>2026-08-30T11:05:25Z</time>
      </trkpt>
      <trkpt lat="48.782178" lon="9.894018">
        <ele>460.2</ele>
        <time>2026-08-30T11:05:26Z</time>
      </trkpt>
      <trkpt lat="48.782150" lon="9.894016">
        <ele>460.2</ele>
        <time>2026-08-30T11:05:27Z</time>
      </trkpt>
      <trkpt lat="48.782119" lon="9.894022">
        <ele>460.4</ele>
        <time>2026-08-30T11:05:28Z</time>
      </trkpt>
      <trkpt lat="48.782092" lon="9.894032">
        <ele>460.4</ele>
        <time>2026-08-30T11:05:29Z</time>
      </trkpt>
      <trkpt lat="48.782067" lon="9.894044">
        <ele>460.4</ele>
        <time>2026-08-30T11:05:30Z</time>
      </trkpt>
      <trkpt lat="48.782043" lon="9.894049">
        <ele>460.6</ele>
        <time>2026-08-30T11:05:31Z</time>
      </trkpt>
      <trkpt lat="48.782015" lon="9.894051">
        <ele>460.6</ele>
        <time>2026-08-30T11:05:32Z</time>
      </trkpt>
      <trkpt lat="48.781985" lon="9.894058">
        <ele>460.8</ele>
        <time>2026-08-30T11:05:33Z</time>
      </trkpt>
      <trkpt lat="48.781959" lon="9.894069">
        <ele>460.8</ele>
        <time>2026-08-30T11:05:34Z</time>
      </trkpt>
      <trkpt lat="48.781932" lon="9.894076">
        <ele>461</ele>
        <time>2026-08-30T11:05:35Z</time>
      </trkpt>
      <trkpt lat="48.781907" lon="9.894081">
        <ele>461.2</ele>
        <time>2026-08-30T11:05:36Z</time>
      </trkpt>
      <trkpt lat="48.781880" lon="9.894084">
        <ele>461.4</ele>
        <time>2026-08-30T11:05:37Z</time>
      </trkpt>
      <trkpt lat="48.781855" lon="9.894085">
        <ele>461.6</ele>
        <time>2026-08-30T11:05:38Z</time>
      </trkpt>
      <trkpt lat="48.781832" lon="9.894089">
        <ele>461.6</ele>
        <time>2026-08-30T11:05:39Z</time>
      </trkpt>
      <trkpt lat="48.781810" lon="9.894090">
        <ele>461.8</ele>
        <time>2026-08-30T11:05:40Z</time>
      </trkpt>
      <trkpt lat="48.781785" lon="9.894098">
        <ele>462</ele>
        <time>2026-08-30T11:05:41Z</time>
      </trkpt>
      <trkpt lat="48.781759" lon="9.894113">
        <ele>462.2</ele>
        <time>2026-08-30T11:05:42Z</time>
      </trkpt>
      <trkpt lat="48.781733" lon="9.894127">
        <ele>462.2</ele>
        <time>2026-08-30T11:05:43Z</time>
      </trkpt>
      <trkpt lat="48.781707" lon="9.894137">
        <ele>462.4</ele>
        <time>2026-08-30T11:05:44Z</time>
      </trkpt>
      <trkpt lat="48.781679" lon="9.894151">
        <ele>462.4</ele>
        <time>2026-08-30T11:05:45Z</time>
      </trkpt>
      <trkpt lat="48.781654" lon="9.894165">
        <ele>462.6</ele>
        <time>2026-08-30T11:05:46Z</time>
      </trkpt>
      <trkpt lat="48.781627" lon="9.894180">
        <ele>462.8</ele>
        <time>2026-08-30T11:05:47Z</time>
      </trkpt>
      <trkpt lat="48.781603" lon="9.894199">
        <ele>463</ele>
        <time>2026-08-30T11:05:48Z</time>
      </trkpt>
      <trkpt lat="48.781577" lon="9.894215">
        <ele>463</ele>
        <time>2026-08-30T11:05:49Z</time>
      </trkpt>
      <trkpt lat="48.781553" lon="9.894237">
        <ele>463.2</ele>
        <time>2026-08-30T11:05:50Z</time>
      </trkpt>
      <trkpt lat="48.781529" lon="9.894260">
        <ele>463.4</ele>
        <time>2026-08-30T11:05:51Z</time>
      </trkpt>
      <trkpt lat="48.781507" lon="9.894284">
        <ele>463.6</ele>
        <time>2026-08-30T11:05:52Z</time>
      </trkpt>
      <trkpt lat="48.781485" lon="9.894307">
        <ele>463.6</ele>
        <time>2026-08-30T11:05:53Z</time>
      </trkpt>
      <trkpt lat="48.781459" lon="9.894329">
        <ele>463.8</ele>
        <time>2026-08-30T11:05:54Z</time>
      </trkpt>
      <trkpt lat="48.781432" lon="9.894353">
        <ele>464</ele>
        <time>2026-08-30T11:05:55Z</time>
      </trkpt>
      <trkpt lat="48.781407" lon="9.894378">
        <ele>464</ele>
        <time>2026-08-30T11:05:56Z</time>
      </trkpt>
      <trkpt lat="48.781386" lon="9.894404">
        <ele>464.2</ele>
        <time>2026-08-30T11:05:57Z</time>
      </trkpt>
      <trkpt lat="48.781364" lon="9.894428">
        <ele>464.4</ele>
        <time>2026-08-30T11:05:58Z</time>
      </trkpt>
      <trkpt lat="48.781340" lon="9.894453">
        <ele>464.6</ele>
        <time>2026-08-30T11:05:59Z</time>
      </trkpt>
      <trkpt lat="48.781319" lon="9.894474">
        <ele>464.6</ele>
        <time>2026-08-30T11:06:00Z</time>
      </trkpt>
      <trkpt lat="48.781300" lon="9.894501">
        <ele>464.8</ele>
        <time>2026-08-30T11:06:01Z</time>
      </trkpt>
      <trkpt lat="48.781280" lon="9.894527">
        <ele>465</ele>
        <time>2026-08-30T11:06:02Z</time>
      </trkpt>
      <trkpt lat="48.781260" lon="9.894550">
        <ele>465</ele>
        <time>2026-08-30T11:06:03Z</time>
      </trkpt>
      <trkpt lat="48.781241" lon="9.894578">
        <ele>465.2</ele>
        <time>2026-08-30T11:06:04Z</time>
      </trkpt>
      <trkpt lat="48.781220" lon="9.894600">
        <ele>465.4</ele>
        <time>2026-08-30T11:06:05Z</time>
      </trkpt>
      <trkpt lat="48.781199" lon="9.894628">
        <ele>465.4</ele>
        <time>2026-08-30T11:06:06Z</time>
      </trkpt>
      <trkpt lat="48.781176" lon="9.894654">
        <ele>465.6</ele>
        <time>2026-08-30T11:06:07Z</time>
      </trkpt>
      <trkpt lat="48.781155" lon="9.894683">
        <ele>465.8</ele>
        <time>2026-08-30T11:06:08Z</time>
      </trkpt>
      <trkpt lat="48.781135" lon="9.894712">
        <ele>465.8</ele>
        <time>2026-08-30T11:06:09Z</time>
      </trkpt>
      <trkpt lat="48.781116" lon="9.894744">
        <ele>466</ele>
        <time>2026-08-30T11:06:10Z</time>
      </trkpt>
      <trkpt lat="48.781095" lon="9.894772">
        <ele>466</ele>
        <time>2026-08-30T11:06:11Z</time>
      </trkpt>
      <trkpt lat="48.781074" lon="9.894799">
        <ele>466.2</ele>
        <time>2026-08-30T11:06:12Z</time>
      </trkpt>
      <trkpt lat="48.781051" lon="9.894820">
        <ele>466.4</ele>
        <time>2026-08-30T11:06:13Z</time>
      </trkpt>
      <trkpt lat="48.781024" lon="9.894836">
        <ele>466.4</ele>
        <time>2026-08-30T11:06:14Z</time>
      </trkpt>
      <trkpt lat="48.781001" lon="9.894858">
        <ele>466.6</ele>
        <time>2026-08-30T11:06:15Z</time>
      </trkpt>
      <trkpt lat="48.780977" lon="9.894880">
        <ele>466.6</ele>
        <time>2026-08-30T11:06:16Z</time>
      </trkpt>
      <trkpt lat="48.780954" lon="9.894902">
        <ele>466.8</ele>
        <time>2026-08-30T11:06:17Z</time>
      </trkpt>
      <trkpt lat="48.780930" lon="9.894925">
        <ele>467</ele>
        <time>2026-08-30T11:06:18Z</time>
      </trkpt>
      <trkpt lat="48.780905" lon="9.894949">
        <ele>467.2</ele>
        <time>2026-08-30T11:06:19Z</time>
      </trkpt>
      <trkpt lat="48.780880" lon="9.894976">
        <ele>467.2</ele>
        <time>2026-08-30T11:06:20Z</time>
      </trkpt>
      <trkpt lat="48.780855" lon="9.894998">
        <ele>467.4</ele>
        <time>2026-08-30T11:06:21Z</time>
      </trkpt>
      <trkpt lat="48.780830" lon="9.895018">
        <ele>467.6</ele>
        <time>2026-08-30T11:06:22Z</time>
      </trkpt>
      <trkpt lat="48.780804" lon="9.895035">
        <ele>467.6</ele>
        <time>2026-08-30T11:06:23Z</time>
      </trkpt>
      <trkpt lat="48.780780" lon="9.895058">
        <ele>467.8</ele>
        <time>2026-08-30T11:06:24Z</time>
      </trkpt>
      <trkpt lat="48.780757" lon="9.895080">
        <ele>468</ele>
        <time>2026-08-30T11:06:25Z</time>
      </trkpt>
      <trkpt lat="48.780735" lon="9.895101">
        <ele>468</ele>
        <time>2026-08-30T11:06:26Z</time>
      </trkpt>
      <trkpt lat="48.780707" lon="9.895121">
        <ele>468.2</ele>
        <time>2026-08-30T11:06:27Z</time>
      </trkpt>
      <trkpt lat="48.780680" lon="9.895141">
        <ele>468.2</ele>
        <time>2026-08-30T11:06:28Z</time>
      </trkpt>
      <trkpt lat="48.780653" lon="9.895168">
        <ele>468.4</ele>
        <time>2026-08-30T11:06:29Z</time>
      </trkpt>
      <trkpt lat="48.780630" lon="9.895193">
        <ele>468.4</ele>
        <time>2026-08-30T11:06:30Z</time>
      </trkpt>
      <trkpt lat="48.780608" lon="9.895220">
        <ele>468.6</ele>
        <time>2026-08-30T11:06:31Z</time>
      </trkpt>
      <trkpt lat="48.780588" lon="9.895242">
        <ele>468.8</ele>
        <time>2026-08-30T11:06:32Z</time>
      </trkpt>
      <trkpt lat="48.780560" lon="9.895260">
        <ele>468.8</ele>
        <time>2026-08-30T11:06:33Z</time>
      </trkpt>
      <trkpt lat="48.780528" lon="9.895277">
        <ele>469</ele>
        <time>2026-08-30T11:06:34Z</time>
      </trkpt>
      <trkpt lat="48.780497" lon="9.895294">
        <ele>469</ele>
        <time>2026-08-30T11:06:35Z</time>
      </trkpt>
      <trkpt lat="48.780469" lon="9.895320">
        <ele>469</ele>
        <time>2026-08-30T11:06:36Z</time>
      </trkpt>
      <trkpt lat="48.780440" lon="9.895354">
        <ele>469</ele>
        <time>2026-08-30T11:06:37Z</time>
      </trkpt>
      <trkpt lat="48.780414" lon="9.895388">
        <ele>469.2</ele>
        <time>2026-08-30T11:06:38Z</time>
      </trkpt>
      <trkpt lat="48.780390" lon="9.895417">
        <ele>469.2</ele>
        <time>2026-08-30T11:06:39Z</time>
      </trkpt>
      <trkpt lat="48.780360" lon="9.895444">
        <ele>469.2</ele>
        <time>2026-08-30T11:06:40Z</time>
      </trkpt>
      <trkpt lat="48.780326" lon="9.895470">
        <ele>469.2</ele>
        <time>2026-08-30T11:06:41Z</time>
      </trkpt>
      <trkpt lat="48.780289" lon="9.895487">
        <ele>469.2</ele>
        <time>2026-08-30T11:06:42Z</time>
      </trkpt>
      <trkpt lat="48.780253" lon="9.895494">
        <ele>469.2</ele>
        <time>2026-08-30T11:06:43Z</time>
      </trkpt>
      <trkpt lat="48.780215" lon="9.895505">
        <ele>469.4</ele>
        <time>2026-08-30T11:06:44Z</time>
      </trkpt>
      <trkpt lat="48.780178" lon="9.895521">
        <ele>469.4</ele>
        <time>2026-08-30T11:06:45Z</time>
      </trkpt>
      <trkpt lat="48.780138" lon="9.895531">
        <ele>469.4</ele>
        <time>2026-08-30T11:06:46Z</time>
      </trkpt>
      <trkpt lat="48.780103" lon="9.895544">
        <ele>469.4</ele>
        <time>2026-08-30T11:06:47Z</time>
      </trkpt>
      <trkpt lat="48.780059" lon="9.895559">
        <ele>469.6</ele>
        <time>2026-08-30T11:06:48Z</time>
      </trkpt>
      <trkpt lat="48.780022" lon="9.895568">
        <ele>469.6</ele>
        <time>2026-08-30T11:06:49Z</time>
      </trkpt>
      <trkpt lat="48.779988" lon="9.895563">
        <ele>469.8</ele>
        <time>2026-08-30T11:06:50Z</time>
      </trkpt>
      <trkpt lat="48.779958" lon="9.895555">
        <ele>469.8</ele>
        <time>2026-08-30T11:06:51Z</time>
      </trkpt>
      <trkpt lat="48.779927" lon="9.895555">
        <ele>470</ele>
        <time>2026-08-30T11:06:52Z</time>
      </trkpt>
      <trkpt lat="48.779898" lon="9.895556">
        <ele>470.2</ele>
        <time>2026-08-30T11:06:53Z</time>
      </trkpt>
      <trkpt lat="48.779869" lon="9.895563">
        <ele>470.4</ele>
        <time>2026-08-30T11:06:54Z</time>
      </trkpt>
      <trkpt lat="48.779840" lon="9.895575">
        <ele>470.6</ele>
        <time>2026-08-30T11:06:55Z</time>
      </trkpt>
      <trkpt lat="48.779810" lon="9.895581">
        <ele>470.6</ele>
        <time>2026-08-30T11:06:56Z</time>
      </trkpt>
      <trkpt lat="48.779782" lon="9.895582">
        <ele>471</ele>
        <time>2026-08-30T11:06:57Z</time>
      </trkpt>
      <trkpt lat="48.779753" lon="9.895576">
        <ele>471</ele>
        <time>2026-08-30T11:06:58Z</time>
      </trkpt>
      <trkpt lat="48.779722" lon="9.895582">
        <ele>471.2</ele>
        <time>2026-08-30T11:06:59Z</time>
      </trkpt>
      <trkpt lat="48.779695" lon="9.895581">
        <ele>471.4</ele>
        <time>2026-08-30T11:07:00Z</time>
      </trkpt>
      <trkpt lat="48.779666" lon="9.895581">
        <ele>471.6</ele>
        <time>2026-08-30T11:07:01Z</time>
      </trkpt>
      <trkpt lat="48.779635" lon="9.895589">
        <ele>471.8</ele>
        <time>2026-08-30T11:07:02Z</time>
      </trkpt>
      <trkpt lat="48.779607" lon="9.895596">
        <ele>472</ele>
        <time>2026-08-30T11:07:03Z</time>
      </trkpt>
      <trkpt lat="48.779579" lon="9.895594">
        <ele>472.2</ele>
        <time>2026-08-30T11:07:04Z</time>
      </trkpt>
      <trkpt lat="48.779552" lon="9.895596">
        <ele>472.4</ele>
        <time>2026-08-30T11:07:05Z</time>
      </trkpt>
      <trkpt lat="48.779524" lon="9.895600">
        <ele>472.6</ele>
        <time>2026-08-30T11:07:06Z</time>
      </trkpt>
      <trkpt lat="48.779500" lon="9.895603">
        <ele>472.8</ele>
        <time>2026-08-30T11:07:07Z</time>
      </trkpt>
      <trkpt lat="48.779475" lon="9.895609">
        <ele>473</ele>
        <time>2026-08-30T11:07:08Z</time>
      </trkpt>
      <trkpt lat="48.779448" lon="9.895607">
        <ele>473.2</ele>
        <time>2026-08-30T11:07:09Z</time>
      </trkpt>
      <trkpt lat="48.779419" lon="9.895609">
        <ele>473.2</ele>
        <time>2026-08-30T11:07:10Z</time>
      </trkpt>
      <trkpt lat="48.779394" lon="9.895607">
        <ele>473.4</ele>
        <time>2026-08-30T11:07:11Z</time>
      </trkpt>
      <trkpt lat="48.779369" lon="9.895602">
        <ele>473.6</ele>
        <time>2026-08-30T11:07:12Z</time>
      </trkpt>
      <trkpt lat="48.779347" lon="9.895603">
        <ele>473.8</ele>
        <time>2026-08-30T11:07:13Z</time>
      </trkpt>
      <trkpt lat="48.779322" lon="9.895600">
        <ele>474</ele>
        <time>2026-08-30T11:07:14Z</time>
      </trkpt>
      <trkpt lat="48.779296" lon="9.895605">
        <ele>474</ele>
        <time>2026-08-30T11:07:15Z</time>
      </trkpt>
      <trkpt lat="48.779272" lon="9.895616">
        <ele>474.2</ele>
        <time>2026-08-30T11:07:16Z</time>
      </trkpt>
      <trkpt lat="48.779248" lon="9.895628">
        <ele>474.4</ele>
        <time>2026-08-30T11:07:17Z</time>
      </trkpt>
      <trkpt lat="48.779227" lon="9.895640">
        <ele>474.6</ele>
        <time>2026-08-30T11:07:18Z</time>
      </trkpt>
      <trkpt lat="48.779208" lon="9.895645">
        <ele>474.8</ele>
        <time>2026-08-30T11:07:19Z</time>
      </trkpt>
      <trkpt lat="48.779189" lon="9.895649">
        <ele>475</ele>
        <time>2026-08-30T11:07:20Z</time>
      </trkpt>
      <trkpt lat="48.779170" lon="9.895655">
        <ele>475.2</ele>
        <time>2026-08-30T11:07:21Z</time>
      </trkpt>
      <trkpt lat="48.779145" lon="9.895658">
        <ele>475.4</ele>
        <time>2026-08-30T11:07:22Z</time>
      </trkpt>
      <trkpt lat="48.779126" lon="9.895665">
        <ele>475.6</ele>
        <time>2026-08-30T11:07:23Z</time>
      </trkpt>
      <trkpt lat="48.779108" lon="9.895670">
        <ele>475.8</ele>
        <time>2026-08-30T11:07:24Z</time>
      </trkpt>
      <trkpt lat="48.779092" lon="9.895674">
        <ele>476</ele>
        <time>2026-08-30T11:07:25Z</time>
      </trkpt>
      <trkpt lat="48.779075" lon="9.895673">
        <ele>476.2</ele>
        <time>2026-08-30T11:07:26Z</time>
      </trkpt>
      <trkpt lat="48.779059" lon="9.895677">
        <ele>476.4</ele>
        <time>2026-08-30T11:07:27Z</time>
      </trkpt>
      <trkpt lat="48.779039" lon="9.895684">
        <ele>476.8</ele>
        <time>2026-08-30T11:07:28Z</time>
      </trkpt>
      <trkpt lat="48.779023" lon="9.895691">
        <ele>477</ele>
        <time>2026-08-30T11:07:29Z</time>
      </trkpt>
      <trkpt lat="48.779005" lon="9.895698">
        <ele>477.2</ele>
        <time>2026-08-30T11:07:30Z</time>
      </trkpt>
      <trkpt lat="48.778986" lon="9.895708">
        <ele>477.4</ele>
        <time>2026-08-30T11:07:31Z</time>
      </trkpt>
      <trkpt lat="48.778965" lon="9.895713">
        <ele>477.6</ele>
        <time>2026-08-30T11:07:32Z</time>
      </trkpt>
      <trkpt lat="48.778946" lon="9.895720">
        <ele>478</ele>
        <time>2026-08-30T11:07:33Z</time>
      </trkpt>
      <trkpt lat="48.778928" lon="9.895721">
        <ele>478.2</ele>
        <time>2026-08-30T11:07:34Z</time>
      </trkpt>
      <trkpt lat="48.778910" lon="9.895731">
        <ele>478.4</ele>
        <time>2026-08-30T11:07:35Z</time>
      </trkpt>
      <trkpt lat="48.778891" lon="9.895738">
        <ele>478.6</ele>
        <time>2026-08-30T11:07:36Z</time>
      </trkpt>
      <trkpt lat="48.778873" lon="9.895744">
        <ele>478.8</ele>
        <time>2026-08-30T11:07:37Z</time>
      </trkpt>
      <trkpt lat="48.778854" lon="9.895753">
        <ele>479</ele>
        <time>2026-08-30T11:07:38Z</time>
      </trkpt>
      <trkpt lat="48.778833" lon="9.895770">
        <ele>479.2</ele>
        <time>2026-08-30T11:07:39Z</time>
      </trkpt>
      <trkpt lat="48.778815" lon="9.895779">
        <ele>479.4</ele>
        <time>2026-08-30T11:07:40Z</time>
      </trkpt>
      <trkpt lat="48.778799" lon="9.895788">
        <ele>479.6</ele>
        <time>2026-08-30T11:07:41Z</time>
      </trkpt>
      <trkpt lat="48.778783" lon="9.895793">
        <ele>479.8</ele>
        <time>2026-08-30T11:07:42Z</time>
      </trkpt>
      <trkpt lat="48.778769" lon="9.895797">
        <ele>480.2</ele>
        <time>2026-08-30T11:07:43Z</time>
      </trkpt>
      <trkpt lat="48.778753" lon="9.895806">
        <ele>480.4</ele>
        <time>2026-08-30T11:07:44Z</time>
      </trkpt>
      <trkpt lat="48.778735" lon="9.895815">
        <ele>480.6</ele>
        <time>2026-08-30T11:07:45Z</time>
      </trkpt>
      <trkpt lat="48.778718" lon="9.895822">
        <ele>480.8</ele>
        <time>2026-08-30T11:07:46Z</time>
      </trkpt>
      <trkpt lat="48.778696" lon="9.895834">
        <ele>481</ele>
        <time>2026-08-30T11:07:47Z</time>
      </trkpt>
      <trkpt lat="48.778678" lon="9.895841">
        <ele>481.4</ele>
        <time>2026-08-30T11:07:48Z</time>
      </trkpt>
      <trkpt lat="48.778660" lon="9.895849">
        <ele>481.6</ele>
        <time>2026-08-30T11:07:49Z</time>
      </trkpt>
      <trkpt lat="48.778643" lon="9.895857">
        <ele>481.8</ele>
        <time>2026-08-30T11:07:50Z</time>
      </trkpt>
      <trkpt lat="48.778627" lon="9.895869">
        <ele>482</ele>
        <time>2026-08-30T11:07:51Z</time>
      </trkpt>
      <trkpt lat="48.778616" lon="9.895868">
        <ele>482.2</ele>
        <time>2026-08-30T11:07:52Z</time>
      </trkpt>
      <trkpt lat="48.778601" lon="9.895868">
        <ele>482.4</ele>
        <time>2026-08-30T11:07:53Z</time>
      </trkpt>
      <trkpt lat="48.778584" lon="9.895869">
        <ele>482.8</ele>
        <time>2026-08-30T11:07:54Z</time>
      </trkpt>
      <trkpt lat="48.778570" lon="9.895869">
        <ele>483</ele>
        <time>2026-08-30T11:07:55Z</time>
      </trkpt>
      <trkpt lat="48.778556" lon="9.895869">
        <ele>483.2</ele>
        <time>2026-08-30T11:07:56Z</time>
      </trkpt>
      <trkpt lat="48.778542" lon="9.895866">
        <ele>483.4</ele>
        <time>2026-08-30T11:07:57Z</time>
      </trkpt>
      <trkpt lat="48.778529" lon="9.895871">
        <ele>483.6</ele>
        <time>2026-08-30T11:07:58Z</time>
      </trkpt>
      <trkpt lat="48.778516" lon="9.895881">
        <ele>483.8</ele>
        <time>2026-08-30T11:07:59Z</time>
      </trkpt>
      <trkpt lat="48.778500" lon="9.895893">
        <ele>484</ele>
        <time>2026-08-30T11:08:00Z</time>
      </trkpt>
      <trkpt lat="48.778485" lon="9.895898">
        <ele>484.2</ele>
        <time>2026-08-30T11:08:01Z</time>
      </trkpt>
      <trkpt lat="48.778470" lon="9.895901">
        <ele>484.4</ele>
        <time>2026-08-30T11:08:02Z</time>
      </trkpt>
      <trkpt lat="48.778460" lon="9.895904">
        <ele>484.8</ele>
        <time>2026-08-30T11:08:03Z</time>
      </trkpt>
      <trkpt lat="48.778447" lon="9.895912">
        <ele>485</ele>
        <time>2026-08-30T11:08:04Z</time>
      </trkpt>
      <trkpt lat="48.778435" lon="9.895921">
        <ele>485.2</ele>
        <time>2026-08-30T11:08:05Z</time>
      </trkpt>
      <trkpt lat="48.778419" lon="9.895931">
        <ele>485.4</ele>
        <time>2026-08-30T11:08:06Z</time>
      </trkpt>
      <trkpt lat="48.778406" lon="9.895931">
        <ele>485.6</ele>
        <time>2026-08-30T11:08:07Z</time>
      </trkpt>
      <trkpt lat="48.778386" lon="9.895931">
        <ele>486</ele>
        <time>2026-08-30T11:08:08Z</time>
      </trkpt>
      <trkpt lat="48.778367" lon="9.895932">
        <ele>486.2</ele>
        <time>2026-08-30T11:08:09Z</time>
      </trkpt>
      <trkpt lat="48.778351" lon="9.895937">
        <ele>486.4</ele>
        <time>2026-08-30T11:08:10Z</time>
      </trkpt>
      <trkpt lat="48.778335" lon="9.895947">
        <ele>486.6</ele>
        <time>2026-08-30T11:08:11Z</time>
      </trkpt>
      <trkpt lat="48.778318" lon="9.895959">
        <ele>486.8</ele>
        <time>2026-08-30T11:08:12Z</time>
      </trkpt>
      <trkpt lat="48.778304" lon="9.895969">
        <ele>487</ele>
        <time>2026-08-30T11:08:13Z</time>
      </trkpt>
      <trkpt lat="48.778288" lon="9.895969">
        <ele>487.4</ele>
        <time>2026-08-30T11:08:14Z</time>
      </trkpt>
      <trkpt lat="48.778272" lon="9.895973">
        <ele>487.6</ele>
        <time>2026-08-30T11:08:15Z</time>
      </trkpt>
      <trkpt lat="48.778256" lon="9.895973">
        <ele>487.8</ele>
        <time>2026-08-30T11:08:16Z</time>
      </trkpt>
      <trkpt lat="48.778242" lon="9.895977">
        <ele>487.8</ele>
        <time>2026-08-30T11:08:17Z</time>
      </trkpt>
      <trkpt lat="48.778224" lon="9.895984">
        <ele>488</ele>
        <time>2026-08-30T11:08:18Z</time>
      </trkpt>
      <trkpt lat="48.778205" lon="9.895994">
        <ele>488.4</ele>
        <time>2026-08-30T11:08:19Z</time>
      </trkpt>
      <trkpt lat="48.778189" lon="9.896005">
        <ele>488.6</ele>
        <time>2026-08-30T11:08:20Z</time>
      </trkpt>
      <trkpt lat="48.778170" lon="9.896017">
        <ele>488.8</ele>
        <time>2026-08-30T11:08:21Z</time>
      </trkpt>
      <trkpt lat="48.778151" lon="9.896030">
        <ele>489</ele>
        <time>2026-08-30T11:08:22Z</time>
      </trkpt>
      <trkpt lat="48.778131" lon="9.896039">
        <ele>489</ele>
        <time>2026-08-30T11:08:23Z</time>
      </trkpt>
      <trkpt lat="48.778114" lon="9.896049">
        <ele>489.2</ele>
        <time>2026-08-30T11:08:24Z</time>
      </trkpt>
      <trkpt lat="48.778097" lon="9.896060">
        <ele>489.4</ele>
        <time>2026-08-30T11:08:25Z</time>
      </trkpt>
      <trkpt lat="48.778079" lon="9.896069">
        <ele>489.6</ele>
        <time>2026-08-30T11:08:26Z</time>
      </trkpt>
      <trkpt lat="48.778059" lon="9.896078">
        <ele>489.8</ele>
        <time>2026-08-30T11:08:27Z</time>
      </trkpt>
      <trkpt lat="48.778042" lon="9.896087">
        <ele>489.8</ele>
        <time>2026-08-30T11:08:28Z</time>
      </trkpt>
      <trkpt lat="48.778022" lon="9.896090">
        <ele>490</ele>
        <time>2026-08-30T11:08:29Z</time>
      </trkpt>
      <trkpt lat="48.778004" lon="9.896093">
        <ele>490.2</ele>
        <time>2026-08-30T11:08:30Z</time>
      </trkpt>
      <trkpt lat="48.777987" lon="9.896091">
        <ele>490.4</ele>
        <time>2026-08-30T11:08:31Z</time>
      </trkpt>
      <trkpt lat="48.777968" lon="9.896101">
        <ele>490.6</ele>
        <time>2026-08-30T11:08:32Z</time>
      </trkpt>
      <trkpt lat="48.777951" lon="9.896116">
        <ele>490.8</ele>
        <time>2026-08-30T11:08:33Z</time>
      </trkpt>
      <trkpt lat="48.777935" lon="9.896131">
        <ele>491</ele>
        <time>2026-08-30T11:08:34Z</time>
      </trkpt>
      <trkpt lat="48.777918" lon="9.896149">
        <ele>491</ele>
        <time>2026-08-30T11:08:35Z</time>
      </trkpt>
      <trkpt lat="48.777900" lon="9.896159">
        <ele>491.2</ele>
        <time>2026-08-30T11:08:36Z</time>
      </trkpt>
      <trkpt lat="48.777882" lon="9.896162">
        <ele>491.4</ele>
        <time>2026-08-30T11:08:37Z</time>
      </trkpt>
      <trkpt lat="48.777861" lon="9.896164">
        <ele>491.4</ele>
        <time>2026-08-30T11:08:38Z</time>
      </trkpt>
      <trkpt lat="48.777838" lon="9.896166">
        <ele>491.6</ele>
        <time>2026-08-30T11:08:39Z</time>
      </trkpt>
      <trkpt lat="48.777814" lon="9.896166">
        <ele>491.8</ele>
        <time>2026-08-30T11:08:40Z</time>
      </trkpt>
      <trkpt lat="48.777793" lon="9.896174">
        <ele>492</ele>
        <time>2026-08-30T11:08:41Z</time>
      </trkpt>
      <trkpt lat="48.777773" lon="9.896182">
        <ele>492.2</ele>
        <time>2026-08-30T11:08:42Z</time>
      </trkpt>
      <trkpt lat="48.777754" lon="9.896189">
        <ele>492.2</ele>
        <time>2026-08-30T11:08:43Z</time>
      </trkpt>
      <trkpt lat="48.777735" lon="9.896197">
        <ele>492.4</ele>
        <time>2026-08-30T11:08:44Z</time>
      </trkpt>
      <trkpt lat="48.777717" lon="9.896206">
        <ele>492.6</ele>
        <time>2026-08-30T11:08:45Z</time>
      </trkpt>
      <trkpt lat="48.777703" lon="9.896217">
        <ele>492.8</ele>
        <time>2026-08-30T11:08:46Z</time>
      </trkpt>
      <trkpt lat="48.777684" lon="9.896222">
        <ele>493</ele>
        <time>2026-08-30T11:08:47Z</time>
      </trkpt>
      <trkpt lat="48.777668" lon="9.896233">
        <ele>493.2</ele>
        <time>2026-08-30T11:08:48Z</time>
      </trkpt>
      <trkpt lat="48.777651" lon="9.896244">
        <ele>493.4</ele>
        <time>2026-08-30T11:08:49Z</time>
      </trkpt>
      <trkpt lat="48.777632" lon="9.896257">
        <ele>493.6</ele>
        <time>2026-08-30T11:08:50Z</time>
      </trkpt>
      <trkpt lat="48.777610" lon="9.896269">
        <ele>493.8</ele>
        <time>2026-08-30T11:08:51Z</time>
      </trkpt>
      <trkpt lat="48.777588" lon="9.896286">
        <ele>494</ele>
        <time>2026-08-30T11:08:52Z</time>
      </trkpt>
      <trkpt lat="48.777569" lon="9.896299">
        <ele>494.2</ele>
        <time>2026-08-30T11:08:53Z</time>
      </trkpt>
      <trkpt lat="48.777552" lon="9.896318">
        <ele>494.2</ele>
        <time>2026-08-30T11:08:54Z</time>
      </trkpt>
      <trkpt lat="48.777536" lon="9.896329">
        <ele>494.4</ele>
        <time>2026-08-30T11:08:55Z</time>
      </trkpt>
      <trkpt lat="48.777517" lon="9.896336">
        <ele>494.4</ele>
        <time>2026-08-30T11:08:56Z</time>
      </trkpt>
      <trkpt lat="48.777494" lon="9.896344">
        <ele>494.6</ele>
        <time>2026-08-30T11:08:57Z</time>
      </trkpt>
      <trkpt lat="48.777467" lon="9.896354">
        <ele>494.6</ele>
        <time>2026-08-30T11:08:58Z</time>
      </trkpt>
      <trkpt lat="48.777442" lon="9.896373">
        <ele>494.6</ele>
        <time>2026-08-30T11:08:59Z</time>
      </trkpt>
      <trkpt lat="48.777414" lon="9.896388">
        <ele>494.6</ele>
        <time>2026-08-30T11:09:00Z</time>
      </trkpt>
      <trkpt lat="48.777382" lon="9.896407">
        <ele>494.6</ele>
        <time>2026-08-30T11:09:01Z</time>
      </trkpt>
      <trkpt lat="48.777351" lon="9.896428">
        <ele>494.6</ele>
        <time>2026-08-30T11:09:02Z</time>
      </trkpt>
      <trkpt lat="48.777319" lon="9.896452">
        <ele>494.6</ele>
        <time>2026-08-30T11:09:03Z</time>
      </trkpt>
      <trkpt lat="48.777288" lon="9.896475">
        <ele>494.6</ele>
        <time>2026-08-30T11:09:04Z</time>
      </trkpt>
      <trkpt lat="48.777255" lon="9.896490">
        <ele>494.6</ele>
        <time>2026-08-30T11:09:05Z</time>
      </trkpt>
      <trkpt lat="48.777224" lon="9.896495">
        <ele>494.6</ele>
        <time>2026-08-30T11:09:06Z</time>
      </trkpt>
      <trkpt lat="48.777190" lon="9.896506">
        <ele>494.6</ele>
        <time>2026-08-30T11:09:07Z</time>
      </trkpt>
      <trkpt lat="48.777157" lon="9.896508">
        <ele>494.6</ele>
        <time>2026-08-30T11:09:08Z</time>
      </trkpt>
      <trkpt lat="48.777123" lon="9.896512">
        <ele>494.6</ele>
        <time>2026-08-30T11:09:09Z</time>
      </trkpt>
      <trkpt lat="48.777086" lon="9.896520">
        <ele>494.4</ele>
        <time>2026-08-30T11:09:10Z</time>
      </trkpt>
      <trkpt lat="48.777048" lon="9.896531">
        <ele>494.4</ele>
        <time>2026-08-30T11:09:11Z</time>
      </trkpt>
      <trkpt lat="48.777012" lon="9.896537">
        <ele>494.4</ele>
        <time>2026-08-30T11:09:12Z</time>
      </trkpt>
      <trkpt lat="48.776981" lon="9.896544">
        <ele>494.2</ele>
        <time>2026-08-30T11:09:13Z</time>
      </trkpt>
      <trkpt lat="48.776946" lon="9.896544">
        <ele>494.2</ele>
        <time>2026-08-30T11:09:14Z</time>
      </trkpt>
      <trkpt lat="48.776907" lon="9.896546">
        <ele>494.2</ele>
        <time>2026-08-30T11:09:15Z</time>
      </trkpt>
      <trkpt lat="48.776869" lon="9.896551">
        <ele>494</ele>
        <time>2026-08-30T11:09:16Z</time>
      </trkpt>
      <trkpt lat="48.776833" lon="9.896554">
        <ele>494</ele>
        <time>2026-08-30T11:09:17Z</time>
      </trkpt>
      <trkpt lat="48.776795" lon="9.896562">
        <ele>494</ele>
        <time>2026-08-30T11:09:18Z</time>
      </trkpt>
      <trkpt lat="48.776762" lon="9.896567">
        <ele>494</ele>
        <time>2026-08-30T11:09:19Z</time>
      </trkpt>
      <trkpt lat="48.776725" lon="9.896565">
        <ele>494</ele>
        <time>2026-08-30T11:09:20Z</time>
      </trkpt>
      <trkpt lat="48.776689" lon="9.896560">
        <ele>494</ele>
        <time>2026-08-30T11:09:21Z</time>
      </trkpt>
      <trkpt lat="48.776651" lon="9.896557">
        <ele>494</ele>
        <time>2026-08-30T11:09:22Z</time>
      </trkpt>
      <trkpt lat="48.776614" lon="9.896562">
        <ele>494</ele>
        <time>2026-08-30T11:09:23Z</time>
      </trkpt>
      <trkpt lat="48.776571" lon="9.896575">
        <ele>494</ele>
        <time>2026-08-30T11:09:24Z</time>
      </trkpt>
      <trkpt lat="48.776529" lon="9.896583">
        <ele>494.2</ele>
        <time>2026-08-30T11:09:25Z</time>
      </trkpt>
      <trkpt lat="48.776487" lon="9.896594">
        <ele>494.2</ele>
        <time>2026-08-30T11:09:26Z</time>
      </trkpt>
      <trkpt lat="48.776445" lon="9.896604">
        <ele>494.2</ele>
        <time>2026-08-30T11:09:27Z</time>
      </trkpt>
      <trkpt lat="48.776407" lon="9.896615">
        <ele>494.2</ele>
        <time>2026-08-30T11:09:28Z</time>
      </trkpt>
      <trkpt lat="48.776368" lon="9.896628">
        <ele>494.2</ele>
        <time>2026-08-30T11:09:29Z</time>
      </trkpt>
      <trkpt lat="48.776330" lon="9.896645">
        <ele>494.4</ele>
        <time>2026-08-30T11:09:30Z</time>
      </trkpt>
      <trkpt lat="48.776295" lon="9.896672">
        <ele>494.4</ele>
        <time>2026-08-30T11:09:31Z</time>
      </trkpt>
      <trkpt lat="48.776262" lon="9.896693">
        <ele>494.4</ele>
        <time>2026-08-30T11:09:32Z</time>
      </trkpt>
      <trkpt lat="48.776224" lon="9.896718">
        <ele>494.6</ele>
        <time>2026-08-30T11:09:33Z</time>
      </trkpt>
      <trkpt lat="48.776191" lon="9.896742">
        <ele>494.8</ele>
        <time>2026-08-30T11:09:34Z</time>
      </trkpt>
      <trkpt lat="48.776160" lon="9.896764">
        <ele>495</ele>
        <time>2026-08-30T11:09:35Z</time>
      </trkpt>
      <trkpt lat="48.776125" lon="9.896784">
        <ele>495.2</ele>
        <time>2026-08-30T11:09:36Z</time>
      </trkpt>
      <trkpt lat="48.776091" lon="9.896805">
        <ele>495.2</ele>
        <time>2026-08-30T11:09:37Z</time>
      </trkpt>
      <trkpt lat="48.776062" lon="9.896826">
        <ele>495.4</ele>
        <time>2026-08-30T11:09:38Z</time>
      </trkpt>
      <trkpt lat="48.776037" lon="9.896852">
        <ele>495.6</ele>
        <time>2026-08-30T11:09:39Z</time>
      </trkpt>
      <trkpt lat="48.776017" lon="9.896879">
        <ele>495.8</ele>
        <time>2026-08-30T11:09:40Z</time>
      </trkpt>
      <trkpt lat="48.775993" lon="9.896903">
        <ele>496</ele>
        <time>2026-08-30T11:09:41Z</time>
      </trkpt>
      <trkpt lat="48.775970" lon="9.896930">
        <ele>496</ele>
        <time>2026-08-30T11:09:42Z</time>
      </trkpt>
      <trkpt lat="48.775942" lon="9.896953">
        <ele>496.2</ele>
        <time>2026-08-30T11:09:43Z</time>
      </trkpt>
      <trkpt lat="48.775920" lon="9.896975">
        <ele>496.4</ele>
        <time>2026-08-30T11:09:44Z</time>
      </trkpt>
      <trkpt lat="48.775895" lon="9.896999">
        <ele>496.6</ele>
        <time>2026-08-30T11:09:45Z</time>
      </trkpt>
      <trkpt lat="48.775873" lon="9.897020">
        <ele>496.8</ele>
        <time>2026-08-30T11:09:46Z</time>
      </trkpt>
      <trkpt lat="48.775849" lon="9.897041">
        <ele>496.8</ele>
        <time>2026-08-30T11:09:47Z</time>
      </trkpt>
      <trkpt lat="48.775831" lon="9.897063">
        <ele>497</ele>
        <time>2026-08-30T11:09:48Z</time>
      </trkpt>
      <trkpt lat="48.775816" lon="9.897085">
        <ele>497.2</ele>
        <time>2026-08-30T11:09:49Z</time>
      </trkpt>
      <trkpt lat="48.775800" lon="9.897104">
        <ele>497.4</ele>
        <time>2026-08-30T11:09:50Z</time>
      </trkpt>
      <trkpt lat="48.775788" lon="9.897118">
        <ele>497.8</ele>
        <time>2026-08-30T11:09:51Z</time>
      </trkpt>
      <trkpt lat="48.775775" lon="9.897133">
        <ele>498</ele>
        <time>2026-08-30T11:09:52Z</time>
      </trkpt>
      <trkpt lat="48.775761" lon="9.897155">
        <ele>498.2</ele>
        <time>2026-08-30T11:09:53Z</time>
      </trkpt>
      <trkpt lat="48.775746" lon="9.897172">
        <ele>498.4</ele>
        <time>2026-08-30T11:09:54Z</time>
      </trkpt>
      <trkpt lat="48.775730" lon="9.897189">
        <ele>498.6</ele>
        <time>2026-08-30T11:09:55Z</time>
      </trkpt>
      <trkpt lat="48.775722" lon="9.897201">
        <ele>498.8</ele>
        <time>2026-08-30T11:09:56Z</time>
      </trkpt>
      <trkpt lat="48.775716" lon="9.897218">
        <ele>499</ele>
        <time>2026-08-30T11:09:57Z</time>
      </trkpt>
      <trkpt lat="48.775706" lon="9.897236">
        <ele>499.2</ele>
        <time>2026-08-30T11:09:58Z</time>
      </trkpt>
      <trkpt lat="48.775695" lon="9.897261">
        <ele>499.4</ele>
        <time>2026-08-30T11:09:59Z</time>
      </trkpt>
      <trkpt lat="48.775684" lon="9.897283">
        <ele>499.6</ele>
        <time>2026-08-30T11:10:00Z</time>
      </trkpt>
      <trkpt lat="48.775669" lon="9.897303">
        <ele>499.8</ele>
        <time>2026-08-30T11:10:01Z</time>
      </trkpt>
      <trkpt lat="48.775650" lon="9.897318">
        <ele>500.2</ele>
        <time>2026-08-30T11:10:02Z</time>
      </trkpt>
      <trkpt lat="48.775635" lon="9.897333">
        <ele>500.4</ele>
        <time>2026-08-30T11:10:03Z</time>
      </trkpt>
      <trkpt lat="48.775617" lon="9.897341">
        <ele>500.4</ele>
        <time>2026-08-30T11:10:04Z</time>
      </trkpt>
      <trkpt lat="48.775600" lon="9.897352">
        <ele>500.8</ele>
        <time>2026-08-30T11:10:05Z</time>
      </trkpt>
      <trkpt lat="48.775587" lon="9.897367">
        <ele>501</ele>
        <time>2026-08-30T11:10:06Z</time>
      </trkpt>
      <trkpt lat="48.775576" lon="9.897384">
        <ele>501.2</ele>
        <time>2026-08-30T11:10:07Z</time>
      </trkpt>
      <trkpt lat="48.775568" lon="9.897400">
        <ele>501.4</ele>
        <time>2026-08-30T11:10:08Z</time>
      </trkpt>
      <trkpt lat="48.775560" lon="9.897416">
        <ele>501.4</ele>
        <time>2026-08-30T11:10:09Z</time>
      </trkpt>
      <trkpt lat="48.775555" lon="9.897432">
        <ele>501.6</ele>
        <time>2026-08-30T11:10:10Z</time>
      </trkpt>
      <trkpt lat="48.775541" lon="9.897458">
        <ele>502</ele>
        <time>2026-08-30T11:10:11Z</time>
      </trkpt>
      <trkpt lat="48.775532" lon="9.897473">
        <ele>502.2</ele>
        <time>2026-08-30T11:10:12Z</time>
      </trkpt>
      <trkpt lat="48.775518" lon="9.897485">
        <ele>502.4</ele>
        <time>2026-08-30T11:10:13Z</time>
      </trkpt>
      <trkpt lat="48.775503" lon="9.897495">
        <ele>502.6</ele>
        <time>2026-08-30T11:10:14Z</time>
      </trkpt>
      <trkpt lat="48.775486" lon="9.897502">
        <ele>502.8</ele>
        <time>2026-08-30T11:10:15Z</time>
      </trkpt>
      <trkpt lat="48.775468" lon="9.897517">
        <ele>503</ele>
        <time>2026-08-30T11:10:16Z</time>
      </trkpt>
      <trkpt lat="48.775450" lon="9.897534">
        <ele>503.2</ele>
        <time>2026-08-30T11:10:17Z</time>
      </trkpt>
      <trkpt lat="48.775436" lon="9.897553">
        <ele>503.4</ele>
        <time>2026-08-30T11:10:18Z</time>
      </trkpt>
      <trkpt lat="48.775423" lon="9.897572">
        <ele>503.4</ele>
        <time>2026-08-30T11:10:19Z</time>
      </trkpt>
      <trkpt lat="48.775410" lon="9.897593">
        <ele>503.6</ele>
        <time>2026-08-30T11:10:20Z</time>
      </trkpt>
      <trkpt lat="48.775402" lon="9.897611">
        <ele>503.8</ele>
        <time>2026-08-30T11:10:21Z</time>
      </trkpt>
      <trkpt lat="48.775392" lon="9.897630">
        <ele>504</ele>
        <time>2026-08-30T11:10:22Z</time>
      </trkpt>
      <trkpt lat="48.775377" lon="9.897648">
        <ele>504.2</ele>
        <time>2026-08-30T11:10:23Z</time>
      </trkpt>
      <trkpt lat="48.775363" lon="9.897667">
        <ele>504.4</ele>
        <time>2026-08-30T11:10:24Z</time>
      </trkpt>
      <trkpt lat="48.775339" lon="9.897680">
        <ele>504.6</ele>
        <time>2026-08-30T11:10:25Z</time>
      </trkpt>
      <trkpt lat="48.775321" lon="9.897689">
        <ele>504.8</ele>
        <time>2026-08-30T11:10:26Z</time>
      </trkpt>
      <trkpt lat="48.775304" lon="9.897701">
        <ele>505</ele>
        <time>2026-08-30T11:10:27Z</time>
      </trkpt>
      <trkpt lat="48.775294" lon="9.897715">
        <ele>505.2</ele>
        <time>2026-08-30T11:10:28Z</time>
      </trkpt>
      <trkpt lat="48.775286" lon="9.897729">
        <ele>505.4</ele>
        <time>2026-08-30T11:10:29Z</time>
      </trkpt>
      <trkpt lat="48.775275" lon="9.897748">
        <ele>505.6</ele>
        <time>2026-08-30T11:10:30Z</time>
      </trkpt>
      <trkpt lat="48.775266" lon="9.897765">
        <ele>505.8</ele>
        <time>2026-08-30T11:10:31Z</time>
      </trkpt>
      <trkpt lat="48.775253" lon="9.897791">
        <ele>506</ele>
        <time>2026-08-30T11:10:32Z</time>
      </trkpt>
      <trkpt lat="48.775243" lon="9.897809">
        <ele>506.2</ele>
        <time>2026-08-30T11:10:33Z</time>
      </trkpt>
      <trkpt lat="48.775230" lon="9.897826">
        <ele>506.4</ele>
        <time>2026-08-30T11:10:34Z</time>
      </trkpt>
      <trkpt lat="48.775217" lon="9.897833">
        <ele>506.6</ele>
        <time>2026-08-30T11:10:35Z</time>
      </trkpt>
      <trkpt lat="48.775204" lon="9.897841">
        <ele>506.8</ele>
        <time>2026-08-30T11:10:36Z</time>
      </trkpt>
      <trkpt lat="48.775187" lon="9.897844">
        <ele>507</ele>
        <time>2026-08-30T11:10:37Z</time>
      </trkpt>
      <trkpt lat="48.775169" lon="9.897845">
        <ele>507.2</ele>
        <time>2026-08-30T11:10:38Z</time>
      </trkpt>
      <trkpt lat="48.775153" lon="9.897851">
        <ele>507.4</ele>
        <time>2026-08-30T11:10:39Z</time>
      </trkpt>
      <trkpt lat="48.775143" lon="9.897863">
        <ele>507.6</ele>
        <time>2026-08-30T11:10:40Z</time>
      </trkpt>
      <trkpt lat="48.775135" lon="9.897882">
        <ele>507.8</ele>
        <time>2026-08-30T11:10:41Z</time>
      </trkpt>
      <trkpt lat="48.775126" lon="9.897909">
        <ele>508</ele>
        <time>2026-08-30T11:10:42Z</time>
      </trkpt>
      <trkpt lat="48.775117" lon="9.897929">
        <ele>508.2</ele>
        <time>2026-08-30T11:10:43Z</time>
      </trkpt>
      <trkpt lat="48.775104" lon="9.897936">
        <ele>508.4</ele>
        <time>2026-08-30T11:10:44Z</time>
      </trkpt>
      <trkpt lat="48.775087" lon="9.897943">
        <ele>508.6</ele>
        <time>2026-08-30T11:10:45Z</time>
      </trkpt>
      <trkpt lat="48.775072" lon="9.897948">
        <ele>508.8</ele>
        <time>2026-08-30T11:10:46Z</time>
      </trkpt>
      <trkpt lat="48.775057" lon="9.897952">
        <ele>509.2</ele>
        <time>2026-08-30T11:10:47Z</time>
      </trkpt>
      <trkpt lat="48.775041" lon="9.897961">
        <ele>509.2</ele>
        <time>2026-08-30T11:10:48Z</time>
      </trkpt>
      <trkpt lat="48.775027" lon="9.897975">
        <ele>509.4</ele>
        <time>2026-08-30T11:10:49Z</time>
      </trkpt>
      <trkpt lat="48.775014" lon="9.897993">
        <ele>509.6</ele>
        <time>2026-08-30T11:10:50Z</time>
      </trkpt>
      <trkpt lat="48.775001" lon="9.898011">
        <ele>509.8</ele>
        <time>2026-08-30T11:10:51Z</time>
      </trkpt>
      <trkpt lat="48.774988" lon="9.898025">
        <ele>510</ele>
        <time>2026-08-30T11:10:52Z</time>
      </trkpt>
      <trkpt lat="48.774974" lon="9.898037">
        <ele>510.2</ele>
        <time>2026-08-30T11:10:53Z</time>
      </trkpt>
      <trkpt lat="48.774964" lon="9.898055">
        <ele>510.4</ele>
        <time>2026-08-30T11:10:54Z</time>
      </trkpt>
      <trkpt lat="48.774955" lon="9.898070">
        <ele>510.6</ele>
        <time>2026-08-30T11:10:55Z</time>
      </trkpt>
      <trkpt lat="48.774943" lon="9.898090">
        <ele>510.8</ele>
        <time>2026-08-30T11:10:56Z</time>
      </trkpt>
      <trkpt lat="48.774936" lon="9.898111">
        <ele>511</ele>
        <time>2026-08-30T11:10:57Z</time>
      </trkpt>
      <trkpt lat="48.774927" lon="9.898131">
        <ele>511.2</ele>
        <time>2026-08-30T11:10:58Z</time>
      </trkpt>
      <trkpt lat="48.774916" lon="9.898149">
        <ele>511.4</ele>
        <time>2026-08-30T11:10:59Z</time>
      </trkpt>
      <trkpt lat="48.774904" lon="9.898166">
        <ele>511.6</ele>
        <time>2026-08-30T11:11:00Z</time>
      </trkpt>
      <trkpt lat="48.774889" lon="9.898175">
        <ele>511.8</ele>
        <time>2026-08-30T11:11:01Z</time>
      </trkpt>
      <trkpt lat="48.774876" lon="9.898181">
        <ele>512</ele>
        <time>2026-08-30T11:11:02Z</time>
      </trkpt>
      <trkpt lat="48.774866" lon="9.898188">
        <ele>512.2</ele>
        <time>2026-08-30T11:11:03Z</time>
      </trkpt>
      <trkpt lat="48.774854" lon="9.898200">
        <ele>512.4</ele>
        <time>2026-08-30T11:11:04Z</time>
      </trkpt>
      <trkpt lat="48.774844" lon="9.898215">
        <ele>512.6</ele>
        <time>2026-08-30T11:11:05Z</time>
      </trkpt>
      <trkpt lat="48.774835" lon="9.898235">
        <ele>512.8</ele>
        <time>2026-08-30T11:11:06Z</time>
      </trkpt>
      <trkpt lat="48.774829" lon="9.898254">
        <ele>513</ele>
        <time>2026-08-30T11:11:07Z</time>
      </trkpt>
      <trkpt lat="48.774820" lon="9.898271">
        <ele>513.2</ele>
        <time>2026-08-30T11:11:08Z</time>
      </trkpt>
      <trkpt lat="48.774808" lon="9.898286">
        <ele>513.4</ele>
        <time>2026-08-30T11:11:09Z</time>
      </trkpt>
      <trkpt lat="48.774794" lon="9.898298">
        <ele>513.6</ele>
        <time>2026-08-30T11:11:10Z</time>
      </trkpt>
      <trkpt lat="48.774783" lon="9.898317">
        <ele>513.8</ele>
        <time>2026-08-30T11:11:11Z</time>
      </trkpt>
      <trkpt lat="48.774776" lon="9.898338">
        <ele>514</ele>
        <time>2026-08-30T11:11:12Z</time>
      </trkpt>
      <trkpt lat="48.774768" lon="9.898359">
        <ele>514.2</ele>
        <time>2026-08-30T11:11:13Z</time>
      </trkpt>
      <trkpt lat="48.774758" lon="9.898376">
        <ele>514.4</ele>
        <time>2026-08-30T11:11:14Z</time>
      </trkpt>
      <trkpt lat="48.774749" lon="9.898389">
        <ele>514.6</ele>
        <time>2026-08-30T11:11:15Z</time>
      </trkpt>
      <trkpt lat="48.774739" lon="9.898407">
        <ele>514.8</ele>
        <time>2026-08-30T11:11:16Z</time>
      </trkpt>
      <trkpt lat="48.774732" lon="9.898421">
        <ele>515</ele>
        <time>2026-08-30T11:11:17Z</time>
      </trkpt>
      <trkpt lat="48.774723" lon="9.898438">
        <ele>515.2</ele>
        <time>2026-08-30T11:11:18Z</time>
      </trkpt>
      <trkpt lat="48.774712" lon="9.898456">
        <ele>515.4</ele>
        <time>2026-08-30T11:11:19Z</time>
      </trkpt>
      <trkpt lat="48.774701" lon="9.898472">
        <ele>515.6</ele>
        <time>2026-08-30T11:11:20Z</time>
      </trkpt>
      <trkpt lat="48.774692" lon="9.898491">
        <ele>515.8</ele>
        <time>2026-08-30T11:11:21Z</time>
      </trkpt>
      <trkpt lat="48.774684" lon="9.898509">
        <ele>516</ele>
        <time>2026-08-30T11:11:22Z</time>
      </trkpt>
      <trkpt lat="48.774679" lon="9.898522">
        <ele>516.2</ele>
        <time>2026-08-30T11:11:23Z</time>
      </trkpt>
      <trkpt lat="48.774672" lon="9.898542">
        <ele>516.4</ele>
        <time>2026-08-30T11:11:24Z</time>
      </trkpt>
      <trkpt lat="48.774662" lon="9.898562">
        <ele>516.6</ele>
        <time>2026-08-30T11:11:25Z</time>
      </trkpt>
      <trkpt lat="48.774651" lon="9.898577">
        <ele>516.8</ele>
        <time>2026-08-30T11:11:26Z</time>
      </trkpt>
      <trkpt lat="48.774639" lon="9.898594">
        <ele>517</ele>
        <time>2026-08-30T11:11:27Z</time>
      </trkpt>
      <trkpt lat="48.774628" lon="9.898607">
        <ele>517.2</ele>
        <time>2026-08-30T11:11:28Z</time>
      </trkpt>
      <trkpt lat="48.774618" lon="9.898621">
        <ele>517.4</ele>
        <time>2026-08-30T11:11:29Z</time>
      </trkpt>
      <trkpt lat="48.774608" lon="9.898638">
        <ele>517.4</ele>
        <time>2026-08-30T11:11:30Z</time>
      </trkpt>
      <trkpt lat="48.774596" lon="9.898658">
        <ele>517.6</ele>
        <time>2026-08-30T11:11:31Z</time>
      </trkpt>
      <trkpt lat="48.774585" lon="9.898676">
        <ele>518</ele>
        <time>2026-08-30T11:11:32Z</time>
      </trkpt>
      <trkpt lat="48.774577" lon="9.898696">
        <ele>518.2</ele>
        <time>2026-08-30T11:11:33Z</time>
      </trkpt>
      <trkpt lat="48.774570" lon="9.898719">
        <ele>518.4</ele>
        <time>2026-08-30T11:11:34Z</time>
      </trkpt>
      <trkpt lat="48.774562" lon="9.898738">
        <ele>518.6</ele>
        <time>2026-08-30T11:11:35Z</time>
      </trkpt>
      <trkpt lat="48.774551" lon="9.898753">
        <ele>518.8</ele>
        <time>2026-08-30T11:11:36Z</time>
      </trkpt>
      <trkpt lat="48.774540" lon="9.898766">
        <ele>519</ele>
        <time>2026-08-30T11:11:37Z</time>
      </trkpt>
      <trkpt lat="48.774526" lon="9.898773">
        <ele>519.2</ele>
        <time>2026-08-30T11:11:38Z</time>
      </trkpt>
      <trkpt lat="48.774510" lon="9.898779">
        <ele>519.4</ele>
        <time>2026-08-30T11:11:39Z</time>
      </trkpt>
      <trkpt lat="48.774494" lon="9.898784">
        <ele>519.6</ele>
        <time>2026-08-30T11:11:40Z</time>
      </trkpt>
      <trkpt lat="48.774480" lon="9.898796">
        <ele>519.6</ele>
        <time>2026-08-30T11:11:41Z</time>
      </trkpt>
      <trkpt lat="48.774472" lon="9.898804">
        <ele>519.8</ele>
        <time>2026-08-30T11:11:42Z</time>
      </trkpt>
      <trkpt lat="48.774459" lon="9.898829">
        <ele>520</ele>
        <time>2026-08-30T11:11:43Z</time>
      </trkpt>
      <trkpt lat="48.774451" lon="9.898847">
        <ele>520.2</ele>
        <time>2026-08-30T11:11:44Z</time>
      </trkpt>
      <trkpt lat="48.774442" lon="9.898862">
        <ele>520.4</ele>
        <time>2026-08-30T11:11:45Z</time>
      </trkpt>
      <trkpt lat="48.774433" lon="9.898878">
        <ele>520.6</ele>
        <time>2026-08-30T11:11:46Z</time>
      </trkpt>
      <trkpt lat="48.774422" lon="9.898892">
        <ele>520.8</ele>
        <time>2026-08-30T11:11:47Z</time>
      </trkpt>
      <trkpt lat="48.774410" lon="9.898900">
        <ele>521</ele>
        <time>2026-08-30T11:11:48Z</time>
      </trkpt>
      <trkpt lat="48.774392" lon="9.898908">
        <ele>521.2</ele>
        <time>2026-08-30T11:11:49Z</time>
      </trkpt>
      <trkpt lat="48.774373" lon="9.898918">
        <ele>521.4</ele>
        <time>2026-08-30T11:11:50Z</time>
      </trkpt>
      <trkpt lat="48.774359" lon="9.898931">
        <ele>521.4</ele>
        <time>2026-08-30T11:11:51Z</time>
      </trkpt>
      <trkpt lat="48.774349" lon="9.898947">
        <ele>521.8</ele>
        <time>2026-08-30T11:11:52Z</time>
      </trkpt>
      <trkpt lat="48.774348" lon="9.898963">
        <ele>522</ele>
        <time>2026-08-30T11:11:53Z</time>
      </trkpt>
      <trkpt lat="48.774342" lon="9.898983">
        <ele>522</ele>
        <time>2026-08-30T11:11:54Z</time>
      </trkpt>
      <trkpt lat="48.774336" lon="9.898994">
        <ele>522.2</ele>
        <time>2026-08-30T11:11:55Z</time>
      </trkpt>
      <trkpt lat="48.774324" lon="9.899009">
        <ele>522.4</ele>
        <time>2026-08-30T11:11:56Z</time>
      </trkpt>
      <trkpt lat="48.774312" lon="9.899016">
        <ele>522.6</ele>
        <time>2026-08-30T11:11:57Z</time>
      </trkpt>
      <trkpt lat="48.774298" lon="9.899028">
        <ele>522.8</ele>
        <time>2026-08-30T11:11:58Z</time>
      </trkpt>
      <trkpt lat="48.774288" lon="9.899037">
        <ele>523</ele>
        <time>2026-08-30T11:11:59Z</time>
      </trkpt>
      <trkpt lat="48.774275" lon="9.899043">
        <ele>523.2</ele>
        <time>2026-08-30T11:12:00Z</time>
      </trkpt>
      <trkpt lat="48.774265" lon="9.899058">
        <ele>523.4</ele>
        <time>2026-08-30T11:12:01Z</time>
      </trkpt>
      <trkpt lat="48.774254" lon="9.899076">
        <ele>523.4</ele>
        <time>2026-08-30T11:12:02Z</time>
      </trkpt>
      <trkpt lat="48.774247" lon="9.899097">
        <ele>523.8</ele>
        <time>2026-08-30T11:12:03Z</time>
      </trkpt>
      <trkpt lat="48.774238" lon="9.899115">
        <ele>524</ele>
        <time>2026-08-30T11:12:04Z</time>
      </trkpt>
      <trkpt lat="48.774229" lon="9.899137">
        <ele>524.2</ele>
        <time>2026-08-30T11:12:05Z</time>
      </trkpt>
      <trkpt lat="48.774221" lon="9.899153">
        <ele>524.4</ele>
        <time>2026-08-30T11:12:06Z</time>
      </trkpt>
      <trkpt lat="48.774209" lon="9.899165">
        <ele>524.6</ele>
        <time>2026-08-30T11:12:07Z</time>
      </trkpt>
      <trkpt lat="48.774196" lon="9.899175">
        <ele>524.8</ele>
        <time>2026-08-30T11:12:08Z</time>
      </trkpt>
      <trkpt lat="48.774184" lon="9.899183">
        <ele>525</ele>
        <time>2026-08-30T11:12:09Z</time>
      </trkpt>
      <trkpt lat="48.774173" lon="9.899193">
        <ele>525.2</ele>
        <time>2026-08-30T11:12:10Z</time>
      </trkpt>
      <trkpt lat="48.774163" lon="9.899207">
        <ele>525.4</ele>
        <time>2026-08-30T11:12:11Z</time>
      </trkpt>
      <trkpt lat="48.774155" lon="9.899228">
        <ele>525.6</ele>
        <time>2026-08-30T11:12:12Z</time>
      </trkpt>
      <trkpt lat="48.774146" lon="9.899248">
        <ele>525.8</ele>
        <time>2026-08-30T11:12:13Z</time>
      </trkpt>
      <trkpt lat="48.774141" lon="9.899270">
        <ele>526</ele>
        <time>2026-08-30T11:12:14Z</time>
      </trkpt>
      <trkpt lat="48.774135" lon="9.899281">
        <ele>526.2</ele>
        <time>2026-08-30T11:12:15Z</time>
      </trkpt>
      <trkpt lat="48.774125" lon="9.899293">
        <ele>526.4</ele>
        <time>2026-08-30T11:12:16Z</time>
      </trkpt>
      <trkpt lat="48.774113" lon="9.899305">
        <ele>526.6</ele>
        <time>2026-08-30T11:12:17Z</time>
      </trkpt>
      <trkpt lat="48.774098" lon="9.899311">
        <ele>526.8</ele>
        <time>2026-08-30T11:12:18Z</time>
      </trkpt>
      <trkpt lat="48.774081" lon="9.899327">
        <ele>527</ele>
        <time>2026-08-30T11:12:19Z</time>
      </trkpt>
      <trkpt lat="48.774068" lon="9.899339">
        <ele>527.2</ele>
        <time>2026-08-30T11:12:20Z</time>
      </trkpt>
      <trkpt lat="48.774059" lon="9.899356">
        <ele>527.2</ele>
        <time>2026-08-30T11:12:21Z</time>
      </trkpt>
      <trkpt lat="48.774047" lon="9.899377">
        <ele>527.4</ele>
        <time>2026-08-30T11:12:22Z</time>
      </trkpt>
      <trkpt lat="48.774034" lon="9.899397">
        <ele>527.6</ele>
        <time>2026-08-30T11:12:23Z</time>
      </trkpt>
      <trkpt lat="48.774019" lon="9.899406">
        <ele>527.8</ele>
        <time>2026-08-30T11:12:24Z</time>
      </trkpt>
      <trkpt lat="48.774005" lon="9.899422">
        <ele>528</ele>
        <time>2026-08-30T11:12:25Z</time>
      </trkpt>
      <trkpt lat="48.773988" lon="9.899441">
        <ele>528.2</ele>
        <time>2026-08-30T11:12:26Z</time>
      </trkpt>
      <trkpt lat="48.773977" lon="9.899455">
        <ele>528.4</ele>
        <time>2026-08-30T11:12:27Z</time>
      </trkpt>
      <trkpt lat="48.773968" lon="9.899472">
        <ele>528.6</ele>
        <time>2026-08-30T11:12:28Z</time>
      </trkpt>
      <trkpt lat="48.773959" lon="9.899486">
        <ele>528.6</ele>
        <time>2026-08-30T11:12:29Z</time>
      </trkpt>
      <trkpt lat="48.773948" lon="9.899499">
        <ele>528.8</ele>
        <time>2026-08-30T11:12:30Z</time>
      </trkpt>
      <trkpt lat="48.773932" lon="9.899519">
        <ele>529</ele>
        <time>2026-08-30T11:12:31Z</time>
      </trkpt>
      <trkpt lat="48.773922" lon="9.899538">
        <ele>529.2</ele>
        <time>2026-08-30T11:12:32Z</time>
      </trkpt>
      <trkpt lat="48.773911" lon="9.899561">
        <ele>529.4</ele>
        <time>2026-08-30T11:12:33Z</time>
      </trkpt>
      <trkpt lat="48.773899" lon="9.899584">
        <ele>529.6</ele>
        <time>2026-08-30T11:12:34Z</time>
      </trkpt>
      <trkpt lat="48.773886" lon="9.899608">
        <ele>529.8</ele>
        <time>2026-08-30T11:12:35Z</time>
      </trkpt>
      <trkpt lat="48.773872" lon="9.899628">
        <ele>529.8</ele>
        <time>2026-08-30T11:12:36Z</time>
      </trkpt>
      <trkpt lat="48.773856" lon="9.899640">
        <ele>530</ele>
        <time>2026-08-30T11:12:37Z</time>
      </trkpt>
      <trkpt lat="48.773843" lon="9.899640">
        <ele>530.2</ele>
        <time>2026-08-30T11:12:38Z</time>
      </trkpt>
      <trkpt lat="48.773832" lon="9.899652">
        <ele>530.4</ele>
        <time>2026-08-30T11:12:39Z</time>
      </trkpt>
      <trkpt lat="48.773825" lon="9.899667">
        <ele>530.6</ele>
        <time>2026-08-30T11:12:40Z</time>
      </trkpt>
      <trkpt lat="48.773820" lon="9.899686">
        <ele>530.8</ele>
        <time>2026-08-30T11:12:41Z</time>
      </trkpt>
      <trkpt lat="48.773817" lon="9.899708">
        <ele>530.8</ele>
        <time>2026-08-30T11:12:42Z</time>
      </trkpt>
      <trkpt lat="48.773812" lon="9.899729">
        <ele>531</ele>
        <time>2026-08-30T11:12:43Z</time>
      </trkpt>
      <trkpt lat="48.773803" lon="9.899749">
        <ele>531.2</ele>
        <time>2026-08-30T11:12:44Z</time>
      </trkpt>
      <trkpt lat="48.773791" lon="9.899763">
        <ele>531.4</ele>
        <time>2026-08-30T11:12:45Z</time>
      </trkpt>
      <trkpt lat="48.773775" lon="9.899774">
        <ele>531.4</ele>
        <time>2026-08-30T11:12:46Z</time>
      </trkpt>
      <trkpt lat="48.773759" lon="9.899781">
        <ele>531.6</ele>
        <time>2026-08-30T11:12:47Z</time>
      </trkpt>
      <trkpt lat="48.773743" lon="9.899792">
        <ele>531.8</ele>
        <time>2026-08-30T11:12:48Z</time>
      </trkpt>
      <trkpt lat="48.773729" lon="9.899810">
        <ele>532</ele>
        <time>2026-08-30T11:12:49Z</time>
      </trkpt>
      <trkpt lat="48.773722" lon="9.899831">
        <ele>532.2</ele>
        <time>2026-08-30T11:12:50Z</time>
      </trkpt>
      <trkpt lat="48.773719" lon="9.899852">
        <ele>532.4</ele>
        <time>2026-08-30T11:12:51Z</time>
      </trkpt>
      <trkpt lat="48.773716" lon="9.899874">
        <ele>532.6</ele>
        <time>2026-08-30T11:12:52Z</time>
      </trkpt>
      <trkpt lat="48.773708" lon="9.899895">
        <ele>532.8</ele>
        <time>2026-08-30T11:12:53Z</time>
      </trkpt>
      <trkpt lat="48.773699" lon="9.899921">
        <ele>533</ele>
        <time>2026-08-30T11:12:54Z</time>
      </trkpt>
      <trkpt lat="48.773689" lon="9.899942">
        <ele>533</ele>
        <time>2026-08-30T11:12:55Z</time>
      </trkpt>
      <trkpt lat="48.773680" lon="9.899964">
        <ele>533.2</ele>
        <time>2026-08-30T11:12:56Z</time>
      </trkpt>
      <trkpt lat="48.773670" lon="9.899984">
        <ele>533.4</ele>
        <time>2026-08-30T11:12:57Z</time>
      </trkpt>
      <trkpt lat="48.773656" lon="9.900001">
        <ele>533.6</ele>
        <time>2026-08-30T11:12:58Z</time>
      </trkpt>
      <trkpt lat="48.773642" lon="9.900011">
        <ele>533.8</ele>
        <time>2026-08-30T11:12:59Z</time>
      </trkpt>
      <trkpt lat="48.773630" lon="9.900021">
        <ele>534</ele>
        <time>2026-08-30T11:13:00Z</time>
      </trkpt>
      <trkpt lat="48.773618" lon="9.900035">
        <ele>534.2</ele>
        <time>2026-08-30T11:13:01Z</time>
      </trkpt>
      <trkpt lat="48.773610" lon="9.900049">
        <ele>534.4</ele>
        <time>2026-08-30T11:13:02Z</time>
      </trkpt>
      <trkpt lat="48.773601" lon="9.900070">
        <ele>534.8</ele>
        <time>2026-08-30T11:13:03Z</time>
      </trkpt>
      <trkpt lat="48.773594" lon="9.900089">
        <ele>535</ele>
        <time>2026-08-30T11:13:04Z</time>
      </trkpt>
      <trkpt lat="48.773589" lon="9.900112">
        <ele>535.2</ele>
        <time>2026-08-30T11:13:05Z</time>
      </trkpt>
      <trkpt lat="48.773582" lon="9.900130">
        <ele>535.4</ele>
        <time>2026-08-30T11:13:06Z</time>
      </trkpt>
      <trkpt lat="48.773573" lon="9.900147">
        <ele>535.6</ele>
        <time>2026-08-30T11:13:07Z</time>
      </trkpt>
      <trkpt lat="48.773562" lon="9.900161">
        <ele>535.8</ele>
        <time>2026-08-30T11:13:08Z</time>
      </trkpt>
      <trkpt lat="48.773548" lon="9.900175">
        <ele>536</ele>
        <time>2026-08-30T11:13:09Z</time>
      </trkpt>
      <trkpt lat="48.773535" lon="9.900187">
        <ele>536.2</ele>
        <time>2026-08-30T11:13:10Z</time>
      </trkpt>
      <trkpt lat="48.773526" lon="9.900202">
        <ele>536.4</ele>
        <time>2026-08-30T11:13:11Z</time>
      </trkpt>
      <trkpt lat="48.773520" lon="9.900222">
        <ele>536.6</ele>
        <time>2026-08-30T11:13:12Z</time>
      </trkpt>
      <trkpt lat="48.773513" lon="9.900240">
        <ele>536.8</ele>
        <time>2026-08-30T11:13:13Z</time>
      </trkpt>
      <trkpt lat="48.773503" lon="9.900258">
        <ele>537</ele>
        <time>2026-08-30T11:13:14Z</time>
      </trkpt>
      <trkpt lat="48.773491" lon="9.900276">
        <ele>537.2</ele>
        <time>2026-08-30T11:13:15Z</time>
      </trkpt>
      <trkpt lat="48.773480" lon="9.900291">
        <ele>537.4</ele>
        <time>2026-08-30T11:13:16Z</time>
      </trkpt>
      <trkpt lat="48.773469" lon="9.900308">
        <ele>537.4</ele>
        <time>2026-08-30T11:13:17Z</time>
      </trkpt>
      <trkpt lat="48.773461" lon="9.900330">
        <ele>537.6</ele>
        <time>2026-08-30T11:13:18Z</time>
      </trkpt>
      <trkpt lat="48.773455" lon="9.900351">
        <ele>537.8</ele>
        <time>2026-08-30T11:13:19Z</time>
      </trkpt>
      <trkpt lat="48.773449" lon="9.900373">
        <ele>538</ele>
        <time>2026-08-30T11:13:20Z</time>
      </trkpt>
      <trkpt lat="48.773441" lon="9.900392">
        <ele>538.2</ele>
        <time>2026-08-30T11:13:21Z</time>
      </trkpt>
      <trkpt lat="48.773429" lon="9.900414">
        <ele>538.2</ele>
        <time>2026-08-30T11:13:22Z</time>
      </trkpt>
      <trkpt lat="48.773417" lon="9.900428">
        <ele>538.4</ele>
        <time>2026-08-30T11:13:23Z</time>
      </trkpt>
      <trkpt lat="48.773400" lon="9.900443">
        <ele>538.6</ele>
        <time>2026-08-30T11:13:24Z</time>
      </trkpt>
      <trkpt lat="48.773390" lon="9.900454">
        <ele>538.8</ele>
        <time>2026-08-30T11:13:25Z</time>
      </trkpt>
      <trkpt lat="48.773376" lon="9.900474">
        <ele>539</ele>
        <time>2026-08-30T11:13:26Z</time>
      </trkpt>
      <trkpt lat="48.773363" lon="9.900494">
        <ele>539</ele>
        <time>2026-08-30T11:13:27Z</time>
      </trkpt>
      <trkpt lat="48.773353" lon="9.900515">
        <ele>539.2</ele>
        <time>2026-08-30T11:13:28Z</time>
      </trkpt>
      <trkpt lat="48.773343" lon="9.900534">
        <ele>539.4</ele>
        <time>2026-08-30T11:13:29Z</time>
      </trkpt>
      <trkpt lat="48.773332" lon="9.900558">
        <ele>539.6</ele>
        <time>2026-08-30T11:13:30Z</time>
      </trkpt>
      <trkpt lat="48.773322" lon="9.900578">
        <ele>539.6</ele>
        <time>2026-08-30T11:13:31Z</time>
      </trkpt>
      <trkpt lat="48.773308" lon="9.900603">
        <ele>539.8</ele>
        <time>2026-08-30T11:13:32Z</time>
      </trkpt>
      <trkpt lat="48.773296" lon="9.900621">
        <ele>540</ele>
        <time>2026-08-30T11:13:33Z</time>
      </trkpt>
      <trkpt lat="48.773286" lon="9.900642">
        <ele>540</ele>
        <time>2026-08-30T11:13:34Z</time>
      </trkpt>
      <trkpt lat="48.773278" lon="9.900661">
        <ele>540.2</ele>
        <time>2026-08-30T11:13:35Z</time>
      </trkpt>
      <trkpt lat="48.773269" lon="9.900678">
        <ele>540.4</ele>
        <time>2026-08-30T11:13:36Z</time>
      </trkpt>
      <trkpt lat="48.773261" lon="9.900694">
        <ele>540.6</ele>
        <time>2026-08-30T11:13:37Z</time>
      </trkpt>
      <trkpt lat="48.773253" lon="9.900717">
        <ele>540.8</ele>
        <time>2026-08-30T11:13:38Z</time>
      </trkpt>
      <trkpt lat="48.773245" lon="9.900739">
        <ele>541</ele>
        <time>2026-08-30T11:13:39Z</time>
      </trkpt>
      <trkpt lat="48.773236" lon="9.900757">
        <ele>541</ele>
        <time>2026-08-30T11:13:40Z</time>
      </trkpt>
      <trkpt lat="48.773227" lon="9.900779">
        <ele>541.2</ele>
        <time>2026-08-30T11:13:41Z</time>
      </trkpt>
      <trkpt lat="48.773217" lon="9.900801">
        <ele>541.4</ele>
        <time>2026-08-30T11:13:42Z</time>
      </trkpt>
      <trkpt lat="48.773208" lon="9.900827">
        <ele>541.4</ele>
        <time>2026-08-30T11:13:43Z</time>
      </trkpt>
      <trkpt lat="48.773201" lon="9.900849">
        <ele>541.6</ele>
        <time>2026-08-30T11:13:44Z</time>
      </trkpt>
      <trkpt lat="48.773189" lon="9.900870">
        <ele>541.8</ele>
        <time>2026-08-30T11:13:45Z</time>
      </trkpt>
      <trkpt lat="48.773175" lon="9.900888">
        <ele>542</ele>
        <time>2026-08-30T11:13:46Z</time>
      </trkpt>
      <trkpt lat="48.773163" lon="9.900910">
        <ele>542</ele>
        <time>2026-08-30T11:13:47Z</time>
      </trkpt>
      <trkpt lat="48.773150" lon="9.900929">
        <ele>542.2</ele>
        <time>2026-08-30T11:13:48Z</time>
      </trkpt>
      <trkpt lat="48.773139" lon="9.900947">
        <ele>542.4</ele>
        <time>2026-08-30T11:13:49Z</time>
      </trkpt>
      <trkpt lat="48.773125" lon="9.900965">
        <ele>542.6</ele>
        <time>2026-08-30T11:13:50Z</time>
      </trkpt>
      <trkpt lat="48.773116" lon="9.900990">
        <ele>542.8</ele>
        <time>2026-08-30T11:13:51Z</time>
      </trkpt>
      <trkpt lat="48.773110" lon="9.901017">
        <ele>542.8</ele>
        <time>2026-08-30T11:13:52Z</time>
      </trkpt>
      <trkpt lat="48.773103" lon="9.901039">
        <ele>543</ele>
        <time>2026-08-30T11:13:53Z</time>
      </trkpt>
      <trkpt lat="48.773093" lon="9.901058">
        <ele>543.2</ele>
        <time>2026-08-30T11:13:54Z</time>
      </trkpt>
      <trkpt lat="48.773079" lon="9.901074">
        <ele>543.4</ele>
        <time>2026-08-30T11:13:55Z</time>
      </trkpt>
      <trkpt lat="48.773065" lon="9.901095">
        <ele>543.4</ele>
        <time>2026-08-30T11:13:56Z</time>
      </trkpt>
      <trkpt lat="48.773054" lon="9.901113">
        <ele>543.6</ele>
        <time>2026-08-30T11:13:57Z</time>
      </trkpt>
      <trkpt lat="48.773047" lon="9.901132">
        <ele>543.8</ele>
        <time>2026-08-30T11:13:58Z</time>
      </trkpt>
      <trkpt lat="48.773041" lon="9.901152">
        <ele>544</ele>
        <time>2026-08-30T11:13:59Z</time>
      </trkpt>
      <trkpt lat="48.773035" lon="9.901174">
        <ele>544.2</ele>
        <time>2026-08-30T11:14:00Z</time>
      </trkpt>
      <trkpt lat="48.773028" lon="9.901200">
        <ele>544.2</ele>
        <time>2026-08-30T11:14:01Z</time>
      </trkpt>
      <trkpt lat="48.773020" lon="9.901215">
        <ele>544.4</ele>
        <time>2026-08-30T11:14:02Z</time>
      </trkpt>
      <trkpt lat="48.773007" lon="9.901234">
        <ele>544.6</ele>
        <time>2026-08-30T11:14:03Z</time>
      </trkpt>
      <trkpt lat="48.772991" lon="9.901251">
        <ele>544.8</ele>
        <time>2026-08-30T11:14:04Z</time>
      </trkpt>
      <trkpt lat="48.772975" lon="9.901265">
        <ele>545</ele>
        <time>2026-08-30T11:14:05Z</time>
      </trkpt>
      <trkpt lat="48.772961" lon="9.901282">
        <ele>545.2</ele>
        <time>2026-08-30T11:14:06Z</time>
      </trkpt>
      <trkpt lat="48.772948" lon="9.901301">
        <ele>545.2</ele>
        <time>2026-08-30T11:14:07Z</time>
      </trkpt>
      <trkpt lat="48.772934" lon="9.901321">
        <ele>545.4</ele>
        <time>2026-08-30T11:14:08Z</time>
      </trkpt>
      <trkpt lat="48.772922" lon="9.901338">
        <ele>545.6</ele>
        <time>2026-08-30T11:14:09Z</time>
      </trkpt>
      <trkpt lat="48.772907" lon="9.901361">
        <ele>545.8</ele>
        <time>2026-08-30T11:14:10Z</time>
      </trkpt>
      <trkpt lat="48.772899" lon="9.901385">
        <ele>545.8</ele>
        <time>2026-08-30T11:14:11Z</time>
      </trkpt>
      <trkpt lat="48.772891" lon="9.901411">
        <ele>546</ele>
        <time>2026-08-30T11:14:12Z</time>
      </trkpt>
      <trkpt lat="48.772882" lon="9.901432">
        <ele>546.2</ele>
        <time>2026-08-30T11:14:13Z</time>
      </trkpt>
      <trkpt lat="48.772868" lon="9.901447">
        <ele>546.2</ele>
        <time>2026-08-30T11:14:14Z</time>
      </trkpt>
      <trkpt lat="48.772855" lon="9.901456">
        <ele>546.4</ele>
        <time>2026-08-30T11:14:15Z</time>
      </trkpt>
      <trkpt lat="48.772841" lon="9.901471">
        <ele>546.6</ele>
        <time>2026-08-30T11:14:16Z</time>
      </trkpt>
      <trkpt lat="48.772831" lon="9.901491">
        <ele>546.6</ele>
        <time>2026-08-30T11:14:17Z</time>
      </trkpt>
      <trkpt lat="48.772824" lon="9.901511">
        <ele>546.8</ele>
        <time>2026-08-30T11:14:18Z</time>
      </trkpt>
      <trkpt lat="48.772812" lon="9.901528">
        <ele>546.8</ele>
        <time>2026-08-30T11:14:19Z</time>
      </trkpt>
      <trkpt lat="48.772799" lon="9.901544">
        <ele>547</ele>
        <time>2026-08-30T11:14:20Z</time>
      </trkpt>
      <trkpt lat="48.772784" lon="9.901564">
        <ele>547</ele>
        <time>2026-08-30T11:14:21Z</time>
      </trkpt>
      <trkpt lat="48.772767" lon="9.901586">
        <ele>547.2</ele>
        <time>2026-08-30T11:14:22Z</time>
      </trkpt>
      <trkpt lat="48.772755" lon="9.901601">
        <ele>547.2</ele>
        <time>2026-08-30T11:14:23Z</time>
      </trkpt>
      <trkpt lat="48.772742" lon="9.901617">
        <ele>547.4</ele>
        <time>2026-08-30T11:14:24Z</time>
      </trkpt>
      <trkpt lat="48.772732" lon="9.901636">
        <ele>547.4</ele>
        <time>2026-08-30T11:14:25Z</time>
      </trkpt>
      <trkpt lat="48.772718" lon="9.901654">
        <ele>547.6</ele>
        <time>2026-08-30T11:14:26Z</time>
      </trkpt>
      <trkpt lat="48.772707" lon="9.901670">
        <ele>547.8</ele>
        <time>2026-08-30T11:14:27Z</time>
      </trkpt>
      <trkpt lat="48.772693" lon="9.901691">
        <ele>547.8</ele>
        <time>2026-08-30T11:14:28Z</time>
      </trkpt>
      <trkpt lat="48.772677" lon="9.901714">
        <ele>548</ele>
        <time>2026-08-30T11:14:29Z</time>
      </trkpt>
      <trkpt lat="48.772662" lon="9.901733">
        <ele>548.2</ele>
        <time>2026-08-30T11:14:30Z</time>
      </trkpt>
      <trkpt lat="48.772647" lon="9.901743">
        <ele>548.4</ele>
        <time>2026-08-30T11:14:31Z</time>
      </trkpt>
      <trkpt lat="48.772633" lon="9.901759">
        <ele>548.6</ele>
        <time>2026-08-30T11:14:32Z</time>
      </trkpt>
      <trkpt lat="48.772621" lon="9.901777">
        <ele>548.6</ele>
        <time>2026-08-30T11:14:33Z</time>
      </trkpt>
      <trkpt lat="48.772614" lon="9.901797">
        <ele>548.8</ele>
        <time>2026-08-30T11:14:34Z</time>
      </trkpt>
      <trkpt lat="48.772605" lon="9.901815">
        <ele>549</ele>
        <time>2026-08-30T11:14:35Z</time>
      </trkpt>
      <trkpt lat="48.772599" lon="9.901830">
        <ele>549.2</ele>
        <time>2026-08-30T11:14:36Z</time>
      </trkpt>
      <trkpt lat="48.772586" lon="9.901847">
        <ele>549.4</ele>
        <time>2026-08-30T11:14:37Z</time>
      </trkpt>
      <trkpt lat="48.772573" lon="9.901866">
        <ele>549.6</ele>
        <time>2026-08-30T11:14:38Z</time>
      </trkpt>
      <trkpt lat="48.772561" lon="9.901880">
        <ele>549.8</ele>
        <time>2026-08-30T11:14:39Z</time>
      </trkpt>
      <trkpt lat="48.772545" lon="9.901899">
        <ele>550</ele>
        <time>2026-08-30T11:14:40Z</time>
      </trkpt>
      <trkpt lat="48.772528" lon="9.901915">
        <ele>550</ele>
        <time>2026-08-30T11:14:41Z</time>
      </trkpt>
      <trkpt lat="48.772515" lon="9.901932">
        <ele>550.2</ele>
        <time>2026-08-30T11:14:42Z</time>
      </trkpt>
      <trkpt lat="48.772503" lon="9.901947">
        <ele>550.4</ele>
        <time>2026-08-30T11:14:43Z</time>
      </trkpt>
      <trkpt lat="48.772490" lon="9.901963">
        <ele>550.6</ele>
        <time>2026-08-30T11:14:44Z</time>
      </trkpt>
      <trkpt lat="48.772482" lon="9.901977">
        <ele>550.8</ele>
        <time>2026-08-30T11:14:45Z</time>
      </trkpt>
      <trkpt lat="48.772469" lon="9.901996">
        <ele>551</ele>
        <time>2026-08-30T11:14:46Z</time>
      </trkpt>
      <trkpt lat="48.772460" lon="9.902021">
        <ele>551.2</ele>
        <time>2026-08-30T11:14:47Z</time>
      </trkpt>
      <trkpt lat="48.772453" lon="9.902040">
        <ele>551.4</ele>
        <time>2026-08-30T11:14:48Z</time>
      </trkpt>
      <trkpt lat="48.772442" lon="9.902058">
        <ele>551.6</ele>
        <time>2026-08-30T11:14:49Z</time>
      </trkpt>
      <trkpt lat="48.772433" lon="9.902071">
        <ele>551.8</ele>
        <time>2026-08-30T11:14:50Z</time>
      </trkpt>
      <trkpt lat="48.772421" lon="9.902089">
        <ele>552</ele>
        <time>2026-08-30T11:14:51Z</time>
      </trkpt>
      <trkpt lat="48.772408" lon="9.902106">
        <ele>552.2</ele>
        <time>2026-08-30T11:14:52Z</time>
      </trkpt>
      <trkpt lat="48.772395" lon="9.902124">
        <ele>552.4</ele>
        <time>2026-08-30T11:14:53Z</time>
      </trkpt>
      <trkpt lat="48.772377" lon="9.902143">
        <ele>552.6</ele>
        <time>2026-08-30T11:14:54Z</time>
      </trkpt>
      <trkpt lat="48.772359" lon="9.902159">
        <ele>552.8</ele>
        <time>2026-08-30T11:14:55Z</time>
      </trkpt>
      <trkpt lat="48.772342" lon="9.902173">
        <ele>552.8</ele>
        <time>2026-08-30T11:14:56Z</time>
      </trkpt>
      <trkpt lat="48.772330" lon="9.902191">
        <ele>553</ele>
        <time>2026-08-30T11:14:57Z</time>
      </trkpt>
      <trkpt lat="48.772321" lon="9.902207">
        <ele>553.2</ele>
        <time>2026-08-30T11:14:58Z</time>
      </trkpt>
      <trkpt lat="48.772312" lon="9.902223">
        <ele>553.4</ele>
        <time>2026-08-30T11:14:59Z</time>
      </trkpt>
      <trkpt lat="48.772304" lon="9.902238">
        <ele>553.6</ele>
        <time>2026-08-30T11:15:00Z</time>
      </trkpt>
      <trkpt lat="48.772289" lon="9.902254">
        <ele>553.8</ele>
        <time>2026-08-30T11:15:01Z</time>
      </trkpt>
      <trkpt lat="48.772274" lon="9.902264">
        <ele>553.8</ele>
        <time>2026-08-30T11:15:02Z</time>
      </trkpt>
      <trkpt lat="48.772262" lon="9.902277">
        <ele>554</ele>
        <time>2026-08-30T11:15:03Z</time>
      </trkpt>
      <trkpt lat="48.772248" lon="9.902295">
        <ele>554.2</ele>
        <time>2026-08-30T11:15:04Z</time>
      </trkpt>
      <trkpt lat="48.772235" lon="9.902318">
        <ele>554.4</ele>
        <time>2026-08-30T11:15:05Z</time>
      </trkpt>
      <trkpt lat="48.772229" lon="9.902334">
        <ele>554.6</ele>
        <time>2026-08-30T11:15:06Z</time>
      </trkpt>
      <trkpt lat="48.772221" lon="9.902357">
        <ele>554.8</ele>
        <time>2026-08-30T11:15:07Z</time>
      </trkpt>
      <trkpt lat="48.772211" lon="9.902373">
        <ele>555</ele>
        <time>2026-08-30T11:15:08Z</time>
      </trkpt>
      <trkpt lat="48.772196" lon="9.902385">
        <ele>555</ele>
        <time>2026-08-30T11:15:09Z</time>
      </trkpt>
      <trkpt lat="48.772183" lon="9.902393">
        <ele>555.2</ele>
        <time>2026-08-30T11:15:10Z</time>
      </trkpt>
      <trkpt lat="48.772170" lon="9.902400">
        <ele>555.4</ele>
        <time>2026-08-30T11:15:11Z</time>
      </trkpt>
      <trkpt lat="48.772153" lon="9.902407">
        <ele>555.6</ele>
        <time>2026-08-30T11:15:12Z</time>
      </trkpt>
      <trkpt lat="48.772142" lon="9.902418">
        <ele>555.6</ele>
        <time>2026-08-30T11:15:13Z</time>
      </trkpt>
      <trkpt lat="48.772131" lon="9.902434">
        <ele>555.8</ele>
        <time>2026-08-30T11:15:14Z</time>
      </trkpt>
      <trkpt lat="48.772119" lon="9.902451">
        <ele>556</ele>
        <time>2026-08-30T11:15:15Z</time>
      </trkpt>
      <trkpt lat="48.772106" lon="9.902464">
        <ele>556.2</ele>
        <time>2026-08-30T11:15:16Z</time>
      </trkpt>
      <trkpt lat="48.772097" lon="9.902480">
        <ele>556.4</ele>
        <time>2026-08-30T11:15:17Z</time>
      </trkpt>
      <trkpt lat="48.772087" lon="9.902491">
        <ele>556.6</ele>
        <time>2026-08-30T11:15:18Z</time>
      </trkpt>
      <trkpt lat="48.772073" lon="9.902502">
        <ele>557</ele>
        <time>2026-08-30T11:15:19Z</time>
      </trkpt>
      <trkpt lat="48.772062" lon="9.902520">
        <ele>557.2</ele>
        <time>2026-08-30T11:15:20Z</time>
      </trkpt>
      <trkpt lat="48.772050" lon="9.902539">
        <ele>557.4</ele>
        <time>2026-08-30T11:15:21Z</time>
      </trkpt>
      <trkpt lat="48.772038" lon="9.902558">
        <ele>557.6</ele>
        <time>2026-08-30T11:15:22Z</time>
      </trkpt>
      <trkpt lat="48.772023" lon="9.902570">
        <ele>557.8</ele>
        <time>2026-08-30T11:15:23Z</time>
      </trkpt>
      <trkpt lat="48.772008" lon="9.902580">
        <ele>558</ele>
        <time>2026-08-30T11:15:24Z</time>
      </trkpt>
      <trkpt lat="48.771995" lon="9.902595">
        <ele>558.2</ele>
        <time>2026-08-30T11:15:25Z</time>
      </trkpt>
      <trkpt lat="48.771983" lon="9.902600">
        <ele>558.4</ele>
        <time>2026-08-30T11:15:26Z</time>
      </trkpt>
      <trkpt lat="48.771968" lon="9.902606">
        <ele>558.6</ele>
        <time>2026-08-30T11:15:27Z</time>
      </trkpt>
      <trkpt lat="48.771954" lon="9.902615">
        <ele>558.8</ele>
        <time>2026-08-30T11:15:28Z</time>
      </trkpt>
      <trkpt lat="48.771941" lon="9.902628">
        <ele>559</ele>
        <time>2026-08-30T11:15:29Z</time>
      </trkpt>
      <trkpt lat="48.771932" lon="9.902640">
        <ele>559.2</ele>
        <time>2026-08-30T11:15:30Z</time>
      </trkpt>
      <trkpt lat="48.771923" lon="9.902657">
        <ele>559.4</ele>
        <time>2026-08-30T11:15:31Z</time>
      </trkpt>
      <trkpt lat="48.771914" lon="9.902670">
        <ele>559.6</ele>
        <time>2026-08-30T11:15:32Z</time>
      </trkpt>
      <trkpt lat="48.771902" lon="9.902686">
        <ele>559.8</ele>
        <time>2026-08-30T11:15:33Z</time>
      </trkpt>
      <trkpt lat="48.771889" lon="9.902703">
        <ele>560</ele>
        <time>2026-08-30T11:15:34Z</time>
      </trkpt>
      <trkpt lat="48.771878" lon="9.902720">
        <ele>560.2</ele>
        <time>2026-08-30T11:15:35Z</time>
      </trkpt>
      <trkpt lat="48.771869" lon="9.902735">
        <ele>560.4</ele>
        <time>2026-08-30T11:15:36Z</time>
      </trkpt>
      <trkpt lat="48.771858" lon="9.902752">
        <ele>560.6</ele>
        <time>2026-08-30T11:15:37Z</time>
      </trkpt>
      <trkpt lat="48.771849" lon="9.902773">
        <ele>560.8</ele>
        <time>2026-08-30T11:15:38Z</time>
      </trkpt>
      <trkpt lat="48.771841" lon="9.902787">
        <ele>561</ele>
        <time>2026-08-30T11:15:39Z</time>
      </trkpt>
      <trkpt lat="48.771832" lon="9.902800">
        <ele>561.2</ele>
        <time>2026-08-30T11:15:40Z</time>
      </trkpt>
      <trkpt lat="48.771820" lon="9.902812">
        <ele>561.2</ele>
        <time>2026-08-30T11:15:41Z</time>
      </trkpt>
      <trkpt lat="48.771809" lon="9.902827">
        <ele>561.4</ele>
        <time>2026-08-30T11:15:42Z</time>
      </trkpt>
      <trkpt lat="48.771797" lon="9.902843">
        <ele>561.6</ele>
        <time>2026-08-30T11:15:43Z</time>
      </trkpt>
      <trkpt lat="48.771787" lon="9.902862">
        <ele>561.8</ele>
        <time>2026-08-30T11:15:44Z</time>
      </trkpt>
      <trkpt lat="48.771778" lon="9.902876">
        <ele>562</ele>
        <time>2026-08-30T11:15:45Z</time>
      </trkpt>
      <trkpt lat="48.771766" lon="9.902895">
        <ele>562.2</ele>
        <time>2026-08-30T11:15:46Z</time>
      </trkpt>
      <trkpt lat="48.771753" lon="9.902908">
        <ele>562.4</ele>
        <time>2026-08-30T11:15:47Z</time>
      </trkpt>
      <trkpt lat="48.771740" lon="9.902923">
        <ele>562.6</ele>
        <time>2026-08-30T11:15:48Z</time>
      </trkpt>
      <trkpt lat="48.771730" lon="9.902938">
        <ele>562.6</ele>
        <time>2026-08-30T11:15:49Z</time>
      </trkpt>
      <trkpt lat="48.771725" lon="9.902957">
        <ele>562.8</ele>
        <time>2026-08-30T11:15:50Z</time>
      </trkpt>
      <trkpt lat="48.771725" lon="9.902976">
        <ele>563.2</ele>
        <time>2026-08-30T11:15:51Z</time>
      </trkpt>
      <trkpt lat="48.771721" lon="9.903000">
        <ele>563.2</ele>
        <time>2026-08-30T11:15:52Z</time>
      </trkpt>
      <trkpt lat="48.771717" lon="9.903021">
        <ele>563.4</ele>
        <time>2026-08-30T11:15:53Z</time>
      </trkpt>
      <trkpt lat="48.771716" lon="9.903038">
        <ele>563.6</ele>
        <time>2026-08-30T11:15:54Z</time>
      </trkpt>
      <trkpt lat="48.771709" lon="9.903052">
        <ele>563.8</ele>
        <time>2026-08-30T11:15:55Z</time>
      </trkpt>
      <trkpt lat="48.771701" lon="9.903067">
        <ele>564.2</ele>
        <time>2026-08-30T11:15:56Z</time>
      </trkpt>
      <trkpt lat="48.771695" lon="9.903079">
        <ele>564.4</ele>
        <time>2026-08-30T11:15:57Z</time>
      </trkpt>
      <trkpt lat="48.771685" lon="9.903092">
        <ele>564.6</ele>
        <time>2026-08-30T11:15:58Z</time>
      </trkpt>
      <trkpt lat="48.771674" lon="9.903099">
        <ele>564.8</ele>
        <time>2026-08-30T11:15:59Z</time>
      </trkpt>
      <trkpt lat="48.771667" lon="9.903111">
        <ele>565</ele>
        <time>2026-08-30T11:16:00Z</time>
      </trkpt>
      <trkpt lat="48.771663" lon="9.903126">
        <ele>565.2</ele>
        <time>2026-08-30T11:16:01Z</time>
      </trkpt>
      <trkpt lat="48.771659" lon="9.903146">
        <ele>565.4</ele>
        <time>2026-08-30T11:16:02Z</time>
      </trkpt>
      <trkpt lat="48.771658" lon="9.903165">
        <ele>565.6</ele>
        <time>2026-08-30T11:16:03Z</time>
      </trkpt>
      <trkpt lat="48.771656" lon="9.903183">
        <ele>565.8</ele>
        <time>2026-08-30T11:16:04Z</time>
      </trkpt>
      <trkpt lat="48.771657" lon="9.903196">
        <ele>566</ele>
        <time>2026-08-30T11:16:05Z</time>
      </trkpt>
      <trkpt lat="48.771655" lon="9.903217">
        <ele>566.2</ele>
        <time>2026-08-30T11:16:06Z</time>
      </trkpt>
      <trkpt lat="48.771650" lon="9.903233">
        <ele>566.6</ele>
        <time>2026-08-30T11:16:07Z</time>
      </trkpt>
      <trkpt lat="48.771642" lon="9.903244">
        <ele>566.8</ele>
        <time>2026-08-30T11:16:08Z</time>
      </trkpt>
      <trkpt lat="48.771633" lon="9.903261">
        <ele>567</ele>
        <time>2026-08-30T11:16:09Z</time>
      </trkpt>
      <trkpt lat="48.771623" lon="9.903279">
        <ele>567.2</ele>
        <time>2026-08-30T11:16:10Z</time>
      </trkpt>
      <trkpt lat="48.771605" lon="9.903289">
        <ele>567.6</ele>
        <time>2026-08-30T11:16:11Z</time>
      </trkpt>
      <trkpt lat="48.771592" lon="9.903292">
        <ele>567.8</ele>
        <time>2026-08-30T11:16:12Z</time>
      </trkpt>
      <trkpt lat="48.771581" lon="9.903305">
        <ele>568</ele>
        <time>2026-08-30T11:16:13Z</time>
      </trkpt>
      <trkpt lat="48.771575" lon="9.903320">
        <ele>568.2</ele>
        <time>2026-08-30T11:16:14Z</time>
      </trkpt>
      <trkpt lat="48.771572" lon="9.903339">
        <ele>568.4</ele>
        <time>2026-08-30T11:16:15Z</time>
      </trkpt>
      <trkpt lat="48.771569" lon="9.903357">
        <ele>568.6</ele>
        <time>2026-08-30T11:16:16Z</time>
      </trkpt>
      <trkpt lat="48.771565" lon="9.903377">
        <ele>568.8</ele>
        <time>2026-08-30T11:16:17Z</time>
      </trkpt>
      <trkpt lat="48.771558" lon="9.903392">
        <ele>569.2</ele>
        <time>2026-08-30T11:16:18Z</time>
      </trkpt>
      <trkpt lat="48.771547" lon="9.903411">
        <ele>569.4</ele>
        <time>2026-08-30T11:16:19Z</time>
      </trkpt>
      <trkpt lat="48.771534" lon="9.903424">
        <ele>569.6</ele>
        <time>2026-08-30T11:16:20Z</time>
      </trkpt>
      <trkpt lat="48.771522" lon="9.903439">
        <ele>569.8</ele>
        <time>2026-08-30T11:16:21Z</time>
      </trkpt>
      <trkpt lat="48.771516" lon="9.903451">
        <ele>570</ele>
        <time>2026-08-30T11:16:22Z</time>
      </trkpt>
      <trkpt lat="48.771510" lon="9.903465">
        <ele>570.4</ele>
        <time>2026-08-30T11:16:23Z</time>
      </trkpt>
      <trkpt lat="48.771500" lon="9.903484">
        <ele>570.6</ele>
        <time>2026-08-30T11:16:24Z</time>
      </trkpt>
      <trkpt lat="48.771491" lon="9.903497">
        <ele>570.8</ele>
        <time>2026-08-30T11:16:25Z</time>
      </trkpt>
      <trkpt lat="48.771483" lon="9.903513">
        <ele>571</ele>
        <time>2026-08-30T11:16:26Z</time>
      </trkpt>
      <trkpt lat="48.771477" lon="9.903528">
        <ele>571.2</ele>
        <time>2026-08-30T11:16:27Z</time>
      </trkpt>
      <trkpt lat="48.771470" lon="9.903546">
        <ele>571.6</ele>
        <time>2026-08-30T11:16:28Z</time>
      </trkpt>
      <trkpt lat="48.771465" lon="9.903561">
        <ele>571.8</ele>
        <time>2026-08-30T11:16:29Z</time>
      </trkpt>
      <trkpt lat="48.771461" lon="9.903577">
        <ele>572</ele>
        <time>2026-08-30T11:16:30Z</time>
      </trkpt>
      <trkpt lat="48.771452" lon="9.903590">
        <ele>572.4</ele>
        <time>2026-08-30T11:16:31Z</time>
      </trkpt>
      <trkpt lat="48.771445" lon="9.903602">
        <ele>572.6</ele>
        <time>2026-08-30T11:16:32Z</time>
      </trkpt>
      <trkpt lat="48.771432" lon="9.903615">
        <ele>572.8</ele>
        <time>2026-08-30T11:16:33Z</time>
      </trkpt>
      <trkpt lat="48.771420" lon="9.903623">
        <ele>573</ele>
        <time>2026-08-30T11:16:34Z</time>
      </trkpt>
      <trkpt lat="48.771408" lon="9.903632">
        <ele>573.2</ele>
        <time>2026-08-30T11:16:35Z</time>
      </trkpt>
      <trkpt lat="48.771401" lon="9.903646">
        <ele>573.4</ele>
        <time>2026-08-30T11:16:36Z</time>
      </trkpt>
      <trkpt lat="48.771394" lon="9.903663">
        <ele>573.6</ele>
        <time>2026-08-30T11:16:37Z</time>
      </trkpt>
      <trkpt lat="48.771388" lon="9.903678">
        <ele>573.8</ele>
        <time>2026-08-30T11:16:38Z</time>
      </trkpt>
      <trkpt lat="48.771383" lon="9.903697">
        <ele>574</ele>
        <time>2026-08-30T11:16:39Z</time>
      </trkpt>
      <trkpt lat="48.771380" lon="9.903717">
        <ele>574.2</ele>
        <time>2026-08-30T11:16:40Z</time>
      </trkpt>
      <trkpt lat="48.771374" lon="9.903739">
        <ele>574.4</ele>
        <time>2026-08-30T11:16:41Z</time>
      </trkpt>
      <trkpt lat="48.771366" lon="9.903761">
        <ele>574.6</ele>
        <time>2026-08-30T11:16:42Z</time>
      </trkpt>
      <trkpt lat="48.771357" lon="9.903772">
        <ele>574.8</ele>
        <time>2026-08-30T11:16:43Z</time>
      </trkpt>
      <trkpt lat="48.771344" lon="9.903782">
        <ele>575</ele>
        <time>2026-08-30T11:16:44Z</time>
      </trkpt>
      <trkpt lat="48.771331" lon="9.903785">
        <ele>575.2</ele>
        <time>2026-08-30T11:16:45Z</time>
      </trkpt>
      <trkpt lat="48.771316" lon="9.903786">
        <ele>575.4</ele>
        <time>2026-08-30T11:16:46Z</time>
      </trkpt>
      <trkpt lat="48.771302" lon="9.903788">
        <ele>575.6</ele>
        <time>2026-08-30T11:16:47Z</time>
      </trkpt>
      <trkpt lat="48.771289" lon="9.903799">
        <ele>575.6</ele>
        <time>2026-08-30T11:16:48Z</time>
      </trkpt>
      <trkpt lat="48.771276" lon="9.903812">
        <ele>575.8</ele>
        <time>2026-08-30T11:16:49Z</time>
      </trkpt>
      <trkpt lat="48.771265" lon="9.903826">
        <ele>576</ele>
        <time>2026-08-30T11:16:50Z</time>
      </trkpt>
      <trkpt lat="48.771258" lon="9.903840">
        <ele>576.2</ele>
        <time>2026-08-30T11:16:51Z</time>
      </trkpt>
      <trkpt lat="48.771253" lon="9.903855">
        <ele>576.4</ele>
        <time>2026-08-30T11:16:52Z</time>
      </trkpt>
      <trkpt lat="48.771246" lon="9.903875">
        <ele>576.6</ele>
        <time>2026-08-30T11:16:53Z</time>
      </trkpt>
      <trkpt lat="48.771238" lon="9.903892">
        <ele>576.8</ele>
        <time>2026-08-30T11:16:54Z</time>
      </trkpt>
      <trkpt lat="48.771230" lon="9.903902">
        <ele>576.8</ele>
        <time>2026-08-30T11:16:55Z</time>
      </trkpt>
      <trkpt lat="48.771221" lon="9.903916">
        <ele>577</ele>
        <time>2026-08-30T11:16:56Z</time>
      </trkpt>
      <trkpt lat="48.771214" lon="9.903933">
        <ele>577.2</ele>
        <time>2026-08-30T11:16:57Z</time>
      </trkpt>
      <trkpt lat="48.771208" lon="9.903950">
        <ele>577.4</ele>
        <time>2026-08-30T11:16:58Z</time>
      </trkpt>
      <trkpt lat="48.771201" lon="9.903964">
        <ele>577.6</ele>
        <time>2026-08-30T11:16:59Z</time>
      </trkpt>
      <trkpt lat="48.771194" lon="9.903983">
        <ele>577.8</ele>
        <time>2026-08-30T11:17:00Z</time>
      </trkpt>
      <trkpt lat="48.771189" lon="9.903994">
        <ele>578</ele>
        <time>2026-08-30T11:17:01Z</time>
      </trkpt>
      <trkpt lat="48.771182" lon="9.904010">
        <ele>578.2</ele>
        <time>2026-08-30T11:17:02Z</time>
      </trkpt>
      <trkpt lat="48.771172" lon="9.904029">
        <ele>578.4</ele>
        <time>2026-08-30T11:17:03Z</time>
      </trkpt>
      <trkpt lat="48.771161" lon="9.904038">
        <ele>578.6</ele>
        <time>2026-08-30T11:17:04Z</time>
      </trkpt>
      <trkpt lat="48.771151" lon="9.904044">
        <ele>578.8</ele>
        <time>2026-08-30T11:17:05Z</time>
      </trkpt>
      <trkpt lat="48.771140" lon="9.904046">
        <ele>579</ele>
        <time>2026-08-30T11:17:06Z</time>
      </trkpt>
      <trkpt lat="48.771131" lon="9.904052">
        <ele>579.2</ele>
        <time>2026-08-30T11:17:07Z</time>
      </trkpt>
      <trkpt lat="48.771124" lon="9.904063">
        <ele>579.4</ele>
        <time>2026-08-30T11:17:08Z</time>
      </trkpt>
      <trkpt lat="48.771117" lon="9.904076">
        <ele>579.6</ele>
        <time>2026-08-30T11:17:09Z</time>
      </trkpt>
      <trkpt lat="48.771109" lon="9.904094">
        <ele>579.8</ele>
        <time>2026-08-30T11:17:10Z</time>
      </trkpt>
      <trkpt lat="48.771100" lon="9.904119">
        <ele>580</ele>
        <time>2026-08-30T11:17:11Z</time>
      </trkpt>
      <trkpt lat="48.771091" lon="9.904132">
        <ele>580.4</ele>
        <time>2026-08-30T11:17:12Z</time>
      </trkpt>
      <trkpt lat="48.771081" lon="9.904146">
        <ele>580.6</ele>
        <time>2026-08-30T11:17:13Z</time>
      </trkpt>
      <trkpt lat="48.771069" lon="9.904158">
        <ele>580.8</ele>
        <time>2026-08-30T11:17:14Z</time>
      </trkpt>
      <trkpt lat="48.771058" lon="9.904163">
        <ele>581</ele>
        <time>2026-08-30T11:17:15Z</time>
      </trkpt>
      <trkpt lat="48.771047" lon="9.904168">
        <ele>581</ele>
        <time>2026-08-30T11:17:16Z</time>
      </trkpt>
      <trkpt lat="48.771037" lon="9.904175">
        <ele>581.4</ele>
        <time>2026-08-30T11:17:17Z</time>
      </trkpt>
      <trkpt lat="48.771032" lon="9.904185">
        <ele>581.6</ele>
        <time>2026-08-30T11:17:18Z</time>
      </trkpt>
      <trkpt lat="48.771026" lon="9.904197">
        <ele>581.8</ele>
        <time>2026-08-30T11:17:19Z</time>
      </trkpt>
      <trkpt lat="48.771017" lon="9.904212">
        <ele>582</ele>
        <time>2026-08-30T11:17:20Z</time>
      </trkpt>
      <trkpt lat="48.771011" lon="9.904227">
        <ele>582.2</ele>
        <time>2026-08-30T11:17:21Z</time>
      </trkpt>
      <trkpt lat="48.771002" lon="9.904240">
        <ele>582.4</ele>
        <time>2026-08-30T11:17:22Z</time>
      </trkpt>
      <trkpt lat="48.770987" lon="9.904256">
        <ele>582.6</ele>
        <time>2026-08-30T11:17:23Z</time>
      </trkpt>
      <trkpt lat="48.770974" lon="9.904274">
        <ele>582.8</ele>
        <time>2026-08-30T11:17:24Z</time>
      </trkpt>
      <trkpt lat="48.770959" lon="9.904294">
        <ele>583</ele>
        <time>2026-08-30T11:17:25Z</time>
      </trkpt>
      <trkpt lat="48.770949" lon="9.904308">
        <ele>583.2</ele>
        <time>2026-08-30T11:17:26Z</time>
      </trkpt>
      <trkpt lat="48.770943" lon="9.904317">
        <ele>583.4</ele>
        <time>2026-08-30T11:17:27Z</time>
      </trkpt>
      <trkpt lat="48.770936" lon="9.904329">
        <ele>583.6</ele>
        <time>2026-08-30T11:17:28Z</time>
      </trkpt>
      <trkpt lat="48.770930" lon="9.904340">
        <ele>583.8</ele>
        <time>2026-08-30T11:17:29Z</time>
      </trkpt>
      <trkpt lat="48.770922" lon="9.904351">
        <ele>584</ele>
        <time>2026-08-30T11:17:30Z</time>
      </trkpt>
      <trkpt lat="48.770913" lon="9.904364">
        <ele>584.2</ele>
        <time>2026-08-30T11:17:31Z</time>
      </trkpt>
      <trkpt lat="48.770905" lon="9.904382">
        <ele>584.4</ele>
        <time>2026-08-30T11:17:32Z</time>
      </trkpt>
      <trkpt lat="48.770892" lon="9.904401">
        <ele>584.6</ele>
        <time>2026-08-30T11:17:33Z</time>
      </trkpt>
      <trkpt lat="48.770884" lon="9.904414">
        <ele>584.8</ele>
        <time>2026-08-30T11:17:34Z</time>
      </trkpt>
      <trkpt lat="48.770875" lon="9.904427">
        <ele>585</ele>
        <time>2026-08-30T11:17:35Z</time>
      </trkpt>
      <trkpt lat="48.770861" lon="9.904449">
        <ele>585.2</ele>
        <time>2026-08-30T11:17:36Z</time>
      </trkpt>
      <trkpt lat="48.770850" lon="9.904462">
        <ele>585.4</ele>
        <time>2026-08-30T11:17:37Z</time>
      </trkpt>
      <trkpt lat="48.770838" lon="9.904477">
        <ele>585.6</ele>
        <time>2026-08-30T11:17:38Z</time>
      </trkpt>
      <trkpt lat="48.770825" lon="9.904494">
        <ele>585.8</ele>
        <time>2026-08-30T11:17:39Z</time>
      </trkpt>
      <trkpt lat="48.770812" lon="9.904515">
        <ele>586</ele>
        <time>2026-08-30T11:17:40Z</time>
      </trkpt>
      <trkpt lat="48.770804" lon="9.904532">
        <ele>586.2</ele>
        <time>2026-08-30T11:17:41Z</time>
      </trkpt>
      <trkpt lat="48.770792" lon="9.904545">
        <ele>586.4</ele>
        <time>2026-08-30T11:17:42Z</time>
      </trkpt>
      <trkpt lat="48.770780" lon="9.904551">
        <ele>586.6</ele>
        <time>2026-08-30T11:17:43Z</time>
      </trkpt>
      <trkpt lat="48.770767" lon="9.904559">
        <ele>586.8</ele>
        <time>2026-08-30T11:17:44Z</time>
      </trkpt>
      <trkpt lat="48.770761" lon="9.904572">
        <ele>587</ele>
        <time>2026-08-30T11:17:45Z</time>
      </trkpt>
      <trkpt lat="48.770751" lon="9.904580">
        <ele>587.4</ele>
        <time>2026-08-30T11:17:46Z</time>
      </trkpt>
      <trkpt lat="48.770739" lon="9.904586">
        <ele>587.6</ele>
        <time>2026-08-30T11:17:47Z</time>
      </trkpt>
      <trkpt lat="48.770726" lon="9.904597">
        <ele>587.8</ele>
        <time>2026-08-30T11:17:48Z</time>
      </trkpt>
      <trkpt lat="48.770716" lon="9.904606">
        <ele>588</ele>
        <time>2026-08-30T11:17:49Z</time>
      </trkpt>
      <trkpt lat="48.770706" lon="9.904613">
        <ele>588.2</ele>
        <time>2026-08-30T11:17:50Z</time>
      </trkpt>
      <trkpt lat="48.770699" lon="9.904628">
        <ele>588.4</ele>
        <time>2026-08-30T11:17:51Z</time>
      </trkpt>
      <trkpt lat="48.770695" lon="9.904637">
        <ele>588.6</ele>
        <time>2026-08-30T11:17:52Z</time>
      </trkpt>
      <trkpt lat="48.770687" lon="9.904652">
        <ele>588.8</ele>
        <time>2026-08-30T11:17:53Z</time>
      </trkpt>
      <trkpt lat="48.770679" lon="9.904660">
        <ele>589</ele>
        <time>2026-08-30T11:17:54Z</time>
      </trkpt>
      <trkpt lat="48.770670" lon="9.904670">
        <ele>589.2</ele>
        <time>2026-08-30T11:17:55Z</time>
      </trkpt>
      <trkpt lat="48.770660" lon="9.904685">
        <ele>589.4</ele>
        <time>2026-08-30T11:17:56Z</time>
      </trkpt>
      <trkpt lat="48.770647" lon="9.904697">
        <ele>589.6</ele>
        <time>2026-08-30T11:17:57Z</time>
      </trkpt>
      <trkpt lat="48.770638" lon="9.904704">
        <ele>590</ele>
        <time>2026-08-30T11:17:58Z</time>
      </trkpt>
      <trkpt lat="48.770628" lon="9.904712">
        <ele>590.2</ele>
        <time>2026-08-30T11:17:59Z</time>
      </trkpt>
      <trkpt lat="48.770614" lon="9.904726">
        <ele>590.4</ele>
        <time>2026-08-30T11:18:00Z</time>
      </trkpt>
      <trkpt lat="48.770602" lon="9.904743">
        <ele>590.6</ele>
        <time>2026-08-30T11:18:01Z</time>
      </trkpt>
      <trkpt lat="48.770589" lon="9.904753">
        <ele>590.8</ele>
        <time>2026-08-30T11:18:02Z</time>
      </trkpt>
      <trkpt lat="48.770575" lon="9.904759">
        <ele>591</ele>
        <time>2026-08-30T11:18:03Z</time>
      </trkpt>
      <trkpt lat="48.770564" lon="9.904773">
        <ele>591.2</ele>
        <time>2026-08-30T11:18:04Z</time>
      </trkpt>
      <trkpt lat="48.770553" lon="9.904781">
        <ele>591.4</ele>
        <time>2026-08-30T11:18:05Z</time>
      </trkpt>
      <trkpt lat="48.770543" lon="9.904790">
        <ele>591.6</ele>
        <time>2026-08-30T11:18:06Z</time>
      </trkpt>
      <trkpt lat="48.770532" lon="9.904803">
        <ele>591.8</ele>
        <time>2026-08-30T11:18:07Z</time>
      </trkpt>
      <trkpt lat="48.770526" lon="9.904819">
        <ele>592</ele>
        <time>2026-08-30T11:18:08Z</time>
      </trkpt>
      <trkpt lat="48.770517" lon="9.904837">
        <ele>592.2</ele>
        <time>2026-08-30T11:18:09Z</time>
      </trkpt>
      <trkpt lat="48.770511" lon="9.904847">
        <ele>592.4</ele>
        <time>2026-08-30T11:18:10Z</time>
      </trkpt>
      <trkpt lat="48.770502" lon="9.904855">
        <ele>592.6</ele>
        <time>2026-08-30T11:18:11Z</time>
      </trkpt>
      <trkpt lat="48.770488" lon="9.904861">
        <ele>592.8</ele>
        <time>2026-08-30T11:18:12Z</time>
      </trkpt>
      <trkpt lat="48.770474" lon="9.904871">
        <ele>593</ele>
        <time>2026-08-30T11:18:13Z</time>
      </trkpt>
      <trkpt lat="48.770466" lon="9.904884">
        <ele>593.4</ele>
        <time>2026-08-30T11:18:14Z</time>
      </trkpt>
      <trkpt lat="48.770457" lon="9.904893">
        <ele>593.6</ele>
        <time>2026-08-30T11:18:15Z</time>
      </trkpt>
      <trkpt lat="48.770448" lon="9.904901">
        <ele>593.8</ele>
        <time>2026-08-30T11:18:16Z</time>
      </trkpt>
      <trkpt lat="48.770438" lon="9.904911">
        <ele>594</ele>
        <time>2026-08-30T11:18:17Z</time>
      </trkpt>
      <trkpt lat="48.770432" lon="9.904922">
        <ele>594.2</ele>
        <time>2026-08-30T11:18:18Z</time>
      </trkpt>
      <trkpt lat="48.770424" lon="9.904936">
        <ele>594.4</ele>
        <time>2026-08-30T11:18:19Z</time>
      </trkpt>
      <trkpt lat="48.770418" lon="9.904945">
        <ele>594.6</ele>
        <time>2026-08-30T11:18:20Z</time>
      </trkpt>
      <trkpt lat="48.770416" lon="9.904952">
        <ele>594.8</ele>
        <time>2026-08-30T11:18:21Z</time>
      </trkpt>
      <trkpt lat="48.770410" lon="9.904955">
        <ele>595</ele>
        <time>2026-08-30T11:18:22Z</time>
      </trkpt>
      <trkpt lat="48.770404" lon="9.904959">
        <ele>595.2</ele>
        <time>2026-08-30T11:18:23Z</time>
      </trkpt>
      <trkpt lat="48.770401" lon="9.904969">
        <ele>595.4</ele>
        <time>2026-08-30T11:18:24Z</time>
      </trkpt>
      <trkpt lat="48.770397" lon="9.904980">
        <ele>595.4</ele>
        <time>2026-08-30T11:18:25Z</time>
      </trkpt>
      <trkpt lat="48.770395" lon="9.904993">
        <ele>595.6</ele>
        <time>2026-08-30T11:18:26Z</time>
      </trkpt>
      <trkpt lat="48.770394" lon="9.905008">
        <ele>595.8</ele>
        <time>2026-08-30T11:18:27Z</time>
      </trkpt>
      <trkpt lat="48.770391" lon="9.905017">
        <ele>595.8</ele>
        <time>2026-08-30T11:18:28Z</time>
      </trkpt>
      <trkpt lat="48.770388" lon="9.905028">
        <ele>596</ele>
        <time>2026-08-30T11:18:29Z</time>
      </trkpt>
      <trkpt lat="48.770381" lon="9.905035">
        <ele>596.2</ele>
        <time>2026-08-30T11:18:30Z</time>
      </trkpt>
      <trkpt lat="48.770374" lon="9.905046">
        <ele>596.2</ele>
        <time>2026-08-30T11:18:31Z</time>
      </trkpt>
      <trkpt lat="48.770370" lon="9.905053">
        <ele>596.4</ele>
        <time>2026-08-30T11:18:32Z</time>
      </trkpt>
      <trkpt lat="48.770362" lon="9.905060">
        <ele>596.6</ele>
        <time>2026-08-30T11:18:33Z</time>
      </trkpt>
      <trkpt lat="48.770358" lon="9.905071">
        <ele>596.8</ele>
        <time>2026-08-30T11:18:34Z</time>
      </trkpt>
      <trkpt lat="48.770352" lon="9.905080">
        <ele>596.8</ele>
        <time>2026-08-30T11:18:35Z</time>
      </trkpt>
      <trkpt lat="48.770340" lon="9.905096">
        <ele>597</ele>
        <time>2026-08-30T11:18:36Z</time>
      </trkpt>
      <trkpt lat="48.770333" lon="9.905106">
        <ele>597.2</ele>
        <time>2026-08-30T11:18:37Z</time>
      </trkpt>
      <trkpt lat="48.770327" lon="9.905118">
        <ele>597.4</ele>
        <time>2026-08-30T11:18:38Z</time>
      </trkpt>
      <trkpt lat="48.770324" lon="9.905134">
        <ele>597.6</ele>
        <time>2026-08-30T11:18:39Z</time>
      </trkpt>
      <trkpt lat="48.770318" lon="9.905145">
        <ele>597.8</ele>
        <time>2026-08-30T11:18:40Z</time>
      </trkpt>
      <trkpt lat="48.770309" lon="9.905150">
        <ele>598</ele>
        <time>2026-08-30T11:18:41Z</time>
      </trkpt>
      <trkpt lat="48.770296" lon="9.905154">
        <ele>598.2</ele>
        <time>2026-08-30T11:18:42Z</time>
      </trkpt>
      <trkpt lat="48.770284" lon="9.905157">
        <ele>598.4</ele>
        <time>2026-08-30T11:18:43Z</time>
      </trkpt>
      <trkpt lat="48.770270" lon="9.905164">
        <ele>598.6</ele>
        <time>2026-08-30T11:18:44Z</time>
      </trkpt>
      <trkpt lat="48.770263" lon="9.905176">
        <ele>598.6</ele>
        <time>2026-08-30T11:18:45Z</time>
      </trkpt>
      <trkpt lat="48.770255" lon="9.905188">
        <ele>598.8</ele>
        <time>2026-08-30T11:18:46Z</time>
      </trkpt>
      <trkpt lat="48.770249" lon="9.905196">
        <ele>599</ele>
        <time>2026-08-30T11:18:47Z</time>
      </trkpt>
      <trkpt lat="48.770244" lon="9.905207">
        <ele>599.2</ele>
        <time>2026-08-30T11:18:48Z</time>
      </trkpt>
      <trkpt lat="48.770239" lon="9.905222">
        <ele>599.4</ele>
        <time>2026-08-30T11:18:49Z</time>
      </trkpt>
      <trkpt lat="48.770234" lon="9.905238">
        <ele>599.6</ele>
        <time>2026-08-30T11:18:50Z</time>
      </trkpt>
      <trkpt lat="48.770230" lon="9.905252">
        <ele>599.8</ele>
        <time>2026-08-30T11:18:51Z</time>
      </trkpt>
      <trkpt lat="48.770222" lon="9.905271">
        <ele>599.8</ele>
        <time>2026-08-30T11:18:52Z</time>
      </trkpt>
      <trkpt lat="48.770214" lon="9.905282">
        <ele>600</ele>
        <time>2026-08-30T11:18:53Z</time>
      </trkpt>
      <trkpt lat="48.770201" lon="9.905293">
        <ele>600.2</ele>
        <time>2026-08-30T11:18:54Z</time>
      </trkpt>
      <trkpt lat="48.770187" lon="9.905300">
        <ele>600.4</ele>
        <time>2026-08-30T11:18:55Z</time>
      </trkpt>
      <trkpt lat="48.770176" lon="9.905306">
        <ele>600.6</ele>
        <time>2026-08-30T11:18:56Z</time>
      </trkpt>
      <trkpt lat="48.770169" lon="9.905317">
        <ele>600.8</ele>
        <time>2026-08-30T11:18:57Z</time>
      </trkpt>
      <trkpt lat="48.770164" lon="9.905329">
        <ele>601</ele>
        <time>2026-08-30T11:18:58Z</time>
      </trkpt>
      <trkpt lat="48.770156" lon="9.905342">
        <ele>601.2</ele>
        <time>2026-08-30T11:18:59Z</time>
      </trkpt>
      <trkpt lat="48.770145" lon="9.905356">
        <ele>601.4</ele>
        <time>2026-08-30T11:19:00Z</time>
      </trkpt>
      <trkpt lat="48.770135" lon="9.905369">
        <ele>601.6</ele>
        <time>2026-08-30T11:19:01Z</time>
      </trkpt>
      <trkpt lat="48.770128" lon="9.905384">
        <ele>601.8</ele>
        <time>2026-08-30T11:19:02Z</time>
      </trkpt>
      <trkpt lat="48.770121" lon="9.905398">
        <ele>602</ele>
        <time>2026-08-30T11:19:03Z</time>
      </trkpt>
      <trkpt lat="48.770115" lon="9.905405">
        <ele>602.4</ele>
        <time>2026-08-30T11:19:04Z</time>
      </trkpt>
      <trkpt lat="48.770106" lon="9.905412">
        <ele>602.6</ele>
        <time>2026-08-30T11:19:05Z</time>
      </trkpt>
      <trkpt lat="48.770095" lon="9.905427">
        <ele>602.8</ele>
        <time>2026-08-30T11:19:06Z</time>
      </trkpt>
      <trkpt lat="48.770083" lon="9.905439">
        <ele>603</ele>
        <time>2026-08-30T11:19:07Z</time>
      </trkpt>
      <trkpt lat="48.770077" lon="9.905454">
        <ele>603.2</ele>
        <time>2026-08-30T11:19:08Z</time>
      </trkpt>
      <trkpt lat="48.770070" lon="9.905465">
        <ele>603.6</ele>
        <time>2026-08-30T11:19:09Z</time>
      </trkpt>
      <trkpt lat="48.770064" lon="9.905478">
        <ele>603.8</ele>
        <time>2026-08-30T11:19:10Z</time>
      </trkpt>
      <trkpt lat="48.770055" lon="9.905492">
        <ele>604</ele>
        <time>2026-08-30T11:19:11Z</time>
      </trkpt>
      <trkpt lat="48.770046" lon="9.905500">
        <ele>604.2</ele>
        <time>2026-08-30T11:19:12Z</time>
      </trkpt>
      <trkpt lat="48.770036" lon="9.905510">
        <ele>604.4</ele>
        <time>2026-08-30T11:19:13Z</time>
      </trkpt>
      <trkpt lat="48.770025" lon="9.905519">
        <ele>604.8</ele>
        <time>2026-08-30T11:19:14Z</time>
      </trkpt>
      <trkpt lat="48.770015" lon="9.905531">
        <ele>605</ele>
        <time>2026-08-30T11:19:15Z</time>
      </trkpt>
      <trkpt lat="48.770008" lon="9.905549">
        <ele>605.2</ele>
        <time>2026-08-30T11:19:16Z</time>
      </trkpt>
      <trkpt lat="48.769997" lon="9.905566">
        <ele>605.4</ele>
        <time>2026-08-30T11:19:17Z</time>
      </trkpt>
      <trkpt lat="48.769990" lon="9.905580">
        <ele>605.6</ele>
        <time>2026-08-30T11:19:18Z</time>
      </trkpt>
      <trkpt lat="48.769982" lon="9.905596">
        <ele>605.8</ele>
        <time>2026-08-30T11:19:19Z</time>
      </trkpt>
      <trkpt lat="48.769975" lon="9.905616">
        <ele>606</ele>
        <time>2026-08-30T11:19:20Z</time>
      </trkpt>
      <trkpt lat="48.769968" lon="9.905635">
        <ele>606.2</ele>
        <time>2026-08-30T11:19:21Z</time>
      </trkpt>
      <trkpt lat="48.769957" lon="9.905649">
        <ele>606.4</ele>
        <time>2026-08-30T11:19:22Z</time>
      </trkpt>
      <trkpt lat="48.769945" lon="9.905660">
        <ele>606.6</ele>
        <time>2026-08-30T11:19:23Z</time>
      </trkpt>
      <trkpt lat="48.769935" lon="9.905666">
        <ele>607</ele>
        <time>2026-08-30T11:19:24Z</time>
      </trkpt>
      <trkpt lat="48.769923" lon="9.905673">
        <ele>607.2</ele>
        <time>2026-08-30T11:19:25Z</time>
      </trkpt>
      <trkpt lat="48.769913" lon="9.905688">
        <ele>607.2</ele>
        <time>2026-08-30T11:19:26Z</time>
      </trkpt>
      <trkpt lat="48.769906" lon="9.905700">
        <ele>607.6</ele>
        <time>2026-08-30T11:19:27Z</time>
      </trkpt>
      <trkpt lat="48.769899" lon="9.905712">
        <ele>607.8</ele>
        <time>2026-08-30T11:19:28Z</time>
      </trkpt>
      <trkpt lat="48.769892" lon="9.905726">
        <ele>608</ele>
        <time>2026-08-30T11:19:29Z</time>
      </trkpt>
      <trkpt lat="48.769889" lon="9.905744">
        <ele>608.2</ele>
        <time>2026-08-30T11:19:30Z</time>
      </trkpt>
      <trkpt lat="48.769879" lon="9.905768">
        <ele>608.4</ele>
        <time>2026-08-30T11:19:31Z</time>
      </trkpt>
      <trkpt lat="48.769869" lon="9.905786">
        <ele>608.6</ele>
        <time>2026-08-30T11:19:32Z</time>
      </trkpt>
      <trkpt lat="48.769861" lon="9.905808">
        <ele>608.8</ele>
        <time>2026-08-30T11:19:33Z</time>
      </trkpt>
      <trkpt lat="48.769849" lon="9.905826">
        <ele>609.2</ele>
        <time>2026-08-30T11:19:34Z</time>
      </trkpt>
      <trkpt lat="48.769841" lon="9.905836">
        <ele>609.4</ele>
        <time>2026-08-30T11:19:35Z</time>
      </trkpt>
      <trkpt lat="48.769834" lon="9.905850">
        <ele>609.6</ele>
        <time>2026-08-30T11:19:36Z</time>
      </trkpt>
      <trkpt lat="48.769830" lon="9.905867">
        <ele>609.8</ele>
        <time>2026-08-30T11:19:37Z</time>
      </trkpt>
      <trkpt lat="48.769827" lon="9.905885">
        <ele>610</ele>
        <time>2026-08-30T11:19:38Z</time>
      </trkpt>
      <trkpt lat="48.769826" lon="9.905906">
        <ele>610.2</ele>
        <time>2026-08-30T11:19:39Z</time>
      </trkpt>
      <trkpt lat="48.769823" lon="9.905922">
        <ele>610.4</ele>
        <time>2026-08-30T11:19:40Z</time>
      </trkpt>
      <trkpt lat="48.769817" lon="9.905936">
        <ele>610.6</ele>
        <time>2026-08-30T11:19:41Z</time>
      </trkpt>
      <trkpt lat="48.769809" lon="9.905944">
        <ele>610.8</ele>
        <time>2026-08-30T11:19:42Z</time>
      </trkpt>
      <trkpt lat="48.769796" lon="9.905953">
        <ele>611</ele>
        <time>2026-08-30T11:19:43Z</time>
      </trkpt>
      <trkpt lat="48.769784" lon="9.905962">
        <ele>611.2</ele>
        <time>2026-08-30T11:19:44Z</time>
      </trkpt>
      <trkpt lat="48.769779" lon="9.905974">
        <ele>611.4</ele>
        <time>2026-08-30T11:19:45Z</time>
      </trkpt>
      <trkpt lat="48.769777" lon="9.905987">
        <ele>611.6</ele>
        <time>2026-08-30T11:19:46Z</time>
      </trkpt>
      <trkpt lat="48.769770" lon="9.906010">
        <ele>611.8</ele>
        <time>2026-08-30T11:19:47Z</time>
      </trkpt>
      <trkpt lat="48.769765" lon="9.906027">
        <ele>612</ele>
        <time>2026-08-30T11:19:48Z</time>
      </trkpt>
      <trkpt lat="48.769759" lon="9.906046">
        <ele>612.2</ele>
        <time>2026-08-30T11:19:49Z</time>
      </trkpt>
      <trkpt lat="48.769752" lon="9.906063">
        <ele>612.6</ele>
        <time>2026-08-30T11:19:50Z</time>
      </trkpt>
      <trkpt lat="48.769744" lon="9.906074">
        <ele>612.8</ele>
        <time>2026-08-30T11:19:51Z</time>
      </trkpt>
      <trkpt lat="48.769735" lon="9.906090">
        <ele>613</ele>
        <time>2026-08-30T11:19:52Z</time>
      </trkpt>
      <trkpt lat="48.769731" lon="9.906102">
        <ele>613.2</ele>
        <time>2026-08-30T11:19:53Z</time>
      </trkpt>
      <trkpt lat="48.769725" lon="9.906119">
        <ele>613.4</ele>
        <time>2026-08-30T11:19:54Z</time>
      </trkpt>
      <trkpt lat="48.769724" lon="9.906138">
        <ele>613.6</ele>
        <time>2026-08-30T11:19:55Z</time>
      </trkpt>
      <trkpt lat="48.769723" lon="9.906152">
        <ele>613.8</ele>
        <time>2026-08-30T11:19:56Z</time>
      </trkpt>
      <trkpt lat="48.769719" lon="9.906167">
        <ele>614</ele>
        <time>2026-08-30T11:19:57Z</time>
      </trkpt>
      <trkpt lat="48.769714" lon="9.906187">
        <ele>614.2</ele>
        <time>2026-08-30T11:19:58Z</time>
      </trkpt>
      <trkpt lat="48.769707" lon="9.906200">
        <ele>614.4</ele>
        <time>2026-08-30T11:19:59Z</time>
      </trkpt>
      <trkpt lat="48.769701" lon="9.906219">
        <ele>614.6</ele>
        <time>2026-08-30T11:20:00Z</time>
      </trkpt>
      <trkpt lat="48.769695" lon="9.906233">
        <ele>614.8</ele>
        <time>2026-08-30T11:20:01Z</time>
      </trkpt>
      <trkpt lat="48.769688" lon="9.906248">
        <ele>615</ele>
        <time>2026-08-30T11:20:02Z</time>
      </trkpt>
      <trkpt lat="48.769681" lon="9.906260">
        <ele>615.2</ele>
        <time>2026-08-30T11:20:03Z</time>
      </trkpt>
      <trkpt lat="48.769674" lon="9.906277">
        <ele>615.4</ele>
        <time>2026-08-30T11:20:04Z</time>
      </trkpt>
      <trkpt lat="48.769667" lon="9.906295">
        <ele>615.6</ele>
        <time>2026-08-30T11:20:05Z</time>
      </trkpt>
      <trkpt lat="48.769662" lon="9.906309">
        <ele>615.8</ele>
        <time>2026-08-30T11:20:06Z</time>
      </trkpt>
      <trkpt lat="48.769656" lon="9.906321">
        <ele>616</ele>
        <time>2026-08-30T11:20:07Z</time>
      </trkpt>
      <trkpt lat="48.769653" lon="9.906338">
        <ele>616.2</ele>
        <time>2026-08-30T11:20:08Z</time>
      </trkpt>
      <trkpt lat="48.769656" lon="9.906357">
        <ele>616.4</ele>
        <time>2026-08-30T11:20:09Z</time>
      </trkpt>
      <trkpt lat="48.769662" lon="9.906368">
        <ele>616.6</ele>
        <time>2026-08-30T11:20:10Z</time>
      </trkpt>
      <trkpt lat="48.769663" lon="9.906384">
        <ele>616.8</ele>
        <time>2026-08-30T11:20:11Z</time>
      </trkpt>
      <trkpt lat="48.769659" lon="9.906398">
        <ele>617</ele>
        <time>2026-08-30T11:20:12Z</time>
      </trkpt>
      <trkpt lat="48.769656" lon="9.906421">
        <ele>617.2</ele>
        <time>2026-08-30T11:20:13Z</time>
      </trkpt>
      <trkpt lat="48.769650" lon="9.906443">
        <ele>617.6</ele>
        <time>2026-08-30T11:20:14Z</time>
      </trkpt>
      <trkpt lat="48.769642" lon="9.906460">
        <ele>617.8</ele>
        <time>2026-08-30T11:20:15Z</time>
      </trkpt>
      <trkpt lat="48.769633" lon="9.906481">
        <ele>618</ele>
        <time>2026-08-30T11:20:16Z</time>
      </trkpt>
      <trkpt lat="48.769625" lon="9.906499">
        <ele>618.4</ele>
        <time>2026-08-30T11:20:17Z</time>
      </trkpt>
      <trkpt lat="48.769619" lon="9.906516">
        <ele>618.6</ele>
        <time>2026-08-30T11:20:18Z</time>
      </trkpt>
      <trkpt lat="48.769615" lon="9.906532">
        <ele>618.8</ele>
        <time>2026-08-30T11:20:19Z</time>
      </trkpt>
      <trkpt lat="48.769610" lon="9.906549">
        <ele>619</ele>
        <time>2026-08-30T11:20:20Z</time>
      </trkpt>
      <trkpt lat="48.769610" lon="9.906559">
        <ele>619.2</ele>
        <time>2026-08-30T11:20:21Z</time>
      </trkpt>
      <trkpt lat="48.769608" lon="9.906576">
        <ele>619.4</ele>
        <time>2026-08-30T11:20:22Z</time>
      </trkpt>
      <trkpt lat="48.769607" lon="9.906590">
        <ele>619.6</ele>
        <time>2026-08-30T11:20:23Z</time>
      </trkpt>
      <trkpt lat="48.769606" lon="9.906613">
        <ele>619.8</ele>
        <time>2026-08-30T11:20:24Z</time>
      </trkpt>
      <trkpt lat="48.769605" lon="9.906634">
        <ele>620.2</ele>
        <time>2026-08-30T11:20:25Z</time>
      </trkpt>
      <trkpt lat="48.769606" lon="9.906651">
        <ele>620.4</ele>
        <time>2026-08-30T11:20:26Z</time>
      </trkpt>
      <trkpt lat="48.769605" lon="9.906670">
        <ele>620.6</ele>
        <time>2026-08-30T11:20:27Z</time>
      </trkpt>
      <trkpt lat="48.769603" lon="9.906688">
        <ele>620.8</ele>
        <time>2026-08-30T11:20:28Z</time>
      </trkpt>
      <trkpt lat="48.769597" lon="9.906705">
        <ele>621</ele>
        <time>2026-08-30T11:20:29Z</time>
      </trkpt>
      <trkpt lat="48.769593" lon="9.906725">
        <ele>621.4</ele>
        <time>2026-08-30T11:20:30Z</time>
      </trkpt>
      <trkpt lat="48.769589" lon="9.906739">
        <ele>621.6</ele>
        <time>2026-08-30T11:20:31Z</time>
      </trkpt>
      <trkpt lat="48.769583" lon="9.906755">
        <ele>621.8</ele>
        <time>2026-08-30T11:20:32Z</time>
      </trkpt>
      <trkpt lat="48.769578" lon="9.906768">
        <ele>622.2</ele>
        <time>2026-08-30T11:20:33Z</time>
      </trkpt>
      <trkpt lat="48.769564" lon="9.906786">
        <ele>622.4</ele>
        <time>2026-08-30T11:20:34Z</time>
      </trkpt>
      <trkpt lat="48.769549" lon="9.906794">
        <ele>622.8</ele>
        <time>2026-08-30T11:20:35Z</time>
      </trkpt>
      <trkpt lat="48.769536" lon="9.906806">
        <ele>623</ele>
        <time>2026-08-30T11:20:36Z</time>
      </trkpt>
      <trkpt lat="48.769529" lon="9.906818">
        <ele>623.2</ele>
        <time>2026-08-30T11:20:37Z</time>
      </trkpt>
      <trkpt lat="48.769525" lon="9.906833">
        <ele>623.4</ele>
        <time>2026-08-30T11:20:38Z</time>
      </trkpt>
      <trkpt lat="48.769523" lon="9.906851">
        <ele>623.6</ele>
        <time>2026-08-30T11:20:39Z</time>
      </trkpt>
      <trkpt lat="48.769521" lon="9.906869">
        <ele>623.8</ele>
        <time>2026-08-30T11:20:40Z</time>
      </trkpt>
      <trkpt lat="48.769517" lon="9.906884">
        <ele>624</ele>
        <time>2026-08-30T11:20:41Z</time>
      </trkpt>
      <trkpt lat="48.769512" lon="9.906892">
        <ele>624.4</ele>
        <time>2026-08-30T11:20:42Z</time>
      </trkpt>
      <trkpt lat="48.769503" lon="9.906907">
        <ele>624.6</ele>
        <time>2026-08-30T11:20:43Z</time>
      </trkpt>
      <trkpt lat="48.769498" lon="9.906923">
        <ele>624.8</ele>
        <time>2026-08-30T11:20:44Z</time>
      </trkpt>
      <trkpt lat="48.769498" lon="9.906937">
        <ele>625</ele>
        <time>2026-08-30T11:20:45Z</time>
      </trkpt>
      <trkpt lat="48.769496" lon="9.906956">
        <ele>625.2</ele>
        <time>2026-08-30T11:20:46Z</time>
      </trkpt>
      <trkpt lat="48.769492" lon="9.906973">
        <ele>625.4</ele>
        <time>2026-08-30T11:20:47Z</time>
      </trkpt>
      <trkpt lat="48.769487" lon="9.906983">
        <ele>625.6</ele>
        <time>2026-08-30T11:20:48Z</time>
      </trkpt>
      <trkpt lat="48.769479" lon="9.906997">
        <ele>625.8</ele>
        <time>2026-08-30T11:20:49Z</time>
      </trkpt>
      <trkpt lat="48.769470" lon="9.907010">
        <ele>626</ele>
        <time>2026-08-30T11:20:50Z</time>
      </trkpt>
      <trkpt lat="48.769461" lon="9.907019">
        <ele>626.2</ele>
        <time>2026-08-30T11:20:51Z</time>
      </trkpt>
      <trkpt lat="48.769457" lon="9.907035">
        <ele>626.6</ele>
        <time>2026-08-30T11:20:52Z</time>
      </trkpt>
      <trkpt lat="48.769454" lon="9.907048">
        <ele>626.8</ele>
        <time>2026-08-30T11:20:53Z</time>
      </trkpt>
      <trkpt lat="48.769452" lon="9.907065">
        <ele>627</ele>
        <time>2026-08-30T11:20:54Z</time>
      </trkpt>
      <trkpt lat="48.769451" lon="9.907085">
        <ele>627.2</ele>
        <time>2026-08-30T11:20:55Z</time>
      </trkpt>
      <trkpt lat="48.769447" lon="9.907104">
        <ele>627.4</ele>
        <time>2026-08-30T11:20:56Z</time>
      </trkpt>
      <trkpt lat="48.769439" lon="9.907122">
        <ele>627.8</ele>
        <time>2026-08-30T11:20:57Z</time>
      </trkpt>
      <trkpt lat="48.769432" lon="9.907138">
        <ele>628</ele>
        <time>2026-08-30T11:20:58Z</time>
      </trkpt>
      <trkpt lat="48.769426" lon="9.907151">
        <ele>628.2</ele>
        <time>2026-08-30T11:20:59Z</time>
      </trkpt>
      <trkpt lat="48.769418" lon="9.907161">
        <ele>628.4</ele>
        <time>2026-08-30T11:21:00Z</time>
      </trkpt>
      <trkpt lat="48.769407" lon="9.907173">
        <ele>628.8</ele>
        <time>2026-08-30T11:21:01Z</time>
      </trkpt>
      <trkpt lat="48.769396" lon="9.907187">
        <ele>629</ele>
        <time>2026-08-30T11:21:02Z</time>
      </trkpt>
      <trkpt lat="48.769387" lon="9.907202">
        <ele>629.2</ele>
        <time>2026-08-30T11:21:03Z</time>
      </trkpt>
      <trkpt lat="48.769380" lon="9.907217">
        <ele>629.4</ele>
        <time>2026-08-30T11:21:04Z</time>
      </trkpt>
      <trkpt lat="48.769376" lon="9.907234">
        <ele>629.6</ele>
        <time>2026-08-30T11:21:05Z</time>
      </trkpt>
      <trkpt lat="48.769370" lon="9.907253">
        <ele>630</ele>
        <time>2026-08-30T11:21:06Z</time>
      </trkpt>
      <trkpt lat="48.769366" lon="9.907270">
        <ele>630.2</ele>
        <time>2026-08-30T11:21:07Z</time>
      </trkpt>
      <trkpt lat="48.769362" lon="9.907287">
        <ele>630.4</ele>
        <time>2026-08-30T11:21:08Z</time>
      </trkpt>
      <trkpt lat="48.769360" lon="9.907306">
        <ele>630.6</ele>
        <time>2026-08-30T11:21:09Z</time>
      </trkpt>
      <trkpt lat="48.769356" lon="9.907325">
        <ele>630.8</ele>
        <time>2026-08-30T11:21:10Z</time>
      </trkpt>
      <trkpt lat="48.769352" lon="9.907345">
        <ele>631.2</ele>
        <time>2026-08-30T11:21:11Z</time>
      </trkpt>
      <trkpt lat="48.769346" lon="9.907361">
        <ele>631.4</ele>
        <time>2026-08-30T11:21:12Z</time>
      </trkpt>
      <trkpt lat="48.769339" lon="9.907372">
        <ele>631.6</ele>
        <time>2026-08-30T11:21:13Z</time>
      </trkpt>
      <trkpt lat="48.769330" lon="9.907382">
        <ele>631.8</ele>
        <time>2026-08-30T11:21:14Z</time>
      </trkpt>
      <trkpt lat="48.769318" lon="9.907391">
        <ele>632</ele>
        <time>2026-08-30T11:21:15Z</time>
      </trkpt>
      <trkpt lat="48.769307" lon="9.907400">
        <ele>632.4</ele>
        <time>2026-08-30T11:21:16Z</time>
      </trkpt>
      <trkpt lat="48.769295" lon="9.907412">
        <ele>632.6</ele>
        <time>2026-08-30T11:21:17Z</time>
      </trkpt>
      <trkpt lat="48.769283" lon="9.907423">
        <ele>632.8</ele>
        <time>2026-08-30T11:21:18Z</time>
      </trkpt>
      <trkpt lat="48.769275" lon="9.907436">
        <ele>633</ele>
        <time>2026-08-30T11:21:19Z</time>
      </trkpt>
      <trkpt lat="48.769270" lon="9.907450">
        <ele>633.2</ele>
        <time>2026-08-30T11:21:20Z</time>
      </trkpt>
      <trkpt lat="48.769263" lon="9.907467">
        <ele>633.4</ele>
        <time>2026-08-30T11:21:21Z</time>
      </trkpt>
      <trkpt lat="48.769256" lon="9.907484">
        <ele>633.6</ele>
        <time>2026-08-30T11:21:22Z</time>
      </trkpt>
      <trkpt lat="48.769248" lon="9.907499">
        <ele>633.8</ele>
        <time>2026-08-30T11:21:23Z</time>
      </trkpt>
      <trkpt lat="48.769237" lon="9.907512">
        <ele>634</ele>
        <time>2026-08-30T11:21:24Z</time>
      </trkpt>
      <trkpt lat="48.769227" lon="9.907525">
        <ele>634.2</ele>
        <time>2026-08-30T11:21:25Z</time>
      </trkpt>
      <trkpt lat="48.769218" lon="9.907537">
        <ele>634.4</ele>
        <time>2026-08-30T11:21:26Z</time>
      </trkpt>
      <trkpt lat="48.769208" lon="9.907549">
        <ele>634.6</ele>
        <time>2026-08-30T11:21:27Z</time>
      </trkpt>
      <trkpt lat="48.769198" lon="9.907562">
        <ele>634.8</ele>
        <time>2026-08-30T11:21:28Z</time>
      </trkpt>
      <trkpt lat="48.769189" lon="9.907577">
        <ele>635</ele>
        <time>2026-08-30T11:21:29Z</time>
      </trkpt>
      <trkpt lat="48.769180" lon="9.907590">
        <ele>635</ele>
        <time>2026-08-30T11:21:30Z</time>
      </trkpt>
      <trkpt lat="48.769168" lon="9.907607">
        <ele>635.4</ele>
        <time>2026-08-30T11:21:31Z</time>
      </trkpt>
      <trkpt lat="48.769157" lon="9.907620">
        <ele>635.6</ele>
        <time>2026-08-30T11:21:32Z</time>
      </trkpt>
      <trkpt lat="48.769145" lon="9.907633">
        <ele>635.8</ele>
        <time>2026-08-30T11:21:33Z</time>
      </trkpt>
      <trkpt lat="48.769138" lon="9.907640">
        <ele>635.8</ele>
        <time>2026-08-30T11:21:34Z</time>
      </trkpt>
      <trkpt lat="48.769127" lon="9.907649">
        <ele>636</ele>
        <time>2026-08-30T11:21:35Z</time>
      </trkpt>
      <trkpt lat="48.769119" lon="9.907662">
        <ele>636.2</ele>
        <time>2026-08-30T11:21:36Z</time>
      </trkpt>
      <trkpt lat="48.769113" lon="9.907675">
        <ele>636.2</ele>
        <time>2026-08-30T11:21:37Z</time>
      </trkpt>
      <trkpt lat="48.769109" lon="9.907691">
        <ele>636.4</ele>
        <time>2026-08-30T11:21:38Z</time>
      </trkpt>
      <trkpt lat="48.769108" lon="9.907701">
        <ele>636.6</ele>
        <time>2026-08-30T11:21:39Z</time>
      </trkpt>
      <trkpt lat="48.769106" lon="9.907713">
        <ele>636.6</ele>
        <time>2026-08-30T11:21:40Z</time>
      </trkpt>
      <trkpt lat="48.769105" lon="9.907724">
        <ele>636.6</ele>
        <time>2026-08-30T11:21:41Z</time>
      </trkpt>
      <trkpt lat="48.769099" lon="9.907738">
        <ele>636.6</ele>
        <time>2026-08-30T11:21:42Z</time>
      </trkpt>
      <trkpt lat="48.769092" lon="9.907755">
        <ele>636.6</ele>
        <time>2026-08-30T11:21:43Z</time>
      </trkpt>
      <trkpt lat="48.769088" lon="9.907780">
        <ele>636.6</ele>
        <time>2026-08-30T11:21:44Z</time>
      </trkpt>
      <trkpt lat="48.769090" lon="9.907805">
        <ele>636.8</ele>
        <time>2026-08-30T11:21:45Z</time>
      </trkpt>
      <trkpt lat="48.769097" lon="9.907825">
        <ele>636.8</ele>
        <time>2026-08-30T11:21:46Z</time>
      </trkpt>
      <trkpt lat="48.769113" lon="9.907835">
        <ele>636.8</ele>
        <time>2026-08-30T11:21:47Z</time>
      </trkpt>
      <trkpt lat="48.769131" lon="9.907845">
        <ele>636.8</ele>
        <time>2026-08-30T11:21:48Z</time>
      </trkpt>
      <trkpt lat="48.769149" lon="9.907846">
        <ele>637</ele>
        <time>2026-08-30T11:21:49Z</time>
      </trkpt>
      <trkpt lat="48.769170" lon="9.907838">
        <ele>637</ele>
        <time>2026-08-30T11:21:50Z</time>
      </trkpt>
      <trkpt lat="48.769191" lon="9.907816">
        <ele>637</ele>
        <time>2026-08-30T11:21:51Z</time>
      </trkpt>
      <trkpt lat="48.769210" lon="9.907791">
        <ele>637</ele>
        <time>2026-08-30T11:21:52Z</time>
      </trkpt>
      <trkpt lat="48.769228" lon="9.907769">
        <ele>637</ele>
        <time>2026-08-30T11:21:53Z</time>
      </trkpt>
      <trkpt lat="48.769247" lon="9.907742">
        <ele>637</ele>
        <time>2026-08-30T11:21:54Z</time>
      </trkpt>
      <trkpt lat="48.769269" lon="9.907720">
        <ele>637</ele>
        <time>2026-08-30T11:21:55Z</time>
      </trkpt>
      <trkpt lat="48.769293" lon="9.907693">
        <ele>636.8</ele>
        <time>2026-08-30T11:21:56Z</time>
      </trkpt>
      <trkpt lat="48.769320" lon="9.907663">
        <ele>636.8</ele>
        <time>2026-08-30T11:21:57Z</time>
      </trkpt>
      <trkpt lat="48.769349" lon="9.907634">
        <ele>636.8</ele>
        <time>2026-08-30T11:21:58Z</time>
      </trkpt>
      <trkpt lat="48.769378" lon="9.907607">
        <ele>636.8</ele>
        <time>2026-08-30T11:21:59Z</time>
      </trkpt>
      <trkpt lat="48.769407" lon="9.907583">
        <ele>636.8</ele>
        <time>2026-08-30T11:22:00Z</time>
      </trkpt>
      <trkpt lat="48.769433" lon="9.907554">
        <ele>636.8</ele>
        <time>2026-08-30T11:22:01Z</time>
      </trkpt>
      <trkpt lat="48.769459" lon="9.907526">
        <ele>636.8</ele>
        <time>2026-08-30T11:22:02Z</time>
      </trkpt>
      <trkpt lat="48.769486" lon="9.907504">
        <ele>636.8</ele>
        <time>2026-08-30T11:22:03Z</time>
      </trkpt>
      <trkpt lat="48.769512" lon="9.907490">
        <ele>636.8</ele>
        <time>2026-08-30T11:22:04Z</time>
      </trkpt>
      <trkpt lat="48.769540" lon="9.907475">
        <ele>637</ele>
        <time>2026-08-30T11:22:05Z</time>
      </trkpt>
      <trkpt lat="48.769568" lon="9.907457">
        <ele>637</ele>
        <time>2026-08-30T11:22:06Z</time>
      </trkpt>
      <trkpt lat="48.769597" lon="9.907435">
        <ele>637</ele>
        <time>2026-08-30T11:22:07Z</time>
      </trkpt>
      <trkpt lat="48.769629" lon="9.907415">
        <ele>637</ele>
        <time>2026-08-30T11:22:08Z</time>
      </trkpt>
      <trkpt lat="48.769660" lon="9.907404">
        <ele>637.2</ele>
        <time>2026-08-30T11:22:09Z</time>
      </trkpt>
      <trkpt lat="48.769687" lon="9.907399">
        <ele>637.2</ele>
        <time>2026-08-30T11:22:10Z</time>
      </trkpt>
      <trkpt lat="48.769714" lon="9.907397">
        <ele>637.4</ele>
        <time>2026-08-30T11:22:11Z</time>
      </trkpt>
      <trkpt lat="48.769739" lon="9.907388">
        <ele>637.6</ele>
        <time>2026-08-30T11:22:12Z</time>
      </trkpt>
      <trkpt lat="48.769761" lon="9.907393">
        <ele>637.6</ele>
        <time>2026-08-30T11:22:13Z</time>
      </trkpt>
      <trkpt lat="48.769783" lon="9.907398">
        <ele>637.8</ele>
        <time>2026-08-30T11:22:14Z</time>
      </trkpt>
      <trkpt lat="48.769803" lon="9.907401">
        <ele>638</ele>
        <time>2026-08-30T11:22:15Z</time>
      </trkpt>
      <trkpt lat="48.769822" lon="9.907400">
        <ele>638</ele>
        <time>2026-08-30T11:22:16Z</time>
      </trkpt>
      <trkpt lat="48.769843" lon="9.907400">
        <ele>638.4</ele>
        <time>2026-08-30T11:22:17Z</time>
      </trkpt>
      <trkpt lat="48.769864" lon="9.907402">
        <ele>638.6</ele>
        <time>2026-08-30T11:22:18Z</time>
      </trkpt>
      <trkpt lat="48.769888" lon="9.907404">
        <ele>638.6</ele>
        <time>2026-08-30T11:22:19Z</time>
      </trkpt>
      <trkpt lat="48.769909" lon="9.907409">
        <ele>638.8</ele>
        <time>2026-08-30T11:22:20Z</time>
      </trkpt>
      <trkpt lat="48.769929" lon="9.907414">
        <ele>639</ele>
        <time>2026-08-30T11:22:21Z</time>
      </trkpt>
      <trkpt lat="48.769947" lon="9.907421">
        <ele>639.2</ele>
        <time>2026-08-30T11:22:22Z</time>
      </trkpt>
      <trkpt lat="48.769967" lon="9.907435">
        <ele>639.4</ele>
        <time>2026-08-30T11:22:23Z</time>
      </trkpt>
      <trkpt lat="48.769985" lon="9.907445">
        <ele>639.6</ele>
        <time>2026-08-30T11:22:24Z</time>
      </trkpt>
      <trkpt lat="48.770004" lon="9.907456">
        <ele>639.8</ele>
        <time>2026-08-30T11:22:25Z</time>
      </trkpt>
      <trkpt lat="48.770018" lon="9.907464">
        <ele>640</ele>
        <time>2026-08-30T11:22:26Z</time>
      </trkpt>
      <trkpt lat="48.770035" lon="9.907470">
        <ele>640.2</ele>
        <time>2026-08-30T11:22:27Z</time>
      </trkpt>
      <trkpt lat="48.770053" lon="9.907477">
        <ele>640.4</ele>
        <time>2026-08-30T11:22:28Z</time>
      </trkpt>
      <trkpt lat="48.770072" lon="9.907487">
        <ele>640.6</ele>
        <time>2026-08-30T11:22:29Z</time>
      </trkpt>
      <trkpt lat="48.770089" lon="9.907502">
        <ele>640.8</ele>
        <time>2026-08-30T11:22:30Z</time>
      </trkpt>
      <trkpt lat="48.770108" lon="9.907517">
        <ele>641</ele>
        <time>2026-08-30T11:22:31Z</time>
      </trkpt>
      <trkpt lat="48.770127" lon="9.907526">
        <ele>641.2</ele>
        <time>2026-08-30T11:22:32Z</time>
      </trkpt>
      <trkpt lat="48.770144" lon="9.907535">
        <ele>641.2</ele>
        <time>2026-08-30T11:22:33Z</time>
      </trkpt>
      <trkpt lat="48.770159" lon="9.907541">
        <ele>641.4</ele>
        <time>2026-08-30T11:22:34Z</time>
      </trkpt>
      <trkpt lat="48.770175" lon="9.907549">
        <ele>641.6</ele>
        <time>2026-08-30T11:22:35Z</time>
      </trkpt>
      <trkpt lat="48.770193" lon="9.907553">
        <ele>641.8</ele>
        <time>2026-08-30T11:22:36Z</time>
      </trkpt>
      <trkpt lat="48.770208" lon="9.907560">
        <ele>642</ele>
        <time>2026-08-30T11:22:37Z</time>
      </trkpt>
      <trkpt lat="48.770226" lon="9.907572">
        <ele>642.2</ele>
        <time>2026-08-30T11:22:38Z</time>
      </trkpt>
      <trkpt lat="48.770244" lon="9.907576">
        <ele>642.4</ele>
        <time>2026-08-30T11:22:39Z</time>
      </trkpt>
      <trkpt lat="48.770259" lon="9.907580">
        <ele>642.6</ele>
        <time>2026-08-30T11:22:40Z</time>
      </trkpt>
      <trkpt lat="48.770278" lon="9.907581">
        <ele>642.8</ele>
        <time>2026-08-30T11:22:41Z</time>
      </trkpt>
      <trkpt lat="48.770296" lon="9.907583">
        <ele>642.8</ele>
        <time>2026-08-30T11:22:42Z</time>
      </trkpt>
      <trkpt lat="48.770315" lon="9.907580">
        <ele>643</ele>
        <time>2026-08-30T11:22:43Z</time>
      </trkpt>
      <trkpt lat="48.770332" lon="9.907578">
        <ele>643.2</ele>
        <time>2026-08-30T11:22:44Z</time>
      </trkpt>
      <trkpt lat="48.770349" lon="9.907582">
        <ele>643.4</ele>
        <time>2026-08-30T11:22:45Z</time>
      </trkpt>
      <trkpt lat="48.770368" lon="9.907585">
        <ele>643.6</ele>
        <time>2026-08-30T11:22:46Z</time>
      </trkpt>
      <trkpt lat="48.770387" lon="9.907590">
        <ele>643.8</ele>
        <time>2026-08-30T11:22:47Z</time>
      </trkpt>
      <trkpt lat="48.770408" lon="9.907590">
        <ele>644</ele>
        <time>2026-08-30T11:22:48Z</time>
      </trkpt>
      <trkpt lat="48.770427" lon="9.907593">
        <ele>644.2</ele>
        <time>2026-08-30T11:22:49Z</time>
      </trkpt>
      <trkpt lat="48.770449" lon="9.907592">
        <ele>644.4</ele>
        <time>2026-08-30T11:22:50Z</time>
      </trkpt>
      <trkpt lat="48.770468" lon="9.907594">
        <ele>644.6</ele>
        <time>2026-08-30T11:22:51Z</time>
      </trkpt>
      <trkpt lat="48.770487" lon="9.907596">
        <ele>644.8</ele>
        <time>2026-08-30T11:22:52Z</time>
      </trkpt>
      <trkpt lat="48.770506" lon="9.907598">
        <ele>644.8</ele>
        <time>2026-08-30T11:22:53Z</time>
      </trkpt>
      <trkpt lat="48.770523" lon="9.907605">
        <ele>645</ele>
        <time>2026-08-30T11:22:54Z</time>
      </trkpt>
      <trkpt lat="48.770541" lon="9.907608">
        <ele>645.2</ele>
        <time>2026-08-30T11:22:55Z</time>
      </trkpt>
      <trkpt lat="48.770555" lon="9.907609">
        <ele>645.2</ele>
        <time>2026-08-30T11:22:56Z</time>
      </trkpt>
      <trkpt lat="48.770572" lon="9.907608">
        <ele>645.4</ele>
        <time>2026-08-30T11:22:57Z</time>
      </trkpt>
      <trkpt lat="48.770588" lon="9.907613">
        <ele>645.6</ele>
        <time>2026-08-30T11:22:58Z</time>
      </trkpt>
      <trkpt lat="48.770606" lon="9.907615">
        <ele>645.8</ele>
        <time>2026-08-30T11:22:59Z</time>
      </trkpt>
      <trkpt lat="48.770618" lon="9.907615">
        <ele>645.8</ele>
        <time>2026-08-30T11:23:00Z</time>
      </trkpt>
      <trkpt lat="48.770634" lon="9.907613">
        <ele>646</ele>
        <time>2026-08-30T11:23:01Z</time>
      </trkpt>
      <trkpt lat="48.770651" lon="9.907611">
        <ele>646.2</ele>
        <time>2026-08-30T11:23:02Z</time>
      </trkpt>
      <trkpt lat="48.770665" lon="9.907613">
        <ele>646.4</ele>
        <time>2026-08-30T11:23:03Z</time>
      </trkpt>
      <trkpt lat="48.770679" lon="9.907609">
        <ele>646.6</ele>
        <time>2026-08-30T11:23:04Z</time>
      </trkpt>
      <trkpt lat="48.770694" lon="9.907610">
        <ele>646.6</ele>
        <time>2026-08-30T11:23:05Z</time>
      </trkpt>
      <trkpt lat="48.770711" lon="9.907606">
        <ele>646.8</ele>
        <time>2026-08-30T11:23:06Z</time>
      </trkpt>
      <trkpt lat="48.770731" lon="9.907608">
        <ele>647</ele>
        <time>2026-08-30T11:23:07Z</time>
      </trkpt>
      <trkpt lat="48.770755" lon="9.907609">
        <ele>647.2</ele>
        <time>2026-08-30T11:23:08Z</time>
      </trkpt>
      <trkpt lat="48.770775" lon="9.907613">
        <ele>647.4</ele>
        <time>2026-08-30T11:23:09Z</time>
      </trkpt>
      <trkpt lat="48.770797" lon="9.907621">
        <ele>647.4</ele>
        <time>2026-08-30T11:23:10Z</time>
      </trkpt>
      <trkpt lat="48.770813" lon="9.907628">
        <ele>647.6</ele>
        <time>2026-08-30T11:23:11Z</time>
      </trkpt>
      <trkpt lat="48.770829" lon="9.907635">
        <ele>647.8</ele>
        <time>2026-08-30T11:23:12Z</time>
      </trkpt>
      <trkpt lat="48.770845" lon="9.907649">
        <ele>648</ele>
        <time>2026-08-30T11:23:13Z</time>
      </trkpt>
      <trkpt lat="48.770862" lon="9.907666">
        <ele>648.2</ele>
        <time>2026-08-30T11:23:14Z</time>
      </trkpt>
      <trkpt lat="48.770876" lon="9.907687">
        <ele>648.2</ele>
        <time>2026-08-30T11:23:15Z</time>
      </trkpt>
      <trkpt lat="48.770892" lon="9.907706">
        <ele>648.4</ele>
        <time>2026-08-30T11:23:16Z</time>
      </trkpt>
      <trkpt lat="48.770908" lon="9.907717">
        <ele>648.6</ele>
        <time>2026-08-30T11:23:17Z</time>
      </trkpt>
      <trkpt lat="48.770923" lon="9.907723">
        <ele>648.6</ele>
        <time>2026-08-30T11:23:18Z</time>
      </trkpt>
      <trkpt lat="48.770941" lon="9.907730">
        <ele>648.8</ele>
        <time>2026-08-30T11:23:19Z</time>
      </trkpt>
      <trkpt lat="48.770963" lon="9.907739">
        <ele>648.8</ele>
        <time>2026-08-30T11:23:20Z</time>
      </trkpt>
      <trkpt lat="48.770984" lon="9.907733">
        <ele>649</ele>
        <time>2026-08-30T11:23:21Z</time>
      </trkpt>
      <trkpt lat="48.771005" lon="9.907726">
        <ele>649</ele>
        <time>2026-08-30T11:23:22Z</time>
      </trkpt>
      <trkpt lat="48.771023" lon="9.907715">
        <ele>649.2</ele>
        <time>2026-08-30T11:23:23Z</time>
      </trkpt>
      <trkpt lat="48.771043" lon="9.907703">
        <ele>649.2</ele>
        <time>2026-08-30T11:23:24Z</time>
      </trkpt>
      <trkpt lat="48.771060" lon="9.907683">
        <ele>649.4</ele>
        <time>2026-08-30T11:23:25Z</time>
      </trkpt>
      <trkpt lat="48.771076" lon="9.907656">
        <ele>649.6</ele>
        <time>2026-08-30T11:23:26Z</time>
      </trkpt>
      <trkpt lat="48.771086" lon="9.907623">
        <ele>649.6</ele>
        <time>2026-08-30T11:23:27Z</time>
      </trkpt>
      <trkpt lat="48.771088" lon="9.907588">
        <ele>649.8</ele>
        <time>2026-08-30T11:23:28Z</time>
      </trkpt>
      <trkpt lat="48.771088" lon="9.907553">
        <ele>649.8</ele>
        <time>2026-08-30T11:23:29Z</time>
      </trkpt>
      <trkpt lat="48.771082" lon="9.907520">
        <ele>650</ele>
        <time>2026-08-30T11:23:30Z</time>
      </trkpt>
      <trkpt lat="48.771073" lon="9.907493">
        <ele>650</ele>
        <time>2026-08-30T11:23:31Z</time>
      </trkpt>
      <trkpt lat="48.771066" lon="9.907469">
        <ele>650.2</ele>
        <time>2026-08-30T11:23:32Z</time>
      </trkpt>
      <trkpt lat="48.771054" lon="9.907447">
        <ele>650.2</ele>
        <time>2026-08-30T11:23:33Z</time>
      </trkpt>
      <trkpt lat="48.771037" lon="9.907429">
        <ele>650.4</ele>
        <time>2026-08-30T11:23:34Z</time>
      </trkpt>
      <trkpt lat="48.771019" lon="9.907417">
        <ele>650.6</ele>
        <time>2026-08-30T11:23:35Z</time>
      </trkpt>
      <trkpt lat="48.771003" lon="9.907402">
        <ele>650.6</ele>
        <time>2026-08-30T11:23:36Z</time>
      </trkpt>
      <trkpt lat="48.770989" lon="9.907382">
        <ele>650.8</ele>
        <time>2026-08-30T11:23:37Z</time>
      </trkpt>
      <trkpt lat="48.770975" lon="9.907362">
        <ele>651</ele>
        <time>2026-08-30T11:23:38Z</time>
      </trkpt>
      <trkpt lat="48.770960" lon="9.907343">
        <ele>651</ele>
        <time>2026-08-30T11:23:39Z</time>
      </trkpt>
      <trkpt lat="48.770946" lon="9.907325">
        <ele>651.2</ele>
        <time>2026-08-30T11:23:40Z</time>
      </trkpt>
      <trkpt lat="48.770931" lon="9.907308">
        <ele>651.4</ele>
        <time>2026-08-30T11:23:41Z</time>
      </trkpt>
      <trkpt lat="48.770917" lon="9.907292">
        <ele>651.4</ele>
        <time>2026-08-30T11:23:42Z</time>
      </trkpt>
      <trkpt lat="48.770902" lon="9.907273">
        <ele>651.6</ele>
        <time>2026-08-30T11:23:43Z</time>
      </trkpt>
      <trkpt lat="48.770887" lon="9.907255">
        <ele>651.8</ele>
        <time>2026-08-30T11:23:44Z</time>
      </trkpt>
      <trkpt lat="48.770873" lon="9.907237">
        <ele>651.8</ele>
        <time>2026-08-30T11:23:45Z</time>
      </trkpt>
      <trkpt lat="48.770857" lon="9.907214">
        <ele>652</ele>
        <time>2026-08-30T11:23:46Z</time>
      </trkpt>
      <trkpt lat="48.770840" lon="9.907198">
        <ele>652.2</ele>
        <time>2026-08-30T11:23:47Z</time>
      </trkpt>
      <trkpt lat="48.770827" lon="9.907180">
        <ele>652.4</ele>
        <time>2026-08-30T11:23:48Z</time>
      </trkpt>
      <trkpt lat="48.770811" lon="9.907162">
        <ele>652.4</ele>
        <time>2026-08-30T11:23:49Z</time>
      </trkpt>
      <trkpt lat="48.770797" lon="9.907144">
        <ele>652.6</ele>
        <time>2026-08-30T11:23:50Z</time>
      </trkpt>
      <trkpt lat="48.770782" lon="9.907127">
        <ele>652.8</ele>
        <time>2026-08-30T11:23:51Z</time>
      </trkpt>
      <trkpt lat="48.770766" lon="9.907108">
        <ele>652.8</ele>
        <time>2026-08-30T11:23:52Z</time>
      </trkpt>
      <trkpt lat="48.770752" lon="9.907089">
        <ele>653</ele>
        <time>2026-08-30T11:23:53Z</time>
      </trkpt>
      <trkpt lat="48.770739" lon="9.907072">
        <ele>653.2</ele>
        <time>2026-08-30T11:23:54Z</time>
      </trkpt>
      <trkpt lat="48.770725" lon="9.907057">
        <ele>653.4</ele>
        <time>2026-08-30T11:23:55Z</time>
      </trkpt>
      <trkpt lat="48.770711" lon="9.907043">
        <ele>653.4</ele>
        <time>2026-08-30T11:23:56Z</time>
      </trkpt>
      <trkpt lat="48.770696" lon="9.907027">
        <ele>653.6</ele>
        <time>2026-08-30T11:23:57Z</time>
      </trkpt>
      <trkpt lat="48.770678" lon="9.907012">
        <ele>653.8</ele>
        <time>2026-08-30T11:23:58Z</time>
      </trkpt>
      <trkpt lat="48.770666" lon="9.906992">
        <ele>653.8</ele>
        <time>2026-08-30T11:23:59Z</time>
      </trkpt>
      <trkpt lat="48.770651" lon="9.906971">
        <ele>654</ele>
        <time>2026-08-30T11:24:00Z</time>
      </trkpt>
      <trkpt lat="48.770638" lon="9.906956">
        <ele>654</ele>
        <time>2026-08-30T11:24:01Z</time>
      </trkpt>
      <trkpt lat="48.770625" lon="9.906937">
        <ele>654.2</ele>
        <time>2026-08-30T11:24:02Z</time>
      </trkpt>
      <trkpt lat="48.770613" lon="9.906917">
        <ele>654.4</ele>
        <time>2026-08-30T11:24:03Z</time>
      </trkpt>
      <trkpt lat="48.770601" lon="9.906895">
        <ele>654.6</ele>
        <time>2026-08-30T11:24:04Z</time>
      </trkpt>
      <trkpt lat="48.770593" lon="9.906873">
        <ele>654.8</ele>
        <time>2026-08-30T11:24:05Z</time>
      </trkpt>
      <trkpt lat="48.770584" lon="9.906850">
        <ele>654.8</ele>
        <time>2026-08-30T11:24:06Z</time>
      </trkpt>
      <trkpt lat="48.770573" lon="9.906824">
        <ele>655</ele>
        <time>2026-08-30T11:24:07Z</time>
      </trkpt>
      <trkpt lat="48.770570" lon="9.906803">
        <ele>655.2</ele>
        <time>2026-08-30T11:24:08Z</time>
      </trkpt>
      <trkpt lat="48.770568" lon="9.906776">
        <ele>655.4</ele>
        <time>2026-08-30T11:24:09Z</time>
      </trkpt>
      <trkpt lat="48.770565" lon="9.906749">
        <ele>655.6</ele>
        <time>2026-08-30T11:24:10Z</time>
      </trkpt>
      <trkpt lat="48.770564" lon="9.906726">
        <ele>655.6</ele>
        <time>2026-08-30T11:24:11Z</time>
      </trkpt>
      <trkpt lat="48.770564" lon="9.906707">
        <ele>655.8</ele>
        <time>2026-08-30T11:24:12Z</time>
      </trkpt>
      <trkpt lat="48.770566" lon="9.906679">
        <ele>656</ele>
        <time>2026-08-30T11:24:13Z</time>
      </trkpt>
      <trkpt lat="48.770571" lon="9.906656">
        <ele>656.2</ele>
        <time>2026-08-30T11:24:14Z</time>
      </trkpt>
      <trkpt lat="48.770579" lon="9.906635">
        <ele>656.2</ele>
        <time>2026-08-30T11:24:15Z</time>
      </trkpt>
      <trkpt lat="48.770586" lon="9.906616">
        <ele>656.4</ele>
        <time>2026-08-30T11:24:16Z</time>
      </trkpt>
      <trkpt lat="48.770597" lon="9.906597">
        <ele>656.6</ele>
        <time>2026-08-30T11:24:17Z</time>
      </trkpt>
      <trkpt lat="48.770609" lon="9.906578">
        <ele>656.8</ele>
        <time>2026-08-30T11:24:18Z</time>
      </trkpt>
      <trkpt lat="48.770624" lon="9.906552">
        <ele>657</ele>
        <time>2026-08-30T11:24:19Z</time>
      </trkpt>
      <trkpt lat="48.770636" lon="9.906529">
        <ele>657.2</ele>
        <time>2026-08-30T11:24:20Z</time>
      </trkpt>
      <trkpt lat="48.770645" lon="9.906512">
        <ele>657.4</ele>
        <time>2026-08-30T11:24:21Z</time>
      </trkpt>
      <trkpt lat="48.770653" lon="9.906498">
        <ele>657.6</ele>
        <time>2026-08-30T11:24:22Z</time>
      </trkpt>
      <trkpt lat="48.770667" lon="9.906483">
        <ele>657.8</ele>
        <time>2026-08-30T11:24:23Z</time>
      </trkpt>
      <trkpt lat="48.770678" lon="9.906477">
        <ele>658</ele>
        <time>2026-08-30T11:24:24Z</time>
      </trkpt>
      <trkpt lat="48.770693" lon="9.906465">
        <ele>658.2</ele>
        <time>2026-08-30T11:24:25Z</time>
      </trkpt>
      <trkpt lat="48.770709" lon="9.906452">
        <ele>658.2</ele>
        <time>2026-08-30T11:24:26Z</time>
      </trkpt>
      <trkpt lat="48.770723" lon="9.906443">
        <ele>658.4</ele>
        <time>2026-08-30T11:24:27Z</time>
      </trkpt>
      <trkpt lat="48.770739" lon="9.906430">
        <ele>658.6</ele>
        <time>2026-08-30T11:24:28Z</time>
      </trkpt>
      <trkpt lat="48.770753" lon="9.906421">
        <ele>658.8</ele>
        <time>2026-08-30T11:24:29Z</time>
      </trkpt>
      <trkpt lat="48.770771" lon="9.906410">
        <ele>658.8</ele>
        <time>2026-08-30T11:24:30Z</time>
      </trkpt>
      <trkpt lat="48.770787" lon="9.906397">
        <ele>659</ele>
        <time>2026-08-30T11:24:31Z</time>
      </trkpt>
      <trkpt lat="48.770800" lon="9.906387">
        <ele>659.2</ele>
        <time>2026-08-30T11:24:32Z</time>
      </trkpt>
      <trkpt lat="48.770816" lon="9.906378">
        <ele>659.4</ele>
        <time>2026-08-30T11:24:33Z</time>
      </trkpt>
      <trkpt lat="48.770832" lon="9.906367">
        <ele>659.6</ele>
        <time>2026-08-30T11:24:34Z</time>
      </trkpt>
      <trkpt lat="48.770850" lon="9.906351">
        <ele>659.8</ele>
        <time>2026-08-30T11:24:35Z</time>
      </trkpt>
      <trkpt lat="48.770867" lon="9.906338">
        <ele>659.8</ele>
        <time>2026-08-30T11:24:36Z</time>
      </trkpt>
      <trkpt lat="48.770883" lon="9.906327">
        <ele>660</ele>
        <time>2026-08-30T11:24:37Z</time>
      </trkpt>
      <trkpt lat="48.770900" lon="9.906319">
        <ele>660.2</ele>
        <time>2026-08-30T11:24:38Z</time>
      </trkpt>
      <trkpt lat="48.770918" lon="9.906317">
        <ele>660.4</ele>
        <time>2026-08-30T11:24:39Z</time>
      </trkpt>
      <trkpt lat="48.770937" lon="9.906312">
        <ele>660.6</ele>
        <time>2026-08-30T11:24:40Z</time>
      </trkpt>
      <trkpt lat="48.770955" lon="9.906306">
        <ele>660.8</ele>
        <time>2026-08-30T11:24:41Z</time>
      </trkpt>
      <trkpt lat="48.770972" lon="9.906300">
        <ele>661</ele>
        <time>2026-08-30T11:24:42Z</time>
      </trkpt>
      <trkpt lat="48.770990" lon="9.906293">
        <ele>661</ele>
        <time>2026-08-30T11:24:43Z</time>
      </trkpt>
      <trkpt lat="48.771010" lon="9.906285">
        <ele>661.2</ele>
        <time>2026-08-30T11:24:44Z</time>
      </trkpt>
      <trkpt lat="48.771027" lon="9.906277">
        <ele>661.4</ele>
        <time>2026-08-30T11:24:45Z</time>
      </trkpt>
      <trkpt lat="48.771045" lon="9.906268">
        <ele>661.6</ele>
        <time>2026-08-30T11:24:46Z</time>
      </trkpt>
      <trkpt lat="48.771064" lon="9.906259">
        <ele>661.8</ele>
        <time>2026-08-30T11:24:47Z</time>
      </trkpt>
      <trkpt lat="48.771084" lon="9.906258">
        <ele>662</ele>
        <time>2026-08-30T11:24:48Z</time>
      </trkpt>
      <trkpt lat="48.771102" lon="9.906253">
        <ele>662.2</ele>
        <time>2026-08-30T11:24:49Z</time>
      </trkpt>
      <trkpt lat="48.771118" lon="9.906245">
        <ele>662.4</ele>
        <time>2026-08-30T11:24:50Z</time>
      </trkpt>
      <trkpt lat="48.771134" lon="9.906237">
        <ele>662.4</ele>
        <time>2026-08-30T11:24:51Z</time>
      </trkpt>
      <trkpt lat="48.771152" lon="9.906226">
        <ele>662.6</ele>
        <time>2026-08-30T11:24:52Z</time>
      </trkpt>
      <trkpt lat="48.771169" lon="9.906219">
        <ele>662.8</ele>
        <time>2026-08-30T11:24:53Z</time>
      </trkpt>
      <trkpt lat="48.771187" lon="9.906215">
        <ele>663</ele>
        <time>2026-08-30T11:24:54Z</time>
      </trkpt>
      <trkpt lat="48.771206" lon="9.906213">
        <ele>663.2</ele>
        <time>2026-08-30T11:24:55Z</time>
      </trkpt>
      <trkpt lat="48.771223" lon="9.906208">
        <ele>663.4</ele>
        <time>2026-08-30T11:24:56Z</time>
      </trkpt>
      <trkpt lat="48.771241" lon="9.906198">
        <ele>663.6</ele>
        <time>2026-08-30T11:24:57Z</time>
      </trkpt>
      <trkpt lat="48.771260" lon="9.906197">
        <ele>663.6</ele>
        <time>2026-08-30T11:24:58Z</time>
      </trkpt>
      <trkpt lat="48.771278" lon="9.906196">
        <ele>663.8</ele>
        <time>2026-08-30T11:24:59Z</time>
      </trkpt>
      <trkpt lat="48.771297" lon="9.906189">
        <ele>664</ele>
        <time>2026-08-30T11:25:00Z</time>
      </trkpt>
      <trkpt lat="48.771315" lon="9.906188">
        <ele>664.2</ele>
        <time>2026-08-30T11:25:01Z</time>
      </trkpt>
      <trkpt lat="48.771335" lon="9.906187">
        <ele>664.4</ele>
        <time>2026-08-30T11:25:02Z</time>
      </trkpt>
      <trkpt lat="48.771355" lon="9.906190">
        <ele>664.4</ele>
        <time>2026-08-30T11:25:03Z</time>
      </trkpt>
      <trkpt lat="48.771374" lon="9.906189">
        <ele>664.6</ele>
        <time>2026-08-30T11:25:04Z</time>
      </trkpt>
      <trkpt lat="48.771395" lon="9.906183">
        <ele>664.8</ele>
        <time>2026-08-30T11:25:05Z</time>
      </trkpt>
      <trkpt lat="48.771415" lon="9.906179">
        <ele>665</ele>
        <time>2026-08-30T11:25:06Z</time>
      </trkpt>
      <trkpt lat="48.771433" lon="9.906176">
        <ele>665</ele>
        <time>2026-08-30T11:25:07Z</time>
      </trkpt>
      <trkpt lat="48.771455" lon="9.906171">
        <ele>665.2</ele>
        <time>2026-08-30T11:25:08Z</time>
      </trkpt>
      <trkpt lat="48.771481" lon="9.906172">
        <ele>665.2</ele>
        <time>2026-08-30T11:25:09Z</time>
      </trkpt>
      <trkpt lat="48.771506" lon="9.906172">
        <ele>665.4</ele>
        <time>2026-08-30T11:25:10Z</time>
      </trkpt>
      <trkpt lat="48.771528" lon="9.906164">
        <ele>665.6</ele>
        <time>2026-08-30T11:25:11Z</time>
      </trkpt>
      <trkpt lat="48.771546" lon="9.906157">
        <ele>665.8</ele>
        <time>2026-08-30T11:25:12Z</time>
      </trkpt>
      <trkpt lat="48.771561" lon="9.906155">
        <ele>666</ele>
        <time>2026-08-30T11:25:13Z</time>
      </trkpt>
      <trkpt lat="48.771579" lon="9.906157">
        <ele>666</ele>
        <time>2026-08-30T11:25:14Z</time>
      </trkpt>
      <trkpt lat="48.771598" lon="9.906160">
        <ele>666.2</ele>
        <time>2026-08-30T11:25:15Z</time>
      </trkpt>
      <trkpt lat="48.771621" lon="9.906165">
        <ele>666.4</ele>
        <time>2026-08-30T11:25:16Z</time>
      </trkpt>
      <trkpt lat="48.771646" lon="9.906170">
        <ele>666.4</ele>
        <time>2026-08-30T11:25:17Z</time>
      </trkpt>
      <trkpt lat="48.771668" lon="9.906172">
        <ele>666.4</ele>
        <time>2026-08-30T11:25:18Z</time>
      </trkpt>
      <trkpt lat="48.771689" lon="9.906172">
        <ele>666.6</ele>
        <time>2026-08-30T11:25:19Z</time>
      </trkpt>
      <trkpt lat="48.771710" lon="9.906173">
        <ele>666.6</ele>
        <time>2026-08-30T11:25:20Z</time>
      </trkpt>
      <trkpt lat="48.771733" lon="9.906172">
        <ele>666.6</ele>
        <time>2026-08-30T11:25:21Z</time>
      </trkpt>
      <trkpt lat="48.771754" lon="9.906180">
        <ele>666.6</ele>
        <time>2026-08-30T11:25:22Z</time>
      </trkpt>
      <trkpt lat="48.771780" lon="9.906194">
        <ele>666.6</ele>
        <time>2026-08-30T11:25:23Z</time>
      </trkpt>
      <trkpt lat="48.771809" lon="9.906204">
        <ele>666.6</ele>
        <time>2026-08-30T11:25:24Z</time>
      </trkpt>
      <trkpt lat="48.771839" lon="9.906211">
        <ele>666.6</ele>
        <time>2026-08-30T11:25:25Z</time>
      </trkpt>
      <trkpt lat="48.771866" lon="9.906214">
        <ele>666.6</ele>
        <time>2026-08-30T11:25:26Z</time>
      </trkpt>
      <trkpt lat="48.771894" lon="9.906200">
        <ele>666.6</ele>
        <time>2026-08-30T11:25:27Z</time>
      </trkpt>
      <trkpt lat="48.771917" lon="9.906174">
        <ele>666.4</ele>
        <time>2026-08-30T11:25:28Z</time>
      </trkpt>
      <trkpt lat="48.771929" lon="9.906138">
        <ele>666.4</ele>
        <time>2026-08-30T11:25:29Z</time>
      </trkpt>
      <trkpt lat="48.771933" lon="9.906107">
        <ele>666.4</ele>
        <time>2026-08-30T11:25:30Z</time>
      </trkpt>
      <trkpt lat="48.771931" lon="9.906063">
        <ele>666.4</ele>
        <time>2026-08-30T11:25:31Z</time>
      </trkpt>
      <trkpt lat="48.771923" lon="9.906023">
        <ele>666.2</ele>
        <time>2026-08-30T11:25:32Z</time>
      </trkpt>
      <trkpt lat="48.771926" lon="9.905974">
        <ele>666.2</ele>
        <time>2026-08-30T11:25:33Z</time>
      </trkpt>
      <trkpt lat="48.771940" lon="9.905930">
        <ele>666</ele>
        <time>2026-08-30T11:25:34Z</time>
      </trkpt>
      <trkpt lat="48.771968" lon="9.905907">
        <ele>666</ele>
        <time>2026-08-30T11:25:35Z</time>
      </trkpt>
      <trkpt lat="48.771998" lon="9.905902">
        <ele>666</ele>
        <time>2026-08-30T11:25:36Z</time>
      </trkpt>
      <trkpt lat="48.772028" lon="9.905899">
        <ele>665.8</ele>
        <time>2026-08-30T11:25:37Z</time>
      </trkpt>
      <trkpt lat="48.772061" lon="9.905895">
        <ele>665.8</ele>
        <time>2026-08-30T11:25:38Z</time>
      </trkpt>
      <trkpt lat="48.772091" lon="9.905887">
        <ele>665.8</ele>
        <time>2026-08-30T11:25:39Z</time>
      </trkpt>
      <trkpt lat="48.772120" lon="9.905878">
        <ele>665.8</ele>
        <time>2026-08-30T11:25:40Z</time>
      </trkpt>
      <trkpt lat="48.772143" lon="9.905872">
        <ele>666</ele>
        <time>2026-08-30T11:25:41Z</time>
      </trkpt>
      <trkpt lat="48.772162" lon="9.905866">
        <ele>666</ele>
        <time>2026-08-30T11:25:42Z</time>
      </trkpt>
      <trkpt lat="48.772178" lon="9.905855">
        <ele>666.2</ele>
        <time>2026-08-30T11:25:43Z</time>
      </trkpt>
      <trkpt lat="48.772192" lon="9.905847">
        <ele>666.4</ele>
        <time>2026-08-30T11:25:44Z</time>
      </trkpt>
      <trkpt lat="48.772193" lon="9.905840">
        <ele>666.4</ele>
        <time>2026-08-30T11:25:45Z</time>
      </trkpt>
      <trkpt lat="48.772193" lon="9.905841">
        <ele>666.6</ele>
        <time>2026-08-30T11:25:46Z</time>
      </trkpt>
      <trkpt lat="48.772193" lon="9.905841">
        <ele>666.6</ele>
        <time>2026-08-30T11:25:47Z</time>
      </trkpt>
      <trkpt lat="48.772193" lon="9.905841">
        <ele>666.8</ele>
        <time>2026-08-30T11:25:48Z</time>
      </trkpt>
      <trkpt lat="48.772200" lon="9.905838">
        <ele>666.8</ele>
        <time>2026-08-30T11:25:49Z</time>
      </trkpt>
      <trkpt lat="48.772210" lon="9.905826">
        <ele>666.8</ele>
        <time>2026-08-30T11:25:50Z</time>
      </trkpt>
      <trkpt lat="48.772221" lon="9.905828">
        <ele>667</ele>
        <time>2026-08-30T11:25:51Z</time>
      </trkpt>
      <trkpt lat="48.772241" lon="9.905826">
        <ele>667</ele>
        <time>2026-08-30T11:25:52Z</time>
      </trkpt>
      <trkpt lat="48.772257" lon="9.905824">
        <ele>667</ele>
        <time>2026-08-30T11:25:53Z</time>
      </trkpt>
      <trkpt lat="48.772279" lon="9.905818">
        <ele>667</ele>
        <time>2026-08-30T11:25:54Z</time>
      </trkpt>
      <trkpt lat="48.772299" lon="9.905811">
        <ele>667</ele>
        <time>2026-08-30T11:25:55Z</time>
      </trkpt>
      <trkpt lat="48.772317" lon="9.905807">
        <ele>667</ele>
        <time>2026-08-30T11:25:56Z</time>
      </trkpt>
      <trkpt lat="48.772329" lon="9.905798">
        <ele>667</ele>
        <time>2026-08-30T11:25:57Z</time>
      </trkpt>
      <trkpt lat="48.772336" lon="9.905785">
        <ele>667</ele>
        <time>2026-08-30T11:25:58Z</time>
      </trkpt>
      <trkpt lat="48.772330" lon="9.905792">
        <ele>667</ele>
        <time>2026-08-30T11:25:59Z</time>
      </trkpt>
      <trkpt lat="48.772330" lon="9.905792">
        <ele>667</ele>
        <time>2026-08-30T11:26:00Z</time>
      </trkpt>
      <trkpt lat="48.772330" lon="9.905792">
        <ele>667</ele>
        <time>2026-08-30T11:26:01Z</time>
      </trkpt>
      <trkpt lat="48.772330" lon="9.905792">
        <ele>667</ele>
        <time>2026-08-30T11:26:02Z</time>
      </trkpt>
      <trkpt lat="48.772330" lon="9.905792">
        <ele>667</ele>
        <time>2026-08-30T11:26:03Z</time>
      </trkpt>
      <trkpt lat="48.772330" lon="9.905792">
        <ele>667</ele>
        <time>2026-08-30T11:26:04Z</time>
      </trkpt>
      <trkpt lat="48.772330" lon="9.905790">
        <ele>667</ele>
        <time>2026-08-30T11:26:05Z</time>
      </trkpt>
      <trkpt lat="48.772350" lon="9.905769">
        <ele>667</ele>
        <time>2026-08-30T11:26:06Z</time>
      </trkpt>
      <trkpt lat="48.772379" lon="9.905746">
        <ele>666.8</ele>
        <time>2026-08-30T11:26:07Z</time>
      </trkpt>
      <trkpt lat="48.772409" lon="9.905712">
        <ele>666.6</ele>
        <time>2026-08-30T11:26:08Z</time>
      </trkpt>
      <trkpt lat="48.772439" lon="9.905678">
        <ele>666.4</ele>
        <time>2026-08-30T11:26:09Z</time>
      </trkpt>
      <trkpt lat="48.772478" lon="9.905663">
        <ele>666</ele>
        <time>2026-08-30T11:26:10Z</time>
      </trkpt>
      <trkpt lat="48.772514" lon="9.905647">
        <ele>665.4</ele>
        <time>2026-08-30T11:26:11Z</time>
      </trkpt>
      <trkpt lat="48.772563" lon="9.905623">
        <ele>664.8</ele>
        <time>2026-08-30T11:26:12Z</time>
      </trkpt>
      <trkpt lat="48.772613" lon="9.905602">
        <ele>664.2</ele>
        <time>2026-08-30T11:26:13Z</time>
      </trkpt>
      <trkpt lat="48.772669" lon="9.905588">
        <ele>663.8</ele>
        <time>2026-08-30T11:26:14Z</time>
      </trkpt>
      <trkpt lat="48.772721" lon="9.905575">
        <ele>663.4</ele>
        <time>2026-08-30T11:26:15Z</time>
      </trkpt>
      <trkpt lat="48.772771" lon="9.905556">
        <ele>663</ele>
        <time>2026-08-30T11:26:16Z</time>
      </trkpt>
      <trkpt lat="48.772813" lon="9.905542">
        <ele>662.6</ele>
        <time>2026-08-30T11:26:17Z</time>
      </trkpt>
      <trkpt lat="48.772851" lon="9.905517">
        <ele>662.4</ele>
        <time>2026-08-30T11:26:18Z</time>
      </trkpt>
      <trkpt lat="48.772888" lon="9.905495">
        <ele>662.2</ele>
        <time>2026-08-30T11:26:19Z</time>
      </trkpt>
      <trkpt lat="48.772932" lon="9.905482">
        <ele>662</ele>
        <time>2026-08-30T11:26:20Z</time>
      </trkpt>
      <trkpt lat="48.772969" lon="9.905456">
        <ele>661.8</ele>
        <time>2026-08-30T11:26:21Z</time>
      </trkpt>
      <trkpt lat="48.773010" lon="9.905419">
        <ele>661.4</ele>
        <time>2026-08-30T11:26:22Z</time>
      </trkpt>
      <trkpt lat="48.773056" lon="9.905381">
        <ele>661.2</ele>
        <time>2026-08-30T11:26:23Z</time>
      </trkpt>
      <trkpt lat="48.773095" lon="9.905352">
        <ele>661</ele>
        <time>2026-08-30T11:26:24Z</time>
      </trkpt>
      <trkpt lat="48.773130" lon="9.905333">
        <ele>660.8</ele>
        <time>2026-08-30T11:26:25Z</time>
      </trkpt>
      <trkpt lat="48.773167" lon="9.905320">
        <ele>660.6</ele>
        <time>2026-08-30T11:26:26Z</time>
      </trkpt>
      <trkpt lat="48.773199" lon="9.905311">
        <ele>660.6</ele>
        <time>2026-08-30T11:26:27Z</time>
      </trkpt>
      <trkpt lat="48.773229" lon="9.905295">
        <ele>660.4</ele>
        <time>2026-08-30T11:26:28Z</time>
      </trkpt>
      <trkpt lat="48.773263" lon="9.905278">
        <ele>660.4</ele>
        <time>2026-08-30T11:26:29Z</time>
      </trkpt>
      <trkpt lat="48.773297" lon="9.905261">
        <ele>660.4</ele>
        <time>2026-08-30T11:26:30Z</time>
      </trkpt>
      <trkpt lat="48.773334" lon="9.905232">
        <ele>660.2</ele>
        <time>2026-08-30T11:26:31Z</time>
      </trkpt>
      <trkpt lat="48.773372" lon="9.905200">
        <ele>660</ele>
        <time>2026-08-30T11:26:32Z</time>
      </trkpt>
      <trkpt lat="48.773410" lon="9.905176">
        <ele>659.8</ele>
        <time>2026-08-30T11:26:33Z</time>
      </trkpt>
      <trkpt lat="48.773447" lon="9.905154">
        <ele>659.6</ele>
        <time>2026-08-30T11:26:34Z</time>
      </trkpt>
      <trkpt lat="48.773480" lon="9.905134">
        <ele>659.4</ele>
        <time>2026-08-30T11:26:35Z</time>
      </trkpt>
      <trkpt lat="48.773501" lon="9.905108">
        <ele>659.4</ele>
        <time>2026-08-30T11:26:36Z</time>
      </trkpt>
      <trkpt lat="48.773514" lon="9.905085">
        <ele>659.2</ele>
        <time>2026-08-30T11:26:37Z</time>
      </trkpt>
      <trkpt lat="48.773534" lon="9.905078">
        <ele>659.2</ele>
        <time>2026-08-30T11:26:38Z</time>
      </trkpt>
      <trkpt lat="48.773555" lon="9.905069">
        <ele>659</ele>
        <time>2026-08-30T11:26:39Z</time>
      </trkpt>
      <trkpt lat="48.773576" lon="9.905052">
        <ele>659</ele>
        <time>2026-08-30T11:26:40Z</time>
      </trkpt>
      <trkpt lat="48.773609" lon="9.905031">
        <ele>658.8</ele>
        <time>2026-08-30T11:26:41Z</time>
      </trkpt>
      <trkpt lat="48.773641" lon="9.905015">
        <ele>658.6</ele>
        <time>2026-08-30T11:26:42Z</time>
      </trkpt>
      <trkpt lat="48.773679" lon="9.904989">
        <ele>658.4</ele>
        <time>2026-08-30T11:26:43Z</time>
      </trkpt>
      <trkpt lat="48.773714" lon="9.904967">
        <ele>658.2</ele>
        <time>2026-08-30T11:26:44Z</time>
      </trkpt>
      <trkpt lat="48.773747" lon="9.904943">
        <ele>658.2</ele>
        <time>2026-08-30T11:26:45Z</time>
      </trkpt>
      <trkpt lat="48.773783" lon="9.904921">
        <ele>658</ele>
        <time>2026-08-30T11:26:46Z</time>
      </trkpt>
      <trkpt lat="48.773817" lon="9.904903">
        <ele>658</ele>
        <time>2026-08-30T11:26:47Z</time>
      </trkpt>
      <trkpt lat="48.773852" lon="9.904885">
        <ele>657.8</ele>
        <time>2026-08-30T11:26:48Z</time>
      </trkpt>
      <trkpt lat="48.773880" lon="9.904868">
        <ele>657.8</ele>
        <time>2026-08-30T11:26:49Z</time>
      </trkpt>
      <trkpt lat="48.773915" lon="9.904836">
        <ele>657.8</ele>
        <time>2026-08-30T11:26:50Z</time>
      </trkpt>
      <trkpt lat="48.773952" lon="9.904807">
        <ele>657.8</ele>
        <time>2026-08-30T11:26:51Z</time>
      </trkpt>
      <trkpt lat="48.773988" lon="9.904794">
        <ele>657.6</ele>
        <time>2026-08-30T11:26:52Z</time>
      </trkpt>
      <trkpt lat="48.774019" lon="9.904783">
        <ele>657.6</ele>
        <time>2026-08-30T11:26:53Z</time>
      </trkpt>
      <trkpt lat="48.774050" lon="9.904765">
        <ele>657.6</ele>
        <time>2026-08-30T11:26:54Z</time>
      </trkpt>
      <trkpt lat="48.774076" lon="9.904756">
        <ele>657.6</ele>
        <time>2026-08-30T11:26:55Z</time>
      </trkpt>
      <trkpt lat="48.774100" lon="9.904752">
        <ele>657.6</ele>
        <time>2026-08-30T11:26:56Z</time>
      </trkpt>
      <trkpt lat="48.774134" lon="9.904736">
        <ele>657.4</ele>
        <time>2026-08-30T11:26:57Z</time>
      </trkpt>
      <trkpt lat="48.774171" lon="9.904714">
        <ele>657.4</ele>
        <time>2026-08-30T11:26:58Z</time>
      </trkpt>
      <trkpt lat="48.774200" lon="9.904694">
        <ele>657.2</ele>
        <time>2026-08-30T11:26:59Z</time>
      </trkpt>
      <trkpt lat="48.774232" lon="9.904666">
        <ele>657</ele>
        <time>2026-08-30T11:27:00Z</time>
      </trkpt>
      <trkpt lat="48.774270" lon="9.904648">
        <ele>656.8</ele>
        <time>2026-08-30T11:27:01Z</time>
      </trkpt>
      <trkpt lat="48.774310" lon="9.904625">
        <ele>656.6</ele>
        <time>2026-08-30T11:27:02Z</time>
      </trkpt>
      <trkpt lat="48.774349" lon="9.904610">
        <ele>656.2</ele>
        <time>2026-08-30T11:27:03Z</time>
      </trkpt>
      <trkpt lat="48.774380" lon="9.904589">
        <ele>656</ele>
        <time>2026-08-30T11:27:04Z</time>
      </trkpt>
      <trkpt lat="48.774417" lon="9.904568">
        <ele>655.8</ele>
        <time>2026-08-30T11:27:05Z</time>
      </trkpt>
      <trkpt lat="48.774451" lon="9.904546">
        <ele>655.6</ele>
        <time>2026-08-30T11:27:06Z</time>
      </trkpt>
      <trkpt lat="48.774485" lon="9.904513">
        <ele>655.4</ele>
        <time>2026-08-30T11:27:07Z</time>
      </trkpt>
      <trkpt lat="48.774516" lon="9.904477">
        <ele>655.2</ele>
        <time>2026-08-30T11:27:08Z</time>
      </trkpt>
      <trkpt lat="48.774548" lon="9.904437">
        <ele>655</ele>
        <time>2026-08-30T11:27:09Z</time>
      </trkpt>
      <trkpt lat="48.774579" lon="9.904407">
        <ele>654.6</ele>
        <time>2026-08-30T11:27:10Z</time>
      </trkpt>
      <trkpt lat="48.774612" lon="9.904373">
        <ele>654.4</ele>
        <time>2026-08-30T11:27:11Z</time>
      </trkpt>
      <trkpt lat="48.774643" lon="9.904338">
        <ele>654.2</ele>
        <time>2026-08-30T11:27:12Z</time>
      </trkpt>
      <trkpt lat="48.774681" lon="9.904307">
        <ele>653.8</ele>
        <time>2026-08-30T11:27:13Z</time>
      </trkpt>
      <trkpt lat="48.774722" lon="9.904269">
        <ele>653.6</ele>
        <time>2026-08-30T11:27:14Z</time>
      </trkpt>
      <trkpt lat="48.774764" lon="9.904235">
        <ele>653.2</ele>
        <time>2026-08-30T11:27:15Z</time>
      </trkpt>
      <trkpt lat="48.774800" lon="9.904202">
        <ele>652.8</ele>
        <time>2026-08-30T11:27:16Z</time>
      </trkpt>
      <trkpt lat="48.774831" lon="9.904172">
        <ele>652.6</ele>
        <time>2026-08-30T11:27:17Z</time>
      </trkpt>
      <trkpt lat="48.774873" lon="9.904136">
        <ele>652.2</ele>
        <time>2026-08-30T11:27:18Z</time>
      </trkpt>
      <trkpt lat="48.774912" lon="9.904107">
        <ele>651.8</ele>
        <time>2026-08-30T11:27:19Z</time>
      </trkpt>
      <trkpt lat="48.774954" lon="9.904078">
        <ele>651.6</ele>
        <time>2026-08-30T11:27:20Z</time>
      </trkpt>
      <trkpt lat="48.774995" lon="9.904049">
        <ele>651.2</ele>
        <time>2026-08-30T11:27:21Z</time>
      </trkpt>
      <trkpt lat="48.775037" lon="9.904025">
        <ele>651</ele>
        <time>2026-08-30T11:27:22Z</time>
      </trkpt>
      <trkpt lat="48.775077" lon="9.903997">
        <ele>650.8</ele>
        <time>2026-08-30T11:27:23Z</time>
      </trkpt>
      <trkpt lat="48.775118" lon="9.903967">
        <ele>650.6</ele>
        <time>2026-08-30T11:27:24Z</time>
      </trkpt>
      <trkpt lat="48.775160" lon="9.903941">
        <ele>650.4</ele>
        <time>2026-08-30T11:27:25Z</time>
      </trkpt>
      <trkpt lat="48.775197" lon="9.903915">
        <ele>650.4</ele>
        <time>2026-08-30T11:27:26Z</time>
      </trkpt>
      <trkpt lat="48.775234" lon="9.903890">
        <ele>650.2</ele>
        <time>2026-08-30T11:27:27Z</time>
      </trkpt>
      <trkpt lat="48.775265" lon="9.903870">
        <ele>650.2</ele>
        <time>2026-08-30T11:27:28Z</time>
      </trkpt>
      <trkpt lat="48.775300" lon="9.903843">
        <ele>650</ele>
        <time>2026-08-30T11:27:29Z</time>
      </trkpt>
      <trkpt lat="48.775334" lon="9.903813">
        <ele>649.8</ele>
        <time>2026-08-30T11:27:30Z</time>
      </trkpt>
      <trkpt lat="48.775365" lon="9.903798">
        <ele>649.8</ele>
        <time>2026-08-30T11:27:31Z</time>
      </trkpt>
      <trkpt lat="48.775401" lon="9.903782">
        <ele>649.6</ele>
        <time>2026-08-30T11:27:32Z</time>
      </trkpt>
      <trkpt lat="48.775431" lon="9.903771">
        <ele>649.6</ele>
        <time>2026-08-30T11:27:33Z</time>
      </trkpt>
      <trkpt lat="48.775452" lon="9.903750">
        <ele>649.4</ele>
        <time>2026-08-30T11:27:34Z</time>
      </trkpt>
      <trkpt lat="48.775480" lon="9.903723">
        <ele>649.4</ele>
        <time>2026-08-30T11:27:35Z</time>
      </trkpt>
      <trkpt lat="48.775511" lon="9.903691">
        <ele>649.4</ele>
        <time>2026-08-30T11:27:36Z</time>
      </trkpt>
      <trkpt lat="48.775545" lon="9.903672">
        <ele>649.2</ele>
        <time>2026-08-30T11:27:37Z</time>
      </trkpt>
      <trkpt lat="48.775574" lon="9.903652">
        <ele>649.2</ele>
        <time>2026-08-30T11:27:38Z</time>
      </trkpt>
      <trkpt lat="48.775599" lon="9.903652">
        <ele>649</ele>
        <time>2026-08-30T11:27:39Z</time>
      </trkpt>
      <trkpt lat="48.775623" lon="9.903655">
        <ele>649</ele>
        <time>2026-08-30T11:27:40Z</time>
      </trkpt>
      <trkpt lat="48.775647" lon="9.903646">
        <ele>649</ele>
        <time>2026-08-30T11:27:41Z</time>
      </trkpt>
      <trkpt lat="48.775676" lon="9.903623">
        <ele>649</ele>
        <time>2026-08-30T11:27:42Z</time>
      </trkpt>
      <trkpt lat="48.775704" lon="9.903608">
        <ele>648.8</ele>
        <time>2026-08-30T11:27:43Z</time>
      </trkpt>
      <trkpt lat="48.775735" lon="9.903589">
        <ele>648.6</ele>
        <time>2026-08-30T11:27:44Z</time>
      </trkpt>
      <trkpt lat="48.775762" lon="9.903569">
        <ele>648.4</ele>
        <time>2026-08-30T11:27:45Z</time>
      </trkpt>
      <trkpt lat="48.775786" lon="9.903556">
        <ele>648.2</ele>
        <time>2026-08-30T11:27:46Z</time>
      </trkpt>
      <trkpt lat="48.775803" lon="9.903549">
        <ele>648</ele>
        <time>2026-08-30T11:27:47Z</time>
      </trkpt>
      <trkpt lat="48.775820" lon="9.903538">
        <ele>648</ele>
        <time>2026-08-30T11:27:48Z</time>
      </trkpt>
      <trkpt lat="48.775838" lon="9.903525">
        <ele>647.8</ele>
        <time>2026-08-30T11:27:49Z</time>
      </trkpt>
      <trkpt lat="48.775852" lon="9.903507">
        <ele>647.8</ele>
        <time>2026-08-30T11:27:50Z</time>
      </trkpt>
      <trkpt lat="48.775869" lon="9.903489">
        <ele>647.6</ele>
        <time>2026-08-30T11:27:51Z</time>
      </trkpt>
      <trkpt lat="48.775890" lon="9.903476">
        <ele>647.6</ele>
        <time>2026-08-30T11:27:52Z</time>
      </trkpt>
      <trkpt lat="48.775907" lon="9.903469">
        <ele>647.6</ele>
        <time>2026-08-30T11:27:53Z</time>
      </trkpt>
      <trkpt lat="48.775912" lon="9.903460">
        <ele>647.6</ele>
        <time>2026-08-30T11:27:54Z</time>
      </trkpt>
      <trkpt lat="48.775912" lon="9.903460">
        <ele>647.6</ele>
        <time>2026-08-30T11:27:55Z</time>
      </trkpt>
      <trkpt lat="48.775912" lon="9.903460">
        <ele>647.6</ele>
        <time>2026-08-30T11:27:56Z</time>
      </trkpt>
      <trkpt lat="48.775912" lon="9.903460">
        <ele>647.6</ele>
        <time>2026-08-30T11:27:57Z</time>
      </trkpt>
      <trkpt lat="48.775912" lon="9.903460">
        <ele>647.6</ele>
        <time>2026-08-30T11:27:58Z</time>
      </trkpt>
      <trkpt lat="48.775912" lon="9.903460">
        <ele>647.6</ele>
        <time>2026-08-30T11:27:59Z</time>
      </trkpt>
      <trkpt lat="48.775912" lon="9.903460">
        <ele>647.6</ele>
        <time>2026-08-30T11:28:00Z</time>
      </trkpt>
      <trkpt lat="48.775912" lon="9.903460">
        <ele>647.6</ele>
        <time>2026-08-30T11:28:01Z</time>
      </trkpt>
      <trkpt lat="48.775912" lon="9.903460">
        <ele>647.6</ele>
        <time>2026-08-30T11:28:02Z</time>
      </trkpt>
      <trkpt lat="48.775912" lon="9.903460">
        <ele>647.6</ele>
        <time>2026-08-30T11:28:03Z</time>
      </trkpt>
      <trkpt lat="48.775912" lon="9.903460">
        <ele>647.6</ele>
        <time>2026-08-30T11:28:04Z</time>
      </trkpt>
      <trkpt lat="48.775912" lon="9.903460">
        <ele>647.6</ele>
        <time>2026-08-30T11:28:05Z</time>
      </trkpt>
      <trkpt lat="48.775912" lon="9.903460">
        <ele>647.6</ele>
        <time>2026-08-30T11:28:06Z</time>
      </trkpt>
      <trkpt lat="48.775912" lon="9.903460">
        <ele>647.6</ele>
        <time>2026-08-30T11:28:07Z</time>
      </trkpt>
      <trkpt lat="48.775912" lon="9.903460">
        <ele>647.6</ele>
        <time>2026-08-30T11:28:08Z</time>
      </trkpt>
      <trkpt lat="48.775912" lon="9.903460">
        <ele>647.6</ele>
        <time>2026-08-30T11:28:09Z</time>
      </trkpt>
      <trkpt lat="48.775912" lon="9.903460">
        <ele>647.6</ele>
        <time>2026-08-30T11:28:10Z</time>
      </trkpt>
      <trkpt lat="48.775912" lon="9.903460">
        <ele>647.6</ele>
        <time>2026-08-30T11:28:11Z</time>
      </trkpt>
      <trkpt lat="48.775912" lon="9.903460">
        <ele>647.6</ele>
        <time>2026-08-30T11:28:12Z</time>
      </trkpt>
      <trkpt lat="48.775912" lon="9.903460">
        <ele>647.6</ele>
        <time>2026-08-30T11:28:13Z</time>
      </trkpt>
      <trkpt lat="48.775912" lon="9.903460">
        <ele>647.8</ele>
        <time>2026-08-30T11:28:14Z</time>
      </trkpt>
      <trkpt lat="48.775912" lon="9.903460">
        <ele>647.8</ele>
        <time>2026-08-30T11:28:15Z</time>
      </trkpt>
      <trkpt lat="48.775912" lon="9.903460">
        <ele>647.8</ele>
        <time>2026-08-30T11:28:16Z</time>
      </trkpt>
      <trkpt lat="48.775912" lon="9.903460">
        <ele>647.8</ele>
        <time>2026-08-30T11:28:17Z</time>
      </trkpt>
      <trkpt lat="48.775912" lon="9.903460">
        <ele>647.8</ele>
        <time>2026-08-30T11:28:18Z</time>
      </trkpt>
      <trkpt lat="48.775912" lon="9.903460">
        <ele>647.8</ele>
        <time>2026-08-30T11:28:19Z</time>
      </trkpt>
      <trkpt lat="48.775912" lon="9.903460">
        <ele>647.8</ele>
        <time>2026-08-30T11:28:20Z</time>
      </trkpt>
      <trkpt lat="48.775912" lon="9.903460">
        <ele>647.8</ele>
        <time>2026-08-30T11:28:21Z</time>
      </trkpt>
      <trkpt lat="48.775912" lon="9.903460">
        <ele>647.8</ele>
        <time>2026-08-30T11:28:22Z</time>
      </trkpt>
      <trkpt lat="48.775912" lon="9.903460">
        <ele>647.8</ele>
        <time>2026-08-30T11:28:23Z</time>
      </trkpt>
      <trkpt lat="48.775912" lon="9.903460">
        <ele>647.8</ele>
        <time>2026-08-30T11:28:24Z</time>
      </trkpt>
      <trkpt lat="48.775912" lon="9.903460">
        <ele>647.8</ele>
        <time>2026-08-30T11:28:25Z</time>
      </trkpt>
      <trkpt lat="48.775912" lon="9.903460">
        <ele>647.8</ele>
        <time>2026-08-30T11:28:26Z</time>
      </trkpt>
      <trkpt lat="48.775912" lon="9.903460">
        <ele>647.8</ele>
        <time>2026-08-30T11:28:27Z</time>
      </trkpt>
      <trkpt lat="48.775912" lon="9.903460">
        <ele>647.8</ele>
        <time>2026-08-30T11:28:28Z</time>
      </trkpt>
      <trkpt lat="48.775912" lon="9.903460">
        <ele>647.8</ele>
        <time>2026-08-30T11:28:29Z</time>
      </trkpt>
      <trkpt lat="48.775912" lon="9.903460">
        <ele>647.8</ele>
        <time>2026-08-30T11:28:30Z</time>
      </trkpt>
      <trkpt lat="48.775912" lon="9.903460">
        <ele>647.8</ele>
        <time>2026-08-30T11:28:31Z</time>
      </trkpt>
      <trkpt lat="48.775912" lon="9.903460">
        <ele>647.8</ele>
        <time>2026-08-30T11:28:32Z</time>
      </trkpt>
      <trkpt lat="48.775912" lon="9.903460">
        <ele>647.8</ele>
        <time>2026-08-30T11:28:33Z</time>
      </trkpt>
      <trkpt lat="48.775912" lon="9.903460">
        <ele>647.8</ele>
        <time>2026-08-30T11:28:34Z</time>
      </trkpt>
      <trkpt lat="48.775912" lon="9.903460">
        <ele>647.8</ele>
        <time>2026-08-30T11:28:35Z</time>
      </trkpt>
      <trkpt lat="48.775912" lon="9.903460">
        <ele>647.8</ele>
        <time>2026-08-30T11:28:36Z</time>
      </trkpt>
      <trkpt lat="48.775912" lon="9.903460">
        <ele>647.8</ele>
        <time>2026-08-30T11:28:37Z</time>
      </trkpt>
      <trkpt lat="48.775912" lon="9.903460">
        <ele>647.8</ele>
        <time>2026-08-30T11:28:38Z</time>
      </trkpt>
      <trkpt lat="48.775912" lon="9.903460">
        <ele>647.8</ele>
        <time>2026-08-30T11:28:39Z</time>
      </trkpt>
      <trkpt lat="48.775912" lon="9.903460">
        <ele>647.8</ele>
        <time>2026-08-30T11:28:40Z</time>
      </trkpt>
      <trkpt lat="48.775912" lon="9.903460">
        <ele>648</ele>
        <time>2026-08-30T11:28:41Z</time>
      </trkpt>
      <trkpt lat="48.775912" lon="9.903460">
        <ele>648</ele>
        <time>2026-08-30T11:28:42Z</time>
      </trkpt>
      <trkpt lat="48.775912" lon="9.903460">
        <ele>648</ele>
        <time>2026-08-30T11:28:43Z</time>
      </trkpt>
      <trkpt lat="48.775912" lon="9.903460">
        <ele>648</ele>
        <time>2026-08-30T11:28:44Z</time>
      </trkpt>
      <trkpt lat="48.775912" lon="9.903460">
        <ele>648</ele>
        <time>2026-08-30T11:28:45Z</time>
      </trkpt>
      <trkpt lat="48.775912" lon="9.903460">
        <ele>648</ele>
        <time>2026-08-30T11:28:46Z</time>
      </trkpt>
      <trkpt lat="48.775912" lon="9.903460">
        <ele>648</ele>
        <time>2026-08-30T11:28:47Z</time>
      </trkpt>
      <trkpt lat="48.775912" lon="9.903460">
        <ele>648</ele>
        <time>2026-08-30T11:28:48Z</time>
      </trkpt>
      <trkpt lat="48.775912" lon="9.903460">
        <ele>648</ele>
        <time>2026-08-30T11:28:49Z</time>
      </trkpt>
      <trkpt lat="48.775912" lon="9.903460">
        <ele>648</ele>
        <time>2026-08-30T11:28:50Z</time>
      </trkpt>
      <trkpt lat="48.775912" lon="9.903460">
        <ele>648</ele>
        <time>2026-08-30T11:28:51Z</time>
      </trkpt>
      <trkpt lat="48.775912" lon="9.903460">
        <ele>648</ele>
        <time>2026-08-30T11:28:52Z</time>
      </trkpt>
      <trkpt lat="48.775916" lon="9.903459">
        <ele>648</ele>
        <time>2026-08-30T11:28:53Z</time>
      </trkpt>
      <trkpt lat="48.775931" lon="9.903452">
        <ele>648</ele>
        <time>2026-08-30T11:28:54Z</time>
      </trkpt>
      <trkpt lat="48.775942" lon="9.903447">
        <ele>648</ele>
        <time>2026-08-30T11:28:55Z</time>
      </trkpt>
      <trkpt lat="48.775957" lon="9.903447">
        <ele>648</ele>
        <time>2026-08-30T11:28:56Z</time>
      </trkpt>
      <trkpt lat="48.775967" lon="9.903449">
        <ele>648</ele>
        <time>2026-08-30T11:28:57Z</time>
      </trkpt>
      <trkpt lat="48.775975" lon="9.903447">
        <ele>648</ele>
        <time>2026-08-30T11:28:58Z</time>
      </trkpt>
      <trkpt lat="48.775993" lon="9.903434">
        <ele>648</ele>
        <time>2026-08-30T11:28:59Z</time>
      </trkpt>
      <trkpt lat="48.776016" lon="9.903418">
        <ele>648</ele>
        <time>2026-08-30T11:29:00Z</time>
      </trkpt>
      <trkpt lat="48.776044" lon="9.903397">
        <ele>647.8</ele>
        <time>2026-08-30T11:29:01Z</time>
      </trkpt>
      <trkpt lat="48.776075" lon="9.903379">
        <ele>647.8</ele>
        <time>2026-08-30T11:29:02Z</time>
      </trkpt>
      <trkpt lat="48.776108" lon="9.903361">
        <ele>647.6</ele>
        <time>2026-08-30T11:29:03Z</time>
      </trkpt>
      <trkpt lat="48.776139" lon="9.903343">
        <ele>647.4</ele>
        <time>2026-08-30T11:29:04Z</time>
      </trkpt>
      <trkpt lat="48.776158" lon="9.903330">
        <ele>647.4</ele>
        <time>2026-08-30T11:29:05Z</time>
      </trkpt>
      <trkpt lat="48.776180" lon="9.903304">
        <ele>647.2</ele>
        <time>2026-08-30T11:29:06Z</time>
      </trkpt>
      <trkpt lat="48.776201" lon="9.903283">
        <ele>647.2</ele>
        <time>2026-08-30T11:29:07Z</time>
      </trkpt>
      <trkpt lat="48.776224" lon="9.903265">
        <ele>647.2</ele>
        <time>2026-08-30T11:29:08Z</time>
      </trkpt>
      <trkpt lat="48.776249" lon="9.903249">
        <ele>647.2</ele>
        <time>2026-08-30T11:29:09Z</time>
      </trkpt>
      <trkpt lat="48.776267" lon="9.903235">
        <ele>647.4</ele>
        <time>2026-08-30T11:29:10Z</time>
      </trkpt>
      <trkpt lat="48.776287" lon="9.903219">
        <ele>647.4</ele>
        <time>2026-08-30T11:29:11Z</time>
      </trkpt>
      <trkpt lat="48.776310" lon="9.903203">
        <ele>647.6</ele>
        <time>2026-08-30T11:29:12Z</time>
      </trkpt>
      <trkpt lat="48.776329" lon="9.903193">
        <ele>647.6</ele>
        <time>2026-08-30T11:29:13Z</time>
      </trkpt>
      <trkpt lat="48.776356" lon="9.903182">
        <ele>647.8</ele>
        <time>2026-08-30T11:29:14Z</time>
      </trkpt>
      <trkpt lat="48.776378" lon="9.903174">
        <ele>648</ele>
        <time>2026-08-30T11:29:15Z</time>
      </trkpt>
      <trkpt lat="48.776399" lon="9.903164">
        <ele>648.2</ele>
        <time>2026-08-30T11:29:16Z</time>
      </trkpt>
      <trkpt lat="48.776423" lon="9.903157">
        <ele>648.2</ele>
        <time>2026-08-30T11:29:17Z</time>
      </trkpt>
      <trkpt lat="48.776442" lon="9.903147">
        <ele>648.4</ele>
        <time>2026-08-30T11:29:18Z</time>
      </trkpt>
      <trkpt lat="48.776464" lon="9.903132">
        <ele>648.6</ele>
        <time>2026-08-30T11:29:19Z</time>
      </trkpt>
      <trkpt lat="48.776478" lon="9.903120">
        <ele>648.8</ele>
        <time>2026-08-30T11:29:20Z</time>
      </trkpt>
      <trkpt lat="48.776495" lon="9.903111">
        <ele>649</ele>
        <time>2026-08-30T11:29:21Z</time>
      </trkpt>
      <trkpt lat="48.776511" lon="9.903104">
        <ele>649.2</ele>
        <time>2026-08-30T11:29:22Z</time>
      </trkpt>
      <trkpt lat="48.776529" lon="9.903097">
        <ele>649.6</ele>
        <time>2026-08-30T11:29:23Z</time>
      </trkpt>
      <trkpt lat="48.776541" lon="9.903095">
        <ele>649.8</ele>
        <time>2026-08-30T11:29:24Z</time>
      </trkpt>
      <trkpt lat="48.776553" lon="9.903092">
        <ele>650.2</ele>
        <time>2026-08-30T11:29:25Z</time>
      </trkpt>
      <trkpt lat="48.776566" lon="9.903084">
        <ele>650.4</ele>
        <time>2026-08-30T11:29:26Z</time>
      </trkpt>
      <trkpt lat="48.776580" lon="9.903076">
        <ele>650.8</ele>
        <time>2026-08-30T11:29:27Z</time>
      </trkpt>
      <trkpt lat="48.776590" lon="9.903068">
        <ele>651</ele>
        <time>2026-08-30T11:29:28Z</time>
      </trkpt>
      <trkpt lat="48.776603" lon="9.903061">
        <ele>651.2</ele>
        <time>2026-08-30T11:29:29Z</time>
      </trkpt>
      <trkpt lat="48.776616" lon="9.903049">
        <ele>651.6</ele>
        <time>2026-08-30T11:29:30Z</time>
      </trkpt>
      <trkpt lat="48.776629" lon="9.903039">
        <ele>651.8</ele>
        <time>2026-08-30T11:29:31Z</time>
      </trkpt>
      <trkpt lat="48.776644" lon="9.903033">
        <ele>652.2</ele>
        <time>2026-08-30T11:29:32Z</time>
      </trkpt>
      <trkpt lat="48.776657" lon="9.903038">
        <ele>652.4</ele>
        <time>2026-08-30T11:29:33Z</time>
      </trkpt>
      <trkpt lat="48.776670" lon="9.903039">
        <ele>652.8</ele>
        <time>2026-08-30T11:29:34Z</time>
      </trkpt>
      <trkpt lat="48.776686" lon="9.903029">
        <ele>653</ele>
        <time>2026-08-30T11:29:35Z</time>
      </trkpt>
      <trkpt lat="48.776700" lon="9.903022">
        <ele>653.4</ele>
        <time>2026-08-30T11:29:36Z</time>
      </trkpt>
      <trkpt lat="48.776713" lon="9.903018">
        <ele>653.6</ele>
        <time>2026-08-30T11:29:37Z</time>
      </trkpt>
      <trkpt lat="48.776724" lon="9.903011">
        <ele>653.8</ele>
        <time>2026-08-30T11:29:38Z</time>
      </trkpt>
      <trkpt lat="48.776739" lon="9.903004">
        <ele>654</ele>
        <time>2026-08-30T11:29:39Z</time>
      </trkpt>
      <trkpt lat="48.776752" lon="9.902999">
        <ele>654</ele>
        <time>2026-08-30T11:29:40Z</time>
      </trkpt>
      <trkpt lat="48.776769" lon="9.902991">
        <ele>654.2</ele>
        <time>2026-08-30T11:29:41Z</time>
      </trkpt>
      <trkpt lat="48.776787" lon="9.902985">
        <ele>654.4</ele>
        <time>2026-08-30T11:29:42Z</time>
      </trkpt>
      <trkpt lat="48.776800" lon="9.902985">
        <ele>654.6</ele>
        <time>2026-08-30T11:29:43Z</time>
      </trkpt>
      <trkpt lat="48.776815" lon="9.902989">
        <ele>654.8</ele>
        <time>2026-08-30T11:29:44Z</time>
      </trkpt>
      <trkpt lat="48.776834" lon="9.902989">
        <ele>654.8</ele>
        <time>2026-08-30T11:29:45Z</time>
      </trkpt>
      <trkpt lat="48.776852" lon="9.902975">
        <ele>654.8</ele>
        <time>2026-08-30T11:29:46Z</time>
      </trkpt>
      <trkpt lat="48.776875" lon="9.902963">
        <ele>654.8</ele>
        <time>2026-08-30T11:29:47Z</time>
      </trkpt>
      <trkpt lat="48.776894" lon="9.902946">
        <ele>654.6</ele>
        <time>2026-08-30T11:29:48Z</time>
      </trkpt>
      <trkpt lat="48.776915" lon="9.902925">
        <ele>654.2</ele>
        <time>2026-08-30T11:29:49Z</time>
      </trkpt>
      <trkpt lat="48.776934" lon="9.902902">
        <ele>654</ele>
        <time>2026-08-30T11:29:50Z</time>
      </trkpt>
      <trkpt lat="48.776953" lon="9.902886">
        <ele>653.6</ele>
        <time>2026-08-30T11:29:51Z</time>
      </trkpt>
      <trkpt lat="48.776975" lon="9.902865">
        <ele>653</ele>
        <time>2026-08-30T11:29:52Z</time>
      </trkpt>
      <trkpt lat="48.776994" lon="9.902840">
        <ele>652.6</ele>
        <time>2026-08-30T11:29:53Z</time>
      </trkpt>
      <trkpt lat="48.777014" lon="9.902819">
        <ele>652</ele>
        <time>2026-08-30T11:29:54Z</time>
      </trkpt>
      <trkpt lat="48.777037" lon="9.902797">
        <ele>651.4</ele>
        <time>2026-08-30T11:29:55Z</time>
      </trkpt>
      <trkpt lat="48.777057" lon="9.902780">
        <ele>650.6</ele>
        <time>2026-08-30T11:29:56Z</time>
      </trkpt>
      <trkpt lat="48.777075" lon="9.902766">
        <ele>650</ele>
        <time>2026-08-30T11:29:57Z</time>
      </trkpt>
      <trkpt lat="48.777098" lon="9.902745">
        <ele>649.4</ele>
        <time>2026-08-30T11:29:58Z</time>
      </trkpt>
      <trkpt lat="48.777115" lon="9.902723">
        <ele>648.6</ele>
        <time>2026-08-30T11:29:59Z</time>
      </trkpt>
      <trkpt lat="48.777135" lon="9.902699">
        <ele>648</ele>
        <time>2026-08-30T11:30:00Z</time>
      </trkpt>
      <trkpt lat="48.777157" lon="9.902675">
        <ele>647.4</ele>
        <time>2026-08-30T11:30:01Z</time>
      </trkpt>
      <trkpt lat="48.777174" lon="9.902658">
        <ele>646.4</ele>
        <time>2026-08-30T11:30:02Z</time>
      </trkpt>
      <trkpt lat="48.777191" lon="9.902646">
        <ele>645.8</ele>
        <time>2026-08-30T11:30:03Z</time>
      </trkpt>
      <trkpt lat="48.777203" lon="9.902632">
        <ele>645</ele>
        <time>2026-08-30T11:30:04Z</time>
      </trkpt>
      <trkpt lat="48.777211" lon="9.902628">
        <ele>644.4</ele>
        <time>2026-08-30T11:30:05Z</time>
      </trkpt>
      <trkpt lat="48.777211" lon="9.902628">
        <ele>643.8</ele>
        <time>2026-08-30T11:30:06Z</time>
      </trkpt>
      <trkpt lat="48.777211" lon="9.902628">
        <ele>643.2</ele>
        <time>2026-08-30T11:30:07Z</time>
      </trkpt>
      <trkpt lat="48.777211" lon="9.902628">
        <ele>642.6</ele>
        <time>2026-08-30T11:30:08Z</time>
      </trkpt>
      <trkpt lat="48.777211" lon="9.902628">
        <ele>642.4</ele>
        <time>2026-08-30T11:30:09Z</time>
      </trkpt>
      <trkpt lat="48.777211" lon="9.902628">
        <ele>642</ele>
        <time>2026-08-30T11:30:10Z</time>
      </trkpt>
      <trkpt lat="48.777211" lon="9.902628">
        <ele>641.8</ele>
        <time>2026-08-30T11:30:11Z</time>
      </trkpt>
      <trkpt lat="48.777211" lon="9.902628">
        <ele>641.6</ele>
        <time>2026-08-30T11:30:12Z</time>
      </trkpt>
      <trkpt lat="48.777211" lon="9.902628">
        <ele>641.4</ele>
        <time>2026-08-30T11:30:13Z</time>
      </trkpt>
      <trkpt lat="48.777211" lon="9.902628">
        <ele>641.4</ele>
        <time>2026-08-30T11:30:14Z</time>
      </trkpt>
      <trkpt lat="48.777211" lon="9.902628">
        <ele>641.4</ele>
        <time>2026-08-30T11:30:15Z</time>
      </trkpt>
      <trkpt lat="48.777211" lon="9.902628">
        <ele>641.2</ele>
        <time>2026-08-30T11:30:16Z</time>
      </trkpt>
      <trkpt lat="48.777211" lon="9.902628">
        <ele>641</ele>
        <time>2026-08-30T11:30:17Z</time>
      </trkpt>
      <trkpt lat="48.777211" lon="9.902628">
        <ele>641</ele>
        <time>2026-08-30T11:30:18Z</time>
      </trkpt>
      <trkpt lat="48.777211" lon="9.902628">
        <ele>640.8</ele>
        <time>2026-08-30T11:30:19Z</time>
      </trkpt>
      <trkpt lat="48.777211" lon="9.902628">
        <ele>640.8</ele>
        <time>2026-08-30T11:30:20Z</time>
      </trkpt>
      <trkpt lat="48.777223" lon="9.902620">
        <ele>640.6</ele>
        <time>2026-08-30T11:30:21Z</time>
      </trkpt>
      <trkpt lat="48.777264" lon="9.902584">
        <ele>640.4</ele>
        <time>2026-08-30T11:30:22Z</time>
      </trkpt>
      <trkpt lat="48.777290" lon="9.902563">
        <ele>640.2</ele>
        <time>2026-08-30T11:30:23Z</time>
      </trkpt>
      <trkpt lat="48.777310" lon="9.902550">
        <ele>640</ele>
        <time>2026-08-30T11:30:24Z</time>
      </trkpt>
      <trkpt lat="48.777330" lon="9.902535">
        <ele>639.8</ele>
        <time>2026-08-30T11:30:25Z</time>
      </trkpt>
      <trkpt lat="48.777351" lon="9.902520">
        <ele>639.4</ele>
        <time>2026-08-30T11:30:26Z</time>
      </trkpt>
      <trkpt lat="48.777369" lon="9.902507">
        <ele>639</ele>
        <time>2026-08-30T11:30:27Z</time>
      </trkpt>
      <trkpt lat="48.777387" lon="9.902490">
        <ele>638.6</ele>
        <time>2026-08-30T11:30:28Z</time>
      </trkpt>
      <trkpt lat="48.777398" lon="9.902482">
        <ele>638.2</ele>
        <time>2026-08-30T11:30:29Z</time>
      </trkpt>
      <trkpt lat="48.777418" lon="9.902475">
        <ele>638</ele>
        <time>2026-08-30T11:30:30Z</time>
      </trkpt>
      <trkpt lat="48.777439" lon="9.902460">
        <ele>637.6</ele>
        <time>2026-08-30T11:30:31Z</time>
      </trkpt>
      <trkpt lat="48.777456" lon="9.902427">
        <ele>637.2</ele>
        <time>2026-08-30T11:30:32Z</time>
      </trkpt>
      <trkpt lat="48.777476" lon="9.902389">
        <ele>637</ele>
        <time>2026-08-30T11:30:33Z</time>
      </trkpt>
      <trkpt lat="48.777499" lon="9.902357">
        <ele>636.8</ele>
        <time>2026-08-30T11:30:34Z</time>
      </trkpt>
      <trkpt lat="48.777524" lon="9.902328">
        <ele>636.4</ele>
        <time>2026-08-30T11:30:35Z</time>
      </trkpt>
      <trkpt lat="48.777546" lon="9.902309">
        <ele>636.2</ele>
        <time>2026-08-30T11:30:36Z</time>
      </trkpt>
      <trkpt lat="48.777558" lon="9.902293">
        <ele>636</ele>
        <time>2026-08-30T11:30:37Z</time>
      </trkpt>
      <trkpt lat="48.777567" lon="9.902273">
        <ele>636</ele>
        <time>2026-08-30T11:30:38Z</time>
      </trkpt>
      <trkpt lat="48.777567" lon="9.902263">
        <ele>635.8</ele>
        <time>2026-08-30T11:30:39Z</time>
      </trkpt>
      <trkpt lat="48.777567" lon="9.902263">
        <ele>635.8</ele>
        <time>2026-08-30T11:30:40Z</time>
      </trkpt>
      <trkpt lat="48.777567" lon="9.902263">
        <ele>635.8</ele>
        <time>2026-08-30T11:30:41Z</time>
      </trkpt>
      <trkpt lat="48.777567" lon="9.902263">
        <ele>635.8</ele>
        <time>2026-08-30T11:30:42Z</time>
      </trkpt>
      <trkpt lat="48.777567" lon="9.902263">
        <ele>635.8</ele>
        <time>2026-08-30T11:30:43Z</time>
      </trkpt>
      <trkpt lat="48.777567" lon="9.902263">
        <ele>635.8</ele>
        <time>2026-08-30T11:30:44Z</time>
      </trkpt>
      <trkpt lat="48.777567" lon="9.902263">
        <ele>635.8</ele>
        <time>2026-08-30T11:30:45Z</time>
      </trkpt>
      <trkpt lat="48.777567" lon="9.902263">
        <ele>635.8</ele>
        <time>2026-08-30T11:30:46Z</time>
      </trkpt>
      <trkpt lat="48.777567" lon="9.902263">
        <ele>635.8</ele>
        <time>2026-08-30T11:30:47Z</time>
      </trkpt>
      <trkpt lat="48.777567" lon="9.902263">
        <ele>635.8</ele>
        <time>2026-08-30T11:30:48Z</time>
      </trkpt>
      <trkpt lat="48.777567" lon="9.902263">
        <ele>635.8</ele>
        <time>2026-08-30T11:30:49Z</time>
      </trkpt>
      <trkpt lat="48.777569" lon="9.902261">
        <ele>635.8</ele>
        <time>2026-08-30T11:30:50Z</time>
      </trkpt>
      <trkpt lat="48.777579" lon="9.902244">
        <ele>635.8</ele>
        <time>2026-08-30T11:30:51Z</time>
      </trkpt>
      <trkpt lat="48.777581" lon="9.902232">
        <ele>635.8</ele>
        <time>2026-08-30T11:30:52Z</time>
      </trkpt>
      <trkpt lat="48.777590" lon="9.902217">
        <ele>635.8</ele>
        <time>2026-08-30T11:30:53Z</time>
      </trkpt>
      <trkpt lat="48.777594" lon="9.902204">
        <ele>635.8</ele>
        <time>2026-08-30T11:30:54Z</time>
      </trkpt>
      <trkpt lat="48.777597" lon="9.902184">
        <ele>635.6</ele>
        <time>2026-08-30T11:30:55Z</time>
      </trkpt>
      <trkpt lat="48.777596" lon="9.902172">
        <ele>635.6</ele>
        <time>2026-08-30T11:30:56Z</time>
      </trkpt>
      <trkpt lat="48.777594" lon="9.902174">
        <ele>635.6</ele>
        <time>2026-08-30T11:30:57Z</time>
      </trkpt>
      <trkpt lat="48.777590" lon="9.902186">
        <ele>635.6</ele>
        <time>2026-08-30T11:30:58Z</time>
      </trkpt>
      <trkpt lat="48.777590" lon="9.902186">
        <ele>635.4</ele>
        <time>2026-08-30T11:30:59Z</time>
      </trkpt>
      <trkpt lat="48.777590" lon="9.902186">
        <ele>635.4</ele>
        <time>2026-08-30T11:31:00Z</time>
      </trkpt>
      <trkpt lat="48.777590" lon="9.902186">
        <ele>635.4</ele>
        <time>2026-08-30T11:31:01Z</time>
      </trkpt>
      <trkpt lat="48.777590" lon="9.902186">
        <ele>635.2</ele>
        <time>2026-08-30T11:31:02Z</time>
      </trkpt>
      <trkpt lat="48.777590" lon="9.902186">
        <ele>635.2</ele>
        <time>2026-08-30T11:31:03Z</time>
      </trkpt>
      <trkpt lat="48.777590" lon="9.902186">
        <ele>635.2</ele>
        <time>2026-08-30T11:31:04Z</time>
      </trkpt>
      <trkpt lat="48.777590" lon="9.902186">
        <ele>635.2</ele>
        <time>2026-08-30T11:31:05Z</time>
      </trkpt>
      <trkpt lat="48.777590" lon="9.902186">
        <ele>635</ele>
        <time>2026-08-30T11:31:06Z</time>
      </trkpt>
      <trkpt lat="48.777590" lon="9.902186">
        <ele>635</ele>
        <time>2026-08-30T11:31:07Z</time>
      </trkpt>
      <trkpt lat="48.777589" lon="9.902191">
        <ele>634.8</ele>
        <time>2026-08-30T11:31:08Z</time>
      </trkpt>
      <trkpt lat="48.777576" lon="9.902201">
        <ele>634.8</ele>
        <time>2026-08-30T11:31:09Z</time>
      </trkpt>
      <trkpt lat="48.777565" lon="9.902208">
        <ele>634.6</ele>
        <time>2026-08-30T11:31:10Z</time>
      </trkpt>
      <trkpt lat="48.777559" lon="9.902213">
        <ele>634.4</ele>
        <time>2026-08-30T11:31:11Z</time>
      </trkpt>
      <trkpt lat="48.777554" lon="9.902218">
        <ele>634.2</ele>
        <time>2026-08-30T11:31:12Z</time>
      </trkpt>
      <trkpt lat="48.777555" lon="9.902220">
        <ele>634</ele>
        <time>2026-08-30T11:31:13Z</time>
      </trkpt>
      <trkpt lat="48.777550" lon="9.902221">
        <ele>634</ele>
        <time>2026-08-30T11:31:14Z</time>
      </trkpt>
      <trkpt lat="48.777541" lon="9.902225">
        <ele>633.8</ele>
        <time>2026-08-30T11:31:15Z</time>
      </trkpt>
      <trkpt lat="48.777530" lon="9.902227">
        <ele>633.6</ele>
        <time>2026-08-30T11:31:16Z</time>
      </trkpt>
      <trkpt lat="48.777519" lon="9.902227">
        <ele>633.4</ele>
        <time>2026-08-30T11:31:17Z</time>
      </trkpt>
      <trkpt lat="48.777508" lon="9.902233">
        <ele>633</ele>
        <time>2026-08-30T11:31:18Z</time>
      </trkpt>
      <trkpt lat="48.777500" lon="9.902245">
        <ele>632.8</ele>
        <time>2026-08-30T11:31:19Z</time>
      </trkpt>
      <trkpt lat="48.777497" lon="9.902247">
        <ele>632.6</ele>
        <time>2026-08-30T11:31:20Z</time>
      </trkpt>
      <trkpt lat="48.777491" lon="9.902249">
        <ele>632.4</ele>
        <time>2026-08-30T11:31:21Z</time>
      </trkpt>
      <trkpt lat="48.777486" lon="9.902248">
        <ele>632.2</ele>
        <time>2026-08-30T11:31:22Z</time>
      </trkpt>
      <trkpt lat="48.777480" lon="9.902254">
        <ele>631.8</ele>
        <time>2026-08-30T11:31:23Z</time>
      </trkpt>
      <trkpt lat="48.777471" lon="9.902259">
        <ele>631.6</ele>
        <time>2026-08-30T11:31:24Z</time>
      </trkpt>
      <trkpt lat="48.777460" lon="9.902263">
        <ele>631.4</ele>
        <time>2026-08-30T11:31:25Z</time>
      </trkpt>
      <trkpt lat="48.777449" lon="9.902271">
        <ele>631.2</ele>
        <time>2026-08-30T11:31:26Z</time>
      </trkpt>
      <trkpt lat="48.777437" lon="9.902277">
        <ele>631</ele>
        <time>2026-08-30T11:31:27Z</time>
      </trkpt>
      <trkpt lat="48.777430" lon="9.902283">
        <ele>630.6</ele>
        <time>2026-08-30T11:31:28Z</time>
      </trkpt>
      <trkpt lat="48.777423" lon="9.902288">
        <ele>630.4</ele>
        <time>2026-08-30T11:31:29Z</time>
      </trkpt>
      <trkpt lat="48.777415" lon="9.902291">
        <ele>630.2</ele>
        <time>2026-08-30T11:31:30Z</time>
      </trkpt>
      <trkpt lat="48.777406" lon="9.902292">
        <ele>629.8</ele>
        <time>2026-08-30T11:31:31Z</time>
      </trkpt>
      <trkpt lat="48.777399" lon="9.902290">
        <ele>629.6</ele>
        <time>2026-08-30T11:31:32Z</time>
      </trkpt>
      <trkpt lat="48.777391" lon="9.902288">
        <ele>629.4</ele>
        <time>2026-08-30T11:31:33Z</time>
      </trkpt>
      <trkpt lat="48.777387" lon="9.902281">
        <ele>629.2</ele>
        <time>2026-08-30T11:31:34Z</time>
      </trkpt>
      <trkpt lat="48.777382" lon="9.902275">
        <ele>628.8</ele>
        <time>2026-08-30T11:31:35Z</time>
      </trkpt>
      <trkpt lat="48.777386" lon="9.902263">
        <ele>628.6</ele>
        <time>2026-08-30T11:31:36Z</time>
      </trkpt>
      <trkpt lat="48.777386" lon="9.902254">
        <ele>628.4</ele>
        <time>2026-08-30T11:31:37Z</time>
      </trkpt>
      <trkpt lat="48.777387" lon="9.902254">
        <ele>628</ele>
        <time>2026-08-30T11:31:38Z</time>
      </trkpt>
      <trkpt lat="48.777387" lon="9.902254">
        <ele>627.8</ele>
        <time>2026-08-30T11:31:39Z</time>
      </trkpt>
      <trkpt lat="48.777390" lon="9.902232">
        <ele>627.8</ele>
        <time>2026-08-30T11:31:40Z</time>
      </trkpt>
      <trkpt lat="48.777392" lon="9.902215">
        <ele>627.6</ele>
        <time>2026-08-30T11:31:41Z</time>
      </trkpt>
      <trkpt lat="48.777397" lon="9.902202">
        <ele>627.4</ele>
        <time>2026-08-30T11:31:42Z</time>
      </trkpt>
      <trkpt lat="48.777400" lon="9.902195">
        <ele>627.2</ele>
        <time>2026-08-30T11:31:43Z</time>
      </trkpt>
      <trkpt lat="48.777404" lon="9.902181">
        <ele>627</ele>
        <time>2026-08-30T11:31:44Z</time>
      </trkpt>
      <trkpt lat="48.777410" lon="9.902165">
        <ele>626.8</ele>
        <time>2026-08-30T11:31:45Z</time>
      </trkpt>
      <trkpt lat="48.777414" lon="9.902153">
        <ele>626.6</ele>
        <time>2026-08-30T11:31:46Z</time>
      </trkpt>
      <trkpt lat="48.777420" lon="9.902139">
        <ele>626.4</ele>
        <time>2026-08-30T11:31:47Z</time>
      </trkpt>
      <trkpt lat="48.777423" lon="9.902122">
        <ele>626.2</ele>
        <time>2026-08-30T11:31:48Z</time>
      </trkpt>
      <trkpt lat="48.777423" lon="9.902115">
        <ele>626</ele>
        <time>2026-08-30T11:31:49Z</time>
      </trkpt>
      <trkpt lat="48.777423" lon="9.902106">
        <ele>626</ele>
        <time>2026-08-30T11:31:50Z</time>
      </trkpt>
      <trkpt lat="48.777424" lon="9.902110">
        <ele>625.8</ele>
        <time>2026-08-30T11:31:51Z</time>
      </trkpt>
      <trkpt lat="48.777426" lon="9.902111">
        <ele>625.6</ele>
        <time>2026-08-30T11:31:52Z</time>
      </trkpt>
      <trkpt lat="48.777422" lon="9.902113">
        <ele>625.4</ele>
        <time>2026-08-30T11:31:53Z</time>
      </trkpt>
      <trkpt lat="48.777422" lon="9.902113">
        <ele>625.2</ele>
        <time>2026-08-30T11:31:54Z</time>
      </trkpt>
      <trkpt lat="48.777419" lon="9.902094">
        <ele>625</ele>
        <time>2026-08-30T11:31:55Z</time>
      </trkpt>
      <trkpt lat="48.777422" lon="9.902071">
        <ele>624.8</ele>
        <time>2026-08-30T11:31:56Z</time>
      </trkpt>
      <trkpt lat="48.777427" lon="9.902034">
        <ele>624.6</ele>
        <time>2026-08-30T11:31:57Z</time>
      </trkpt>
      <trkpt lat="48.777440" lon="9.901989">
        <ele>624.4</ele>
        <time>2026-08-30T11:31:58Z</time>
      </trkpt>
      <trkpt lat="48.777455" lon="9.901951">
        <ele>624</ele>
        <time>2026-08-30T11:31:59Z</time>
      </trkpt>
      <trkpt lat="48.777473" lon="9.901936">
        <ele>623.8</ele>
        <time>2026-08-30T11:32:00Z</time>
      </trkpt>
      <trkpt lat="48.777493" lon="9.901928">
        <ele>623.6</ele>
        <time>2026-08-30T11:32:01Z</time>
      </trkpt>
      <trkpt lat="48.777508" lon="9.901920">
        <ele>623.6</ele>
        <time>2026-08-30T11:32:02Z</time>
      </trkpt>
      <trkpt lat="48.777516" lon="9.901910">
        <ele>623.6</ele>
        <time>2026-08-30T11:32:03Z</time>
      </trkpt>
      <trkpt lat="48.777529" lon="9.901896">
        <ele>623.6</ele>
        <time>2026-08-30T11:32:04Z</time>
      </trkpt>
      <trkpt lat="48.777540" lon="9.901884">
        <ele>623.8</ele>
        <time>2026-08-30T11:32:05Z</time>
      </trkpt>
      <trkpt lat="48.777545" lon="9.901883">
        <ele>623.8</ele>
        <time>2026-08-30T11:32:06Z</time>
      </trkpt>
      <trkpt lat="48.777555" lon="9.901877">
        <ele>623.8</ele>
        <time>2026-08-30T11:32:07Z</time>
      </trkpt>
      <trkpt lat="48.777563" lon="9.901876">
        <ele>624</ele>
        <time>2026-08-30T11:32:08Z</time>
      </trkpt>
      <trkpt lat="48.777573" lon="9.901875">
        <ele>624.2</ele>
        <time>2026-08-30T11:32:09Z</time>
      </trkpt>
      <trkpt lat="48.777583" lon="9.901877">
        <ele>624.2</ele>
        <time>2026-08-30T11:32:10Z</time>
      </trkpt>
      <trkpt lat="48.777594" lon="9.901884">
        <ele>624.4</ele>
        <time>2026-08-30T11:32:11Z</time>
      </trkpt>
      <trkpt lat="48.777606" lon="9.901886">
        <ele>624.4</ele>
        <time>2026-08-30T11:32:12Z</time>
      </trkpt>
      <trkpt lat="48.777620" lon="9.901883">
        <ele>624.6</ele>
        <time>2026-08-30T11:32:13Z</time>
      </trkpt>
      <trkpt lat="48.777637" lon="9.901880">
        <ele>624.6</ele>
        <time>2026-08-30T11:32:14Z</time>
      </trkpt>
      <trkpt lat="48.777651" lon="9.901882">
        <ele>624.8</ele>
        <time>2026-08-30T11:32:15Z</time>
      </trkpt>
      <trkpt lat="48.777663" lon="9.901884">
        <ele>624.8</ele>
        <time>2026-08-30T11:32:16Z</time>
      </trkpt>
      <trkpt lat="48.777679" lon="9.901888">
        <ele>625</ele>
        <time>2026-08-30T11:32:17Z</time>
      </trkpt>
      <trkpt lat="48.777694" lon="9.901890">
        <ele>625</ele>
        <time>2026-08-30T11:32:18Z</time>
      </trkpt>
      <trkpt lat="48.777714" lon="9.901892">
        <ele>625.2</ele>
        <time>2026-08-30T11:32:19Z</time>
      </trkpt>
      <trkpt lat="48.777730" lon="9.901897">
        <ele>625.4</ele>
        <time>2026-08-30T11:32:20Z</time>
      </trkpt>
      <trkpt lat="48.777747" lon="9.901900">
        <ele>625.6</ele>
        <time>2026-08-30T11:32:21Z</time>
      </trkpt>
      <trkpt lat="48.777759" lon="9.901902">
        <ele>625.8</ele>
        <time>2026-08-30T11:32:22Z</time>
      </trkpt>
      <trkpt lat="48.777774" lon="9.901907">
        <ele>625.8</ele>
        <time>2026-08-30T11:32:23Z</time>
      </trkpt>
      <trkpt lat="48.777788" lon="9.901916">
        <ele>626.2</ele>
        <time>2026-08-30T11:32:24Z</time>
      </trkpt>
      <trkpt lat="48.777797" lon="9.901924">
        <ele>626.2</ele>
        <time>2026-08-30T11:32:25Z</time>
      </trkpt>
      <trkpt lat="48.777808" lon="9.901923">
        <ele>626.4</ele>
        <time>2026-08-30T11:32:26Z</time>
      </trkpt>
      <trkpt lat="48.777821" lon="9.901926">
        <ele>626.6</ele>
        <time>2026-08-30T11:32:27Z</time>
      </trkpt>
      <trkpt lat="48.777833" lon="9.901930">
        <ele>626.8</ele>
        <time>2026-08-30T11:32:28Z</time>
      </trkpt>
      <trkpt lat="48.777847" lon="9.901938">
        <ele>627</ele>
        <time>2026-08-30T11:32:29Z</time>
      </trkpt>
      <trkpt lat="48.777865" lon="9.901949">
        <ele>627.2</ele>
        <time>2026-08-30T11:32:30Z</time>
      </trkpt>
      <trkpt lat="48.777880" lon="9.901962">
        <ele>627.4</ele>
        <time>2026-08-30T11:32:31Z</time>
      </trkpt>
      <trkpt lat="48.777898" lon="9.901978">
        <ele>627.4</ele>
        <time>2026-08-30T11:32:32Z</time>
      </trkpt>
      <trkpt lat="48.777914" lon="9.901986">
        <ele>627.6</ele>
        <time>2026-08-30T11:32:33Z</time>
      </trkpt>
      <trkpt lat="48.777932" lon="9.901999">
        <ele>627.8</ele>
        <time>2026-08-30T11:32:34Z</time>
      </trkpt>
      <trkpt lat="48.777947" lon="9.902006">
        <ele>628</ele>
        <time>2026-08-30T11:32:35Z</time>
      </trkpt>
      <trkpt lat="48.777962" lon="9.902013">
        <ele>628</ele>
        <time>2026-08-30T11:32:36Z</time>
      </trkpt>
      <trkpt lat="48.777979" lon="9.902020">
        <ele>628.2</ele>
        <time>2026-08-30T11:32:37Z</time>
      </trkpt>
      <trkpt lat="48.777996" lon="9.902027">
        <ele>628.4</ele>
        <time>2026-08-30T11:32:38Z</time>
      </trkpt>
      <trkpt lat="48.778012" lon="9.902040">
        <ele>628.6</ele>
        <time>2026-08-30T11:32:39Z</time>
      </trkpt>
      <trkpt lat="48.778027" lon="9.902049">
        <ele>628.8</ele>
        <time>2026-08-30T11:32:40Z</time>
      </trkpt>
      <trkpt lat="48.778038" lon="9.902061">
        <ele>629</ele>
        <time>2026-08-30T11:32:41Z</time>
      </trkpt>
      <trkpt lat="48.778055" lon="9.902069">
        <ele>629</ele>
        <time>2026-08-30T11:32:42Z</time>
      </trkpt>
      <trkpt lat="48.778069" lon="9.902081">
        <ele>629.2</ele>
        <time>2026-08-30T11:32:43Z</time>
      </trkpt>
      <trkpt lat="48.778091" lon="9.902101">
        <ele>629.4</ele>
        <time>2026-08-30T11:32:44Z</time>
      </trkpt>
      <trkpt lat="48.778108" lon="9.902118">
        <ele>629.4</ele>
        <time>2026-08-30T11:32:45Z</time>
      </trkpt>
      <trkpt lat="48.778124" lon="9.902139">
        <ele>629.6</ele>
        <time>2026-08-30T11:32:46Z</time>
      </trkpt>
      <trkpt lat="48.778142" lon="9.902152">
        <ele>629.8</ele>
        <time>2026-08-30T11:32:47Z</time>
      </trkpt>
      <trkpt lat="48.778156" lon="9.902166">
        <ele>630</ele>
        <time>2026-08-30T11:32:48Z</time>
      </trkpt>
      <trkpt lat="48.778178" lon="9.902183">
        <ele>630.2</ele>
        <time>2026-08-30T11:32:49Z</time>
      </trkpt>
      <trkpt lat="48.778190" lon="9.902201">
        <ele>630.4</ele>
        <time>2026-08-30T11:32:50Z</time>
      </trkpt>
      <trkpt lat="48.778203" lon="9.902209">
        <ele>630.6</ele>
        <time>2026-08-30T11:32:51Z</time>
      </trkpt>
      <trkpt lat="48.778215" lon="9.902224">
        <ele>630.8</ele>
        <time>2026-08-30T11:32:52Z</time>
      </trkpt>
      <trkpt lat="48.778227" lon="9.902237">
        <ele>631</ele>
        <time>2026-08-30T11:32:53Z</time>
      </trkpt>
      <trkpt lat="48.778238" lon="9.902252">
        <ele>631.2</ele>
        <time>2026-08-30T11:32:54Z</time>
      </trkpt>
      <trkpt lat="48.778251" lon="9.902266">
        <ele>631.4</ele>
        <time>2026-08-30T11:32:55Z</time>
      </trkpt>
      <trkpt lat="48.778263" lon="9.902280">
        <ele>631.6</ele>
        <time>2026-08-30T11:32:56Z</time>
      </trkpt>
      <trkpt lat="48.778278" lon="9.902301">
        <ele>631.8</ele>
        <time>2026-08-30T11:32:57Z</time>
      </trkpt>
      <trkpt lat="48.778296" lon="9.902315">
        <ele>632</ele>
        <time>2026-08-30T11:32:58Z</time>
      </trkpt>
      <trkpt lat="48.778309" lon="9.902323">
        <ele>632.2</ele>
        <time>2026-08-30T11:32:59Z</time>
      </trkpt>
      <trkpt lat="48.778320" lon="9.902330">
        <ele>632.6</ele>
        <time>2026-08-30T11:33:00Z</time>
      </trkpt>
      <trkpt lat="48.778332" lon="9.902343">
        <ele>632.8</ele>
        <time>2026-08-30T11:33:01Z</time>
      </trkpt>
      <trkpt lat="48.778344" lon="9.902352">
        <ele>633</ele>
        <time>2026-08-30T11:33:02Z</time>
      </trkpt>
      <trkpt lat="48.778358" lon="9.902363">
        <ele>633.2</ele>
        <time>2026-08-30T11:33:03Z</time>
      </trkpt>
      <trkpt lat="48.778374" lon="9.902384">
        <ele>633.4</ele>
        <time>2026-08-30T11:33:04Z</time>
      </trkpt>
      <trkpt lat="48.778389" lon="9.902399">
        <ele>633.6</ele>
        <time>2026-08-30T11:33:05Z</time>
      </trkpt>
      <trkpt lat="48.778407" lon="9.902413">
        <ele>633.8</ele>
        <time>2026-08-30T11:33:06Z</time>
      </trkpt>
      <trkpt lat="48.778423" lon="9.902431">
        <ele>634</ele>
        <time>2026-08-30T11:33:07Z</time>
      </trkpt>
      <trkpt lat="48.778433" lon="9.902443">
        <ele>634</ele>
        <time>2026-08-30T11:33:08Z</time>
      </trkpt>
      <trkpt lat="48.778447" lon="9.902463">
        <ele>634.4</ele>
        <time>2026-08-30T11:33:09Z</time>
      </trkpt>
      <trkpt lat="48.778457" lon="9.902476">
        <ele>634.4</ele>
        <time>2026-08-30T11:33:10Z</time>
      </trkpt>
      <trkpt lat="48.778469" lon="9.902490">
        <ele>634.6</ele>
        <time>2026-08-30T11:33:11Z</time>
      </trkpt>
      <trkpt lat="48.778485" lon="9.902501">
        <ele>634.8</ele>
        <time>2026-08-30T11:33:12Z</time>
      </trkpt>
      <trkpt lat="48.778503" lon="9.902516">
        <ele>635</ele>
        <time>2026-08-30T11:33:13Z</time>
      </trkpt>
      <trkpt lat="48.778517" lon="9.902535">
        <ele>635.4</ele>
        <time>2026-08-30T11:33:14Z</time>
      </trkpt>
      <trkpt lat="48.778535" lon="9.902546">
        <ele>635.6</ele>
        <time>2026-08-30T11:33:15Z</time>
      </trkpt>
      <trkpt lat="48.778554" lon="9.902557">
        <ele>635.8</ele>
        <time>2026-08-30T11:33:16Z</time>
      </trkpt>
      <trkpt lat="48.778570" lon="9.902577">
        <ele>636</ele>
        <time>2026-08-30T11:33:17Z</time>
      </trkpt>
      <trkpt lat="48.778589" lon="9.902602">
        <ele>636.2</ele>
        <time>2026-08-30T11:33:18Z</time>
      </trkpt>
      <trkpt lat="48.778600" lon="9.902620">
        <ele>636.4</ele>
        <time>2026-08-30T11:33:19Z</time>
      </trkpt>
      <trkpt lat="48.778609" lon="9.902636">
        <ele>636.6</ele>
        <time>2026-08-30T11:33:20Z</time>
      </trkpt>
      <trkpt lat="48.778618" lon="9.902655">
        <ele>636.8</ele>
        <time>2026-08-30T11:33:21Z</time>
      </trkpt>
      <trkpt lat="48.778629" lon="9.902670">
        <ele>637</ele>
        <time>2026-08-30T11:33:22Z</time>
      </trkpt>
      <trkpt lat="48.778642" lon="9.902684">
        <ele>637.4</ele>
        <time>2026-08-30T11:33:23Z</time>
      </trkpt>
      <trkpt lat="48.778653" lon="9.902693">
        <ele>637.6</ele>
        <time>2026-08-30T11:33:24Z</time>
      </trkpt>
      <trkpt lat="48.778666" lon="9.902713">
        <ele>637.8</ele>
        <time>2026-08-30T11:33:25Z</time>
      </trkpt>
      <trkpt lat="48.778679" lon="9.902731">
        <ele>638</ele>
        <time>2026-08-30T11:33:26Z</time>
      </trkpt>
      <trkpt lat="48.778691" lon="9.902744">
        <ele>638</ele>
        <time>2026-08-30T11:33:27Z</time>
      </trkpt>
      <trkpt lat="48.778706" lon="9.902763">
        <ele>638.2</ele>
        <time>2026-08-30T11:33:28Z</time>
      </trkpt>
      <trkpt lat="48.778718" lon="9.902780">
        <ele>638.4</ele>
        <time>2026-08-30T11:33:29Z</time>
      </trkpt>
      <trkpt lat="48.778729" lon="9.902797">
        <ele>638.6</ele>
        <time>2026-08-30T11:33:30Z</time>
      </trkpt>
      <trkpt lat="48.778742" lon="9.902816">
        <ele>638.8</ele>
        <time>2026-08-30T11:33:31Z</time>
      </trkpt>
      <trkpt lat="48.778755" lon="9.902829">
        <ele>639</ele>
        <time>2026-08-30T11:33:32Z</time>
      </trkpt>
      <trkpt lat="48.778770" lon="9.902845">
        <ele>639.2</ele>
        <time>2026-08-30T11:33:33Z</time>
      </trkpt>
      <trkpt lat="48.778783" lon="9.902860">
        <ele>639.4</ele>
        <time>2026-08-30T11:33:34Z</time>
      </trkpt>
      <trkpt lat="48.778798" lon="9.902876">
        <ele>639.6</ele>
        <time>2026-08-30T11:33:35Z</time>
      </trkpt>
      <trkpt lat="48.778812" lon="9.902893">
        <ele>639.8</ele>
        <time>2026-08-30T11:33:36Z</time>
      </trkpt>
      <trkpt lat="48.778826" lon="9.902907">
        <ele>640</ele>
        <time>2026-08-30T11:33:37Z</time>
      </trkpt>
      <trkpt lat="48.778838" lon="9.902921">
        <ele>640.4</ele>
        <time>2026-08-30T11:33:38Z</time>
      </trkpt>
      <trkpt lat="48.778849" lon="9.902938">
        <ele>640.6</ele>
        <time>2026-08-30T11:33:39Z</time>
      </trkpt>
      <trkpt lat="48.778863" lon="9.902955">
        <ele>640.8</ele>
        <time>2026-08-30T11:33:40Z</time>
      </trkpt>
      <trkpt lat="48.778876" lon="9.902966">
        <ele>641</ele>
        <time>2026-08-30T11:33:41Z</time>
      </trkpt>
      <trkpt lat="48.778887" lon="9.902981">
        <ele>641.2</ele>
        <time>2026-08-30T11:33:42Z</time>
      </trkpt>
      <trkpt lat="48.778899" lon="9.902997">
        <ele>641.4</ele>
        <time>2026-08-30T11:33:43Z</time>
      </trkpt>
      <trkpt lat="48.778911" lon="9.903012">
        <ele>641.6</ele>
        <time>2026-08-30T11:33:44Z</time>
      </trkpt>
      <trkpt lat="48.778922" lon="9.903027">
        <ele>641.8</ele>
        <time>2026-08-30T11:33:45Z</time>
      </trkpt>
      <trkpt lat="48.778932" lon="9.903041">
        <ele>641.8</ele>
        <time>2026-08-30T11:33:46Z</time>
      </trkpt>
      <trkpt lat="48.778944" lon="9.903052">
        <ele>642</ele>
        <time>2026-08-30T11:33:47Z</time>
      </trkpt>
      <trkpt lat="48.778957" lon="9.903067">
        <ele>642.2</ele>
        <time>2026-08-30T11:33:48Z</time>
      </trkpt>
      <trkpt lat="48.778970" lon="9.903084">
        <ele>642.4</ele>
        <time>2026-08-30T11:33:49Z</time>
      </trkpt>
      <trkpt lat="48.778979" lon="9.903098">
        <ele>642.6</ele>
        <time>2026-08-30T11:33:50Z</time>
      </trkpt>
      <trkpt lat="48.778993" lon="9.903113">
        <ele>642.8</ele>
        <time>2026-08-30T11:33:51Z</time>
      </trkpt>
      <trkpt lat="48.779004" lon="9.903130">
        <ele>643</ele>
        <time>2026-08-30T11:33:52Z</time>
      </trkpt>
      <trkpt lat="48.779015" lon="9.903148">
        <ele>643.2</ele>
        <time>2026-08-30T11:33:53Z</time>
      </trkpt>
      <trkpt lat="48.779025" lon="9.903165">
        <ele>643.4</ele>
        <time>2026-08-30T11:33:54Z</time>
      </trkpt>
      <trkpt lat="48.779041" lon="9.903191">
        <ele>643.6</ele>
        <time>2026-08-30T11:33:55Z</time>
      </trkpt>
      <trkpt lat="48.779052" lon="9.903208">
        <ele>643.8</ele>
        <time>2026-08-30T11:33:56Z</time>
      </trkpt>
      <trkpt lat="48.779062" lon="9.903226">
        <ele>643.8</ele>
        <time>2026-08-30T11:33:57Z</time>
      </trkpt>
      <trkpt lat="48.779071" lon="9.903241">
        <ele>644</ele>
        <time>2026-08-30T11:33:58Z</time>
      </trkpt>
      <trkpt lat="48.779081" lon="9.903263">
        <ele>644.2</ele>
        <time>2026-08-30T11:33:59Z</time>
      </trkpt>
      <trkpt lat="48.779095" lon="9.903285">
        <ele>644.4</ele>
        <time>2026-08-30T11:34:00Z</time>
      </trkpt>
      <trkpt lat="48.779106" lon="9.903305">
        <ele>644.6</ele>
        <time>2026-08-30T11:34:01Z</time>
      </trkpt>
      <trkpt lat="48.779113" lon="9.903315">
        <ele>644.6</ele>
        <time>2026-08-30T11:34:02Z</time>
      </trkpt>
      <trkpt lat="48.779127" lon="9.903335">
        <ele>644.8</ele>
        <time>2026-08-30T11:34:03Z</time>
      </trkpt>
      <trkpt lat="48.779138" lon="9.903354">
        <ele>645</ele>
        <time>2026-08-30T11:34:04Z</time>
      </trkpt>
      <trkpt lat="48.779145" lon="9.903373">
        <ele>645.2</ele>
        <time>2026-08-30T11:34:05Z</time>
      </trkpt>
      <trkpt lat="48.779151" lon="9.903392">
        <ele>645.2</ele>
        <time>2026-08-30T11:34:06Z</time>
      </trkpt>
      <trkpt lat="48.779161" lon="9.903408">
        <ele>645.4</ele>
        <time>2026-08-30T11:34:07Z</time>
      </trkpt>
      <trkpt lat="48.779171" lon="9.903425">
        <ele>645.6</ele>
        <time>2026-08-30T11:34:08Z</time>
      </trkpt>
      <trkpt lat="48.779181" lon="9.903443">
        <ele>645.6</ele>
        <time>2026-08-30T11:34:09Z</time>
      </trkpt>
      <trkpt lat="48.779194" lon="9.903461">
        <ele>645.8</ele>
        <time>2026-08-30T11:34:10Z</time>
      </trkpt>
      <trkpt lat="48.779202" lon="9.903479">
        <ele>646</ele>
        <time>2026-08-30T11:34:11Z</time>
      </trkpt>
      <trkpt lat="48.779212" lon="9.903498">
        <ele>646.2</ele>
        <time>2026-08-30T11:34:12Z</time>
      </trkpt>
      <trkpt lat="48.779220" lon="9.903518">
        <ele>646.2</ele>
        <time>2026-08-30T11:34:13Z</time>
      </trkpt>
      <trkpt lat="48.779232" lon="9.903528">
        <ele>646.4</ele>
        <time>2026-08-30T11:34:14Z</time>
      </trkpt>
      <trkpt lat="48.779243" lon="9.903548">
        <ele>646.6</ele>
        <time>2026-08-30T11:34:15Z</time>
      </trkpt>
      <trkpt lat="48.779246" lon="9.903568">
        <ele>646.8</ele>
        <time>2026-08-30T11:34:16Z</time>
      </trkpt>
      <trkpt lat="48.779252" lon="9.903595">
        <ele>647</ele>
        <time>2026-08-30T11:34:17Z</time>
      </trkpt>
      <trkpt lat="48.779261" lon="9.903613">
        <ele>647</ele>
        <time>2026-08-30T11:34:18Z</time>
      </trkpt>
      <trkpt lat="48.779267" lon="9.903634">
        <ele>647.2</ele>
        <time>2026-08-30T11:34:19Z</time>
      </trkpt>
      <trkpt lat="48.779275" lon="9.903657">
        <ele>647.4</ele>
        <time>2026-08-30T11:34:20Z</time>
      </trkpt>
      <trkpt lat="48.779285" lon="9.903678">
        <ele>647.4</ele>
        <time>2026-08-30T11:34:21Z</time>
      </trkpt>
      <trkpt lat="48.779292" lon="9.903691">
        <ele>647.6</ele>
        <time>2026-08-30T11:34:22Z</time>
      </trkpt>
      <trkpt lat="48.779301" lon="9.903713">
        <ele>647.8</ele>
        <time>2026-08-30T11:34:23Z</time>
      </trkpt>
      <trkpt lat="48.779308" lon="9.903729">
        <ele>648</ele>
        <time>2026-08-30T11:34:24Z</time>
      </trkpt>
      <trkpt lat="48.779316" lon="9.903742">
        <ele>648.2</ele>
        <time>2026-08-30T11:34:25Z</time>
      </trkpt>
      <trkpt lat="48.779323" lon="9.903766">
        <ele>648.2</ele>
        <time>2026-08-30T11:34:26Z</time>
      </trkpt>
      <trkpt lat="48.779331" lon="9.903788">
        <ele>648.4</ele>
        <time>2026-08-30T11:34:27Z</time>
      </trkpt>
      <trkpt lat="48.779339" lon="9.903809">
        <ele>648.6</ele>
        <time>2026-08-30T11:34:28Z</time>
      </trkpt>
      <trkpt lat="48.779344" lon="9.903826">
        <ele>648.6</ele>
        <time>2026-08-30T11:34:29Z</time>
      </trkpt>
      <trkpt lat="48.779351" lon="9.903846">
        <ele>648.8</ele>
        <time>2026-08-30T11:34:30Z</time>
      </trkpt>
      <trkpt lat="48.779358" lon="9.903872">
        <ele>649</ele>
        <time>2026-08-30T11:34:31Z</time>
      </trkpt>
      <trkpt lat="48.779363" lon="9.903897">
        <ele>649.2</ele>
        <time>2026-08-30T11:34:32Z</time>
      </trkpt>
      <trkpt lat="48.779370" lon="9.903919">
        <ele>649.4</ele>
        <time>2026-08-30T11:34:33Z</time>
      </trkpt>
      <trkpt lat="48.779379" lon="9.903937">
        <ele>649.4</ele>
        <time>2026-08-30T11:34:34Z</time>
      </trkpt>
      <trkpt lat="48.779383" lon="9.903953">
        <ele>649.6</ele>
        <time>2026-08-30T11:34:35Z</time>
      </trkpt>
      <trkpt lat="48.779389" lon="9.903968">
        <ele>649.8</ele>
        <time>2026-08-30T11:34:36Z</time>
      </trkpt>
      <trkpt lat="48.779394" lon="9.903990">
        <ele>650</ele>
        <time>2026-08-30T11:34:37Z</time>
      </trkpt>
      <trkpt lat="48.779400" lon="9.904013">
        <ele>650.2</ele>
        <time>2026-08-30T11:34:38Z</time>
      </trkpt>
      <trkpt lat="48.779406" lon="9.904039">
        <ele>650.4</ele>
        <time>2026-08-30T11:34:39Z</time>
      </trkpt>
      <trkpt lat="48.779413" lon="9.904060">
        <ele>650.6</ele>
        <time>2026-08-30T11:34:40Z</time>
      </trkpt>
      <trkpt lat="48.779418" lon="9.904078">
        <ele>650.6</ele>
        <time>2026-08-30T11:34:41Z</time>
      </trkpt>
      <trkpt lat="48.779424" lon="9.904095">
        <ele>650.8</ele>
        <time>2026-08-30T11:34:42Z</time>
      </trkpt>
      <trkpt lat="48.779434" lon="9.904109">
        <ele>651</ele>
        <time>2026-08-30T11:34:43Z</time>
      </trkpt>
      <trkpt lat="48.779443" lon="9.904129">
        <ele>651.2</ele>
        <time>2026-08-30T11:34:44Z</time>
      </trkpt>
      <trkpt lat="48.779449" lon="9.904154">
        <ele>651.4</ele>
        <time>2026-08-30T11:34:45Z</time>
      </trkpt>
      <trkpt lat="48.779457" lon="9.904185">
        <ele>651.6</ele>
        <time>2026-08-30T11:34:46Z</time>
      </trkpt>
      <trkpt lat="48.779462" lon="9.904210">
        <ele>651.8</ele>
        <time>2026-08-30T11:34:47Z</time>
      </trkpt>
      <trkpt lat="48.779471" lon="9.904228">
        <ele>651.8</ele>
        <time>2026-08-30T11:34:48Z</time>
      </trkpt>
      <trkpt lat="48.779480" lon="9.904247">
        <ele>652</ele>
        <time>2026-08-30T11:34:49Z</time>
      </trkpt>
      <trkpt lat="48.779486" lon="9.904265">
        <ele>652.2</ele>
        <time>2026-08-30T11:34:50Z</time>
      </trkpt>
      <trkpt lat="48.779492" lon="9.904287">
        <ele>652.4</ele>
        <time>2026-08-30T11:34:51Z</time>
      </trkpt>
      <trkpt lat="48.779499" lon="9.904310">
        <ele>652.6</ele>
        <time>2026-08-30T11:34:52Z</time>
      </trkpt>
      <trkpt lat="48.779506" lon="9.904323">
        <ele>652.6</ele>
        <time>2026-08-30T11:34:53Z</time>
      </trkpt>
      <trkpt lat="48.779512" lon="9.904345">
        <ele>652.8</ele>
        <time>2026-08-30T11:34:54Z</time>
      </trkpt>
      <trkpt lat="48.779517" lon="9.904365">
        <ele>653</ele>
        <time>2026-08-30T11:34:55Z</time>
      </trkpt>
      <trkpt lat="48.779524" lon="9.904396">
        <ele>653.2</ele>
        <time>2026-08-30T11:34:56Z</time>
      </trkpt>
      <trkpt lat="48.779529" lon="9.904413">
        <ele>653.4</ele>
        <time>2026-08-30T11:34:57Z</time>
      </trkpt>
      <trkpt lat="48.779535" lon="9.904437">
        <ele>653.6</ele>
        <time>2026-08-30T11:34:58Z</time>
      </trkpt>
      <trkpt lat="48.779538" lon="9.904458">
        <ele>653.8</ele>
        <time>2026-08-30T11:34:59Z</time>
      </trkpt>
      <trkpt lat="48.779542" lon="9.904481">
        <ele>654</ele>
        <time>2026-08-30T11:35:00Z</time>
      </trkpt>
      <trkpt lat="48.779546" lon="9.904514">
        <ele>654.2</ele>
        <time>2026-08-30T11:35:01Z</time>
      </trkpt>
      <trkpt lat="48.779553" lon="9.904538">
        <ele>654.4</ele>
        <time>2026-08-30T11:35:02Z</time>
      </trkpt>
      <trkpt lat="48.779560" lon="9.904561">
        <ele>654.6</ele>
        <time>2026-08-30T11:35:03Z</time>
      </trkpt>
      <trkpt lat="48.779566" lon="9.904577">
        <ele>654.6</ele>
        <time>2026-08-30T11:35:04Z</time>
      </trkpt>
      <trkpt lat="48.779573" lon="9.904605">
        <ele>654.8</ele>
        <time>2026-08-30T11:35:05Z</time>
      </trkpt>
      <trkpt lat="48.779582" lon="9.904638">
        <ele>655</ele>
        <time>2026-08-30T11:35:06Z</time>
      </trkpt>
      <trkpt lat="48.779588" lon="9.904656">
        <ele>655.2</ele>
        <time>2026-08-30T11:35:07Z</time>
      </trkpt>
      <trkpt lat="48.779598" lon="9.904674">
        <ele>655.2</ele>
        <time>2026-08-30T11:35:08Z</time>
      </trkpt>
      <trkpt lat="48.779607" lon="9.904690">
        <ele>655.4</ele>
        <time>2026-08-30T11:35:09Z</time>
      </trkpt>
      <trkpt lat="48.779614" lon="9.904709">
        <ele>655.6</ele>
        <time>2026-08-30T11:35:10Z</time>
      </trkpt>
      <trkpt lat="48.779620" lon="9.904731">
        <ele>656</ele>
        <time>2026-08-30T11:35:11Z</time>
      </trkpt>
      <trkpt lat="48.779625" lon="9.904756">
        <ele>656</ele>
        <time>2026-08-30T11:35:12Z</time>
      </trkpt>
      <trkpt lat="48.779632" lon="9.904780">
        <ele>656.2</ele>
        <time>2026-08-30T11:35:13Z</time>
      </trkpt>
      <trkpt lat="48.779634" lon="9.904805">
        <ele>656.4</ele>
        <time>2026-08-30T11:35:14Z</time>
      </trkpt>
      <trkpt lat="48.779639" lon="9.904832">
        <ele>656.6</ele>
        <time>2026-08-30T11:35:15Z</time>
      </trkpt>
      <trkpt lat="48.779645" lon="9.904850">
        <ele>657</ele>
        <time>2026-08-30T11:35:16Z</time>
      </trkpt>
      <trkpt lat="48.779647" lon="9.904865">
        <ele>657.2</ele>
        <time>2026-08-30T11:35:17Z</time>
      </trkpt>
      <trkpt lat="48.779651" lon="9.904882">
        <ele>657.2</ele>
        <time>2026-08-30T11:35:18Z</time>
      </trkpt>
      <trkpt lat="48.779657" lon="9.904905">
        <ele>657.4</ele>
        <time>2026-08-30T11:35:19Z</time>
      </trkpt>
      <trkpt lat="48.779662" lon="9.904927">
        <ele>657.6</ele>
        <time>2026-08-30T11:35:20Z</time>
      </trkpt>
      <trkpt lat="48.779668" lon="9.904952">
        <ele>657.8</ele>
        <time>2026-08-30T11:35:21Z</time>
      </trkpt>
      <trkpt lat="48.779673" lon="9.904964">
        <ele>658</ele>
        <time>2026-08-30T11:35:22Z</time>
      </trkpt>
      <trkpt lat="48.779679" lon="9.904981">
        <ele>658.2</ele>
        <time>2026-08-30T11:35:23Z</time>
      </trkpt>
      <trkpt lat="48.779683" lon="9.904997">
        <ele>658.4</ele>
        <time>2026-08-30T11:35:24Z</time>
      </trkpt>
      <trkpt lat="48.779688" lon="9.905016">
        <ele>658.4</ele>
        <time>2026-08-30T11:35:25Z</time>
      </trkpt>
      <trkpt lat="48.779692" lon="9.905037">
        <ele>658.6</ele>
        <time>2026-08-30T11:35:26Z</time>
      </trkpt>
      <trkpt lat="48.779698" lon="9.905060">
        <ele>658.8</ele>
        <time>2026-08-30T11:35:27Z</time>
      </trkpt>
      <trkpt lat="48.779704" lon="9.905079">
        <ele>659</ele>
        <time>2026-08-30T11:35:28Z</time>
      </trkpt>
      <trkpt lat="48.779709" lon="9.905100">
        <ele>659</ele>
        <time>2026-08-30T11:35:29Z</time>
      </trkpt>
      <trkpt lat="48.779713" lon="9.905119">
        <ele>659.2</ele>
        <time>2026-08-30T11:35:30Z</time>
      </trkpt>
      <trkpt lat="48.779718" lon="9.905139">
        <ele>659.4</ele>
        <time>2026-08-30T11:35:31Z</time>
      </trkpt>
      <trkpt lat="48.779723" lon="9.905168">
        <ele>659.6</ele>
        <time>2026-08-30T11:35:32Z</time>
      </trkpt>
      <trkpt lat="48.779727" lon="9.905189">
        <ele>659.8</ele>
        <time>2026-08-30T11:35:33Z</time>
      </trkpt>
      <trkpt lat="48.779731" lon="9.905220">
        <ele>660</ele>
        <time>2026-08-30T11:35:34Z</time>
      </trkpt>
      <trkpt lat="48.779735" lon="9.905237">
        <ele>660.2</ele>
        <time>2026-08-30T11:35:35Z</time>
      </trkpt>
      <trkpt lat="48.779739" lon="9.905256">
        <ele>660.4</ele>
        <time>2026-08-30T11:35:36Z</time>
      </trkpt>
      <trkpt lat="48.779743" lon="9.905278">
        <ele>660.4</ele>
        <time>2026-08-30T11:35:37Z</time>
      </trkpt>
      <trkpt lat="48.779745" lon="9.905295">
        <ele>660.6</ele>
        <time>2026-08-30T11:35:38Z</time>
      </trkpt>
      <trkpt lat="48.779751" lon="9.905315">
        <ele>660.8</ele>
        <time>2026-08-30T11:35:39Z</time>
      </trkpt>
      <trkpt lat="48.779754" lon="9.905340">
        <ele>661</ele>
        <time>2026-08-30T11:35:40Z</time>
      </trkpt>
      <trkpt lat="48.779753" lon="9.905359">
        <ele>661.2</ele>
        <time>2026-08-30T11:35:41Z</time>
      </trkpt>
      <trkpt lat="48.779754" lon="9.905385">
        <ele>661.4</ele>
        <time>2026-08-30T11:35:42Z</time>
      </trkpt>
      <trkpt lat="48.779758" lon="9.905407">
        <ele>661.6</ele>
        <time>2026-08-30T11:35:43Z</time>
      </trkpt>
      <trkpt lat="48.779762" lon="9.905432">
        <ele>661.8</ele>
        <time>2026-08-30T11:35:44Z</time>
      </trkpt>
      <trkpt lat="48.779765" lon="9.905448">
        <ele>661.8</ele>
        <time>2026-08-30T11:35:45Z</time>
      </trkpt>
      <trkpt lat="48.779767" lon="9.905471">
        <ele>662</ele>
        <time>2026-08-30T11:35:46Z</time>
      </trkpt>
      <trkpt lat="48.779770" lon="9.905486">
        <ele>662.2</ele>
        <time>2026-08-30T11:35:47Z</time>
      </trkpt>
      <trkpt lat="48.779771" lon="9.905504">
        <ele>662.4</ele>
        <time>2026-08-30T11:35:48Z</time>
      </trkpt>
      <trkpt lat="48.779773" lon="9.905527">
        <ele>662.6</ele>
        <time>2026-08-30T11:35:49Z</time>
      </trkpt>
      <trkpt lat="48.779775" lon="9.905550">
        <ele>662.8</ele>
        <time>2026-08-30T11:35:50Z</time>
      </trkpt>
      <trkpt lat="48.779780" lon="9.905570">
        <ele>663</ele>
        <time>2026-08-30T11:35:51Z</time>
      </trkpt>
      <trkpt lat="48.779781" lon="9.905594">
        <ele>663.2</ele>
        <time>2026-08-30T11:35:52Z</time>
      </trkpt>
      <trkpt lat="48.779786" lon="9.905623">
        <ele>663.4</ele>
        <time>2026-08-30T11:35:53Z</time>
      </trkpt>
      <trkpt lat="48.779790" lon="9.905645">
        <ele>663.6</ele>
        <time>2026-08-30T11:35:54Z</time>
      </trkpt>
      <trkpt lat="48.779790" lon="9.905671">
        <ele>663.8</ele>
        <time>2026-08-30T11:35:55Z</time>
      </trkpt>
      <trkpt lat="48.779790" lon="9.905689">
        <ele>664</ele>
        <time>2026-08-30T11:35:56Z</time>
      </trkpt>
      <trkpt lat="48.779793" lon="9.905706">
        <ele>664.2</ele>
        <time>2026-08-30T11:35:57Z</time>
      </trkpt>
      <trkpt lat="48.779797" lon="9.905720">
        <ele>664.4</ele>
        <time>2026-08-30T11:35:58Z</time>
      </trkpt>
      <trkpt lat="48.779801" lon="9.905743">
        <ele>664.4</ele>
        <time>2026-08-30T11:35:59Z</time>
      </trkpt>
      <trkpt lat="48.779805" lon="9.905764">
        <ele>664.6</ele>
        <time>2026-08-30T11:36:00Z</time>
      </trkpt>
      <trkpt lat="48.779808" lon="9.905785">
        <ele>664.8</ele>
        <time>2026-08-30T11:36:01Z</time>
      </trkpt>
      <trkpt lat="48.779806" lon="9.905805">
        <ele>665</ele>
        <time>2026-08-30T11:36:02Z</time>
      </trkpt>
      <trkpt lat="48.779805" lon="9.905824">
        <ele>665.2</ele>
        <time>2026-08-30T11:36:03Z</time>
      </trkpt>
      <trkpt lat="48.779807" lon="9.905836">
        <ele>665.4</ele>
        <time>2026-08-30T11:36:04Z</time>
      </trkpt>
      <trkpt lat="48.779810" lon="9.905856">
        <ele>665.4</ele>
        <time>2026-08-30T11:36:05Z</time>
      </trkpt>
      <trkpt lat="48.779814" lon="9.905877">
        <ele>665.6</ele>
        <time>2026-08-30T11:36:06Z</time>
      </trkpt>
      <trkpt lat="48.779816" lon="9.905895">
        <ele>665.8</ele>
        <time>2026-08-30T11:36:07Z</time>
      </trkpt>
      <trkpt lat="48.779822" lon="9.905919">
        <ele>666</ele>
        <time>2026-08-30T11:36:08Z</time>
      </trkpt>
      <trkpt lat="48.779827" lon="9.905929">
        <ele>666.2</ele>
        <time>2026-08-30T11:36:09Z</time>
      </trkpt>
      <trkpt lat="48.779829" lon="9.905946">
        <ele>666.4</ele>
        <time>2026-08-30T11:36:10Z</time>
      </trkpt>
      <trkpt lat="48.779831" lon="9.905970">
        <ele>666.6</ele>
        <time>2026-08-30T11:36:11Z</time>
      </trkpt>
      <trkpt lat="48.779835" lon="9.905988">
        <ele>666.8</ele>
        <time>2026-08-30T11:36:12Z</time>
      </trkpt>
      <trkpt lat="48.779839" lon="9.906006">
        <ele>667</ele>
        <time>2026-08-30T11:36:13Z</time>
      </trkpt>
      <trkpt lat="48.779843" lon="9.906020">
        <ele>667.2</ele>
        <time>2026-08-30T11:36:14Z</time>
      </trkpt>
      <trkpt lat="48.779850" lon="9.906036">
        <ele>667.4</ele>
        <time>2026-08-30T11:36:15Z</time>
      </trkpt>
      <trkpt lat="48.779855" lon="9.906056">
        <ele>667.6</ele>
        <time>2026-08-30T11:36:16Z</time>
      </trkpt>
      <trkpt lat="48.779861" lon="9.906073">
        <ele>667.8</ele>
        <time>2026-08-30T11:36:17Z</time>
      </trkpt>
      <trkpt lat="48.779868" lon="9.906096">
        <ele>668</ele>
        <time>2026-08-30T11:36:18Z</time>
      </trkpt>
      <trkpt lat="48.779878" lon="9.906124">
        <ele>668</ele>
        <time>2026-08-30T11:36:19Z</time>
      </trkpt>
      <trkpt lat="48.779884" lon="9.906144">
        <ele>668.2</ele>
        <time>2026-08-30T11:36:20Z</time>
      </trkpt>
      <trkpt lat="48.779889" lon="9.906171">
        <ele>668.4</ele>
        <time>2026-08-30T11:36:21Z</time>
      </trkpt>
      <trkpt lat="48.779896" lon="9.906189">
        <ele>668.8</ele>
        <time>2026-08-30T11:36:22Z</time>
      </trkpt>
      <trkpt lat="48.779902" lon="9.906212">
        <ele>668.8</ele>
        <time>2026-08-30T11:36:23Z</time>
      </trkpt>
      <trkpt lat="48.779912" lon="9.906232">
        <ele>669</ele>
        <time>2026-08-30T11:36:24Z</time>
      </trkpt>
      <trkpt lat="48.779921" lon="9.906262">
        <ele>669.2</ele>
        <time>2026-08-30T11:36:25Z</time>
      </trkpt>
      <trkpt lat="48.779929" lon="9.906280">
        <ele>669.4</ele>
        <time>2026-08-30T11:36:26Z</time>
      </trkpt>
      <trkpt lat="48.779936" lon="9.906299">
        <ele>669.6</ele>
        <time>2026-08-30T11:36:27Z</time>
      </trkpt>
      <trkpt lat="48.779945" lon="9.906310">
        <ele>669.8</ele>
        <time>2026-08-30T11:36:28Z</time>
      </trkpt>
      <trkpt lat="48.779953" lon="9.906325">
        <ele>669.8</ele>
        <time>2026-08-30T11:36:29Z</time>
      </trkpt>
      <trkpt lat="48.779959" lon="9.906345">
        <ele>670</ele>
        <time>2026-08-30T11:36:30Z</time>
      </trkpt>
      <trkpt lat="48.779965" lon="9.906363">
        <ele>670.2</ele>
        <time>2026-08-30T11:36:31Z</time>
      </trkpt>
      <trkpt lat="48.779972" lon="9.906382">
        <ele>670.4</ele>
        <time>2026-08-30T11:36:32Z</time>
      </trkpt>
      <trkpt lat="48.779983" lon="9.906396">
        <ele>670.6</ele>
        <time>2026-08-30T11:36:33Z</time>
      </trkpt>
      <trkpt lat="48.779992" lon="9.906406">
        <ele>670.8</ele>
        <time>2026-08-30T11:36:34Z</time>
      </trkpt>
      <trkpt lat="48.780006" lon="9.906422">
        <ele>670.8</ele>
        <time>2026-08-30T11:36:35Z</time>
      </trkpt>
      <trkpt lat="48.780018" lon="9.906437">
        <ele>671</ele>
        <time>2026-08-30T11:36:36Z</time>
      </trkpt>
      <trkpt lat="48.780029" lon="9.906453">
        <ele>671.2</ele>
        <time>2026-08-30T11:36:37Z</time>
      </trkpt>
      <trkpt lat="48.780040" lon="9.906475">
        <ele>671.4</ele>
        <time>2026-08-30T11:36:38Z</time>
      </trkpt>
      <trkpt lat="48.780052" lon="9.906497">
        <ele>671.6</ele>
        <time>2026-08-30T11:36:39Z</time>
      </trkpt>
      <trkpt lat="48.780066" lon="9.906516">
        <ele>671.6</ele>
        <time>2026-08-30T11:36:40Z</time>
      </trkpt>
      <trkpt lat="48.780078" lon="9.906530">
        <ele>671.8</ele>
        <time>2026-08-30T11:36:41Z</time>
      </trkpt>
      <trkpt lat="48.780087" lon="9.906546">
        <ele>672</ele>
        <time>2026-08-30T11:36:42Z</time>
      </trkpt>
      <trkpt lat="48.780095" lon="9.906559">
        <ele>672.2</ele>
        <time>2026-08-30T11:36:43Z</time>
      </trkpt>
      <trkpt lat="48.780104" lon="9.906573">
        <ele>672.4</ele>
        <time>2026-08-30T11:36:44Z</time>
      </trkpt>
      <trkpt lat="48.780115" lon="9.906584">
        <ele>672.6</ele>
        <time>2026-08-30T11:36:45Z</time>
      </trkpt>
      <trkpt lat="48.780127" lon="9.906589">
        <ele>672.6</ele>
        <time>2026-08-30T11:36:46Z</time>
      </trkpt>
      <trkpt lat="48.780140" lon="9.906604">
        <ele>672.8</ele>
        <time>2026-08-30T11:36:47Z</time>
      </trkpt>
      <trkpt lat="48.780148" lon="9.906623">
        <ele>673</ele>
        <time>2026-08-30T11:36:48Z</time>
      </trkpt>
      <trkpt lat="48.780154" lon="9.906643">
        <ele>673.2</ele>
        <time>2026-08-30T11:36:49Z</time>
      </trkpt>
      <trkpt lat="48.780162" lon="9.906658">
        <ele>673.4</ele>
        <time>2026-08-30T11:36:50Z</time>
      </trkpt>
      <trkpt lat="48.780169" lon="9.906674">
        <ele>673.6</ele>
        <time>2026-08-30T11:36:51Z</time>
      </trkpt>
      <trkpt lat="48.780175" lon="9.906692">
        <ele>673.8</ele>
        <time>2026-08-30T11:36:52Z</time>
      </trkpt>
      <trkpt lat="48.780185" lon="9.906716">
        <ele>674</ele>
        <time>2026-08-30T11:36:53Z</time>
      </trkpt>
      <trkpt lat="48.780193" lon="9.906731">
        <ele>674.2</ele>
        <time>2026-08-30T11:36:54Z</time>
      </trkpt>
      <trkpt lat="48.780205" lon="9.906753">
        <ele>674.2</ele>
        <time>2026-08-30T11:36:55Z</time>
      </trkpt>
      <trkpt lat="48.780218" lon="9.906769">
        <ele>674.4</ele>
        <time>2026-08-30T11:36:56Z</time>
      </trkpt>
      <trkpt lat="48.780227" lon="9.906783">
        <ele>674.6</ele>
        <time>2026-08-30T11:36:57Z</time>
      </trkpt>
      <trkpt lat="48.780238" lon="9.906792">
        <ele>674.8</ele>
        <time>2026-08-30T11:36:58Z</time>
      </trkpt>
      <trkpt lat="48.780249" lon="9.906804">
        <ele>675</ele>
        <time>2026-08-30T11:36:59Z</time>
      </trkpt>
      <trkpt lat="48.780257" lon="9.906829">
        <ele>675</ele>
        <time>2026-08-30T11:37:00Z</time>
      </trkpt>
      <trkpt lat="48.780262" lon="9.906861">
        <ele>675.2</ele>
        <time>2026-08-30T11:37:01Z</time>
      </trkpt>
      <trkpt lat="48.780270" lon="9.906881">
        <ele>675.2</ele>
        <time>2026-08-30T11:37:02Z</time>
      </trkpt>
      <trkpt lat="48.780276" lon="9.906907">
        <ele>675.4</ele>
        <time>2026-08-30T11:37:03Z</time>
      </trkpt>
      <trkpt lat="48.780279" lon="9.906923">
        <ele>675.6</ele>
        <time>2026-08-30T11:37:04Z</time>
      </trkpt>
      <trkpt lat="48.780282" lon="9.906939">
        <ele>675.8</ele>
        <time>2026-08-30T11:37:05Z</time>
      </trkpt>
      <trkpt lat="48.780288" lon="9.906970">
        <ele>676</ele>
        <time>2026-08-30T11:37:06Z</time>
      </trkpt>
      <trkpt lat="48.780293" lon="9.906988">
        <ele>676.2</ele>
        <time>2026-08-30T11:37:07Z</time>
      </trkpt>
      <trkpt lat="48.780298" lon="9.907000">
        <ele>676.4</ele>
        <time>2026-08-30T11:37:08Z</time>
      </trkpt>
      <trkpt lat="48.780306" lon="9.907020">
        <ele>676.6</ele>
        <time>2026-08-30T11:37:09Z</time>
      </trkpt>
      <trkpt lat="48.780309" lon="9.907042">
        <ele>676.8</ele>
        <time>2026-08-30T11:37:10Z</time>
      </trkpt>
      <trkpt lat="48.780314" lon="9.907066">
        <ele>676.8</ele>
        <time>2026-08-30T11:37:11Z</time>
      </trkpt>
      <trkpt lat="48.780321" lon="9.907085">
        <ele>677</ele>
        <time>2026-08-30T11:37:12Z</time>
      </trkpt>
      <trkpt lat="48.780329" lon="9.907103">
        <ele>677.2</ele>
        <time>2026-08-30T11:37:13Z</time>
      </trkpt>
      <trkpt lat="48.780336" lon="9.907124">
        <ele>677.4</ele>
        <time>2026-08-30T11:37:14Z</time>
      </trkpt>
      <trkpt lat="48.780341" lon="9.907143">
        <ele>677.6</ele>
        <time>2026-08-30T11:37:15Z</time>
      </trkpt>
      <trkpt lat="48.780345" lon="9.907167">
        <ele>677.8</ele>
        <time>2026-08-30T11:37:16Z</time>
      </trkpt>
      <trkpt lat="48.780349" lon="9.907188">
        <ele>678</ele>
        <time>2026-08-30T11:37:17Z</time>
      </trkpt>
      <trkpt lat="48.780355" lon="9.907204">
        <ele>678.2</ele>
        <time>2026-08-30T11:37:18Z</time>
      </trkpt>
      <trkpt lat="48.780362" lon="9.907221">
        <ele>678.4</ele>
        <time>2026-08-30T11:37:19Z</time>
      </trkpt>
      <trkpt lat="48.780368" lon="9.907233">
        <ele>678.6</ele>
        <time>2026-08-30T11:37:20Z</time>
      </trkpt>
      <trkpt lat="48.780374" lon="9.907250">
        <ele>678.6</ele>
        <time>2026-08-30T11:37:21Z</time>
      </trkpt>
      <trkpt lat="48.780375" lon="9.907263">
        <ele>678.8</ele>
        <time>2026-08-30T11:37:22Z</time>
      </trkpt>
      <trkpt lat="48.780380" lon="9.907284">
        <ele>679</ele>
        <time>2026-08-30T11:37:23Z</time>
      </trkpt>
      <trkpt lat="48.780379" lon="9.907308">
        <ele>679.2</ele>
        <time>2026-08-30T11:37:24Z</time>
      </trkpt>
      <trkpt lat="48.780382" lon="9.907339">
        <ele>679.4</ele>
        <time>2026-08-30T11:37:25Z</time>
      </trkpt>
      <trkpt lat="48.780383" lon="9.907356">
        <ele>679.6</ele>
        <time>2026-08-30T11:37:26Z</time>
      </trkpt>
      <trkpt lat="48.780387" lon="9.907376">
        <ele>679.8</ele>
        <time>2026-08-30T11:37:27Z</time>
      </trkpt>
      <trkpt lat="48.780392" lon="9.907393">
        <ele>680</ele>
        <time>2026-08-30T11:37:28Z</time>
      </trkpt>
      <trkpt lat="48.780396" lon="9.907405">
        <ele>680.2</ele>
        <time>2026-08-30T11:37:29Z</time>
      </trkpt>
      <trkpt lat="48.780401" lon="9.907422">
        <ele>680.4</ele>
        <time>2026-08-30T11:37:30Z</time>
      </trkpt>
      <trkpt lat="48.780404" lon="9.907445">
        <ele>680.6</ele>
        <time>2026-08-30T11:37:31Z</time>
      </trkpt>
      <trkpt lat="48.780405" lon="9.907467">
        <ele>680.8</ele>
        <time>2026-08-30T11:37:32Z</time>
      </trkpt>
      <trkpt lat="48.780408" lon="9.907490">
        <ele>681</ele>
        <time>2026-08-30T11:37:33Z</time>
      </trkpt>
      <trkpt lat="48.780411" lon="9.907510">
        <ele>681.2</ele>
        <time>2026-08-30T11:37:34Z</time>
      </trkpt>
      <trkpt lat="48.780416" lon="9.907527">
        <ele>681.4</ele>
        <time>2026-08-30T11:37:35Z</time>
      </trkpt>
      <trkpt lat="48.780419" lon="9.907541">
        <ele>681.4</ele>
        <time>2026-08-30T11:37:36Z</time>
      </trkpt>
      <trkpt lat="48.780424" lon="9.907556">
        <ele>681.6</ele>
        <time>2026-08-30T11:37:37Z</time>
      </trkpt>
      <trkpt lat="48.780429" lon="9.907575">
        <ele>682</ele>
        <time>2026-08-30T11:37:38Z</time>
      </trkpt>
      <trkpt lat="48.780435" lon="9.907597">
        <ele>682.2</ele>
        <time>2026-08-30T11:37:39Z</time>
      </trkpt>
      <trkpt lat="48.780440" lon="9.907615">
        <ele>682.4</ele>
        <time>2026-08-30T11:37:40Z</time>
      </trkpt>
      <trkpt lat="48.780445" lon="9.907639">
        <ele>682.6</ele>
        <time>2026-08-30T11:37:41Z</time>
      </trkpt>
      <trkpt lat="48.780450" lon="9.907657">
        <ele>682.8</ele>
        <time>2026-08-30T11:37:42Z</time>
      </trkpt>
      <trkpt lat="48.780451" lon="9.907677">
        <ele>683</ele>
        <time>2026-08-30T11:37:43Z</time>
      </trkpt>
      <trkpt lat="48.780456" lon="9.907698">
        <ele>683.2</ele>
        <time>2026-08-30T11:37:44Z</time>
      </trkpt>
      <trkpt lat="48.780460" lon="9.907719">
        <ele>683.4</ele>
        <time>2026-08-30T11:37:45Z</time>
      </trkpt>
      <trkpt lat="48.780459" lon="9.907736">
        <ele>683.6</ele>
        <time>2026-08-30T11:37:46Z</time>
      </trkpt>
      <trkpt lat="48.780464" lon="9.907754">
        <ele>683.6</ele>
        <time>2026-08-30T11:37:47Z</time>
      </trkpt>
      <trkpt lat="48.780468" lon="9.907776">
        <ele>683.8</ele>
        <time>2026-08-30T11:37:48Z</time>
      </trkpt>
      <trkpt lat="48.780471" lon="9.907800">
        <ele>684</ele>
        <time>2026-08-30T11:37:49Z</time>
      </trkpt>
      <trkpt lat="48.780474" lon="9.907825">
        <ele>684.2</ele>
        <time>2026-08-30T11:37:50Z</time>
      </trkpt>
      <trkpt lat="48.780479" lon="9.907838">
        <ele>684.4</ele>
        <time>2026-08-30T11:37:51Z</time>
      </trkpt>
      <trkpt lat="48.780482" lon="9.907857">
        <ele>684.6</ele>
        <time>2026-08-30T11:37:52Z</time>
      </trkpt>
      <trkpt lat="48.780486" lon="9.907883">
        <ele>684.8</ele>
        <time>2026-08-30T11:37:53Z</time>
      </trkpt>
      <trkpt lat="48.780490" lon="9.907898">
        <ele>684.8</ele>
        <time>2026-08-30T11:37:54Z</time>
      </trkpt>
      <trkpt lat="48.780493" lon="9.907917">
        <ele>685</ele>
        <time>2026-08-30T11:37:55Z</time>
      </trkpt>
      <trkpt lat="48.780496" lon="9.907949">
        <ele>685.2</ele>
        <time>2026-08-30T11:37:56Z</time>
      </trkpt>
      <trkpt lat="48.780504" lon="9.907965">
        <ele>685.4</ele>
        <time>2026-08-30T11:37:57Z</time>
      </trkpt>
      <trkpt lat="48.780508" lon="9.907988">
        <ele>685.8</ele>
        <time>2026-08-30T11:37:58Z</time>
      </trkpt>
      <trkpt lat="48.780514" lon="9.908013">
        <ele>685.8</ele>
        <time>2026-08-30T11:37:59Z</time>
      </trkpt>
      <trkpt lat="48.780519" lon="9.908036">
        <ele>686</ele>
        <time>2026-08-30T11:38:00Z</time>
      </trkpt>
      <trkpt lat="48.780523" lon="9.908050">
        <ele>686.2</ele>
        <time>2026-08-30T11:38:01Z</time>
      </trkpt>
      <trkpt lat="48.780529" lon="9.908071">
        <ele>686.4</ele>
        <time>2026-08-30T11:38:02Z</time>
      </trkpt>
      <trkpt lat="48.780541" lon="9.908090">
        <ele>686.8</ele>
        <time>2026-08-30T11:38:03Z</time>
      </trkpt>
      <trkpt lat="48.780552" lon="9.908108">
        <ele>687</ele>
        <time>2026-08-30T11:38:04Z</time>
      </trkpt>
      <trkpt lat="48.780559" lon="9.908122">
        <ele>687.2</ele>
        <time>2026-08-30T11:38:05Z</time>
      </trkpt>
      <trkpt lat="48.780566" lon="9.908135">
        <ele>687.2</ele>
        <time>2026-08-30T11:38:06Z</time>
      </trkpt>
      <trkpt lat="48.780574" lon="9.908147">
        <ele>687.4</ele>
        <time>2026-08-30T11:38:07Z</time>
      </trkpt>
      <trkpt lat="48.780582" lon="9.908157">
        <ele>687.6</ele>
        <time>2026-08-30T11:38:08Z</time>
      </trkpt>
      <trkpt lat="48.780592" lon="9.908174">
        <ele>687.8</ele>
        <time>2026-08-30T11:38:09Z</time>
      </trkpt>
      <trkpt lat="48.780603" lon="9.908198">
        <ele>688</ele>
        <time>2026-08-30T11:38:10Z</time>
      </trkpt>
      <trkpt lat="48.780611" lon="9.908213">
        <ele>688.2</ele>
        <time>2026-08-30T11:38:11Z</time>
      </trkpt>
      <trkpt lat="48.780623" lon="9.908224">
        <ele>688.4</ele>
        <time>2026-08-30T11:38:12Z</time>
      </trkpt>
      <trkpt lat="48.780632" lon="9.908237">
        <ele>688.6</ele>
        <time>2026-08-30T11:38:13Z</time>
      </trkpt>
      <trkpt lat="48.780643" lon="9.908255">
        <ele>688.8</ele>
        <time>2026-08-30T11:38:14Z</time>
      </trkpt>
      <trkpt lat="48.780652" lon="9.908274">
        <ele>689</ele>
        <time>2026-08-30T11:38:15Z</time>
      </trkpt>
      <trkpt lat="48.780661" lon="9.908290">
        <ele>689</ele>
        <time>2026-08-30T11:38:16Z</time>
      </trkpt>
      <trkpt lat="48.780674" lon="9.908303">
        <ele>689.2</ele>
        <time>2026-08-30T11:38:17Z</time>
      </trkpt>
      <trkpt lat="48.780685" lon="9.908318">
        <ele>689.4</ele>
        <time>2026-08-30T11:38:18Z</time>
      </trkpt>
      <trkpt lat="48.780697" lon="9.908331">
        <ele>689.6</ele>
        <time>2026-08-30T11:38:19Z</time>
      </trkpt>
      <trkpt lat="48.780708" lon="9.908330">
        <ele>689.8</ele>
        <time>2026-08-30T11:38:20Z</time>
      </trkpt>
      <trkpt lat="48.780720" lon="9.908339">
        <ele>690</ele>
        <time>2026-08-30T11:38:21Z</time>
      </trkpt>
      <trkpt lat="48.780734" lon="9.908345">
        <ele>690.2</ele>
        <time>2026-08-30T11:38:22Z</time>
      </trkpt>
      <trkpt lat="48.780744" lon="9.908361">
        <ele>690.4</ele>
        <time>2026-08-30T11:38:23Z</time>
      </trkpt>
      <trkpt lat="48.780760" lon="9.908374">
        <ele>690.6</ele>
        <time>2026-08-30T11:38:24Z</time>
      </trkpt>
      <trkpt lat="48.780771" lon="9.908397">
        <ele>690.8</ele>
        <time>2026-08-30T11:38:25Z</time>
      </trkpt>
      <trkpt lat="48.780781" lon="9.908410">
        <ele>691</ele>
        <time>2026-08-30T11:38:26Z</time>
      </trkpt>
      <trkpt lat="48.780792" lon="9.908418">
        <ele>691.2</ele>
        <time>2026-08-30T11:38:27Z</time>
      </trkpt>
      <trkpt lat="48.780810" lon="9.908426">
        <ele>691.2</ele>
        <time>2026-08-30T11:38:28Z</time>
      </trkpt>
      <trkpt lat="48.780823" lon="9.908434">
        <ele>691.4</ele>
        <time>2026-08-30T11:38:29Z</time>
      </trkpt>
      <trkpt lat="48.780835" lon="9.908439">
        <ele>691.6</ele>
        <time>2026-08-30T11:38:30Z</time>
      </trkpt>
      <trkpt lat="48.780845" lon="9.908447">
        <ele>691.8</ele>
        <time>2026-08-30T11:38:31Z</time>
      </trkpt>
      <trkpt lat="48.780863" lon="9.908460">
        <ele>692</ele>
        <time>2026-08-30T11:38:32Z</time>
      </trkpt>
      <trkpt lat="48.780876" lon="9.908466">
        <ele>692.2</ele>
        <time>2026-08-30T11:38:33Z</time>
      </trkpt>
      <trkpt lat="48.780889" lon="9.908469">
        <ele>692.4</ele>
        <time>2026-08-30T11:38:34Z</time>
      </trkpt>
      <trkpt lat="48.780905" lon="9.908472">
        <ele>692.6</ele>
        <time>2026-08-30T11:38:35Z</time>
      </trkpt>
      <trkpt lat="48.780921" lon="9.908475">
        <ele>692.6</ele>
        <time>2026-08-30T11:38:36Z</time>
      </trkpt>
      <trkpt lat="48.780936" lon="9.908482">
        <ele>692.8</ele>
        <time>2026-08-30T11:38:37Z</time>
      </trkpt>
      <trkpt lat="48.780949" lon="9.908496">
        <ele>693</ele>
        <time>2026-08-30T11:38:38Z</time>
      </trkpt>
      <trkpt lat="48.780963" lon="9.908503">
        <ele>693.2</ele>
        <time>2026-08-30T11:38:39Z</time>
      </trkpt>
      <trkpt lat="48.780981" lon="9.908508">
        <ele>693.4</ele>
        <time>2026-08-30T11:38:40Z</time>
      </trkpt>
      <trkpt lat="48.780998" lon="9.908510">
        <ele>693.6</ele>
        <time>2026-08-30T11:38:41Z</time>
      </trkpt>
      <trkpt lat="48.781010" lon="9.908515">
        <ele>693.8</ele>
        <time>2026-08-30T11:38:42Z</time>
      </trkpt>
      <trkpt lat="48.781026" lon="9.908523">
        <ele>694</ele>
        <time>2026-08-30T11:38:43Z</time>
      </trkpt>
      <trkpt lat="48.781044" lon="9.908536">
        <ele>694.2</ele>
        <time>2026-08-30T11:38:44Z</time>
      </trkpt>
      <trkpt lat="48.781061" lon="9.908552">
        <ele>694.4</ele>
        <time>2026-08-30T11:38:45Z</time>
      </trkpt>
      <trkpt lat="48.781072" lon="9.908564">
        <ele>694.4</ele>
        <time>2026-08-30T11:38:46Z</time>
      </trkpt>
      <trkpt lat="48.781088" lon="9.908583">
        <ele>694.6</ele>
        <time>2026-08-30T11:38:47Z</time>
      </trkpt>
      <trkpt lat="48.781102" lon="9.908599">
        <ele>694.8</ele>
        <time>2026-08-30T11:38:48Z</time>
      </trkpt>
      <trkpt lat="48.781115" lon="9.908614">
        <ele>695</ele>
        <time>2026-08-30T11:38:49Z</time>
      </trkpt>
      <trkpt lat="48.781129" lon="9.908628">
        <ele>695.2</ele>
        <time>2026-08-30T11:38:50Z</time>
      </trkpt>
      <trkpt lat="48.781139" lon="9.908639">
        <ele>695.4</ele>
        <time>2026-08-30T11:38:51Z</time>
      </trkpt>
      <trkpt lat="48.781150" lon="9.908652">
        <ele>695.6</ele>
        <time>2026-08-30T11:38:52Z</time>
      </trkpt>
      <trkpt lat="48.781161" lon="9.908658">
        <ele>695.8</ele>
        <time>2026-08-30T11:38:53Z</time>
      </trkpt>
      <trkpt lat="48.781173" lon="9.908675">
        <ele>696</ele>
        <time>2026-08-30T11:38:54Z</time>
      </trkpt>
      <trkpt lat="48.781182" lon="9.908692">
        <ele>696.2</ele>
        <time>2026-08-30T11:38:55Z</time>
      </trkpt>
      <trkpt lat="48.781192" lon="9.908716">
        <ele>696.2</ele>
        <time>2026-08-30T11:38:56Z</time>
      </trkpt>
      <trkpt lat="48.781202" lon="9.908733">
        <ele>696.4</ele>
        <time>2026-08-30T11:38:57Z</time>
      </trkpt>
      <trkpt lat="48.781209" lon="9.908744">
        <ele>696.6</ele>
        <time>2026-08-30T11:38:58Z</time>
      </trkpt>
      <trkpt lat="48.781217" lon="9.908758">
        <ele>696.8</ele>
        <time>2026-08-30T11:38:59Z</time>
      </trkpt>
      <trkpt lat="48.781224" lon="9.908777">
        <ele>697</ele>
        <time>2026-08-30T11:39:00Z</time>
      </trkpt>
      <trkpt lat="48.781234" lon="9.908795">
        <ele>697.2</ele>
        <time>2026-08-30T11:39:01Z</time>
      </trkpt>
      <trkpt lat="48.781242" lon="9.908810">
        <ele>697.4</ele>
        <time>2026-08-30T11:39:02Z</time>
      </trkpt>
      <trkpt lat="48.781251" lon="9.908824">
        <ele>697.6</ele>
        <time>2026-08-30T11:39:03Z</time>
      </trkpt>
      <trkpt lat="48.781259" lon="9.908844">
        <ele>697.8</ele>
        <time>2026-08-30T11:39:04Z</time>
      </trkpt>
      <trkpt lat="48.781268" lon="9.908863">
        <ele>697.8</ele>
        <time>2026-08-30T11:39:05Z</time>
      </trkpt>
      <trkpt lat="48.781273" lon="9.908879">
        <ele>698</ele>
        <time>2026-08-30T11:39:06Z</time>
      </trkpt>
      <trkpt lat="48.781278" lon="9.908901">
        <ele>698.2</ele>
        <time>2026-08-30T11:39:07Z</time>
      </trkpt>
      <trkpt lat="48.781284" lon="9.908925">
        <ele>698.4</ele>
        <time>2026-08-30T11:39:08Z</time>
      </trkpt>
      <trkpt lat="48.781288" lon="9.908952">
        <ele>698.6</ele>
        <time>2026-08-30T11:39:09Z</time>
      </trkpt>
      <trkpt lat="48.781293" lon="9.908979">
        <ele>698.8</ele>
        <time>2026-08-30T11:39:10Z</time>
      </trkpt>
      <trkpt lat="48.781294" lon="9.909000">
        <ele>699</ele>
        <time>2026-08-30T11:39:11Z</time>
      </trkpt>
      <trkpt lat="48.781300" lon="9.909030">
        <ele>699.2</ele>
        <time>2026-08-30T11:39:12Z</time>
      </trkpt>
      <trkpt lat="48.781305" lon="9.909044">
        <ele>699.2</ele>
        <time>2026-08-30T11:39:13Z</time>
      </trkpt>
      <trkpt lat="48.781308" lon="9.909062">
        <ele>699.4</ele>
        <time>2026-08-30T11:39:14Z</time>
      </trkpt>
      <trkpt lat="48.781307" lon="9.909098">
        <ele>699.6</ele>
        <time>2026-08-30T11:39:15Z</time>
      </trkpt>
      <trkpt lat="48.781307" lon="9.909118">
        <ele>699.8</ele>
        <time>2026-08-30T11:39:16Z</time>
      </trkpt>
      <trkpt lat="48.781305" lon="9.909137">
        <ele>700</ele>
        <time>2026-08-30T11:39:17Z</time>
      </trkpt>
      <trkpt lat="48.781306" lon="9.909156">
        <ele>700.2</ele>
        <time>2026-08-30T11:39:18Z</time>
      </trkpt>
      <trkpt lat="48.781306" lon="9.909180">
        <ele>700.4</ele>
        <time>2026-08-30T11:39:19Z</time>
      </trkpt>
      <trkpt lat="48.781305" lon="9.909196">
        <ele>700.4</ele>
        <time>2026-08-30T11:39:20Z</time>
      </trkpt>
      <trkpt lat="48.781303" lon="9.909220">
        <ele>700.6</ele>
        <time>2026-08-30T11:39:21Z</time>
      </trkpt>
      <trkpt lat="48.781300" lon="9.909243">
        <ele>700.8</ele>
        <time>2026-08-30T11:39:22Z</time>
      </trkpt>
      <trkpt lat="48.781298" lon="9.909264">
        <ele>700.8</ele>
        <time>2026-08-30T11:39:23Z</time>
      </trkpt>
      <trkpt lat="48.781296" lon="9.909284">
        <ele>701</ele>
        <time>2026-08-30T11:39:24Z</time>
      </trkpt>
      <trkpt lat="48.781292" lon="9.909306">
        <ele>701.2</ele>
        <time>2026-08-30T11:39:25Z</time>
      </trkpt>
      <trkpt lat="48.781291" lon="9.909325">
        <ele>701.2</ele>
        <time>2026-08-30T11:39:26Z</time>
      </trkpt>
      <trkpt lat="48.781289" lon="9.909346">
        <ele>701.4</ele>
        <time>2026-08-30T11:39:27Z</time>
      </trkpt>
      <trkpt lat="48.781290" lon="9.909369">
        <ele>701.6</ele>
        <time>2026-08-30T11:39:28Z</time>
      </trkpt>
      <trkpt lat="48.781288" lon="9.909395">
        <ele>701.8</ele>
        <time>2026-08-30T11:39:29Z</time>
      </trkpt>
      <trkpt lat="48.781287" lon="9.909416">
        <ele>702</ele>
        <time>2026-08-30T11:39:30Z</time>
      </trkpt>
      <trkpt lat="48.781284" lon="9.909427">
        <ele>702.2</ele>
        <time>2026-08-30T11:39:31Z</time>
      </trkpt>
      <trkpt lat="48.781282" lon="9.909442">
        <ele>702.4</ele>
        <time>2026-08-30T11:39:32Z</time>
      </trkpt>
      <trkpt lat="48.781278" lon="9.909462">
        <ele>702.6</ele>
        <time>2026-08-30T11:39:33Z</time>
      </trkpt>
      <trkpt lat="48.781277" lon="9.909477">
        <ele>702.8</ele>
        <time>2026-08-30T11:39:34Z</time>
      </trkpt>
      <trkpt lat="48.781276" lon="9.909492">
        <ele>703</ele>
        <time>2026-08-30T11:39:35Z</time>
      </trkpt>
      <trkpt lat="48.781273" lon="9.909511">
        <ele>703.2</ele>
        <time>2026-08-30T11:39:36Z</time>
      </trkpt>
      <trkpt lat="48.781269" lon="9.909534">
        <ele>703.4</ele>
        <time>2026-08-30T11:39:37Z</time>
      </trkpt>
      <trkpt lat="48.781267" lon="9.909553">
        <ele>703.6</ele>
        <time>2026-08-30T11:39:38Z</time>
      </trkpt>
      <trkpt lat="48.781266" lon="9.909568">
        <ele>703.8</ele>
        <time>2026-08-30T11:39:39Z</time>
      </trkpt>
      <trkpt lat="48.781263" lon="9.909586">
        <ele>704</ele>
        <time>2026-08-30T11:39:40Z</time>
      </trkpt>
      <trkpt lat="48.781258" lon="9.909611">
        <ele>704.2</ele>
        <time>2026-08-30T11:39:41Z</time>
      </trkpt>
      <trkpt lat="48.781253" lon="9.909633">
        <ele>704.4</ele>
        <time>2026-08-30T11:39:42Z</time>
      </trkpt>
      <trkpt lat="48.781249" lon="9.909650">
        <ele>704.6</ele>
        <time>2026-08-30T11:39:43Z</time>
      </trkpt>
      <trkpt lat="48.781246" lon="9.909669">
        <ele>705</ele>
        <time>2026-08-30T11:39:44Z</time>
      </trkpt>
      <trkpt lat="48.781241" lon="9.909694">
        <ele>705.2</ele>
        <time>2026-08-30T11:39:45Z</time>
      </trkpt>
      <trkpt lat="48.781240" lon="9.909714">
        <ele>705.2</ele>
        <time>2026-08-30T11:39:46Z</time>
      </trkpt>
      <trkpt lat="48.781235" lon="9.909732">
        <ele>705.4</ele>
        <time>2026-08-30T11:39:47Z</time>
      </trkpt>
      <trkpt lat="48.781231" lon="9.909750">
        <ele>705.6</ele>
        <time>2026-08-30T11:39:48Z</time>
      </trkpt>
      <trkpt lat="48.781226" lon="9.909773">
        <ele>705.8</ele>
        <time>2026-08-30T11:39:49Z</time>
      </trkpt>
      <trkpt lat="48.781224" lon="9.909790">
        <ele>706</ele>
        <time>2026-08-30T11:39:50Z</time>
      </trkpt>
      <trkpt lat="48.781220" lon="9.909809">
        <ele>706.2</ele>
        <time>2026-08-30T11:39:51Z</time>
      </trkpt>
      <trkpt lat="48.781213" lon="9.909834">
        <ele>706.4</ele>
        <time>2026-08-30T11:39:52Z</time>
      </trkpt>
      <trkpt lat="48.781208" lon="9.909853">
        <ele>706.6</ele>
        <time>2026-08-30T11:39:53Z</time>
      </trkpt>
      <trkpt lat="48.781204" lon="9.909868">
        <ele>706.8</ele>
        <time>2026-08-30T11:39:54Z</time>
      </trkpt>
      <trkpt lat="48.781197" lon="9.909894">
        <ele>707</ele>
        <time>2026-08-30T11:39:55Z</time>
      </trkpt>
      <trkpt lat="48.781192" lon="9.909920">
        <ele>707.2</ele>
        <time>2026-08-30T11:39:56Z</time>
      </trkpt>
      <trkpt lat="48.781183" lon="9.909940">
        <ele>707.4</ele>
        <time>2026-08-30T11:39:57Z</time>
      </trkpt>
      <trkpt lat="48.781174" lon="9.909957">
        <ele>707.6</ele>
        <time>2026-08-30T11:39:58Z</time>
      </trkpt>
      <trkpt lat="48.781167" lon="9.909972">
        <ele>707.8</ele>
        <time>2026-08-30T11:39:59Z</time>
      </trkpt>
      <trkpt lat="48.781158" lon="9.909993">
        <ele>708</ele>
        <time>2026-08-30T11:40:00Z</time>
      </trkpt>
      <trkpt lat="48.781146" lon="9.910011">
        <ele>708.2</ele>
        <time>2026-08-30T11:40:01Z</time>
      </trkpt>
      <trkpt lat="48.781135" lon="9.910032">
        <ele>708.4</ele>
        <time>2026-08-30T11:40:02Z</time>
      </trkpt>
      <trkpt lat="48.781125" lon="9.910051">
        <ele>708.4</ele>
        <time>2026-08-30T11:40:03Z</time>
      </trkpt>
      <trkpt lat="48.781112" lon="9.910065">
        <ele>708.6</ele>
        <time>2026-08-30T11:40:04Z</time>
      </trkpt>
      <trkpt lat="48.781103" lon="9.910080">
        <ele>708.8</ele>
        <time>2026-08-30T11:40:05Z</time>
      </trkpt>
      <trkpt lat="48.781091" lon="9.910092">
        <ele>709</ele>
        <time>2026-08-30T11:40:06Z</time>
      </trkpt>
      <trkpt lat="48.781083" lon="9.910103">
        <ele>709.2</ele>
        <time>2026-08-30T11:40:07Z</time>
      </trkpt>
      <trkpt lat="48.781074" lon="9.910117">
        <ele>709.2</ele>
        <time>2026-08-30T11:40:08Z</time>
      </trkpt>
      <trkpt lat="48.781068" lon="9.910131">
        <ele>709.4</ele>
        <time>2026-08-30T11:40:09Z</time>
      </trkpt>
      <trkpt lat="48.781060" lon="9.910146">
        <ele>709.6</ele>
        <time>2026-08-30T11:40:10Z</time>
      </trkpt>
      <trkpt lat="48.781052" lon="9.910163">
        <ele>709.8</ele>
        <time>2026-08-30T11:40:11Z</time>
      </trkpt>
      <trkpt lat="48.781044" lon="9.910179">
        <ele>710</ele>
        <time>2026-08-30T11:40:12Z</time>
      </trkpt>
      <trkpt lat="48.781036" lon="9.910188">
        <ele>710</ele>
        <time>2026-08-30T11:40:13Z</time>
      </trkpt>
      <trkpt lat="48.781022" lon="9.910198">
        <ele>710.4</ele>
        <time>2026-08-30T11:40:14Z</time>
      </trkpt>
      <trkpt lat="48.781010" lon="9.910212">
        <ele>710.6</ele>
        <time>2026-08-30T11:40:15Z</time>
      </trkpt>
      <trkpt lat="48.781001" lon="9.910232">
        <ele>710.6</ele>
        <time>2026-08-30T11:40:16Z</time>
      </trkpt>
      <trkpt lat="48.780992" lon="9.910250">
        <ele>710.8</ele>
        <time>2026-08-30T11:40:17Z</time>
      </trkpt>
      <trkpt lat="48.780982" lon="9.910259">
        <ele>711</ele>
        <time>2026-08-30T11:40:18Z</time>
      </trkpt>
      <trkpt lat="48.780970" lon="9.910272">
        <ele>711.4</ele>
        <time>2026-08-30T11:40:19Z</time>
      </trkpt>
      <trkpt lat="48.780961" lon="9.910289">
        <ele>711.4</ele>
        <time>2026-08-30T11:40:20Z</time>
      </trkpt>
      <trkpt lat="48.780952" lon="9.910309">
        <ele>711.6</ele>
        <time>2026-08-30T11:40:21Z</time>
      </trkpt>
      <trkpt lat="48.780944" lon="9.910331">
        <ele>711.8</ele>
        <time>2026-08-30T11:40:22Z</time>
      </trkpt>
      <trkpt lat="48.780936" lon="9.910355">
        <ele>712</ele>
        <time>2026-08-30T11:40:23Z</time>
      </trkpt>
      <trkpt lat="48.780930" lon="9.910376">
        <ele>712.2</ele>
        <time>2026-08-30T11:40:24Z</time>
      </trkpt>
      <trkpt lat="48.780925" lon="9.910396">
        <ele>712.4</ele>
        <time>2026-08-30T11:40:25Z</time>
      </trkpt>
      <trkpt lat="48.780920" lon="9.910412">
        <ele>712.6</ele>
        <time>2026-08-30T11:40:26Z</time>
      </trkpt>
      <trkpt lat="48.780914" lon="9.910429">
        <ele>712.8</ele>
        <time>2026-08-30T11:40:27Z</time>
      </trkpt>
      <trkpt lat="48.780909" lon="9.910446">
        <ele>713</ele>
        <time>2026-08-30T11:40:28Z</time>
      </trkpt>
      <trkpt lat="48.780905" lon="9.910466">
        <ele>713.2</ele>
        <time>2026-08-30T11:40:29Z</time>
      </trkpt>
      <trkpt lat="48.780898" lon="9.910487">
        <ele>713.4</ele>
        <time>2026-08-30T11:40:30Z</time>
      </trkpt>
      <trkpt lat="48.780890" lon="9.910509">
        <ele>713.6</ele>
        <time>2026-08-30T11:40:31Z</time>
      </trkpt>
      <trkpt lat="48.780882" lon="9.910530">
        <ele>713.8</ele>
        <time>2026-08-30T11:40:32Z</time>
      </trkpt>
      <trkpt lat="48.780877" lon="9.910547">
        <ele>714</ele>
        <time>2026-08-30T11:40:33Z</time>
      </trkpt>
      <trkpt lat="48.780874" lon="9.910570">
        <ele>714.2</ele>
        <time>2026-08-30T11:40:34Z</time>
      </trkpt>
      <trkpt lat="48.780870" lon="9.910590">
        <ele>714.4</ele>
        <time>2026-08-30T11:40:35Z</time>
      </trkpt>
      <trkpt lat="48.780864" lon="9.910611">
        <ele>714.4</ele>
        <time>2026-08-30T11:40:36Z</time>
      </trkpt>
      <trkpt lat="48.780861" lon="9.910631">
        <ele>714.6</ele>
        <time>2026-08-30T11:40:37Z</time>
      </trkpt>
      <trkpt lat="48.780857" lon="9.910648">
        <ele>714.8</ele>
        <time>2026-08-30T11:40:38Z</time>
      </trkpt>
      <trkpt lat="48.780854" lon="9.910667">
        <ele>715</ele>
        <time>2026-08-30T11:40:39Z</time>
      </trkpt>
      <trkpt lat="48.780852" lon="9.910691">
        <ele>715.2</ele>
        <time>2026-08-30T11:40:40Z</time>
      </trkpt>
      <trkpt lat="48.780847" lon="9.910712">
        <ele>715.4</ele>
        <time>2026-08-30T11:40:41Z</time>
      </trkpt>
      <trkpt lat="48.780843" lon="9.910728">
        <ele>715.6</ele>
        <time>2026-08-30T11:40:42Z</time>
      </trkpt>
      <trkpt lat="48.780839" lon="9.910748">
        <ele>715.6</ele>
        <time>2026-08-30T11:40:43Z</time>
      </trkpt>
      <trkpt lat="48.780835" lon="9.910770">
        <ele>715.8</ele>
        <time>2026-08-30T11:40:44Z</time>
      </trkpt>
      <trkpt lat="48.780833" lon="9.910794">
        <ele>716</ele>
        <time>2026-08-30T11:40:45Z</time>
      </trkpt>
      <trkpt lat="48.780832" lon="9.910817">
        <ele>716.2</ele>
        <time>2026-08-30T11:40:46Z</time>
      </trkpt>
      <trkpt lat="48.780829" lon="9.910839">
        <ele>716.4</ele>
        <time>2026-08-30T11:40:47Z</time>
      </trkpt>
      <trkpt lat="48.780825" lon="9.910862">
        <ele>716.4</ele>
        <time>2026-08-30T11:40:48Z</time>
      </trkpt>
      <trkpt lat="48.780817" lon="9.910889">
        <ele>716.6</ele>
        <time>2026-08-30T11:40:49Z</time>
      </trkpt>
      <trkpt lat="48.780813" lon="9.910908">
        <ele>716.8</ele>
        <time>2026-08-30T11:40:50Z</time>
      </trkpt>
      <trkpt lat="48.780810" lon="9.910924">
        <ele>716.8</ele>
        <time>2026-08-30T11:40:51Z</time>
      </trkpt>
      <trkpt lat="48.780806" lon="9.910942">
        <ele>717</ele>
        <time>2026-08-30T11:40:52Z</time>
      </trkpt>
      <trkpt lat="48.780799" lon="9.910965">
        <ele>717.2</ele>
        <time>2026-08-30T11:40:53Z</time>
      </trkpt>
      <trkpt lat="48.780794" lon="9.910975">
        <ele>717.4</ele>
        <time>2026-08-30T11:40:54Z</time>
      </trkpt>
      <trkpt lat="48.780791" lon="9.910989">
        <ele>717.4</ele>
        <time>2026-08-30T11:40:55Z</time>
      </trkpt>
      <trkpt lat="48.780786" lon="9.911016">
        <ele>717.6</ele>
        <time>2026-08-30T11:40:56Z</time>
      </trkpt>
      <trkpt lat="48.780783" lon="9.911039">
        <ele>717.8</ele>
        <time>2026-08-30T11:40:57Z</time>
      </trkpt>
      <trkpt lat="48.780779" lon="9.911058">
        <ele>718</ele>
        <time>2026-08-30T11:40:58Z</time>
      </trkpt>
      <trkpt lat="48.780775" lon="9.911080">
        <ele>718</ele>
        <time>2026-08-30T11:40:59Z</time>
      </trkpt>
      <trkpt lat="48.780766" lon="9.911096">
        <ele>718.2</ele>
        <time>2026-08-30T11:41:00Z</time>
      </trkpt>
      <trkpt lat="48.780753" lon="9.911105">
        <ele>718.4</ele>
        <time>2026-08-30T11:41:01Z</time>
      </trkpt>
      <trkpt lat="48.780739" lon="9.911116">
        <ele>718.6</ele>
        <time>2026-08-30T11:41:02Z</time>
      </trkpt>
      <trkpt lat="48.780727" lon="9.911120">
        <ele>718.6</ele>
        <time>2026-08-30T11:41:03Z</time>
      </trkpt>
      <trkpt lat="48.780718" lon="9.911132">
        <ele>718.8</ele>
        <time>2026-08-30T11:41:04Z</time>
      </trkpt>
      <trkpt lat="48.780709" lon="9.911148">
        <ele>719</ele>
        <time>2026-08-30T11:41:05Z</time>
      </trkpt>
      <trkpt lat="48.780700" lon="9.911161">
        <ele>719</ele>
        <time>2026-08-30T11:41:06Z</time>
      </trkpt>
      <trkpt lat="48.780688" lon="9.911173">
        <ele>719.2</ele>
        <time>2026-08-30T11:41:07Z</time>
      </trkpt>
      <trkpt lat="48.780674" lon="9.911185">
        <ele>719.4</ele>
        <time>2026-08-30T11:41:08Z</time>
      </trkpt>
      <trkpt lat="48.780662" lon="9.911196">
        <ele>719.4</ele>
        <time>2026-08-30T11:41:09Z</time>
      </trkpt>
      <trkpt lat="48.780648" lon="9.911206">
        <ele>719.6</ele>
        <time>2026-08-30T11:41:10Z</time>
      </trkpt>
      <trkpt lat="48.780636" lon="9.911216">
        <ele>719.6</ele>
        <time>2026-08-30T11:41:11Z</time>
      </trkpt>
      <trkpt lat="48.780626" lon="9.911226">
        <ele>719.8</ele>
        <time>2026-08-30T11:41:12Z</time>
      </trkpt>
      <trkpt lat="48.780614" lon="9.911232">
        <ele>720</ele>
        <time>2026-08-30T11:41:13Z</time>
      </trkpt>
      <trkpt lat="48.780600" lon="9.911240">
        <ele>720.2</ele>
        <time>2026-08-30T11:41:14Z</time>
      </trkpt>
      <trkpt lat="48.780587" lon="9.911247">
        <ele>720.2</ele>
        <time>2026-08-30T11:41:15Z</time>
      </trkpt>
      <trkpt lat="48.780574" lon="9.911258">
        <ele>720.4</ele>
        <time>2026-08-30T11:41:16Z</time>
      </trkpt>
      <trkpt lat="48.780561" lon="9.911271">
        <ele>720.4</ele>
        <time>2026-08-30T11:41:17Z</time>
      </trkpt>
      <trkpt lat="48.780549" lon="9.911284">
        <ele>720.4</ele>
        <time>2026-08-30T11:41:18Z</time>
      </trkpt>
      <trkpt lat="48.780540" lon="9.911300">
        <ele>720.6</ele>
        <time>2026-08-30T11:41:19Z</time>
      </trkpt>
      <trkpt lat="48.780527" lon="9.911319">
        <ele>720.6</ele>
        <time>2026-08-30T11:41:20Z</time>
      </trkpt>
      <trkpt lat="48.780514" lon="9.911337">
        <ele>720.6</ele>
        <time>2026-08-30T11:41:21Z</time>
      </trkpt>
      <trkpt lat="48.780504" lon="9.911359">
        <ele>720.6</ele>
        <time>2026-08-30T11:41:22Z</time>
      </trkpt>
      <trkpt lat="48.780494" lon="9.911391">
        <ele>720.6</ele>
        <time>2026-08-30T11:41:23Z</time>
      </trkpt>
      <trkpt lat="48.780485" lon="9.911424">
        <ele>720.6</ele>
        <time>2026-08-30T11:41:24Z</time>
      </trkpt>
      <trkpt lat="48.780479" lon="9.911454">
        <ele>720.6</ele>
        <time>2026-08-30T11:41:25Z</time>
      </trkpt>
      <trkpt lat="48.780473" lon="9.911487">
        <ele>720.6</ele>
        <time>2026-08-30T11:41:26Z</time>
      </trkpt>
      <trkpt lat="48.780468" lon="9.911514">
        <ele>720.8</ele>
        <time>2026-08-30T11:41:27Z</time>
      </trkpt>
      <trkpt lat="48.780465" lon="9.911544">
        <ele>720.8</ele>
        <time>2026-08-30T11:41:28Z</time>
      </trkpt>
      <trkpt lat="48.780461" lon="9.911581">
        <ele>720.8</ele>
        <time>2026-08-30T11:41:29Z</time>
      </trkpt>
      <trkpt lat="48.780462" lon="9.911613">
        <ele>721</ele>
        <time>2026-08-30T11:41:30Z</time>
      </trkpt>
      <trkpt lat="48.780463" lon="9.911654">
        <ele>721</ele>
        <time>2026-08-30T11:41:31Z</time>
      </trkpt>
      <trkpt lat="48.780464" lon="9.911690">
        <ele>721</ele>
        <time>2026-08-30T11:41:32Z</time>
      </trkpt>
      <trkpt lat="48.780466" lon="9.911729">
        <ele>721</ele>
        <time>2026-08-30T11:41:33Z</time>
      </trkpt>
      <trkpt lat="48.780471" lon="9.911768">
        <ele>721</ele>
        <time>2026-08-30T11:41:34Z</time>
      </trkpt>
      <trkpt lat="48.780478" lon="9.911801">
        <ele>721</ele>
        <time>2026-08-30T11:41:35Z</time>
      </trkpt>
      <trkpt lat="48.780483" lon="9.911842">
        <ele>721</ele>
        <time>2026-08-30T11:41:36Z</time>
      </trkpt>
      <trkpt lat="48.780489" lon="9.911878">
        <ele>721</ele>
        <time>2026-08-30T11:41:37Z</time>
      </trkpt>
      <trkpt lat="48.780498" lon="9.911917">
        <ele>721</ele>
        <time>2026-08-30T11:41:38Z</time>
      </trkpt>
      <trkpt lat="48.780507" lon="9.911954">
        <ele>721.2</ele>
        <time>2026-08-30T11:41:39Z</time>
      </trkpt>
      <trkpt lat="48.780515" lon="9.911992">
        <ele>721.2</ele>
        <time>2026-08-30T11:41:40Z</time>
      </trkpt>
      <trkpt lat="48.780517" lon="9.912032">
        <ele>721.2</ele>
        <time>2026-08-30T11:41:41Z</time>
      </trkpt>
      <trkpt lat="48.780509" lon="9.912065">
        <ele>721.2</ele>
        <time>2026-08-30T11:41:42Z</time>
      </trkpt>
      <trkpt lat="48.780498" lon="9.912100">
        <ele>721.4</ele>
        <time>2026-08-30T11:41:43Z</time>
      </trkpt>
      <trkpt lat="48.780485" lon="9.912138">
        <ele>721.4</ele>
        <time>2026-08-30T11:41:44Z</time>
      </trkpt>
      <trkpt lat="48.780472" lon="9.912178">
        <ele>721.4</ele>
        <time>2026-08-30T11:41:45Z</time>
      </trkpt>
      <trkpt lat="48.780461" lon="9.912223">
        <ele>721.4</ele>
        <time>2026-08-30T11:41:46Z</time>
      </trkpt>
      <trkpt lat="48.780451" lon="9.912265">
        <ele>721.2</ele>
        <time>2026-08-30T11:41:47Z</time>
      </trkpt>
      <trkpt lat="48.780436" lon="9.912304">
        <ele>721.2</ele>
        <time>2026-08-30T11:41:48Z</time>
      </trkpt>
      <trkpt lat="48.780419" lon="9.912345">
        <ele>721.2</ele>
        <time>2026-08-30T11:41:49Z</time>
      </trkpt>
      <trkpt lat="48.780409" lon="9.912387">
        <ele>721.2</ele>
        <time>2026-08-30T11:41:50Z</time>
      </trkpt>
      <trkpt lat="48.780399" lon="9.912432">
        <ele>721.2</ele>
        <time>2026-08-30T11:41:51Z</time>
      </trkpt>
      <trkpt lat="48.780400" lon="9.912477">
        <ele>721.2</ele>
        <time>2026-08-30T11:41:52Z</time>
      </trkpt>
      <trkpt lat="48.780402" lon="9.912526">
        <ele>721.2</ele>
        <time>2026-08-30T11:41:53Z</time>
      </trkpt>
      <trkpt lat="48.780405" lon="9.912553">
        <ele>721.2</ele>
        <time>2026-08-30T11:41:54Z</time>
      </trkpt>
      <trkpt lat="48.780405" lon="9.912579">
        <ele>721.2</ele>
        <time>2026-08-30T11:41:55Z</time>
      </trkpt>
      <trkpt lat="48.780405" lon="9.912607">
        <ele>721.4</ele>
        <time>2026-08-30T11:41:56Z</time>
      </trkpt>
      <trkpt lat="48.780406" lon="9.912639">
        <ele>721.4</ele>
        <time>2026-08-30T11:41:57Z</time>
      </trkpt>
      <trkpt lat="48.780405" lon="9.912676">
        <ele>721.6</ele>
        <time>2026-08-30T11:41:58Z</time>
      </trkpt>
      <trkpt lat="48.780401" lon="9.912712">
        <ele>721.6</ele>
        <time>2026-08-30T11:41:59Z</time>
      </trkpt>
      <trkpt lat="48.780399" lon="9.912745">
        <ele>721.6</ele>
        <time>2026-08-30T11:42:00Z</time>
      </trkpt>
      <trkpt lat="48.780398" lon="9.912783">
        <ele>721.6</ele>
        <time>2026-08-30T11:42:01Z</time>
      </trkpt>
      <trkpt lat="48.780396" lon="9.912808">
        <ele>721.6</ele>
        <time>2026-08-30T11:42:02Z</time>
      </trkpt>
      <trkpt lat="48.780393" lon="9.912831">
        <ele>721.4</ele>
        <time>2026-08-30T11:42:03Z</time>
      </trkpt>
      <trkpt lat="48.780390" lon="9.912864">
        <ele>721.4</ele>
        <time>2026-08-30T11:42:04Z</time>
      </trkpt>
      <trkpt lat="48.780389" lon="9.912900">
        <ele>721.2</ele>
        <time>2026-08-30T11:42:05Z</time>
      </trkpt>
      <trkpt lat="48.780393" lon="9.912931">
        <ele>721.2</ele>
        <time>2026-08-30T11:42:06Z</time>
      </trkpt>
      <trkpt lat="48.780402" lon="9.912960">
        <ele>721.2</ele>
        <time>2026-08-30T11:42:07Z</time>
      </trkpt>
      <trkpt lat="48.780409" lon="9.912984">
        <ele>721</ele>
        <time>2026-08-30T11:42:08Z</time>
      </trkpt>
      <trkpt lat="48.780415" lon="9.913012">
        <ele>721</ele>
        <time>2026-08-30T11:42:09Z</time>
      </trkpt>
      <trkpt lat="48.780423" lon="9.913044">
        <ele>721</ele>
        <time>2026-08-30T11:42:10Z</time>
      </trkpt>
      <trkpt lat="48.780424" lon="9.913073">
        <ele>721.2</ele>
        <time>2026-08-30T11:42:11Z</time>
      </trkpt>
      <trkpt lat="48.780425" lon="9.913103">
        <ele>721.2</ele>
        <time>2026-08-30T11:42:12Z</time>
      </trkpt>
      <trkpt lat="48.780420" lon="9.913124">
        <ele>721.4</ele>
        <time>2026-08-30T11:42:13Z</time>
      </trkpt>
      <trkpt lat="48.780411" lon="9.913150">
        <ele>721.6</ele>
        <time>2026-08-30T11:42:14Z</time>
      </trkpt>
      <trkpt lat="48.780407" lon="9.913175">
        <ele>721.8</ele>
        <time>2026-08-30T11:42:15Z</time>
      </trkpt>
      <trkpt lat="48.780402" lon="9.913200">
        <ele>721.8</ele>
        <time>2026-08-30T11:42:16Z</time>
      </trkpt>
      <trkpt lat="48.780397" lon="9.913226">
        <ele>722</ele>
        <time>2026-08-30T11:42:17Z</time>
      </trkpt>
      <trkpt lat="48.780398" lon="9.913248">
        <ele>722</ele>
        <time>2026-08-30T11:42:18Z</time>
      </trkpt>
      <trkpt lat="48.780399" lon="9.913277">
        <ele>722.2</ele>
        <time>2026-08-30T11:42:19Z</time>
      </trkpt>
      <trkpt lat="48.780401" lon="9.913300">
        <ele>722.4</ele>
        <time>2026-08-30T11:42:20Z</time>
      </trkpt>
      <trkpt lat="48.780403" lon="9.913319">
        <ele>722.6</ele>
        <time>2026-08-30T11:42:21Z</time>
      </trkpt>
      <trkpt lat="48.780402" lon="9.913341">
        <ele>722.6</ele>
        <time>2026-08-30T11:42:22Z</time>
      </trkpt>
      <trkpt lat="48.780400" lon="9.913366">
        <ele>722.8</ele>
        <time>2026-08-30T11:42:23Z</time>
      </trkpt>
      <trkpt lat="48.780399" lon="9.913390">
        <ele>722.8</ele>
        <time>2026-08-30T11:42:24Z</time>
      </trkpt>
      <trkpt lat="48.780399" lon="9.913418">
        <ele>723</ele>
        <time>2026-08-30T11:42:25Z</time>
      </trkpt>
      <trkpt lat="48.780394" lon="9.913452">
        <ele>723</ele>
        <time>2026-08-30T11:42:26Z</time>
      </trkpt>
      <trkpt lat="48.780390" lon="9.913491">
        <ele>723</ele>
        <time>2026-08-30T11:42:27Z</time>
      </trkpt>
      <trkpt lat="48.780389" lon="9.913527">
        <ele>722.8</ele>
        <time>2026-08-30T11:42:28Z</time>
      </trkpt>
      <trkpt lat="48.780378" lon="9.913558">
        <ele>722.8</ele>
        <time>2026-08-30T11:42:29Z</time>
      </trkpt>
      <trkpt lat="48.780360" lon="9.913590">
        <ele>722.6</ele>
        <time>2026-08-30T11:42:30Z</time>
      </trkpt>
      <trkpt lat="48.780348" lon="9.913637">
        <ele>722.4</ele>
        <time>2026-08-30T11:42:31Z</time>
      </trkpt>
      <trkpt lat="48.780347" lon="9.913687">
        <ele>722.2</ele>
        <time>2026-08-30T11:42:32Z</time>
      </trkpt>
      <trkpt lat="48.780328" lon="9.913733">
        <ele>721.8</ele>
        <time>2026-08-30T11:42:33Z</time>
      </trkpt>
      <trkpt lat="48.780319" lon="9.913770">
        <ele>721.6</ele>
        <time>2026-08-30T11:42:34Z</time>
      </trkpt>
      <trkpt lat="48.780306" lon="9.913820">
        <ele>721.2</ele>
        <time>2026-08-30T11:42:35Z</time>
      </trkpt>
      <trkpt lat="48.780295" lon="9.913873">
        <ele>721</ele>
        <time>2026-08-30T11:42:36Z</time>
      </trkpt>
      <trkpt lat="48.780286" lon="9.913920">
        <ele>720.8</ele>
        <time>2026-08-30T11:42:37Z</time>
      </trkpt>
      <trkpt lat="48.780277" lon="9.913968">
        <ele>720.6</ele>
        <time>2026-08-30T11:42:38Z</time>
      </trkpt>
      <trkpt lat="48.780273" lon="9.914016">
        <ele>720.4</ele>
        <time>2026-08-30T11:42:39Z</time>
      </trkpt>
      <trkpt lat="48.780267" lon="9.914061">
        <ele>720.2</ele>
        <time>2026-08-30T11:42:40Z</time>
      </trkpt>
      <trkpt lat="48.780259" lon="9.914102">
        <ele>720</ele>
        <time>2026-08-30T11:42:41Z</time>
      </trkpt>
      <trkpt lat="48.780252" lon="9.914143">
        <ele>720</ele>
        <time>2026-08-30T11:42:42Z</time>
      </trkpt>
      <trkpt lat="48.780245" lon="9.914186">
        <ele>719.8</ele>
        <time>2026-08-30T11:42:43Z</time>
      </trkpt>
      <trkpt lat="48.780232" lon="9.914238">
        <ele>719.6</ele>
        <time>2026-08-30T11:42:44Z</time>
      </trkpt>
      <trkpt lat="48.780222" lon="9.914293">
        <ele>719.4</ele>
        <time>2026-08-30T11:42:45Z</time>
      </trkpt>
      <trkpt lat="48.780204" lon="9.914358">
        <ele>719.2</ele>
        <time>2026-08-30T11:42:46Z</time>
      </trkpt>
      <trkpt lat="48.780178" lon="9.914443">
        <ele>718.8</ele>
        <time>2026-08-30T11:42:47Z</time>
      </trkpt>
      <trkpt lat="48.780169" lon="9.914512">
        <ele>718.4</ele>
        <time>2026-08-30T11:42:48Z</time>
      </trkpt>
      <trkpt lat="48.780157" lon="9.914569">
        <ele>718.2</ele>
        <time>2026-08-30T11:42:49Z</time>
      </trkpt>
      <trkpt lat="48.780149" lon="9.914612">
        <ele>718</ele>
        <time>2026-08-30T11:42:50Z</time>
      </trkpt>
      <trkpt lat="48.780138" lon="9.914647">
        <ele>718</ele>
        <time>2026-08-30T11:42:51Z</time>
      </trkpt>
      <trkpt lat="48.780122" lon="9.914685">
        <ele>718.2</ele>
        <time>2026-08-30T11:42:52Z</time>
      </trkpt>
      <trkpt lat="48.780110" lon="9.914704">
        <ele>718.4</ele>
        <time>2026-08-30T11:42:53Z</time>
      </trkpt>
      <trkpt lat="48.780099" lon="9.914725">
        <ele>718.6</ele>
        <time>2026-08-30T11:42:54Z</time>
      </trkpt>
      <trkpt lat="48.780087" lon="9.914746">
        <ele>718.8</ele>
        <time>2026-08-30T11:42:55Z</time>
      </trkpt>
      <trkpt lat="48.780074" lon="9.914778">
        <ele>718.8</ele>
        <time>2026-08-30T11:42:56Z</time>
      </trkpt>
      <trkpt lat="48.780068" lon="9.914804">
        <ele>719</ele>
        <time>2026-08-30T11:42:57Z</time>
      </trkpt>
      <trkpt lat="48.780053" lon="9.914832">
        <ele>719.2</ele>
        <time>2026-08-30T11:42:58Z</time>
      </trkpt>
      <trkpt lat="48.780038" lon="9.914866">
        <ele>719.2</ele>
        <time>2026-08-30T11:42:59Z</time>
      </trkpt>
      <trkpt lat="48.780027" lon="9.914903">
        <ele>719.4</ele>
        <time>2026-08-30T11:43:00Z</time>
      </trkpt>
      <trkpt lat="48.780020" lon="9.914931">
        <ele>719.6</ele>
        <time>2026-08-30T11:43:01Z</time>
      </trkpt>
      <trkpt lat="48.780015" lon="9.914957">
        <ele>719.6</ele>
        <time>2026-08-30T11:43:02Z</time>
      </trkpt>
      <trkpt lat="48.780008" lon="9.914978">
        <ele>719.8</ele>
        <time>2026-08-30T11:43:03Z</time>
      </trkpt>
      <trkpt lat="48.779999" lon="9.915007">
        <ele>720</ele>
        <time>2026-08-30T11:43:04Z</time>
      </trkpt>
      <trkpt lat="48.779998" lon="9.915024">
        <ele>720.2</ele>
        <time>2026-08-30T11:43:05Z</time>
      </trkpt>
      <trkpt lat="48.779999" lon="9.915039">
        <ele>720.4</ele>
        <time>2026-08-30T11:43:06Z</time>
      </trkpt>
      <trkpt lat="48.779994" lon="9.915053">
        <ele>720.6</ele>
        <time>2026-08-30T11:43:07Z</time>
      </trkpt>
      <trkpt lat="48.779985" lon="9.915069">
        <ele>721</ele>
        <time>2026-08-30T11:43:08Z</time>
      </trkpt>
      <trkpt lat="48.779977" lon="9.915093">
        <ele>721</ele>
        <time>2026-08-30T11:43:09Z</time>
      </trkpt>
      <trkpt lat="48.779965" lon="9.915125">
        <ele>721.2</ele>
        <time>2026-08-30T11:43:10Z</time>
      </trkpt>
      <trkpt lat="48.779955" lon="9.915158">
        <ele>721.2</ele>
        <time>2026-08-30T11:43:11Z</time>
      </trkpt>
      <trkpt lat="48.779944" lon="9.915191">
        <ele>721.2</ele>
        <time>2026-08-30T11:43:12Z</time>
      </trkpt>
      <trkpt lat="48.779940" lon="9.915217">
        <ele>721.2</ele>
        <time>2026-08-30T11:43:13Z</time>
      </trkpt>
      <trkpt lat="48.779938" lon="9.915247">
        <ele>721.2</ele>
        <time>2026-08-30T11:43:14Z</time>
      </trkpt>
      <trkpt lat="48.779936" lon="9.915276">
        <ele>721.2</ele>
        <time>2026-08-30T11:43:15Z</time>
      </trkpt>
      <trkpt lat="48.779937" lon="9.915302">
        <ele>721.2</ele>
        <time>2026-08-30T11:43:16Z</time>
      </trkpt>
      <trkpt lat="48.779942" lon="9.915329">
        <ele>721.4</ele>
        <time>2026-08-30T11:43:17Z</time>
      </trkpt>
      <trkpt lat="48.779948" lon="9.915348">
        <ele>721.4</ele>
        <time>2026-08-30T11:43:18Z</time>
      </trkpt>
      <trkpt lat="48.779949" lon="9.915362">
        <ele>721.6</ele>
        <time>2026-08-30T11:43:19Z</time>
      </trkpt>
      <trkpt lat="48.779949" lon="9.915383">
        <ele>721.6</ele>
        <time>2026-08-30T11:43:20Z</time>
      </trkpt>
      <trkpt lat="48.779956" lon="9.915407">
        <ele>721.8</ele>
        <time>2026-08-30T11:43:21Z</time>
      </trkpt>
      <trkpt lat="48.779963" lon="9.915424">
        <ele>722</ele>
        <time>2026-08-30T11:43:22Z</time>
      </trkpt>
      <trkpt lat="48.779966" lon="9.915448">
        <ele>722</ele>
        <time>2026-08-30T11:43:23Z</time>
      </trkpt>
      <trkpt lat="48.779970" lon="9.915465">
        <ele>722.2</ele>
        <time>2026-08-30T11:43:24Z</time>
      </trkpt>
      <trkpt lat="48.779967" lon="9.915484">
        <ele>722.4</ele>
        <time>2026-08-30T11:43:25Z</time>
      </trkpt>
      <trkpt lat="48.779969" lon="9.915512">
        <ele>722.4</ele>
        <time>2026-08-30T11:43:26Z</time>
      </trkpt>
      <trkpt lat="48.779965" lon="9.915534">
        <ele>722.6</ele>
        <time>2026-08-30T11:43:27Z</time>
      </trkpt>
      <trkpt lat="48.779961" lon="9.915558">
        <ele>722.8</ele>
        <time>2026-08-30T11:43:28Z</time>
      </trkpt>
      <trkpt lat="48.779956" lon="9.915583">
        <ele>722.8</ele>
        <time>2026-08-30T11:43:29Z</time>
      </trkpt>
      <trkpt lat="48.779951" lon="9.915603">
        <ele>723</ele>
        <time>2026-08-30T11:43:30Z</time>
      </trkpt>
      <trkpt lat="48.779944" lon="9.915632">
        <ele>723.2</ele>
        <time>2026-08-30T11:43:31Z</time>
      </trkpt>
      <trkpt lat="48.779937" lon="9.915656">
        <ele>723.2</ele>
        <time>2026-08-30T11:43:32Z</time>
      </trkpt>
      <trkpt lat="48.779939" lon="9.915675">
        <ele>723.4</ele>
        <time>2026-08-30T11:43:33Z</time>
      </trkpt>
      <trkpt lat="48.779944" lon="9.915694">
        <ele>723.4</ele>
        <time>2026-08-30T11:43:34Z</time>
      </trkpt>
      <trkpt lat="48.779948" lon="9.915715">
        <ele>723.6</ele>
        <time>2026-08-30T11:43:35Z</time>
      </trkpt>
      <trkpt lat="48.779955" lon="9.915743">
        <ele>723.6</ele>
        <time>2026-08-30T11:43:36Z</time>
      </trkpt>
      <trkpt lat="48.779962" lon="9.915777">
        <ele>723.6</ele>
        <time>2026-08-30T11:43:37Z</time>
      </trkpt>
      <trkpt lat="48.779963" lon="9.915810">
        <ele>723.6</ele>
        <time>2026-08-30T11:43:38Z</time>
      </trkpt>
      <trkpt lat="48.779961" lon="9.915843">
        <ele>723.4</ele>
        <time>2026-08-30T11:43:39Z</time>
      </trkpt>
      <trkpt lat="48.779959" lon="9.915882">
        <ele>723.4</ele>
        <time>2026-08-30T11:43:40Z</time>
      </trkpt>
      <trkpt lat="48.779967" lon="9.915915">
        <ele>723.2</ele>
        <time>2026-08-30T11:43:41Z</time>
      </trkpt>
      <trkpt lat="48.779971" lon="9.915954">
        <ele>723.2</ele>
        <time>2026-08-30T11:43:42Z</time>
      </trkpt>
      <trkpt lat="48.779974" lon="9.915996">
        <ele>723</ele>
        <time>2026-08-30T11:43:43Z</time>
      </trkpt>
      <trkpt lat="48.779973" lon="9.916045">
        <ele>722.8</ele>
        <time>2026-08-30T11:43:44Z</time>
      </trkpt>
      <trkpt lat="48.779982" lon="9.916078">
        <ele>722.8</ele>
        <time>2026-08-30T11:43:45Z</time>
      </trkpt>
      <trkpt lat="48.779987" lon="9.916117">
        <ele>722.8</ele>
        <time>2026-08-30T11:43:46Z</time>
      </trkpt>
      <trkpt lat="48.779985" lon="9.916158">
        <ele>722.6</ele>
        <time>2026-08-30T11:43:47Z</time>
      </trkpt>
      <trkpt lat="48.779980" lon="9.916192">
        <ele>722.6</ele>
        <time>2026-08-30T11:43:48Z</time>
      </trkpt>
      <trkpt lat="48.779982" lon="9.916234">
        <ele>722.4</ele>
        <time>2026-08-30T11:43:49Z</time>
      </trkpt>
      <trkpt lat="48.779989" lon="9.916271">
        <ele>722.4</ele>
        <time>2026-08-30T11:43:50Z</time>
      </trkpt>
      <trkpt lat="48.779995" lon="9.916305">
        <ele>722.4</ele>
        <time>2026-08-30T11:43:51Z</time>
      </trkpt>
      <trkpt lat="48.779995" lon="9.916345">
        <ele>722.2</ele>
        <time>2026-08-30T11:43:52Z</time>
      </trkpt>
      <trkpt lat="48.779987" lon="9.916392">
        <ele>722.2</ele>
        <time>2026-08-30T11:43:53Z</time>
      </trkpt>
      <trkpt lat="48.779981" lon="9.916437">
        <ele>722</ele>
        <time>2026-08-30T11:43:54Z</time>
      </trkpt>
      <trkpt lat="48.779973" lon="9.916482">
        <ele>722</ele>
        <time>2026-08-30T11:43:55Z</time>
      </trkpt>
      <trkpt lat="48.779972" lon="9.916513">
        <ele>722</ele>
        <time>2026-08-30T11:43:56Z</time>
      </trkpt>
      <trkpt lat="48.779977" lon="9.916551">
        <ele>721.8</ele>
        <time>2026-08-30T11:43:57Z</time>
      </trkpt>
      <trkpt lat="48.779985" lon="9.916584">
        <ele>721.8</ele>
        <time>2026-08-30T11:43:58Z</time>
      </trkpt>
      <trkpt lat="48.779988" lon="9.916623">
        <ele>721.6</ele>
        <time>2026-08-30T11:43:59Z</time>
      </trkpt>
      <trkpt lat="48.779993" lon="9.916656">
        <ele>721.6</ele>
        <time>2026-08-30T11:44:00Z</time>
      </trkpt>
      <trkpt lat="48.779994" lon="9.916691">
        <ele>721.6</ele>
        <time>2026-08-30T11:44:01Z</time>
      </trkpt>
      <trkpt lat="48.779996" lon="9.916720">
        <ele>721.4</ele>
        <time>2026-08-30T11:44:02Z</time>
      </trkpt>
      <trkpt lat="48.779995" lon="9.916751">
        <ele>721.2</ele>
        <time>2026-08-30T11:44:03Z</time>
      </trkpt>
      <trkpt lat="48.780001" lon="9.916781">
        <ele>721.2</ele>
        <time>2026-08-30T11:44:04Z</time>
      </trkpt>
      <trkpt lat="48.780009" lon="9.916800">
        <ele>720.8</ele>
        <time>2026-08-30T11:44:05Z</time>
      </trkpt>
      <trkpt lat="48.780014" lon="9.916807">
        <ele>720.6</ele>
        <time>2026-08-30T11:44:06Z</time>
      </trkpt>
      <trkpt lat="48.780012" lon="9.916803">
        <ele>720.4</ele>
        <time>2026-08-30T11:44:07Z</time>
      </trkpt>
      <trkpt lat="48.780013" lon="9.916804">
        <ele>720</ele>
        <time>2026-08-30T11:44:08Z</time>
      </trkpt>
      <trkpt lat="48.780013" lon="9.916804">
        <ele>719.8</ele>
        <time>2026-08-30T11:44:09Z</time>
      </trkpt>
      <trkpt lat="48.780021" lon="9.916822">
        <ele>719.8</ele>
        <time>2026-08-30T11:44:10Z</time>
      </trkpt>
      <trkpt lat="48.780025" lon="9.916847">
        <ele>719.6</ele>
        <time>2026-08-30T11:44:11Z</time>
      </trkpt>
      <trkpt lat="48.780035" lon="9.916877">
        <ele>719.4</ele>
        <time>2026-08-30T11:44:12Z</time>
      </trkpt>
      <trkpt lat="48.780041" lon="9.916903">
        <ele>719.4</ele>
        <time>2026-08-30T11:44:13Z</time>
      </trkpt>
      <trkpt lat="48.780050" lon="9.916943">
        <ele>719.2</ele>
        <time>2026-08-30T11:44:14Z</time>
      </trkpt>
      <trkpt lat="48.780059" lon="9.916982">
        <ele>719</ele>
        <time>2026-08-30T11:44:15Z</time>
      </trkpt>
      <trkpt lat="48.780062" lon="9.917031">
        <ele>718.8</ele>
        <time>2026-08-30T11:44:16Z</time>
      </trkpt>
      <trkpt lat="48.780065" lon="9.917074">
        <ele>718.6</ele>
        <time>2026-08-30T11:44:17Z</time>
      </trkpt>
      <trkpt lat="48.780067" lon="9.917119">
        <ele>718.4</ele>
        <time>2026-08-30T11:44:18Z</time>
      </trkpt>
      <trkpt lat="48.780070" lon="9.917168">
        <ele>718</ele>
        <time>2026-08-30T11:44:19Z</time>
      </trkpt>
      <trkpt lat="48.780074" lon="9.917208">
        <ele>717.8</ele>
        <time>2026-08-30T11:44:20Z</time>
      </trkpt>
      <trkpt lat="48.780075" lon="9.917236">
        <ele>717.4</ele>
        <time>2026-08-30T11:44:21Z</time>
      </trkpt>
      <trkpt lat="48.780083" lon="9.917272">
        <ele>717.2</ele>
        <time>2026-08-30T11:44:22Z</time>
      </trkpt>
      <trkpt lat="48.780088" lon="9.917305">
        <ele>716.8</ele>
        <time>2026-08-30T11:44:23Z</time>
      </trkpt>
      <trkpt lat="48.780094" lon="9.917331">
        <ele>716.4</ele>
        <time>2026-08-30T11:44:24Z</time>
      </trkpt>
      <trkpt lat="48.780102" lon="9.917356">
        <ele>716</ele>
        <time>2026-08-30T11:44:25Z</time>
      </trkpt>
      <trkpt lat="48.780112" lon="9.917382">
        <ele>715.6</ele>
        <time>2026-08-30T11:44:26Z</time>
      </trkpt>
      <trkpt lat="48.780115" lon="9.917412">
        <ele>715.2</ele>
        <time>2026-08-30T11:44:27Z</time>
      </trkpt>
      <trkpt lat="48.780129" lon="9.917436">
        <ele>714.8</ele>
        <time>2026-08-30T11:44:28Z</time>
      </trkpt>
      <trkpt lat="48.780144" lon="9.917455">
        <ele>714.2</ele>
        <time>2026-08-30T11:44:29Z</time>
      </trkpt>
      <trkpt lat="48.780151" lon="9.917479">
        <ele>713.6</ele>
        <time>2026-08-30T11:44:30Z</time>
      </trkpt>
      <trkpt lat="48.780160" lon="9.917513">
        <ele>713</ele>
        <time>2026-08-30T11:44:31Z</time>
      </trkpt>
      <trkpt lat="48.780167" lon="9.917548">
        <ele>712.6</ele>
        <time>2026-08-30T11:44:32Z</time>
      </trkpt>
      <trkpt lat="48.780180" lon="9.917591">
        <ele>712</ele>
        <time>2026-08-30T11:44:33Z</time>
      </trkpt>
      <trkpt lat="48.780195" lon="9.917638">
        <ele>711.2</ele>
        <time>2026-08-30T11:44:34Z</time>
      </trkpt>
      <trkpt lat="48.780218" lon="9.917689">
        <ele>710.6</ele>
        <time>2026-08-30T11:44:35Z</time>
      </trkpt>
      <trkpt lat="48.780239" lon="9.917745">
        <ele>710</ele>
        <time>2026-08-30T11:44:36Z</time>
      </trkpt>
      <trkpt lat="48.780258" lon="9.917809">
        <ele>709.4</ele>
        <time>2026-08-30T11:44:37Z</time>
      </trkpt>
      <trkpt lat="48.780272" lon="9.917870">
        <ele>709</ele>
        <time>2026-08-30T11:44:38Z</time>
      </trkpt>
      <trkpt lat="48.780283" lon="9.917931">
        <ele>708.4</ele>
        <time>2026-08-30T11:44:39Z</time>
      </trkpt>
      <trkpt lat="48.780300" lon="9.917989">
        <ele>708</ele>
        <time>2026-08-30T11:44:40Z</time>
      </trkpt>
      <trkpt lat="48.780309" lon="9.918034">
        <ele>707.6</ele>
        <time>2026-08-30T11:44:41Z</time>
      </trkpt>
      <trkpt lat="48.780322" lon="9.918080">
        <ele>707.2</ele>
        <time>2026-08-30T11:44:42Z</time>
      </trkpt>
      <trkpt lat="48.780345" lon="9.918118">
        <ele>706.8</ele>
        <time>2026-08-30T11:44:43Z</time>
      </trkpt>
      <trkpt lat="48.780362" lon="9.918139">
        <ele>706.4</ele>
        <time>2026-08-30T11:44:44Z</time>
      </trkpt>
      <trkpt lat="48.780377" lon="9.918171">
        <ele>706.2</ele>
        <time>2026-08-30T11:44:45Z</time>
      </trkpt>
      <trkpt lat="48.780399" lon="9.918196">
        <ele>705.8</ele>
        <time>2026-08-30T11:44:46Z</time>
      </trkpt>
      <trkpt lat="48.780427" lon="9.918216">
        <ele>705.4</ele>
        <time>2026-08-30T11:44:47Z</time>
      </trkpt>
      <trkpt lat="48.780457" lon="9.918231">
        <ele>705.2</ele>
        <time>2026-08-30T11:44:48Z</time>
      </trkpt>
      <trkpt lat="48.780485" lon="9.918257">
        <ele>704.6</ele>
        <time>2026-08-30T11:44:49Z</time>
      </trkpt>
      <trkpt lat="48.780508" lon="9.918279">
        <ele>704.2</ele>
        <time>2026-08-30T11:44:50Z</time>
      </trkpt>
      <trkpt lat="48.780524" lon="9.918300">
        <ele>703.8</ele>
        <time>2026-08-30T11:44:51Z</time>
      </trkpt>
      <trkpt lat="48.780545" lon="9.918315">
        <ele>703.4</ele>
        <time>2026-08-30T11:44:52Z</time>
      </trkpt>
      <trkpt lat="48.780566" lon="9.918327">
        <ele>703.2</ele>
        <time>2026-08-30T11:44:53Z</time>
      </trkpt>
      <trkpt lat="48.780587" lon="9.918339">
        <ele>702.8</ele>
        <time>2026-08-30T11:44:54Z</time>
      </trkpt>
      <trkpt lat="48.780611" lon="9.918348">
        <ele>702.4</ele>
        <time>2026-08-30T11:44:55Z</time>
      </trkpt>
      <trkpt lat="48.780641" lon="9.918349">
        <ele>702.2</ele>
        <time>2026-08-30T11:44:56Z</time>
      </trkpt>
      <trkpt lat="48.780673" lon="9.918358">
        <ele>702</ele>
        <time>2026-08-30T11:44:57Z</time>
      </trkpt>
      <trkpt lat="48.780703" lon="9.918371">
        <ele>701.8</ele>
        <time>2026-08-30T11:44:58Z</time>
      </trkpt>
      <trkpt lat="48.780737" lon="9.918391">
        <ele>701.4</ele>
        <time>2026-08-30T11:44:59Z</time>
      </trkpt>
      <trkpt lat="48.780778" lon="9.918408">
        <ele>701</ele>
        <time>2026-08-30T11:45:00Z</time>
      </trkpt>
      <trkpt lat="48.780818" lon="9.918428">
        <ele>700.6</ele>
        <time>2026-08-30T11:45:01Z</time>
      </trkpt>
      <trkpt lat="48.780859" lon="9.918446">
        <ele>700</ele>
        <time>2026-08-30T11:45:02Z</time>
      </trkpt>
      <trkpt lat="48.780903" lon="9.918459">
        <ele>699.4</ele>
        <time>2026-08-30T11:45:03Z</time>
      </trkpt>
      <trkpt lat="48.780951" lon="9.918474">
        <ele>698.6</ele>
        <time>2026-08-30T11:45:04Z</time>
      </trkpt>
      <trkpt lat="48.781007" lon="9.918489">
        <ele>697.8</ele>
        <time>2026-08-30T11:45:05Z</time>
      </trkpt>
      <trkpt lat="48.781066" lon="9.918496">
        <ele>697.2</ele>
        <time>2026-08-30T11:45:06Z</time>
      </trkpt>
      <trkpt lat="48.781122" lon="9.918505">
        <ele>696.6</ele>
        <time>2026-08-30T11:45:07Z</time>
      </trkpt>
      <trkpt lat="48.781178" lon="9.918516">
        <ele>696</ele>
        <time>2026-08-30T11:45:08Z</time>
      </trkpt>
      <trkpt lat="48.781226" lon="9.918522">
        <ele>695.4</ele>
        <time>2026-08-30T11:45:09Z</time>
      </trkpt>
      <trkpt lat="48.781270" lon="9.918528">
        <ele>695.2</ele>
        <time>2026-08-30T11:45:10Z</time>
      </trkpt>
      <trkpt lat="48.781313" lon="9.918527">
        <ele>695</ele>
        <time>2026-08-30T11:45:11Z</time>
      </trkpt>
      <trkpt lat="48.781340" lon="9.918534">
        <ele>695</ele>
        <time>2026-08-30T11:45:12Z</time>
      </trkpt>
      <trkpt lat="48.781372" lon="9.918538">
        <ele>695.2</ele>
        <time>2026-08-30T11:45:13Z</time>
      </trkpt>
      <trkpt lat="48.781398" lon="9.918546">
        <ele>695.2</ele>
        <time>2026-08-30T11:45:14Z</time>
      </trkpt>
      <trkpt lat="48.781430" lon="9.918552">
        <ele>695.4</ele>
        <time>2026-08-30T11:45:15Z</time>
      </trkpt>
      <trkpt lat="48.781463" lon="9.918551">
        <ele>695.4</ele>
        <time>2026-08-30T11:45:16Z</time>
      </trkpt>
      <trkpt lat="48.781492" lon="9.918557">
        <ele>695.4</ele>
        <time>2026-08-30T11:45:17Z</time>
      </trkpt>
      <trkpt lat="48.781516" lon="9.918570">
        <ele>695.6</ele>
        <time>2026-08-30T11:45:18Z</time>
      </trkpt>
      <trkpt lat="48.781548" lon="9.918582">
        <ele>695.6</ele>
        <time>2026-08-30T11:45:19Z</time>
      </trkpt>
      <trkpt lat="48.781576" lon="9.918593">
        <ele>695.8</ele>
        <time>2026-08-30T11:45:20Z</time>
      </trkpt>
      <trkpt lat="48.781609" lon="9.918595">
        <ele>695.8</ele>
        <time>2026-08-30T11:45:21Z</time>
      </trkpt>
      <trkpt lat="48.781638" lon="9.918602">
        <ele>696</ele>
        <time>2026-08-30T11:45:22Z</time>
      </trkpt>
      <trkpt lat="48.781670" lon="9.918611">
        <ele>696</ele>
        <time>2026-08-30T11:45:23Z</time>
      </trkpt>
      <trkpt lat="48.781697" lon="9.918626">
        <ele>696.2</ele>
        <time>2026-08-30T11:45:24Z</time>
      </trkpt>
      <trkpt lat="48.781723" lon="9.918648">
        <ele>696.4</ele>
        <time>2026-08-30T11:45:25Z</time>
      </trkpt>
      <trkpt lat="48.781745" lon="9.918676">
        <ele>696.4</ele>
        <time>2026-08-30T11:45:26Z</time>
      </trkpt>
      <trkpt lat="48.781766" lon="9.918716">
        <ele>696.4</ele>
        <time>2026-08-30T11:45:27Z</time>
      </trkpt>
      <trkpt lat="48.781793" lon="9.918765">
        <ele>696.6</ele>
        <time>2026-08-30T11:45:28Z</time>
      </trkpt>
      <trkpt lat="48.781809" lon="9.918808">
        <ele>696.6</ele>
        <time>2026-08-30T11:45:29Z</time>
      </trkpt>
      <trkpt lat="48.781828" lon="9.918839">
        <ele>696.6</ele>
        <time>2026-08-30T11:45:30Z</time>
      </trkpt>
      <trkpt lat="48.781853" lon="9.918869">
        <ele>696.6</ele>
        <time>2026-08-30T11:45:31Z</time>
      </trkpt>
      <trkpt lat="48.781877" lon="9.918895">
        <ele>696.6</ele>
        <time>2026-08-30T11:45:32Z</time>
      </trkpt>
      <trkpt lat="48.781905" lon="9.918920">
        <ele>696.8</ele>
        <time>2026-08-30T11:45:33Z</time>
      </trkpt>
      <trkpt lat="48.781924" lon="9.918947">
        <ele>696.8</ele>
        <time>2026-08-30T11:45:34Z</time>
      </trkpt>
      <trkpt lat="48.781943" lon="9.918979">
        <ele>697</ele>
        <time>2026-08-30T11:45:35Z</time>
      </trkpt>
      <trkpt lat="48.781957" lon="9.919016">
        <ele>697</ele>
        <time>2026-08-30T11:45:36Z</time>
      </trkpt>
      <trkpt lat="48.781975" lon="9.919056">
        <ele>697</ele>
        <time>2026-08-30T11:45:37Z</time>
      </trkpt>
      <trkpt lat="48.781990" lon="9.919093">
        <ele>697</ele>
        <time>2026-08-30T11:45:38Z</time>
      </trkpt>
      <trkpt lat="48.782002" lon="9.919124">
        <ele>697</ele>
        <time>2026-08-30T11:45:39Z</time>
      </trkpt>
      <trkpt lat="48.782014" lon="9.919152">
        <ele>697</ele>
        <time>2026-08-30T11:45:40Z</time>
      </trkpt>
      <trkpt lat="48.782028" lon="9.919181">
        <ele>697</ele>
        <time>2026-08-30T11:45:41Z</time>
      </trkpt>
      <trkpt lat="48.782050" lon="9.919213">
        <ele>697</ele>
        <time>2026-08-30T11:45:42Z</time>
      </trkpt>
      <trkpt lat="48.782076" lon="9.919241">
        <ele>696.8</ele>
        <time>2026-08-30T11:45:43Z</time>
      </trkpt>
      <trkpt lat="48.782095" lon="9.919265">
        <ele>696.4</ele>
        <time>2026-08-30T11:45:44Z</time>
      </trkpt>
      <trkpt lat="48.782109" lon="9.919290">
        <ele>696.2</ele>
        <time>2026-08-30T11:45:45Z</time>
      </trkpt>
      <trkpt lat="48.782126" lon="9.919320">
        <ele>695.8</ele>
        <time>2026-08-30T11:45:46Z</time>
      </trkpt>
      <trkpt lat="48.782145" lon="9.919347">
        <ele>695.6</ele>
        <time>2026-08-30T11:45:47Z</time>
      </trkpt>
      <trkpt lat="48.782168" lon="9.919373">
        <ele>695.2</ele>
        <time>2026-08-30T11:45:48Z</time>
      </trkpt>
      <trkpt lat="48.782195" lon="9.919389">
        <ele>695</ele>
        <time>2026-08-30T11:45:49Z</time>
      </trkpt>
      <trkpt lat="48.782223" lon="9.919418">
        <ele>694.6</ele>
        <time>2026-08-30T11:45:50Z</time>
      </trkpt>
      <trkpt lat="48.782245" lon="9.919439">
        <ele>694.2</ele>
        <time>2026-08-30T11:45:51Z</time>
      </trkpt>
      <trkpt lat="48.782268" lon="9.919472">
        <ele>693.8</ele>
        <time>2026-08-30T11:45:52Z</time>
      </trkpt>
      <trkpt lat="48.782281" lon="9.919508">
        <ele>693.4</ele>
        <time>2026-08-30T11:45:53Z</time>
      </trkpt>
      <trkpt lat="48.782300" lon="9.919537">
        <ele>693</ele>
        <time>2026-08-30T11:45:54Z</time>
      </trkpt>
      <trkpt lat="48.782322" lon="9.919575">
        <ele>692.4</ele>
        <time>2026-08-30T11:45:55Z</time>
      </trkpt>
      <trkpt lat="48.782344" lon="9.919614">
        <ele>691.8</ele>
        <time>2026-08-30T11:45:56Z</time>
      </trkpt>
      <trkpt lat="48.782364" lon="9.919638">
        <ele>691.4</ele>
        <time>2026-08-30T11:45:57Z</time>
      </trkpt>
      <trkpt lat="48.782385" lon="9.919670">
        <ele>690.8</ele>
        <time>2026-08-30T11:45:58Z</time>
      </trkpt>
      <trkpt lat="48.782405" lon="9.919693">
        <ele>690.2</ele>
        <time>2026-08-30T11:45:59Z</time>
      </trkpt>
      <trkpt lat="48.782427" lon="9.919720">
        <ele>689.6</ele>
        <time>2026-08-30T11:46:00Z</time>
      </trkpt>
      <trkpt lat="48.782445" lon="9.919748">
        <ele>689.2</ele>
        <time>2026-08-30T11:46:01Z</time>
      </trkpt>
      <trkpt lat="48.782459" lon="9.919784">
        <ele>689</ele>
        <time>2026-08-30T11:46:02Z</time>
      </trkpt>
      <trkpt lat="48.782477" lon="9.919817">
        <ele>688.4</ele>
        <time>2026-08-30T11:46:03Z</time>
      </trkpt>
      <trkpt lat="48.782488" lon="9.919841">
        <ele>688</ele>
        <time>2026-08-30T11:46:04Z</time>
      </trkpt>
      <trkpt lat="48.782503" lon="9.919856">
        <ele>687.6</ele>
        <time>2026-08-30T11:46:05Z</time>
      </trkpt>
      <trkpt lat="48.782518" lon="9.919867">
        <ele>687.2</ele>
        <time>2026-08-30T11:46:06Z</time>
      </trkpt>
      <trkpt lat="48.782529" lon="9.919873">
        <ele>686.8</ele>
        <time>2026-08-30T11:46:07Z</time>
      </trkpt>
      <trkpt lat="48.782533" lon="9.919874">
        <ele>686.6</ele>
        <time>2026-08-30T11:46:08Z</time>
      </trkpt>
      <trkpt lat="48.782536" lon="9.919866">
        <ele>686.4</ele>
        <time>2026-08-30T11:46:09Z</time>
      </trkpt>
      <trkpt lat="48.782541" lon="9.919859">
        <ele>686</ele>
        <time>2026-08-30T11:46:10Z</time>
      </trkpt>
      <trkpt lat="48.782551" lon="9.919871">
        <ele>686</ele>
        <time>2026-08-30T11:46:11Z</time>
      </trkpt>
      <trkpt lat="48.782567" lon="9.919876">
        <ele>685.8</ele>
        <time>2026-08-30T11:46:12Z</time>
      </trkpt>
      <trkpt lat="48.782579" lon="9.919890">
        <ele>685.8</ele>
        <time>2026-08-30T11:46:13Z</time>
      </trkpt>
      <trkpt lat="48.782584" lon="9.919921">
        <ele>685.6</ele>
        <time>2026-08-30T11:46:14Z</time>
      </trkpt>
      <trkpt lat="48.782578" lon="9.919964">
        <ele>685.6</ele>
        <time>2026-08-30T11:46:15Z</time>
      </trkpt>
      <trkpt lat="48.782578" lon="9.920015">
        <ele>685.4</ele>
        <time>2026-08-30T11:46:16Z</time>
      </trkpt>
      <trkpt lat="48.782585" lon="9.920073">
        <ele>685</ele>
        <time>2026-08-30T11:46:17Z</time>
      </trkpt>
      <trkpt lat="48.782603" lon="9.920118">
        <ele>684.8</ele>
        <time>2026-08-30T11:46:18Z</time>
      </trkpt>
      <trkpt lat="48.782623" lon="9.920155">
        <ele>684.6</ele>
        <time>2026-08-30T11:46:19Z</time>
      </trkpt>
      <trkpt lat="48.782649" lon="9.920190">
        <ele>684.2</ele>
        <time>2026-08-30T11:46:20Z</time>
      </trkpt>
      <trkpt lat="48.782670" lon="9.920217">
        <ele>684</ele>
        <time>2026-08-30T11:46:21Z</time>
      </trkpt>
      <trkpt lat="48.782688" lon="9.920243">
        <ele>684</ele>
        <time>2026-08-30T11:46:22Z</time>
      </trkpt>
      <trkpt lat="48.782706" lon="9.920261">
        <ele>684</ele>
        <time>2026-08-30T11:46:23Z</time>
      </trkpt>
      <trkpt lat="48.782721" lon="9.920277">
        <ele>684</ele>
        <time>2026-08-30T11:46:24Z</time>
      </trkpt>
      <trkpt lat="48.782737" lon="9.920305">
        <ele>684</ele>
        <time>2026-08-30T11:46:25Z</time>
      </trkpt>
      <trkpt lat="48.782758" lon="9.920344">
        <ele>684</ele>
        <time>2026-08-30T11:46:26Z</time>
      </trkpt>
      <trkpt lat="48.782779" lon="9.920385">
        <ele>684</ele>
        <time>2026-08-30T11:46:27Z</time>
      </trkpt>
      <trkpt lat="48.782799" lon="9.920427">
        <ele>684</ele>
        <time>2026-08-30T11:46:28Z</time>
      </trkpt>
      <trkpt lat="48.782818" lon="9.920473">
        <ele>684</ele>
        <time>2026-08-30T11:46:29Z</time>
      </trkpt>
      <trkpt lat="48.782831" lon="9.920519">
        <ele>684</ele>
        <time>2026-08-30T11:46:30Z</time>
      </trkpt>
      <trkpt lat="48.782841" lon="9.920564">
        <ele>684.2</ele>
        <time>2026-08-30T11:46:31Z</time>
      </trkpt>
      <trkpt lat="48.782851" lon="9.920606">
        <ele>684.2</ele>
        <time>2026-08-30T11:46:32Z</time>
      </trkpt>
      <trkpt lat="48.782868" lon="9.920646">
        <ele>684.2</ele>
        <time>2026-08-30T11:46:33Z</time>
      </trkpt>
      <trkpt lat="48.782880" lon="9.920680">
        <ele>684.4</ele>
        <time>2026-08-30T11:46:34Z</time>
      </trkpt>
      <trkpt lat="48.782891" lon="9.920709">
        <ele>684.6</ele>
        <time>2026-08-30T11:46:35Z</time>
      </trkpt>
      <trkpt lat="48.782904" lon="9.920738">
        <ele>684.8</ele>
        <time>2026-08-30T11:46:36Z</time>
      </trkpt>
      <trkpt lat="48.782917" lon="9.920768">
        <ele>684.8</ele>
        <time>2026-08-30T11:46:37Z</time>
      </trkpt>
      <trkpt lat="48.782930" lon="9.920795">
        <ele>685</ele>
        <time>2026-08-30T11:46:38Z</time>
      </trkpt>
      <trkpt lat="48.782945" lon="9.920823">
        <ele>685.2</ele>
        <time>2026-08-30T11:46:39Z</time>
      </trkpt>
      <trkpt lat="48.782951" lon="9.920843">
        <ele>685.4</ele>
        <time>2026-08-30T11:46:40Z</time>
      </trkpt>
      <trkpt lat="48.782957" lon="9.920871">
        <ele>685.6</ele>
        <time>2026-08-30T11:46:41Z</time>
      </trkpt>
      <trkpt lat="48.782962" lon="9.920895">
        <ele>685.6</ele>
        <time>2026-08-30T11:46:42Z</time>
      </trkpt>
      <trkpt lat="48.782966" lon="9.920916">
        <ele>685.8</ele>
        <time>2026-08-30T11:46:43Z</time>
      </trkpt>
      <trkpt lat="48.782975" lon="9.920936">
        <ele>686</ele>
        <time>2026-08-30T11:46:44Z</time>
      </trkpt>
      <trkpt lat="48.782982" lon="9.920956">
        <ele>686.2</ele>
        <time>2026-08-30T11:46:45Z</time>
      </trkpt>
      <trkpt lat="48.782985" lon="9.920976">
        <ele>686.4</ele>
        <time>2026-08-30T11:46:46Z</time>
      </trkpt>
      <trkpt lat="48.782993" lon="9.921002">
        <ele>686.6</ele>
        <time>2026-08-30T11:46:47Z</time>
      </trkpt>
      <trkpt lat="48.783000" lon="9.921021">
        <ele>686.8</ele>
        <time>2026-08-30T11:46:48Z</time>
      </trkpt>
      <trkpt lat="48.783005" lon="9.921039">
        <ele>686.8</ele>
        <time>2026-08-30T11:46:49Z</time>
      </trkpt>
      <trkpt lat="48.783012" lon="9.921054">
        <ele>687.2</ele>
        <time>2026-08-30T11:46:50Z</time>
      </trkpt>
      <trkpt lat="48.783023" lon="9.921071">
        <ele>687.4</ele>
        <time>2026-08-30T11:46:51Z</time>
      </trkpt>
      <trkpt lat="48.783031" lon="9.921090">
        <ele>687.6</ele>
        <time>2026-08-30T11:46:52Z</time>
      </trkpt>
      <trkpt lat="48.783037" lon="9.921109">
        <ele>687.8</ele>
        <time>2026-08-30T11:46:53Z</time>
      </trkpt>
      <trkpt lat="48.783039" lon="9.921128">
        <ele>687.8</ele>
        <time>2026-08-30T11:46:54Z</time>
      </trkpt>
      <trkpt lat="48.783040" lon="9.921155">
        <ele>688</ele>
        <time>2026-08-30T11:46:55Z</time>
      </trkpt>
      <trkpt lat="48.783041" lon="9.921183">
        <ele>688.2</ele>
        <time>2026-08-30T11:46:56Z</time>
      </trkpt>
      <trkpt lat="48.783041" lon="9.921210">
        <ele>688.4</ele>
        <time>2026-08-30T11:46:57Z</time>
      </trkpt>
      <trkpt lat="48.783046" lon="9.921232">
        <ele>688.4</ele>
        <time>2026-08-30T11:46:58Z</time>
      </trkpt>
      <trkpt lat="48.783055" lon="9.921255">
        <ele>688.6</ele>
        <time>2026-08-30T11:46:59Z</time>
      </trkpt>
      <trkpt lat="48.783064" lon="9.921276">
        <ele>688.8</ele>
        <time>2026-08-30T11:47:00Z</time>
      </trkpt>
      <trkpt lat="48.783067" lon="9.921296">
        <ele>689</ele>
        <time>2026-08-30T11:47:01Z</time>
      </trkpt>
      <trkpt lat="48.783078" lon="9.921315">
        <ele>689.2</ele>
        <time>2026-08-30T11:47:02Z</time>
      </trkpt>
      <trkpt lat="48.783084" lon="9.921337">
        <ele>689.2</ele>
        <time>2026-08-30T11:47:03Z</time>
      </trkpt>
      <trkpt lat="48.783086" lon="9.921360">
        <ele>689.4</ele>
        <time>2026-08-30T11:47:04Z</time>
      </trkpt>
      <trkpt lat="48.783088" lon="9.921391">
        <ele>689.4</ele>
        <time>2026-08-30T11:47:05Z</time>
      </trkpt>
      <trkpt lat="48.783089" lon="9.921429">
        <ele>689.6</ele>
        <time>2026-08-30T11:47:06Z</time>
      </trkpt>
      <trkpt lat="48.783095" lon="9.921450">
        <ele>689.6</ele>
        <time>2026-08-30T11:47:07Z</time>
      </trkpt>
      <trkpt lat="48.783101" lon="9.921459">
        <ele>689.8</ele>
        <time>2026-08-30T11:47:08Z</time>
      </trkpt>
      <trkpt lat="48.783106" lon="9.921481">
        <ele>689.8</ele>
        <time>2026-08-30T11:47:09Z</time>
      </trkpt>
      <trkpt lat="48.783111" lon="9.921508">
        <ele>690</ele>
        <time>2026-08-30T11:47:10Z</time>
      </trkpt>
      <trkpt lat="48.783113" lon="9.921528">
        <ele>690</ele>
        <time>2026-08-30T11:47:11Z</time>
      </trkpt>
      <trkpt lat="48.783122" lon="9.921551">
        <ele>690.2</ele>
        <time>2026-08-30T11:47:12Z</time>
      </trkpt>
      <trkpt lat="48.783131" lon="9.921576">
        <ele>690.2</ele>
        <time>2026-08-30T11:47:13Z</time>
      </trkpt>
      <trkpt lat="48.783133" lon="9.921605">
        <ele>690.4</ele>
        <time>2026-08-30T11:47:14Z</time>
      </trkpt>
      <trkpt lat="48.783135" lon="9.921636">
        <ele>690.4</ele>
        <time>2026-08-30T11:47:15Z</time>
      </trkpt>
      <trkpt lat="48.783132" lon="9.921670">
        <ele>690.6</ele>
        <time>2026-08-30T11:47:16Z</time>
      </trkpt>
      <trkpt lat="48.783129" lon="9.921696">
        <ele>690.6</ele>
        <time>2026-08-30T11:47:17Z</time>
      </trkpt>
      <trkpt lat="48.783130" lon="9.921725">
        <ele>690.8</ele>
        <time>2026-08-30T11:47:18Z</time>
      </trkpt>
      <trkpt lat="48.783136" lon="9.921752">
        <ele>690.8</ele>
        <time>2026-08-30T11:47:19Z</time>
      </trkpt>
      <trkpt lat="48.783139" lon="9.921775">
        <ele>690.8</ele>
        <time>2026-08-30T11:47:20Z</time>
      </trkpt>
      <trkpt lat="48.783131" lon="9.921803">
        <ele>691</ele>
        <time>2026-08-30T11:47:21Z</time>
      </trkpt>
      <trkpt lat="48.783119" lon="9.921821">
        <ele>691.2</ele>
        <time>2026-08-30T11:47:22Z</time>
      </trkpt>
      <trkpt lat="48.783113" lon="9.921850">
        <ele>691.2</ele>
        <time>2026-08-30T11:47:23Z</time>
      </trkpt>
      <trkpt lat="48.783111" lon="9.921878">
        <ele>691.2</ele>
        <time>2026-08-30T11:47:24Z</time>
      </trkpt>
      <trkpt lat="48.783119" lon="9.921902">
        <ele>691.2</ele>
        <time>2026-08-30T11:47:25Z</time>
      </trkpt>
      <trkpt lat="48.783131" lon="9.921922">
        <ele>691.2</ele>
        <time>2026-08-30T11:47:26Z</time>
      </trkpt>
      <trkpt lat="48.783146" lon="9.921951">
        <ele>691.2</ele>
        <time>2026-08-30T11:47:27Z</time>
      </trkpt>
      <trkpt lat="48.783156" lon="9.921978">
        <ele>691.2</ele>
        <time>2026-08-30T11:47:28Z</time>
      </trkpt>
      <trkpt lat="48.783164" lon="9.922013">
        <ele>691.2</ele>
        <time>2026-08-30T11:47:29Z</time>
      </trkpt>
      <trkpt lat="48.783163" lon="9.922052">
        <ele>691</ele>
        <time>2026-08-30T11:47:30Z</time>
      </trkpt>
      <trkpt lat="48.783159" lon="9.922087">
        <ele>691</ele>
        <time>2026-08-30T11:47:31Z</time>
      </trkpt>
      <trkpt lat="48.783150" lon="9.922114">
        <ele>691</ele>
        <time>2026-08-30T11:47:32Z</time>
      </trkpt>
      <trkpt lat="48.783143" lon="9.922140">
        <ele>691</ele>
        <time>2026-08-30T11:47:33Z</time>
      </trkpt>
      <trkpt lat="48.783138" lon="9.922166">
        <ele>691</ele>
        <time>2026-08-30T11:47:34Z</time>
      </trkpt>
      <trkpt lat="48.783144" lon="9.922179">
        <ele>691</ele>
        <time>2026-08-30T11:47:35Z</time>
      </trkpt>
      <trkpt lat="48.783146" lon="9.922193">
        <ele>691</ele>
        <time>2026-08-30T11:47:36Z</time>
      </trkpt>
      <trkpt lat="48.783150" lon="9.922214">
        <ele>691</ele>
        <time>2026-08-30T11:47:37Z</time>
      </trkpt>
      <trkpt lat="48.783153" lon="9.922240">
        <ele>691</ele>
        <time>2026-08-30T11:47:38Z</time>
      </trkpt>
      <trkpt lat="48.783156" lon="9.922267">
        <ele>691</ele>
        <time>2026-08-30T11:47:39Z</time>
      </trkpt>
      <trkpt lat="48.783165" lon="9.922294">
        <ele>691</ele>
        <time>2026-08-30T11:47:40Z</time>
      </trkpt>
      <trkpt lat="48.783166" lon="9.922317">
        <ele>691</ele>
        <time>2026-08-30T11:47:41Z</time>
      </trkpt>
      <trkpt lat="48.783170" lon="9.922341">
        <ele>691</ele>
        <time>2026-08-30T11:47:42Z</time>
      </trkpt>
      <trkpt lat="48.783178" lon="9.922367">
        <ele>690.8</ele>
        <time>2026-08-30T11:47:43Z</time>
      </trkpt>
      <trkpt lat="48.783179" lon="9.922393">
        <ele>690.8</ele>
        <time>2026-08-30T11:47:44Z</time>
      </trkpt>
      <trkpt lat="48.783180" lon="9.922421">
        <ele>690.6</ele>
        <time>2026-08-30T11:47:45Z</time>
      </trkpt>
      <trkpt lat="48.783175" lon="9.922453">
        <ele>690.6</ele>
        <time>2026-08-30T11:47:46Z</time>
      </trkpt>
      <trkpt lat="48.783175" lon="9.922472">
        <ele>690.4</ele>
        <time>2026-08-30T11:47:47Z</time>
      </trkpt>
      <trkpt lat="48.783175" lon="9.922486">
        <ele>690.2</ele>
        <time>2026-08-30T11:47:48Z</time>
      </trkpt>
      <trkpt lat="48.783175" lon="9.922486">
        <ele>690.2</ele>
        <time>2026-08-30T11:47:49Z</time>
      </trkpt>
      <trkpt lat="48.783175" lon="9.922486">
        <ele>690.2</ele>
        <time>2026-08-30T11:47:50Z</time>
      </trkpt>
      <trkpt lat="48.783175" lon="9.922486">
        <ele>690.2</ele>
        <time>2026-08-30T11:47:51Z</time>
      </trkpt>
      <trkpt lat="48.783175" lon="9.922486">
        <ele>690</ele>
        <time>2026-08-30T11:47:52Z</time>
      </trkpt>
      <trkpt lat="48.783175" lon="9.922486">
        <ele>690</ele>
        <time>2026-08-30T11:47:53Z</time>
      </trkpt>
      <trkpt lat="48.783175" lon="9.922486">
        <ele>690</ele>
        <time>2026-08-30T11:47:54Z</time>
      </trkpt>
      <trkpt lat="48.783175" lon="9.922486">
        <ele>690</ele>
        <time>2026-08-30T11:47:55Z</time>
      </trkpt>
      <trkpt lat="48.783175" lon="9.922486">
        <ele>690</ele>
        <time>2026-08-30T11:47:56Z</time>
      </trkpt>
      <trkpt lat="48.783175" lon="9.922486">
        <ele>689.8</ele>
        <time>2026-08-30T11:47:57Z</time>
      </trkpt>
      <trkpt lat="48.783175" lon="9.922486">
        <ele>689.8</ele>
        <time>2026-08-30T11:47:58Z</time>
      </trkpt>
      <trkpt lat="48.783175" lon="9.922486">
        <ele>689.8</ele>
        <time>2026-08-30T11:47:59Z</time>
      </trkpt>
      <trkpt lat="48.783175" lon="9.922486">
        <ele>689.8</ele>
        <time>2026-08-30T11:48:00Z</time>
      </trkpt>
      <trkpt lat="48.783175" lon="9.922486">
        <ele>689.8</ele>
        <time>2026-08-30T11:48:01Z</time>
      </trkpt>
      <trkpt lat="48.783175" lon="9.922486">
        <ele>689.8</ele>
        <time>2026-08-30T11:48:02Z</time>
      </trkpt>
      <trkpt lat="48.783175" lon="9.922489">
        <ele>689.8</ele>
        <time>2026-08-30T11:48:03Z</time>
      </trkpt>
      <trkpt lat="48.783184" lon="9.922524">
        <ele>689.6</ele>
        <time>2026-08-30T11:48:04Z</time>
      </trkpt>
      <trkpt lat="48.783191" lon="9.922537">
        <ele>689.6</ele>
        <time>2026-08-30T11:48:05Z</time>
      </trkpt>
      <trkpt lat="48.783201" lon="9.922545">
        <ele>689.4</ele>
        <time>2026-08-30T11:48:06Z</time>
      </trkpt>
      <trkpt lat="48.783215" lon="9.922537">
        <ele>689.4</ele>
        <time>2026-08-30T11:48:07Z</time>
      </trkpt>
      <trkpt lat="48.783220" lon="9.922519">
        <ele>689.2</ele>
        <time>2026-08-30T11:48:08Z</time>
      </trkpt>
      <trkpt lat="48.783223" lon="9.922501">
        <ele>689</ele>
        <time>2026-08-30T11:48:09Z</time>
      </trkpt>
      <trkpt lat="48.783221" lon="9.922480">
        <ele>688.8</ele>
        <time>2026-08-30T11:48:10Z</time>
      </trkpt>
      <trkpt lat="48.783224" lon="9.922463">
        <ele>688.8</ele>
        <time>2026-08-30T11:48:11Z</time>
      </trkpt>
      <trkpt lat="48.783233" lon="9.922454">
        <ele>688.6</ele>
        <time>2026-08-30T11:48:12Z</time>
      </trkpt>
      <trkpt lat="48.783246" lon="9.922446">
        <ele>688.4</ele>
        <time>2026-08-30T11:48:13Z</time>
      </trkpt>
      <trkpt lat="48.783253" lon="9.922455">
        <ele>688.2</ele>
        <time>2026-08-30T11:48:14Z</time>
      </trkpt>
      <trkpt lat="48.783264" lon="9.922468">
        <ele>688</ele>
        <time>2026-08-30T11:48:15Z</time>
      </trkpt>
      <trkpt lat="48.783269" lon="9.922492">
        <ele>687.8</ele>
        <time>2026-08-30T11:48:16Z</time>
      </trkpt>
      <trkpt lat="48.783288" lon="9.922521">
        <ele>687.4</ele>
        <time>2026-08-30T11:48:17Z</time>
      </trkpt>
      <trkpt lat="48.783307" lon="9.922520">
        <ele>687.2</ele>
        <time>2026-08-30T11:48:18Z</time>
      </trkpt>
      <trkpt lat="48.783331" lon="9.922500">
        <ele>686.8</ele>
        <time>2026-08-30T11:48:19Z</time>
      </trkpt>
      <trkpt lat="48.783350" lon="9.922478">
        <ele>686.6</ele>
        <time>2026-08-30T11:48:20Z</time>
      </trkpt>
      <trkpt lat="48.783369" lon="9.922453">
        <ele>686.2</ele>
        <time>2026-08-30T11:48:21Z</time>
      </trkpt>
      <trkpt lat="48.783390" lon="9.922426">
        <ele>685.6</ele>
        <time>2026-08-30T11:48:22Z</time>
      </trkpt>
      <trkpt lat="48.783409" lon="9.922404">
        <ele>685.2</ele>
        <time>2026-08-30T11:48:23Z</time>
      </trkpt>
      <trkpt lat="48.783428" lon="9.922377">
        <ele>684.8</ele>
        <time>2026-08-30T11:48:24Z</time>
      </trkpt>
      <trkpt lat="48.783445" lon="9.922347">
        <ele>684.4</ele>
        <time>2026-08-30T11:48:25Z</time>
      </trkpt>
      <trkpt lat="48.783461" lon="9.922307">
        <ele>684</ele>
        <time>2026-08-30T11:48:26Z</time>
      </trkpt>
      <trkpt lat="48.783477" lon="9.922269">
        <ele>683.4</ele>
        <time>2026-08-30T11:48:27Z</time>
      </trkpt>
      <trkpt lat="48.783491" lon="9.922241">
        <ele>683</ele>
        <time>2026-08-30T11:48:28Z</time>
      </trkpt>
      <trkpt lat="48.783498" lon="9.922219">
        <ele>682.6</ele>
        <time>2026-08-30T11:48:29Z</time>
      </trkpt>
      <trkpt lat="48.783508" lon="9.922194">
        <ele>682.2</ele>
        <time>2026-08-30T11:48:30Z</time>
      </trkpt>
      <trkpt lat="48.783522" lon="9.922176">
        <ele>681.6</ele>
        <time>2026-08-30T11:48:31Z</time>
      </trkpt>
      <trkpt lat="48.783530" lon="9.922149">
        <ele>681.2</ele>
        <time>2026-08-30T11:48:32Z</time>
      </trkpt>
      <trkpt lat="48.783541" lon="9.922123">
        <ele>680.6</ele>
        <time>2026-08-30T11:48:33Z</time>
      </trkpt>
      <trkpt lat="48.783559" lon="9.922076">
        <ele>680</ele>
        <time>2026-08-30T11:48:34Z</time>
      </trkpt>
      <trkpt lat="48.783575" lon="9.922038">
        <ele>679.4</ele>
        <time>2026-08-30T11:48:35Z</time>
      </trkpt>
      <trkpt lat="48.783589" lon="9.921993">
        <ele>679</ele>
        <time>2026-08-30T11:48:36Z</time>
      </trkpt>
      <trkpt lat="48.783606" lon="9.921955">
        <ele>678.4</ele>
        <time>2026-08-30T11:48:37Z</time>
      </trkpt>
      <trkpt lat="48.783625" lon="9.921916">
        <ele>677.6</ele>
        <time>2026-08-30T11:48:38Z</time>
      </trkpt>
      <trkpt lat="48.783641" lon="9.921881">
        <ele>677</ele>
        <time>2026-08-30T11:48:39Z</time>
      </trkpt>
      <trkpt lat="48.783659" lon="9.921843">
        <ele>676.6</ele>
        <time>2026-08-30T11:48:40Z</time>
      </trkpt>
      <trkpt lat="48.783674" lon="9.921796">
        <ele>676</ele>
        <time>2026-08-30T11:48:41Z</time>
      </trkpt>
      <trkpt lat="48.783693" lon="9.921748">
        <ele>675.2</ele>
        <time>2026-08-30T11:48:42Z</time>
      </trkpt>
      <trkpt lat="48.783703" lon="9.921711">
        <ele>674.6</ele>
        <time>2026-08-30T11:48:43Z</time>
      </trkpt>
      <trkpt lat="48.783707" lon="9.921679">
        <ele>674</ele>
        <time>2026-08-30T11:48:44Z</time>
      </trkpt>
      <trkpt lat="48.783710" lon="9.921646">
        <ele>673.4</ele>
        <time>2026-08-30T11:48:45Z</time>
      </trkpt>
      <trkpt lat="48.783715" lon="9.921626">
        <ele>673</ele>
        <time>2026-08-30T11:48:46Z</time>
      </trkpt>
      <trkpt lat="48.783720" lon="9.921597">
        <ele>672.6</ele>
        <time>2026-08-30T11:48:47Z</time>
      </trkpt>
      <trkpt lat="48.783724" lon="9.921578">
        <ele>672</ele>
        <time>2026-08-30T11:48:48Z</time>
      </trkpt>
      <trkpt lat="48.783724" lon="9.921551">
        <ele>671.6</ele>
        <time>2026-08-30T11:48:49Z</time>
      </trkpt>
      <trkpt lat="48.783722" lon="9.921547">
        <ele>671.4</ele>
        <time>2026-08-30T11:48:50Z</time>
      </trkpt>
      <trkpt lat="48.783722" lon="9.921547">
        <ele>671</ele>
        <time>2026-08-30T11:48:51Z</time>
      </trkpt>
      <trkpt lat="48.783722" lon="9.921547">
        <ele>670.8</ele>
        <time>2026-08-30T11:48:52Z</time>
      </trkpt>
      <trkpt lat="48.783722" lon="9.921547">
        <ele>670.4</ele>
        <time>2026-08-30T11:48:53Z</time>
      </trkpt>
      <trkpt lat="48.783722" lon="9.921547">
        <ele>670.2</ele>
        <time>2026-08-30T11:48:54Z</time>
      </trkpt>
      <trkpt lat="48.783722" lon="9.921547">
        <ele>670.2</ele>
        <time>2026-08-30T11:48:55Z</time>
      </trkpt>
      <trkpt lat="48.783723" lon="9.921547">
        <ele>670</ele>
        <time>2026-08-30T11:48:56Z</time>
      </trkpt>
      <trkpt lat="48.783722" lon="9.921547">
        <ele>669.8</ele>
        <time>2026-08-30T11:48:57Z</time>
      </trkpt>
      <trkpt lat="48.783722" lon="9.921547">
        <ele>669.6</ele>
        <time>2026-08-30T11:48:58Z</time>
      </trkpt>
      <trkpt lat="48.783722" lon="9.921547">
        <ele>669.6</ele>
        <time>2026-08-30T11:48:59Z</time>
      </trkpt>
      <trkpt lat="48.783722" lon="9.921547">
        <ele>669.4</ele>
        <time>2026-08-30T11:49:00Z</time>
      </trkpt>
      <trkpt lat="48.783722" lon="9.921547">
        <ele>669.4</ele>
        <time>2026-08-30T11:49:01Z</time>
      </trkpt>
      <trkpt lat="48.783722" lon="9.921547">
        <ele>669.4</ele>
        <time>2026-08-30T11:49:02Z</time>
      </trkpt>
      <trkpt lat="48.783722" lon="9.921547">
        <ele>669.2</ele>
        <time>2026-08-30T11:49:03Z</time>
      </trkpt>
      <trkpt lat="48.783722" lon="9.921547">
        <ele>669.2</ele>
        <time>2026-08-30T11:49:04Z</time>
      </trkpt>
      <trkpt lat="48.783722" lon="9.921551">
        <ele>669.2</ele>
        <time>2026-08-30T11:49:05Z</time>
      </trkpt>
      <trkpt lat="48.783736" lon="9.921596">
        <ele>669.2</ele>
        <time>2026-08-30T11:49:06Z</time>
      </trkpt>
      <trkpt lat="48.783742" lon="9.921628">
        <ele>669</ele>
        <time>2026-08-30T11:49:07Z</time>
      </trkpt>
      <trkpt lat="48.783749" lon="9.921653">
        <ele>668.8</ele>
        <time>2026-08-30T11:49:08Z</time>
      </trkpt>
      <trkpt lat="48.783754" lon="9.921684">
        <ele>668.6</ele>
        <time>2026-08-30T11:49:09Z</time>
      </trkpt>
      <trkpt lat="48.783766" lon="9.921719">
        <ele>668.4</ele>
        <time>2026-08-30T11:49:10Z</time>
      </trkpt>
      <trkpt lat="48.783767" lon="9.921740">
        <ele>668</ele>
        <time>2026-08-30T11:49:11Z</time>
      </trkpt>
      <trkpt lat="48.783771" lon="9.921772">
        <ele>667.8</ele>
        <time>2026-08-30T11:49:12Z</time>
      </trkpt>
      <trkpt lat="48.783776" lon="9.921797">
        <ele>667.4</ele>
        <time>2026-08-30T11:49:13Z</time>
      </trkpt>
      <trkpt lat="48.783784" lon="9.921821">
        <ele>667.2</ele>
        <time>2026-08-30T11:49:14Z</time>
      </trkpt>
      <trkpt lat="48.783790" lon="9.921847">
        <ele>667</ele>
        <time>2026-08-30T11:49:15Z</time>
      </trkpt>
      <trkpt lat="48.783796" lon="9.921880">
        <ele>666.6</ele>
        <time>2026-08-30T11:49:16Z</time>
      </trkpt>
      <trkpt lat="48.783800" lon="9.921913">
        <ele>666.2</ele>
        <time>2026-08-30T11:49:17Z</time>
      </trkpt>
      <trkpt lat="48.783802" lon="9.921958">
        <ele>665.8</ele>
        <time>2026-08-30T11:49:18Z</time>
      </trkpt>
      <trkpt lat="48.783812" lon="9.921995">
        <ele>665.4</ele>
        <time>2026-08-30T11:49:19Z</time>
      </trkpt>
      <trkpt lat="48.783817" lon="9.922036">
        <ele>664.8</ele>
        <time>2026-08-30T11:49:20Z</time>
      </trkpt>
      <trkpt lat="48.783825" lon="9.922080">
        <ele>664.4</ele>
        <time>2026-08-30T11:49:21Z</time>
      </trkpt>
      <trkpt lat="48.783831" lon="9.922115">
        <ele>663.8</ele>
        <time>2026-08-30T11:49:22Z</time>
      </trkpt>
      <trkpt lat="48.783837" lon="9.922155">
        <ele>663.2</ele>
        <time>2026-08-30T11:49:23Z</time>
      </trkpt>
      <trkpt lat="48.783837" lon="9.922199">
        <ele>662.6</ele>
        <time>2026-08-30T11:49:24Z</time>
      </trkpt>
      <trkpt lat="48.783836" lon="9.922243">
        <ele>662.2</ele>
        <time>2026-08-30T11:49:25Z</time>
      </trkpt>
      <trkpt lat="48.783838" lon="9.922291">
        <ele>661.6</ele>
        <time>2026-08-30T11:49:26Z</time>
      </trkpt>
      <trkpt lat="48.783841" lon="9.922339">
        <ele>661.2</ele>
        <time>2026-08-30T11:49:27Z</time>
      </trkpt>
      <trkpt lat="48.783842" lon="9.922374">
        <ele>660.6</ele>
        <time>2026-08-30T11:49:28Z</time>
      </trkpt>
      <trkpt lat="48.783844" lon="9.922407">
        <ele>660</ele>
        <time>2026-08-30T11:49:29Z</time>
      </trkpt>
      <trkpt lat="48.783840" lon="9.922441">
        <ele>659.4</ele>
        <time>2026-08-30T11:49:30Z</time>
      </trkpt>
      <trkpt lat="48.783836" lon="9.922486">
        <ele>658.8</ele>
        <time>2026-08-30T11:49:31Z</time>
      </trkpt>
      <trkpt lat="48.783842" lon="9.922527">
        <ele>658.4</ele>
        <time>2026-08-30T11:49:32Z</time>
      </trkpt>
      <trkpt lat="48.783847" lon="9.922563">
        <ele>657.8</ele>
        <time>2026-08-30T11:49:33Z</time>
      </trkpt>
      <trkpt lat="48.783852" lon="9.922605">
        <ele>657.2</ele>
        <time>2026-08-30T11:49:34Z</time>
      </trkpt>
      <trkpt lat="48.783853" lon="9.922642">
        <ele>656.6</ele>
        <time>2026-08-30T11:49:35Z</time>
      </trkpt>
      <trkpt lat="48.783859" lon="9.922683">
        <ele>656.2</ele>
        <time>2026-08-30T11:49:36Z</time>
      </trkpt>
      <trkpt lat="48.783860" lon="9.922728">
        <ele>655.6</ele>
        <time>2026-08-30T11:49:37Z</time>
      </trkpt>
      <trkpt lat="48.783860" lon="9.922769">
        <ele>655</ele>
        <time>2026-08-30T11:49:38Z</time>
      </trkpt>
      <trkpt lat="48.783861" lon="9.922810">
        <ele>654.4</ele>
        <time>2026-08-30T11:49:39Z</time>
      </trkpt>
      <trkpt lat="48.783861" lon="9.922846">
        <ele>654</ele>
        <time>2026-08-30T11:49:40Z</time>
      </trkpt>
      <trkpt lat="48.783856" lon="9.922875">
        <ele>653.4</ele>
        <time>2026-08-30T11:49:41Z</time>
      </trkpt>
      <trkpt lat="48.783846" lon="9.922893">
        <ele>653</ele>
        <time>2026-08-30T11:49:42Z</time>
      </trkpt>
      <trkpt lat="48.783830" lon="9.922902">
        <ele>652.6</ele>
        <time>2026-08-30T11:49:43Z</time>
      </trkpt>
      <trkpt lat="48.783813" lon="9.922916">
        <ele>652</ele>
        <time>2026-08-30T11:49:44Z</time>
      </trkpt>
      <trkpt lat="48.783792" lon="9.922926">
        <ele>651.6</ele>
        <time>2026-08-30T11:49:45Z</time>
      </trkpt>
      <trkpt lat="48.783767" lon="9.922940">
        <ele>651.2</ele>
        <time>2026-08-30T11:49:46Z</time>
      </trkpt>
      <trkpt lat="48.783747" lon="9.922952">
        <ele>650.6</ele>
        <time>2026-08-30T11:49:47Z</time>
      </trkpt>
      <trkpt lat="48.783724" lon="9.922976">
        <ele>650.2</ele>
        <time>2026-08-30T11:49:48Z</time>
      </trkpt>
      <trkpt lat="48.783704" lon="9.922991">
        <ele>649.6</ele>
        <time>2026-08-30T11:49:49Z</time>
      </trkpt>
      <trkpt lat="48.783685" lon="9.923007">
        <ele>649</ele>
        <time>2026-08-30T11:49:50Z</time>
      </trkpt>
      <trkpt lat="48.783665" lon="9.923030">
        <ele>648.4</ele>
        <time>2026-08-30T11:49:51Z</time>
      </trkpt>
      <trkpt lat="48.783643" lon="9.923056">
        <ele>648</ele>
        <time>2026-08-30T11:49:52Z</time>
      </trkpt>
      <trkpt lat="48.783619" lon="9.923078">
        <ele>647.4</ele>
        <time>2026-08-30T11:49:53Z</time>
      </trkpt>
      <trkpt lat="48.783594" lon="9.923100">
        <ele>646.6</ele>
        <time>2026-08-30T11:49:54Z</time>
      </trkpt>
      <trkpt lat="48.783568" lon="9.923122">
        <ele>646</ele>
        <time>2026-08-30T11:49:55Z</time>
      </trkpt>
      <trkpt lat="48.783550" lon="9.923142">
        <ele>645.6</ele>
        <time>2026-08-30T11:49:56Z</time>
      </trkpt>
      <trkpt lat="48.783528" lon="9.923164">
        <ele>645.2</ele>
        <time>2026-08-30T11:49:57Z</time>
      </trkpt>
      <trkpt lat="48.783507" lon="9.923188">
        <ele>644.6</ele>
        <time>2026-08-30T11:49:58Z</time>
      </trkpt>
      <trkpt lat="48.783488" lon="9.923214">
        <ele>644</ele>
        <time>2026-08-30T11:49:59Z</time>
      </trkpt>
      <trkpt lat="48.783469" lon="9.923252">
        <ele>643.4</ele>
        <time>2026-08-30T11:50:00Z</time>
      </trkpt>
      <trkpt lat="48.783446" lon="9.923286">
        <ele>643</ele>
        <time>2026-08-30T11:50:01Z</time>
      </trkpt>
      <trkpt lat="48.783419" lon="9.923320">
        <ele>642.2</ele>
        <time>2026-08-30T11:50:02Z</time>
      </trkpt>
      <trkpt lat="48.783396" lon="9.923340">
        <ele>641.6</ele>
        <time>2026-08-30T11:50:03Z</time>
      </trkpt>
      <trkpt lat="48.783373" lon="9.923360">
        <ele>641</ele>
        <time>2026-08-30T11:50:04Z</time>
      </trkpt>
      <trkpt lat="48.783351" lon="9.923384">
        <ele>640.4</ele>
        <time>2026-08-30T11:50:05Z</time>
      </trkpt>
      <trkpt lat="48.783327" lon="9.923417">
        <ele>639.8</ele>
        <time>2026-08-30T11:50:06Z</time>
      </trkpt>
      <trkpt lat="48.783307" lon="9.923439">
        <ele>639.2</ele>
        <time>2026-08-30T11:50:07Z</time>
      </trkpt>
      <trkpt lat="48.783290" lon="9.923454">
        <ele>638.6</ele>
        <time>2026-08-30T11:50:08Z</time>
      </trkpt>
      <trkpt lat="48.783278" lon="9.923459">
        <ele>637.8</ele>
        <time>2026-08-30T11:50:09Z</time>
      </trkpt>
      <trkpt lat="48.783276" lon="9.923461">
        <ele>637.4</ele>
        <time>2026-08-30T11:50:10Z</time>
      </trkpt>
      <trkpt lat="48.783276" lon="9.923461">
        <ele>637</ele>
        <time>2026-08-30T11:50:11Z</time>
      </trkpt>
      <trkpt lat="48.783265" lon="9.923460">
        <ele>636.6</ele>
        <time>2026-08-30T11:50:12Z</time>
      </trkpt>
      <trkpt lat="48.783265" lon="9.923461">
        <ele>636.4</ele>
        <time>2026-08-30T11:50:13Z</time>
      </trkpt>
      <trkpt lat="48.783265" lon="9.923461">
        <ele>636</ele>
        <time>2026-08-30T11:50:14Z</time>
      </trkpt>
      <trkpt lat="48.783265" lon="9.923461">
        <ele>635.8</ele>
        <time>2026-08-30T11:50:15Z</time>
      </trkpt>
      <trkpt lat="48.783265" lon="9.923461">
        <ele>635.8</ele>
        <time>2026-08-30T11:50:16Z</time>
      </trkpt>
      <trkpt lat="48.783265" lon="9.923461">
        <ele>635.6</ele>
        <time>2026-08-30T11:50:17Z</time>
      </trkpt>
      <trkpt lat="48.783265" lon="9.923461">
        <ele>635.6</ele>
        <time>2026-08-30T11:50:18Z</time>
      </trkpt>
      <trkpt lat="48.783265" lon="9.923461">
        <ele>635.6</ele>
        <time>2026-08-30T11:50:19Z</time>
      </trkpt>
      <trkpt lat="48.783265" lon="9.923461">
        <ele>635.4</ele>
        <time>2026-08-30T11:50:20Z</time>
      </trkpt>
      <trkpt lat="48.783265" lon="9.923461">
        <ele>635.4</ele>
        <time>2026-08-30T11:50:21Z</time>
      </trkpt>
      <trkpt lat="48.783265" lon="9.923461">
        <ele>635.4</ele>
        <time>2026-08-30T11:50:22Z</time>
      </trkpt>
      <trkpt lat="48.783265" lon="9.923461">
        <ele>635.4</ele>
        <time>2026-08-30T11:50:23Z</time>
      </trkpt>
      <trkpt lat="48.783265" lon="9.923461">
        <ele>635.2</ele>
        <time>2026-08-30T11:50:24Z</time>
      </trkpt>
      <trkpt lat="48.783265" lon="9.923461">
        <ele>635.2</ele>
        <time>2026-08-30T11:50:25Z</time>
      </trkpt>
      <trkpt lat="48.783265" lon="9.923461">
        <ele>635.2</ele>
        <time>2026-08-30T11:50:26Z</time>
      </trkpt>
      <trkpt lat="48.783265" lon="9.923461">
        <ele>635.2</ele>
        <time>2026-08-30T11:50:27Z</time>
      </trkpt>
      <trkpt lat="48.783265" lon="9.923461">
        <ele>635.2</ele>
        <time>2026-08-30T11:50:28Z</time>
      </trkpt>
      <trkpt lat="48.783265" lon="9.923461">
        <ele>635.2</ele>
        <time>2026-08-30T11:50:29Z</time>
      </trkpt>
      <trkpt lat="48.783265" lon="9.923461">
        <ele>635.2</ele>
        <time>2026-08-30T11:50:30Z</time>
      </trkpt>
      <trkpt lat="48.783265" lon="9.923461">
        <ele>635.2</ele>
        <time>2026-08-30T11:50:31Z</time>
      </trkpt>
      <trkpt lat="48.783265" lon="9.923461">
        <ele>635.2</ele>
        <time>2026-08-30T11:50:32Z</time>
      </trkpt>
      <trkpt lat="48.783265" lon="9.923461">
        <ele>635.2</ele>
        <time>2026-08-30T11:50:33Z</time>
      </trkpt>
      <trkpt lat="48.783265" lon="9.923461">
        <ele>635.2</ele>
        <time>2026-08-30T11:50:34Z</time>
      </trkpt>
      <trkpt lat="48.783265" lon="9.923461">
        <ele>635.2</ele>
        <time>2026-08-30T11:50:35Z</time>
      </trkpt>
      <trkpt lat="48.783265" lon="9.923461">
        <ele>635.4</ele>
        <time>2026-08-30T11:50:36Z</time>
      </trkpt>
      <trkpt lat="48.783265" lon="9.923461">
        <ele>635.4</ele>
        <time>2026-08-30T11:50:37Z</time>
      </trkpt>
      <trkpt lat="48.783265" lon="9.923461">
        <ele>635.4</ele>
        <time>2026-08-30T11:50:38Z</time>
      </trkpt>
      <trkpt lat="48.783265" lon="9.923461">
        <ele>635.4</ele>
        <time>2026-08-30T11:50:39Z</time>
      </trkpt>
      <trkpt lat="48.783265" lon="9.923461">
        <ele>635.4</ele>
        <time>2026-08-30T11:50:40Z</time>
      </trkpt>
      <trkpt lat="48.783265" lon="9.923461">
        <ele>635.4</ele>
        <time>2026-08-30T11:50:41Z</time>
      </trkpt>
      <trkpt lat="48.783265" lon="9.923461">
        <ele>635.6</ele>
        <time>2026-08-30T11:50:42Z</time>
      </trkpt>
      <trkpt lat="48.783265" lon="9.923461">
        <ele>635.6</ele>
        <time>2026-08-30T11:50:43Z</time>
      </trkpt>
      <trkpt lat="48.783265" lon="9.923461">
        <ele>635.6</ele>
        <time>2026-08-30T11:50:44Z</time>
      </trkpt>
      <trkpt lat="48.783262" lon="9.923464">
        <ele>635.6</ele>
        <time>2026-08-30T11:50:45Z</time>
      </trkpt>
      <trkpt lat="48.783262" lon="9.923467">
        <ele>635.6</ele>
        <time>2026-08-30T11:50:46Z</time>
      </trkpt>
      <trkpt lat="48.783265" lon="9.923461">
        <ele>635.6</ele>
        <time>2026-08-30T11:50:47Z</time>
      </trkpt>
      <trkpt lat="48.783265" lon="9.923461">
        <ele>635.6</ele>
        <time>2026-08-30T11:50:48Z</time>
      </trkpt>
      <trkpt lat="48.783265" lon="9.923461">
        <ele>635.6</ele>
        <time>2026-08-30T11:50:49Z</time>
      </trkpt>
      <trkpt lat="48.783265" lon="9.923461">
        <ele>635.6</ele>
        <time>2026-08-30T11:50:50Z</time>
      </trkpt>
      <trkpt lat="48.783265" lon="9.923461">
        <ele>635.6</ele>
        <time>2026-08-30T11:50:51Z</time>
      </trkpt>
      <trkpt lat="48.783265" lon="9.923461">
        <ele>635.6</ele>
        <time>2026-08-30T11:50:52Z</time>
      </trkpt>
      <trkpt lat="48.783265" lon="9.923461">
        <ele>635.4</ele>
        <time>2026-08-30T11:50:53Z</time>
      </trkpt>
      <trkpt lat="48.783265" lon="9.923461">
        <ele>635.4</ele>
        <time>2026-08-30T11:50:54Z</time>
      </trkpt>
      <trkpt lat="48.783265" lon="9.923461">
        <ele>635.4</ele>
        <time>2026-08-30T11:50:55Z</time>
      </trkpt>
      <trkpt lat="48.783265" lon="9.923461">
        <ele>635.4</ele>
        <time>2026-08-30T11:50:56Z</time>
      </trkpt>
      <trkpt lat="48.783265" lon="9.923461">
        <ele>635.4</ele>
        <time>2026-08-30T11:50:57Z</time>
      </trkpt>
      <trkpt lat="48.783265" lon="9.923461">
        <ele>635.4</ele>
        <time>2026-08-30T11:50:58Z</time>
      </trkpt>
      <trkpt lat="48.783265" lon="9.923461">
        <ele>635.4</ele>
        <time>2026-08-30T11:50:59Z</time>
      </trkpt>
      <trkpt lat="48.783265" lon="9.923461">
        <ele>635.4</ele>
        <time>2026-08-30T11:51:00Z</time>
      </trkpt>
      <trkpt lat="48.783265" lon="9.923461">
        <ele>635.4</ele>
        <time>2026-08-30T11:51:01Z</time>
      </trkpt>
      <trkpt lat="48.783265" lon="9.923461">
        <ele>635.4</ele>
        <time>2026-08-30T11:51:02Z</time>
      </trkpt>
      <trkpt lat="48.783265" lon="9.923461">
        <ele>635.4</ele>
        <time>2026-08-30T11:51:03Z</time>
      </trkpt>
      <trkpt lat="48.783265" lon="9.923461">
        <ele>635.4</ele>
        <time>2026-08-30T11:51:04Z</time>
      </trkpt>
      <trkpt lat="48.783265" lon="9.923461">
        <ele>635.4</ele>
        <time>2026-08-30T11:51:05Z</time>
      </trkpt>
      <trkpt lat="48.783265" lon="9.923461">
        <ele>635.4</ele>
        <time>2026-08-30T11:51:06Z</time>
      </trkpt>
      <trkpt lat="48.783265" lon="9.923461">
        <ele>635.4</ele>
        <time>2026-08-30T11:51:07Z</time>
      </trkpt>
      <trkpt lat="48.783265" lon="9.923461">
        <ele>635.4</ele>
        <time>2026-08-30T11:51:08Z</time>
      </trkpt>
      <trkpt lat="48.783265" lon="9.923461">
        <ele>635.4</ele>
        <time>2026-08-30T11:51:09Z</time>
      </trkpt>
      <trkpt lat="48.783265" lon="9.923461">
        <ele>635.4</ele>
        <time>2026-08-30T11:51:10Z</time>
      </trkpt>
      <trkpt lat="48.783265" lon="9.923461">
        <ele>635.4</ele>
        <time>2026-08-30T11:51:11Z</time>
      </trkpt>
      <trkpt lat="48.783265" lon="9.923461">
        <ele>635.4</ele>
        <time>2026-08-30T11:51:12Z</time>
      </trkpt>
      <trkpt lat="48.783265" lon="9.923461">
        <ele>635.6</ele>
        <time>2026-08-30T11:51:13Z</time>
      </trkpt>
      <trkpt lat="48.783265" lon="9.923461">
        <ele>635.6</ele>
        <time>2026-08-30T11:51:14Z</time>
      </trkpt>
      <trkpt lat="48.783265" lon="9.923461">
        <ele>635.6</ele>
        <time>2026-08-30T11:51:15Z</time>
      </trkpt>
      <trkpt lat="48.783265" lon="9.923461">
        <ele>635.6</ele>
        <time>2026-08-30T11:51:16Z</time>
      </trkpt>
      <trkpt lat="48.783265" lon="9.923461">
        <ele>635.6</ele>
        <time>2026-08-30T11:51:17Z</time>
      </trkpt>
      <trkpt lat="48.783265" lon="9.923461">
        <ele>635.6</ele>
        <time>2026-08-30T11:51:18Z</time>
      </trkpt>
      <trkpt lat="48.783265" lon="9.923461">
        <ele>635.6</ele>
        <time>2026-08-30T11:51:19Z</time>
      </trkpt>
      <trkpt lat="48.783265" lon="9.923461">
        <ele>635.6</ele>
        <time>2026-08-30T11:51:20Z</time>
      </trkpt>
      <trkpt lat="48.783265" lon="9.923461">
        <ele>635.6</ele>
        <time>2026-08-30T11:51:21Z</time>
      </trkpt>
      <trkpt lat="48.783265" lon="9.923461">
        <ele>635.6</ele>
        <time>2026-08-30T11:51:22Z</time>
      </trkpt>
      <trkpt lat="48.783265" lon="9.923461">
        <ele>635.6</ele>
        <time>2026-08-30T11:51:23Z</time>
      </trkpt>
      <trkpt lat="48.783265" lon="9.923461">
        <ele>635.6</ele>
        <time>2026-08-30T11:51:24Z</time>
      </trkpt>
      <trkpt lat="48.783265" lon="9.923461">
        <ele>635.6</ele>
        <time>2026-08-30T11:51:25Z</time>
      </trkpt>
      <trkpt lat="48.783265" lon="9.923461">
        <ele>635.6</ele>
        <time>2026-08-30T11:51:26Z</time>
      </trkpt>
      <trkpt lat="48.783265" lon="9.923461">
        <ele>635.6</ele>
        <time>2026-08-30T11:51:27Z</time>
      </trkpt>
      <trkpt lat="48.783265" lon="9.923461">
        <ele>635.6</ele>
        <time>2026-08-30T11:51:28Z</time>
      </trkpt>
      <trkpt lat="48.783265" lon="9.923461">
        <ele>635.6</ele>
        <time>2026-08-30T11:51:29Z</time>
      </trkpt>
      <trkpt lat="48.783265" lon="9.923461">
        <ele>635.6</ele>
        <time>2026-08-30T11:51:30Z</time>
      </trkpt>
      <trkpt lat="48.783265" lon="9.923461">
        <ele>635.6</ele>
        <time>2026-08-30T11:51:31Z</time>
      </trkpt>
      <trkpt lat="48.783265" lon="9.923461">
        <ele>635.6</ele>
        <time>2026-08-30T11:51:32Z</time>
      </trkpt>
      <trkpt lat="48.783265" lon="9.923461">
        <ele>635.6</ele>
        <time>2026-08-30T11:51:33Z</time>
      </trkpt>
      <trkpt lat="48.783265" lon="9.923461">
        <ele>635.6</ele>
        <time>2026-08-30T11:51:34Z</time>
      </trkpt>
      <trkpt lat="48.783265" lon="9.923461">
        <ele>635.6</ele>
        <time>2026-08-30T11:51:35Z</time>
      </trkpt>
      <trkpt lat="48.783265" lon="9.923461">
        <ele>635.6</ele>
        <time>2026-08-30T11:51:36Z</time>
      </trkpt>
      <trkpt lat="48.783265" lon="9.923461">
        <ele>635.6</ele>
        <time>2026-08-30T11:51:37Z</time>
      </trkpt>
      <trkpt lat="48.783265" lon="9.923461">
        <ele>635.6</ele>
        <time>2026-08-30T11:51:38Z</time>
      </trkpt>
      <trkpt lat="48.783265" lon="9.923461">
        <ele>635.6</ele>
        <time>2026-08-30T11:51:39Z</time>
      </trkpt>
      <trkpt lat="48.783265" lon="9.923461">
        <ele>635.6</ele>
        <time>2026-08-30T11:51:40Z</time>
      </trkpt>
      <trkpt lat="48.783265" lon="9.923461">
        <ele>635.6</ele>
        <time>2026-08-30T11:51:41Z</time>
      </trkpt>
      <trkpt lat="48.783265" lon="9.923461">
        <ele>635.6</ele>
        <time>2026-08-30T11:51:42Z</time>
      </trkpt>
      <trkpt lat="48.783265" lon="9.923461">
        <ele>635.6</ele>
        <time>2026-08-30T11:51:43Z</time>
      </trkpt>
      <trkpt lat="48.783265" lon="9.923461">
        <ele>635.6</ele>
        <time>2026-08-30T11:51:44Z</time>
      </trkpt>
      <trkpt lat="48.783265" lon="9.923461">
        <ele>635.6</ele>
        <time>2026-08-30T11:51:45Z</time>
      </trkpt>
      <trkpt lat="48.783265" lon="9.923461">
        <ele>635.6</ele>
        <time>2026-08-30T11:51:46Z</time>
      </trkpt>
      <trkpt lat="48.783265" lon="9.923461">
        <ele>635.6</ele>
        <time>2026-08-30T11:51:47Z</time>
      </trkpt>
      <trkpt lat="48.783265" lon="9.923461">
        <ele>635.6</ele>
        <time>2026-08-30T11:51:48Z</time>
      </trkpt>
      <trkpt lat="48.783265" lon="9.923461">
        <ele>635.6</ele>
        <time>2026-08-30T11:51:49Z</time>
      </trkpt>
      <trkpt lat="48.783265" lon="9.923461">
        <ele>635.6</ele>
        <time>2026-08-30T11:51:50Z</time>
      </trkpt>
      <trkpt lat="48.783265" lon="9.923461">
        <ele>635.6</ele>
        <time>2026-08-30T11:51:51Z</time>
      </trkpt>
      <trkpt lat="48.783265" lon="9.923461">
        <ele>635.6</ele>
        <time>2026-08-30T11:51:52Z</time>
      </trkpt>
      <trkpt lat="48.783265" lon="9.923461">
        <ele>635.6</ele>
        <time>2026-08-30T11:51:53Z</time>
      </trkpt>
      <trkpt lat="48.783265" lon="9.923461">
        <ele>635.6</ele>
        <time>2026-08-30T11:51:54Z</time>
      </trkpt>
      <trkpt lat="48.783265" lon="9.923461">
        <ele>635.6</ele>
        <time>2026-08-30T11:51:55Z</time>
      </trkpt>
      <trkpt lat="48.783265" lon="9.923461">
        <ele>635.6</ele>
        <time>2026-08-30T11:51:56Z</time>
      </trkpt>
      <trkpt lat="48.783265" lon="9.923461">
        <ele>635.6</ele>
        <time>2026-08-30T11:51:57Z</time>
      </trkpt>
      <trkpt lat="48.783265" lon="9.923461">
        <ele>635.6</ele>
        <time>2026-08-30T11:51:58Z</time>
      </trkpt>
      <trkpt lat="48.783265" lon="9.923461">
        <ele>635.6</ele>
        <time>2026-08-30T11:51:59Z</time>
      </trkpt>
      <trkpt lat="48.783265" lon="9.923461">
        <ele>635.6</ele>
        <time>2026-08-30T11:52:00Z</time>
      </trkpt>
      <trkpt lat="48.783265" lon="9.923461">
        <ele>635.6</ele>
        <time>2026-08-30T11:52:01Z</time>
      </trkpt>
      <trkpt lat="48.783265" lon="9.923461">
        <ele>635.6</ele>
        <time>2026-08-30T11:52:02Z</time>
      </trkpt>
      <trkpt lat="48.783265" lon="9.923461">
        <ele>635.6</ele>
        <time>2026-08-30T11:52:03Z</time>
      </trkpt>
      <trkpt lat="48.783265" lon="9.923461">
        <ele>635.6</ele>
        <time>2026-08-30T11:52:04Z</time>
      </trkpt>
      <trkpt lat="48.783265" lon="9.923461">
        <ele>635.6</ele>
        <time>2026-08-30T11:52:05Z</time>
      </trkpt>
      <trkpt lat="48.783265" lon="9.923461">
        <ele>635.6</ele>
        <time>2026-08-30T11:52:06Z</time>
      </trkpt>
      <trkpt lat="48.783265" lon="9.923461">
        <ele>635.6</ele>
        <time>2026-08-30T11:52:07Z</time>
      </trkpt>
      <trkpt lat="48.783265" lon="9.923461">
        <ele>635.6</ele>
        <time>2026-08-30T11:52:08Z</time>
      </trkpt>
      <trkpt lat="48.783265" lon="9.923461">
        <ele>635.6</ele>
        <time>2026-08-30T11:52:09Z</time>
      </trkpt>
      <trkpt lat="48.783265" lon="9.923461">
        <ele>635.6</ele>
        <time>2026-08-30T11:52:10Z</time>
      </trkpt>
      <trkpt lat="48.783265" lon="9.923461">
        <ele>635.6</ele>
        <time>2026-08-30T11:52:11Z</time>
      </trkpt>
      <trkpt lat="48.783265" lon="9.923461">
        <ele>635.6</ele>
        <time>2026-08-30T11:52:12Z</time>
      </trkpt>
      <trkpt lat="48.783265" lon="9.923461">
        <ele>635.6</ele>
        <time>2026-08-30T11:52:13Z</time>
      </trkpt>
      <trkpt lat="48.783265" lon="9.923461">
        <ele>635.6</ele>
        <time>2026-08-30T11:52:14Z</time>
      </trkpt>
      <trkpt lat="48.783265" lon="9.923461">
        <ele>635.6</ele>
        <time>2026-08-30T11:52:15Z</time>
      </trkpt>
      <trkpt lat="48.783265" lon="9.923461">
        <ele>635.6</ele>
        <time>2026-08-30T11:52:16Z</time>
      </trkpt>
      <trkpt lat="48.783265" lon="9.923461">
        <ele>635.6</ele>
        <time>2026-08-30T11:52:17Z</time>
      </trkpt>
      <trkpt lat="48.783265" lon="9.923461">
        <ele>635.6</ele>
        <time>2026-08-30T11:52:18Z</time>
      </trkpt>
      <trkpt lat="48.783265" lon="9.923461">
        <ele>635.6</ele>
        <time>2026-08-30T11:52:19Z</time>
      </trkpt>
      <trkpt lat="48.783265" lon="9.923461">
        <ele>635.6</ele>
        <time>2026-08-30T11:52:20Z</time>
      </trkpt>
      <trkpt lat="48.783265" lon="9.923461">
        <ele>635.6</ele>
        <time>2026-08-30T11:52:21Z</time>
      </trkpt>
      <trkpt lat="48.783265" lon="9.923461">
        <ele>635.6</ele>
        <time>2026-08-30T11:52:22Z</time>
      </trkpt>
      <trkpt lat="48.783265" lon="9.923461">
        <ele>635.6</ele>
        <time>2026-08-30T11:52:23Z</time>
      </trkpt>
      <trkpt lat="48.783265" lon="9.923461">
        <ele>635.6</ele>
        <time>2026-08-30T11:52:24Z</time>
      </trkpt>
      <trkpt lat="48.783265" lon="9.923461">
        <ele>635.6</ele>
        <time>2026-08-30T11:52:25Z</time>
      </trkpt>
      <trkpt lat="48.783265" lon="9.923461">
        <ele>635.6</ele>
        <time>2026-08-30T11:52:26Z</time>
      </trkpt>
      <trkpt lat="48.783265" lon="9.923461">
        <ele>635.6</ele>
        <time>2026-08-30T11:52:27Z</time>
      </trkpt>
      <trkpt lat="48.783265" lon="9.923461">
        <ele>635.6</ele>
        <time>2026-08-30T11:52:28Z</time>
      </trkpt>
      <trkpt lat="48.783265" lon="9.923461">
        <ele>635.6</ele>
        <time>2026-08-30T11:52:29Z</time>
      </trkpt>
      <trkpt lat="48.783265" lon="9.923461">
        <ele>635.6</ele>
        <time>2026-08-30T11:52:30Z</time>
      </trkpt>
      <trkpt lat="48.783265" lon="9.923461">
        <ele>635.6</ele>
        <time>2026-08-30T11:52:31Z</time>
      </trkpt>
      <trkpt lat="48.783265" lon="9.923461">
        <ele>635.6</ele>
        <time>2026-08-30T11:52:32Z</time>
      </trkpt>
      <trkpt lat="48.783265" lon="9.923461">
        <ele>635.6</ele>
        <time>2026-08-30T11:52:33Z</time>
      </trkpt>
      <trkpt lat="48.783265" lon="9.923461">
        <ele>635.6</ele>
        <time>2026-08-30T11:52:34Z</time>
      </trkpt>
      <trkpt lat="48.783265" lon="9.923461">
        <ele>635.6</ele>
        <time>2026-08-30T11:52:35Z</time>
      </trkpt>
      <trkpt lat="48.783265" lon="9.923461">
        <ele>635.6</ele>
        <time>2026-08-30T11:52:36Z</time>
      </trkpt>
      <trkpt lat="48.783265" lon="9.923461">
        <ele>635.6</ele>
        <time>2026-08-30T11:52:37Z</time>
      </trkpt>
      <trkpt lat="48.783265" lon="9.923461">
        <ele>635.6</ele>
        <time>2026-08-30T11:52:38Z</time>
      </trkpt>
      <trkpt lat="48.783265" lon="9.923461">
        <ele>635.6</ele>
        <time>2026-08-30T11:52:39Z</time>
      </trkpt>
      <trkpt lat="48.783265" lon="9.923461">
        <ele>635.6</ele>
        <time>2026-08-30T11:52:40Z</time>
      </trkpt>
      <trkpt lat="48.783265" lon="9.923461">
        <ele>635.6</ele>
        <time>2026-08-30T11:52:41Z</time>
      </trkpt>
      <trkpt lat="48.783265" lon="9.923461">
        <ele>635.6</ele>
        <time>2026-08-30T11:52:42Z</time>
      </trkpt>
      <trkpt lat="48.783265" lon="9.923461">
        <ele>635.6</ele>
        <time>2026-08-30T11:52:43Z</time>
      </trkpt>
      <trkpt lat="48.783265" lon="9.923461">
        <ele>635.6</ele>
        <time>2026-08-30T11:52:44Z</time>
      </trkpt>
      <trkpt lat="48.783265" lon="9.923461">
        <ele>635.6</ele>
        <time>2026-08-30T11:52:45Z</time>
      </trkpt>
      <trkpt lat="48.783265" lon="9.923461">
        <ele>635.6</ele>
        <time>2026-08-30T11:52:46Z</time>
      </trkpt>
      <trkpt lat="48.783265" lon="9.923461">
        <ele>635.6</ele>
        <time>2026-08-30T11:52:47Z</time>
      </trkpt>
      <trkpt lat="48.783265" lon="9.923461">
        <ele>635.6</ele>
        <time>2026-08-30T11:52:48Z</time>
      </trkpt>
      <trkpt lat="48.783265" lon="9.923461">
        <ele>635.6</ele>
        <time>2026-08-30T11:52:49Z</time>
      </trkpt>
      <trkpt lat="48.783265" lon="9.923461">
        <ele>635.6</ele>
        <time>2026-08-30T11:52:50Z</time>
      </trkpt>
      <trkpt lat="48.783265" lon="9.923461">
        <ele>635.6</ele>
        <time>2026-08-30T11:52:51Z</time>
      </trkpt>
      <trkpt lat="48.783265" lon="9.923461">
        <ele>635.6</ele>
        <time>2026-08-30T11:52:52Z</time>
      </trkpt>
      <trkpt lat="48.783265" lon="9.923461">
        <ele>635.6</ele>
        <time>2026-08-30T11:52:53Z</time>
      </trkpt>
      <trkpt lat="48.783265" lon="9.923461">
        <ele>635.6</ele>
        <time>2026-08-30T11:52:54Z</time>
      </trkpt>
      <trkpt lat="48.783265" lon="9.923461">
        <ele>635.6</ele>
        <time>2026-08-30T11:52:55Z</time>
      </trkpt>
      <trkpt lat="48.783265" lon="9.923461">
        <ele>635.6</ele>
        <time>2026-08-30T11:52:56Z</time>
      </trkpt>
      <trkpt lat="48.783265" lon="9.923461">
        <ele>635.6</ele>
        <time>2026-08-30T11:52:57Z</time>
      </trkpt>
      <trkpt lat="48.783265" lon="9.923461">
        <ele>635.6</ele>
        <time>2026-08-30T11:52:58Z</time>
      </trkpt>
      <trkpt lat="48.783265" lon="9.923461">
        <ele>635.6</ele>
        <time>2026-08-30T11:52:59Z</time>
      </trkpt>
      <trkpt lat="48.783265" lon="9.923461">
        <ele>635.6</ele>
        <time>2026-08-30T11:53:00Z</time>
      </trkpt>
      <trkpt lat="48.783265" lon="9.923461">
        <ele>635.6</ele>
        <time>2026-08-30T11:53:01Z</time>
      </trkpt>
      <trkpt lat="48.783265" lon="9.923461">
        <ele>635.6</ele>
        <time>2026-08-30T11:53:02Z</time>
      </trkpt>
      <trkpt lat="48.783265" lon="9.923461">
        <ele>635.6</ele>
        <time>2026-08-30T11:53:03Z</time>
      </trkpt>
      <trkpt lat="48.783265" lon="9.923461">
        <ele>635.6</ele>
        <time>2026-08-30T11:53:04Z</time>
      </trkpt>
      <trkpt lat="48.783265" lon="9.923461">
        <ele>635.6</ele>
        <time>2026-08-30T11:53:05Z</time>
      </trkpt>
      <trkpt lat="48.783265" lon="9.923461">
        <ele>635.6</ele>
        <time>2026-08-30T11:53:06Z</time>
      </trkpt>
      <trkpt lat="48.783265" lon="9.923461">
        <ele>635.6</ele>
        <time>2026-08-30T11:53:07Z</time>
      </trkpt>
      <trkpt lat="48.783265" lon="9.923461">
        <ele>635.6</ele>
        <time>2026-08-30T11:53:08Z</time>
      </trkpt>
      <trkpt lat="48.783265" lon="9.923461">
        <ele>635.6</ele>
        <time>2026-08-30T11:53:09Z</time>
      </trkpt>
      <trkpt lat="48.783265" lon="9.923461">
        <ele>635.6</ele>
        <time>2026-08-30T11:53:10Z</time>
      </trkpt>
      <trkpt lat="48.783265" lon="9.923461">
        <ele>635.6</ele>
        <time>2026-08-30T11:53:11Z</time>
      </trkpt>
      <trkpt lat="48.783265" lon="9.923461">
        <ele>635.6</ele>
        <time>2026-08-30T11:53:12Z</time>
      </trkpt>
      <trkpt lat="48.783265" lon="9.923461">
        <ele>635.6</ele>
        <time>2026-08-30T11:53:13Z</time>
      </trkpt>
      <trkpt lat="48.783265" lon="9.923461">
        <ele>635.6</ele>
        <time>2026-08-30T11:53:14Z</time>
      </trkpt>
      <trkpt lat="48.783265" lon="9.923461">
        <ele>635.6</ele>
        <time>2026-08-30T11:53:15Z</time>
      </trkpt>
      <trkpt lat="48.783265" lon="9.923461">
        <ele>635.6</ele>
        <time>2026-08-30T11:53:16Z</time>
      </trkpt>
      <trkpt lat="48.783265" lon="9.923461">
        <ele>635.6</ele>
        <time>2026-08-30T11:53:17Z</time>
      </trkpt>
      <trkpt lat="48.783265" lon="9.923461">
        <ele>635.6</ele>
        <time>2026-08-30T11:53:18Z</time>
      </trkpt>
      <trkpt lat="48.783252" lon="9.923458">
        <ele>635.6</ele>
        <time>2026-08-30T11:53:19Z</time>
      </trkpt>
      <trkpt lat="48.783238" lon="9.923460">
        <ele>635.6</ele>
        <time>2026-08-30T11:53:20Z</time>
      </trkpt>
      <trkpt lat="48.783235" lon="9.923456">
        <ele>635.6</ele>
        <time>2026-08-30T11:53:21Z</time>
      </trkpt>
      <trkpt lat="48.783241" lon="9.923458">
        <ele>635.6</ele>
        <time>2026-08-30T11:53:22Z</time>
      </trkpt>
      <trkpt lat="48.783249" lon="9.923465">
        <ele>635.6</ele>
        <time>2026-08-30T11:53:23Z</time>
      </trkpt>
      <trkpt lat="48.783257" lon="9.923466">
        <ele>635.6</ele>
        <time>2026-08-30T11:53:24Z</time>
      </trkpt>
      <trkpt lat="48.783265" lon="9.923464">
        <ele>635.6</ele>
        <time>2026-08-30T11:53:25Z</time>
      </trkpt>
      <trkpt lat="48.783274" lon="9.923461">
        <ele>635.6</ele>
        <time>2026-08-30T11:53:26Z</time>
      </trkpt>
      <trkpt lat="48.783281" lon="9.923451">
        <ele>635.6</ele>
        <time>2026-08-30T11:53:27Z</time>
      </trkpt>
      <trkpt lat="48.783285" lon="9.923444">
        <ele>635.6</ele>
        <time>2026-08-30T11:53:28Z</time>
      </trkpt>
      <trkpt lat="48.783291" lon="9.923431">
        <ele>635.6</ele>
        <time>2026-08-30T11:53:29Z</time>
      </trkpt>
      <trkpt lat="48.783293" lon="9.923431">
        <ele>635.6</ele>
        <time>2026-08-30T11:53:30Z</time>
      </trkpt>
      <trkpt lat="48.783291" lon="9.923433">
        <ele>635.6</ele>
        <time>2026-08-30T11:53:31Z</time>
      </trkpt>
      <trkpt lat="48.783293" lon="9.923428">
        <ele>635.6</ele>
        <time>2026-08-30T11:53:32Z</time>
      </trkpt>
      <trkpt lat="48.783294" lon="9.923429">
        <ele>635.6</ele>
        <time>2026-08-30T11:53:33Z</time>
      </trkpt>
      <trkpt lat="48.783294" lon="9.923434">
        <ele>637.8</ele>
        <time>2026-08-30T11:53:34Z</time>
      </trkpt>
      <trkpt lat="48.783296" lon="9.923431">
        <ele>638</ele>
        <time>2026-08-30T11:53:35Z</time>
      </trkpt>
      <trkpt lat="48.783300" lon="9.923421">
        <ele>638</ele>
        <time>2026-08-30T11:53:36Z</time>
      </trkpt>
      <trkpt lat="48.783309" lon="9.923411">
        <ele>638.2</ele>
        <time>2026-08-30T11:53:37Z</time>
      </trkpt>
      <trkpt lat="48.783315" lon="9.923404">
        <ele>638.4</ele>
        <time>2026-08-30T11:53:38Z</time>
      </trkpt>
      <trkpt lat="48.783321" lon="9.923400">
        <ele>638.6</ele>
        <time>2026-08-30T11:53:39Z</time>
      </trkpt>
      <trkpt lat="48.783324" lon="9.923393">
        <ele>638.8</ele>
        <time>2026-08-30T11:53:40Z</time>
      </trkpt>
      <trkpt lat="48.783332" lon="9.923387">
        <ele>639</ele>
        <time>2026-08-30T11:53:41Z</time>
      </trkpt>
      <trkpt lat="48.783340" lon="9.923373">
        <ele>639.2</ele>
        <time>2026-08-30T11:53:42Z</time>
      </trkpt>
      <trkpt lat="48.783347" lon="9.923363">
        <ele>639.4</ele>
        <time>2026-08-30T11:53:43Z</time>
      </trkpt>
      <trkpt lat="48.783354" lon="9.923357">
        <ele>639.6</ele>
        <time>2026-08-30T11:53:44Z</time>
      </trkpt>
      <trkpt lat="48.783366" lon="9.923348">
        <ele>639.8</ele>
        <time>2026-08-30T11:53:45Z</time>
      </trkpt>
      <trkpt lat="48.783374" lon="9.923333">
        <ele>639.8</ele>
        <time>2026-08-30T11:53:46Z</time>
      </trkpt>
      <trkpt lat="48.783376" lon="9.923326">
        <ele>640</ele>
        <time>2026-08-30T11:53:47Z</time>
      </trkpt>
      <trkpt lat="48.783376" lon="9.923326">
        <ele>640.2</ele>
        <time>2026-08-30T11:53:48Z</time>
      </trkpt>
      <trkpt lat="48.783377" lon="9.923332">
        <ele>640.2</ele>
        <time>2026-08-30T11:53:49Z</time>
      </trkpt>
      <trkpt lat="48.783377" lon="9.923332">
        <ele>640.4</ele>
        <time>2026-08-30T11:53:50Z</time>
      </trkpt>
      <trkpt lat="48.783377" lon="9.923332">
        <ele>640.4</ele>
        <time>2026-08-30T11:53:51Z</time>
      </trkpt>
      <trkpt lat="48.783377" lon="9.923332">
        <ele>640.4</ele>
        <time>2026-08-30T11:53:52Z</time>
      </trkpt>
      <trkpt lat="48.783377" lon="9.923332">
        <ele>640.4</ele>
        <time>2026-08-30T11:53:53Z</time>
      </trkpt>
      <trkpt lat="48.783377" lon="9.923332">
        <ele>640.6</ele>
        <time>2026-08-30T11:53:54Z</time>
      </trkpt>
      <trkpt lat="48.783377" lon="9.923332">
        <ele>640.6</ele>
        <time>2026-08-30T11:53:55Z</time>
      </trkpt>
      <trkpt lat="48.783377" lon="9.923332">
        <ele>640.6</ele>
        <time>2026-08-30T11:53:56Z</time>
      </trkpt>
      <trkpt lat="48.783377" lon="9.923332">
        <ele>640.6</ele>
        <time>2026-08-30T11:53:57Z</time>
      </trkpt>
      <trkpt lat="48.783376" lon="9.923336">
        <ele>640.8</ele>
        <time>2026-08-30T11:53:58Z</time>
      </trkpt>
      <trkpt lat="48.783363" lon="9.923361">
        <ele>640.8</ele>
        <time>2026-08-30T11:53:59Z</time>
      </trkpt>
      <trkpt lat="48.783347" lon="9.923392">
        <ele>640.6</ele>
        <time>2026-08-30T11:54:00Z</time>
      </trkpt>
      <trkpt lat="48.783327" lon="9.923420">
        <ele>640.6</ele>
        <time>2026-08-30T11:54:01Z</time>
      </trkpt>
      <trkpt lat="48.783312" lon="9.923447">
        <ele>640.2</ele>
        <time>2026-08-30T11:54:02Z</time>
      </trkpt>
      <trkpt lat="48.783292" lon="9.923467">
        <ele>640</ele>
        <time>2026-08-30T11:54:03Z</time>
      </trkpt>
      <trkpt lat="48.783278" lon="9.923473">
        <ele>639.4</ele>
        <time>2026-08-30T11:54:04Z</time>
      </trkpt>
      <trkpt lat="48.783266" lon="9.923475">
        <ele>639</ele>
        <time>2026-08-30T11:54:05Z</time>
      </trkpt>
      <trkpt lat="48.783252" lon="9.923476">
        <ele>638.8</ele>
        <time>2026-08-30T11:54:06Z</time>
      </trkpt>
      <trkpt lat="48.783237" lon="9.923475">
        <ele>638.4</ele>
        <time>2026-08-30T11:54:07Z</time>
      </trkpt>
      <trkpt lat="48.783211" lon="9.923483">
        <ele>638</ele>
        <time>2026-08-30T11:54:08Z</time>
      </trkpt>
      <trkpt lat="48.783187" lon="9.923487">
        <ele>637.6</ele>
        <time>2026-08-30T11:54:09Z</time>
      </trkpt>
      <trkpt lat="48.783157" lon="9.923495">
        <ele>637.4</ele>
        <time>2026-08-30T11:54:10Z</time>
      </trkpt>
      <trkpt lat="48.783129" lon="9.923505">
        <ele>637.2</ele>
        <time>2026-08-30T11:54:11Z</time>
      </trkpt>
      <trkpt lat="48.783107" lon="9.923518">
        <ele>636.8</ele>
        <time>2026-08-30T11:54:12Z</time>
      </trkpt>
      <trkpt lat="48.783092" lon="9.923532">
        <ele>636.6</ele>
        <time>2026-08-30T11:54:13Z</time>
      </trkpt>
      <trkpt lat="48.783084" lon="9.923536">
        <ele>636.4</ele>
        <time>2026-08-30T11:54:14Z</time>
      </trkpt>
      <trkpt lat="48.783079" lon="9.923542">
        <ele>636.2</ele>
        <time>2026-08-30T11:54:15Z</time>
      </trkpt>
      <trkpt lat="48.783079" lon="9.923542">
        <ele>636</ele>
        <time>2026-08-30T11:54:16Z</time>
      </trkpt>
      <trkpt lat="48.783079" lon="9.923542">
        <ele>636</ele>
        <time>2026-08-30T11:54:17Z</time>
      </trkpt>
      <trkpt lat="48.783079" lon="9.923542">
        <ele>635.8</ele>
        <time>2026-08-30T11:54:18Z</time>
      </trkpt>
      <trkpt lat="48.783079" lon="9.923542">
        <ele>635.8</ele>
        <time>2026-08-30T11:54:19Z</time>
      </trkpt>
      <trkpt lat="48.783079" lon="9.923542">
        <ele>635.6</ele>
        <time>2026-08-30T11:54:20Z</time>
      </trkpt>
      <trkpt lat="48.783079" lon="9.923542">
        <ele>635.6</ele>
        <time>2026-08-30T11:54:21Z</time>
      </trkpt>
      <trkpt lat="48.783079" lon="9.923542">
        <ele>635.6</ele>
        <time>2026-08-30T11:54:22Z</time>
      </trkpt>
      <trkpt lat="48.783079" lon="9.923542">
        <ele>635.6</ele>
        <time>2026-08-30T11:54:23Z</time>
      </trkpt>
      <trkpt lat="48.783079" lon="9.923542">
        <ele>635.4</ele>
        <time>2026-08-30T11:54:24Z</time>
      </trkpt>
      <trkpt lat="48.783079" lon="9.923542">
        <ele>635.4</ele>
        <time>2026-08-30T11:54:25Z</time>
      </trkpt>
      <trkpt lat="48.783079" lon="9.923542">
        <ele>635.4</ele>
        <time>2026-08-30T11:54:26Z</time>
      </trkpt>
      <trkpt lat="48.783079" lon="9.923542">
        <ele>635.4</ele>
        <time>2026-08-30T11:54:27Z</time>
      </trkpt>
      <trkpt lat="48.783079" lon="9.923542">
        <ele>635.4</ele>
        <time>2026-08-30T11:54:28Z</time>
      </trkpt>
      <trkpt lat="48.783079" lon="9.923542">
        <ele>635.4</ele>
        <time>2026-08-30T11:54:29Z</time>
      </trkpt>
      <trkpt lat="48.783068" lon="9.923554">
        <ele>635.4</ele>
        <time>2026-08-30T11:54:30Z</time>
      </trkpt>
      <trkpt lat="48.783049" lon="9.923568">
        <ele>635.4</ele>
        <time>2026-08-30T11:54:31Z</time>
      </trkpt>
      <trkpt lat="48.783041" lon="9.923577">
        <ele>635.4</ele>
        <time>2026-08-30T11:54:32Z</time>
      </trkpt>
      <trkpt lat="48.783036" lon="9.923587">
        <ele>635.2</ele>
        <time>2026-08-30T11:54:33Z</time>
      </trkpt>
      <trkpt lat="48.783032" lon="9.923608">
        <ele>635.2</ele>
        <time>2026-08-30T11:54:34Z</time>
      </trkpt>
      <trkpt lat="48.783018" lon="9.923624">
        <ele>635</ele>
        <time>2026-08-30T11:54:35Z</time>
      </trkpt>
      <trkpt lat="48.783008" lon="9.923631">
        <ele>634.8</ele>
        <time>2026-08-30T11:54:36Z</time>
      </trkpt>
      <trkpt lat="48.782998" lon="9.923641">
        <ele>634.4</ele>
        <time>2026-08-30T11:54:37Z</time>
      </trkpt>
      <trkpt lat="48.782998" lon="9.923650">
        <ele>634.2</ele>
        <time>2026-08-30T11:54:38Z</time>
      </trkpt>
      <trkpt lat="48.782997" lon="9.923654">
        <ele>633.8</ele>
        <time>2026-08-30T11:54:39Z</time>
      </trkpt>
      <trkpt lat="48.782997" lon="9.923654">
        <ele>633.8</ele>
        <time>2026-08-30T11:54:40Z</time>
      </trkpt>
      <trkpt lat="48.782997" lon="9.923654">
        <ele>633.6</ele>
        <time>2026-08-30T11:54:41Z</time>
      </trkpt>
      <trkpt lat="48.782997" lon="9.923654">
        <ele>633.4</ele>
        <time>2026-08-30T11:54:42Z</time>
      </trkpt>
      <trkpt lat="48.782997" lon="9.923654">
        <ele>633.4</ele>
        <time>2026-08-30T11:54:43Z</time>
      </trkpt>
      <trkpt lat="48.782997" lon="9.923654">
        <ele>633.2</ele>
        <time>2026-08-30T11:54:44Z</time>
      </trkpt>
      <trkpt lat="48.782997" lon="9.923654">
        <ele>633.2</ele>
        <time>2026-08-30T11:54:45Z</time>
      </trkpt>
      <trkpt lat="48.782997" lon="9.923654">
        <ele>633.2</ele>
        <time>2026-08-30T11:54:46Z</time>
      </trkpt>
      <trkpt lat="48.782997" lon="9.923654">
        <ele>633.2</ele>
        <time>2026-08-30T11:54:47Z</time>
      </trkpt>
      <trkpt lat="48.782997" lon="9.923654">
        <ele>633</ele>
        <time>2026-08-30T11:54:48Z</time>
      </trkpt>
      <trkpt lat="48.782997" lon="9.923654">
        <ele>633</ele>
        <time>2026-08-30T11:54:49Z</time>
      </trkpt>
      <trkpt lat="48.782997" lon="9.923654">
        <ele>633</ele>
        <time>2026-08-30T11:54:50Z</time>
      </trkpt>
      <trkpt lat="48.782997" lon="9.923654">
        <ele>633</ele>
        <time>2026-08-30T11:54:51Z</time>
      </trkpt>
      <trkpt lat="48.782997" lon="9.923654">
        <ele>633</ele>
        <time>2026-08-30T11:54:52Z</time>
      </trkpt>
      <trkpt lat="48.782997" lon="9.923654">
        <ele>633.2</ele>
        <time>2026-08-30T11:54:53Z</time>
      </trkpt>
      <trkpt lat="48.782997" lon="9.923654">
        <ele>633.2</ele>
        <time>2026-08-30T11:54:54Z</time>
      </trkpt>
      <trkpt lat="48.782997" lon="9.923654">
        <ele>633.2</ele>
        <time>2026-08-30T11:54:55Z</time>
      </trkpt>
      <trkpt lat="48.782997" lon="9.923654">
        <ele>633.2</ele>
        <time>2026-08-30T11:54:56Z</time>
      </trkpt>
      <trkpt lat="48.782997" lon="9.923654">
        <ele>633.2</ele>
        <time>2026-08-30T11:54:57Z</time>
      </trkpt>
      <trkpt lat="48.782997" lon="9.923654">
        <ele>633</ele>
        <time>2026-08-30T11:54:58Z</time>
      </trkpt>
      <trkpt lat="48.782997" lon="9.923654">
        <ele>633</ele>
        <time>2026-08-30T11:54:59Z</time>
      </trkpt>
      <trkpt lat="48.782997" lon="9.923654">
        <ele>633</ele>
        <time>2026-08-30T11:55:00Z</time>
      </trkpt>
      <trkpt lat="48.782997" lon="9.923654">
        <ele>633.2</ele>
        <time>2026-08-30T11:55:01Z</time>
      </trkpt>
      <trkpt lat="48.782997" lon="9.923654">
        <ele>633.2</ele>
        <time>2026-08-30T11:55:02Z</time>
      </trkpt>
      <trkpt lat="48.782997" lon="9.923654">
        <ele>633.2</ele>
        <time>2026-08-30T11:55:03Z</time>
      </trkpt>
      <trkpt lat="48.782997" lon="9.923654">
        <ele>633.2</ele>
        <time>2026-08-30T11:55:04Z</time>
      </trkpt>
      <trkpt lat="48.782997" lon="9.923654">
        <ele>633.2</ele>
        <time>2026-08-30T11:55:05Z</time>
      </trkpt>
      <trkpt lat="48.782997" lon="9.923654">
        <ele>633.2</ele>
        <time>2026-08-30T11:55:06Z</time>
      </trkpt>
      <trkpt lat="48.782997" lon="9.923654">
        <ele>633.2</ele>
        <time>2026-08-30T11:55:07Z</time>
      </trkpt>
      <trkpt lat="48.782998" lon="9.923646">
        <ele>633</ele>
        <time>2026-08-30T11:55:08Z</time>
      </trkpt>
      <trkpt lat="48.782989" lon="9.923634">
        <ele>633</ele>
        <time>2026-08-30T11:55:09Z</time>
      </trkpt>
      <trkpt lat="48.782972" lon="9.923632">
        <ele>633</ele>
        <time>2026-08-30T11:55:10Z</time>
      </trkpt>
      <trkpt lat="48.782958" lon="9.923634">
        <ele>633</ele>
        <time>2026-08-30T11:55:11Z</time>
      </trkpt>
      <trkpt lat="48.782943" lon="9.923644">
        <ele>633</ele>
        <time>2026-08-30T11:55:12Z</time>
      </trkpt>
      <trkpt lat="48.782929" lon="9.923650">
        <ele>632.8</ele>
        <time>2026-08-30T11:55:13Z</time>
      </trkpt>
      <trkpt lat="48.782913" lon="9.923659">
        <ele>632.8</ele>
        <time>2026-08-30T11:55:14Z</time>
      </trkpt>
      <trkpt lat="48.782899" lon="9.923663">
        <ele>632.6</ele>
        <time>2026-08-30T11:55:15Z</time>
      </trkpt>
      <trkpt lat="48.782882" lon="9.923679">
        <ele>632.4</ele>
        <time>2026-08-30T11:55:16Z</time>
      </trkpt>
      <trkpt lat="48.782869" lon="9.923697">
        <ele>632.2</ele>
        <time>2026-08-30T11:55:17Z</time>
      </trkpt>
      <trkpt lat="48.782850" lon="9.923709">
        <ele>632</ele>
        <time>2026-08-30T11:55:18Z</time>
      </trkpt>
      <trkpt lat="48.782840" lon="9.923715">
        <ele>631.8</ele>
        <time>2026-08-30T11:55:19Z</time>
      </trkpt>
      <trkpt lat="48.782828" lon="9.923717">
        <ele>631.6</ele>
        <time>2026-08-30T11:55:20Z</time>
      </trkpt>
      <trkpt lat="48.782812" lon="9.923727">
        <ele>631.2</ele>
        <time>2026-08-30T11:55:21Z</time>
      </trkpt>
      <trkpt lat="48.782793" lon="9.923726">
        <ele>631</ele>
        <time>2026-08-30T11:55:22Z</time>
      </trkpt>
      <trkpt lat="48.782771" lon="9.923726">
        <ele>630.6</ele>
        <time>2026-08-30T11:55:23Z</time>
      </trkpt>
      <trkpt lat="48.782745" lon="9.923723">
        <ele>630.2</ele>
        <time>2026-08-30T11:55:24Z</time>
      </trkpt>
      <trkpt lat="48.782712" lon="9.923738">
        <ele>629.6</ele>
        <time>2026-08-30T11:55:25Z</time>
      </trkpt>
      <trkpt lat="48.782682" lon="9.923751">
        <ele>629</ele>
        <time>2026-08-30T11:55:26Z</time>
      </trkpt>
      <trkpt lat="48.782655" lon="9.923746">
        <ele>628.6</ele>
        <time>2026-08-30T11:55:27Z</time>
      </trkpt>
      <trkpt lat="48.782630" lon="9.923742">
        <ele>628</ele>
        <time>2026-08-30T11:55:28Z</time>
      </trkpt>
      <trkpt lat="48.782607" lon="9.923742">
        <ele>627.6</ele>
        <time>2026-08-30T11:55:29Z</time>
      </trkpt>
      <trkpt lat="48.782585" lon="9.923741">
        <ele>627</ele>
        <time>2026-08-30T11:55:30Z</time>
      </trkpt>
      <trkpt lat="48.782572" lon="9.923732">
        <ele>626.6</ele>
        <time>2026-08-30T11:55:31Z</time>
      </trkpt>
      <trkpt lat="48.782556" lon="9.923729">
        <ele>626.2</ele>
        <time>2026-08-30T11:55:32Z</time>
      </trkpt>
      <trkpt lat="48.782542" lon="9.923729">
        <ele>625.8</ele>
        <time>2026-08-30T11:55:33Z</time>
      </trkpt>
      <trkpt lat="48.782525" lon="9.923726">
        <ele>625.4</ele>
        <time>2026-08-30T11:55:34Z</time>
      </trkpt>
      <trkpt lat="48.782520" lon="9.923728">
        <ele>625</ele>
        <time>2026-08-30T11:55:35Z</time>
      </trkpt>
      <trkpt lat="48.782520" lon="9.923728">
        <ele>624.6</ele>
        <time>2026-08-30T11:55:36Z</time>
      </trkpt>
      <trkpt lat="48.782520" lon="9.923728">
        <ele>624.2</ele>
        <time>2026-08-30T11:55:37Z</time>
      </trkpt>
      <trkpt lat="48.782520" lon="9.923728">
        <ele>624</ele>
        <time>2026-08-30T11:55:38Z</time>
      </trkpt>
      <trkpt lat="48.782520" lon="9.923728">
        <ele>623.8</ele>
        <time>2026-08-30T11:55:39Z</time>
      </trkpt>
      <trkpt lat="48.782520" lon="9.923728">
        <ele>623.8</ele>
        <time>2026-08-30T11:55:40Z</time>
      </trkpt>
      <trkpt lat="48.782520" lon="9.923728">
        <ele>623.6</ele>
        <time>2026-08-30T11:55:41Z</time>
      </trkpt>
      <trkpt lat="48.782520" lon="9.923728">
        <ele>623.6</ele>
        <time>2026-08-30T11:55:42Z</time>
      </trkpt>
      <trkpt lat="48.782520" lon="9.923728">
        <ele>623.6</ele>
        <time>2026-08-30T11:55:43Z</time>
      </trkpt>
      <trkpt lat="48.782520" lon="9.923728">
        <ele>623.6</ele>
        <time>2026-08-30T11:55:44Z</time>
      </trkpt>
      <trkpt lat="48.782518" lon="9.923725">
        <ele>623.4</ele>
        <time>2026-08-30T11:55:45Z</time>
      </trkpt>
      <trkpt lat="48.782504" lon="9.923715">
        <ele>623.2</ele>
        <time>2026-08-30T11:55:46Z</time>
      </trkpt>
      <trkpt lat="48.782504" lon="9.923715">
        <ele>623.2</ele>
        <time>2026-08-30T11:55:47Z</time>
      </trkpt>
      <trkpt lat="48.782504" lon="9.923715">
        <ele>623</ele>
        <time>2026-08-30T11:55:48Z</time>
      </trkpt>
      <trkpt lat="48.782504" lon="9.923715">
        <ele>623</ele>
        <time>2026-08-30T11:55:49Z</time>
      </trkpt>
      <trkpt lat="48.782504" lon="9.923715">
        <ele>622.8</ele>
        <time>2026-08-30T11:55:50Z</time>
      </trkpt>
      <trkpt lat="48.782504" lon="9.923715">
        <ele>622.8</ele>
        <time>2026-08-30T11:55:51Z</time>
      </trkpt>
      <trkpt lat="48.782504" lon="9.923715">
        <ele>622.8</ele>
        <time>2026-08-30T11:55:52Z</time>
      </trkpt>
      <trkpt lat="48.782504" lon="9.923712">
        <ele>622.8</ele>
        <time>2026-08-30T11:55:53Z</time>
      </trkpt>
      <trkpt lat="48.782506" lon="9.923697">
        <ele>622.8</ele>
        <time>2026-08-30T11:55:54Z</time>
      </trkpt>
      <trkpt lat="48.782503" lon="9.923692">
        <ele>622.6</ele>
        <time>2026-08-30T11:55:55Z</time>
      </trkpt>
      <trkpt lat="48.782503" lon="9.923692">
        <ele>622.6</ele>
        <time>2026-08-30T11:55:56Z</time>
      </trkpt>
      <trkpt lat="48.782503" lon="9.923692">
        <ele>622.4</ele>
        <time>2026-08-30T11:55:57Z</time>
      </trkpt>
      <trkpt lat="48.782503" lon="9.923692">
        <ele>622.4</ele>
        <time>2026-08-30T11:55:58Z</time>
      </trkpt>
      <trkpt lat="48.782503" lon="9.923692">
        <ele>622.4</ele>
        <time>2026-08-30T11:55:59Z</time>
      </trkpt>
      <trkpt lat="48.782503" lon="9.923692">
        <ele>622.2</ele>
        <time>2026-08-30T11:56:00Z</time>
      </trkpt>
      <trkpt lat="48.782503" lon="9.923692">
        <ele>622.2</ele>
        <time>2026-08-30T11:56:01Z</time>
      </trkpt>
      <trkpt lat="48.782503" lon="9.923692">
        <ele>622.2</ele>
        <time>2026-08-30T11:56:02Z</time>
      </trkpt>
      <trkpt lat="48.782503" lon="9.923692">
        <ele>622.2</ele>
        <time>2026-08-30T11:56:03Z</time>
      </trkpt>
      <trkpt lat="48.782503" lon="9.923692">
        <ele>622.2</ele>
        <time>2026-08-30T11:56:04Z</time>
      </trkpt>
      <trkpt lat="48.782503" lon="9.923692">
        <ele>622.2</ele>
        <time>2026-08-30T11:56:05Z</time>
      </trkpt>
      <trkpt lat="48.782503" lon="9.923692">
        <ele>622.2</ele>
        <time>2026-08-30T11:56:06Z</time>
      </trkpt>
      <trkpt lat="48.782503" lon="9.923692">
        <ele>622.2</ele>
        <time>2026-08-30T11:56:07Z</time>
      </trkpt>
      <trkpt lat="48.782503" lon="9.923692">
        <ele>622.2</ele>
        <time>2026-08-30T11:56:08Z</time>
      </trkpt>
      <trkpt lat="48.782503" lon="9.923692">
        <ele>622.2</ele>
        <time>2026-08-30T11:56:09Z</time>
      </trkpt>
      <trkpt lat="48.782503" lon="9.923692">
        <ele>622.2</ele>
        <time>2026-08-30T11:56:10Z</time>
      </trkpt>
      <trkpt lat="48.782503" lon="9.923692">
        <ele>622.2</ele>
        <time>2026-08-30T11:56:11Z</time>
      </trkpt>
      <trkpt lat="48.782503" lon="9.923692">
        <ele>622</ele>
        <time>2026-08-30T11:56:12Z</time>
      </trkpt>
      <trkpt lat="48.782503" lon="9.923692">
        <ele>622</ele>
        <time>2026-08-30T11:56:13Z</time>
      </trkpt>
      <trkpt lat="48.782499" lon="9.923696">
        <ele>622</ele>
        <time>2026-08-30T11:56:14Z</time>
      </trkpt>
      <trkpt lat="48.782472" lon="9.923706">
        <ele>622</ele>
        <time>2026-08-30T11:56:15Z</time>
      </trkpt>
      <trkpt lat="48.782458" lon="9.923695">
        <ele>621.8</ele>
        <time>2026-08-30T11:56:16Z</time>
      </trkpt>
      <trkpt lat="48.782439" lon="9.923696">
        <ele>621.6</ele>
        <time>2026-08-30T11:56:17Z</time>
      </trkpt>
      <trkpt lat="48.782421" lon="9.923702">
        <ele>621.4</ele>
        <time>2026-08-30T11:56:18Z</time>
      </trkpt>
      <trkpt lat="48.782404" lon="9.923699">
        <ele>621</ele>
        <time>2026-08-30T11:56:19Z</time>
      </trkpt>
      <trkpt lat="48.782380" lon="9.923696">
        <ele>620.6</ele>
        <time>2026-08-30T11:56:20Z</time>
      </trkpt>
      <trkpt lat="48.782365" lon="9.923698">
        <ele>620</ele>
        <time>2026-08-30T11:56:21Z</time>
      </trkpt>
      <trkpt lat="48.782353" lon="9.923707">
        <ele>619.6</ele>
        <time>2026-08-30T11:56:22Z</time>
      </trkpt>
      <trkpt lat="48.782342" lon="9.923720">
        <ele>619</ele>
        <time>2026-08-30T11:56:23Z</time>
      </trkpt>
      <trkpt lat="48.782320" lon="9.923740">
        <ele>618.4</ele>
        <time>2026-08-30T11:56:24Z</time>
      </trkpt>
      <trkpt lat="48.782303" lon="9.923771">
        <ele>617.8</ele>
        <time>2026-08-30T11:56:25Z</time>
      </trkpt>
      <trkpt lat="48.782294" lon="9.923813">
        <ele>617</ele>
        <time>2026-08-30T11:56:26Z</time>
      </trkpt>
      <trkpt lat="48.782300" lon="9.923846">
        <ele>616.4</ele>
        <time>2026-08-30T11:56:27Z</time>
      </trkpt>
      <trkpt lat="48.782306" lon="9.923882">
        <ele>615.8</ele>
        <time>2026-08-30T11:56:28Z</time>
      </trkpt>
      <trkpt lat="48.782316" lon="9.923919">
        <ele>615.2</ele>
        <time>2026-08-30T11:56:29Z</time>
      </trkpt>
      <trkpt lat="48.782334" lon="9.923956">
        <ele>615</ele>
        <time>2026-08-30T11:56:30Z</time>
      </trkpt>
      <trkpt lat="48.782351" lon="9.923989">
        <ele>614.6</ele>
        <time>2026-08-30T11:56:31Z</time>
      </trkpt>
      <trkpt lat="48.782372" lon="9.924021">
        <ele>614.2</ele>
        <time>2026-08-30T11:56:32Z</time>
      </trkpt>
      <trkpt lat="48.782389" lon="9.924054">
        <ele>614</ele>
        <time>2026-08-30T11:56:33Z</time>
      </trkpt>
      <trkpt lat="48.782409" lon="9.924090">
        <ele>613.8</ele>
        <time>2026-08-30T11:56:34Z</time>
      </trkpt>
      <trkpt lat="48.782433" lon="9.924125">
        <ele>613.6</ele>
        <time>2026-08-30T11:56:35Z</time>
      </trkpt>
      <trkpt lat="48.782464" lon="9.924155">
        <ele>613.4</ele>
        <time>2026-08-30T11:56:36Z</time>
      </trkpt>
      <trkpt lat="48.782487" lon="9.924177">
        <ele>613</ele>
        <time>2026-08-30T11:56:37Z</time>
      </trkpt>
      <trkpt lat="48.782513" lon="9.924189">
        <ele>612.8</ele>
        <time>2026-08-30T11:56:38Z</time>
      </trkpt>
      <trkpt lat="48.782539" lon="9.924196">
        <ele>612.8</ele>
        <time>2026-08-30T11:56:39Z</time>
      </trkpt>
      <trkpt lat="48.782568" lon="9.924199">
        <ele>612.6</ele>
        <time>2026-08-30T11:56:40Z</time>
      </trkpt>
      <trkpt lat="48.782598" lon="9.924194">
        <ele>612.4</ele>
        <time>2026-08-30T11:56:41Z</time>
      </trkpt>
      <trkpt lat="48.782631" lon="9.924197">
        <ele>612.2</ele>
        <time>2026-08-30T11:56:42Z</time>
      </trkpt>
      <trkpt lat="48.782669" lon="9.924197">
        <ele>612</ele>
        <time>2026-08-30T11:56:43Z</time>
      </trkpt>
      <trkpt lat="48.782696" lon="9.924199">
        <ele>611.8</ele>
        <time>2026-08-30T11:56:44Z</time>
      </trkpt>
      <trkpt lat="48.782724" lon="9.924205">
        <ele>611.8</ele>
        <time>2026-08-30T11:56:45Z</time>
      </trkpt>
      <trkpt lat="48.782754" lon="9.924214">
        <ele>611.6</ele>
        <time>2026-08-30T11:56:46Z</time>
      </trkpt>
      <trkpt lat="48.782781" lon="9.924217">
        <ele>611.4</ele>
        <time>2026-08-30T11:56:47Z</time>
      </trkpt>
      <trkpt lat="48.782799" lon="9.924235">
        <ele>611.2</ele>
        <time>2026-08-30T11:56:48Z</time>
      </trkpt>
      <trkpt lat="48.782806" lon="9.924258">
        <ele>611.2</ele>
        <time>2026-08-30T11:56:49Z</time>
      </trkpt>
      <trkpt lat="48.782814" lon="9.924281">
        <ele>611</ele>
        <time>2026-08-30T11:56:50Z</time>
      </trkpt>
      <trkpt lat="48.782825" lon="9.924311">
        <ele>610.8</ele>
        <time>2026-08-30T11:56:51Z</time>
      </trkpt>
      <trkpt lat="48.782836" lon="9.924345">
        <ele>610.4</ele>
        <time>2026-08-30T11:56:52Z</time>
      </trkpt>
      <trkpt lat="48.782844" lon="9.924378">
        <ele>610</ele>
        <time>2026-08-30T11:56:53Z</time>
      </trkpt>
      <trkpt lat="48.782851" lon="9.924402">
        <ele>609.6</ele>
        <time>2026-08-30T11:56:54Z</time>
      </trkpt>
      <trkpt lat="48.782861" lon="9.924431">
        <ele>609</ele>
        <time>2026-08-30T11:56:55Z</time>
      </trkpt>
      <trkpt lat="48.782881" lon="9.924455">
        <ele>608.4</ele>
        <time>2026-08-30T11:56:56Z</time>
      </trkpt>
      <trkpt lat="48.782889" lon="9.924489">
        <ele>607.6</ele>
        <time>2026-08-30T11:56:57Z</time>
      </trkpt>
      <trkpt lat="48.782910" lon="9.924519">
        <ele>607</ele>
        <time>2026-08-30T11:56:58Z</time>
      </trkpt>
      <trkpt lat="48.782932" lon="9.924553">
        <ele>606.2</ele>
        <time>2026-08-30T11:56:59Z</time>
      </trkpt>
      <trkpt lat="48.782961" lon="9.924587">
        <ele>605.6</ele>
        <time>2026-08-30T11:57:00Z</time>
      </trkpt>
      <trkpt lat="48.782988" lon="9.924613">
        <ele>605</ele>
        <time>2026-08-30T11:57:01Z</time>
      </trkpt>
      <trkpt lat="48.783012" lon="9.924641">
        <ele>604.2</ele>
        <time>2026-08-30T11:57:02Z</time>
      </trkpt>
      <trkpt lat="48.783032" lon="9.924659">
        <ele>603.4</ele>
        <time>2026-08-30T11:57:03Z</time>
      </trkpt>
      <trkpt lat="48.783053" lon="9.924681">
        <ele>602.8</ele>
        <time>2026-08-30T11:57:04Z</time>
      </trkpt>
      <trkpt lat="48.783086" lon="9.924703">
        <ele>602.2</ele>
        <time>2026-08-30T11:57:05Z</time>
      </trkpt>
      <trkpt lat="48.783123" lon="9.924734">
        <ele>601.4</ele>
        <time>2026-08-30T11:57:06Z</time>
      </trkpt>
      <trkpt lat="48.783151" lon="9.924779">
        <ele>600.4</ele>
        <time>2026-08-30T11:57:07Z</time>
      </trkpt>
      <trkpt lat="48.783180" lon="9.924823">
        <ele>599.8</ele>
        <time>2026-08-30T11:57:08Z</time>
      </trkpt>
      <trkpt lat="48.783215" lon="9.924867">
        <ele>599</ele>
        <time>2026-08-30T11:57:09Z</time>
      </trkpt>
      <trkpt lat="48.783250" lon="9.924921">
        <ele>598.2</ele>
        <time>2026-08-30T11:57:10Z</time>
      </trkpt>
      <trkpt lat="48.783283" lon="9.924963">
        <ele>597.6</ele>
        <time>2026-08-30T11:57:11Z</time>
      </trkpt>
      <trkpt lat="48.783311" lon="9.924999">
        <ele>596.6</ele>
        <time>2026-08-30T11:57:12Z</time>
      </trkpt>
      <trkpt lat="48.783339" lon="9.925034">
        <ele>595.8</ele>
        <time>2026-08-30T11:57:13Z</time>
      </trkpt>
      <trkpt lat="48.783362" lon="9.925064">
        <ele>595</ele>
        <time>2026-08-30T11:57:14Z</time>
      </trkpt>
      <trkpt lat="48.783376" lon="9.925097">
        <ele>594.4</ele>
        <time>2026-08-30T11:57:15Z</time>
      </trkpt>
      <trkpt lat="48.783397" lon="9.925125">
        <ele>593.6</ele>
        <time>2026-08-30T11:57:16Z</time>
      </trkpt>
      <trkpt lat="48.783420" lon="9.925152">
        <ele>592.6</ele>
        <time>2026-08-30T11:57:17Z</time>
      </trkpt>
      <trkpt lat="48.783440" lon="9.925175">
        <ele>592</ele>
        <time>2026-08-30T11:57:18Z</time>
      </trkpt>
      <trkpt lat="48.783459" lon="9.925207">
        <ele>591.4</ele>
        <time>2026-08-30T11:57:19Z</time>
      </trkpt>
      <trkpt lat="48.783462" lon="9.925230">
        <ele>590.6</ele>
        <time>2026-08-30T11:57:20Z</time>
      </trkpt>
      <trkpt lat="48.783461" lon="9.925256">
        <ele>590</ele>
        <time>2026-08-30T11:57:21Z</time>
      </trkpt>
      <trkpt lat="48.783449" lon="9.925266">
        <ele>589.4</ele>
        <time>2026-08-30T11:57:22Z</time>
      </trkpt>
      <trkpt lat="48.783429" lon="9.925275">
        <ele>588.8</ele>
        <time>2026-08-30T11:57:23Z</time>
      </trkpt>
      <trkpt lat="48.783411" lon="9.925294">
        <ele>588.2</ele>
        <time>2026-08-30T11:57:24Z</time>
      </trkpt>
      <trkpt lat="48.783397" lon="9.925311">
        <ele>587.6</ele>
        <time>2026-08-30T11:57:25Z</time>
      </trkpt>
      <trkpt lat="48.783382" lon="9.925336">
        <ele>587</ele>
        <time>2026-08-30T11:57:26Z</time>
      </trkpt>
      <trkpt lat="48.783374" lon="9.925367">
        <ele>586.2</ele>
        <time>2026-08-30T11:57:27Z</time>
      </trkpt>
      <trkpt lat="48.783354" lon="9.925395">
        <ele>585.4</ele>
        <time>2026-08-30T11:57:28Z</time>
      </trkpt>
      <trkpt lat="48.783328" lon="9.925411">
        <ele>584.8</ele>
        <time>2026-08-30T11:57:29Z</time>
      </trkpt>
      <trkpt lat="48.783301" lon="9.925420">
        <ele>584.2</ele>
        <time>2026-08-30T11:57:30Z</time>
      </trkpt>
      <trkpt lat="48.783279" lon="9.925431">
        <ele>583.6</ele>
        <time>2026-08-30T11:57:31Z</time>
      </trkpt>
      <trkpt lat="48.783256" lon="9.925436">
        <ele>583</ele>
        <time>2026-08-30T11:57:32Z</time>
      </trkpt>
      <trkpt lat="48.783233" lon="9.925426">
        <ele>582.8</ele>
        <time>2026-08-30T11:57:33Z</time>
      </trkpt>
      <trkpt lat="48.783207" lon="9.925411">
        <ele>582.4</ele>
        <time>2026-08-30T11:57:34Z</time>
      </trkpt>
      <trkpt lat="48.783175" lon="9.925407">
        <ele>582.2</ele>
        <time>2026-08-30T11:57:35Z</time>
      </trkpt>
      <trkpt lat="48.783145" lon="9.925396">
        <ele>582</ele>
        <time>2026-08-30T11:57:36Z</time>
      </trkpt>
      <trkpt lat="48.783111" lon="9.925397">
        <ele>581.8</ele>
        <time>2026-08-30T11:57:37Z</time>
      </trkpt>
      <trkpt lat="48.783083" lon="9.925411">
        <ele>581.4</ele>
        <time>2026-08-30T11:57:38Z</time>
      </trkpt>
      <trkpt lat="48.783047" lon="9.925420">
        <ele>581</ele>
        <time>2026-08-30T11:57:39Z</time>
      </trkpt>
      <trkpt lat="48.783011" lon="9.925432">
        <ele>580.6</ele>
        <time>2026-08-30T11:57:40Z</time>
      </trkpt>
      <trkpt lat="48.782979" lon="9.925438">
        <ele>580</ele>
        <time>2026-08-30T11:57:41Z</time>
      </trkpt>
      <trkpt lat="48.782947" lon="9.925446">
        <ele>579.4</ele>
        <time>2026-08-30T11:57:42Z</time>
      </trkpt>
      <trkpt lat="48.782910" lon="9.925461">
        <ele>578.6</ele>
        <time>2026-08-30T11:57:43Z</time>
      </trkpt>
      <trkpt lat="48.782873" lon="9.925472">
        <ele>578</ele>
        <time>2026-08-30T11:57:44Z</time>
      </trkpt>
      <trkpt lat="48.782840" lon="9.925474">
        <ele>577.2</ele>
        <time>2026-08-30T11:57:45Z</time>
      </trkpt>
      <trkpt lat="48.782808" lon="9.925479">
        <ele>576.6</ele>
        <time>2026-08-30T11:57:46Z</time>
      </trkpt>
      <trkpt lat="48.782771" lon="9.925485">
        <ele>575.8</ele>
        <time>2026-08-30T11:57:47Z</time>
      </trkpt>
      <trkpt lat="48.782738" lon="9.925489">
        <ele>575</ele>
        <time>2026-08-30T11:57:48Z</time>
      </trkpt>
      <trkpt lat="48.782699" lon="9.925498">
        <ele>574.2</ele>
        <time>2026-08-30T11:57:49Z</time>
      </trkpt>
      <trkpt lat="48.782664" lon="9.925497">
        <ele>573.6</ele>
        <time>2026-08-30T11:57:50Z</time>
      </trkpt>
      <trkpt lat="48.782622" lon="9.925505">
        <ele>572.8</ele>
        <time>2026-08-30T11:57:51Z</time>
      </trkpt>
      <trkpt lat="48.782587" lon="9.925494">
        <ele>572.2</ele>
        <time>2026-08-30T11:57:52Z</time>
      </trkpt>
      <trkpt lat="48.782554" lon="9.925480">
        <ele>571.6</ele>
        <time>2026-08-30T11:57:53Z</time>
      </trkpt>
      <trkpt lat="48.782533" lon="9.925455">
        <ele>571</ele>
        <time>2026-08-30T11:57:54Z</time>
      </trkpt>
      <trkpt lat="48.782510" lon="9.925432">
        <ele>570.6</ele>
        <time>2026-08-30T11:57:55Z</time>
      </trkpt>
      <trkpt lat="48.782484" lon="9.925406">
        <ele>570.4</ele>
        <time>2026-08-30T11:57:56Z</time>
      </trkpt>
      <trkpt lat="48.782454" lon="9.925380">
        <ele>570</ele>
        <time>2026-08-30T11:57:57Z</time>
      </trkpt>
      <trkpt lat="48.782420" lon="9.925353">
        <ele>569.6</ele>
        <time>2026-08-30T11:57:58Z</time>
      </trkpt>
      <trkpt lat="48.782396" lon="9.925318">
        <ele>569.4</ele>
        <time>2026-08-30T11:57:59Z</time>
      </trkpt>
      <trkpt lat="48.782366" lon="9.925299">
        <ele>569</ele>
        <time>2026-08-30T11:58:00Z</time>
      </trkpt>
      <trkpt lat="48.782332" lon="9.925284">
        <ele>568.6</ele>
        <time>2026-08-30T11:58:01Z</time>
      </trkpt>
      <trkpt lat="48.782297" lon="9.925263">
        <ele>568.2</ele>
        <time>2026-08-30T11:58:02Z</time>
      </trkpt>
      <trkpt lat="48.782266" lon="9.925245">
        <ele>567.6</ele>
        <time>2026-08-30T11:58:03Z</time>
      </trkpt>
      <trkpt lat="48.782235" lon="9.925241">
        <ele>567.4</ele>
        <time>2026-08-30T11:58:04Z</time>
      </trkpt>
      <trkpt lat="48.782202" lon="9.925237">
        <ele>567</ele>
        <time>2026-08-30T11:58:05Z</time>
      </trkpt>
      <trkpt lat="48.782178" lon="9.925240">
        <ele>566.6</ele>
        <time>2026-08-30T11:58:06Z</time>
      </trkpt>
      <trkpt lat="48.782150" lon="9.925245">
        <ele>566.4</ele>
        <time>2026-08-30T11:58:07Z</time>
      </trkpt>
      <trkpt lat="48.782116" lon="9.925246">
        <ele>565.8</ele>
        <time>2026-08-30T11:58:08Z</time>
      </trkpt>
      <trkpt lat="48.782081" lon="9.925242">
        <ele>565.4</ele>
        <time>2026-08-30T11:58:09Z</time>
      </trkpt>
      <trkpt lat="48.782054" lon="9.925231">
        <ele>565</ele>
        <time>2026-08-30T11:58:10Z</time>
      </trkpt>
      <trkpt lat="48.782027" lon="9.925218">
        <ele>564.4</ele>
        <time>2026-08-30T11:58:11Z</time>
      </trkpt>
      <trkpt lat="48.781996" lon="9.925197">
        <ele>563.8</ele>
        <time>2026-08-30T11:58:12Z</time>
      </trkpt>
      <trkpt lat="48.781965" lon="9.925175">
        <ele>563.2</ele>
        <time>2026-08-30T11:58:13Z</time>
      </trkpt>
      <trkpt lat="48.781939" lon="9.925148">
        <ele>562.6</ele>
        <time>2026-08-30T11:58:14Z</time>
      </trkpt>
      <trkpt lat="48.781916" lon="9.925142">
        <ele>562</ele>
        <time>2026-08-30T11:58:15Z</time>
      </trkpt>
      <trkpt lat="48.781889" lon="9.925127">
        <ele>561.4</ele>
        <time>2026-08-30T11:58:16Z</time>
      </trkpt>
      <trkpt lat="48.781858" lon="9.925107">
        <ele>560.8</ele>
        <time>2026-08-30T11:58:17Z</time>
      </trkpt>
      <trkpt lat="48.781827" lon="9.925086">
        <ele>560</ele>
        <time>2026-08-30T11:58:18Z</time>
      </trkpt>
      <trkpt lat="48.781799" lon="9.925060">
        <ele>559.4</ele>
        <time>2026-08-30T11:58:19Z</time>
      </trkpt>
      <trkpt lat="48.781775" lon="9.925042">
        <ele>558.6</ele>
        <time>2026-08-30T11:58:20Z</time>
      </trkpt>
      <trkpt lat="48.781742" lon="9.925020">
        <ele>557.8</ele>
        <time>2026-08-30T11:58:21Z</time>
      </trkpt>
      <trkpt lat="48.781702" lon="9.924994">
        <ele>557.2</ele>
        <time>2026-08-30T11:58:22Z</time>
      </trkpt>
      <trkpt lat="48.781662" lon="9.924966">
        <ele>556.2</ele>
        <time>2026-08-30T11:58:23Z</time>
      </trkpt>
      <trkpt lat="48.781623" lon="9.924940">
        <ele>555.4</ele>
        <time>2026-08-30T11:58:24Z</time>
      </trkpt>
      <trkpt lat="48.781589" lon="9.924907">
        <ele>554.4</ele>
        <time>2026-08-30T11:58:25Z</time>
      </trkpt>
      <trkpt lat="48.781552" lon="9.924875">
        <ele>553.6</ele>
        <time>2026-08-30T11:58:26Z</time>
      </trkpt>
      <trkpt lat="48.781515" lon="9.924840">
        <ele>552.8</ele>
        <time>2026-08-30T11:58:27Z</time>
      </trkpt>
      <trkpt lat="48.781478" lon="9.924815">
        <ele>551.8</ele>
        <time>2026-08-30T11:58:28Z</time>
      </trkpt>
      <trkpt lat="48.781445" lon="9.924787">
        <ele>551.2</ele>
        <time>2026-08-30T11:58:29Z</time>
      </trkpt>
      <trkpt lat="48.781410" lon="9.924752">
        <ele>550.4</ele>
        <time>2026-08-30T11:58:30Z</time>
      </trkpt>
      <trkpt lat="48.781370" lon="9.924718">
        <ele>549.6</ele>
        <time>2026-08-30T11:58:31Z</time>
      </trkpt>
      <trkpt lat="48.781336" lon="9.924687">
        <ele>548.8</ele>
        <time>2026-08-30T11:58:32Z</time>
      </trkpt>
      <trkpt lat="48.781303" lon="9.924656">
        <ele>548</ele>
        <time>2026-08-30T11:58:33Z</time>
      </trkpt>
      <trkpt lat="48.781269" lon="9.924629">
        <ele>547</ele>
        <time>2026-08-30T11:58:34Z</time>
      </trkpt>
      <trkpt lat="48.781234" lon="9.924603">
        <ele>546.4</ele>
        <time>2026-08-30T11:58:35Z</time>
      </trkpt>
      <trkpt lat="48.781207" lon="9.924571">
        <ele>545.6</ele>
        <time>2026-08-30T11:58:36Z</time>
      </trkpt>
      <trkpt lat="48.781185" lon="9.924523">
        <ele>545</ele>
        <time>2026-08-30T11:58:37Z</time>
      </trkpt>
      <trkpt lat="48.781161" lon="9.924478">
        <ele>544.4</ele>
        <time>2026-08-30T11:58:38Z</time>
      </trkpt>
      <trkpt lat="48.781135" lon="9.924425">
        <ele>543.8</ele>
        <time>2026-08-30T11:58:39Z</time>
      </trkpt>
      <trkpt lat="48.781107" lon="9.924370">
        <ele>543.2</ele>
        <time>2026-08-30T11:58:40Z</time>
      </trkpt>
      <trkpt lat="48.781078" lon="9.924324">
        <ele>543</ele>
        <time>2026-08-30T11:58:41Z</time>
      </trkpt>
      <trkpt lat="48.781056" lon="9.924274">
        <ele>542.6</ele>
        <time>2026-08-30T11:58:42Z</time>
      </trkpt>
      <trkpt lat="48.781029" lon="9.924231">
        <ele>542.4</ele>
        <time>2026-08-30T11:58:43Z</time>
      </trkpt>
      <trkpt lat="48.781007" lon="9.924193">
        <ele>542.2</ele>
        <time>2026-08-30T11:58:44Z</time>
      </trkpt>
      <trkpt lat="48.780984" lon="9.924150">
        <ele>542</ele>
        <time>2026-08-30T11:58:45Z</time>
      </trkpt>
      <trkpt lat="48.780960" lon="9.924114">
        <ele>542</ele>
        <time>2026-08-30T11:58:46Z</time>
      </trkpt>
      <trkpt lat="48.780932" lon="9.924070">
        <ele>541.8</ele>
        <time>2026-08-30T11:58:47Z</time>
      </trkpt>
      <trkpt lat="48.780911" lon="9.924030">
        <ele>541.8</ele>
        <time>2026-08-30T11:58:48Z</time>
      </trkpt>
      <trkpt lat="48.780889" lon="9.923995">
        <ele>541.8</ele>
        <time>2026-08-30T11:58:49Z</time>
      </trkpt>
      <trkpt lat="48.780867" lon="9.923951">
        <ele>541.8</ele>
        <time>2026-08-30T11:58:50Z</time>
      </trkpt>
      <trkpt lat="48.780845" lon="9.923909">
        <ele>541.8</ele>
        <time>2026-08-30T11:58:51Z</time>
      </trkpt>
      <trkpt lat="48.780823" lon="9.923868">
        <ele>541.8</ele>
        <time>2026-08-30T11:58:52Z</time>
      </trkpt>
      <trkpt lat="48.780803" lon="9.923825">
        <ele>541.8</ele>
        <time>2026-08-30T11:58:53Z</time>
      </trkpt>
      <trkpt lat="48.780784" lon="9.923790">
        <ele>541.8</ele>
        <time>2026-08-30T11:58:54Z</time>
      </trkpt>
      <trkpt lat="48.780770" lon="9.923748">
        <ele>541.8</ele>
        <time>2026-08-30T11:58:55Z</time>
      </trkpt>
      <trkpt lat="48.780759" lon="9.923708">
        <ele>542</ele>
        <time>2026-08-30T11:58:56Z</time>
      </trkpt>
      <trkpt lat="48.780746" lon="9.923670">
        <ele>542</ele>
        <time>2026-08-30T11:58:57Z</time>
      </trkpt>
      <trkpt lat="48.780736" lon="9.923639">
        <ele>542</ele>
        <time>2026-08-30T11:58:58Z</time>
      </trkpt>
      <trkpt lat="48.780728" lon="9.923615">
        <ele>542.2</ele>
        <time>2026-08-30T11:58:59Z</time>
      </trkpt>
      <trkpt lat="48.780714" lon="9.923590">
        <ele>542.2</ele>
        <time>2026-08-30T11:59:00Z</time>
      </trkpt>
      <trkpt lat="48.780704" lon="9.923563">
        <ele>542.2</ele>
        <time>2026-08-30T11:59:01Z</time>
      </trkpt>
      <trkpt lat="48.780692" lon="9.923531">
        <ele>542.4</ele>
        <time>2026-08-30T11:59:02Z</time>
      </trkpt>
      <trkpt lat="48.780677" lon="9.923497">
        <ele>542.4</ele>
        <time>2026-08-30T11:59:03Z</time>
      </trkpt>
      <trkpt lat="48.780662" lon="9.923468">
        <ele>542.4</ele>
        <time>2026-08-30T11:59:04Z</time>
      </trkpt>
      <trkpt lat="48.780654" lon="9.923432">
        <ele>542.4</ele>
        <time>2026-08-30T11:59:05Z</time>
      </trkpt>
      <trkpt lat="48.780646" lon="9.923388">
        <ele>542.4</ele>
        <time>2026-08-30T11:59:06Z</time>
      </trkpt>
      <trkpt lat="48.780640" lon="9.923355">
        <ele>542.4</ele>
        <time>2026-08-30T11:59:07Z</time>
      </trkpt>
      <trkpt lat="48.780630" lon="9.923321">
        <ele>542.4</ele>
        <time>2026-08-30T11:59:08Z</time>
      </trkpt>
      <trkpt lat="48.780623" lon="9.923285">
        <ele>542.4</ele>
        <time>2026-08-30T11:59:09Z</time>
      </trkpt>
      <trkpt lat="48.780617" lon="9.923261">
        <ele>542.6</ele>
        <time>2026-08-30T11:59:10Z</time>
      </trkpt>
      <trkpt lat="48.780607" lon="9.923234">
        <ele>542.6</ele>
        <time>2026-08-30T11:59:11Z</time>
      </trkpt>
      <trkpt lat="48.780603" lon="9.923206">
        <ele>542.8</ele>
        <time>2026-08-30T11:59:12Z</time>
      </trkpt>
      <trkpt lat="48.780599" lon="9.923180">
        <ele>542.8</ele>
        <time>2026-08-30T11:59:13Z</time>
      </trkpt>
      <trkpt lat="48.780595" lon="9.923153">
        <ele>543</ele>
        <time>2026-08-30T11:59:14Z</time>
      </trkpt>
      <trkpt lat="48.780589" lon="9.923136">
        <ele>543.2</ele>
        <time>2026-08-30T11:59:15Z</time>
      </trkpt>
      <trkpt lat="48.780581" lon="9.923123">
        <ele>543.4</ele>
        <time>2026-08-30T11:59:16Z</time>
      </trkpt>
      <trkpt lat="48.780574" lon="9.923103">
        <ele>543.6</ele>
        <time>2026-08-30T11:59:17Z</time>
      </trkpt>
      <trkpt lat="48.780563" lon="9.923088">
        <ele>543.8</ele>
        <time>2026-08-30T11:59:18Z</time>
      </trkpt>
      <trkpt lat="48.780554" lon="9.923065">
        <ele>544</ele>
        <time>2026-08-30T11:59:19Z</time>
      </trkpt>
      <trkpt lat="48.780548" lon="9.923046">
        <ele>544.2</ele>
        <time>2026-08-30T11:59:20Z</time>
      </trkpt>
      <trkpt lat="48.780540" lon="9.923025">
        <ele>544.2</ele>
        <time>2026-08-30T11:59:21Z</time>
      </trkpt>
      <trkpt lat="48.780531" lon="9.923001">
        <ele>544.4</ele>
        <time>2026-08-30T11:59:22Z</time>
      </trkpt>
      <trkpt lat="48.780516" lon="9.922987">
        <ele>544.4</ele>
        <time>2026-08-30T11:59:23Z</time>
      </trkpt>
      <trkpt lat="48.780504" lon="9.922976">
        <ele>544.4</ele>
        <time>2026-08-30T11:59:24Z</time>
      </trkpt>
      <trkpt lat="48.780484" lon="9.922966">
        <ele>544.6</ele>
        <time>2026-08-30T11:59:25Z</time>
      </trkpt>
      <trkpt lat="48.780461" lon="9.922956">
        <ele>544.4</ele>
        <time>2026-08-30T11:59:26Z</time>
      </trkpt>
      <trkpt lat="48.780433" lon="9.922945">
        <ele>544.4</ele>
        <time>2026-08-30T11:59:27Z</time>
      </trkpt>
      <trkpt lat="48.780405" lon="9.922940">
        <ele>544.2</ele>
        <time>2026-08-30T11:59:28Z</time>
      </trkpt>
      <trkpt lat="48.780386" lon="9.922935">
        <ele>544</ele>
        <time>2026-08-30T11:59:29Z</time>
      </trkpt>
      <trkpt lat="48.780364" lon="9.922930">
        <ele>543.8</ele>
        <time>2026-08-30T11:59:30Z</time>
      </trkpt>
      <trkpt lat="48.780332" lon="9.922932">
        <ele>543.4</ele>
        <time>2026-08-30T11:59:31Z</time>
      </trkpt>
      <trkpt lat="48.780299" lon="9.922937">
        <ele>543.2</ele>
        <time>2026-08-30T11:59:32Z</time>
      </trkpt>
      <trkpt lat="48.780267" lon="9.922942">
        <ele>542.8</ele>
        <time>2026-08-30T11:59:33Z</time>
      </trkpt>
      <trkpt lat="48.780235" lon="9.922951">
        <ele>542.4</ele>
        <time>2026-08-30T11:59:34Z</time>
      </trkpt>
      <trkpt lat="48.780204" lon="9.922962">
        <ele>541.8</ele>
        <time>2026-08-30T11:59:35Z</time>
      </trkpt>
      <trkpt lat="48.780176" lon="9.922959">
        <ele>541.2</ele>
        <time>2026-08-30T11:59:36Z</time>
      </trkpt>
      <trkpt lat="48.780155" lon="9.922942">
        <ele>540.8</ele>
        <time>2026-08-30T11:59:37Z</time>
      </trkpt>
      <trkpt lat="48.780130" lon="9.922922">
        <ele>540.4</ele>
        <time>2026-08-30T11:59:38Z</time>
      </trkpt>
      <trkpt lat="48.780107" lon="9.922906">
        <ele>540</ele>
        <time>2026-08-30T11:59:39Z</time>
      </trkpt>
      <trkpt lat="48.780083" lon="9.922884">
        <ele>539.8</ele>
        <time>2026-08-30T11:59:40Z</time>
      </trkpt>
      <trkpt lat="48.780057" lon="9.922868">
        <ele>539.6</ele>
        <time>2026-08-30T11:59:41Z</time>
      </trkpt>
      <trkpt lat="48.780032" lon="9.922850">
        <ele>539.4</ele>
        <time>2026-08-30T11:59:42Z</time>
      </trkpt>
      <trkpt lat="48.780006" lon="9.922823">
        <ele>539.4</ele>
        <time>2026-08-30T11:59:43Z</time>
      </trkpt>
      <trkpt lat="48.779979" lon="9.922791">
        <ele>539.2</ele>
        <time>2026-08-30T11:59:44Z</time>
      </trkpt>
      <trkpt lat="48.779951" lon="9.922767">
        <ele>539.2</ele>
        <time>2026-08-30T11:59:45Z</time>
      </trkpt>
      <trkpt lat="48.779919" lon="9.922742">
        <ele>539.2</ele>
        <time>2026-08-30T11:59:46Z</time>
      </trkpt>
      <trkpt lat="48.779890" lon="9.922723">
        <ele>539.2</ele>
        <time>2026-08-30T11:59:47Z</time>
      </trkpt>
      <trkpt lat="48.779860" lon="9.922699">
        <ele>539.2</ele>
        <time>2026-08-30T11:59:48Z</time>
      </trkpt>
      <trkpt lat="48.779830" lon="9.922670">
        <ele>539.2</ele>
        <time>2026-08-30T11:59:49Z</time>
      </trkpt>
      <trkpt lat="48.779800" lon="9.922632">
        <ele>539.2</ele>
        <time>2026-08-30T11:59:50Z</time>
      </trkpt>
      <trkpt lat="48.779764" lon="9.922608">
        <ele>539.2</ele>
        <time>2026-08-30T11:59:51Z</time>
      </trkpt>
      <trkpt lat="48.779731" lon="9.922581">
        <ele>539.2</ele>
        <time>2026-08-30T11:59:52Z</time>
      </trkpt>
      <trkpt lat="48.779691" lon="9.922550">
        <ele>539</ele>
        <time>2026-08-30T11:59:53Z</time>
      </trkpt>
      <trkpt lat="48.779657" lon="9.922518">
        <ele>539</ele>
        <time>2026-08-30T11:59:54Z</time>
      </trkpt>
      <trkpt lat="48.779618" lon="9.922482">
        <ele>539</ele>
        <time>2026-08-30T11:59:55Z</time>
      </trkpt>
      <trkpt lat="48.779586" lon="9.922444">
        <ele>538.8</ele>
        <time>2026-08-30T11:59:56Z</time>
      </trkpt>
      <trkpt lat="48.779553" lon="9.922409">
        <ele>538.8</ele>
        <time>2026-08-30T11:59:57Z</time>
      </trkpt>
      <trkpt lat="48.779527" lon="9.922372">
        <ele>538.8</ele>
        <time>2026-08-30T11:59:58Z</time>
      </trkpt>
      <trkpt lat="48.779501" lon="9.922339">
        <ele>538.6</ele>
        <time>2026-08-30T11:59:59Z</time>
      </trkpt>
      <trkpt lat="48.779475" lon="9.922307">
        <ele>538.6</ele>
        <time>2026-08-30T12:00:00Z</time>
      </trkpt>
      <trkpt lat="48.779448" lon="9.922275">
        <ele>538.6</ele>
        <time>2026-08-30T12:00:01Z</time>
      </trkpt>
      <trkpt lat="48.779416" lon="9.922240">
        <ele>538.4</ele>
        <time>2026-08-30T12:00:02Z</time>
      </trkpt>
      <trkpt lat="48.779386" lon="9.922204">
        <ele>538.4</ele>
        <time>2026-08-30T12:00:03Z</time>
      </trkpt>
      <trkpt lat="48.779361" lon="9.922166">
        <ele>538.2</ele>
        <time>2026-08-30T12:00:04Z</time>
      </trkpt>
      <trkpt lat="48.779337" lon="9.922128">
        <ele>538.2</ele>
        <time>2026-08-30T12:00:05Z</time>
      </trkpt>
      <trkpt lat="48.779310" lon="9.922083">
        <ele>538</ele>
        <time>2026-08-30T12:00:06Z</time>
      </trkpt>
      <trkpt lat="48.779285" lon="9.922042">
        <ele>538</ele>
        <time>2026-08-30T12:00:07Z</time>
      </trkpt>
      <trkpt lat="48.779261" lon="9.922000">
        <ele>538</ele>
        <time>2026-08-30T12:00:08Z</time>
      </trkpt>
      <trkpt lat="48.779236" lon="9.921954">
        <ele>537.8</ele>
        <time>2026-08-30T12:00:09Z</time>
      </trkpt>
      <trkpt lat="48.779213" lon="9.921910">
        <ele>537.8</ele>
        <time>2026-08-30T12:00:10Z</time>
      </trkpt>
      <trkpt lat="48.779187" lon="9.921866">
        <ele>537.8</ele>
        <time>2026-08-30T12:00:11Z</time>
      </trkpt>
      <trkpt lat="48.779160" lon="9.921816">
        <ele>537.8</ele>
        <time>2026-08-30T12:00:12Z</time>
      </trkpt>
      <trkpt lat="48.779133" lon="9.921766">
        <ele>537.8</ele>
        <time>2026-08-30T12:00:13Z</time>
      </trkpt>
      <trkpt lat="48.779106" lon="9.921721">
        <ele>537.8</ele>
        <time>2026-08-30T12:00:14Z</time>
      </trkpt>
      <trkpt lat="48.779080" lon="9.921681">
        <ele>537.8</ele>
        <time>2026-08-30T12:00:15Z</time>
      </trkpt>
      <trkpt lat="48.779050" lon="9.921631">
        <ele>537.8</ele>
        <time>2026-08-30T12:00:16Z</time>
      </trkpt>
      <trkpt lat="48.779025" lon="9.921589">
        <ele>537.8</ele>
        <time>2026-08-30T12:00:17Z</time>
      </trkpt>
      <trkpt lat="48.778998" lon="9.921546">
        <ele>537.6</ele>
        <time>2026-08-30T12:00:18Z</time>
      </trkpt>
      <trkpt lat="48.778972" lon="9.921501">
        <ele>537.6</ele>
        <time>2026-08-30T12:00:19Z</time>
      </trkpt>
      <trkpt lat="48.778946" lon="9.921451">
        <ele>537.6</ele>
        <time>2026-08-30T12:00:20Z</time>
      </trkpt>
      <trkpt lat="48.778917" lon="9.921400">
        <ele>537.6</ele>
        <time>2026-08-30T12:00:21Z</time>
      </trkpt>
      <trkpt lat="48.778887" lon="9.921356">
        <ele>537.6</ele>
        <time>2026-08-30T12:00:22Z</time>
      </trkpt>
      <trkpt lat="48.778860" lon="9.921318">
        <ele>537.6</ele>
        <time>2026-08-30T12:00:23Z</time>
      </trkpt>
      <trkpt lat="48.778836" lon="9.921276">
        <ele>537.6</ele>
        <time>2026-08-30T12:00:24Z</time>
      </trkpt>
      <trkpt lat="48.778817" lon="9.921232">
        <ele>537.6</ele>
        <time>2026-08-30T12:00:25Z</time>
      </trkpt>
      <trkpt lat="48.778793" lon="9.921194">
        <ele>537.6</ele>
        <time>2026-08-30T12:00:26Z</time>
      </trkpt>
      <trkpt lat="48.778768" lon="9.921158">
        <ele>537.8</ele>
        <time>2026-08-30T12:00:27Z</time>
      </trkpt>
      <trkpt lat="48.778749" lon="9.921128">
        <ele>537.8</ele>
        <time>2026-08-30T12:00:28Z</time>
      </trkpt>
      <trkpt lat="48.778727" lon="9.921098">
        <ele>538</ele>
        <time>2026-08-30T12:00:29Z</time>
      </trkpt>
      <trkpt lat="48.778711" lon="9.921073">
        <ele>538.2</ele>
        <time>2026-08-30T12:00:30Z</time>
      </trkpt>
      <trkpt lat="48.778695" lon="9.921048">
        <ele>538.4</ele>
        <time>2026-08-30T12:00:31Z</time>
      </trkpt>
      <trkpt lat="48.778680" lon="9.921026">
        <ele>538.6</ele>
        <time>2026-08-30T12:00:32Z</time>
      </trkpt>
      <trkpt lat="48.778669" lon="9.921006">
        <ele>538.8</ele>
        <time>2026-08-30T12:00:33Z</time>
      </trkpt>
      <trkpt lat="48.778657" lon="9.920991">
        <ele>539</ele>
        <time>2026-08-30T12:00:34Z</time>
      </trkpt>
      <trkpt lat="48.778645" lon="9.920973">
        <ele>539.2</ele>
        <time>2026-08-30T12:00:35Z</time>
      </trkpt>
      <trkpt lat="48.778634" lon="9.920950">
        <ele>539.4</ele>
        <time>2026-08-30T12:00:36Z</time>
      </trkpt>
      <trkpt lat="48.778620" lon="9.920928">
        <ele>539.6</ele>
        <time>2026-08-30T12:00:37Z</time>
      </trkpt>
      <trkpt lat="48.778606" lon="9.920903">
        <ele>539.8</ele>
        <time>2026-08-30T12:00:38Z</time>
      </trkpt>
      <trkpt lat="48.778594" lon="9.920889">
        <ele>540</ele>
        <time>2026-08-30T12:00:39Z</time>
      </trkpt>
      <trkpt lat="48.778584" lon="9.920876">
        <ele>540.2</ele>
        <time>2026-08-30T12:00:40Z</time>
      </trkpt>
      <trkpt lat="48.778567" lon="9.920861">
        <ele>540.4</ele>
        <time>2026-08-30T12:00:41Z</time>
      </trkpt>
      <trkpt lat="48.778544" lon="9.920843">
        <ele>540.4</ele>
        <time>2026-08-30T12:00:42Z</time>
      </trkpt>
      <trkpt lat="48.778520" lon="9.920815">
        <ele>540.2</ele>
        <time>2026-08-30T12:00:43Z</time>
      </trkpt>
      <trkpt lat="48.778492" lon="9.920778">
        <ele>540.2</ele>
        <time>2026-08-30T12:00:44Z</time>
      </trkpt>
      <trkpt lat="48.778461" lon="9.920741">
        <ele>540</ele>
        <time>2026-08-30T12:00:45Z</time>
      </trkpt>
      <trkpt lat="48.778430" lon="9.920707">
        <ele>539.6</ele>
        <time>2026-08-30T12:00:46Z</time>
      </trkpt>
      <trkpt lat="48.778399" lon="9.920669">
        <ele>539.4</ele>
        <time>2026-08-30T12:00:47Z</time>
      </trkpt>
      <trkpt lat="48.778371" lon="9.920633">
        <ele>539</ele>
        <time>2026-08-30T12:00:48Z</time>
      </trkpt>
      <trkpt lat="48.778342" lon="9.920597">
        <ele>538.8</ele>
        <time>2026-08-30T12:00:49Z</time>
      </trkpt>
      <trkpt lat="48.778313" lon="9.920562">
        <ele>538.4</ele>
        <time>2026-08-30T12:00:50Z</time>
      </trkpt>
      <trkpt lat="48.778282" lon="9.920529">
        <ele>538</ele>
        <time>2026-08-30T12:00:51Z</time>
      </trkpt>
      <trkpt lat="48.778259" lon="9.920502">
        <ele>537.8</ele>
        <time>2026-08-30T12:00:52Z</time>
      </trkpt>
      <trkpt lat="48.778247" lon="9.920483">
        <ele>537.4</ele>
        <time>2026-08-30T12:00:53Z</time>
      </trkpt>
      <trkpt lat="48.778241" lon="9.920471">
        <ele>537.2</ele>
        <time>2026-08-30T12:00:54Z</time>
      </trkpt>
      <trkpt lat="48.778241" lon="9.920471">
        <ele>536.8</ele>
        <time>2026-08-30T12:00:55Z</time>
      </trkpt>
      <trkpt lat="48.778241" lon="9.920471">
        <ele>536.6</ele>
        <time>2026-08-30T12:00:56Z</time>
      </trkpt>
      <trkpt lat="48.778241" lon="9.920471">
        <ele>536.4</ele>
        <time>2026-08-30T12:00:57Z</time>
      </trkpt>
      <trkpt lat="48.778241" lon="9.920469">
        <ele>536.4</ele>
        <time>2026-08-30T12:00:58Z</time>
      </trkpt>
      <trkpt lat="48.778232" lon="9.920449">
        <ele>536.2</ele>
        <time>2026-08-30T12:00:59Z</time>
      </trkpt>
      <trkpt lat="48.778224" lon="9.920436">
        <ele>536</ele>
        <time>2026-08-30T12:01:00Z</time>
      </trkpt>
      <trkpt lat="48.778216" lon="9.920428">
        <ele>535.8</ele>
        <time>2026-08-30T12:01:01Z</time>
      </trkpt>
      <trkpt lat="48.778209" lon="9.920418">
        <ele>535.8</ele>
        <time>2026-08-30T12:01:02Z</time>
      </trkpt>
      <trkpt lat="48.778207" lon="9.920405">
        <ele>535.6</ele>
        <time>2026-08-30T12:01:03Z</time>
      </trkpt>
      <trkpt lat="48.778208" lon="9.920394">
        <ele>535.4</ele>
        <time>2026-08-30T12:01:04Z</time>
      </trkpt>
      <trkpt lat="48.778208" lon="9.920394">
        <ele>535.2</ele>
        <time>2026-08-30T12:01:05Z</time>
      </trkpt>
      <trkpt lat="48.778193" lon="9.920371">
        <ele>535.2</ele>
        <time>2026-08-30T12:01:06Z</time>
      </trkpt>
      <trkpt lat="48.778178" lon="9.920352">
        <ele>535</ele>
        <time>2026-08-30T12:01:07Z</time>
      </trkpt>
      <trkpt lat="48.778158" lon="9.920326">
        <ele>534.8</ele>
        <time>2026-08-30T12:01:08Z</time>
      </trkpt>
      <trkpt lat="48.778131" lon="9.920299">
        <ele>534.6</ele>
        <time>2026-08-30T12:01:09Z</time>
      </trkpt>
      <trkpt lat="48.778110" lon="9.920257">
        <ele>534.4</ele>
        <time>2026-08-30T12:01:10Z</time>
      </trkpt>
      <trkpt lat="48.778086" lon="9.920211">
        <ele>534</ele>
        <time>2026-08-30T12:01:11Z</time>
      </trkpt>
      <trkpt lat="48.778064" lon="9.920171">
        <ele>533.8</ele>
        <time>2026-08-30T12:01:12Z</time>
      </trkpt>
      <trkpt lat="48.778042" lon="9.920135">
        <ele>533.4</ele>
        <time>2026-08-30T12:01:13Z</time>
      </trkpt>
      <trkpt lat="48.778022" lon="9.920100">
        <ele>533.2</ele>
        <time>2026-08-30T12:01:14Z</time>
      </trkpt>
      <trkpt lat="48.778007" lon="9.920078">
        <ele>533</ele>
        <time>2026-08-30T12:01:15Z</time>
      </trkpt>
      <trkpt lat="48.777991" lon="9.920056">
        <ele>532.6</ele>
        <time>2026-08-30T12:01:16Z</time>
      </trkpt>
      <trkpt lat="48.777988" lon="9.920051">
        <ele>532.4</ele>
        <time>2026-08-30T12:01:17Z</time>
      </trkpt>
      <trkpt lat="48.777990" lon="9.920049">
        <ele>532.4</ele>
        <time>2026-08-30T12:01:18Z</time>
      </trkpt>
      <trkpt lat="48.777990" lon="9.920049">
        <ele>532.4</ele>
        <time>2026-08-30T12:01:19Z</time>
      </trkpt>
      <trkpt lat="48.777990" lon="9.920049">
        <ele>532.2</ele>
        <time>2026-08-30T12:01:20Z</time>
      </trkpt>
      <trkpt lat="48.777990" lon="9.920049">
        <ele>532.2</ele>
        <time>2026-08-30T12:01:21Z</time>
      </trkpt>
      <trkpt lat="48.777990" lon="9.920049">
        <ele>532.2</ele>
        <time>2026-08-30T12:01:22Z</time>
      </trkpt>
      <trkpt lat="48.777990" lon="9.920049">
        <ele>532.2</ele>
        <time>2026-08-30T12:01:23Z</time>
      </trkpt>
      <trkpt lat="48.777990" lon="9.920049">
        <ele>532</ele>
        <time>2026-08-30T12:01:24Z</time>
      </trkpt>
      <trkpt lat="48.777990" lon="9.920049">
        <ele>532</ele>
        <time>2026-08-30T12:01:25Z</time>
      </trkpt>
      <trkpt lat="48.777990" lon="9.920049">
        <ele>532</ele>
        <time>2026-08-30T12:01:26Z</time>
      </trkpt>
      <trkpt lat="48.777990" lon="9.920049">
        <ele>532</ele>
        <time>2026-08-30T12:01:27Z</time>
      </trkpt>
      <trkpt lat="48.777990" lon="9.920049">
        <ele>531.8</ele>
        <time>2026-08-30T12:01:28Z</time>
      </trkpt>
      <trkpt lat="48.777990" lon="9.920049">
        <ele>531.8</ele>
        <time>2026-08-30T12:01:29Z</time>
      </trkpt>
      <trkpt lat="48.777990" lon="9.920049">
        <ele>531.8</ele>
        <time>2026-08-30T12:01:30Z</time>
      </trkpt>
      <trkpt lat="48.777990" lon="9.920049">
        <ele>531.8</ele>
        <time>2026-08-30T12:01:31Z</time>
      </trkpt>
      <trkpt lat="48.777990" lon="9.920049">
        <ele>531.8</ele>
        <time>2026-08-30T12:01:32Z</time>
      </trkpt>
      <trkpt lat="48.777990" lon="9.920049">
        <ele>531.8</ele>
        <time>2026-08-30T12:01:33Z</time>
      </trkpt>
      <trkpt lat="48.777990" lon="9.920049">
        <ele>531.8</ele>
        <time>2026-08-30T12:01:34Z</time>
      </trkpt>
      <trkpt lat="48.777990" lon="9.920049">
        <ele>531.8</ele>
        <time>2026-08-30T12:01:35Z</time>
      </trkpt>
      <trkpt lat="48.777990" lon="9.920049">
        <ele>531.8</ele>
        <time>2026-08-30T12:01:36Z</time>
      </trkpt>
      <trkpt lat="48.777990" lon="9.920049">
        <ele>531.8</ele>
        <time>2026-08-30T12:01:37Z</time>
      </trkpt>
      <trkpt lat="48.777990" lon="9.920049">
        <ele>531.6</ele>
        <time>2026-08-30T12:01:38Z</time>
      </trkpt>
      <trkpt lat="48.777990" lon="9.920049">
        <ele>531.6</ele>
        <time>2026-08-30T12:01:39Z</time>
      </trkpt>
      <trkpt lat="48.777990" lon="9.920049">
        <ele>531.6</ele>
        <time>2026-08-30T12:01:40Z</time>
      </trkpt>
      <trkpt lat="48.777990" lon="9.920049">
        <ele>531.6</ele>
        <time>2026-08-30T12:01:41Z</time>
      </trkpt>
      <trkpt lat="48.777990" lon="9.920049">
        <ele>531.6</ele>
        <time>2026-08-30T12:01:42Z</time>
      </trkpt>
      <trkpt lat="48.777990" lon="9.920049">
        <ele>531.6</ele>
        <time>2026-08-30T12:01:43Z</time>
      </trkpt>
      <trkpt lat="48.777990" lon="9.920049">
        <ele>531.6</ele>
        <time>2026-08-30T12:01:44Z</time>
      </trkpt>
      <trkpt lat="48.777990" lon="9.920049">
        <ele>531.6</ele>
        <time>2026-08-30T12:01:45Z</time>
      </trkpt>
      <trkpt lat="48.777990" lon="9.920049">
        <ele>531.6</ele>
        <time>2026-08-30T12:01:46Z</time>
      </trkpt>
      <trkpt lat="48.777990" lon="9.920049">
        <ele>531.4</ele>
        <time>2026-08-30T12:01:47Z</time>
      </trkpt>
      <trkpt lat="48.777990" lon="9.920049">
        <ele>531.4</ele>
        <time>2026-08-30T12:01:48Z</time>
      </trkpt>
      <trkpt lat="48.777990" lon="9.920049">
        <ele>531.4</ele>
        <time>2026-08-30T12:01:49Z</time>
      </trkpt>
      <trkpt lat="48.777990" lon="9.920049">
        <ele>531.4</ele>
        <time>2026-08-30T12:01:50Z</time>
      </trkpt>
      <trkpt lat="48.777990" lon="9.920049">
        <ele>531.4</ele>
        <time>2026-08-30T12:01:51Z</time>
      </trkpt>
      <trkpt lat="48.777990" lon="9.920049">
        <ele>531.4</ele>
        <time>2026-08-30T12:01:52Z</time>
      </trkpt>
      <trkpt lat="48.777990" lon="9.920049">
        <ele>531.4</ele>
        <time>2026-08-30T12:01:53Z</time>
      </trkpt>
      <trkpt lat="48.777990" lon="9.920049">
        <ele>531.4</ele>
        <time>2026-08-30T12:01:54Z</time>
      </trkpt>
      <trkpt lat="48.777990" lon="9.920049">
        <ele>531.4</ele>
        <time>2026-08-30T12:01:55Z</time>
      </trkpt>
      <trkpt lat="48.777990" lon="9.920049">
        <ele>531.4</ele>
        <time>2026-08-30T12:01:56Z</time>
      </trkpt>
      <trkpt lat="48.777990" lon="9.920049">
        <ele>531.4</ele>
        <time>2026-08-30T12:01:57Z</time>
      </trkpt>
      <trkpt lat="48.777990" lon="9.920049">
        <ele>531.4</ele>
        <time>2026-08-30T12:01:58Z</time>
      </trkpt>
      <trkpt lat="48.777990" lon="9.920049">
        <ele>531.4</ele>
        <time>2026-08-30T12:01:59Z</time>
      </trkpt>
      <trkpt lat="48.777990" lon="9.920049">
        <ele>531.4</ele>
        <time>2026-08-30T12:02:00Z</time>
      </trkpt>
      <trkpt lat="48.777990" lon="9.920049">
        <ele>531.4</ele>
        <time>2026-08-30T12:02:01Z</time>
      </trkpt>
      <trkpt lat="48.777990" lon="9.920049">
        <ele>531.4</ele>
        <time>2026-08-30T12:02:02Z</time>
      </trkpt>
      <trkpt lat="48.777990" lon="9.920049">
        <ele>531.4</ele>
        <time>2026-08-30T12:02:03Z</time>
      </trkpt>
      <trkpt lat="48.777990" lon="9.920049">
        <ele>531.2</ele>
        <time>2026-08-30T12:02:04Z</time>
      </trkpt>
      <trkpt lat="48.777990" lon="9.920049">
        <ele>531.2</ele>
        <time>2026-08-30T12:02:05Z</time>
      </trkpt>
      <trkpt lat="48.777990" lon="9.920049">
        <ele>531.2</ele>
        <time>2026-08-30T12:02:06Z</time>
      </trkpt>
      <trkpt lat="48.777990" lon="9.920049">
        <ele>531.2</ele>
        <time>2026-08-30T12:02:07Z</time>
      </trkpt>
      <trkpt lat="48.777990" lon="9.920049">
        <ele>531.2</ele>
        <time>2026-08-30T12:02:08Z</time>
      </trkpt>
      <trkpt lat="48.777990" lon="9.920049">
        <ele>531.2</ele>
        <time>2026-08-30T12:02:09Z</time>
      </trkpt>
      <trkpt lat="48.777990" lon="9.920049">
        <ele>531.2</ele>
        <time>2026-08-30T12:02:10Z</time>
      </trkpt>
      <trkpt lat="48.777990" lon="9.920049">
        <ele>531.2</ele>
        <time>2026-08-30T12:02:11Z</time>
      </trkpt>
      <trkpt lat="48.777990" lon="9.920049">
        <ele>531.2</ele>
        <time>2026-08-30T12:02:12Z</time>
      </trkpt>
      <trkpt lat="48.777990" lon="9.920049">
        <ele>531.2</ele>
        <time>2026-08-30T12:02:13Z</time>
      </trkpt>
      <trkpt lat="48.777990" lon="9.920049">
        <ele>531.2</ele>
        <time>2026-08-30T12:02:14Z</time>
      </trkpt>
      <trkpt lat="48.777990" lon="9.920049">
        <ele>531.2</ele>
        <time>2026-08-30T12:02:15Z</time>
      </trkpt>
      <trkpt lat="48.777990" lon="9.920049">
        <ele>531.2</ele>
        <time>2026-08-30T12:02:16Z</time>
      </trkpt>
      <trkpt lat="48.777990" lon="9.920049">
        <ele>531.4</ele>
        <time>2026-08-30T12:02:17Z</time>
      </trkpt>
      <trkpt lat="48.777990" lon="9.920049">
        <ele>531.4</ele>
        <time>2026-08-30T12:02:18Z</time>
      </trkpt>
      <trkpt lat="48.777990" lon="9.920049">
        <ele>531.2</ele>
        <time>2026-08-30T12:02:19Z</time>
      </trkpt>
      <trkpt lat="48.777990" lon="9.920049">
        <ele>531.2</ele>
        <time>2026-08-30T12:02:20Z</time>
      </trkpt>
      <trkpt lat="48.777990" lon="9.920049">
        <ele>531.2</ele>
        <time>2026-08-30T12:02:21Z</time>
      </trkpt>
      <trkpt lat="48.777990" lon="9.920049">
        <ele>531.2</ele>
        <time>2026-08-30T12:02:22Z</time>
      </trkpt>
      <trkpt lat="48.777990" lon="9.920049">
        <ele>531.2</ele>
        <time>2026-08-30T12:02:23Z</time>
      </trkpt>
      <trkpt lat="48.777990" lon="9.920049">
        <ele>531.2</ele>
        <time>2026-08-30T12:02:24Z</time>
      </trkpt>
      <trkpt lat="48.777990" lon="9.920049">
        <ele>531.2</ele>
        <time>2026-08-30T12:02:25Z</time>
      </trkpt>
      <trkpt lat="48.777990" lon="9.920049">
        <ele>531.2</ele>
        <time>2026-08-30T12:02:26Z</time>
      </trkpt>
      <trkpt lat="48.777990" lon="9.920049">
        <ele>531.2</ele>
        <time>2026-08-30T12:02:27Z</time>
      </trkpt>
      <trkpt lat="48.777990" lon="9.920049">
        <ele>531</ele>
        <time>2026-08-30T12:02:28Z</time>
      </trkpt>
      <trkpt lat="48.777990" lon="9.920049">
        <ele>531</ele>
        <time>2026-08-30T12:02:29Z</time>
      </trkpt>
      <trkpt lat="48.777990" lon="9.920049">
        <ele>531</ele>
        <time>2026-08-30T12:02:30Z</time>
      </trkpt>
      <trkpt lat="48.777990" lon="9.920049">
        <ele>531</ele>
        <time>2026-08-30T12:02:31Z</time>
      </trkpt>
      <trkpt lat="48.777990" lon="9.920049">
        <ele>531</ele>
        <time>2026-08-30T12:02:32Z</time>
      </trkpt>
      <trkpt lat="48.777990" lon="9.920049">
        <ele>531</ele>
        <time>2026-08-30T12:02:33Z</time>
      </trkpt>
      <trkpt lat="48.777990" lon="9.920049">
        <ele>531</ele>
        <time>2026-08-30T12:02:34Z</time>
      </trkpt>
      <trkpt lat="48.777990" lon="9.920049">
        <ele>531</ele>
        <time>2026-08-30T12:02:35Z</time>
      </trkpt>
      <trkpt lat="48.777990" lon="9.920049">
        <ele>531</ele>
        <time>2026-08-30T12:02:36Z</time>
      </trkpt>
      <trkpt lat="48.777990" lon="9.920049">
        <ele>531</ele>
        <time>2026-08-30T12:02:37Z</time>
      </trkpt>
      <trkpt lat="48.777990" lon="9.920049">
        <ele>531</ele>
        <time>2026-08-30T12:02:38Z</time>
      </trkpt>
      <trkpt lat="48.777990" lon="9.920049">
        <ele>531</ele>
        <time>2026-08-30T12:02:39Z</time>
      </trkpt>
      <trkpt lat="48.777990" lon="9.920049">
        <ele>531</ele>
        <time>2026-08-30T12:02:40Z</time>
      </trkpt>
      <trkpt lat="48.777990" lon="9.920049">
        <ele>531</ele>
        <time>2026-08-30T12:02:41Z</time>
      </trkpt>
      <trkpt lat="48.777990" lon="9.920049">
        <ele>531</ele>
        <time>2026-08-30T12:02:42Z</time>
      </trkpt>
      <trkpt lat="48.777990" lon="9.920049">
        <ele>531</ele>
        <time>2026-08-30T12:02:43Z</time>
      </trkpt>
      <trkpt lat="48.777990" lon="9.920049">
        <ele>531</ele>
        <time>2026-08-30T12:02:44Z</time>
      </trkpt>
      <trkpt lat="48.777990" lon="9.920049">
        <ele>530.8</ele>
        <time>2026-08-30T12:02:45Z</time>
      </trkpt>
      <trkpt lat="48.777990" lon="9.920049">
        <ele>530.8</ele>
        <time>2026-08-30T12:02:46Z</time>
      </trkpt>
      <trkpt lat="48.777990" lon="9.920049">
        <ele>530.8</ele>
        <time>2026-08-30T12:02:47Z</time>
      </trkpt>
      <trkpt lat="48.777990" lon="9.920049">
        <ele>530.8</ele>
        <time>2026-08-30T12:02:48Z</time>
      </trkpt>
      <trkpt lat="48.777990" lon="9.920049">
        <ele>530.8</ele>
        <time>2026-08-30T12:02:49Z</time>
      </trkpt>
      <trkpt lat="48.777990" lon="9.920049">
        <ele>530.8</ele>
        <time>2026-08-30T12:02:50Z</time>
      </trkpt>
      <trkpt lat="48.777990" lon="9.920049">
        <ele>530.8</ele>
        <time>2026-08-30T12:02:51Z</time>
      </trkpt>
      <trkpt lat="48.777990" lon="9.920049">
        <ele>530.8</ele>
        <time>2026-08-30T12:02:52Z</time>
      </trkpt>
      <trkpt lat="48.777990" lon="9.920049">
        <ele>530.8</ele>
        <time>2026-08-30T12:02:53Z</time>
      </trkpt>
      <trkpt lat="48.777990" lon="9.920049">
        <ele>530.8</ele>
        <time>2026-08-30T12:02:54Z</time>
      </trkpt>
      <trkpt lat="48.777978" lon="9.920048">
        <ele>530.8</ele>
        <time>2026-08-30T12:02:55Z</time>
      </trkpt>
      <trkpt lat="48.777968" lon="9.920022">
        <ele>530.8</ele>
        <time>2026-08-30T12:02:56Z</time>
      </trkpt>
      <trkpt lat="48.777971" lon="9.919998">
        <ele>530.8</ele>
        <time>2026-08-30T12:02:57Z</time>
      </trkpt>
      <trkpt lat="48.777981" lon="9.919976">
        <ele>530.8</ele>
        <time>2026-08-30T12:02:58Z</time>
      </trkpt>
      <trkpt lat="48.777991" lon="9.919947">
        <ele>530.8</ele>
        <time>2026-08-30T12:02:59Z</time>
      </trkpt>
      <trkpt lat="48.778001" lon="9.919915">
        <ele>530.8</ele>
        <time>2026-08-30T12:03:00Z</time>
      </trkpt>
      <trkpt lat="48.778011" lon="9.919892">
        <ele>531</ele>
        <time>2026-08-30T12:03:01Z</time>
      </trkpt>
      <trkpt lat="48.778016" lon="9.919876">
        <ele>531</ele>
        <time>2026-08-30T12:03:02Z</time>
      </trkpt>
      <trkpt lat="48.778017" lon="9.919858">
        <ele>531.2</ele>
        <time>2026-08-30T12:03:03Z</time>
      </trkpt>
      <trkpt lat="48.778015" lon="9.919838">
        <ele>531.2</ele>
        <time>2026-08-30T12:03:04Z</time>
      </trkpt>
      <trkpt lat="48.778009" lon="9.919809">
        <ele>531.4</ele>
        <time>2026-08-30T12:03:05Z</time>
      </trkpt>
      <trkpt lat="48.778006" lon="9.919788">
        <ele>531.4</ele>
        <time>2026-08-30T12:03:06Z</time>
      </trkpt>
      <trkpt lat="48.778005" lon="9.919769">
        <ele>531.6</ele>
        <time>2026-08-30T12:03:07Z</time>
      </trkpt>
      <trkpt lat="48.778005" lon="9.919753">
        <ele>531.8</ele>
        <time>2026-08-30T12:03:08Z</time>
      </trkpt>
      <trkpt lat="48.778001" lon="9.919739">
        <ele>531.8</ele>
        <time>2026-08-30T12:03:09Z</time>
      </trkpt>
      <trkpt lat="48.777999" lon="9.919719">
        <ele>532</ele>
        <time>2026-08-30T12:03:10Z</time>
      </trkpt>
      <trkpt lat="48.777993" lon="9.919702">
        <ele>532.2</ele>
        <time>2026-08-30T12:03:11Z</time>
      </trkpt>
      <trkpt lat="48.777988" lon="9.919688">
        <ele>532.4</ele>
        <time>2026-08-30T12:03:12Z</time>
      </trkpt>
      <trkpt lat="48.777982" lon="9.919675">
        <ele>532.6</ele>
        <time>2026-08-30T12:03:13Z</time>
      </trkpt>
      <trkpt lat="48.777980" lon="9.919663">
        <ele>533</ele>
        <time>2026-08-30T12:03:14Z</time>
      </trkpt>
      <trkpt lat="48.777975" lon="9.919651">
        <ele>533.2</ele>
        <time>2026-08-30T12:03:15Z</time>
      </trkpt>
      <trkpt lat="48.777972" lon="9.919632">
        <ele>533.4</ele>
        <time>2026-08-30T12:03:16Z</time>
      </trkpt>
      <trkpt lat="48.777971" lon="9.919612">
        <ele>533.6</ele>
        <time>2026-08-30T12:03:17Z</time>
      </trkpt>
      <trkpt lat="48.777968" lon="9.919594">
        <ele>533.8</ele>
        <time>2026-08-30T12:03:18Z</time>
      </trkpt>
      <trkpt lat="48.777965" lon="9.919579">
        <ele>534</ele>
        <time>2026-08-30T12:03:19Z</time>
      </trkpt>
      <trkpt lat="48.777959" lon="9.919567">
        <ele>534.2</ele>
        <time>2026-08-30T12:03:20Z</time>
      </trkpt>
      <trkpt lat="48.777950" lon="9.919559">
        <ele>534.4</ele>
        <time>2026-08-30T12:03:21Z</time>
      </trkpt>
      <trkpt lat="48.777947" lon="9.919552">
        <ele>534.8</ele>
        <time>2026-08-30T12:03:22Z</time>
      </trkpt>
      <trkpt lat="48.777946" lon="9.919545">
        <ele>535</ele>
        <time>2026-08-30T12:03:23Z</time>
      </trkpt>
      <trkpt lat="48.777942" lon="9.919534">
        <ele>535.2</ele>
        <time>2026-08-30T12:03:24Z</time>
      </trkpt>
      <trkpt lat="48.777934" lon="9.919522">
        <ele>535.4</ele>
        <time>2026-08-30T12:03:25Z</time>
      </trkpt>
      <trkpt lat="48.777926" lon="9.919515">
        <ele>535.6</ele>
        <time>2026-08-30T12:03:26Z</time>
      </trkpt>
      <trkpt lat="48.777919" lon="9.919503">
        <ele>535.6</ele>
        <time>2026-08-30T12:03:27Z</time>
      </trkpt>
      <trkpt lat="48.777912" lon="9.919496">
        <ele>536</ele>
        <time>2026-08-30T12:03:28Z</time>
      </trkpt>
      <trkpt lat="48.777903" lon="9.919481">
        <ele>536.2</ele>
        <time>2026-08-30T12:03:29Z</time>
      </trkpt>
      <trkpt lat="48.777898" lon="9.919470">
        <ele>536.4</ele>
        <time>2026-08-30T12:03:30Z</time>
      </trkpt>
      <trkpt lat="48.777893" lon="9.919452">
        <ele>536.6</ele>
        <time>2026-08-30T12:03:31Z</time>
      </trkpt>
      <trkpt lat="48.777887" lon="9.919432">
        <ele>536.8</ele>
        <time>2026-08-30T12:03:32Z</time>
      </trkpt>
      <trkpt lat="48.777885" lon="9.919417">
        <ele>537</ele>
        <time>2026-08-30T12:03:33Z</time>
      </trkpt>
      <trkpt lat="48.777878" lon="9.919401">
        <ele>537</ele>
        <time>2026-08-30T12:03:34Z</time>
      </trkpt>
      <trkpt lat="48.777873" lon="9.919392">
        <ele>537.2</ele>
        <time>2026-08-30T12:03:35Z</time>
      </trkpt>
      <trkpt lat="48.777869" lon="9.919374">
        <ele>537.4</ele>
        <time>2026-08-30T12:03:36Z</time>
      </trkpt>
      <trkpt lat="48.777867" lon="9.919364">
        <ele>537.6</ele>
        <time>2026-08-30T12:03:37Z</time>
      </trkpt>
      <trkpt lat="48.777861" lon="9.919348">
        <ele>537.8</ele>
        <time>2026-08-30T12:03:38Z</time>
      </trkpt>
      <trkpt lat="48.777858" lon="9.919335">
        <ele>538.2</ele>
        <time>2026-08-30T12:03:39Z</time>
      </trkpt>
      <trkpt lat="48.777852" lon="9.919317">
        <ele>538.4</ele>
        <time>2026-08-30T12:03:40Z</time>
      </trkpt>
      <trkpt lat="48.777841" lon="9.919303">
        <ele>538.6</ele>
        <time>2026-08-30T12:03:41Z</time>
      </trkpt>
      <trkpt lat="48.777834" lon="9.919295">
        <ele>538.8</ele>
        <time>2026-08-30T12:03:42Z</time>
      </trkpt>
      <trkpt lat="48.777825" lon="9.919284">
        <ele>539</ele>
        <time>2026-08-30T12:03:43Z</time>
      </trkpt>
      <trkpt lat="48.777819" lon="9.919278">
        <ele>539.2</ele>
        <time>2026-08-30T12:03:44Z</time>
      </trkpt>
      <trkpt lat="48.777810" lon="9.919273">
        <ele>539.4</ele>
        <time>2026-08-30T12:03:45Z</time>
      </trkpt>
      <trkpt lat="48.777796" lon="9.919266">
        <ele>539.6</ele>
        <time>2026-08-30T12:03:46Z</time>
      </trkpt>
      <trkpt lat="48.777785" lon="9.919260">
        <ele>539.8</ele>
        <time>2026-08-30T12:03:47Z</time>
      </trkpt>
      <trkpt lat="48.777774" lon="9.919251">
        <ele>540</ele>
        <time>2026-08-30T12:03:48Z</time>
      </trkpt>
      <trkpt lat="48.777763" lon="9.919237">
        <ele>540.2</ele>
        <time>2026-08-30T12:03:49Z</time>
      </trkpt>
      <trkpt lat="48.777756" lon="9.919225">
        <ele>540.2</ele>
        <time>2026-08-30T12:03:50Z</time>
      </trkpt>
      <trkpt lat="48.777743" lon="9.919210">
        <ele>540.4</ele>
        <time>2026-08-30T12:03:51Z</time>
      </trkpt>
      <trkpt lat="48.777733" lon="9.919194">
        <ele>540.6</ele>
        <time>2026-08-30T12:03:52Z</time>
      </trkpt>
      <trkpt lat="48.777723" lon="9.919181">
        <ele>540.8</ele>
        <time>2026-08-30T12:03:53Z</time>
      </trkpt>
      <trkpt lat="48.777712" lon="9.919165">
        <ele>540.8</ele>
        <time>2026-08-30T12:03:54Z</time>
      </trkpt>
      <trkpt lat="48.777702" lon="9.919153">
        <ele>541</ele>
        <time>2026-08-30T12:03:55Z</time>
      </trkpt>
      <trkpt lat="48.777694" lon="9.919137">
        <ele>541</ele>
        <time>2026-08-30T12:03:56Z</time>
      </trkpt>
      <trkpt lat="48.777687" lon="9.919118">
        <ele>541.2</ele>
        <time>2026-08-30T12:03:57Z</time>
      </trkpt>
      <trkpt lat="48.777677" lon="9.919100">
        <ele>541.4</ele>
        <time>2026-08-30T12:03:58Z</time>
      </trkpt>
      <trkpt lat="48.777670" lon="9.919079">
        <ele>541.4</ele>
        <time>2026-08-30T12:03:59Z</time>
      </trkpt>
      <trkpt lat="48.777663" lon="9.919055">
        <ele>541.4</ele>
        <time>2026-08-30T12:04:00Z</time>
      </trkpt>
      <trkpt lat="48.777656" lon="9.919031">
        <ele>541.4</ele>
        <time>2026-08-30T12:04:01Z</time>
      </trkpt>
      <trkpt lat="48.777649" lon="9.919005">
        <ele>541.6</ele>
        <time>2026-08-30T12:04:02Z</time>
      </trkpt>
      <trkpt lat="48.777639" lon="9.918983">
        <ele>541.6</ele>
        <time>2026-08-30T12:04:03Z</time>
      </trkpt>
      <trkpt lat="48.777631" lon="9.918961">
        <ele>541.6</ele>
        <time>2026-08-30T12:04:04Z</time>
      </trkpt>
      <trkpt lat="48.777622" lon="9.918933">
        <ele>541.6</ele>
        <time>2026-08-30T12:04:05Z</time>
      </trkpt>
      <trkpt lat="48.777613" lon="9.918906">
        <ele>541.8</ele>
        <time>2026-08-30T12:04:06Z</time>
      </trkpt>
      <trkpt lat="48.777603" lon="9.918879">
        <ele>541.8</ele>
        <time>2026-08-30T12:04:07Z</time>
      </trkpt>
      <trkpt lat="48.777594" lon="9.918854">
        <ele>541.8</ele>
        <time>2026-08-30T12:04:08Z</time>
      </trkpt>
      <trkpt lat="48.777587" lon="9.918829">
        <ele>541.8</ele>
        <time>2026-08-30T12:04:09Z</time>
      </trkpt>
      <trkpt lat="48.777579" lon="9.918806">
        <ele>542</ele>
        <time>2026-08-30T12:04:10Z</time>
      </trkpt>
      <trkpt lat="48.777569" lon="9.918782">
        <ele>542</ele>
        <time>2026-08-30T12:04:11Z</time>
      </trkpt>
      <trkpt lat="48.777560" lon="9.918759">
        <ele>542</ele>
        <time>2026-08-30T12:04:12Z</time>
      </trkpt>
      <trkpt lat="48.777549" lon="9.918730">
        <ele>542</ele>
        <time>2026-08-30T12:04:13Z</time>
      </trkpt>
      <trkpt lat="48.777543" lon="9.918704">
        <ele>542</ele>
        <time>2026-08-30T12:04:14Z</time>
      </trkpt>
      <trkpt lat="48.777534" lon="9.918679">
        <ele>542</ele>
        <time>2026-08-30T12:04:15Z</time>
      </trkpt>
      <trkpt lat="48.777521" lon="9.918653">
        <ele>541.8</ele>
        <time>2026-08-30T12:04:16Z</time>
      </trkpt>
      <trkpt lat="48.777510" lon="9.918633">
        <ele>541.8</ele>
        <time>2026-08-30T12:04:17Z</time>
      </trkpt>
      <trkpt lat="48.777499" lon="9.918606">
        <ele>541.8</ele>
        <time>2026-08-30T12:04:18Z</time>
      </trkpt>
      <trkpt lat="48.777493" lon="9.918574">
        <ele>541.8</ele>
        <time>2026-08-30T12:04:19Z</time>
      </trkpt>
      <trkpt lat="48.777488" lon="9.918542">
        <ele>541.8</ele>
        <time>2026-08-30T12:04:20Z</time>
      </trkpt>
      <trkpt lat="48.777483" lon="9.918516">
        <ele>541.8</ele>
        <time>2026-08-30T12:04:21Z</time>
      </trkpt>
      <trkpt lat="48.777478" lon="9.918486">
        <ele>542</ele>
        <time>2026-08-30T12:04:22Z</time>
      </trkpt>
      <trkpt lat="48.777473" lon="9.918455">
        <ele>542</ele>
        <time>2026-08-30T12:04:23Z</time>
      </trkpt>
      <trkpt lat="48.777470" lon="9.918425">
        <ele>542</ele>
        <time>2026-08-30T12:04:24Z</time>
      </trkpt>
      <trkpt lat="48.777464" lon="9.918393">
        <ele>542</ele>
        <time>2026-08-30T12:04:25Z</time>
      </trkpt>
      <trkpt lat="48.777460" lon="9.918365">
        <ele>542.2</ele>
        <time>2026-08-30T12:04:26Z</time>
      </trkpt>
      <trkpt lat="48.777452" lon="9.918336">
        <ele>542.2</ele>
        <time>2026-08-30T12:04:27Z</time>
      </trkpt>
      <trkpt lat="48.777445" lon="9.918311">
        <ele>542.2</ele>
        <time>2026-08-30T12:04:28Z</time>
      </trkpt>
      <trkpt lat="48.777440" lon="9.918286">
        <ele>542.4</ele>
        <time>2026-08-30T12:04:29Z</time>
      </trkpt>
      <trkpt lat="48.777437" lon="9.918258">
        <ele>542.6</ele>
        <time>2026-08-30T12:04:30Z</time>
      </trkpt>
      <trkpt lat="48.777435" lon="9.918232">
        <ele>542.6</ele>
        <time>2026-08-30T12:04:31Z</time>
      </trkpt>
      <trkpt lat="48.777432" lon="9.918205">
        <ele>542.8</ele>
        <time>2026-08-30T12:04:32Z</time>
      </trkpt>
      <trkpt lat="48.777427" lon="9.918179">
        <ele>542.8</ele>
        <time>2026-08-30T12:04:33Z</time>
      </trkpt>
      <trkpt lat="48.777425" lon="9.918153">
        <ele>543</ele>
        <time>2026-08-30T12:04:34Z</time>
      </trkpt>
      <trkpt lat="48.777421" lon="9.918127">
        <ele>543.2</ele>
        <time>2026-08-30T12:04:35Z</time>
      </trkpt>
      <trkpt lat="48.777416" lon="9.918100">
        <ele>543.4</ele>
        <time>2026-08-30T12:04:36Z</time>
      </trkpt>
      <trkpt lat="48.777412" lon="9.918070">
        <ele>543.6</ele>
        <time>2026-08-30T12:04:37Z</time>
      </trkpt>
      <trkpt lat="48.777410" lon="9.918038">
        <ele>543.8</ele>
        <time>2026-08-30T12:04:38Z</time>
      </trkpt>
      <trkpt lat="48.777409" lon="9.918005">
        <ele>544</ele>
        <time>2026-08-30T12:04:39Z</time>
      </trkpt>
      <trkpt lat="48.777405" lon="9.917975">
        <ele>544.2</ele>
        <time>2026-08-30T12:04:40Z</time>
      </trkpt>
      <trkpt lat="48.777401" lon="9.917946">
        <ele>544.4</ele>
        <time>2026-08-30T12:04:41Z</time>
      </trkpt>
      <trkpt lat="48.777398" lon="9.917917">
        <ele>544.6</ele>
        <time>2026-08-30T12:04:42Z</time>
      </trkpt>
      <trkpt lat="48.777397" lon="9.917890">
        <ele>544.6</ele>
        <time>2026-08-30T12:04:43Z</time>
      </trkpt>
      <trkpt lat="48.777394" lon="9.917862">
        <ele>544.8</ele>
        <time>2026-08-30T12:04:44Z</time>
      </trkpt>
      <trkpt lat="48.777389" lon="9.917833">
        <ele>544.8</ele>
        <time>2026-08-30T12:04:45Z</time>
      </trkpt>
      <trkpt lat="48.777384" lon="9.917807">
        <ele>544.8</ele>
        <time>2026-08-30T12:04:46Z</time>
      </trkpt>
      <trkpt lat="48.777379" lon="9.917782">
        <ele>545</ele>
        <time>2026-08-30T12:04:47Z</time>
      </trkpt>
      <trkpt lat="48.777376" lon="9.917757">
        <ele>545</ele>
        <time>2026-08-30T12:04:48Z</time>
      </trkpt>
      <trkpt lat="48.777375" lon="9.917729">
        <ele>545.2</ele>
        <time>2026-08-30T12:04:49Z</time>
      </trkpt>
      <trkpt lat="48.777374" lon="9.917700">
        <ele>545.2</ele>
        <time>2026-08-30T12:04:50Z</time>
      </trkpt>
      <trkpt lat="48.777373" lon="9.917677">
        <ele>545.4</ele>
        <time>2026-08-30T12:04:51Z</time>
      </trkpt>
      <trkpt lat="48.777370" lon="9.917655">
        <ele>545.4</ele>
        <time>2026-08-30T12:04:52Z</time>
      </trkpt>
      <trkpt lat="48.777368" lon="9.917627">
        <ele>545.6</ele>
        <time>2026-08-30T12:04:53Z</time>
      </trkpt>
      <trkpt lat="48.777368" lon="9.917600">
        <ele>545.6</ele>
        <time>2026-08-30T12:04:54Z</time>
      </trkpt>
      <trkpt lat="48.777367" lon="9.917573">
        <ele>545.8</ele>
        <time>2026-08-30T12:04:55Z</time>
      </trkpt>
      <trkpt lat="48.777367" lon="9.917545">
        <ele>546</ele>
        <time>2026-08-30T12:04:56Z</time>
      </trkpt>
      <trkpt lat="48.777366" lon="9.917513">
        <ele>546</ele>
        <time>2026-08-30T12:04:57Z</time>
      </trkpt>
      <trkpt lat="48.777364" lon="9.917483">
        <ele>546.2</ele>
        <time>2026-08-30T12:04:58Z</time>
      </trkpt>
      <trkpt lat="48.777363" lon="9.917453">
        <ele>546.2</ele>
        <time>2026-08-30T12:04:59Z</time>
      </trkpt>
      <trkpt lat="48.777364" lon="9.917427">
        <ele>546.2</ele>
        <time>2026-08-30T12:05:00Z</time>
      </trkpt>
      <trkpt lat="48.777366" lon="9.917401">
        <ele>546.4</ele>
        <time>2026-08-30T12:05:01Z</time>
      </trkpt>
      <trkpt lat="48.777370" lon="9.917379">
        <ele>546.4</ele>
        <time>2026-08-30T12:05:02Z</time>
      </trkpt>
      <trkpt lat="48.777373" lon="9.917351">
        <ele>546.4</ele>
        <time>2026-08-30T12:05:03Z</time>
      </trkpt>
      <trkpt lat="48.777373" lon="9.917327">
        <ele>546.6</ele>
        <time>2026-08-30T12:05:04Z</time>
      </trkpt>
      <trkpt lat="48.777377" lon="9.917306">
        <ele>546.8</ele>
        <time>2026-08-30T12:05:05Z</time>
      </trkpt>
      <trkpt lat="48.777383" lon="9.917284">
        <ele>547</ele>
        <time>2026-08-30T12:05:06Z</time>
      </trkpt>
      <trkpt lat="48.777388" lon="9.917260">
        <ele>547</ele>
        <time>2026-08-30T12:05:07Z</time>
      </trkpt>
      <trkpt lat="48.777391" lon="9.917244">
        <ele>547.2</ele>
        <time>2026-08-30T12:05:08Z</time>
      </trkpt>
      <trkpt lat="48.777394" lon="9.917224">
        <ele>547.6</ele>
        <time>2026-08-30T12:05:09Z</time>
      </trkpt>
      <trkpt lat="48.777397" lon="9.917204">
        <ele>547.8</ele>
        <time>2026-08-30T12:05:10Z</time>
      </trkpt>
      <trkpt lat="48.777401" lon="9.917182">
        <ele>548.2</ele>
        <time>2026-08-30T12:05:11Z</time>
      </trkpt>
      <trkpt lat="48.777403" lon="9.917157">
        <ele>548.4</ele>
        <time>2026-08-30T12:05:12Z</time>
      </trkpt>
      <trkpt lat="48.777406" lon="9.917138">
        <ele>548.8</ele>
        <time>2026-08-30T12:05:13Z</time>
      </trkpt>
      <trkpt lat="48.777409" lon="9.917115">
        <ele>549</ele>
        <time>2026-08-30T12:05:14Z</time>
      </trkpt>
      <trkpt lat="48.777411" lon="9.917098">
        <ele>549.4</ele>
        <time>2026-08-30T12:05:15Z</time>
      </trkpt>
      <trkpt lat="48.777415" lon="9.917075">
        <ele>549.8</ele>
        <time>2026-08-30T12:05:16Z</time>
      </trkpt>
      <trkpt lat="48.777417" lon="9.917051">
        <ele>550</ele>
        <time>2026-08-30T12:05:17Z</time>
      </trkpt>
      <trkpt lat="48.777420" lon="9.917027">
        <ele>550.2</ele>
        <time>2026-08-30T12:05:18Z</time>
      </trkpt>
      <trkpt lat="48.777428" lon="9.917004">
        <ele>550.6</ele>
        <time>2026-08-30T12:05:19Z</time>
      </trkpt>
      <trkpt lat="48.777432" lon="9.916981">
        <ele>550.8</ele>
        <time>2026-08-30T12:05:20Z</time>
      </trkpt>
      <trkpt lat="48.777431" lon="9.916965">
        <ele>551</ele>
        <time>2026-08-30T12:05:21Z</time>
      </trkpt>
      <trkpt lat="48.777429" lon="9.916951">
        <ele>551.2</ele>
        <time>2026-08-30T12:05:22Z</time>
      </trkpt>
      <trkpt lat="48.777426" lon="9.916936">
        <ele>551.4</ele>
        <time>2026-08-30T12:05:23Z</time>
      </trkpt>
      <trkpt lat="48.777430" lon="9.916918">
        <ele>551.6</ele>
        <time>2026-08-30T12:05:24Z</time>
      </trkpt>
      <trkpt lat="48.777433" lon="9.916903">
        <ele>552</ele>
        <time>2026-08-30T12:05:25Z</time>
      </trkpt>
      <trkpt lat="48.777433" lon="9.916884">
        <ele>552.2</ele>
        <time>2026-08-30T12:05:26Z</time>
      </trkpt>
      <trkpt lat="48.777433" lon="9.916860">
        <ele>552.4</ele>
        <time>2026-08-30T12:05:27Z</time>
      </trkpt>
      <trkpt lat="48.777434" lon="9.916839">
        <ele>552.6</ele>
        <time>2026-08-30T12:05:28Z</time>
      </trkpt>
      <trkpt lat="48.777437" lon="9.916821">
        <ele>553</ele>
        <time>2026-08-30T12:05:29Z</time>
      </trkpt>
      <trkpt lat="48.777441" lon="9.916802">
        <ele>553.2</ele>
        <time>2026-08-30T12:05:30Z</time>
      </trkpt>
      <trkpt lat="48.777445" lon="9.916784">
        <ele>553.4</ele>
        <time>2026-08-30T12:05:31Z</time>
      </trkpt>
      <trkpt lat="48.777446" lon="9.916763">
        <ele>553.6</ele>
        <time>2026-08-30T12:05:32Z</time>
      </trkpt>
      <trkpt lat="48.777445" lon="9.916739">
        <ele>553.8</ele>
        <time>2026-08-30T12:05:33Z</time>
      </trkpt>
      <trkpt lat="48.777445" lon="9.916719">
        <ele>554</ele>
        <time>2026-08-30T12:05:34Z</time>
      </trkpt>
      <trkpt lat="48.777443" lon="9.916699">
        <ele>554.4</ele>
        <time>2026-08-30T12:05:35Z</time>
      </trkpt>
      <trkpt lat="48.777440" lon="9.916688">
        <ele>554.6</ele>
        <time>2026-08-30T12:05:36Z</time>
      </trkpt>
      <trkpt lat="48.777440" lon="9.916665">
        <ele>554.8</ele>
        <time>2026-08-30T12:05:37Z</time>
      </trkpt>
      <trkpt lat="48.777444" lon="9.916645">
        <ele>555</ele>
        <time>2026-08-30T12:05:38Z</time>
      </trkpt>
      <trkpt lat="48.777442" lon="9.916626">
        <ele>555.2</ele>
        <time>2026-08-30T12:05:39Z</time>
      </trkpt>
      <trkpt lat="48.777446" lon="9.916612">
        <ele>555.4</ele>
        <time>2026-08-30T12:05:40Z</time>
      </trkpt>
      <trkpt lat="48.777446" lon="9.916602">
        <ele>555.8</ele>
        <time>2026-08-30T12:05:41Z</time>
      </trkpt>
      <trkpt lat="48.777448" lon="9.916584">
        <ele>555.8</ele>
        <time>2026-08-30T12:05:42Z</time>
      </trkpt>
      <trkpt lat="48.777449" lon="9.916565">
        <ele>556</ele>
        <time>2026-08-30T12:05:43Z</time>
      </trkpt>
      <trkpt lat="48.777452" lon="9.916543">
        <ele>556.2</ele>
        <time>2026-08-30T12:05:44Z</time>
      </trkpt>
      <trkpt lat="48.777457" lon="9.916521">
        <ele>556.4</ele>
        <time>2026-08-30T12:05:45Z</time>
      </trkpt>
      <trkpt lat="48.777462" lon="9.916499">
        <ele>556.6</ele>
        <time>2026-08-30T12:05:46Z</time>
      </trkpt>
      <trkpt lat="48.777462" lon="9.916479">
        <ele>556.8</ele>
        <time>2026-08-30T12:05:47Z</time>
      </trkpt>
      <trkpt lat="48.777465" lon="9.916461">
        <ele>556.8</ele>
        <time>2026-08-30T12:05:48Z</time>
      </trkpt>
      <trkpt lat="48.777468" lon="9.916447">
        <ele>557</ele>
        <time>2026-08-30T12:05:49Z</time>
      </trkpt>
      <trkpt lat="48.777471" lon="9.916438">
        <ele>557.2</ele>
        <time>2026-08-30T12:05:50Z</time>
      </trkpt>
      <trkpt lat="48.777470" lon="9.916436">
        <ele>557.4</ele>
        <time>2026-08-30T12:05:51Z</time>
      </trkpt>
      <trkpt lat="48.777469" lon="9.916435">
        <ele>557.6</ele>
        <time>2026-08-30T12:05:52Z</time>
      </trkpt>
      <trkpt lat="48.777469" lon="9.916435">
        <ele>557.6</ele>
        <time>2026-08-30T12:05:53Z</time>
      </trkpt>
      <trkpt lat="48.777469" lon="9.916435">
        <ele>557.8</ele>
        <time>2026-08-30T12:05:54Z</time>
      </trkpt>
      <trkpt lat="48.777469" lon="9.916435">
        <ele>557.8</ele>
        <time>2026-08-30T12:05:55Z</time>
      </trkpt>
      <trkpt lat="48.777469" lon="9.916435">
        <ele>557.8</ele>
        <time>2026-08-30T12:05:56Z</time>
      </trkpt>
      <trkpt lat="48.777469" lon="9.916435">
        <ele>557.8</ele>
        <time>2026-08-30T12:05:57Z</time>
      </trkpt>
      <trkpt lat="48.777467" lon="9.916418">
        <ele>557.8</ele>
        <time>2026-08-30T12:05:58Z</time>
      </trkpt>
      <trkpt lat="48.777467" lon="9.916397">
        <ele>557.8</ele>
        <time>2026-08-30T12:05:59Z</time>
      </trkpt>
      <trkpt lat="48.777465" lon="9.916366">
        <ele>557.8</ele>
        <time>2026-08-30T12:06:00Z</time>
      </trkpt>
      <trkpt lat="48.777468" lon="9.916344">
        <ele>558</ele>
        <time>2026-08-30T12:06:01Z</time>
      </trkpt>
      <trkpt lat="48.777469" lon="9.916314">
        <ele>558</ele>
        <time>2026-08-30T12:06:02Z</time>
      </trkpt>
      <trkpt lat="48.777466" lon="9.916287">
        <ele>558</ele>
        <time>2026-08-30T12:06:03Z</time>
      </trkpt>
      <trkpt lat="48.777465" lon="9.916259">
        <ele>558</ele>
        <time>2026-08-30T12:06:04Z</time>
      </trkpt>
      <trkpt lat="48.777462" lon="9.916226">
        <ele>558.2</ele>
        <time>2026-08-30T12:06:05Z</time>
      </trkpt>
      <trkpt lat="48.777458" lon="9.916193">
        <ele>558.2</ele>
        <time>2026-08-30T12:06:06Z</time>
      </trkpt>
      <trkpt lat="48.777453" lon="9.916151">
        <ele>558.2</ele>
        <time>2026-08-30T12:06:07Z</time>
      </trkpt>
      <trkpt lat="48.777449" lon="9.916104">
        <ele>558.2</ele>
        <time>2026-08-30T12:06:08Z</time>
      </trkpt>
      <trkpt lat="48.777448" lon="9.916064">
        <ele>558.4</ele>
        <time>2026-08-30T12:06:09Z</time>
      </trkpt>
      <trkpt lat="48.777445" lon="9.916019">
        <ele>558.4</ele>
        <time>2026-08-30T12:06:10Z</time>
      </trkpt>
      <trkpt lat="48.777443" lon="9.915969">
        <ele>558.4</ele>
        <time>2026-08-30T12:06:11Z</time>
      </trkpt>
      <trkpt lat="48.777442" lon="9.915926">
        <ele>558.4</ele>
        <time>2026-08-30T12:06:12Z</time>
      </trkpt>
      <trkpt lat="48.777441" lon="9.915889">
        <ele>558.4</ele>
        <time>2026-08-30T12:06:13Z</time>
      </trkpt>
      <trkpt lat="48.777441" lon="9.915842">
        <ele>558.6</ele>
        <time>2026-08-30T12:06:14Z</time>
      </trkpt>
      <trkpt lat="48.777439" lon="9.915793">
        <ele>558.6</ele>
        <time>2026-08-30T12:06:15Z</time>
      </trkpt>
      <trkpt lat="48.777437" lon="9.915748">
        <ele>558.8</ele>
        <time>2026-08-30T12:06:16Z</time>
      </trkpt>
      <trkpt lat="48.777437" lon="9.915703">
        <ele>558.8</ele>
        <time>2026-08-30T12:06:17Z</time>
      </trkpt>
      <trkpt lat="48.777437" lon="9.915660">
        <ele>558.8</ele>
        <time>2026-08-30T12:06:18Z</time>
      </trkpt>
      <trkpt lat="48.777437" lon="9.915611">
        <ele>558.8</ele>
        <time>2026-08-30T12:06:19Z</time>
      </trkpt>
      <trkpt lat="48.777438" lon="9.915570">
        <ele>558.8</ele>
        <time>2026-08-30T12:06:20Z</time>
      </trkpt>
      <trkpt lat="48.777441" lon="9.915525">
        <ele>558.8</ele>
        <time>2026-08-30T12:06:21Z</time>
      </trkpt>
      <trkpt lat="48.777444" lon="9.915485">
        <ele>559</ele>
        <time>2026-08-30T12:06:22Z</time>
      </trkpt>
      <trkpt lat="48.777442" lon="9.915446">
        <ele>559</ele>
        <time>2026-08-30T12:06:23Z</time>
      </trkpt>
      <trkpt lat="48.777440" lon="9.915406">
        <ele>559</ele>
        <time>2026-08-30T12:06:24Z</time>
      </trkpt>
      <trkpt lat="48.777437" lon="9.915364">
        <ele>559.2</ele>
        <time>2026-08-30T12:06:25Z</time>
      </trkpt>
      <trkpt lat="48.777437" lon="9.915317">
        <ele>559.4</ele>
        <time>2026-08-30T12:06:26Z</time>
      </trkpt>
      <trkpt lat="48.777435" lon="9.915275">
        <ele>559.4</ele>
        <time>2026-08-30T12:06:27Z</time>
      </trkpt>
      <trkpt lat="48.777435" lon="9.915236">
        <ele>559.6</ele>
        <time>2026-08-30T12:06:28Z</time>
      </trkpt>
      <trkpt lat="48.777434" lon="9.915200">
        <ele>559.8</ele>
        <time>2026-08-30T12:06:29Z</time>
      </trkpt>
      <trkpt lat="48.777435" lon="9.915157">
        <ele>559.8</ele>
        <time>2026-08-30T12:06:30Z</time>
      </trkpt>
      <trkpt lat="48.777437" lon="9.915113">
        <ele>560</ele>
        <time>2026-08-30T12:06:31Z</time>
      </trkpt>
      <trkpt lat="48.777440" lon="9.915080">
        <ele>560</ele>
        <time>2026-08-30T12:06:32Z</time>
      </trkpt>
      <trkpt lat="48.777439" lon="9.915041">
        <ele>560</ele>
        <time>2026-08-30T12:06:33Z</time>
      </trkpt>
      <trkpt lat="48.777439" lon="9.915004">
        <ele>560.2</ele>
        <time>2026-08-30T12:06:34Z</time>
      </trkpt>
      <trkpt lat="48.777440" lon="9.914967">
        <ele>560.2</ele>
        <time>2026-08-30T12:06:35Z</time>
      </trkpt>
      <trkpt lat="48.777442" lon="9.914933">
        <ele>560.2</ele>
        <time>2026-08-30T12:06:36Z</time>
      </trkpt>
      <trkpt lat="48.777440" lon="9.914897">
        <ele>560.2</ele>
        <time>2026-08-30T12:06:37Z</time>
      </trkpt>
      <trkpt lat="48.777440" lon="9.914867">
        <ele>560.2</ele>
        <time>2026-08-30T12:06:38Z</time>
      </trkpt>
      <trkpt lat="48.777441" lon="9.914834">
        <ele>560.2</ele>
        <time>2026-08-30T12:06:39Z</time>
      </trkpt>
      <trkpt lat="48.777443" lon="9.914803">
        <ele>560.2</ele>
        <time>2026-08-30T12:06:40Z</time>
      </trkpt>
      <trkpt lat="48.777445" lon="9.914774">
        <ele>560.2</ele>
        <time>2026-08-30T12:06:41Z</time>
      </trkpt>
      <trkpt lat="48.777445" lon="9.914743">
        <ele>560.2</ele>
        <time>2026-08-30T12:06:42Z</time>
      </trkpt>
      <trkpt lat="48.777447" lon="9.914716">
        <ele>560.4</ele>
        <time>2026-08-30T12:06:43Z</time>
      </trkpt>
      <trkpt lat="48.777450" lon="9.914693">
        <ele>560.4</ele>
        <time>2026-08-30T12:06:44Z</time>
      </trkpt>
      <trkpt lat="48.777453" lon="9.914664">
        <ele>560.6</ele>
        <time>2026-08-30T12:06:45Z</time>
      </trkpt>
      <trkpt lat="48.777454" lon="9.914645">
        <ele>560.8</ele>
        <time>2026-08-30T12:06:46Z</time>
      </trkpt>
      <trkpt lat="48.777455" lon="9.914615">
        <ele>561</ele>
        <time>2026-08-30T12:06:47Z</time>
      </trkpt>
      <trkpt lat="48.777456" lon="9.914596">
        <ele>561.2</ele>
        <time>2026-08-30T12:06:48Z</time>
      </trkpt>
      <trkpt lat="48.777457" lon="9.914571">
        <ele>561.6</ele>
        <time>2026-08-30T12:06:49Z</time>
      </trkpt>
      <trkpt lat="48.777460" lon="9.914550">
        <ele>561.8</ele>
        <time>2026-08-30T12:06:50Z</time>
      </trkpt>
      <trkpt lat="48.777462" lon="9.914524">
        <ele>562</ele>
        <time>2026-08-30T12:06:51Z</time>
      </trkpt>
      <trkpt lat="48.777465" lon="9.914500">
        <ele>562.4</ele>
        <time>2026-08-30T12:06:52Z</time>
      </trkpt>
      <trkpt lat="48.777467" lon="9.914474">
        <ele>562.6</ele>
        <time>2026-08-30T12:06:53Z</time>
      </trkpt>
      <trkpt lat="48.777469" lon="9.914453">
        <ele>562.8</ele>
        <time>2026-08-30T12:06:54Z</time>
      </trkpt>
      <trkpt lat="48.777471" lon="9.914432">
        <ele>563</ele>
        <time>2026-08-30T12:06:55Z</time>
      </trkpt>
      <trkpt lat="48.777477" lon="9.914409">
        <ele>563.2</ele>
        <time>2026-08-30T12:06:56Z</time>
      </trkpt>
      <trkpt lat="48.777479" lon="9.914387">
        <ele>563.4</ele>
        <time>2026-08-30T12:06:57Z</time>
      </trkpt>
      <trkpt lat="48.777484" lon="9.914362">
        <ele>563.8</ele>
        <time>2026-08-30T12:06:58Z</time>
      </trkpt>
      <trkpt lat="48.777490" lon="9.914341">
        <ele>564</ele>
        <time>2026-08-30T12:06:59Z</time>
      </trkpt>
      <trkpt lat="48.777494" lon="9.914315">
        <ele>564.2</ele>
        <time>2026-08-30T12:07:00Z</time>
      </trkpt>
      <trkpt lat="48.777496" lon="9.914294">
        <ele>564.6</ele>
        <time>2026-08-30T12:07:01Z</time>
      </trkpt>
      <trkpt lat="48.777498" lon="9.914272">
        <ele>564.8</ele>
        <time>2026-08-30T12:07:02Z</time>
      </trkpt>
      <trkpt lat="48.777502" lon="9.914254">
        <ele>565</ele>
        <time>2026-08-30T12:07:03Z</time>
      </trkpt>
      <trkpt lat="48.777506" lon="9.914234">
        <ele>565.2</ele>
        <time>2026-08-30T12:07:04Z</time>
      </trkpt>
      <trkpt lat="48.777509" lon="9.914211">
        <ele>565.4</ele>
        <time>2026-08-30T12:07:05Z</time>
      </trkpt>
      <trkpt lat="48.777511" lon="9.914189">
        <ele>565.6</ele>
        <time>2026-08-30T12:07:06Z</time>
      </trkpt>
      <trkpt lat="48.777515" lon="9.914165">
        <ele>565.8</ele>
        <time>2026-08-30T12:07:07Z</time>
      </trkpt>
      <trkpt lat="48.777518" lon="9.914137">
        <ele>566</ele>
        <time>2026-08-30T12:07:08Z</time>
      </trkpt>
      <trkpt lat="48.777524" lon="9.914105">
        <ele>566.2</ele>
        <time>2026-08-30T12:07:09Z</time>
      </trkpt>
      <trkpt lat="48.777526" lon="9.914078">
        <ele>566.2</ele>
        <time>2026-08-30T12:07:10Z</time>
      </trkpt>
      <trkpt lat="48.777526" lon="9.914061">
        <ele>566.4</ele>
        <time>2026-08-30T12:07:11Z</time>
      </trkpt>
      <trkpt lat="48.777528" lon="9.914041">
        <ele>566.6</ele>
        <time>2026-08-30T12:07:12Z</time>
      </trkpt>
      <trkpt lat="48.777530" lon="9.914018">
        <ele>566.8</ele>
        <time>2026-08-30T12:07:13Z</time>
      </trkpt>
      <trkpt lat="48.777531" lon="9.913991">
        <ele>567</ele>
        <time>2026-08-30T12:07:14Z</time>
      </trkpt>
      <trkpt lat="48.777533" lon="9.913972">
        <ele>567.2</ele>
        <time>2026-08-30T12:07:15Z</time>
      </trkpt>
      <trkpt lat="48.777537" lon="9.913947">
        <ele>567.2</ele>
        <time>2026-08-30T12:07:16Z</time>
      </trkpt>
      <trkpt lat="48.777540" lon="9.913924">
        <ele>567.4</ele>
        <time>2026-08-30T12:07:17Z</time>
      </trkpt>
      <trkpt lat="48.777545" lon="9.913899">
        <ele>567.8</ele>
        <time>2026-08-30T12:07:18Z</time>
      </trkpt>
      <trkpt lat="48.777549" lon="9.913868">
        <ele>568</ele>
        <time>2026-08-30T12:07:19Z</time>
      </trkpt>
      <trkpt lat="48.777554" lon="9.913835">
        <ele>568.2</ele>
        <time>2026-08-30T12:07:20Z</time>
      </trkpt>
      <trkpt lat="48.777554" lon="9.913811">
        <ele>568.4</ele>
        <time>2026-08-30T12:07:21Z</time>
      </trkpt>
      <trkpt lat="48.777556" lon="9.913786">
        <ele>568.6</ele>
        <time>2026-08-30T12:07:22Z</time>
      </trkpt>
      <trkpt lat="48.777562" lon="9.913759">
        <ele>568.8</ele>
        <time>2026-08-30T12:07:23Z</time>
      </trkpt>
      <trkpt lat="48.777566" lon="9.913736">
        <ele>569</ele>
        <time>2026-08-30T12:07:24Z</time>
      </trkpt>
      <trkpt lat="48.777570" lon="9.913714">
        <ele>569.2</ele>
        <time>2026-08-30T12:07:25Z</time>
      </trkpt>
      <trkpt lat="48.777572" lon="9.913687">
        <ele>569.4</ele>
        <time>2026-08-30T12:07:26Z</time>
      </trkpt>
      <trkpt lat="48.777573" lon="9.913658">
        <ele>569.6</ele>
        <time>2026-08-30T12:07:27Z</time>
      </trkpt>
      <trkpt lat="48.777576" lon="9.913631">
        <ele>569.8</ele>
        <time>2026-08-30T12:07:28Z</time>
      </trkpt>
      <trkpt lat="48.777577" lon="9.913605">
        <ele>570</ele>
        <time>2026-08-30T12:07:29Z</time>
      </trkpt>
      <trkpt lat="48.777582" lon="9.913581">
        <ele>570.2</ele>
        <time>2026-08-30T12:07:30Z</time>
      </trkpt>
      <trkpt lat="48.777586" lon="9.913560">
        <ele>570.4</ele>
        <time>2026-08-30T12:07:31Z</time>
      </trkpt>
      <trkpt lat="48.777590" lon="9.913532">
        <ele>570.6</ele>
        <time>2026-08-30T12:07:32Z</time>
      </trkpt>
      <trkpt lat="48.777590" lon="9.913514">
        <ele>570.8</ele>
        <time>2026-08-30T12:07:33Z</time>
      </trkpt>
      <trkpt lat="48.777596" lon="9.913493">
        <ele>571</ele>
        <time>2026-08-30T12:07:34Z</time>
      </trkpt>
      <trkpt lat="48.777598" lon="9.913473">
        <ele>571.2</ele>
        <time>2026-08-30T12:07:35Z</time>
      </trkpt>
      <trkpt lat="48.777598" lon="9.913452">
        <ele>571.4</ele>
        <time>2026-08-30T12:07:36Z</time>
      </trkpt>
      <trkpt lat="48.777598" lon="9.913431">
        <ele>571.6</ele>
        <time>2026-08-30T12:07:37Z</time>
      </trkpt>
      <trkpt lat="48.777603" lon="9.913409">
        <ele>571.8</ele>
        <time>2026-08-30T12:07:38Z</time>
      </trkpt>
      <trkpt lat="48.777607" lon="9.913390">
        <ele>572</ele>
        <time>2026-08-30T12:07:39Z</time>
      </trkpt>
      <trkpt lat="48.777610" lon="9.913366">
        <ele>572.2</ele>
        <time>2026-08-30T12:07:40Z</time>
      </trkpt>
      <trkpt lat="48.777612" lon="9.913350">
        <ele>572.4</ele>
        <time>2026-08-30T12:07:41Z</time>
      </trkpt>
      <trkpt lat="48.777611" lon="9.913331">
        <ele>572.6</ele>
        <time>2026-08-30T12:07:42Z</time>
      </trkpt>
      <trkpt lat="48.777618" lon="9.913309">
        <ele>572.6</ele>
        <time>2026-08-30T12:07:43Z</time>
      </trkpt>
      <trkpt lat="48.777624" lon="9.913288">
        <ele>573</ele>
        <time>2026-08-30T12:07:44Z</time>
      </trkpt>
      <trkpt lat="48.777623" lon="9.913267">
        <ele>573</ele>
        <time>2026-08-30T12:07:45Z</time>
      </trkpt>
      <trkpt lat="48.777622" lon="9.913245">
        <ele>573.2</ele>
        <time>2026-08-30T12:07:46Z</time>
      </trkpt>
      <trkpt lat="48.777623" lon="9.913225">
        <ele>573.4</ele>
        <time>2026-08-30T12:07:47Z</time>
      </trkpt>
      <trkpt lat="48.777622" lon="9.913210">
        <ele>573.8</ele>
        <time>2026-08-30T12:07:48Z</time>
      </trkpt>
      <trkpt lat="48.777625" lon="9.913184">
        <ele>574</ele>
        <time>2026-08-30T12:07:49Z</time>
      </trkpt>
      <trkpt lat="48.777625" lon="9.913164">
        <ele>574.2</ele>
        <time>2026-08-30T12:07:50Z</time>
      </trkpt>
      <trkpt lat="48.777624" lon="9.913146">
        <ele>574.4</ele>
        <time>2026-08-30T12:07:51Z</time>
      </trkpt>
      <trkpt lat="48.777624" lon="9.913131">
        <ele>574.6</ele>
        <time>2026-08-30T12:07:52Z</time>
      </trkpt>
      <trkpt lat="48.777623" lon="9.913112">
        <ele>575</ele>
        <time>2026-08-30T12:07:53Z</time>
      </trkpt>
      <trkpt lat="48.777623" lon="9.913089">
        <ele>575.2</ele>
        <time>2026-08-30T12:07:54Z</time>
      </trkpt>
      <trkpt lat="48.777628" lon="9.913066">
        <ele>575.4</ele>
        <time>2026-08-30T12:07:55Z</time>
      </trkpt>
      <trkpt lat="48.777628" lon="9.913048">
        <ele>575.4</ele>
        <time>2026-08-30T12:07:56Z</time>
      </trkpt>
      <trkpt lat="48.777630" lon="9.913022">
        <ele>575.6</ele>
        <time>2026-08-30T12:07:57Z</time>
      </trkpt>
      <trkpt lat="48.777634" lon="9.912993">
        <ele>575.8</ele>
        <time>2026-08-30T12:07:58Z</time>
      </trkpt>
      <trkpt lat="48.777634" lon="9.912972">
        <ele>576</ele>
        <time>2026-08-30T12:07:59Z</time>
      </trkpt>
      <trkpt lat="48.777631" lon="9.912958">
        <ele>576.2</ele>
        <time>2026-08-30T12:08:00Z</time>
      </trkpt>
      <trkpt lat="48.777630" lon="9.912940">
        <ele>576.4</ele>
        <time>2026-08-30T12:08:01Z</time>
      </trkpt>
      <trkpt lat="48.777629" lon="9.912918">
        <ele>576.6</ele>
        <time>2026-08-30T12:08:02Z</time>
      </trkpt>
      <trkpt lat="48.777630" lon="9.912897">
        <ele>576.8</ele>
        <time>2026-08-30T12:08:03Z</time>
      </trkpt>
      <trkpt lat="48.777629" lon="9.912873">
        <ele>577</ele>
        <time>2026-08-30T12:08:04Z</time>
      </trkpt>
      <trkpt lat="48.777630" lon="9.912851">
        <ele>577.2</ele>
        <time>2026-08-30T12:08:05Z</time>
      </trkpt>
      <trkpt lat="48.777630" lon="9.912830">
        <ele>577.4</ele>
        <time>2026-08-30T12:08:06Z</time>
      </trkpt>
      <trkpt lat="48.777630" lon="9.912813">
        <ele>577.6</ele>
        <time>2026-08-30T12:08:07Z</time>
      </trkpt>
      <trkpt lat="48.777632" lon="9.912794">
        <ele>577.8</ele>
        <time>2026-08-30T12:08:08Z</time>
      </trkpt>
      <trkpt lat="48.777632" lon="9.912768">
        <ele>577.8</ele>
        <time>2026-08-30T12:08:09Z</time>
      </trkpt>
      <trkpt lat="48.777633" lon="9.912752">
        <ele>578.2</ele>
        <time>2026-08-30T12:08:10Z</time>
      </trkpt>
      <trkpt lat="48.777633" lon="9.912735">
        <ele>578.4</ele>
        <time>2026-08-30T12:08:11Z</time>
      </trkpt>
      <trkpt lat="48.777630" lon="9.912715">
        <ele>578.6</ele>
        <time>2026-08-30T12:08:12Z</time>
      </trkpt>
      <trkpt lat="48.777629" lon="9.912695">
        <ele>578.8</ele>
        <time>2026-08-30T12:08:13Z</time>
      </trkpt>
      <trkpt lat="48.777626" lon="9.912678">
        <ele>579</ele>
        <time>2026-08-30T12:08:14Z</time>
      </trkpt>
      <trkpt lat="48.777625" lon="9.912656">
        <ele>579.2</ele>
        <time>2026-08-30T12:08:15Z</time>
      </trkpt>
      <trkpt lat="48.777622" lon="9.912632">
        <ele>579.4</ele>
        <time>2026-08-30T12:08:16Z</time>
      </trkpt>
      <trkpt lat="48.777618" lon="9.912612">
        <ele>579.6</ele>
        <time>2026-08-30T12:08:17Z</time>
      </trkpt>
      <trkpt lat="48.777616" lon="9.912596">
        <ele>579.8</ele>
        <time>2026-08-30T12:08:18Z</time>
      </trkpt>
      <trkpt lat="48.777613" lon="9.912575">
        <ele>580</ele>
        <time>2026-08-30T12:08:19Z</time>
      </trkpt>
      <trkpt lat="48.777614" lon="9.912557">
        <ele>580.2</ele>
        <time>2026-08-30T12:08:20Z</time>
      </trkpt>
      <trkpt lat="48.777612" lon="9.912544">
        <ele>580.4</ele>
        <time>2026-08-30T12:08:21Z</time>
      </trkpt>
      <trkpt lat="48.777615" lon="9.912520">
        <ele>580.6</ele>
        <time>2026-08-30T12:08:22Z</time>
      </trkpt>
      <trkpt lat="48.777615" lon="9.912499">
        <ele>580.6</ele>
        <time>2026-08-30T12:08:23Z</time>
      </trkpt>
      <trkpt lat="48.777613" lon="9.912474">
        <ele>580.8</ele>
        <time>2026-08-30T12:08:24Z</time>
      </trkpt>
      <trkpt lat="48.777612" lon="9.912458">
        <ele>581</ele>
        <time>2026-08-30T12:08:25Z</time>
      </trkpt>
      <trkpt lat="48.777612" lon="9.912433">
        <ele>581.2</ele>
        <time>2026-08-30T12:08:26Z</time>
      </trkpt>
      <trkpt lat="48.777610" lon="9.912410">
        <ele>581.2</ele>
        <time>2026-08-30T12:08:27Z</time>
      </trkpt>
      <trkpt lat="48.777606" lon="9.912388">
        <ele>581.4</ele>
        <time>2026-08-30T12:08:28Z</time>
      </trkpt>
      <trkpt lat="48.777603" lon="9.912370">
        <ele>581.6</ele>
        <time>2026-08-30T12:08:29Z</time>
      </trkpt>
      <trkpt lat="48.777602" lon="9.912347">
        <ele>581.6</ele>
        <time>2026-08-30T12:08:30Z</time>
      </trkpt>
      <trkpt lat="48.777599" lon="9.912322">
        <ele>581.8</ele>
        <time>2026-08-30T12:08:31Z</time>
      </trkpt>
      <trkpt lat="48.777595" lon="9.912288">
        <ele>582</ele>
        <time>2026-08-30T12:08:32Z</time>
      </trkpt>
      <trkpt lat="48.777591" lon="9.912258">
        <ele>582.2</ele>
        <time>2026-08-30T12:08:33Z</time>
      </trkpt>
      <trkpt lat="48.777587" lon="9.912226">
        <ele>582.2</ele>
        <time>2026-08-30T12:08:34Z</time>
      </trkpt>
      <trkpt lat="48.777578" lon="9.912196">
        <ele>582.4</ele>
        <time>2026-08-30T12:08:35Z</time>
      </trkpt>
      <trkpt lat="48.777575" lon="9.912166">
        <ele>582.6</ele>
        <time>2026-08-30T12:08:36Z</time>
      </trkpt>
      <trkpt lat="48.777573" lon="9.912136">
        <ele>582.6</ele>
        <time>2026-08-30T12:08:37Z</time>
      </trkpt>
      <trkpt lat="48.777569" lon="9.912102">
        <ele>582.8</ele>
        <time>2026-08-30T12:08:38Z</time>
      </trkpt>
      <trkpt lat="48.777564" lon="9.912069">
        <ele>582.8</ele>
        <time>2026-08-30T12:08:39Z</time>
      </trkpt>
      <trkpt lat="48.777555" lon="9.912037">
        <ele>583</ele>
        <time>2026-08-30T12:08:40Z</time>
      </trkpt>
      <trkpt lat="48.777552" lon="9.912004">
        <ele>583</ele>
        <time>2026-08-30T12:08:41Z</time>
      </trkpt>
      <trkpt lat="48.777548" lon="9.911967">
        <ele>583.2</ele>
        <time>2026-08-30T12:08:42Z</time>
      </trkpt>
      <trkpt lat="48.777543" lon="9.911933">
        <ele>583.2</ele>
        <time>2026-08-30T12:08:43Z</time>
      </trkpt>
      <trkpt lat="48.777541" lon="9.911898">
        <ele>583.2</ele>
        <time>2026-08-30T12:08:44Z</time>
      </trkpt>
      <trkpt lat="48.777538" lon="9.911858">
        <ele>583.2</ele>
        <time>2026-08-30T12:08:45Z</time>
      </trkpt>
      <trkpt lat="48.777532" lon="9.911816">
        <ele>583.2</ele>
        <time>2026-08-30T12:08:46Z</time>
      </trkpt>
      <trkpt lat="48.777528" lon="9.911774">
        <ele>583.4</ele>
        <time>2026-08-30T12:08:47Z</time>
      </trkpt>
      <trkpt lat="48.777522" lon="9.911729">
        <ele>583.4</ele>
        <time>2026-08-30T12:08:48Z</time>
      </trkpt>
      <trkpt lat="48.777515" lon="9.911684">
        <ele>583.4</ele>
        <time>2026-08-30T12:08:49Z</time>
      </trkpt>
      <trkpt lat="48.777509" lon="9.911639">
        <ele>583.6</ele>
        <time>2026-08-30T12:08:50Z</time>
      </trkpt>
      <trkpt lat="48.777503" lon="9.911596">
        <ele>583.6</ele>
        <time>2026-08-30T12:08:51Z</time>
      </trkpt>
      <trkpt lat="48.777495" lon="9.911554">
        <ele>583.6</ele>
        <time>2026-08-30T12:08:52Z</time>
      </trkpt>
      <trkpt lat="48.777488" lon="9.911511">
        <ele>583.6</ele>
        <time>2026-08-30T12:08:53Z</time>
      </trkpt>
      <trkpt lat="48.777483" lon="9.911469">
        <ele>583.8</ele>
        <time>2026-08-30T12:08:54Z</time>
      </trkpt>
      <trkpt lat="48.777475" lon="9.911424">
        <ele>583.8</ele>
        <time>2026-08-30T12:08:55Z</time>
      </trkpt>
      <trkpt lat="48.777468" lon="9.911374">
        <ele>583.8</ele>
        <time>2026-08-30T12:08:56Z</time>
      </trkpt>
      <trkpt lat="48.777462" lon="9.911326">
        <ele>584</ele>
        <time>2026-08-30T12:08:57Z</time>
      </trkpt>
      <trkpt lat="48.777456" lon="9.911281">
        <ele>584</ele>
        <time>2026-08-30T12:08:58Z</time>
      </trkpt>
      <trkpt lat="48.777450" lon="9.911235">
        <ele>584</ele>
        <time>2026-08-30T12:08:59Z</time>
      </trkpt>
      <trkpt lat="48.777440" lon="9.911196">
        <ele>584.2</ele>
        <time>2026-08-30T12:09:00Z</time>
      </trkpt>
      <trkpt lat="48.777433" lon="9.911149">
        <ele>584.2</ele>
        <time>2026-08-30T12:09:01Z</time>
      </trkpt>
      <trkpt lat="48.777427" lon="9.911104">
        <ele>584.2</ele>
        <time>2026-08-30T12:09:02Z</time>
      </trkpt>
      <trkpt lat="48.777423" lon="9.911061">
        <ele>584.4</ele>
        <time>2026-08-30T12:09:03Z</time>
      </trkpt>
      <trkpt lat="48.777415" lon="9.911018">
        <ele>584.4</ele>
        <time>2026-08-30T12:09:04Z</time>
      </trkpt>
      <trkpt lat="48.777408" lon="9.910971">
        <ele>584.4</ele>
        <time>2026-08-30T12:09:05Z</time>
      </trkpt>
      <trkpt lat="48.777405" lon="9.910931">
        <ele>584.4</ele>
        <time>2026-08-30T12:09:06Z</time>
      </trkpt>
      <trkpt lat="48.777397" lon="9.910890">
        <ele>584.6</ele>
        <time>2026-08-30T12:09:07Z</time>
      </trkpt>
      <trkpt lat="48.777391" lon="9.910844">
        <ele>584.6</ele>
        <time>2026-08-30T12:09:08Z</time>
      </trkpt>
      <trkpt lat="48.777389" lon="9.910796">
        <ele>584.6</ele>
        <time>2026-08-30T12:09:09Z</time>
      </trkpt>
      <trkpt lat="48.777380" lon="9.910748">
        <ele>584.6</ele>
        <time>2026-08-30T12:09:10Z</time>
      </trkpt>
      <trkpt lat="48.777376" lon="9.910698">
        <ele>584.6</ele>
        <time>2026-08-30T12:09:11Z</time>
      </trkpt>
      <trkpt lat="48.777371" lon="9.910664">
        <ele>584.8</ele>
        <time>2026-08-30T12:09:12Z</time>
      </trkpt>
      <trkpt lat="48.777367" lon="9.910620">
        <ele>584.8</ele>
        <time>2026-08-30T12:09:13Z</time>
      </trkpt>
      <trkpt lat="48.777363" lon="9.910588">
        <ele>585</ele>
        <time>2026-08-30T12:09:14Z</time>
      </trkpt>
      <trkpt lat="48.777360" lon="9.910559">
        <ele>585.2</ele>
        <time>2026-08-30T12:09:15Z</time>
      </trkpt>
      <trkpt lat="48.777355" lon="9.910524">
        <ele>585.4</ele>
        <time>2026-08-30T12:09:16Z</time>
      </trkpt>
      <trkpt lat="48.777354" lon="9.910495">
        <ele>585.6</ele>
        <time>2026-08-30T12:09:17Z</time>
      </trkpt>
      <trkpt lat="48.777355" lon="9.910460">
        <ele>585.6</ele>
        <time>2026-08-30T12:09:18Z</time>
      </trkpt>
      <trkpt lat="48.777353" lon="9.910433">
        <ele>585.8</ele>
        <time>2026-08-30T12:09:19Z</time>
      </trkpt>
      <trkpt lat="48.777351" lon="9.910402">
        <ele>586</ele>
        <time>2026-08-30T12:09:20Z</time>
      </trkpt>
      <trkpt lat="48.777347" lon="9.910381">
        <ele>586.2</ele>
        <time>2026-08-30T12:09:21Z</time>
      </trkpt>
      <trkpt lat="48.777348" lon="9.910356">
        <ele>586.4</ele>
        <time>2026-08-30T12:09:22Z</time>
      </trkpt>
      <trkpt lat="48.777344" lon="9.910332">
        <ele>586.4</ele>
        <time>2026-08-30T12:09:23Z</time>
      </trkpt>
      <trkpt lat="48.777341" lon="9.910312">
        <ele>586.6</ele>
        <time>2026-08-30T12:09:24Z</time>
      </trkpt>
      <trkpt lat="48.777343" lon="9.910293">
        <ele>586.8</ele>
        <time>2026-08-30T12:09:25Z</time>
      </trkpt>
      <trkpt lat="48.777342" lon="9.910263">
        <ele>587</ele>
        <time>2026-08-30T12:09:26Z</time>
      </trkpt>
      <trkpt lat="48.777346" lon="9.910236">
        <ele>587.2</ele>
        <time>2026-08-30T12:09:27Z</time>
      </trkpt>
      <trkpt lat="48.777349" lon="9.910216">
        <ele>587.4</ele>
        <time>2026-08-30T12:09:28Z</time>
      </trkpt>
      <trkpt lat="48.777351" lon="9.910191">
        <ele>587.4</ele>
        <time>2026-08-30T12:09:29Z</time>
      </trkpt>
      <trkpt lat="48.777353" lon="9.910178">
        <ele>587.6</ele>
        <time>2026-08-30T12:09:30Z</time>
      </trkpt>
      <trkpt lat="48.777353" lon="9.910168">
        <ele>587.8</ele>
        <time>2026-08-30T12:09:31Z</time>
      </trkpt>
      <trkpt lat="48.777354" lon="9.910152">
        <ele>588</ele>
        <time>2026-08-30T12:09:32Z</time>
      </trkpt>
      <trkpt lat="48.777356" lon="9.910135">
        <ele>588.2</ele>
        <time>2026-08-30T12:09:33Z</time>
      </trkpt>
      <trkpt lat="48.777360" lon="9.910109">
        <ele>588.4</ele>
        <time>2026-08-30T12:09:34Z</time>
      </trkpt>
      <trkpt lat="48.777360" lon="9.910083">
        <ele>588.6</ele>
        <time>2026-08-30T12:09:35Z</time>
      </trkpt>
      <trkpt lat="48.777359" lon="9.910064">
        <ele>588.8</ele>
        <time>2026-08-30T12:09:36Z</time>
      </trkpt>
      <trkpt lat="48.777358" lon="9.910041">
        <ele>589.2</ele>
        <time>2026-08-30T12:09:37Z</time>
      </trkpt>
      <trkpt lat="48.777360" lon="9.910017">
        <ele>589.2</ele>
        <time>2026-08-30T12:09:38Z</time>
      </trkpt>
      <trkpt lat="48.777361" lon="9.909997">
        <ele>589.4</ele>
        <time>2026-08-30T12:09:39Z</time>
      </trkpt>
      <trkpt lat="48.777362" lon="9.909982">
        <ele>589.6</ele>
        <time>2026-08-30T12:09:40Z</time>
      </trkpt>
      <trkpt lat="48.777362" lon="9.909964">
        <ele>589.8</ele>
        <time>2026-08-30T12:09:41Z</time>
      </trkpt>
      <trkpt lat="48.777367" lon="9.909936">
        <ele>590</ele>
        <time>2026-08-30T12:09:42Z</time>
      </trkpt>
      <trkpt lat="48.777369" lon="9.909913">
        <ele>590.2</ele>
        <time>2026-08-30T12:09:43Z</time>
      </trkpt>
      <trkpt lat="48.777373" lon="9.909892">
        <ele>590.4</ele>
        <time>2026-08-30T12:09:44Z</time>
      </trkpt>
      <trkpt lat="48.777377" lon="9.909869">
        <ele>590.4</ele>
        <time>2026-08-30T12:09:45Z</time>
      </trkpt>
      <trkpt lat="48.777382" lon="9.909856">
        <ele>590.6</ele>
        <time>2026-08-30T12:09:46Z</time>
      </trkpt>
      <trkpt lat="48.777387" lon="9.909831">
        <ele>590.8</ele>
        <time>2026-08-30T12:09:47Z</time>
      </trkpt>
      <trkpt lat="48.777389" lon="9.909813">
        <ele>591</ele>
        <time>2026-08-30T12:09:48Z</time>
      </trkpt>
      <trkpt lat="48.777392" lon="9.909794">
        <ele>591.2</ele>
        <time>2026-08-30T12:09:49Z</time>
      </trkpt>
      <trkpt lat="48.777391" lon="9.909772">
        <ele>591.4</ele>
        <time>2026-08-30T12:09:50Z</time>
      </trkpt>
      <trkpt lat="48.777395" lon="9.909757">
        <ele>591.6</ele>
        <time>2026-08-30T12:09:51Z</time>
      </trkpt>
      <trkpt lat="48.777397" lon="9.909740">
        <ele>591.8</ele>
        <time>2026-08-30T12:09:52Z</time>
      </trkpt>
      <trkpt lat="48.777399" lon="9.909710">
        <ele>591.8</ele>
        <time>2026-08-30T12:09:53Z</time>
      </trkpt>
      <trkpt lat="48.777401" lon="9.909697">
        <ele>592</ele>
        <time>2026-08-30T12:09:54Z</time>
      </trkpt>
      <trkpt lat="48.777401" lon="9.909677">
        <ele>592.2</ele>
        <time>2026-08-30T12:09:55Z</time>
      </trkpt>
      <trkpt lat="48.777403" lon="9.909653">
        <ele>592.4</ele>
        <time>2026-08-30T12:09:56Z</time>
      </trkpt>
      <trkpt lat="48.777403" lon="9.909637">
        <ele>592.6</ele>
        <time>2026-08-30T12:09:57Z</time>
      </trkpt>
      <trkpt lat="48.777398" lon="9.909623">
        <ele>592.8</ele>
        <time>2026-08-30T12:09:58Z</time>
      </trkpt>
      <trkpt lat="48.777396" lon="9.909610">
        <ele>593</ele>
        <time>2026-08-30T12:09:59Z</time>
      </trkpt>
      <trkpt lat="48.777396" lon="9.909592">
        <ele>593.2</ele>
        <time>2026-08-30T12:10:00Z</time>
      </trkpt>
      <trkpt lat="48.777397" lon="9.909571">
        <ele>593.4</ele>
        <time>2026-08-30T12:10:01Z</time>
      </trkpt>
      <trkpt lat="48.777397" lon="9.909547">
        <ele>593.6</ele>
        <time>2026-08-30T12:10:02Z</time>
      </trkpt>
      <trkpt lat="48.777394" lon="9.909527">
        <ele>593.8</ele>
        <time>2026-08-30T12:10:03Z</time>
      </trkpt>
      <trkpt lat="48.777397" lon="9.909516">
        <ele>594</ele>
        <time>2026-08-30T12:10:04Z</time>
      </trkpt>
      <trkpt lat="48.777395" lon="9.909506">
        <ele>594</ele>
        <time>2026-08-30T12:10:05Z</time>
      </trkpt>
      <trkpt lat="48.777394" lon="9.909483">
        <ele>594.2</ele>
        <time>2026-08-30T12:10:06Z</time>
      </trkpt>
      <trkpt lat="48.777397" lon="9.909457">
        <ele>594.4</ele>
        <time>2026-08-30T12:10:07Z</time>
      </trkpt>
      <trkpt lat="48.777400" lon="9.909432">
        <ele>594.6</ele>
        <time>2026-08-30T12:10:08Z</time>
      </trkpt>
      <trkpt lat="48.777396" lon="9.909417">
        <ele>594.8</ele>
        <time>2026-08-30T12:10:09Z</time>
      </trkpt>
      <trkpt lat="48.777393" lon="9.909407">
        <ele>595</ele>
        <time>2026-08-30T12:10:10Z</time>
      </trkpt>
      <trkpt lat="48.777395" lon="9.909383">
        <ele>595.2</ele>
        <time>2026-08-30T12:10:11Z</time>
      </trkpt>
      <trkpt lat="48.777394" lon="9.909366">
        <ele>595.2</ele>
        <time>2026-08-30T12:10:12Z</time>
      </trkpt>
      <trkpt lat="48.777394" lon="9.909347">
        <ele>595.6</ele>
        <time>2026-08-30T12:10:13Z</time>
      </trkpt>
      <trkpt lat="48.777397" lon="9.909326">
        <ele>595.6</ele>
        <time>2026-08-30T12:10:14Z</time>
      </trkpt>
      <trkpt lat="48.777396" lon="9.909309">
        <ele>595.8</ele>
        <time>2026-08-30T12:10:15Z</time>
      </trkpt>
      <trkpt lat="48.777393" lon="9.909293">
        <ele>596</ele>
        <time>2026-08-30T12:10:16Z</time>
      </trkpt>
      <trkpt lat="48.777393" lon="9.909273">
        <ele>596.2</ele>
        <time>2026-08-30T12:10:17Z</time>
      </trkpt>
      <trkpt lat="48.777393" lon="9.909263">
        <ele>596.4</ele>
        <time>2026-08-30T12:10:18Z</time>
      </trkpt>
      <trkpt lat="48.777391" lon="9.909253">
        <ele>596.6</ele>
        <time>2026-08-30T12:10:19Z</time>
      </trkpt>
      <trkpt lat="48.777392" lon="9.909229">
        <ele>596.8</ele>
        <time>2026-08-30T12:10:20Z</time>
      </trkpt>
      <trkpt lat="48.777394" lon="9.909210">
        <ele>597</ele>
        <time>2026-08-30T12:10:21Z</time>
      </trkpt>
      <trkpt lat="48.777398" lon="9.909188">
        <ele>597.2</ele>
        <time>2026-08-30T12:10:22Z</time>
      </trkpt>
      <trkpt lat="48.777403" lon="9.909167">
        <ele>597.4</ele>
        <time>2026-08-30T12:10:23Z</time>
      </trkpt>
      <trkpt lat="48.777403" lon="9.909148">
        <ele>597.6</ele>
        <time>2026-08-30T12:10:24Z</time>
      </trkpt>
      <trkpt lat="48.777402" lon="9.909138">
        <ele>597.8</ele>
        <time>2026-08-30T12:10:25Z</time>
      </trkpt>
      <trkpt lat="48.777401" lon="9.909120">
        <ele>597.8</ele>
        <time>2026-08-30T12:10:26Z</time>
      </trkpt>
      <trkpt lat="48.777403" lon="9.909108">
        <ele>598</ele>
        <time>2026-08-30T12:10:27Z</time>
      </trkpt>
      <trkpt lat="48.777403" lon="9.909091">
        <ele>598.2</ele>
        <time>2026-08-30T12:10:28Z</time>
      </trkpt>
      <trkpt lat="48.777403" lon="9.909070">
        <ele>598.4</ele>
        <time>2026-08-30T12:10:29Z</time>
      </trkpt>
      <trkpt lat="48.777403" lon="9.909053">
        <ele>598.6</ele>
        <time>2026-08-30T12:10:30Z</time>
      </trkpt>
      <trkpt lat="48.777404" lon="9.909039">
        <ele>598.8</ele>
        <time>2026-08-30T12:10:31Z</time>
      </trkpt>
      <trkpt lat="48.777408" lon="9.909023">
        <ele>599</ele>
        <time>2026-08-30T12:10:32Z</time>
      </trkpt>
      <trkpt lat="48.777405" lon="9.909005">
        <ele>599.2</ele>
        <time>2026-08-30T12:10:33Z</time>
      </trkpt>
      <trkpt lat="48.777402" lon="9.908988">
        <ele>599.4</ele>
        <time>2026-08-30T12:10:34Z</time>
      </trkpt>
      <trkpt lat="48.777404" lon="9.908971">
        <ele>599.6</ele>
        <time>2026-08-30T12:10:35Z</time>
      </trkpt>
      <trkpt lat="48.777407" lon="9.908952">
        <ele>599.8</ele>
        <time>2026-08-30T12:10:36Z</time>
      </trkpt>
      <trkpt lat="48.777404" lon="9.908933">
        <ele>600</ele>
        <time>2026-08-30T12:10:37Z</time>
      </trkpt>
      <trkpt lat="48.777402" lon="9.908917">
        <ele>600</ele>
        <time>2026-08-30T12:10:38Z</time>
      </trkpt>
      <trkpt lat="48.777400" lon="9.908902">
        <ele>600.2</ele>
        <time>2026-08-30T12:10:39Z</time>
      </trkpt>
      <trkpt lat="48.777398" lon="9.908889">
        <ele>600.4</ele>
        <time>2026-08-30T12:10:40Z</time>
      </trkpt>
      <trkpt lat="48.777403" lon="9.908874">
        <ele>600.6</ele>
        <time>2026-08-30T12:10:41Z</time>
      </trkpt>
      <trkpt lat="48.777404" lon="9.908858">
        <ele>600.8</ele>
        <time>2026-08-30T12:10:42Z</time>
      </trkpt>
      <trkpt lat="48.777405" lon="9.908841">
        <ele>601</ele>
        <time>2026-08-30T12:10:43Z</time>
      </trkpt>
      <trkpt lat="48.777404" lon="9.908819">
        <ele>601.2</ele>
        <time>2026-08-30T12:10:44Z</time>
      </trkpt>
      <trkpt lat="48.777403" lon="9.908801">
        <ele>601.2</ele>
        <time>2026-08-30T12:10:45Z</time>
      </trkpt>
      <trkpt lat="48.777402" lon="9.908783">
        <ele>601.4</ele>
        <time>2026-08-30T12:10:46Z</time>
      </trkpt>
      <trkpt lat="48.777402" lon="9.908770">
        <ele>601.6</ele>
        <time>2026-08-30T12:10:47Z</time>
      </trkpt>
      <trkpt lat="48.777399" lon="9.908750">
        <ele>601.8</ele>
        <time>2026-08-30T12:10:48Z</time>
      </trkpt>
      <trkpt lat="48.777395" lon="9.908737">
        <ele>602</ele>
        <time>2026-08-30T12:10:49Z</time>
      </trkpt>
      <trkpt lat="48.777394" lon="9.908721">
        <ele>602.2</ele>
        <time>2026-08-30T12:10:50Z</time>
      </trkpt>
      <trkpt lat="48.777393" lon="9.908705">
        <ele>602.4</ele>
        <time>2026-08-30T12:10:51Z</time>
      </trkpt>
      <trkpt lat="48.777392" lon="9.908691">
        <ele>602.6</ele>
        <time>2026-08-30T12:10:52Z</time>
      </trkpt>
      <trkpt lat="48.777391" lon="9.908672">
        <ele>602.8</ele>
        <time>2026-08-30T12:10:53Z</time>
      </trkpt>
      <trkpt lat="48.777390" lon="9.908653">
        <ele>603</ele>
        <time>2026-08-30T12:10:54Z</time>
      </trkpt>
      <trkpt lat="48.777389" lon="9.908634">
        <ele>603.2</ele>
        <time>2026-08-30T12:10:55Z</time>
      </trkpt>
      <trkpt lat="48.777390" lon="9.908618">
        <ele>603.4</ele>
        <time>2026-08-30T12:10:56Z</time>
      </trkpt>
      <trkpt lat="48.777392" lon="9.908602">
        <ele>603.6</ele>
        <time>2026-08-30T12:10:57Z</time>
      </trkpt>
      <trkpt lat="48.777391" lon="9.908588">
        <ele>603.6</ele>
        <time>2026-08-30T12:10:58Z</time>
      </trkpt>
      <trkpt lat="48.777391" lon="9.908566">
        <ele>603.8</ele>
        <time>2026-08-30T12:10:59Z</time>
      </trkpt>
      <trkpt lat="48.777392" lon="9.908548">
        <ele>604</ele>
        <time>2026-08-30T12:11:00Z</time>
      </trkpt>
      <trkpt lat="48.777393" lon="9.908528">
        <ele>604.2</ele>
        <time>2026-08-30T12:11:01Z</time>
      </trkpt>
      <trkpt lat="48.777390" lon="9.908506">
        <ele>604.4</ele>
        <time>2026-08-30T12:11:02Z</time>
      </trkpt>
      <trkpt lat="48.777388" lon="9.908496">
        <ele>604.6</ele>
        <time>2026-08-30T12:11:03Z</time>
      </trkpt>
      <trkpt lat="48.777390" lon="9.908483">
        <ele>604.8</ele>
        <time>2026-08-30T12:11:04Z</time>
      </trkpt>
      <trkpt lat="48.777390" lon="9.908467">
        <ele>605</ele>
        <time>2026-08-30T12:11:05Z</time>
      </trkpt>
      <trkpt lat="48.777392" lon="9.908448">
        <ele>605.2</ele>
        <time>2026-08-30T12:11:06Z</time>
      </trkpt>
      <trkpt lat="48.777393" lon="9.908428">
        <ele>605.4</ele>
        <time>2026-08-30T12:11:07Z</time>
      </trkpt>
      <trkpt lat="48.777392" lon="9.908415">
        <ele>605.4</ele>
        <time>2026-08-30T12:11:08Z</time>
      </trkpt>
      <trkpt lat="48.777392" lon="9.908403">
        <ele>605.6</ele>
        <time>2026-08-30T12:11:09Z</time>
      </trkpt>
      <trkpt lat="48.777390" lon="9.908390">
        <ele>605.8</ele>
        <time>2026-08-30T12:11:10Z</time>
      </trkpt>
      <trkpt lat="48.777390" lon="9.908371">
        <ele>606</ele>
        <time>2026-08-30T12:11:11Z</time>
      </trkpt>
      <trkpt lat="48.777389" lon="9.908359">
        <ele>606.2</ele>
        <time>2026-08-30T12:11:12Z</time>
      </trkpt>
      <trkpt lat="48.777386" lon="9.908337">
        <ele>606.4</ele>
        <time>2026-08-30T12:11:13Z</time>
      </trkpt>
      <trkpt lat="48.777388" lon="9.908318">
        <ele>606.6</ele>
        <time>2026-08-30T12:11:14Z</time>
      </trkpt>
      <trkpt lat="48.777385" lon="9.908304">
        <ele>606.6</ele>
        <time>2026-08-30T12:11:15Z</time>
      </trkpt>
      <trkpt lat="48.777382" lon="9.908294">
        <ele>606.8</ele>
        <time>2026-08-30T12:11:16Z</time>
      </trkpt>
      <trkpt lat="48.777383" lon="9.908278">
        <ele>607</ele>
        <time>2026-08-30T12:11:17Z</time>
      </trkpt>
      <trkpt lat="48.777383" lon="9.908257">
        <ele>607.2</ele>
        <time>2026-08-30T12:11:18Z</time>
      </trkpt>
      <trkpt lat="48.777382" lon="9.908248">
        <ele>607.4</ele>
        <time>2026-08-30T12:11:19Z</time>
      </trkpt>
      <trkpt lat="48.777382" lon="9.908225">
        <ele>607.6</ele>
        <time>2026-08-30T12:11:20Z</time>
      </trkpt>
      <trkpt lat="48.777381" lon="9.908210">
        <ele>607.8</ele>
        <time>2026-08-30T12:11:21Z</time>
      </trkpt>
      <trkpt lat="48.777382" lon="9.908198">
        <ele>608</ele>
        <time>2026-08-30T12:11:22Z</time>
      </trkpt>
      <trkpt lat="48.777382" lon="9.908184">
        <ele>608.2</ele>
        <time>2026-08-30T12:11:23Z</time>
      </trkpt>
      <trkpt lat="48.777384" lon="9.908166">
        <ele>608.4</ele>
        <time>2026-08-30T12:11:24Z</time>
      </trkpt>
      <trkpt lat="48.777385" lon="9.908147">
        <ele>608.6</ele>
        <time>2026-08-30T12:11:25Z</time>
      </trkpt>
      <trkpt lat="48.777385" lon="9.908120">
        <ele>608.8</ele>
        <time>2026-08-30T12:11:26Z</time>
      </trkpt>
      <trkpt lat="48.777383" lon="9.908102">
        <ele>609</ele>
        <time>2026-08-30T12:11:27Z</time>
      </trkpt>
      <trkpt lat="48.777380" lon="9.908089">
        <ele>609.2</ele>
        <time>2026-08-30T12:11:28Z</time>
      </trkpt>
      <trkpt lat="48.777377" lon="9.908074">
        <ele>609.4</ele>
        <time>2026-08-30T12:11:29Z</time>
      </trkpt>
      <trkpt lat="48.777377" lon="9.908053">
        <ele>609.6</ele>
        <time>2026-08-30T12:11:30Z</time>
      </trkpt>
      <trkpt lat="48.777379" lon="9.908030">
        <ele>609.8</ele>
        <time>2026-08-30T12:11:31Z</time>
      </trkpt>
      <trkpt lat="48.777379" lon="9.908006">
        <ele>610</ele>
        <time>2026-08-30T12:11:32Z</time>
      </trkpt>
      <trkpt lat="48.777379" lon="9.907994">
        <ele>610.2</ele>
        <time>2026-08-30T12:11:33Z</time>
      </trkpt>
      <trkpt lat="48.777378" lon="9.907976">
        <ele>610.4</ele>
        <time>2026-08-30T12:11:34Z</time>
      </trkpt>
      <trkpt lat="48.777377" lon="9.907956">
        <ele>610.8</ele>
        <time>2026-08-30T12:11:35Z</time>
      </trkpt>
      <trkpt lat="48.777376" lon="9.907939">
        <ele>611</ele>
        <time>2026-08-30T12:11:36Z</time>
      </trkpt>
      <trkpt lat="48.777377" lon="9.907924">
        <ele>611.2</ele>
        <time>2026-08-30T12:11:37Z</time>
      </trkpt>
      <trkpt lat="48.777379" lon="9.907910">
        <ele>611.4</ele>
        <time>2026-08-30T12:11:38Z</time>
      </trkpt>
      <trkpt lat="48.777381" lon="9.907892">
        <ele>611.6</ele>
        <time>2026-08-30T12:11:39Z</time>
      </trkpt>
      <trkpt lat="48.777380" lon="9.907876">
        <ele>611.8</ele>
        <time>2026-08-30T12:11:40Z</time>
      </trkpt>
      <trkpt lat="48.777379" lon="9.907860">
        <ele>612</ele>
        <time>2026-08-30T12:11:41Z</time>
      </trkpt>
      <trkpt lat="48.777380" lon="9.907846">
        <ele>612.2</ele>
        <time>2026-08-30T12:11:42Z</time>
      </trkpt>
      <trkpt lat="48.777384" lon="9.907833">
        <ele>612.4</ele>
        <time>2026-08-30T12:11:43Z</time>
      </trkpt>
      <trkpt lat="48.777388" lon="9.907820">
        <ele>612.8</ele>
        <time>2026-08-30T12:11:44Z</time>
      </trkpt>
      <trkpt lat="48.777386" lon="9.907805">
        <ele>613</ele>
        <time>2026-08-30T12:11:45Z</time>
      </trkpt>
      <trkpt lat="48.777388" lon="9.907792">
        <ele>613.2</ele>
        <time>2026-08-30T12:11:46Z</time>
      </trkpt>
      <trkpt lat="48.777387" lon="9.907771">
        <ele>613.4</ele>
        <time>2026-08-30T12:11:47Z</time>
      </trkpt>
      <trkpt lat="48.777389" lon="9.907764">
        <ele>613.6</ele>
        <time>2026-08-30T12:11:48Z</time>
      </trkpt>
      <trkpt lat="48.777387" lon="9.907748">
        <ele>613.8</ele>
        <time>2026-08-30T12:11:49Z</time>
      </trkpt>
      <trkpt lat="48.777386" lon="9.907726">
        <ele>614</ele>
        <time>2026-08-30T12:11:50Z</time>
      </trkpt>
      <trkpt lat="48.777387" lon="9.907710">
        <ele>614.2</ele>
        <time>2026-08-30T12:11:51Z</time>
      </trkpt>
      <trkpt lat="48.777387" lon="9.907692">
        <ele>614.4</ele>
        <time>2026-08-30T12:11:52Z</time>
      </trkpt>
      <trkpt lat="48.777389" lon="9.907667">
        <ele>614.6</ele>
        <time>2026-08-30T12:11:53Z</time>
      </trkpt>
      <trkpt lat="48.777390" lon="9.907645">
        <ele>614.8</ele>
        <time>2026-08-30T12:11:54Z</time>
      </trkpt>
      <trkpt lat="48.777391" lon="9.907628">
        <ele>615</ele>
        <time>2026-08-30T12:11:55Z</time>
      </trkpt>
      <trkpt lat="48.777391" lon="9.907611">
        <ele>615.2</ele>
        <time>2026-08-30T12:11:56Z</time>
      </trkpt>
      <trkpt lat="48.777391" lon="9.907599">
        <ele>615.4</ele>
        <time>2026-08-30T12:11:57Z</time>
      </trkpt>
      <trkpt lat="48.777396" lon="9.907579">
        <ele>615.6</ele>
        <time>2026-08-30T12:11:58Z</time>
      </trkpt>
      <trkpt lat="48.777394" lon="9.907570">
        <ele>615.8</ele>
        <time>2026-08-30T12:11:59Z</time>
      </trkpt>
      <trkpt lat="48.777396" lon="9.907553">
        <ele>616</ele>
        <time>2026-08-30T12:12:00Z</time>
      </trkpt>
      <trkpt lat="48.777394" lon="9.907543">
        <ele>616.4</ele>
        <time>2026-08-30T12:12:01Z</time>
      </trkpt>
      <trkpt lat="48.777393" lon="9.907533">
        <ele>616.6</ele>
        <time>2026-08-30T12:12:02Z</time>
      </trkpt>
      <trkpt lat="48.777395" lon="9.907516">
        <ele>616.8</ele>
        <time>2026-08-30T12:12:03Z</time>
      </trkpt>
      <trkpt lat="48.777397" lon="9.907501">
        <ele>617</ele>
        <time>2026-08-30T12:12:04Z</time>
      </trkpt>
      <trkpt lat="48.777399" lon="9.907490">
        <ele>617.2</ele>
        <time>2026-08-30T12:12:05Z</time>
      </trkpt>
      <trkpt lat="48.777400" lon="9.907476">
        <ele>617.4</ele>
        <time>2026-08-30T12:12:06Z</time>
      </trkpt>
      <trkpt lat="48.777401" lon="9.907461">
        <ele>617.6</ele>
        <time>2026-08-30T12:12:07Z</time>
      </trkpt>
      <trkpt lat="48.777402" lon="9.907436">
        <ele>617.8</ele>
        <time>2026-08-30T12:12:08Z</time>
      </trkpt>
      <trkpt lat="48.777400" lon="9.907420">
        <ele>617.8</ele>
        <time>2026-08-30T12:12:09Z</time>
      </trkpt>
      <trkpt lat="48.777397" lon="9.907406">
        <ele>618</ele>
        <time>2026-08-30T12:12:10Z</time>
      </trkpt>
      <trkpt lat="48.777398" lon="9.907392">
        <ele>618.2</ele>
        <time>2026-08-30T12:12:11Z</time>
      </trkpt>
      <trkpt lat="48.777400" lon="9.907381">
        <ele>618.4</ele>
        <time>2026-08-30T12:12:12Z</time>
      </trkpt>
      <trkpt lat="48.777400" lon="9.907369">
        <ele>618.6</ele>
        <time>2026-08-30T12:12:13Z</time>
      </trkpt>
      <trkpt lat="48.777400" lon="9.907345">
        <ele>618.8</ele>
        <time>2026-08-30T12:12:14Z</time>
      </trkpt>
      <trkpt lat="48.777397" lon="9.907328">
        <ele>619</ele>
        <time>2026-08-30T12:12:15Z</time>
      </trkpt>
      <trkpt lat="48.777398" lon="9.907312">
        <ele>619.4</ele>
        <time>2026-08-30T12:12:16Z</time>
      </trkpt>
      <trkpt lat="48.777396" lon="9.907296">
        <ele>619.6</ele>
        <time>2026-08-30T12:12:17Z</time>
      </trkpt>
      <trkpt lat="48.777396" lon="9.907277">
        <ele>619.8</ele>
        <time>2026-08-30T12:12:18Z</time>
      </trkpt>
      <trkpt lat="48.777395" lon="9.907260">
        <ele>620</ele>
        <time>2026-08-30T12:12:19Z</time>
      </trkpt>
      <trkpt lat="48.777396" lon="9.907236">
        <ele>620.2</ele>
        <time>2026-08-30T12:12:20Z</time>
      </trkpt>
      <trkpt lat="48.777396" lon="9.907211">
        <ele>620.4</ele>
        <time>2026-08-30T12:12:21Z</time>
      </trkpt>
      <trkpt lat="48.777398" lon="9.907191">
        <ele>620.6</ele>
        <time>2026-08-30T12:12:22Z</time>
      </trkpt>
      <trkpt lat="48.777399" lon="9.907174">
        <ele>620.6</ele>
        <time>2026-08-30T12:12:23Z</time>
      </trkpt>
      <trkpt lat="48.777397" lon="9.907156">
        <ele>620.8</ele>
        <time>2026-08-30T12:12:24Z</time>
      </trkpt>
      <trkpt lat="48.777399" lon="9.907145">
        <ele>621</ele>
        <time>2026-08-30T12:12:25Z</time>
      </trkpt>
      <trkpt lat="48.777396" lon="9.907128">
        <ele>621.2</ele>
        <time>2026-08-30T12:12:26Z</time>
      </trkpt>
      <trkpt lat="48.777393" lon="9.907112">
        <ele>621.4</ele>
        <time>2026-08-30T12:12:27Z</time>
      </trkpt>
      <trkpt lat="48.777394" lon="9.907093">
        <ele>621.6</ele>
        <time>2026-08-30T12:12:28Z</time>
      </trkpt>
      <trkpt lat="48.777393" lon="9.907071">
        <ele>621.8</ele>
        <time>2026-08-30T12:12:29Z</time>
      </trkpt>
      <trkpt lat="48.777390" lon="9.907054">
        <ele>622</ele>
        <time>2026-08-30T12:12:30Z</time>
      </trkpt>
      <trkpt lat="48.777381" lon="9.907044">
        <ele>622.2</ele>
        <time>2026-08-30T12:12:31Z</time>
      </trkpt>
      <trkpt lat="48.777372" lon="9.907033">
        <ele>622.4</ele>
        <time>2026-08-30T12:12:32Z</time>
      </trkpt>
      <trkpt lat="48.777361" lon="9.907022">
        <ele>622.6</ele>
        <time>2026-08-30T12:12:33Z</time>
      </trkpt>
      <trkpt lat="48.777349" lon="9.907010">
        <ele>622.6</ele>
        <time>2026-08-30T12:12:34Z</time>
      </trkpt>
      <trkpt lat="48.777339" lon="9.907001">
        <ele>622.8</ele>
        <time>2026-08-30T12:12:35Z</time>
      </trkpt>
      <trkpt lat="48.777322" lon="9.906996">
        <ele>623</ele>
        <time>2026-08-30T12:12:36Z</time>
      </trkpt>
      <trkpt lat="48.777309" lon="9.906991">
        <ele>623.2</ele>
        <time>2026-08-30T12:12:37Z</time>
      </trkpt>
      <trkpt lat="48.777294" lon="9.906987">
        <ele>623.4</ele>
        <time>2026-08-30T12:12:38Z</time>
      </trkpt>
      <trkpt lat="48.777282" lon="9.906980">
        <ele>623.6</ele>
        <time>2026-08-30T12:12:39Z</time>
      </trkpt>
      <trkpt lat="48.777270" lon="9.906976">
        <ele>623.8</ele>
        <time>2026-08-30T12:12:40Z</time>
      </trkpt>
      <trkpt lat="48.777259" lon="9.906976">
        <ele>624</ele>
        <time>2026-08-30T12:12:41Z</time>
      </trkpt>
      <trkpt lat="48.777243" lon="9.906981">
        <ele>624.2</ele>
        <time>2026-08-30T12:12:42Z</time>
      </trkpt>
      <trkpt lat="48.777226" lon="9.906989">
        <ele>624.2</ele>
        <time>2026-08-30T12:12:43Z</time>
      </trkpt>
      <trkpt lat="48.777208" lon="9.906996">
        <ele>624.4</ele>
        <time>2026-08-30T12:12:44Z</time>
      </trkpt>
      <trkpt lat="48.777193" lon="9.907002">
        <ele>624.6</ele>
        <time>2026-08-30T12:12:45Z</time>
      </trkpt>
      <trkpt lat="48.777181" lon="9.907014">
        <ele>624.8</ele>
        <time>2026-08-30T12:12:46Z</time>
      </trkpt>
      <trkpt lat="48.777181" lon="9.907021">
        <ele>625</ele>
        <time>2026-08-30T12:12:47Z</time>
      </trkpt>
      <trkpt lat="48.777178" lon="9.907031">
        <ele>625</ele>
        <time>2026-08-30T12:12:48Z</time>
      </trkpt>
      <trkpt lat="48.777173" lon="9.907037">
        <ele>625.2</ele>
        <time>2026-08-30T12:12:49Z</time>
      </trkpt>
      <trkpt lat="48.777163" lon="9.907056">
        <ele>625.2</ele>
        <time>2026-08-30T12:12:50Z</time>
      </trkpt>
      <trkpt lat="48.777148" lon="9.907083">
        <ele>625.4</ele>
        <time>2026-08-30T12:12:51Z</time>
      </trkpt>
      <trkpt lat="48.777136" lon="9.907102">
        <ele>625.6</ele>
        <time>2026-08-30T12:12:52Z</time>
      </trkpt>
      <trkpt lat="48.777122" lon="9.907113">
        <ele>625.6</ele>
        <time>2026-08-30T12:12:53Z</time>
      </trkpt>
      <trkpt lat="48.777105" lon="9.907126">
        <ele>625.8</ele>
        <time>2026-08-30T12:12:54Z</time>
      </trkpt>
      <trkpt lat="48.777093" lon="9.907137">
        <ele>626</ele>
        <time>2026-08-30T12:12:55Z</time>
      </trkpt>
      <trkpt lat="48.777081" lon="9.907150">
        <ele>626</ele>
        <time>2026-08-30T12:12:56Z</time>
      </trkpt>
      <trkpt lat="48.777071" lon="9.907168">
        <ele>626.2</ele>
        <time>2026-08-30T12:12:57Z</time>
      </trkpt>
      <trkpt lat="48.777054" lon="9.907182">
        <ele>626.4</ele>
        <time>2026-08-30T12:12:58Z</time>
      </trkpt>
      <trkpt lat="48.777040" lon="9.907196">
        <ele>626.6</ele>
        <time>2026-08-30T12:12:59Z</time>
      </trkpt>
      <trkpt lat="48.777033" lon="9.907212">
        <ele>626.8</ele>
        <time>2026-08-30T12:13:00Z</time>
      </trkpt>
      <trkpt lat="48.777023" lon="9.907221">
        <ele>626.8</ele>
        <time>2026-08-30T12:13:01Z</time>
      </trkpt>
      <trkpt lat="48.777011" lon="9.907236">
        <ele>627</ele>
        <time>2026-08-30T12:13:02Z</time>
      </trkpt>
      <trkpt lat="48.776994" lon="9.907251">
        <ele>627.2</ele>
        <time>2026-08-30T12:13:03Z</time>
      </trkpt>
      <trkpt lat="48.776976" lon="9.907267">
        <ele>627.4</ele>
        <time>2026-08-30T12:13:04Z</time>
      </trkpt>
      <trkpt lat="48.776959" lon="9.907283">
        <ele>627.6</ele>
        <time>2026-08-30T12:13:05Z</time>
      </trkpt>
      <trkpt lat="48.776948" lon="9.907295">
        <ele>627.6</ele>
        <time>2026-08-30T12:13:06Z</time>
      </trkpt>
      <trkpt lat="48.776939" lon="9.907308">
        <ele>627.8</ele>
        <time>2026-08-30T12:13:07Z</time>
      </trkpt>
      <trkpt lat="48.776929" lon="9.907317">
        <ele>628</ele>
        <time>2026-08-30T12:13:08Z</time>
      </trkpt>
      <trkpt lat="48.776920" lon="9.907323">
        <ele>628.2</ele>
        <time>2026-08-30T12:13:09Z</time>
      </trkpt>
      <trkpt lat="48.776910" lon="9.907335">
        <ele>628.4</ele>
        <time>2026-08-30T12:13:10Z</time>
      </trkpt>
      <trkpt lat="48.776897" lon="9.907350">
        <ele>628.6</ele>
        <time>2026-08-30T12:13:11Z</time>
      </trkpt>
      <trkpt lat="48.776887" lon="9.907367">
        <ele>628.8</ele>
        <time>2026-08-30T12:13:12Z</time>
      </trkpt>
      <trkpt lat="48.776876" lon="9.907384">
        <ele>629</ele>
        <time>2026-08-30T12:13:13Z</time>
      </trkpt>
      <trkpt lat="48.776860" lon="9.907402">
        <ele>629.2</ele>
        <time>2026-08-30T12:13:14Z</time>
      </trkpt>
      <trkpt lat="48.776846" lon="9.907411">
        <ele>629.2</ele>
        <time>2026-08-30T12:13:15Z</time>
      </trkpt>
      <trkpt lat="48.776836" lon="9.907415">
        <ele>629.4</ele>
        <time>2026-08-30T12:13:16Z</time>
      </trkpt>
      <trkpt lat="48.776826" lon="9.907422">
        <ele>629.6</ele>
        <time>2026-08-30T12:13:17Z</time>
      </trkpt>
      <trkpt lat="48.776814" lon="9.907429">
        <ele>629.8</ele>
        <time>2026-08-30T12:13:18Z</time>
      </trkpt>
      <trkpt lat="48.776803" lon="9.907439">
        <ele>630</ele>
        <time>2026-08-30T12:13:19Z</time>
      </trkpt>
      <trkpt lat="48.776791" lon="9.907452">
        <ele>630</ele>
        <time>2026-08-30T12:13:20Z</time>
      </trkpt>
      <trkpt lat="48.776782" lon="9.907468">
        <ele>630.2</ele>
        <time>2026-08-30T12:13:21Z</time>
      </trkpt>
      <trkpt lat="48.776772" lon="9.907480">
        <ele>630.4</ele>
        <time>2026-08-30T12:13:22Z</time>
      </trkpt>
      <trkpt lat="48.776763" lon="9.907492">
        <ele>630.6</ele>
        <time>2026-08-30T12:13:23Z</time>
      </trkpt>
      <trkpt lat="48.776753" lon="9.907503">
        <ele>630.6</ele>
        <time>2026-08-30T12:13:24Z</time>
      </trkpt>
      <trkpt lat="48.776745" lon="9.907518">
        <ele>630.8</ele>
        <time>2026-08-30T12:13:25Z</time>
      </trkpt>
      <trkpt lat="48.776735" lon="9.907530">
        <ele>631</ele>
        <time>2026-08-30T12:13:26Z</time>
      </trkpt>
      <trkpt lat="48.776727" lon="9.907538">
        <ele>631.2</ele>
        <time>2026-08-30T12:13:27Z</time>
      </trkpt>
      <trkpt lat="48.776718" lon="9.907550">
        <ele>631.4</ele>
        <time>2026-08-30T12:13:28Z</time>
      </trkpt>
      <trkpt lat="48.776707" lon="9.907552">
        <ele>631.4</ele>
        <time>2026-08-30T12:13:29Z</time>
      </trkpt>
      <trkpt lat="48.776697" lon="9.907558">
        <ele>631.6</ele>
        <time>2026-08-30T12:13:30Z</time>
      </trkpt>
      <trkpt lat="48.776687" lon="9.907571">
        <ele>631.8</ele>
        <time>2026-08-30T12:13:31Z</time>
      </trkpt>
      <trkpt lat="48.776677" lon="9.907576">
        <ele>632</ele>
        <time>2026-08-30T12:13:32Z</time>
      </trkpt>
      <trkpt lat="48.776666" lon="9.907582">
        <ele>632</ele>
        <time>2026-08-30T12:13:33Z</time>
      </trkpt>
      <trkpt lat="48.776654" lon="9.907586">
        <ele>632.2</ele>
        <time>2026-08-30T12:13:34Z</time>
      </trkpt>
      <trkpt lat="48.776638" lon="9.907594">
        <ele>632.4</ele>
        <time>2026-08-30T12:13:35Z</time>
      </trkpt>
      <trkpt lat="48.776625" lon="9.907601">
        <ele>632.6</ele>
        <time>2026-08-30T12:13:36Z</time>
      </trkpt>
      <trkpt lat="48.776612" lon="9.907608">
        <ele>632.8</ele>
        <time>2026-08-30T12:13:37Z</time>
      </trkpt>
      <trkpt lat="48.776604" lon="9.907611">
        <ele>633</ele>
        <time>2026-08-30T12:13:38Z</time>
      </trkpt>
      <trkpt lat="48.776594" lon="9.907610">
        <ele>633.2</ele>
        <time>2026-08-30T12:13:39Z</time>
      </trkpt>
      <trkpt lat="48.776582" lon="9.907607">
        <ele>633.4</ele>
        <time>2026-08-30T12:13:40Z</time>
      </trkpt>
      <trkpt lat="48.776569" lon="9.907598">
        <ele>633.6</ele>
        <time>2026-08-30T12:13:41Z</time>
      </trkpt>
      <trkpt lat="48.776554" lon="9.907586">
        <ele>633.8</ele>
        <time>2026-08-30T12:13:42Z</time>
      </trkpt>
      <trkpt lat="48.776546" lon="9.907576">
        <ele>634</ele>
        <time>2026-08-30T12:13:43Z</time>
      </trkpt>
      <trkpt lat="48.776538" lon="9.907566">
        <ele>634.2</ele>
        <time>2026-08-30T12:13:44Z</time>
      </trkpt>
      <trkpt lat="48.776525" lon="9.907557">
        <ele>634.4</ele>
        <time>2026-08-30T12:13:45Z</time>
      </trkpt>
      <trkpt lat="48.776517" lon="9.907544">
        <ele>634.6</ele>
        <time>2026-08-30T12:13:46Z</time>
      </trkpt>
      <trkpt lat="48.776515" lon="9.907530">
        <ele>634.8</ele>
        <time>2026-08-30T12:13:47Z</time>
      </trkpt>
      <trkpt lat="48.776518" lon="9.907511">
        <ele>635</ele>
        <time>2026-08-30T12:13:48Z</time>
      </trkpt>
      <trkpt lat="48.776521" lon="9.907490">
        <ele>635.2</ele>
        <time>2026-08-30T12:13:49Z</time>
      </trkpt>
      <trkpt lat="48.776524" lon="9.907475">
        <ele>635.4</ele>
        <time>2026-08-30T12:13:50Z</time>
      </trkpt>
      <trkpt lat="48.776525" lon="9.907452">
        <ele>635.4</ele>
        <time>2026-08-30T12:13:51Z</time>
      </trkpt>
      <trkpt lat="48.776525" lon="9.907432">
        <ele>635.6</ele>
        <time>2026-08-30T12:13:52Z</time>
      </trkpt>
      <trkpt lat="48.776524" lon="9.907413">
        <ele>635.8</ele>
        <time>2026-08-30T12:13:53Z</time>
      </trkpt>
      <trkpt lat="48.776529" lon="9.907399">
        <ele>636</ele>
        <time>2026-08-30T12:13:54Z</time>
      </trkpt>
      <trkpt lat="48.776533" lon="9.907385">
        <ele>636.2</ele>
        <time>2026-08-30T12:13:55Z</time>
      </trkpt>
      <trkpt lat="48.776527" lon="9.907375">
        <ele>636.2</ele>
        <time>2026-08-30T12:13:56Z</time>
      </trkpt>
      <trkpt lat="48.776527" lon="9.907353">
        <ele>636.4</ele>
        <time>2026-08-30T12:13:57Z</time>
      </trkpt>
      <trkpt lat="48.776528" lon="9.907335">
        <ele>636.6</ele>
        <time>2026-08-30T12:13:58Z</time>
      </trkpt>
      <trkpt lat="48.776532" lon="9.907314">
        <ele>636.8</ele>
        <time>2026-08-30T12:13:59Z</time>
      </trkpt>
      <trkpt lat="48.776535" lon="9.907287">
        <ele>636.8</ele>
        <time>2026-08-30T12:14:00Z</time>
      </trkpt>
      <trkpt lat="48.776536" lon="9.907264">
        <ele>637</ele>
        <time>2026-08-30T12:14:01Z</time>
      </trkpt>
      <trkpt lat="48.776542" lon="9.907242">
        <ele>637.2</ele>
        <time>2026-08-30T12:14:02Z</time>
      </trkpt>
      <trkpt lat="48.776547" lon="9.907220">
        <ele>637.4</ele>
        <time>2026-08-30T12:14:03Z</time>
      </trkpt>
      <trkpt lat="48.776551" lon="9.907199">
        <ele>637.6</ele>
        <time>2026-08-30T12:14:04Z</time>
      </trkpt>
      <trkpt lat="48.776557" lon="9.907178">
        <ele>637.6</ele>
        <time>2026-08-30T12:14:05Z</time>
      </trkpt>
      <trkpt lat="48.776564" lon="9.907157">
        <ele>637.8</ele>
        <time>2026-08-30T12:14:06Z</time>
      </trkpt>
      <trkpt lat="48.776572" lon="9.907136">
        <ele>637.8</ele>
        <time>2026-08-30T12:14:07Z</time>
      </trkpt>
      <trkpt lat="48.776578" lon="9.907117">
        <ele>638</ele>
        <time>2026-08-30T12:14:08Z</time>
      </trkpt>
      <trkpt lat="48.776583" lon="9.907105">
        <ele>638.2</ele>
        <time>2026-08-30T12:14:09Z</time>
      </trkpt>
      <trkpt lat="48.776590" lon="9.907088">
        <ele>638.2</ele>
        <time>2026-08-30T12:14:10Z</time>
      </trkpt>
      <trkpt lat="48.776598" lon="9.907069">
        <ele>638.4</ele>
        <time>2026-08-30T12:14:11Z</time>
      </trkpt>
      <trkpt lat="48.776605" lon="9.907053">
        <ele>638.6</ele>
        <time>2026-08-30T12:14:12Z</time>
      </trkpt>
      <trkpt lat="48.776611" lon="9.907037">
        <ele>638.6</ele>
        <time>2026-08-30T12:14:13Z</time>
      </trkpt>
      <trkpt lat="48.776618" lon="9.907018">
        <ele>638.8</ele>
        <time>2026-08-30T12:14:14Z</time>
      </trkpt>
      <trkpt lat="48.776626" lon="9.906997">
        <ele>639</ele>
        <time>2026-08-30T12:14:15Z</time>
      </trkpt>
      <trkpt lat="48.776633" lon="9.906976">
        <ele>639</ele>
        <time>2026-08-30T12:14:16Z</time>
      </trkpt>
      <trkpt lat="48.776641" lon="9.906955">
        <ele>639.2</ele>
        <time>2026-08-30T12:14:17Z</time>
      </trkpt>
      <trkpt lat="48.776649" lon="9.906931">
        <ele>639.4</ele>
        <time>2026-08-30T12:14:18Z</time>
      </trkpt>
      <trkpt lat="48.776655" lon="9.906914">
        <ele>639.4</ele>
        <time>2026-08-30T12:14:19Z</time>
      </trkpt>
      <trkpt lat="48.776660" lon="9.906893">
        <ele>639.6</ele>
        <time>2026-08-30T12:14:20Z</time>
      </trkpt>
      <trkpt lat="48.776663" lon="9.906879">
        <ele>639.8</ele>
        <time>2026-08-30T12:14:21Z</time>
      </trkpt>
      <trkpt lat="48.776668" lon="9.906860">
        <ele>639.8</ele>
        <time>2026-08-30T12:14:22Z</time>
      </trkpt>
      <trkpt lat="48.776672" lon="9.906836">
        <ele>640</ele>
        <time>2026-08-30T12:14:23Z</time>
      </trkpt>
      <trkpt lat="48.776677" lon="9.906810">
        <ele>640.2</ele>
        <time>2026-08-30T12:14:24Z</time>
      </trkpt>
      <trkpt lat="48.776683" lon="9.906790">
        <ele>640.2</ele>
        <time>2026-08-30T12:14:25Z</time>
      </trkpt>
      <trkpt lat="48.776688" lon="9.906770">
        <ele>640.4</ele>
        <time>2026-08-30T12:14:26Z</time>
      </trkpt>
      <trkpt lat="48.776693" lon="9.906755">
        <ele>640.4</ele>
        <time>2026-08-30T12:14:27Z</time>
      </trkpt>
      <trkpt lat="48.776698" lon="9.906736">
        <ele>640.6</ele>
        <time>2026-08-30T12:14:28Z</time>
      </trkpt>
      <trkpt lat="48.776704" lon="9.906716">
        <ele>640.8</ele>
        <time>2026-08-30T12:14:29Z</time>
      </trkpt>
      <trkpt lat="48.776710" lon="9.906706">
        <ele>640.8</ele>
        <time>2026-08-30T12:14:30Z</time>
      </trkpt>
      <trkpt lat="48.776718" lon="9.906687">
        <ele>641</ele>
        <time>2026-08-30T12:14:31Z</time>
      </trkpt>
      <trkpt lat="48.776724" lon="9.906661">
        <ele>641.2</ele>
        <time>2026-08-30T12:14:32Z</time>
      </trkpt>
      <trkpt lat="48.776732" lon="9.906642">
        <ele>641.2</ele>
        <time>2026-08-30T12:14:33Z</time>
      </trkpt>
      <trkpt lat="48.776738" lon="9.906623">
        <ele>641.4</ele>
        <time>2026-08-30T12:14:34Z</time>
      </trkpt>
      <trkpt lat="48.776748" lon="9.906596">
        <ele>641.4</ele>
        <time>2026-08-30T12:14:35Z</time>
      </trkpt>
      <trkpt lat="48.776752" lon="9.906579">
        <ele>641.6</ele>
        <time>2026-08-30T12:14:36Z</time>
      </trkpt>
      <trkpt lat="48.776761" lon="9.906558">
        <ele>641.8</ele>
        <time>2026-08-30T12:14:37Z</time>
      </trkpt>
      <trkpt lat="48.776771" lon="9.906533">
        <ele>642</ele>
        <time>2026-08-30T12:14:38Z</time>
      </trkpt>
      <trkpt lat="48.776777" lon="9.906507">
        <ele>642</ele>
        <time>2026-08-30T12:14:39Z</time>
      </trkpt>
      <trkpt lat="48.776783" lon="9.906483">
        <ele>642.2</ele>
        <time>2026-08-30T12:14:40Z</time>
      </trkpt>
      <trkpt lat="48.776790" lon="9.906449">
        <ele>642.4</ele>
        <time>2026-08-30T12:14:41Z</time>
      </trkpt>
      <trkpt lat="48.776799" lon="9.906426">
        <ele>642.4</ele>
        <time>2026-08-30T12:14:42Z</time>
      </trkpt>
      <trkpt lat="48.776807" lon="9.906406">
        <ele>642.6</ele>
        <time>2026-08-30T12:14:43Z</time>
      </trkpt>
      <trkpt lat="48.776817" lon="9.906380">
        <ele>642.6</ele>
        <time>2026-08-30T12:14:44Z</time>
      </trkpt>
      <trkpt lat="48.776829" lon="9.906352">
        <ele>642.8</ele>
        <time>2026-08-30T12:14:45Z</time>
      </trkpt>
      <trkpt lat="48.776839" lon="9.906324">
        <ele>643</ele>
        <time>2026-08-30T12:14:46Z</time>
      </trkpt>
      <trkpt lat="48.776850" lon="9.906300">
        <ele>643</ele>
        <time>2026-08-30T12:14:47Z</time>
      </trkpt>
      <trkpt lat="48.776860" lon="9.906278">
        <ele>643.2</ele>
        <time>2026-08-30T12:14:48Z</time>
      </trkpt>
      <trkpt lat="48.776871" lon="9.906258">
        <ele>643.2</ele>
        <time>2026-08-30T12:14:49Z</time>
      </trkpt>
      <trkpt lat="48.776884" lon="9.906227">
        <ele>643.4</ele>
        <time>2026-08-30T12:14:50Z</time>
      </trkpt>
      <trkpt lat="48.776902" lon="9.906201">
        <ele>643.4</ele>
        <time>2026-08-30T12:14:51Z</time>
      </trkpt>
      <trkpt lat="48.776919" lon="9.906179">
        <ele>643.6</ele>
        <time>2026-08-30T12:14:52Z</time>
      </trkpt>
      <trkpt lat="48.776934" lon="9.906154">
        <ele>643.6</ele>
        <time>2026-08-30T12:14:53Z</time>
      </trkpt>
      <trkpt lat="48.776953" lon="9.906131">
        <ele>643.8</ele>
        <time>2026-08-30T12:14:54Z</time>
      </trkpt>
      <trkpt lat="48.776963" lon="9.906108">
        <ele>643.8</ele>
        <time>2026-08-30T12:14:55Z</time>
      </trkpt>
      <trkpt lat="48.776972" lon="9.906093">
        <ele>644</ele>
        <time>2026-08-30T12:14:56Z</time>
      </trkpt>
      <trkpt lat="48.776981" lon="9.906077">
        <ele>644</ele>
        <time>2026-08-30T12:14:57Z</time>
      </trkpt>
      <trkpt lat="48.776991" lon="9.906067">
        <ele>644.2</ele>
        <time>2026-08-30T12:14:58Z</time>
      </trkpt>
      <trkpt lat="48.777006" lon="9.906042">
        <ele>644.2</ele>
        <time>2026-08-30T12:14:59Z</time>
      </trkpt>
      <trkpt lat="48.777019" lon="9.906034">
        <ele>644.4</ele>
        <time>2026-08-30T12:15:00Z</time>
      </trkpt>
      <trkpt lat="48.777032" lon="9.906023">
        <ele>644.4</ele>
        <time>2026-08-30T12:15:01Z</time>
      </trkpt>
      <trkpt lat="48.777042" lon="9.906005">
        <ele>644.4</ele>
        <time>2026-08-30T12:15:02Z</time>
      </trkpt>
      <trkpt lat="48.777055" lon="9.905985">
        <ele>644.6</ele>
        <time>2026-08-30T12:15:03Z</time>
      </trkpt>
      <trkpt lat="48.777066" lon="9.905966">
        <ele>644.6</ele>
        <time>2026-08-30T12:15:04Z</time>
      </trkpt>
      <trkpt lat="48.777081" lon="9.905942">
        <ele>644.6</ele>
        <time>2026-08-30T12:15:05Z</time>
      </trkpt>
      <trkpt lat="48.777095" lon="9.905924">
        <ele>644.6</ele>
        <time>2026-08-30T12:15:06Z</time>
      </trkpt>
      <trkpt lat="48.777112" lon="9.905901">
        <ele>644.6</ele>
        <time>2026-08-30T12:15:07Z</time>
      </trkpt>
      <trkpt lat="48.777120" lon="9.905894">
        <ele>644.6</ele>
        <time>2026-08-30T12:15:08Z</time>
      </trkpt>
      <trkpt lat="48.777128" lon="9.905884">
        <ele>644.6</ele>
        <time>2026-08-30T12:15:09Z</time>
      </trkpt>
      <trkpt lat="48.777143" lon="9.905865">
        <ele>644.6</ele>
        <time>2026-08-30T12:15:10Z</time>
      </trkpt>
      <trkpt lat="48.777153" lon="9.905854">
        <ele>644.8</ele>
        <time>2026-08-30T12:15:11Z</time>
      </trkpt>
      <trkpt lat="48.777165" lon="9.905838">
        <ele>644.8</ele>
        <time>2026-08-30T12:15:12Z</time>
      </trkpt>
      <trkpt lat="48.777177" lon="9.905829">
        <ele>644.8</ele>
        <time>2026-08-30T12:15:13Z</time>
      </trkpt>
      <trkpt lat="48.777185" lon="9.905820">
        <ele>644.8</ele>
        <time>2026-08-30T12:15:14Z</time>
      </trkpt>
      <trkpt lat="48.777193" lon="9.905812">
        <ele>644.8</ele>
        <time>2026-08-30T12:15:15Z</time>
      </trkpt>
      <trkpt lat="48.777196" lon="9.905810">
        <ele>644.8</ele>
        <time>2026-08-30T12:15:16Z</time>
      </trkpt>
      <trkpt lat="48.777198" lon="9.905810">
        <ele>644.8</ele>
        <time>2026-08-30T12:15:17Z</time>
      </trkpt>
      <trkpt lat="48.777198" lon="9.905810">
        <ele>644.8</ele>
        <time>2026-08-30T12:15:18Z</time>
      </trkpt>
      <trkpt lat="48.777198" lon="9.905810">
        <ele>645</ele>
        <time>2026-08-30T12:15:19Z</time>
      </trkpt>
      <trkpt lat="48.777198" lon="9.905810">
        <ele>645</ele>
        <time>2026-08-30T12:15:20Z</time>
      </trkpt>
      <trkpt lat="48.777198" lon="9.905810">
        <ele>645</ele>
        <time>2026-08-30T12:15:21Z</time>
      </trkpt>
      <trkpt lat="48.777198" lon="9.905810">
        <ele>645</ele>
        <time>2026-08-30T12:15:22Z</time>
      </trkpt>
      <trkpt lat="48.777198" lon="9.905810">
        <ele>645</ele>
        <time>2026-08-30T12:15:23Z</time>
      </trkpt>
      <trkpt lat="48.777198" lon="9.905810">
        <ele>645</ele>
        <time>2026-08-30T12:15:24Z</time>
      </trkpt>
      <trkpt lat="48.777198" lon="9.905810">
        <ele>645</ele>
        <time>2026-08-30T12:15:25Z</time>
      </trkpt>
      <trkpt lat="48.777198" lon="9.905810">
        <ele>645</ele>
        <time>2026-08-30T12:15:26Z</time>
      </trkpt>
      <trkpt lat="48.777198" lon="9.905810">
        <ele>645</ele>
        <time>2026-08-30T12:15:27Z</time>
      </trkpt>
      <trkpt lat="48.777198" lon="9.905810">
        <ele>645</ele>
        <time>2026-08-30T12:15:28Z</time>
      </trkpt>
      <trkpt lat="48.777198" lon="9.905810">
        <ele>645</ele>
        <time>2026-08-30T12:15:29Z</time>
      </trkpt>
      <trkpt lat="48.777198" lon="9.905810">
        <ele>645</ele>
        <time>2026-08-30T12:15:30Z</time>
      </trkpt>
      <trkpt lat="48.777198" lon="9.905810">
        <ele>644.8</ele>
        <time>2026-08-30T12:15:31Z</time>
      </trkpt>
      <trkpt lat="48.777198" lon="9.905810">
        <ele>644.8</ele>
        <time>2026-08-30T12:15:32Z</time>
      </trkpt>
      <trkpt lat="48.777205" lon="9.905814">
        <ele>644.8</ele>
        <time>2026-08-30T12:15:33Z</time>
      </trkpt>
      <trkpt lat="48.777217" lon="9.905816">
        <ele>644.8</ele>
        <time>2026-08-30T12:15:34Z</time>
      </trkpt>
      <trkpt lat="48.777230" lon="9.905806">
        <ele>644.8</ele>
        <time>2026-08-30T12:15:35Z</time>
      </trkpt>
      <trkpt lat="48.777240" lon="9.905800">
        <ele>644.8</ele>
        <time>2026-08-30T12:15:36Z</time>
      </trkpt>
      <trkpt lat="48.777252" lon="9.905787">
        <ele>644.8</ele>
        <time>2026-08-30T12:15:37Z</time>
      </trkpt>
      <trkpt lat="48.777265" lon="9.905779">
        <ele>644.8</ele>
        <time>2026-08-30T12:15:38Z</time>
      </trkpt>
      <trkpt lat="48.777281" lon="9.905767">
        <ele>644.8</ele>
        <time>2026-08-30T12:15:39Z</time>
      </trkpt>
      <trkpt lat="48.777296" lon="9.905754">
        <ele>644.8</ele>
        <time>2026-08-30T12:15:40Z</time>
      </trkpt>
      <trkpt lat="48.777309" lon="9.905749">
        <ele>644.8</ele>
        <time>2026-08-30T12:15:41Z</time>
      </trkpt>
      <trkpt lat="48.777320" lon="9.905743">
        <ele>644.8</ele>
        <time>2026-08-30T12:15:42Z</time>
      </trkpt>
      <trkpt lat="48.777332" lon="9.905734">
        <ele>645</ele>
        <time>2026-08-30T12:15:43Z</time>
      </trkpt>
      <trkpt lat="48.777341" lon="9.905724">
        <ele>645</ele>
        <time>2026-08-30T12:15:44Z</time>
      </trkpt>
      <trkpt lat="48.777351" lon="9.905721">
        <ele>645.2</ele>
        <time>2026-08-30T12:15:45Z</time>
      </trkpt>
      <trkpt lat="48.777359" lon="9.905710">
        <ele>645.4</ele>
        <time>2026-08-30T12:15:46Z</time>
      </trkpt>
      <trkpt lat="48.777361" lon="9.905693">
        <ele>645.6</ele>
        <time>2026-08-30T12:15:47Z</time>
      </trkpt>
      <trkpt lat="48.777359" lon="9.905677">
        <ele>645.8</ele>
        <time>2026-08-30T12:15:48Z</time>
      </trkpt>
      <trkpt lat="48.777358" lon="9.905653">
        <ele>646</ele>
        <time>2026-08-30T12:15:49Z</time>
      </trkpt>
      <trkpt lat="48.777356" lon="9.905630">
        <ele>646.2</ele>
        <time>2026-08-30T12:15:50Z</time>
      </trkpt>
      <trkpt lat="48.777354" lon="9.905608">
        <ele>646.4</ele>
        <time>2026-08-30T12:15:51Z</time>
      </trkpt>
      <trkpt lat="48.777352" lon="9.905584">
        <ele>646.6</ele>
        <time>2026-08-30T12:15:52Z</time>
      </trkpt>
      <trkpt lat="48.777348" lon="9.905566">
        <ele>647</ele>
        <time>2026-08-30T12:15:53Z</time>
      </trkpt>
      <trkpt lat="48.777343" lon="9.905551">
        <ele>647.2</ele>
        <time>2026-08-30T12:15:54Z</time>
      </trkpt>
      <trkpt lat="48.777339" lon="9.905533">
        <ele>647.4</ele>
        <time>2026-08-30T12:15:55Z</time>
      </trkpt>
      <trkpt lat="48.777335" lon="9.905513">
        <ele>647.6</ele>
        <time>2026-08-30T12:15:56Z</time>
      </trkpt>
      <trkpt lat="48.777330" lon="9.905490">
        <ele>647.8</ele>
        <time>2026-08-30T12:15:57Z</time>
      </trkpt>
      <trkpt lat="48.777331" lon="9.905472">
        <ele>648</ele>
        <time>2026-08-30T12:15:58Z</time>
      </trkpt>
      <trkpt lat="48.777331" lon="9.905455">
        <ele>648.2</ele>
        <time>2026-08-30T12:15:59Z</time>
      </trkpt>
      <trkpt lat="48.777329" lon="9.905439">
        <ele>648.4</ele>
        <time>2026-08-30T12:16:00Z</time>
      </trkpt>
      <trkpt lat="48.777332" lon="9.905418">
        <ele>648.6</ele>
        <time>2026-08-30T12:16:01Z</time>
      </trkpt>
      <trkpt lat="48.777333" lon="9.905396">
        <ele>648.8</ele>
        <time>2026-08-30T12:16:02Z</time>
      </trkpt>
      <trkpt lat="48.777336" lon="9.905374">
        <ele>649</ele>
        <time>2026-08-30T12:16:03Z</time>
      </trkpt>
      <trkpt lat="48.777336" lon="9.905352">
        <ele>649.2</ele>
        <time>2026-08-30T12:16:04Z</time>
      </trkpt>
      <trkpt lat="48.777335" lon="9.905332">
        <ele>649.4</ele>
        <time>2026-08-30T12:16:05Z</time>
      </trkpt>
      <trkpt lat="48.777335" lon="9.905307">
        <ele>649.6</ele>
        <time>2026-08-30T12:16:06Z</time>
      </trkpt>
      <trkpt lat="48.777331" lon="9.905280">
        <ele>649.8</ele>
        <time>2026-08-30T12:16:07Z</time>
      </trkpt>
      <trkpt lat="48.777326" lon="9.905265">
        <ele>650</ele>
        <time>2026-08-30T12:16:08Z</time>
      </trkpt>
      <trkpt lat="48.777326" lon="9.905247">
        <ele>650.2</ele>
        <time>2026-08-30T12:16:09Z</time>
      </trkpt>
      <trkpt lat="48.777328" lon="9.905226">
        <ele>650.4</ele>
        <time>2026-08-30T12:16:10Z</time>
      </trkpt>
      <trkpt lat="48.777330" lon="9.905206">
        <ele>650.6</ele>
        <time>2026-08-30T12:16:11Z</time>
      </trkpt>
      <trkpt lat="48.777329" lon="9.905187">
        <ele>650.8</ele>
        <time>2026-08-30T12:16:12Z</time>
      </trkpt>
      <trkpt lat="48.777326" lon="9.905172">
        <ele>651</ele>
        <time>2026-08-30T12:16:13Z</time>
      </trkpt>
      <trkpt lat="48.777324" lon="9.905156">
        <ele>651.2</ele>
        <time>2026-08-30T12:16:14Z</time>
      </trkpt>
      <trkpt lat="48.777324" lon="9.905135">
        <ele>651.2</ele>
        <time>2026-08-30T12:16:15Z</time>
      </trkpt>
      <trkpt lat="48.777321" lon="9.905114">
        <ele>651.6</ele>
        <time>2026-08-30T12:16:16Z</time>
      </trkpt>
      <trkpt lat="48.777317" lon="9.905092">
        <ele>651.8</ele>
        <time>2026-08-30T12:16:17Z</time>
      </trkpt>
      <trkpt lat="48.777315" lon="9.905077">
        <ele>652</ele>
        <time>2026-08-30T12:16:18Z</time>
      </trkpt>
      <trkpt lat="48.777317" lon="9.905060">
        <ele>652.2</ele>
        <time>2026-08-30T12:16:19Z</time>
      </trkpt>
      <trkpt lat="48.777312" lon="9.905040">
        <ele>652.4</ele>
        <time>2026-08-30T12:16:20Z</time>
      </trkpt>
      <trkpt lat="48.777306" lon="9.905026">
        <ele>652.6</ele>
        <time>2026-08-30T12:16:21Z</time>
      </trkpt>
      <trkpt lat="48.777305" lon="9.905013">
        <ele>652.8</ele>
        <time>2026-08-30T12:16:22Z</time>
      </trkpt>
      <trkpt lat="48.777306" lon="9.904996">
        <ele>652.8</ele>
        <time>2026-08-30T12:16:23Z</time>
      </trkpt>
      <trkpt lat="48.777302" lon="9.904972">
        <ele>653</ele>
        <time>2026-08-30T12:16:24Z</time>
      </trkpt>
      <trkpt lat="48.777298" lon="9.904952">
        <ele>653.2</ele>
        <time>2026-08-30T12:16:25Z</time>
      </trkpt>
      <trkpt lat="48.777290" lon="9.904936">
        <ele>653.2</ele>
        <time>2026-08-30T12:16:26Z</time>
      </trkpt>
      <trkpt lat="48.777279" lon="9.904918">
        <ele>653.4</ele>
        <time>2026-08-30T12:16:27Z</time>
      </trkpt>
      <trkpt lat="48.777264" lon="9.904901">
        <ele>653.6</ele>
        <time>2026-08-30T12:16:28Z</time>
      </trkpt>
      <trkpt lat="48.777253" lon="9.904899">
        <ele>653.6</ele>
        <time>2026-08-30T12:16:29Z</time>
      </trkpt>
      <trkpt lat="48.777241" lon="9.904898">
        <ele>653.6</ele>
        <time>2026-08-30T12:16:30Z</time>
      </trkpt>
      <trkpt lat="48.777225" lon="9.904901">
        <ele>653.8</ele>
        <time>2026-08-30T12:16:31Z</time>
      </trkpt>
      <trkpt lat="48.777203" lon="9.904904">
        <ele>653.8</ele>
        <time>2026-08-30T12:16:32Z</time>
      </trkpt>
      <trkpt lat="48.777179" lon="9.904909">
        <ele>653.8</ele>
        <time>2026-08-30T12:16:33Z</time>
      </trkpt>
      <trkpt lat="48.777148" lon="9.904918">
        <ele>653.8</ele>
        <time>2026-08-30T12:16:34Z</time>
      </trkpt>
      <trkpt lat="48.777121" lon="9.904927">
        <ele>653.8</ele>
        <time>2026-08-30T12:16:35Z</time>
      </trkpt>
      <trkpt lat="48.777095" lon="9.904940">
        <ele>653.8</ele>
        <time>2026-08-30T12:16:36Z</time>
      </trkpt>
      <trkpt lat="48.777067" lon="9.904957">
        <ele>653.8</ele>
        <time>2026-08-30T12:16:37Z</time>
      </trkpt>
      <trkpt lat="48.777038" lon="9.904987">
        <ele>653.6</ele>
        <time>2026-08-30T12:16:38Z</time>
      </trkpt>
      <trkpt lat="48.777014" lon="9.905016">
        <ele>653.6</ele>
        <time>2026-08-30T12:16:39Z</time>
      </trkpt>
      <trkpt lat="48.776995" lon="9.905038">
        <ele>653.6</ele>
        <time>2026-08-30T12:16:40Z</time>
      </trkpt>
      <trkpt lat="48.776981" lon="9.905059">
        <ele>653.8</ele>
        <time>2026-08-30T12:16:41Z</time>
      </trkpt>
      <trkpt lat="48.776972" lon="9.905086">
        <ele>653.8</ele>
        <time>2026-08-30T12:16:42Z</time>
      </trkpt>
      <trkpt lat="48.776961" lon="9.905113">
        <ele>653.8</ele>
        <time>2026-08-30T12:16:43Z</time>
      </trkpt>
      <trkpt lat="48.776947" lon="9.905140">
        <ele>654</ele>
        <time>2026-08-30T12:16:44Z</time>
      </trkpt>
      <trkpt lat="48.776934" lon="9.905164">
        <ele>654.2</ele>
        <time>2026-08-30T12:16:45Z</time>
      </trkpt>
      <trkpt lat="48.776917" lon="9.905188">
        <ele>654.2</ele>
        <time>2026-08-30T12:16:46Z</time>
      </trkpt>
      <trkpt lat="48.776907" lon="9.905215">
        <ele>654.4</ele>
        <time>2026-08-30T12:16:47Z</time>
      </trkpt>
      <trkpt lat="48.776894" lon="9.905237">
        <ele>654.6</ele>
        <time>2026-08-30T12:16:48Z</time>
      </trkpt>
      <trkpt lat="48.776878" lon="9.905260">
        <ele>654.6</ele>
        <time>2026-08-30T12:16:49Z</time>
      </trkpt>
      <trkpt lat="48.776866" lon="9.905281">
        <ele>654.8</ele>
        <time>2026-08-30T12:16:50Z</time>
      </trkpt>
      <trkpt lat="48.776853" lon="9.905299">
        <ele>655</ele>
        <time>2026-08-30T12:16:51Z</time>
      </trkpt>
      <trkpt lat="48.776838" lon="9.905318">
        <ele>655.2</ele>
        <time>2026-08-30T12:16:52Z</time>
      </trkpt>
      <trkpt lat="48.776824" lon="9.905341">
        <ele>655.4</ele>
        <time>2026-08-30T12:16:53Z</time>
      </trkpt>
      <trkpt lat="48.776805" lon="9.905362">
        <ele>655.4</ele>
        <time>2026-08-30T12:16:54Z</time>
      </trkpt>
      <trkpt lat="48.776783" lon="9.905376">
        <ele>655.6</ele>
        <time>2026-08-30T12:16:55Z</time>
      </trkpt>
      <trkpt lat="48.776761" lon="9.905397">
        <ele>655.6</ele>
        <time>2026-08-30T12:16:56Z</time>
      </trkpt>
      <trkpt lat="48.776740" lon="9.905414">
        <ele>655.8</ele>
        <time>2026-08-30T12:16:57Z</time>
      </trkpt>
      <trkpt lat="48.776720" lon="9.905425">
        <ele>655.8</ele>
        <time>2026-08-30T12:16:58Z</time>
      </trkpt>
      <trkpt lat="48.776700" lon="9.905440">
        <ele>655.8</ele>
        <time>2026-08-30T12:16:59Z</time>
      </trkpt>
      <trkpt lat="48.776683" lon="9.905460">
        <ele>656</ele>
        <time>2026-08-30T12:17:00Z</time>
      </trkpt>
      <trkpt lat="48.776662" lon="9.905470">
        <ele>656</ele>
        <time>2026-08-30T12:17:01Z</time>
      </trkpt>
      <trkpt lat="48.776642" lon="9.905477">
        <ele>656.2</ele>
        <time>2026-08-30T12:17:02Z</time>
      </trkpt>
      <trkpt lat="48.776625" lon="9.905490">
        <ele>656.4</ele>
        <time>2026-08-30T12:17:03Z</time>
      </trkpt>
      <trkpt lat="48.776607" lon="9.905513">
        <ele>656.6</ele>
        <time>2026-08-30T12:17:04Z</time>
      </trkpt>
      <trkpt lat="48.776591" lon="9.905530">
        <ele>656.6</ele>
        <time>2026-08-30T12:17:05Z</time>
      </trkpt>
      <trkpt lat="48.776572" lon="9.905548">
        <ele>656.8</ele>
        <time>2026-08-30T12:17:06Z</time>
      </trkpt>
      <trkpt lat="48.776559" lon="9.905571">
        <ele>657</ele>
        <time>2026-08-30T12:17:07Z</time>
      </trkpt>
      <trkpt lat="48.776539" lon="9.905590">
        <ele>657.2</ele>
        <time>2026-08-30T12:17:08Z</time>
      </trkpt>
      <trkpt lat="48.776523" lon="9.905607">
        <ele>657.4</ele>
        <time>2026-08-30T12:17:09Z</time>
      </trkpt>
      <trkpt lat="48.776508" lon="9.905623">
        <ele>657.6</ele>
        <time>2026-08-30T12:17:10Z</time>
      </trkpt>
      <trkpt lat="48.776487" lon="9.905649">
        <ele>657.8</ele>
        <time>2026-08-30T12:17:11Z</time>
      </trkpt>
      <trkpt lat="48.776471" lon="9.905671">
        <ele>658</ele>
        <time>2026-08-30T12:17:12Z</time>
      </trkpt>
      <trkpt lat="48.776453" lon="9.905695">
        <ele>658.2</ele>
        <time>2026-08-30T12:17:13Z</time>
      </trkpt>
      <trkpt lat="48.776434" lon="9.905723">
        <ele>658.4</ele>
        <time>2026-08-30T12:17:14Z</time>
      </trkpt>
      <trkpt lat="48.776412" lon="9.905750">
        <ele>658.6</ele>
        <time>2026-08-30T12:17:15Z</time>
      </trkpt>
      <trkpt lat="48.776397" lon="9.905775">
        <ele>658.8</ele>
        <time>2026-08-30T12:17:16Z</time>
      </trkpt>
      <trkpt lat="48.776377" lon="9.905800">
        <ele>659</ele>
        <time>2026-08-30T12:17:17Z</time>
      </trkpt>
      <trkpt lat="48.776359" lon="9.905825">
        <ele>659.2</ele>
        <time>2026-08-30T12:17:18Z</time>
      </trkpt>
      <trkpt lat="48.776344" lon="9.905851">
        <ele>659.2</ele>
        <time>2026-08-30T12:17:19Z</time>
      </trkpt>
      <trkpt lat="48.776334" lon="9.905873">
        <ele>659.4</ele>
        <time>2026-08-30T12:17:20Z</time>
      </trkpt>
      <trkpt lat="48.776322" lon="9.905898">
        <ele>659.6</ele>
        <time>2026-08-30T12:17:21Z</time>
      </trkpt>
      <trkpt lat="48.776307" lon="9.905923">
        <ele>659.8</ele>
        <time>2026-08-30T12:17:22Z</time>
      </trkpt>
      <trkpt lat="48.776287" lon="9.905950">
        <ele>660</ele>
        <time>2026-08-30T12:17:23Z</time>
      </trkpt>
      <trkpt lat="48.776273" lon="9.905976">
        <ele>660</ele>
        <time>2026-08-30T12:17:24Z</time>
      </trkpt>
      <trkpt lat="48.776258" lon="9.906004">
        <ele>660</ele>
        <time>2026-08-30T12:17:25Z</time>
      </trkpt>
      <trkpt lat="48.776241" lon="9.906034">
        <ele>660.2</ele>
        <time>2026-08-30T12:17:26Z</time>
      </trkpt>
      <trkpt lat="48.776224" lon="9.906065">
        <ele>660.2</ele>
        <time>2026-08-30T12:17:27Z</time>
      </trkpt>
      <trkpt lat="48.776204" lon="9.906097">
        <ele>660.4</ele>
        <time>2026-08-30T12:17:28Z</time>
      </trkpt>
      <trkpt lat="48.776184" lon="9.906126">
        <ele>660.4</ele>
        <time>2026-08-30T12:17:29Z</time>
      </trkpt>
      <trkpt lat="48.776164" lon="9.906158">
        <ele>660.6</ele>
        <time>2026-08-30T12:17:30Z</time>
      </trkpt>
      <trkpt lat="48.776144" lon="9.906186">
        <ele>660.6</ele>
        <time>2026-08-30T12:17:31Z</time>
      </trkpt>
      <trkpt lat="48.776125" lon="9.906210">
        <ele>660.8</ele>
        <time>2026-08-30T12:17:32Z</time>
      </trkpt>
      <trkpt lat="48.776104" lon="9.906236">
        <ele>660.8</ele>
        <time>2026-08-30T12:17:33Z</time>
      </trkpt>
      <trkpt lat="48.776087" lon="9.906260">
        <ele>661</ele>
        <time>2026-08-30T12:17:34Z</time>
      </trkpt>
      <trkpt lat="48.776072" lon="9.906281">
        <ele>661.2</ele>
        <time>2026-08-30T12:17:35Z</time>
      </trkpt>
      <trkpt lat="48.776056" lon="9.906306">
        <ele>661.4</ele>
        <time>2026-08-30T12:17:36Z</time>
      </trkpt>
      <trkpt lat="48.776039" lon="9.906330">
        <ele>661.4</ele>
        <time>2026-08-30T12:17:37Z</time>
      </trkpt>
      <trkpt lat="48.776021" lon="9.906352">
        <ele>661.6</ele>
        <time>2026-08-30T12:17:38Z</time>
      </trkpt>
      <trkpt lat="48.776005" lon="9.906380">
        <ele>661.6</ele>
        <time>2026-08-30T12:17:39Z</time>
      </trkpt>
      <trkpt lat="48.775989" lon="9.906406">
        <ele>661.8</ele>
        <time>2026-08-30T12:17:40Z</time>
      </trkpt>
      <trkpt lat="48.775973" lon="9.906436">
        <ele>661.8</ele>
        <time>2026-08-30T12:17:41Z</time>
      </trkpt>
      <trkpt lat="48.775958" lon="9.906459">
        <ele>662</ele>
        <time>2026-08-30T12:17:42Z</time>
      </trkpt>
      <trkpt lat="48.775945" lon="9.906475">
        <ele>662</ele>
        <time>2026-08-30T12:17:43Z</time>
      </trkpt>
      <trkpt lat="48.775925" lon="9.906489">
        <ele>662.2</ele>
        <time>2026-08-30T12:17:44Z</time>
      </trkpt>
      <trkpt lat="48.775908" lon="9.906508">
        <ele>662.2</ele>
        <time>2026-08-30T12:17:45Z</time>
      </trkpt>
      <trkpt lat="48.775888" lon="9.906528">
        <ele>662.2</ele>
        <time>2026-08-30T12:17:46Z</time>
      </trkpt>
      <trkpt lat="48.775870" lon="9.906548">
        <ele>662.2</ele>
        <time>2026-08-30T12:17:47Z</time>
      </trkpt>
      <trkpt lat="48.775846" lon="9.906561">
        <ele>662.2</ele>
        <time>2026-08-30T12:17:48Z</time>
      </trkpt>
      <trkpt lat="48.775817" lon="9.906575">
        <ele>662.2</ele>
        <time>2026-08-30T12:17:49Z</time>
      </trkpt>
      <trkpt lat="48.775783" lon="9.906594">
        <ele>662.2</ele>
        <time>2026-08-30T12:17:50Z</time>
      </trkpt>
      <trkpt lat="48.775751" lon="9.906616">
        <ele>662.2</ele>
        <time>2026-08-30T12:17:51Z</time>
      </trkpt>
      <trkpt lat="48.775717" lon="9.906635">
        <ele>662.2</ele>
        <time>2026-08-30T12:17:52Z</time>
      </trkpt>
      <trkpt lat="48.775682" lon="9.906656">
        <ele>662.2</ele>
        <time>2026-08-30T12:17:53Z</time>
      </trkpt>
      <trkpt lat="48.775647" lon="9.906678">
        <ele>662.2</ele>
        <time>2026-08-30T12:17:54Z</time>
      </trkpt>
      <trkpt lat="48.775614" lon="9.906688">
        <ele>662.2</ele>
        <time>2026-08-30T12:17:55Z</time>
      </trkpt>
      <trkpt lat="48.775580" lon="9.906717">
        <ele>662.2</ele>
        <time>2026-08-30T12:17:56Z</time>
      </trkpt>
      <trkpt lat="48.775555" lon="9.906746">
        <ele>662</ele>
        <time>2026-08-30T12:17:57Z</time>
      </trkpt>
      <trkpt lat="48.775518" lon="9.906764">
        <ele>662</ele>
        <time>2026-08-30T12:17:58Z</time>
      </trkpt>
      <trkpt lat="48.775477" lon="9.906790">
        <ele>662</ele>
        <time>2026-08-30T12:17:59Z</time>
      </trkpt>
      <trkpt lat="48.775441" lon="9.906808">
        <ele>662</ele>
        <time>2026-08-30T12:18:00Z</time>
      </trkpt>
      <trkpt lat="48.775403" lon="9.906823">
        <ele>662</ele>
        <time>2026-08-30T12:18:01Z</time>
      </trkpt>
      <trkpt lat="48.775369" lon="9.906840">
        <ele>662</ele>
        <time>2026-08-30T12:18:02Z</time>
      </trkpt>
      <trkpt lat="48.775333" lon="9.906858">
        <ele>662</ele>
        <time>2026-08-30T12:18:03Z</time>
      </trkpt>
      <trkpt lat="48.775299" lon="9.906877">
        <ele>662</ele>
        <time>2026-08-30T12:18:04Z</time>
      </trkpt>
      <trkpt lat="48.775263" lon="9.906896">
        <ele>662</ele>
        <time>2026-08-30T12:18:05Z</time>
      </trkpt>
      <trkpt lat="48.775235" lon="9.906907">
        <ele>662</ele>
        <time>2026-08-30T12:18:06Z</time>
      </trkpt>
      <trkpt lat="48.775204" lon="9.906925">
        <ele>662</ele>
        <time>2026-08-30T12:18:07Z</time>
      </trkpt>
      <trkpt lat="48.775173" lon="9.906943">
        <ele>662</ele>
        <time>2026-08-30T12:18:08Z</time>
      </trkpt>
      <trkpt lat="48.775140" lon="9.906963">
        <ele>662</ele>
        <time>2026-08-30T12:18:09Z</time>
      </trkpt>
      <trkpt lat="48.775106" lon="9.906979">
        <ele>662</ele>
        <time>2026-08-30T12:18:10Z</time>
      </trkpt>
      <trkpt lat="48.775075" lon="9.906999">
        <ele>662</ele>
        <time>2026-08-30T12:18:11Z</time>
      </trkpt>
      <trkpt lat="48.775041" lon="9.907012">
        <ele>662</ele>
        <time>2026-08-30T12:18:12Z</time>
      </trkpt>
      <trkpt lat="48.775010" lon="9.907031">
        <ele>662</ele>
        <time>2026-08-30T12:18:13Z</time>
      </trkpt>
      <trkpt lat="48.774979" lon="9.907049">
        <ele>662.2</ele>
        <time>2026-08-30T12:18:14Z</time>
      </trkpt>
      <trkpt lat="48.774941" lon="9.907068">
        <ele>662.2</ele>
        <time>2026-08-30T12:18:15Z</time>
      </trkpt>
      <trkpt lat="48.774906" lon="9.907085">
        <ele>662.2</ele>
        <time>2026-08-30T12:18:16Z</time>
      </trkpt>
      <trkpt lat="48.774877" lon="9.907094">
        <ele>662.4</ele>
        <time>2026-08-30T12:18:17Z</time>
      </trkpt>
      <trkpt lat="48.774851" lon="9.907107">
        <ele>662.4</ele>
        <time>2026-08-30T12:18:18Z</time>
      </trkpt>
      <trkpt lat="48.774818" lon="9.907122">
        <ele>662.4</ele>
        <time>2026-08-30T12:18:19Z</time>
      </trkpt>
      <trkpt lat="48.774787" lon="9.907143">
        <ele>662.6</ele>
        <time>2026-08-30T12:18:20Z</time>
      </trkpt>
      <trkpt lat="48.774752" lon="9.907164">
        <ele>662.6</ele>
        <time>2026-08-30T12:18:21Z</time>
      </trkpt>
      <trkpt lat="48.774725" lon="9.907181">
        <ele>662.8</ele>
        <time>2026-08-30T12:18:22Z</time>
      </trkpt>
      <trkpt lat="48.774694" lon="9.907202">
        <ele>662.8</ele>
        <time>2026-08-30T12:18:23Z</time>
      </trkpt>
      <trkpt lat="48.774667" lon="9.907220">
        <ele>663</ele>
        <time>2026-08-30T12:18:24Z</time>
      </trkpt>
      <trkpt lat="48.774642" lon="9.907244">
        <ele>663.2</ele>
        <time>2026-08-30T12:18:25Z</time>
      </trkpt>
      <trkpt lat="48.774619" lon="9.907264">
        <ele>663.4</ele>
        <time>2026-08-30T12:18:26Z</time>
      </trkpt>
      <trkpt lat="48.774603" lon="9.907276">
        <ele>663.6</ele>
        <time>2026-08-30T12:18:27Z</time>
      </trkpt>
      <trkpt lat="48.774586" lon="9.907294">
        <ele>663.6</ele>
        <time>2026-08-30T12:18:28Z</time>
      </trkpt>
      <trkpt lat="48.774568" lon="9.907309">
        <ele>664</ele>
        <time>2026-08-30T12:18:29Z</time>
      </trkpt>
      <trkpt lat="48.774548" lon="9.907328">
        <ele>664.2</ele>
        <time>2026-08-30T12:18:30Z</time>
      </trkpt>
      <trkpt lat="48.774531" lon="9.907348">
        <ele>664.4</ele>
        <time>2026-08-30T12:18:31Z</time>
      </trkpt>
      <trkpt lat="48.774513" lon="9.907368">
        <ele>664.6</ele>
        <time>2026-08-30T12:18:32Z</time>
      </trkpt>
      <trkpt lat="48.774496" lon="9.907393">
        <ele>664.8</ele>
        <time>2026-08-30T12:18:33Z</time>
      </trkpt>
      <trkpt lat="48.774480" lon="9.907412">
        <ele>665</ele>
        <time>2026-08-30T12:18:34Z</time>
      </trkpt>
      <trkpt lat="48.774458" lon="9.907435">
        <ele>665.2</ele>
        <time>2026-08-30T12:18:35Z</time>
      </trkpt>
      <trkpt lat="48.774434" lon="9.907458">
        <ele>665.4</ele>
        <time>2026-08-30T12:18:36Z</time>
      </trkpt>
      <trkpt lat="48.774413" lon="9.907478">
        <ele>665.4</ele>
        <time>2026-08-30T12:18:37Z</time>
      </trkpt>
      <trkpt lat="48.774397" lon="9.907504">
        <ele>665.6</ele>
        <time>2026-08-30T12:18:38Z</time>
      </trkpt>
      <trkpt lat="48.774378" lon="9.907522">
        <ele>665.8</ele>
        <time>2026-08-30T12:18:39Z</time>
      </trkpt>
      <trkpt lat="48.774366" lon="9.907540">
        <ele>665.8</ele>
        <time>2026-08-30T12:18:40Z</time>
      </trkpt>
      <trkpt lat="48.774350" lon="9.907566">
        <ele>665.8</ele>
        <time>2026-08-30T12:18:41Z</time>
      </trkpt>
      <trkpt lat="48.774334" lon="9.907589">
        <ele>666</ele>
        <time>2026-08-30T12:18:42Z</time>
      </trkpt>
      <trkpt lat="48.774318" lon="9.907615">
        <ele>666</ele>
        <time>2026-08-30T12:18:43Z</time>
      </trkpt>
      <trkpt lat="48.774304" lon="9.907644">
        <ele>666</ele>
        <time>2026-08-30T12:18:44Z</time>
      </trkpt>
      <trkpt lat="48.774284" lon="9.907679">
        <ele>666</ele>
        <time>2026-08-30T12:18:45Z</time>
      </trkpt>
      <trkpt lat="48.774266" lon="9.907705">
        <ele>666.2</ele>
        <time>2026-08-30T12:18:46Z</time>
      </trkpt>
      <trkpt lat="48.774250" lon="9.907728">
        <ele>666.2</ele>
        <time>2026-08-30T12:18:47Z</time>
      </trkpt>
      <trkpt lat="48.774235" lon="9.907750">
        <ele>666.2</ele>
        <time>2026-08-30T12:18:48Z</time>
      </trkpt>
      <trkpt lat="48.774221" lon="9.907774">
        <ele>666.2</ele>
        <time>2026-08-30T12:18:49Z</time>
      </trkpt>
      <trkpt lat="48.774209" lon="9.907800">
        <ele>666.2</ele>
        <time>2026-08-30T12:18:50Z</time>
      </trkpt>
      <trkpt lat="48.774194" lon="9.907822">
        <ele>666.2</ele>
        <time>2026-08-30T12:18:51Z</time>
      </trkpt>
      <trkpt lat="48.774180" lon="9.907848">
        <ele>666.2</ele>
        <time>2026-08-30T12:18:52Z</time>
      </trkpt>
      <trkpt lat="48.774165" lon="9.907878">
        <ele>666.2</ele>
        <time>2026-08-30T12:18:53Z</time>
      </trkpt>
      <trkpt lat="48.774150" lon="9.907903">
        <ele>666.2</ele>
        <time>2026-08-30T12:18:54Z</time>
      </trkpt>
      <trkpt lat="48.774136" lon="9.907931">
        <ele>666.2</ele>
        <time>2026-08-30T12:18:55Z</time>
      </trkpt>
      <trkpt lat="48.774120" lon="9.907960">
        <ele>666.2</ele>
        <time>2026-08-30T12:18:56Z</time>
      </trkpt>
      <trkpt lat="48.774104" lon="9.907983">
        <ele>666.2</ele>
        <time>2026-08-30T12:18:57Z</time>
      </trkpt>
      <trkpt lat="48.774088" lon="9.908013">
        <ele>666.2</ele>
        <time>2026-08-30T12:18:58Z</time>
      </trkpt>
      <trkpt lat="48.774073" lon="9.908043">
        <ele>666.2</ele>
        <time>2026-08-30T12:18:59Z</time>
      </trkpt>
      <trkpt lat="48.774056" lon="9.908074">
        <ele>666.2</ele>
        <time>2026-08-30T12:19:00Z</time>
      </trkpt>
      <trkpt lat="48.774038" lon="9.908104">
        <ele>666.2</ele>
        <time>2026-08-30T12:19:01Z</time>
      </trkpt>
      <trkpt lat="48.774020" lon="9.908135">
        <ele>666.2</ele>
        <time>2026-08-30T12:19:02Z</time>
      </trkpt>
      <trkpt lat="48.774001" lon="9.908169">
        <ele>666.2</ele>
        <time>2026-08-30T12:19:03Z</time>
      </trkpt>
      <trkpt lat="48.773984" lon="9.908198">
        <ele>666.2</ele>
        <time>2026-08-30T12:19:04Z</time>
      </trkpt>
      <trkpt lat="48.773962" lon="9.908230">
        <ele>666.2</ele>
        <time>2026-08-30T12:19:05Z</time>
      </trkpt>
      <trkpt lat="48.773946" lon="9.908257">
        <ele>666.2</ele>
        <time>2026-08-30T12:19:06Z</time>
      </trkpt>
      <trkpt lat="48.773932" lon="9.908281">
        <ele>666.2</ele>
        <time>2026-08-30T12:19:07Z</time>
      </trkpt>
      <trkpt lat="48.773916" lon="9.908305">
        <ele>666</ele>
        <time>2026-08-30T12:19:08Z</time>
      </trkpt>
      <trkpt lat="48.773894" lon="9.908326">
        <ele>666</ele>
        <time>2026-08-30T12:19:09Z</time>
      </trkpt>
      <trkpt lat="48.773863" lon="9.908351">
        <ele>666</ele>
        <time>2026-08-30T12:19:10Z</time>
      </trkpt>
      <trkpt lat="48.773840" lon="9.908367">
        <ele>666</ele>
        <time>2026-08-30T12:19:11Z</time>
      </trkpt>
      <trkpt lat="48.773809" lon="9.908377">
        <ele>666</ele>
        <time>2026-08-30T12:19:12Z</time>
      </trkpt>
      <trkpt lat="48.773788" lon="9.908378">
        <ele>666</ele>
        <time>2026-08-30T12:19:13Z</time>
      </trkpt>
      <trkpt lat="48.773769" lon="9.908377">
        <ele>666.2</ele>
        <time>2026-08-30T12:19:14Z</time>
      </trkpt>
      <trkpt lat="48.773752" lon="9.908382">
        <ele>666.2</ele>
        <time>2026-08-30T12:19:15Z</time>
      </trkpt>
      <trkpt lat="48.773727" lon="9.908388">
        <ele>666.4</ele>
        <time>2026-08-30T12:19:16Z</time>
      </trkpt>
      <trkpt lat="48.773698" lon="9.908392">
        <ele>666.4</ele>
        <time>2026-08-30T12:19:17Z</time>
      </trkpt>
      <trkpt lat="48.773658" lon="9.908391">
        <ele>666.6</ele>
        <time>2026-08-30T12:19:18Z</time>
      </trkpt>
      <trkpt lat="48.773622" lon="9.908393">
        <ele>666.8</ele>
        <time>2026-08-30T12:19:19Z</time>
      </trkpt>
      <trkpt lat="48.773587" lon="9.908396">
        <ele>666.8</ele>
        <time>2026-08-30T12:19:20Z</time>
      </trkpt>
      <trkpt lat="48.773550" lon="9.908401">
        <ele>666.8</ele>
        <time>2026-08-30T12:19:21Z</time>
      </trkpt>
      <trkpt lat="48.773515" lon="9.908396">
        <ele>666.8</ele>
        <time>2026-08-30T12:19:22Z</time>
      </trkpt>
      <trkpt lat="48.773476" lon="9.908393">
        <ele>666.8</ele>
        <time>2026-08-30T12:19:23Z</time>
      </trkpt>
      <trkpt lat="48.773440" lon="9.908385">
        <ele>666.6</ele>
        <time>2026-08-30T12:19:24Z</time>
      </trkpt>
      <trkpt lat="48.773407" lon="9.908373">
        <ele>666.6</ele>
        <time>2026-08-30T12:19:25Z</time>
      </trkpt>
      <trkpt lat="48.773370" lon="9.908369">
        <ele>666.6</ele>
        <time>2026-08-30T12:19:26Z</time>
      </trkpt>
      <trkpt lat="48.773332" lon="9.908360">
        <ele>666.4</ele>
        <time>2026-08-30T12:19:27Z</time>
      </trkpt>
      <trkpt lat="48.773299" lon="9.908349">
        <ele>666.4</ele>
        <time>2026-08-30T12:19:28Z</time>
      </trkpt>
      <trkpt lat="48.773265" lon="9.908340">
        <ele>666.4</ele>
        <time>2026-08-30T12:19:29Z</time>
      </trkpt>
      <trkpt lat="48.773232" lon="9.908333">
        <ele>666.6</ele>
        <time>2026-08-30T12:19:30Z</time>
      </trkpt>
      <trkpt lat="48.773199" lon="9.908326">
        <ele>666.6</ele>
        <time>2026-08-30T12:19:31Z</time>
      </trkpt>
      <trkpt lat="48.773169" lon="9.908320">
        <ele>666.6</ele>
        <time>2026-08-30T12:19:32Z</time>
      </trkpt>
      <trkpt lat="48.773140" lon="9.908309">
        <ele>666.8</ele>
        <time>2026-08-30T12:19:33Z</time>
      </trkpt>
      <trkpt lat="48.773110" lon="9.908304">
        <ele>666.8</ele>
        <time>2026-08-30T12:19:34Z</time>
      </trkpt>
      <trkpt lat="48.773082" lon="9.908290">
        <ele>667</ele>
        <time>2026-08-30T12:19:35Z</time>
      </trkpt>
      <trkpt lat="48.773054" lon="9.908282">
        <ele>667</ele>
        <time>2026-08-30T12:19:36Z</time>
      </trkpt>
      <trkpt lat="48.773027" lon="9.908268">
        <ele>667.2</ele>
        <time>2026-08-30T12:19:37Z</time>
      </trkpt>
      <trkpt lat="48.773000" lon="9.908254">
        <ele>667.4</ele>
        <time>2026-08-30T12:19:38Z</time>
      </trkpt>
      <trkpt lat="48.772972" lon="9.908246">
        <ele>667.4</ele>
        <time>2026-08-30T12:19:39Z</time>
      </trkpt>
      <trkpt lat="48.772938" lon="9.908237">
        <ele>667.6</ele>
        <time>2026-08-30T12:19:40Z</time>
      </trkpt>
      <trkpt lat="48.772905" lon="9.908227">
        <ele>667.6</ele>
        <time>2026-08-30T12:19:41Z</time>
      </trkpt>
      <trkpt lat="48.772875" lon="9.908219">
        <ele>667.8</ele>
        <time>2026-08-30T12:19:42Z</time>
      </trkpt>
      <trkpt lat="48.772841" lon="9.908211">
        <ele>667.8</ele>
        <time>2026-08-30T12:19:43Z</time>
      </trkpt>
      <trkpt lat="48.772806" lon="9.908195">
        <ele>667.8</ele>
        <time>2026-08-30T12:19:44Z</time>
      </trkpt>
      <trkpt lat="48.772772" lon="9.908176">
        <ele>667.8</ele>
        <time>2026-08-30T12:19:45Z</time>
      </trkpt>
      <trkpt lat="48.772738" lon="9.908163">
        <ele>667.8</ele>
        <time>2026-08-30T12:19:46Z</time>
      </trkpt>
      <trkpt lat="48.772702" lon="9.908154">
        <ele>667.8</ele>
        <time>2026-08-30T12:19:47Z</time>
      </trkpt>
      <trkpt lat="48.772669" lon="9.908143">
        <ele>668</ele>
        <time>2026-08-30T12:19:48Z</time>
      </trkpt>
      <trkpt lat="48.772638" lon="9.908135">
        <ele>668</ele>
        <time>2026-08-30T12:19:49Z</time>
      </trkpt>
      <trkpt lat="48.772609" lon="9.908123">
        <ele>668</ele>
        <time>2026-08-30T12:19:50Z</time>
      </trkpt>
      <trkpt lat="48.772581" lon="9.908110">
        <ele>668.2</ele>
        <time>2026-08-30T12:19:51Z</time>
      </trkpt>
      <trkpt lat="48.772549" lon="9.908100">
        <ele>668.2</ele>
        <time>2026-08-30T12:19:52Z</time>
      </trkpt>
      <trkpt lat="48.772519" lon="9.908092">
        <ele>668.2</ele>
        <time>2026-08-30T12:19:53Z</time>
      </trkpt>
      <trkpt lat="48.772493" lon="9.908080">
        <ele>668.4</ele>
        <time>2026-08-30T12:19:54Z</time>
      </trkpt>
      <trkpt lat="48.772465" lon="9.908070">
        <ele>668.4</ele>
        <time>2026-08-30T12:19:55Z</time>
      </trkpt>
      <trkpt lat="48.772442" lon="9.908059">
        <ele>668.4</ele>
        <time>2026-08-30T12:19:56Z</time>
      </trkpt>
      <trkpt lat="48.772415" lon="9.908046">
        <ele>668.6</ele>
        <time>2026-08-30T12:19:57Z</time>
      </trkpt>
      <trkpt lat="48.772391" lon="9.908033">
        <ele>668.6</ele>
        <time>2026-08-30T12:19:58Z</time>
      </trkpt>
      <trkpt lat="48.772364" lon="9.908020">
        <ele>668.6</ele>
        <time>2026-08-30T12:19:59Z</time>
      </trkpt>
      <trkpt lat="48.772337" lon="9.908008">
        <ele>668.8</ele>
        <time>2026-08-30T12:20:00Z</time>
      </trkpt>
      <trkpt lat="48.772311" lon="9.907993">
        <ele>668.8</ele>
        <time>2026-08-30T12:20:01Z</time>
      </trkpt>
      <trkpt lat="48.772282" lon="9.907979">
        <ele>669</ele>
        <time>2026-08-30T12:20:02Z</time>
      </trkpt>
      <trkpt lat="48.772255" lon="9.907957">
        <ele>669</ele>
        <time>2026-08-30T12:20:03Z</time>
      </trkpt>
      <trkpt lat="48.772225" lon="9.907936">
        <ele>669.2</ele>
        <time>2026-08-30T12:20:04Z</time>
      </trkpt>
      <trkpt lat="48.772195" lon="9.907912">
        <ele>669.2</ele>
        <time>2026-08-30T12:20:05Z</time>
      </trkpt>
      <trkpt lat="48.772169" lon="9.907883">
        <ele>669.4</ele>
        <time>2026-08-30T12:20:06Z</time>
      </trkpt>
      <trkpt lat="48.772140" lon="9.907854">
        <ele>669.4</ele>
        <time>2026-08-30T12:20:07Z</time>
      </trkpt>
      <trkpt lat="48.772115" lon="9.907819">
        <ele>669.4</ele>
        <time>2026-08-30T12:20:08Z</time>
      </trkpt>
      <trkpt lat="48.772089" lon="9.907780">
        <ele>669.6</ele>
        <time>2026-08-30T12:20:09Z</time>
      </trkpt>
      <trkpt lat="48.772065" lon="9.907744">
        <ele>669.6</ele>
        <time>2026-08-30T12:20:10Z</time>
      </trkpt>
      <trkpt lat="48.772047" lon="9.907707">
        <ele>669.6</ele>
        <time>2026-08-30T12:20:11Z</time>
      </trkpt>
      <trkpt lat="48.772027" lon="9.907671">
        <ele>669.6</ele>
        <time>2026-08-30T12:20:12Z</time>
      </trkpt>
      <trkpt lat="48.772003" lon="9.907647">
        <ele>669.6</ele>
        <time>2026-08-30T12:20:13Z</time>
      </trkpt>
      <trkpt lat="48.771983" lon="9.907618">
        <ele>669.6</ele>
        <time>2026-08-30T12:20:14Z</time>
      </trkpt>
      <trkpt lat="48.771958" lon="9.907581">
        <ele>669.6</ele>
        <time>2026-08-30T12:20:15Z</time>
      </trkpt>
      <trkpt lat="48.771932" lon="9.907543">
        <ele>669.6</ele>
        <time>2026-08-30T12:20:16Z</time>
      </trkpt>
      <trkpt lat="48.771908" lon="9.907500">
        <ele>669.6</ele>
        <time>2026-08-30T12:20:17Z</time>
      </trkpt>
      <trkpt lat="48.771884" lon="9.907452">
        <ele>669.4</ele>
        <time>2026-08-30T12:20:18Z</time>
      </trkpt>
      <trkpt lat="48.771861" lon="9.907407">
        <ele>669.4</ele>
        <time>2026-08-30T12:20:19Z</time>
      </trkpt>
      <trkpt lat="48.771838" lon="9.907362">
        <ele>669.2</ele>
        <time>2026-08-30T12:20:20Z</time>
      </trkpt>
      <trkpt lat="48.771814" lon="9.907314">
        <ele>669.2</ele>
        <time>2026-08-30T12:20:21Z</time>
      </trkpt>
      <trkpt lat="48.771789" lon="9.907265">
        <ele>669</ele>
        <time>2026-08-30T12:20:22Z</time>
      </trkpt>
      <trkpt lat="48.771761" lon="9.907217">
        <ele>669</ele>
        <time>2026-08-30T12:20:23Z</time>
      </trkpt>
      <trkpt lat="48.771736" lon="9.907167">
        <ele>668.8</ele>
        <time>2026-08-30T12:20:24Z</time>
      </trkpt>
      <trkpt lat="48.771709" lon="9.907110">
        <ele>668.8</ele>
        <time>2026-08-30T12:20:25Z</time>
      </trkpt>
      <trkpt lat="48.771683" lon="9.907050">
        <ele>668.6</ele>
        <time>2026-08-30T12:20:26Z</time>
      </trkpt>
      <trkpt lat="48.771656" lon="9.906995">
        <ele>668.6</ele>
        <time>2026-08-30T12:20:27Z</time>
      </trkpt>
      <trkpt lat="48.771630" lon="9.906943">
        <ele>668.4</ele>
        <time>2026-08-30T12:20:28Z</time>
      </trkpt>
      <trkpt lat="48.771609" lon="9.906888">
        <ele>668.4</ele>
        <time>2026-08-30T12:20:29Z</time>
      </trkpt>
      <trkpt lat="48.771592" lon="9.906835">
        <ele>668.2</ele>
        <time>2026-08-30T12:20:30Z</time>
      </trkpt>
      <trkpt lat="48.771576" lon="9.906784">
        <ele>668.2</ele>
        <time>2026-08-30T12:20:31Z</time>
      </trkpt>
      <trkpt lat="48.771563" lon="9.906737">
        <ele>668.4</ele>
        <time>2026-08-30T12:20:32Z</time>
      </trkpt>
      <trkpt lat="48.771549" lon="9.906693">
        <ele>668.4</ele>
        <time>2026-08-30T12:20:33Z</time>
      </trkpt>
      <trkpt lat="48.771536" lon="9.906657">
        <ele>668.6</ele>
        <time>2026-08-30T12:20:34Z</time>
      </trkpt>
      <trkpt lat="48.771525" lon="9.906630">
        <ele>668.6</ele>
        <time>2026-08-30T12:20:35Z</time>
      </trkpt>
      <trkpt lat="48.771521" lon="9.906608">
        <ele>668.8</ele>
        <time>2026-08-30T12:20:36Z</time>
      </trkpt>
      <trkpt lat="48.771517" lon="9.906573">
        <ele>669</ele>
        <time>2026-08-30T12:20:37Z</time>
      </trkpt>
      <trkpt lat="48.771513" lon="9.906538">
        <ele>669.2</ele>
        <time>2026-08-30T12:20:38Z</time>
      </trkpt>
      <trkpt lat="48.771505" lon="9.906507">
        <ele>669.2</ele>
        <time>2026-08-30T12:20:39Z</time>
      </trkpt>
      <trkpt lat="48.771496" lon="9.906469">
        <ele>669.4</ele>
        <time>2026-08-30T12:20:40Z</time>
      </trkpt>
      <trkpt lat="48.771491" lon="9.906434">
        <ele>669.6</ele>
        <time>2026-08-30T12:20:41Z</time>
      </trkpt>
      <trkpt lat="48.771487" lon="9.906401">
        <ele>669.8</ele>
        <time>2026-08-30T12:20:42Z</time>
      </trkpt>
      <trkpt lat="48.771482" lon="9.906368">
        <ele>669.8</ele>
        <time>2026-08-30T12:20:43Z</time>
      </trkpt>
      <trkpt lat="48.771476" lon="9.906340">
        <ele>670</ele>
        <time>2026-08-30T12:20:44Z</time>
      </trkpt>
      <trkpt lat="48.771466" lon="9.906307">
        <ele>670</ele>
        <time>2026-08-30T12:20:45Z</time>
      </trkpt>
      <trkpt lat="48.771459" lon="9.906277">
        <ele>670</ele>
        <time>2026-08-30T12:20:46Z</time>
      </trkpt>
      <trkpt lat="48.771455" lon="9.906248">
        <ele>670.2</ele>
        <time>2026-08-30T12:20:47Z</time>
      </trkpt>
      <trkpt lat="48.771457" lon="9.906221">
        <ele>670.2</ele>
        <time>2026-08-30T12:20:48Z</time>
      </trkpt>
      <trkpt lat="48.771467" lon="9.906201">
        <ele>670.2</ele>
        <time>2026-08-30T12:20:49Z</time>
      </trkpt>
      <trkpt lat="48.771482" lon="9.906182">
        <ele>670.2</ele>
        <time>2026-08-30T12:20:50Z</time>
      </trkpt>
      <trkpt lat="48.771494" lon="9.906177">
        <ele>670.4</ele>
        <time>2026-08-30T12:20:51Z</time>
      </trkpt>
      <trkpt lat="48.771506" lon="9.906165">
        <ele>670.4</ele>
        <time>2026-08-30T12:20:52Z</time>
      </trkpt>
      <trkpt lat="48.771518" lon="9.906158">
        <ele>670.4</ele>
        <time>2026-08-30T12:20:53Z</time>
      </trkpt>
      <trkpt lat="48.771534" lon="9.906148">
        <ele>670.6</ele>
        <time>2026-08-30T12:20:54Z</time>
      </trkpt>
      <trkpt lat="48.771545" lon="9.906147">
        <ele>670.8</ele>
        <time>2026-08-30T12:20:55Z</time>
      </trkpt>
      <trkpt lat="48.771553" lon="9.906147">
        <ele>670.8</ele>
        <time>2026-08-30T12:20:56Z</time>
      </trkpt>
      <trkpt lat="48.771559" lon="9.906148">
        <ele>670.8</ele>
        <time>2026-08-30T12:20:57Z</time>
      </trkpt>
      <trkpt lat="48.771559" lon="9.906148">
        <ele>671</ele>
        <time>2026-08-30T12:20:58Z</time>
      </trkpt>
      <trkpt lat="48.771558" lon="9.906159">
        <ele>671</ele>
        <time>2026-08-30T12:20:59Z</time>
      </trkpt>
      <trkpt lat="48.771549" lon="9.906170">
        <ele>671</ele>
        <time>2026-08-30T12:21:00Z</time>
      </trkpt>
      <trkpt lat="48.771538" lon="9.906175">
        <ele>671</ele>
        <time>2026-08-30T12:21:01Z</time>
      </trkpt>
      <trkpt lat="48.771525" lon="9.906172">
        <ele>670.8</ele>
        <time>2026-08-30T12:21:02Z</time>
      </trkpt>
      <trkpt lat="48.771506" lon="9.906170">
        <ele>670.8</ele>
        <time>2026-08-30T12:21:03Z</time>
      </trkpt>
      <trkpt lat="48.771483" lon="9.906168">
        <ele>670.6</ele>
        <time>2026-08-30T12:21:04Z</time>
      </trkpt>
      <trkpt lat="48.771453" lon="9.906162">
        <ele>670.6</ele>
        <time>2026-08-30T12:21:05Z</time>
      </trkpt>
      <trkpt lat="48.771415" lon="9.906157">
        <ele>670.4</ele>
        <time>2026-08-30T12:21:06Z</time>
      </trkpt>
      <trkpt lat="48.771378" lon="9.906160">
        <ele>670.2</ele>
        <time>2026-08-30T12:21:07Z</time>
      </trkpt>
      <trkpt lat="48.771338" lon="9.906160">
        <ele>670</ele>
        <time>2026-08-30T12:21:08Z</time>
      </trkpt>
      <trkpt lat="48.771294" lon="9.906163">
        <ele>669.8</ele>
        <time>2026-08-30T12:21:09Z</time>
      </trkpt>
      <trkpt lat="48.771252" lon="9.906172">
        <ele>669.6</ele>
        <time>2026-08-30T12:21:10Z</time>
      </trkpt>
      <trkpt lat="48.771211" lon="9.906181">
        <ele>669.2</ele>
        <time>2026-08-30T12:21:11Z</time>
      </trkpt>
      <trkpt lat="48.771171" lon="9.906196">
        <ele>669</ele>
        <time>2026-08-30T12:21:12Z</time>
      </trkpt>
      <trkpt lat="48.771132" lon="9.906204">
        <ele>668.6</ele>
        <time>2026-08-30T12:21:13Z</time>
      </trkpt>
      <trkpt lat="48.771097" lon="9.906216">
        <ele>668.2</ele>
        <time>2026-08-30T12:21:14Z</time>
      </trkpt>
      <trkpt lat="48.771057" lon="9.906231">
        <ele>667.8</ele>
        <time>2026-08-30T12:21:15Z</time>
      </trkpt>
      <trkpt lat="48.771015" lon="9.906251">
        <ele>667.4</ele>
        <time>2026-08-30T12:21:16Z</time>
      </trkpt>
      <trkpt lat="48.770970" lon="9.906276">
        <ele>667.2</ele>
        <time>2026-08-30T12:21:17Z</time>
      </trkpt>
      <trkpt lat="48.770924" lon="9.906302">
        <ele>666.8</ele>
        <time>2026-08-30T12:21:18Z</time>
      </trkpt>
      <trkpt lat="48.770878" lon="9.906334">
        <ele>666.4</ele>
        <time>2026-08-30T12:21:19Z</time>
      </trkpt>
      <trkpt lat="48.770833" lon="9.906360">
        <ele>666</ele>
        <time>2026-08-30T12:21:20Z</time>
      </trkpt>
      <trkpt lat="48.770789" lon="9.906389">
        <ele>665.6</ele>
        <time>2026-08-30T12:21:21Z</time>
      </trkpt>
      <trkpt lat="48.770745" lon="9.906422">
        <ele>665</ele>
        <time>2026-08-30T12:21:22Z</time>
      </trkpt>
      <trkpt lat="48.770701" lon="9.906456">
        <ele>664.6</ele>
        <time>2026-08-30T12:21:23Z</time>
      </trkpt>
      <trkpt lat="48.770660" lon="9.906492">
        <ele>664.2</ele>
        <time>2026-08-30T12:21:24Z</time>
      </trkpt>
      <trkpt lat="48.770632" lon="9.906533">
        <ele>663.8</ele>
        <time>2026-08-30T12:21:25Z</time>
      </trkpt>
      <trkpt lat="48.770598" lon="9.906560">
        <ele>663.4</ele>
        <time>2026-08-30T12:21:26Z</time>
      </trkpt>
      <trkpt lat="48.770568" lon="9.906569">
        <ele>663</ele>
        <time>2026-08-30T12:21:27Z</time>
      </trkpt>
      <trkpt lat="48.770544" lon="9.906579">
        <ele>662.6</ele>
        <time>2026-08-30T12:21:28Z</time>
      </trkpt>
      <trkpt lat="48.770522" lon="9.906601">
        <ele>662.4</ele>
        <time>2026-08-30T12:21:29Z</time>
      </trkpt>
      <trkpt lat="48.770498" lon="9.906624">
        <ele>662</ele>
        <time>2026-08-30T12:21:30Z</time>
      </trkpt>
      <trkpt lat="48.770476" lon="9.906642">
        <ele>662</ele>
        <time>2026-08-30T12:21:31Z</time>
      </trkpt>
      <trkpt lat="48.770455" lon="9.906664">
        <ele>661.8</ele>
        <time>2026-08-30T12:21:32Z</time>
      </trkpt>
      <trkpt lat="48.770436" lon="9.906691">
        <ele>661.8</ele>
        <time>2026-08-30T12:21:33Z</time>
      </trkpt>
      <trkpt lat="48.770419" lon="9.906718">
        <ele>661.8</ele>
        <time>2026-08-30T12:21:34Z</time>
      </trkpt>
      <trkpt lat="48.770399" lon="9.906744">
        <ele>661.8</ele>
        <time>2026-08-30T12:21:35Z</time>
      </trkpt>
      <trkpt lat="48.770377" lon="9.906775">
        <ele>661.8</ele>
        <time>2026-08-30T12:21:36Z</time>
      </trkpt>
      <trkpt lat="48.770358" lon="9.906800">
        <ele>661.6</ele>
        <time>2026-08-30T12:21:37Z</time>
      </trkpt>
      <trkpt lat="48.770339" lon="9.906826">
        <ele>661.6</ele>
        <time>2026-08-30T12:21:38Z</time>
      </trkpt>
      <trkpt lat="48.770319" lon="9.906852">
        <ele>661.4</ele>
        <time>2026-08-30T12:21:39Z</time>
      </trkpt>
      <trkpt lat="48.770304" lon="9.906869">
        <ele>661.2</ele>
        <time>2026-08-30T12:21:40Z</time>
      </trkpt>
      <trkpt lat="48.770286" lon="9.906888">
        <ele>660.8</ele>
        <time>2026-08-30T12:21:41Z</time>
      </trkpt>
      <trkpt lat="48.770268" lon="9.906896">
        <ele>660.6</ele>
        <time>2026-08-30T12:21:42Z</time>
      </trkpt>
      <trkpt lat="48.770246" lon="9.906905">
        <ele>660.2</ele>
        <time>2026-08-30T12:21:43Z</time>
      </trkpt>
      <trkpt lat="48.770224" lon="9.906911">
        <ele>659.6</ele>
        <time>2026-08-30T12:21:44Z</time>
      </trkpt>
      <trkpt lat="48.770201" lon="9.906917">
        <ele>659</ele>
        <time>2026-08-30T12:21:45Z</time>
      </trkpt>
      <trkpt lat="48.770182" lon="9.906933">
        <ele>658.2</ele>
        <time>2026-08-30T12:21:46Z</time>
      </trkpt>
      <trkpt lat="48.770161" lon="9.906940">
        <ele>657.6</ele>
        <time>2026-08-30T12:21:47Z</time>
      </trkpt>
      <trkpt lat="48.770141" lon="9.906947">
        <ele>656.8</ele>
        <time>2026-08-30T12:21:48Z</time>
      </trkpt>
      <trkpt lat="48.770120" lon="9.906957">
        <ele>656.2</ele>
        <time>2026-08-30T12:21:49Z</time>
      </trkpt>
      <trkpt lat="48.770098" lon="9.906976">
        <ele>655.4</ele>
        <time>2026-08-30T12:21:50Z</time>
      </trkpt>
      <trkpt lat="48.770074" lon="9.906993">
        <ele>654.4</ele>
        <time>2026-08-30T12:21:51Z</time>
      </trkpt>
      <trkpt lat="48.770056" lon="9.907013">
        <ele>653.8</ele>
        <time>2026-08-30T12:21:52Z</time>
      </trkpt>
      <trkpt lat="48.770043" lon="9.907038">
        <ele>653</ele>
        <time>2026-08-30T12:21:53Z</time>
      </trkpt>
      <trkpt lat="48.770027" lon="9.907063">
        <ele>652.2</ele>
        <time>2026-08-30T12:21:54Z</time>
      </trkpt>
      <trkpt lat="48.770008" lon="9.907083">
        <ele>651.4</ele>
        <time>2026-08-30T12:21:55Z</time>
      </trkpt>
      <trkpt lat="48.769987" lon="9.907097">
        <ele>650.6</ele>
        <time>2026-08-30T12:21:56Z</time>
      </trkpt>
      <trkpt lat="48.769956" lon="9.907113">
        <ele>649.8</ele>
        <time>2026-08-30T12:21:57Z</time>
      </trkpt>
      <trkpt lat="48.769931" lon="9.907131">
        <ele>649</ele>
        <time>2026-08-30T12:21:58Z</time>
      </trkpt>
      <trkpt lat="48.769906" lon="9.907157">
        <ele>648.2</ele>
        <time>2026-08-30T12:21:59Z</time>
      </trkpt>
      <trkpt lat="48.769882" lon="9.907175">
        <ele>647.6</ele>
        <time>2026-08-30T12:22:00Z</time>
      </trkpt>
      <trkpt lat="48.769854" lon="9.907175">
        <ele>646.8</ele>
        <time>2026-08-30T12:22:01Z</time>
      </trkpt>
      <trkpt lat="48.769828" lon="9.907169">
        <ele>646</ele>
        <time>2026-08-30T12:22:02Z</time>
      </trkpt>
      <trkpt lat="48.769795" lon="9.907161">
        <ele>645.4</ele>
        <time>2026-08-30T12:22:03Z</time>
      </trkpt>
      <trkpt lat="48.769765" lon="9.907172">
        <ele>644.8</ele>
        <time>2026-08-30T12:22:04Z</time>
      </trkpt>
      <trkpt lat="48.769732" lon="9.907191">
        <ele>644</ele>
        <time>2026-08-30T12:22:05Z</time>
      </trkpt>
      <trkpt lat="48.769705" lon="9.907230">
        <ele>643.4</ele>
        <time>2026-08-30T12:22:06Z</time>
      </trkpt>
      <trkpt lat="48.769684" lon="9.907270">
        <ele>642.8</ele>
        <time>2026-08-30T12:22:07Z</time>
      </trkpt>
      <trkpt lat="48.769666" lon="9.907313">
        <ele>642.4</ele>
        <time>2026-08-30T12:22:08Z</time>
      </trkpt>
      <trkpt lat="48.769639" lon="9.907355">
        <ele>642</ele>
        <time>2026-08-30T12:22:09Z</time>
      </trkpt>
      <trkpt lat="48.769605" lon="9.907392">
        <ele>641.6</ele>
        <time>2026-08-30T12:22:10Z</time>
      </trkpt>
      <trkpt lat="48.769567" lon="9.907421">
        <ele>641.4</ele>
        <time>2026-08-30T12:22:11Z</time>
      </trkpt>
      <trkpt lat="48.769535" lon="9.907449">
        <ele>641.2</ele>
        <time>2026-08-30T12:22:12Z</time>
      </trkpt>
      <trkpt lat="48.769504" lon="9.907478">
        <ele>641</ele>
        <time>2026-08-30T12:22:13Z</time>
      </trkpt>
      <trkpt lat="48.769475" lon="9.907512">
        <ele>640.8</ele>
        <time>2026-08-30T12:22:14Z</time>
      </trkpt>
      <trkpt lat="48.769443" lon="9.907544">
        <ele>640.6</ele>
        <time>2026-08-30T12:22:15Z</time>
      </trkpt>
      <trkpt lat="48.769410" lon="9.907569">
        <ele>640.4</ele>
        <time>2026-08-30T12:22:16Z</time>
      </trkpt>
      <trkpt lat="48.769378" lon="9.907594">
        <ele>640.4</ele>
        <time>2026-08-30T12:22:17Z</time>
      </trkpt>
      <trkpt lat="48.769345" lon="9.907620">
        <ele>640.2</ele>
        <time>2026-08-30T12:22:18Z</time>
      </trkpt>
      <trkpt lat="48.769311" lon="9.907648">
        <ele>640.2</ele>
        <time>2026-08-30T12:22:19Z</time>
      </trkpt>
      <trkpt lat="48.769282" lon="9.907686">
        <ele>640.2</ele>
        <time>2026-08-30T12:22:20Z</time>
      </trkpt>
      <trkpt lat="48.769252" lon="9.907716">
        <ele>640.2</ele>
        <time>2026-08-30T12:22:21Z</time>
      </trkpt>
      <trkpt lat="48.769225" lon="9.907746">
        <ele>640.2</ele>
        <time>2026-08-30T12:22:22Z</time>
      </trkpt>
      <trkpt lat="48.769196" lon="9.907774">
        <ele>640.2</ele>
        <time>2026-08-30T12:22:23Z</time>
      </trkpt>
      <trkpt lat="48.769164" lon="9.907802">
        <ele>640.2</ele>
        <time>2026-08-30T12:22:24Z</time>
      </trkpt>
      <trkpt lat="48.769135" lon="9.907824">
        <ele>640.2</ele>
        <time>2026-08-30T12:22:25Z</time>
      </trkpt>
      <trkpt lat="48.769106" lon="9.907828">
        <ele>640.2</ele>
        <time>2026-08-30T12:22:26Z</time>
      </trkpt>
      <trkpt lat="48.769081" lon="9.907816">
        <ele>640.2</ele>
        <time>2026-08-30T12:22:27Z</time>
      </trkpt>
      <trkpt lat="48.769059" lon="9.907804">
        <ele>640.2</ele>
        <time>2026-08-30T12:22:28Z</time>
      </trkpt>
      <trkpt lat="48.769040" lon="9.907800">
        <ele>640.2</ele>
        <time>2026-08-30T12:22:29Z</time>
      </trkpt>
      <trkpt lat="48.769018" lon="9.907798">
        <ele>640.4</ele>
        <time>2026-08-30T12:22:30Z</time>
      </trkpt>
      <trkpt lat="48.768999" lon="9.907799">
        <ele>640.4</ele>
        <time>2026-08-30T12:22:31Z</time>
      </trkpt>
      <trkpt lat="48.768990" lon="9.907809">
        <ele>640.6</ele>
        <time>2026-08-30T12:22:32Z</time>
      </trkpt>
      <trkpt lat="48.768977" lon="9.907821">
        <ele>640.8</ele>
        <time>2026-08-30T12:22:33Z</time>
      </trkpt>
      <trkpt lat="48.768963" lon="9.907833">
        <ele>641</ele>
        <time>2026-08-30T12:22:34Z</time>
      </trkpt>
      <trkpt lat="48.768944" lon="9.907846">
        <ele>641.2</ele>
        <time>2026-08-30T12:22:35Z</time>
      </trkpt>
      <trkpt lat="48.768930" lon="9.907858">
        <ele>641.4</ele>
        <time>2026-08-30T12:22:36Z</time>
      </trkpt>
      <trkpt lat="48.768922" lon="9.907866">
        <ele>641.6</ele>
        <time>2026-08-30T12:22:37Z</time>
      </trkpt>
      <trkpt lat="48.768908" lon="9.907878">
        <ele>641.8</ele>
        <time>2026-08-30T12:22:38Z</time>
      </trkpt>
      <trkpt lat="48.768888" lon="9.907896">
        <ele>642</ele>
        <time>2026-08-30T12:22:39Z</time>
      </trkpt>
      <trkpt lat="48.768871" lon="9.907909">
        <ele>642.2</ele>
        <time>2026-08-30T12:22:40Z</time>
      </trkpt>
      <trkpt lat="48.768856" lon="9.907918">
        <ele>642.4</ele>
        <time>2026-08-30T12:22:41Z</time>
      </trkpt>
      <trkpt lat="48.768841" lon="9.907929">
        <ele>642.8</ele>
        <time>2026-08-30T12:22:42Z</time>
      </trkpt>
      <trkpt lat="48.768832" lon="9.907935">
        <ele>643</ele>
        <time>2026-08-30T12:22:43Z</time>
      </trkpt>
      <trkpt lat="48.768818" lon="9.907947">
        <ele>643.2</ele>
        <time>2026-08-30T12:22:44Z</time>
      </trkpt>
      <trkpt lat="48.768801" lon="9.907963">
        <ele>643.4</ele>
        <time>2026-08-30T12:22:45Z</time>
      </trkpt>
      <trkpt lat="48.768789" lon="9.907973">
        <ele>643.6</ele>
        <time>2026-08-30T12:22:46Z</time>
      </trkpt>
      <trkpt lat="48.768779" lon="9.907983">
        <ele>643.8</ele>
        <time>2026-08-30T12:22:47Z</time>
      </trkpt>
      <trkpt lat="48.768770" lon="9.907993">
        <ele>644</ele>
        <time>2026-08-30T12:22:48Z</time>
      </trkpt>
      <trkpt lat="48.768761" lon="9.908008">
        <ele>644.2</ele>
        <time>2026-08-30T12:22:49Z</time>
      </trkpt>
      <trkpt lat="48.768747" lon="9.908024">
        <ele>644.6</ele>
        <time>2026-08-30T12:22:50Z</time>
      </trkpt>
      <trkpt lat="48.768734" lon="9.908036">
        <ele>644.8</ele>
        <time>2026-08-30T12:22:51Z</time>
      </trkpt>
      <trkpt lat="48.768722" lon="9.908046">
        <ele>645</ele>
        <time>2026-08-30T12:22:52Z</time>
      </trkpt>
      <trkpt lat="48.768710" lon="9.908058">
        <ele>645.2</ele>
        <time>2026-08-30T12:22:53Z</time>
      </trkpt>
      <trkpt lat="48.768698" lon="9.908069">
        <ele>645.4</ele>
        <time>2026-08-30T12:22:54Z</time>
      </trkpt>
      <trkpt lat="48.768686" lon="9.908085">
        <ele>645.8</ele>
        <time>2026-08-30T12:22:55Z</time>
      </trkpt>
      <trkpt lat="48.768676" lon="9.908100">
        <ele>646</ele>
        <time>2026-08-30T12:22:56Z</time>
      </trkpt>
      <trkpt lat="48.768667" lon="9.908111">
        <ele>646.2</ele>
        <time>2026-08-30T12:22:57Z</time>
      </trkpt>
      <trkpt lat="48.768657" lon="9.908117">
        <ele>646.4</ele>
        <time>2026-08-30T12:22:58Z</time>
      </trkpt>
      <trkpt lat="48.768649" lon="9.908128">
        <ele>646.8</ele>
        <time>2026-08-30T12:22:59Z</time>
      </trkpt>
      <trkpt lat="48.768642" lon="9.908150">
        <ele>647</ele>
        <time>2026-08-30T12:23:00Z</time>
      </trkpt>
      <trkpt lat="48.768635" lon="9.908162">
        <ele>647.2</ele>
        <time>2026-08-30T12:23:01Z</time>
      </trkpt>
      <trkpt lat="48.768629" lon="9.908179">
        <ele>647.4</ele>
        <time>2026-08-30T12:23:02Z</time>
      </trkpt>
      <trkpt lat="48.768626" lon="9.908192">
        <ele>647.8</ele>
        <time>2026-08-30T12:23:03Z</time>
      </trkpt>
      <trkpt lat="48.768623" lon="9.908205">
        <ele>648</ele>
        <time>2026-08-30T12:23:04Z</time>
      </trkpt>
      <trkpt lat="48.768618" lon="9.908208">
        <ele>648.2</ele>
        <time>2026-08-30T12:23:05Z</time>
      </trkpt>
      <trkpt lat="48.768615" lon="9.908214">
        <ele>648.4</ele>
        <time>2026-08-30T12:23:06Z</time>
      </trkpt>
      <trkpt lat="48.768612" lon="9.908226">
        <ele>648.6</ele>
        <time>2026-08-30T12:23:07Z</time>
      </trkpt>
      <trkpt lat="48.768605" lon="9.908240">
        <ele>648.8</ele>
        <time>2026-08-30T12:23:08Z</time>
      </trkpt>
      <trkpt lat="48.768593" lon="9.908260">
        <ele>649</ele>
        <time>2026-08-30T12:23:09Z</time>
      </trkpt>
      <trkpt lat="48.768584" lon="9.908276">
        <ele>649.2</ele>
        <time>2026-08-30T12:23:10Z</time>
      </trkpt>
      <trkpt lat="48.768577" lon="9.908290">
        <ele>649.4</ele>
        <time>2026-08-30T12:23:11Z</time>
      </trkpt>
      <trkpt lat="48.768572" lon="9.908305">
        <ele>649.6</ele>
        <time>2026-08-30T12:23:12Z</time>
      </trkpt>
      <trkpt lat="48.768566" lon="9.908323">
        <ele>649.8</ele>
        <time>2026-08-30T12:23:13Z</time>
      </trkpt>
      <trkpt lat="48.768560" lon="9.908336">
        <ele>650</ele>
        <time>2026-08-30T12:23:14Z</time>
      </trkpt>
      <trkpt lat="48.768553" lon="9.908349">
        <ele>650.2</ele>
        <time>2026-08-30T12:23:15Z</time>
      </trkpt>
      <trkpt lat="48.768548" lon="9.908364">
        <ele>650.4</ele>
        <time>2026-08-30T12:23:16Z</time>
      </trkpt>
      <trkpt lat="48.768544" lon="9.908385">
        <ele>650.6</ele>
        <time>2026-08-30T12:23:17Z</time>
      </trkpt>
      <trkpt lat="48.768540" lon="9.908399">
        <ele>650.8</ele>
        <time>2026-08-30T12:23:18Z</time>
      </trkpt>
      <trkpt lat="48.768535" lon="9.908418">
        <ele>651</ele>
        <time>2026-08-30T12:23:19Z</time>
      </trkpt>
      <trkpt lat="48.768523" lon="9.908444">
        <ele>651.2</ele>
        <time>2026-08-30T12:23:20Z</time>
      </trkpt>
      <trkpt lat="48.768516" lon="9.908456">
        <ele>651.4</ele>
        <time>2026-08-30T12:23:21Z</time>
      </trkpt>
      <trkpt lat="48.768508" lon="9.908467">
        <ele>651.6</ele>
        <time>2026-08-30T12:23:22Z</time>
      </trkpt>
      <trkpt lat="48.768499" lon="9.908482">
        <ele>651.8</ele>
        <time>2026-08-30T12:23:23Z</time>
      </trkpt>
      <trkpt lat="48.768493" lon="9.908497">
        <ele>652</ele>
        <time>2026-08-30T12:23:24Z</time>
      </trkpt>
      <trkpt lat="48.768489" lon="9.908509">
        <ele>652.2</ele>
        <time>2026-08-30T12:23:25Z</time>
      </trkpt>
      <trkpt lat="48.768485" lon="9.908527">
        <ele>652.4</ele>
        <time>2026-08-30T12:23:26Z</time>
      </trkpt>
      <trkpt lat="48.768483" lon="9.908544">
        <ele>652.8</ele>
        <time>2026-08-30T12:23:27Z</time>
      </trkpt>
      <trkpt lat="48.768478" lon="9.908558">
        <ele>653</ele>
        <time>2026-08-30T12:23:28Z</time>
      </trkpt>
      <trkpt lat="48.768471" lon="9.908573">
        <ele>653.2</ele>
        <time>2026-08-30T12:23:29Z</time>
      </trkpt>
      <trkpt lat="48.768469" lon="9.908587">
        <ele>653.4</ele>
        <time>2026-08-30T12:23:30Z</time>
      </trkpt>
      <trkpt lat="48.768469" lon="9.908599">
        <ele>653.6</ele>
        <time>2026-08-30T12:23:31Z</time>
      </trkpt>
      <trkpt lat="48.768468" lon="9.908617">
        <ele>653.8</ele>
        <time>2026-08-30T12:23:32Z</time>
      </trkpt>
      <trkpt lat="48.768464" lon="9.908634">
        <ele>654.2</ele>
        <time>2026-08-30T12:23:33Z</time>
      </trkpt>
      <trkpt lat="48.768460" lon="9.908647">
        <ele>654.4</ele>
        <time>2026-08-30T12:23:34Z</time>
      </trkpt>
      <trkpt lat="48.768456" lon="9.908668">
        <ele>654.6</ele>
        <time>2026-08-30T12:23:35Z</time>
      </trkpt>
      <trkpt lat="48.768456" lon="9.908690">
        <ele>654.8</ele>
        <time>2026-08-30T12:23:36Z</time>
      </trkpt>
      <trkpt lat="48.768455" lon="9.908713">
        <ele>655</ele>
        <time>2026-08-30T12:23:37Z</time>
      </trkpt>
      <trkpt lat="48.768452" lon="9.908724">
        <ele>655.2</ele>
        <time>2026-08-30T12:23:38Z</time>
      </trkpt>
      <trkpt lat="48.768445" lon="9.908738">
        <ele>655.4</ele>
        <time>2026-08-30T12:23:39Z</time>
      </trkpt>
      <trkpt lat="48.768436" lon="9.908751">
        <ele>655.6</ele>
        <time>2026-08-30T12:23:40Z</time>
      </trkpt>
      <trkpt lat="48.768428" lon="9.908762">
        <ele>655.6</ele>
        <time>2026-08-30T12:23:41Z</time>
      </trkpt>
      <trkpt lat="48.768424" lon="9.908773">
        <ele>655.8</ele>
        <time>2026-08-30T12:23:42Z</time>
      </trkpt>
      <trkpt lat="48.768422" lon="9.908790">
        <ele>656</ele>
        <time>2026-08-30T12:23:43Z</time>
      </trkpt>
      <trkpt lat="48.768420" lon="9.908804">
        <ele>656.2</ele>
        <time>2026-08-30T12:23:44Z</time>
      </trkpt>
      <trkpt lat="48.768421" lon="9.908824">
        <ele>656.4</ele>
        <time>2026-08-30T12:23:45Z</time>
      </trkpt>
      <trkpt lat="48.768425" lon="9.908840">
        <ele>656.6</ele>
        <time>2026-08-30T12:23:46Z</time>
      </trkpt>
      <trkpt lat="48.768424" lon="9.908856">
        <ele>656.8</ele>
        <time>2026-08-30T12:23:47Z</time>
      </trkpt>
      <trkpt lat="48.768420" lon="9.908868">
        <ele>657</ele>
        <time>2026-08-30T12:23:48Z</time>
      </trkpt>
      <trkpt lat="48.768413" lon="9.908881">
        <ele>657.2</ele>
        <time>2026-08-30T12:23:49Z</time>
      </trkpt>
      <trkpt lat="48.768409" lon="9.908897">
        <ele>657.4</ele>
        <time>2026-08-30T12:23:50Z</time>
      </trkpt>
      <trkpt lat="48.768405" lon="9.908904">
        <ele>657.4</ele>
        <time>2026-08-30T12:23:51Z</time>
      </trkpt>
      <trkpt lat="48.768397" lon="9.908911">
        <ele>657.8</ele>
        <time>2026-08-30T12:23:52Z</time>
      </trkpt>
      <trkpt lat="48.768393" lon="9.908930">
        <ele>657.8</ele>
        <time>2026-08-30T12:23:53Z</time>
      </trkpt>
      <trkpt lat="48.768388" lon="9.908944">
        <ele>658</ele>
        <time>2026-08-30T12:23:54Z</time>
      </trkpt>
      <trkpt lat="48.768385" lon="9.908964">
        <ele>658.2</ele>
        <time>2026-08-30T12:23:55Z</time>
      </trkpt>
      <trkpt lat="48.768381" lon="9.908979">
        <ele>658.4</ele>
        <time>2026-08-30T12:23:56Z</time>
      </trkpt>
      <trkpt lat="48.768376" lon="9.908992">
        <ele>658.6</ele>
        <time>2026-08-30T12:23:57Z</time>
      </trkpt>
      <trkpt lat="48.768371" lon="9.909018">
        <ele>658.8</ele>
        <time>2026-08-30T12:23:58Z</time>
      </trkpt>
      <trkpt lat="48.768364" lon="9.909029">
        <ele>659</ele>
        <time>2026-08-30T12:23:59Z</time>
      </trkpt>
      <trkpt lat="48.768357" lon="9.909038">
        <ele>659.2</ele>
        <time>2026-08-30T12:24:00Z</time>
      </trkpt>
      <trkpt lat="48.768353" lon="9.909053">
        <ele>659.4</ele>
        <time>2026-08-30T12:24:01Z</time>
      </trkpt>
      <trkpt lat="48.768348" lon="9.909072">
        <ele>659.6</ele>
        <time>2026-08-30T12:24:02Z</time>
      </trkpt>
      <trkpt lat="48.768342" lon="9.909088">
        <ele>659.8</ele>
        <time>2026-08-30T12:24:03Z</time>
      </trkpt>
      <trkpt lat="48.768336" lon="9.909108">
        <ele>660</ele>
        <time>2026-08-30T12:24:04Z</time>
      </trkpt>
      <trkpt lat="48.768330" lon="9.909129">
        <ele>660.2</ele>
        <time>2026-08-30T12:24:05Z</time>
      </trkpt>
      <trkpt lat="48.768319" lon="9.909148">
        <ele>660.4</ele>
        <time>2026-08-30T12:24:06Z</time>
      </trkpt>
      <trkpt lat="48.768309" lon="9.909175">
        <ele>660.6</ele>
        <time>2026-08-30T12:24:07Z</time>
      </trkpt>
      <trkpt lat="48.768302" lon="9.909189">
        <ele>660.8</ele>
        <time>2026-08-30T12:24:08Z</time>
      </trkpt>
      <trkpt lat="48.768298" lon="9.909201">
        <ele>661</ele>
        <time>2026-08-30T12:24:09Z</time>
      </trkpt>
      <trkpt lat="48.768297" lon="9.909220">
        <ele>661.2</ele>
        <time>2026-08-30T12:24:10Z</time>
      </trkpt>
      <trkpt lat="48.768293" lon="9.909243">
        <ele>661.4</ele>
        <time>2026-08-30T12:24:11Z</time>
      </trkpt>
      <trkpt lat="48.768289" lon="9.909265">
        <ele>661.6</ele>
        <time>2026-08-30T12:24:12Z</time>
      </trkpt>
      <trkpt lat="48.768284" lon="9.909287">
        <ele>661.8</ele>
        <time>2026-08-30T12:24:13Z</time>
      </trkpt>
      <trkpt lat="48.768282" lon="9.909300">
        <ele>662</ele>
        <time>2026-08-30T12:24:14Z</time>
      </trkpt>
      <trkpt lat="48.768278" lon="9.909312">
        <ele>662.2</ele>
        <time>2026-08-30T12:24:15Z</time>
      </trkpt>
      <trkpt lat="48.768276" lon="9.909334">
        <ele>662.4</ele>
        <time>2026-08-30T12:24:16Z</time>
      </trkpt>
      <trkpt lat="48.768271" lon="9.909349">
        <ele>662.6</ele>
        <time>2026-08-30T12:24:17Z</time>
      </trkpt>
      <trkpt lat="48.768270" lon="9.909364">
        <ele>662.8</ele>
        <time>2026-08-30T12:24:18Z</time>
      </trkpt>
      <trkpt lat="48.768271" lon="9.909382">
        <ele>662.8</ele>
        <time>2026-08-30T12:24:19Z</time>
      </trkpt>
      <trkpt lat="48.768269" lon="9.909400">
        <ele>663</ele>
        <time>2026-08-30T12:24:20Z</time>
      </trkpt>
      <trkpt lat="48.768268" lon="9.909423">
        <ele>663.2</ele>
        <time>2026-08-30T12:24:21Z</time>
      </trkpt>
      <trkpt lat="48.768260" lon="9.909444">
        <ele>663.4</ele>
        <time>2026-08-30T12:24:22Z</time>
      </trkpt>
      <trkpt lat="48.768253" lon="9.909469">
        <ele>663.4</ele>
        <time>2026-08-30T12:24:23Z</time>
      </trkpt>
      <trkpt lat="48.768240" lon="9.909488">
        <ele>663.6</ele>
        <time>2026-08-30T12:24:24Z</time>
      </trkpt>
      <trkpt lat="48.768228" lon="9.909513">
        <ele>663.6</ele>
        <time>2026-08-30T12:24:25Z</time>
      </trkpt>
      <trkpt lat="48.768220" lon="9.909533">
        <ele>663.8</ele>
        <time>2026-08-30T12:24:26Z</time>
      </trkpt>
      <trkpt lat="48.768212" lon="9.909551">
        <ele>664</ele>
        <time>2026-08-30T12:24:27Z</time>
      </trkpt>
      <trkpt lat="48.768205" lon="9.909567">
        <ele>664.2</ele>
        <time>2026-08-30T12:24:28Z</time>
      </trkpt>
      <trkpt lat="48.768200" lon="9.909581">
        <ele>664.2</ele>
        <time>2026-08-30T12:24:29Z</time>
      </trkpt>
      <trkpt lat="48.768194" lon="9.909598">
        <ele>664.4</ele>
        <time>2026-08-30T12:24:30Z</time>
      </trkpt>
      <trkpt lat="48.768189" lon="9.909618">
        <ele>664.6</ele>
        <time>2026-08-30T12:24:31Z</time>
      </trkpt>
      <trkpt lat="48.768182" lon="9.909640">
        <ele>664.8</ele>
        <time>2026-08-30T12:24:32Z</time>
      </trkpt>
      <trkpt lat="48.768173" lon="9.909663">
        <ele>665</ele>
        <time>2026-08-30T12:24:33Z</time>
      </trkpt>
      <trkpt lat="48.768167" lon="9.909682">
        <ele>665</ele>
        <time>2026-08-30T12:24:34Z</time>
      </trkpt>
      <trkpt lat="48.768160" lon="9.909700">
        <ele>665.2</ele>
        <time>2026-08-30T12:24:35Z</time>
      </trkpt>
      <trkpt lat="48.768156" lon="9.909713">
        <ele>665.4</ele>
        <time>2026-08-30T12:24:36Z</time>
      </trkpt>
      <trkpt lat="48.768148" lon="9.909730">
        <ele>665.6</ele>
        <time>2026-08-30T12:24:37Z</time>
      </trkpt>
      <trkpt lat="48.768142" lon="9.909747">
        <ele>665.8</ele>
        <time>2026-08-30T12:24:38Z</time>
      </trkpt>
      <trkpt lat="48.768133" lon="9.909763">
        <ele>666</ele>
        <time>2026-08-30T12:24:39Z</time>
      </trkpt>
      <trkpt lat="48.768121" lon="9.909777">
        <ele>666</ele>
        <time>2026-08-30T12:24:40Z</time>
      </trkpt>
      <trkpt lat="48.768115" lon="9.909794">
        <ele>666.2</ele>
        <time>2026-08-30T12:24:41Z</time>
      </trkpt>
      <trkpt lat="48.768108" lon="9.909810">
        <ele>666.4</ele>
        <time>2026-08-30T12:24:42Z</time>
      </trkpt>
      <trkpt lat="48.768097" lon="9.909831">
        <ele>666.4</ele>
        <time>2026-08-30T12:24:43Z</time>
      </trkpt>
      <trkpt lat="48.768086" lon="9.909849">
        <ele>666.6</ele>
        <time>2026-08-30T12:24:44Z</time>
      </trkpt>
      <trkpt lat="48.768077" lon="9.909865">
        <ele>666.8</ele>
        <time>2026-08-30T12:24:45Z</time>
      </trkpt>
      <trkpt lat="48.768069" lon="9.909875">
        <ele>667</ele>
        <time>2026-08-30T12:24:46Z</time>
      </trkpt>
      <trkpt lat="48.768064" lon="9.909884">
        <ele>667.2</ele>
        <time>2026-08-30T12:24:47Z</time>
      </trkpt>
      <trkpt lat="48.768053" lon="9.909900">
        <ele>667.2</ele>
        <time>2026-08-30T12:24:48Z</time>
      </trkpt>
      <trkpt lat="48.768041" lon="9.909920">
        <ele>667.4</ele>
        <time>2026-08-30T12:24:49Z</time>
      </trkpt>
      <trkpt lat="48.768027" lon="9.909939">
        <ele>667.6</ele>
        <time>2026-08-30T12:24:50Z</time>
      </trkpt>
      <trkpt lat="48.768017" lon="9.909950">
        <ele>667.8</ele>
        <time>2026-08-30T12:24:51Z</time>
      </trkpt>
      <trkpt lat="48.768007" lon="9.909965">
        <ele>668</ele>
        <time>2026-08-30T12:24:52Z</time>
      </trkpt>
      <trkpt lat="48.767992" lon="9.909979">
        <ele>668</ele>
        <time>2026-08-30T12:24:53Z</time>
      </trkpt>
      <trkpt lat="48.767980" lon="9.909990">
        <ele>668.2</ele>
        <time>2026-08-30T12:24:54Z</time>
      </trkpt>
      <trkpt lat="48.767969" lon="9.909998">
        <ele>668.4</ele>
        <time>2026-08-30T12:24:55Z</time>
      </trkpt>
      <trkpt lat="48.767957" lon="9.910009">
        <ele>668.6</ele>
        <time>2026-08-30T12:24:56Z</time>
      </trkpt>
      <trkpt lat="48.767945" lon="9.910020">
        <ele>668.8</ele>
        <time>2026-08-30T12:24:57Z</time>
      </trkpt>
      <trkpt lat="48.767934" lon="9.910035">
        <ele>668.8</ele>
        <time>2026-08-30T12:24:58Z</time>
      </trkpt>
      <trkpt lat="48.767922" lon="9.910049">
        <ele>669</ele>
        <time>2026-08-30T12:24:59Z</time>
      </trkpt>
      <trkpt lat="48.767913" lon="9.910066">
        <ele>669.2</ele>
        <time>2026-08-30T12:25:00Z</time>
      </trkpt>
      <trkpt lat="48.767902" lon="9.910084">
        <ele>669.4</ele>
        <time>2026-08-30T12:25:01Z</time>
      </trkpt>
      <trkpt lat="48.767892" lon="9.910097">
        <ele>669.6</ele>
        <time>2026-08-30T12:25:02Z</time>
      </trkpt>
      <trkpt lat="48.767878" lon="9.910114">
        <ele>669.8</ele>
        <time>2026-08-30T12:25:03Z</time>
      </trkpt>
      <trkpt lat="48.767862" lon="9.910128">
        <ele>670</ele>
        <time>2026-08-30T12:25:04Z</time>
      </trkpt>
      <trkpt lat="48.767844" lon="9.910144">
        <ele>670.2</ele>
        <time>2026-08-30T12:25:05Z</time>
      </trkpt>
      <trkpt lat="48.767832" lon="9.910155">
        <ele>670.4</ele>
        <time>2026-08-30T12:25:06Z</time>
      </trkpt>
      <trkpt lat="48.767823" lon="9.910164">
        <ele>670.6</ele>
        <time>2026-08-30T12:25:07Z</time>
      </trkpt>
      <trkpt lat="48.767810" lon="9.910176">
        <ele>670.8</ele>
        <time>2026-08-30T12:25:08Z</time>
      </trkpt>
      <trkpt lat="48.767798" lon="9.910177">
        <ele>671</ele>
        <time>2026-08-30T12:25:09Z</time>
      </trkpt>
      <trkpt lat="48.767785" lon="9.910185">
        <ele>671.2</ele>
        <time>2026-08-30T12:25:10Z</time>
      </trkpt>
      <trkpt lat="48.767774" lon="9.910198">
        <ele>671.4</ele>
        <time>2026-08-30T12:25:11Z</time>
      </trkpt>
      <trkpt lat="48.767762" lon="9.910210">
        <ele>671.6</ele>
        <time>2026-08-30T12:25:12Z</time>
      </trkpt>
      <trkpt lat="48.767751" lon="9.910221">
        <ele>671.8</ele>
        <time>2026-08-30T12:25:13Z</time>
      </trkpt>
      <trkpt lat="48.767740" lon="9.910231">
        <ele>672</ele>
        <time>2026-08-30T12:25:14Z</time>
      </trkpt>
      <trkpt lat="48.767722" lon="9.910249">
        <ele>672.2</ele>
        <time>2026-08-30T12:25:15Z</time>
      </trkpt>
      <trkpt lat="48.767711" lon="9.910260">
        <ele>672.4</ele>
        <time>2026-08-30T12:25:16Z</time>
      </trkpt>
      <trkpt lat="48.767701" lon="9.910269">
        <ele>672.6</ele>
        <time>2026-08-30T12:25:17Z</time>
      </trkpt>
      <trkpt lat="48.767693" lon="9.910281">
        <ele>672.8</ele>
        <time>2026-08-30T12:25:18Z</time>
      </trkpt>
      <trkpt lat="48.767680" lon="9.910298">
        <ele>673</ele>
        <time>2026-08-30T12:25:19Z</time>
      </trkpt>
      <trkpt lat="48.767667" lon="9.910309">
        <ele>673</ele>
        <time>2026-08-30T12:25:20Z</time>
      </trkpt>
      <trkpt lat="48.767653" lon="9.910321">
        <ele>673.2</ele>
        <time>2026-08-30T12:25:21Z</time>
      </trkpt>
      <trkpt lat="48.767640" lon="9.910332">
        <ele>673.4</ele>
        <time>2026-08-30T12:25:22Z</time>
      </trkpt>
      <trkpt lat="48.767629" lon="9.910344">
        <ele>673.6</ele>
        <time>2026-08-30T12:25:23Z</time>
      </trkpt>
      <trkpt lat="48.767620" lon="9.910348">
        <ele>673.8</ele>
        <time>2026-08-30T12:25:24Z</time>
      </trkpt>
      <trkpt lat="48.767615" lon="9.910357">
        <ele>674</ele>
        <time>2026-08-30T12:25:25Z</time>
      </trkpt>
      <trkpt lat="48.767610" lon="9.910370">
        <ele>674.2</ele>
        <time>2026-08-30T12:25:26Z</time>
      </trkpt>
      <trkpt lat="48.767601" lon="9.910381">
        <ele>674.4</ele>
        <time>2026-08-30T12:25:27Z</time>
      </trkpt>
      <trkpt lat="48.767590" lon="9.910393">
        <ele>674.6</ele>
        <time>2026-08-30T12:25:28Z</time>
      </trkpt>
      <trkpt lat="48.767579" lon="9.910401">
        <ele>674.8</ele>
        <time>2026-08-30T12:25:29Z</time>
      </trkpt>
      <trkpt lat="48.767567" lon="9.910412">
        <ele>675</ele>
        <time>2026-08-30T12:25:30Z</time>
      </trkpt>
      <trkpt lat="48.767559" lon="9.910425">
        <ele>675.2</ele>
        <time>2026-08-30T12:25:31Z</time>
      </trkpt>
      <trkpt lat="48.767551" lon="9.910439">
        <ele>675.4</ele>
        <time>2026-08-30T12:25:32Z</time>
      </trkpt>
      <trkpt lat="48.767544" lon="9.910452">
        <ele>675.8</ele>
        <time>2026-08-30T12:25:33Z</time>
      </trkpt>
      <trkpt lat="48.767534" lon="9.910460">
        <ele>676</ele>
        <time>2026-08-30T12:25:34Z</time>
      </trkpt>
      <trkpt lat="48.767523" lon="9.910470">
        <ele>676.2</ele>
        <time>2026-08-30T12:25:35Z</time>
      </trkpt>
      <trkpt lat="48.767516" lon="9.910477">
        <ele>676.4</ele>
        <time>2026-08-30T12:25:36Z</time>
      </trkpt>
      <trkpt lat="48.767507" lon="9.910486">
        <ele>676.8</ele>
        <time>2026-08-30T12:25:37Z</time>
      </trkpt>
      <trkpt lat="48.767496" lon="9.910497">
        <ele>677</ele>
        <time>2026-08-30T12:25:38Z</time>
      </trkpt>
      <trkpt lat="48.767486" lon="9.910512">
        <ele>677.2</ele>
        <time>2026-08-30T12:25:39Z</time>
      </trkpt>
      <trkpt lat="48.767477" lon="9.910523">
        <ele>677.4</ele>
        <time>2026-08-30T12:25:40Z</time>
      </trkpt>
      <trkpt lat="48.767468" lon="9.910537">
        <ele>677.6</ele>
        <time>2026-08-30T12:25:41Z</time>
      </trkpt>
      <trkpt lat="48.767457" lon="9.910545">
        <ele>677.8</ele>
        <time>2026-08-30T12:25:42Z</time>
      </trkpt>
      <trkpt lat="48.767446" lon="9.910557">
        <ele>678</ele>
        <time>2026-08-30T12:25:43Z</time>
      </trkpt>
      <trkpt lat="48.767434" lon="9.910571">
        <ele>678.2</ele>
        <time>2026-08-30T12:25:44Z</time>
      </trkpt>
      <trkpt lat="48.767419" lon="9.910586">
        <ele>678.2</ele>
        <time>2026-08-30T12:25:45Z</time>
      </trkpt>
      <trkpt lat="48.767407" lon="9.910604">
        <ele>678.4</ele>
        <time>2026-08-30T12:25:46Z</time>
      </trkpt>
      <trkpt lat="48.767396" lon="9.910617">
        <ele>678.6</ele>
        <time>2026-08-30T12:25:47Z</time>
      </trkpt>
      <trkpt lat="48.767389" lon="9.910628">
        <ele>678.6</ele>
        <time>2026-08-30T12:25:48Z</time>
      </trkpt>
      <trkpt lat="48.767376" lon="9.910647">
        <ele>678.8</ele>
        <time>2026-08-30T12:25:49Z</time>
      </trkpt>
      <trkpt lat="48.767362" lon="9.910667">
        <ele>679</ele>
        <time>2026-08-30T12:25:50Z</time>
      </trkpt>
      <trkpt lat="48.767345" lon="9.910689">
        <ele>679.2</ele>
        <time>2026-08-30T12:25:51Z</time>
      </trkpt>
      <trkpt lat="48.767332" lon="9.910704">
        <ele>679.2</ele>
        <time>2026-08-30T12:25:52Z</time>
      </trkpt>
      <trkpt lat="48.767318" lon="9.910723">
        <ele>679.4</ele>
        <time>2026-08-30T12:25:53Z</time>
      </trkpt>
      <trkpt lat="48.767302" lon="9.910740">
        <ele>679.6</ele>
        <time>2026-08-30T12:25:54Z</time>
      </trkpt>
      <trkpt lat="48.767288" lon="9.910767">
        <ele>679.8</ele>
        <time>2026-08-30T12:25:55Z</time>
      </trkpt>
      <trkpt lat="48.767277" lon="9.910789">
        <ele>680</ele>
        <time>2026-08-30T12:25:56Z</time>
      </trkpt>
      <trkpt lat="48.767270" lon="9.910803">
        <ele>680</ele>
        <time>2026-08-30T12:25:57Z</time>
      </trkpt>
      <trkpt lat="48.767259" lon="9.910817">
        <ele>680.2</ele>
        <time>2026-08-30T12:25:58Z</time>
      </trkpt>
      <trkpt lat="48.767245" lon="9.910836">
        <ele>680.4</ele>
        <time>2026-08-30T12:25:59Z</time>
      </trkpt>
      <trkpt lat="48.767234" lon="9.910847">
        <ele>680.6</ele>
        <time>2026-08-30T12:26:00Z</time>
      </trkpt>
      <trkpt lat="48.767227" lon="9.910860">
        <ele>680.8</ele>
        <time>2026-08-30T12:26:01Z</time>
      </trkpt>
      <trkpt lat="48.767218" lon="9.910868">
        <ele>681</ele>
        <time>2026-08-30T12:26:02Z</time>
      </trkpt>
      <trkpt lat="48.767204" lon="9.910879">
        <ele>681.2</ele>
        <time>2026-08-30T12:26:03Z</time>
      </trkpt>
      <trkpt lat="48.767191" lon="9.910895">
        <ele>681.4</ele>
        <time>2026-08-30T12:26:04Z</time>
      </trkpt>
      <trkpt lat="48.767181" lon="9.910910">
        <ele>681.4</ele>
        <time>2026-08-30T12:26:05Z</time>
      </trkpt>
      <trkpt lat="48.767169" lon="9.910927">
        <ele>681.6</ele>
        <time>2026-08-30T12:26:06Z</time>
      </trkpt>
      <trkpt lat="48.767158" lon="9.910939">
        <ele>681.8</ele>
        <time>2026-08-30T12:26:07Z</time>
      </trkpt>
      <trkpt lat="48.767150" lon="9.910955">
        <ele>682</ele>
        <time>2026-08-30T12:26:08Z</time>
      </trkpt>
      <trkpt lat="48.767137" lon="9.910975">
        <ele>682</ele>
        <time>2026-08-30T12:26:09Z</time>
      </trkpt>
      <trkpt lat="48.767124" lon="9.910988">
        <ele>682.2</ele>
        <time>2026-08-30T12:26:10Z</time>
      </trkpt>
      <trkpt lat="48.767111" lon="9.911006">
        <ele>682.2</ele>
        <time>2026-08-30T12:26:11Z</time>
      </trkpt>
      <trkpt lat="48.767100" lon="9.911028">
        <ele>682.4</ele>
        <time>2026-08-30T12:26:12Z</time>
      </trkpt>
      <trkpt lat="48.767089" lon="9.911045">
        <ele>682.6</ele>
        <time>2026-08-30T12:26:13Z</time>
      </trkpt>
      <trkpt lat="48.767076" lon="9.911050">
        <ele>682.6</ele>
        <time>2026-08-30T12:26:14Z</time>
      </trkpt>
      <trkpt lat="48.767062" lon="9.911063">
        <ele>682.8</ele>
        <time>2026-08-30T12:26:15Z</time>
      </trkpt>
      <trkpt lat="48.767047" lon="9.911079">
        <ele>683</ele>
        <time>2026-08-30T12:26:16Z</time>
      </trkpt>
      <trkpt lat="48.767032" lon="9.911096">
        <ele>683</ele>
        <time>2026-08-30T12:26:17Z</time>
      </trkpt>
      <trkpt lat="48.767015" lon="9.911110">
        <ele>683.2</ele>
        <time>2026-08-30T12:26:18Z</time>
      </trkpt>
      <trkpt lat="48.767000" lon="9.911129">
        <ele>683.4</ele>
        <time>2026-08-30T12:26:19Z</time>
      </trkpt>
      <trkpt lat="48.766981" lon="9.911142">
        <ele>683.6</ele>
        <time>2026-08-30T12:26:20Z</time>
      </trkpt>
      <trkpt lat="48.766961" lon="9.911162">
        <ele>683.6</ele>
        <time>2026-08-30T12:26:21Z</time>
      </trkpt>
      <trkpt lat="48.766946" lon="9.911175">
        <ele>683.8</ele>
        <time>2026-08-30T12:26:22Z</time>
      </trkpt>
      <trkpt lat="48.766934" lon="9.911186">
        <ele>684</ele>
        <time>2026-08-30T12:26:23Z</time>
      </trkpt>
      <trkpt lat="48.766920" lon="9.911201">
        <ele>684.2</ele>
        <time>2026-08-30T12:26:24Z</time>
      </trkpt>
      <trkpt lat="48.766908" lon="9.911215">
        <ele>684.2</ele>
        <time>2026-08-30T12:26:25Z</time>
      </trkpt>
      <trkpt lat="48.766893" lon="9.911225">
        <ele>684.4</ele>
        <time>2026-08-30T12:26:26Z</time>
      </trkpt>
      <trkpt lat="48.766878" lon="9.911235">
        <ele>684.6</ele>
        <time>2026-08-30T12:26:27Z</time>
      </trkpt>
      <trkpt lat="48.766862" lon="9.911249">
        <ele>684.8</ele>
        <time>2026-08-30T12:26:28Z</time>
      </trkpt>
      <trkpt lat="48.766845" lon="9.911263">
        <ele>684.8</ele>
        <time>2026-08-30T12:26:29Z</time>
      </trkpt>
      <trkpt lat="48.766830" lon="9.911277">
        <ele>685</ele>
        <time>2026-08-30T12:26:30Z</time>
      </trkpt>
      <trkpt lat="48.766818" lon="9.911289">
        <ele>685.2</ele>
        <time>2026-08-30T12:26:31Z</time>
      </trkpt>
      <trkpt lat="48.766803" lon="9.911303">
        <ele>685.4</ele>
        <time>2026-08-30T12:26:32Z</time>
      </trkpt>
      <trkpt lat="48.766789" lon="9.911316">
        <ele>685.4</ele>
        <time>2026-08-30T12:26:33Z</time>
      </trkpt>
      <trkpt lat="48.766778" lon="9.911325">
        <ele>685.6</ele>
        <time>2026-08-30T12:26:34Z</time>
      </trkpt>
      <trkpt lat="48.766768" lon="9.911339">
        <ele>685.8</ele>
        <time>2026-08-30T12:26:35Z</time>
      </trkpt>
      <trkpt lat="48.766753" lon="9.911352">
        <ele>686</ele>
        <time>2026-08-30T12:26:36Z</time>
      </trkpt>
      <trkpt lat="48.766740" lon="9.911364">
        <ele>686</ele>
        <time>2026-08-30T12:26:37Z</time>
      </trkpt>
      <trkpt lat="48.766730" lon="9.911380">
        <ele>686.2</ele>
        <time>2026-08-30T12:26:38Z</time>
      </trkpt>
      <trkpt lat="48.766720" lon="9.911399">
        <ele>686.4</ele>
        <time>2026-08-30T12:26:39Z</time>
      </trkpt>
      <trkpt lat="48.766707" lon="9.911412">
        <ele>686.6</ele>
        <time>2026-08-30T12:26:40Z</time>
      </trkpt>
      <trkpt lat="48.766697" lon="9.911427">
        <ele>686.8</ele>
        <time>2026-08-30T12:26:41Z</time>
      </trkpt>
      <trkpt lat="48.766686" lon="9.911439">
        <ele>687</ele>
        <time>2026-08-30T12:26:42Z</time>
      </trkpt>
      <trkpt lat="48.766675" lon="9.911456">
        <ele>687.2</ele>
        <time>2026-08-30T12:26:43Z</time>
      </trkpt>
      <trkpt lat="48.766661" lon="9.911470">
        <ele>687.2</ele>
        <time>2026-08-30T12:26:44Z</time>
      </trkpt>
      <trkpt lat="48.766649" lon="9.911477">
        <ele>687.4</ele>
        <time>2026-08-30T12:26:45Z</time>
      </trkpt>
      <trkpt lat="48.766642" lon="9.911488">
        <ele>687.6</ele>
        <time>2026-08-30T12:26:46Z</time>
      </trkpt>
      <trkpt lat="48.766630" lon="9.911501">
        <ele>687.8</ele>
        <time>2026-08-30T12:26:47Z</time>
      </trkpt>
      <trkpt lat="48.766619" lon="9.911516">
        <ele>688</ele>
        <time>2026-08-30T12:26:48Z</time>
      </trkpt>
      <trkpt lat="48.766603" lon="9.911530">
        <ele>688.2</ele>
        <time>2026-08-30T12:26:49Z</time>
      </trkpt>
      <trkpt lat="48.766591" lon="9.911538">
        <ele>688.4</ele>
        <time>2026-08-30T12:26:50Z</time>
      </trkpt>
      <trkpt lat="48.766583" lon="9.911548">
        <ele>688.6</ele>
        <time>2026-08-30T12:26:51Z</time>
      </trkpt>
      <trkpt lat="48.766574" lon="9.911560">
        <ele>688.8</ele>
        <time>2026-08-30T12:26:52Z</time>
      </trkpt>
      <trkpt lat="48.766565" lon="9.911568">
        <ele>689</ele>
        <time>2026-08-30T12:26:53Z</time>
      </trkpt>
      <trkpt lat="48.766556" lon="9.911583">
        <ele>689.2</ele>
        <time>2026-08-30T12:26:54Z</time>
      </trkpt>
      <trkpt lat="48.766550" lon="9.911597">
        <ele>689.4</ele>
        <time>2026-08-30T12:26:55Z</time>
      </trkpt>
      <trkpt lat="48.766540" lon="9.911620">
        <ele>689.6</ele>
        <time>2026-08-30T12:26:56Z</time>
      </trkpt>
      <trkpt lat="48.766537" lon="9.911630">
        <ele>689.8</ele>
        <time>2026-08-30T12:26:57Z</time>
      </trkpt>
      <trkpt lat="48.766529" lon="9.911643">
        <ele>690</ele>
        <time>2026-08-30T12:26:58Z</time>
      </trkpt>
      <trkpt lat="48.766522" lon="9.911657">
        <ele>690.2</ele>
        <time>2026-08-30T12:26:59Z</time>
      </trkpt>
      <trkpt lat="48.766519" lon="9.911665">
        <ele>690.4</ele>
        <time>2026-08-30T12:27:00Z</time>
      </trkpt>
      <trkpt lat="48.766511" lon="9.911682">
        <ele>690.6</ele>
        <time>2026-08-30T12:27:01Z</time>
      </trkpt>
      <trkpt lat="48.766501" lon="9.911702">
        <ele>690.8</ele>
        <time>2026-08-30T12:27:02Z</time>
      </trkpt>
      <trkpt lat="48.766490" lon="9.911715">
        <ele>691</ele>
        <time>2026-08-30T12:27:03Z</time>
      </trkpt>
      <trkpt lat="48.766480" lon="9.911728">
        <ele>691.2</ele>
        <time>2026-08-30T12:27:04Z</time>
      </trkpt>
      <trkpt lat="48.766472" lon="9.911750">
        <ele>691.4</ele>
        <time>2026-08-30T12:27:05Z</time>
      </trkpt>
      <trkpt lat="48.766463" lon="9.911768">
        <ele>691.6</ele>
        <time>2026-08-30T12:27:06Z</time>
      </trkpt>
      <trkpt lat="48.766457" lon="9.911783">
        <ele>691.8</ele>
        <time>2026-08-30T12:27:07Z</time>
      </trkpt>
      <trkpt lat="48.766448" lon="9.911797">
        <ele>692</ele>
        <time>2026-08-30T12:27:08Z</time>
      </trkpt>
      <trkpt lat="48.766445" lon="9.911798">
        <ele>692.4</ele>
        <time>2026-08-30T12:27:09Z</time>
      </trkpt>
      <trkpt lat="48.766437" lon="9.911810">
        <ele>692.6</ele>
        <time>2026-08-30T12:27:10Z</time>
      </trkpt>
      <trkpt lat="48.766432" lon="9.911825">
        <ele>692.8</ele>
        <time>2026-08-30T12:27:11Z</time>
      </trkpt>
      <trkpt lat="48.766425" lon="9.911843">
        <ele>693</ele>
        <time>2026-08-30T12:27:12Z</time>
      </trkpt>
      <trkpt lat="48.766422" lon="9.911859">
        <ele>693.2</ele>
        <time>2026-08-30T12:27:13Z</time>
      </trkpt>
      <trkpt lat="48.766419" lon="9.911878">
        <ele>693.4</ele>
        <time>2026-08-30T12:27:14Z</time>
      </trkpt>
      <trkpt lat="48.766414" lon="9.911899">
        <ele>693.6</ele>
        <time>2026-08-30T12:27:15Z</time>
      </trkpt>
      <trkpt lat="48.766406" lon="9.911922">
        <ele>693.6</ele>
        <time>2026-08-30T12:27:16Z</time>
      </trkpt>
      <trkpt lat="48.766401" lon="9.911938">
        <ele>693.8</ele>
        <time>2026-08-30T12:27:17Z</time>
      </trkpt>
      <trkpt lat="48.766394" lon="9.911952">
        <ele>694</ele>
        <time>2026-08-30T12:27:18Z</time>
      </trkpt>
      <trkpt lat="48.766384" lon="9.911970">
        <ele>694.2</ele>
        <time>2026-08-30T12:27:19Z</time>
      </trkpt>
      <trkpt lat="48.766380" lon="9.911980">
        <ele>694.4</ele>
        <time>2026-08-30T12:27:20Z</time>
      </trkpt>
      <trkpt lat="48.766381" lon="9.911981">
        <ele>694.6</ele>
        <time>2026-08-30T12:27:21Z</time>
      </trkpt>
      <trkpt lat="48.766375" lon="9.911992">
        <ele>694.8</ele>
        <time>2026-08-30T12:27:22Z</time>
      </trkpt>
      <trkpt lat="48.766361" lon="9.912021">
        <ele>695</ele>
        <time>2026-08-30T12:27:23Z</time>
      </trkpt>
      <trkpt lat="48.766347" lon="9.912040">
        <ele>695.4</ele>
        <time>2026-08-30T12:27:24Z</time>
      </trkpt>
      <trkpt lat="48.766336" lon="9.912060">
        <ele>695.6</ele>
        <time>2026-08-30T12:27:25Z</time>
      </trkpt>
      <trkpt lat="48.766328" lon="9.912070">
        <ele>695.8</ele>
        <time>2026-08-30T12:27:26Z</time>
      </trkpt>
      <trkpt lat="48.766319" lon="9.912083">
        <ele>696</ele>
        <time>2026-08-30T12:27:27Z</time>
      </trkpt>
      <trkpt lat="48.766311" lon="9.912096">
        <ele>696.2</ele>
        <time>2026-08-30T12:27:28Z</time>
      </trkpt>
      <trkpt lat="48.766303" lon="9.912109">
        <ele>696.4</ele>
        <time>2026-08-30T12:27:29Z</time>
      </trkpt>
      <trkpt lat="48.766297" lon="9.912122">
        <ele>696.6</ele>
        <time>2026-08-30T12:27:30Z</time>
      </trkpt>
      <trkpt lat="48.766289" lon="9.912135">
        <ele>697</ele>
        <time>2026-08-30T12:27:31Z</time>
      </trkpt>
      <trkpt lat="48.766278" lon="9.912155">
        <ele>697.2</ele>
        <time>2026-08-30T12:27:32Z</time>
      </trkpt>
      <trkpt lat="48.766268" lon="9.912173">
        <ele>697.4</ele>
        <time>2026-08-30T12:27:33Z</time>
      </trkpt>
      <trkpt lat="48.766262" lon="9.912187">
        <ele>697.6</ele>
        <time>2026-08-30T12:27:34Z</time>
      </trkpt>
      <trkpt lat="48.766256" lon="9.912196">
        <ele>698</ele>
        <time>2026-08-30T12:27:35Z</time>
      </trkpt>
      <trkpt lat="48.766256" lon="9.912210">
        <ele>698.2</ele>
        <time>2026-08-30T12:27:36Z</time>
      </trkpt>
      <trkpt lat="48.766252" lon="9.912223">
        <ele>698.4</ele>
        <time>2026-08-30T12:27:37Z</time>
      </trkpt>
      <trkpt lat="48.766246" lon="9.912236">
        <ele>698.6</ele>
        <time>2026-08-30T12:27:38Z</time>
      </trkpt>
      <trkpt lat="48.766244" lon="9.912247">
        <ele>698.8</ele>
        <time>2026-08-30T12:27:39Z</time>
      </trkpt>
      <trkpt lat="48.766240" lon="9.912248">
        <ele>699</ele>
        <time>2026-08-30T12:27:40Z</time>
      </trkpt>
      <trkpt lat="48.766234" lon="9.912256">
        <ele>699.2</ele>
        <time>2026-08-30T12:27:41Z</time>
      </trkpt>
      <trkpt lat="48.766228" lon="9.912276">
        <ele>699.4</ele>
        <time>2026-08-30T12:27:42Z</time>
      </trkpt>
      <trkpt lat="48.766223" lon="9.912292">
        <ele>699.6</ele>
        <time>2026-08-30T12:27:43Z</time>
      </trkpt>
      <trkpt lat="48.766216" lon="9.912316">
        <ele>699.8</ele>
        <time>2026-08-30T12:27:44Z</time>
      </trkpt>
      <trkpt lat="48.766205" lon="9.912338">
        <ele>700</ele>
        <time>2026-08-30T12:27:45Z</time>
      </trkpt>
      <trkpt lat="48.766193" lon="9.912358">
        <ele>700.2</ele>
        <time>2026-08-30T12:27:46Z</time>
      </trkpt>
      <trkpt lat="48.766188" lon="9.912379">
        <ele>700.4</ele>
        <time>2026-08-30T12:27:47Z</time>
      </trkpt>
      <trkpt lat="48.766186" lon="9.912394">
        <ele>700.6</ele>
        <time>2026-08-30T12:27:48Z</time>
      </trkpt>
      <trkpt lat="48.766183" lon="9.912410">
        <ele>701</ele>
        <time>2026-08-30T12:27:49Z</time>
      </trkpt>
      <trkpt lat="48.766177" lon="9.912433">
        <ele>701.2</ele>
        <time>2026-08-30T12:27:50Z</time>
      </trkpt>
      <trkpt lat="48.766171" lon="9.912448">
        <ele>701.4</ele>
        <time>2026-08-30T12:27:51Z</time>
      </trkpt>
      <trkpt lat="48.766166" lon="9.912456">
        <ele>701.6</ele>
        <time>2026-08-30T12:27:52Z</time>
      </trkpt>
      <trkpt lat="48.766161" lon="9.912469">
        <ele>701.8</ele>
        <time>2026-08-30T12:27:53Z</time>
      </trkpt>
      <trkpt lat="48.766154" lon="9.912479">
        <ele>702</ele>
        <time>2026-08-30T12:27:54Z</time>
      </trkpt>
      <trkpt lat="48.766152" lon="9.912492">
        <ele>702.2</ele>
        <time>2026-08-30T12:27:55Z</time>
      </trkpt>
      <trkpt lat="48.766144" lon="9.912510">
        <ele>702.4</ele>
        <time>2026-08-30T12:27:56Z</time>
      </trkpt>
      <trkpt lat="48.766138" lon="9.912520">
        <ele>702.6</ele>
        <time>2026-08-30T12:27:57Z</time>
      </trkpt>
      <trkpt lat="48.766130" lon="9.912534">
        <ele>702.8</ele>
        <time>2026-08-30T12:27:58Z</time>
      </trkpt>
      <trkpt lat="48.766118" lon="9.912552">
        <ele>703</ele>
        <time>2026-08-30T12:27:59Z</time>
      </trkpt>
      <trkpt lat="48.766107" lon="9.912573">
        <ele>703.2</ele>
        <time>2026-08-30T12:28:00Z</time>
      </trkpt>
      <trkpt lat="48.766097" lon="9.912594">
        <ele>703.4</ele>
        <time>2026-08-30T12:28:01Z</time>
      </trkpt>
      <trkpt lat="48.766093" lon="9.912612">
        <ele>703.6</ele>
        <time>2026-08-30T12:28:02Z</time>
      </trkpt>
      <trkpt lat="48.766088" lon="9.912622">
        <ele>703.6</ele>
        <time>2026-08-30T12:28:03Z</time>
      </trkpt>
      <trkpt lat="48.766082" lon="9.912641">
        <ele>703.8</ele>
        <time>2026-08-30T12:28:04Z</time>
      </trkpt>
      <trkpt lat="48.766077" lon="9.912657">
        <ele>704</ele>
        <time>2026-08-30T12:28:05Z</time>
      </trkpt>
      <trkpt lat="48.766069" lon="9.912678">
        <ele>704.2</ele>
        <time>2026-08-30T12:28:06Z</time>
      </trkpt>
      <trkpt lat="48.766067" lon="9.912692">
        <ele>704.4</ele>
        <time>2026-08-30T12:28:07Z</time>
      </trkpt>
      <trkpt lat="48.766064" lon="9.912706">
        <ele>704.6</ele>
        <time>2026-08-30T12:28:08Z</time>
      </trkpt>
      <trkpt lat="48.766058" lon="9.912716">
        <ele>704.8</ele>
        <time>2026-08-30T12:28:09Z</time>
      </trkpt>
      <trkpt lat="48.766053" lon="9.912735">
        <ele>704.8</ele>
        <time>2026-08-30T12:28:10Z</time>
      </trkpt>
      <trkpt lat="48.766045" lon="9.912746">
        <ele>705</ele>
        <time>2026-08-30T12:28:11Z</time>
      </trkpt>
      <trkpt lat="48.766041" lon="9.912765">
        <ele>705.2</ele>
        <time>2026-08-30T12:28:12Z</time>
      </trkpt>
      <trkpt lat="48.766037" lon="9.912783">
        <ele>705.4</ele>
        <time>2026-08-30T12:28:13Z</time>
      </trkpt>
      <trkpt lat="48.766032" lon="9.912801">
        <ele>705.6</ele>
        <time>2026-08-30T12:28:14Z</time>
      </trkpt>
      <trkpt lat="48.766028" lon="9.912816">
        <ele>705.6</ele>
        <time>2026-08-30T12:28:15Z</time>
      </trkpt>
      <trkpt lat="48.766026" lon="9.912824">
        <ele>705.8</ele>
        <time>2026-08-30T12:28:16Z</time>
      </trkpt>
      <trkpt lat="48.766024" lon="9.912844">
        <ele>706</ele>
        <time>2026-08-30T12:28:17Z</time>
      </trkpt>
      <trkpt lat="48.766019" lon="9.912863">
        <ele>706.2</ele>
        <time>2026-08-30T12:28:18Z</time>
      </trkpt>
      <trkpt lat="48.766010" lon="9.912885">
        <ele>706.4</ele>
        <time>2026-08-30T12:28:19Z</time>
      </trkpt>
      <trkpt lat="48.766008" lon="9.912902">
        <ele>706.6</ele>
        <time>2026-08-30T12:28:20Z</time>
      </trkpt>
      <trkpt lat="48.766005" lon="9.912916">
        <ele>706.8</ele>
        <time>2026-08-30T12:28:21Z</time>
      </trkpt>
      <trkpt lat="48.765999" lon="9.912934">
        <ele>706.8</ele>
        <time>2026-08-30T12:28:22Z</time>
      </trkpt>
      <trkpt lat="48.765997" lon="9.912954">
        <ele>707</ele>
        <time>2026-08-30T12:28:23Z</time>
      </trkpt>
      <trkpt lat="48.765992" lon="9.912971">
        <ele>707.2</ele>
        <time>2026-08-30T12:28:24Z</time>
      </trkpt>
      <trkpt lat="48.765988" lon="9.912988">
        <ele>707.4</ele>
        <time>2026-08-30T12:28:25Z</time>
      </trkpt>
      <trkpt lat="48.765982" lon="9.913002">
        <ele>707.6</ele>
        <time>2026-08-30T12:28:26Z</time>
      </trkpt>
      <trkpt lat="48.765974" lon="9.913019">
        <ele>707.6</ele>
        <time>2026-08-30T12:28:27Z</time>
      </trkpt>
      <trkpt lat="48.765972" lon="9.913037">
        <ele>707.8</ele>
        <time>2026-08-30T12:28:28Z</time>
      </trkpt>
      <trkpt lat="48.765967" lon="9.913050">
        <ele>708</ele>
        <time>2026-08-30T12:28:29Z</time>
      </trkpt>
      <trkpt lat="48.765961" lon="9.913066">
        <ele>708.2</ele>
        <time>2026-08-30T12:28:30Z</time>
      </trkpt>
      <trkpt lat="48.765957" lon="9.913085">
        <ele>708.4</ele>
        <time>2026-08-30T12:28:31Z</time>
      </trkpt>
      <trkpt lat="48.765950" lon="9.913099">
        <ele>708.4</ele>
        <time>2026-08-30T12:28:32Z</time>
      </trkpt>
      <trkpt lat="48.765940" lon="9.913117">
        <ele>708.6</ele>
        <time>2026-08-30T12:28:33Z</time>
      </trkpt>
      <trkpt lat="48.765936" lon="9.913133">
        <ele>708.8</ele>
        <time>2026-08-30T12:28:34Z</time>
      </trkpt>
      <trkpt lat="48.765937" lon="9.913149">
        <ele>709</ele>
        <time>2026-08-30T12:28:35Z</time>
      </trkpt>
      <trkpt lat="48.765936" lon="9.913169">
        <ele>709</ele>
        <time>2026-08-30T12:28:36Z</time>
      </trkpt>
      <trkpt lat="48.765929" lon="9.913190">
        <ele>709.2</ele>
        <time>2026-08-30T12:28:37Z</time>
      </trkpt>
      <trkpt lat="48.765929" lon="9.913200">
        <ele>709.4</ele>
        <time>2026-08-30T12:28:38Z</time>
      </trkpt>
      <trkpt lat="48.765923" lon="9.913217">
        <ele>709.4</ele>
        <time>2026-08-30T12:28:39Z</time>
      </trkpt>
      <trkpt lat="48.765914" lon="9.913235">
        <ele>709.6</ele>
        <time>2026-08-30T12:28:40Z</time>
      </trkpt>
      <trkpt lat="48.765907" lon="9.913249">
        <ele>709.8</ele>
        <time>2026-08-30T12:28:41Z</time>
      </trkpt>
      <trkpt lat="48.765896" lon="9.913267">
        <ele>710</ele>
        <time>2026-08-30T12:28:42Z</time>
      </trkpt>
      <trkpt lat="48.765888" lon="9.913285">
        <ele>710.2</ele>
        <time>2026-08-30T12:28:43Z</time>
      </trkpt>
      <trkpt lat="48.765879" lon="9.913307">
        <ele>710.4</ele>
        <time>2026-08-30T12:28:44Z</time>
      </trkpt>
      <trkpt lat="48.765870" lon="9.913323">
        <ele>710.6</ele>
        <time>2026-08-30T12:28:45Z</time>
      </trkpt>
      <trkpt lat="48.765862" lon="9.913343">
        <ele>710.8</ele>
        <time>2026-08-30T12:28:46Z</time>
      </trkpt>
      <trkpt lat="48.765854" lon="9.913355">
        <ele>711</ele>
        <time>2026-08-30T12:28:47Z</time>
      </trkpt>
      <trkpt lat="48.765849" lon="9.913371">
        <ele>711.2</ele>
        <time>2026-08-30T12:28:48Z</time>
      </trkpt>
      <trkpt lat="48.765842" lon="9.913387">
        <ele>711.4</ele>
        <time>2026-08-30T12:28:49Z</time>
      </trkpt>
      <trkpt lat="48.765839" lon="9.913406">
        <ele>711.6</ele>
        <time>2026-08-30T12:28:50Z</time>
      </trkpt>
      <trkpt lat="48.765834" lon="9.913420">
        <ele>711.8</ele>
        <time>2026-08-30T12:28:51Z</time>
      </trkpt>
      <trkpt lat="48.765830" lon="9.913437">
        <ele>712</ele>
        <time>2026-08-30T12:28:52Z</time>
      </trkpt>
      <trkpt lat="48.765830" lon="9.913460">
        <ele>712.2</ele>
        <time>2026-08-30T12:28:53Z</time>
      </trkpt>
      <trkpt lat="48.765828" lon="9.913478">
        <ele>712.2</ele>
        <time>2026-08-30T12:28:54Z</time>
      </trkpt>
      <trkpt lat="48.765822" lon="9.913504">
        <ele>712.6</ele>
        <time>2026-08-30T12:28:55Z</time>
      </trkpt>
      <trkpt lat="48.765819" lon="9.913520">
        <ele>712.6</ele>
        <time>2026-08-30T12:28:56Z</time>
      </trkpt>
      <trkpt lat="48.765820" lon="9.913535">
        <ele>712.8</ele>
        <time>2026-08-30T12:28:57Z</time>
      </trkpt>
      <trkpt lat="48.765818" lon="9.913552">
        <ele>713</ele>
        <time>2026-08-30T12:28:58Z</time>
      </trkpt>
      <trkpt lat="48.765813" lon="9.913567">
        <ele>713.2</ele>
        <time>2026-08-30T12:28:59Z</time>
      </trkpt>
      <trkpt lat="48.765814" lon="9.913571">
        <ele>713.4</ele>
        <time>2026-08-30T12:29:00Z</time>
      </trkpt>
      <trkpt lat="48.765816" lon="9.913585">
        <ele>713.6</ele>
        <time>2026-08-30T12:29:01Z</time>
      </trkpt>
      <trkpt lat="48.765812" lon="9.913603">
        <ele>713.8</ele>
        <time>2026-08-30T12:29:02Z</time>
      </trkpt>
      <trkpt lat="48.765808" lon="9.913620">
        <ele>714</ele>
        <time>2026-08-30T12:29:03Z</time>
      </trkpt>
      <trkpt lat="48.765804" lon="9.913633">
        <ele>714.2</ele>
        <time>2026-08-30T12:29:04Z</time>
      </trkpt>
      <trkpt lat="48.765801" lon="9.913652">
        <ele>714.4</ele>
        <time>2026-08-30T12:29:05Z</time>
      </trkpt>
      <trkpt lat="48.765796" lon="9.913667">
        <ele>714.6</ele>
        <time>2026-08-30T12:29:06Z</time>
      </trkpt>
      <trkpt lat="48.765793" lon="9.913678">
        <ele>714.8</ele>
        <time>2026-08-30T12:29:07Z</time>
      </trkpt>
      <trkpt lat="48.765791" lon="9.913681">
        <ele>715</ele>
        <time>2026-08-30T12:29:08Z</time>
      </trkpt>
      <trkpt lat="48.765788" lon="9.913697">
        <ele>715.2</ele>
        <time>2026-08-30T12:29:09Z</time>
      </trkpt>
      <trkpt lat="48.765787" lon="9.913705">
        <ele>715.4</ele>
        <time>2026-08-30T12:29:10Z</time>
      </trkpt>
      <trkpt lat="48.765785" lon="9.913712">
        <ele>715.4</ele>
        <time>2026-08-30T12:29:11Z</time>
      </trkpt>
      <trkpt lat="48.765784" lon="9.913728">
        <ele>715.6</ele>
        <time>2026-08-30T12:29:12Z</time>
      </trkpt>
      <trkpt lat="48.765784" lon="9.913742">
        <ele>715.8</ele>
        <time>2026-08-30T12:29:13Z</time>
      </trkpt>
      <trkpt lat="48.765781" lon="9.913757">
        <ele>716</ele>
        <time>2026-08-30T12:29:14Z</time>
      </trkpt>
      <trkpt lat="48.765776" lon="9.913783">
        <ele>716.2</ele>
        <time>2026-08-30T12:29:15Z</time>
      </trkpt>
      <trkpt lat="48.765770" lon="9.913806">
        <ele>716.4</ele>
        <time>2026-08-30T12:29:16Z</time>
      </trkpt>
      <trkpt lat="48.765767" lon="9.913821">
        <ele>716.6</ele>
        <time>2026-08-30T12:29:17Z</time>
      </trkpt>
      <trkpt lat="48.765760" lon="9.913829">
        <ele>716.8</ele>
        <time>2026-08-30T12:29:18Z</time>
      </trkpt>
      <trkpt lat="48.765755" lon="9.913856">
        <ele>717</ele>
        <time>2026-08-30T12:29:19Z</time>
      </trkpt>
      <trkpt lat="48.765751" lon="9.913873">
        <ele>717.2</ele>
        <time>2026-08-30T12:29:20Z</time>
      </trkpt>
      <trkpt lat="48.765750" lon="9.913892">
        <ele>717.4</ele>
        <time>2026-08-30T12:29:21Z</time>
      </trkpt>
      <trkpt lat="48.765747" lon="9.913910">
        <ele>717.6</ele>
        <time>2026-08-30T12:29:22Z</time>
      </trkpt>
      <trkpt lat="48.765746" lon="9.913929">
        <ele>717.6</ele>
        <time>2026-08-30T12:29:23Z</time>
      </trkpt>
      <trkpt lat="48.765742" lon="9.913941">
        <ele>717.8</ele>
        <time>2026-08-30T12:29:24Z</time>
      </trkpt>
      <trkpt lat="48.765742" lon="9.913948">
        <ele>718.2</ele>
        <time>2026-08-30T12:29:25Z</time>
      </trkpt>
      <trkpt lat="48.765741" lon="9.913963">
        <ele>718.2</ele>
        <time>2026-08-30T12:29:26Z</time>
      </trkpt>
      <trkpt lat="48.765743" lon="9.913974">
        <ele>718.4</ele>
        <time>2026-08-30T12:29:27Z</time>
      </trkpt>
      <trkpt lat="48.765742" lon="9.913987">
        <ele>718.6</ele>
        <time>2026-08-30T12:29:28Z</time>
      </trkpt>
      <trkpt lat="48.765741" lon="9.914012">
        <ele>718.8</ele>
        <time>2026-08-30T12:29:29Z</time>
      </trkpt>
      <trkpt lat="48.765737" lon="9.914022">
        <ele>719</ele>
        <time>2026-08-30T12:29:30Z</time>
      </trkpt>
      <trkpt lat="48.765737" lon="9.914038">
        <ele>719.2</ele>
        <time>2026-08-30T12:29:31Z</time>
      </trkpt>
      <trkpt lat="48.765733" lon="9.914051">
        <ele>719.4</ele>
        <time>2026-08-30T12:29:32Z</time>
      </trkpt>
      <trkpt lat="48.765734" lon="9.914065">
        <ele>719.6</ele>
        <time>2026-08-30T12:29:33Z</time>
      </trkpt>
      <trkpt lat="48.765729" lon="9.914086">
        <ele>719.8</ele>
        <time>2026-08-30T12:29:34Z</time>
      </trkpt>
      <trkpt lat="48.765729" lon="9.914108">
        <ele>720</ele>
        <time>2026-08-30T12:29:35Z</time>
      </trkpt>
      <trkpt lat="48.765729" lon="9.914122">
        <ele>720.2</ele>
        <time>2026-08-30T12:29:36Z</time>
      </trkpt>
      <trkpt lat="48.765726" lon="9.914133">
        <ele>720.4</ele>
        <time>2026-08-30T12:29:37Z</time>
      </trkpt>
      <trkpt lat="48.765726" lon="9.914152">
        <ele>720.4</ele>
        <time>2026-08-30T12:29:38Z</time>
      </trkpt>
      <trkpt lat="48.765724" lon="9.914171">
        <ele>720.6</ele>
        <time>2026-08-30T12:29:39Z</time>
      </trkpt>
      <trkpt lat="48.765724" lon="9.914185">
        <ele>721</ele>
        <time>2026-08-30T12:29:40Z</time>
      </trkpt>
      <trkpt lat="48.765726" lon="9.914196">
        <ele>721.2</ele>
        <time>2026-08-30T12:29:41Z</time>
      </trkpt>
      <trkpt lat="48.765727" lon="9.914217">
        <ele>721.4</ele>
        <time>2026-08-30T12:29:42Z</time>
      </trkpt>
      <trkpt lat="48.765725" lon="9.914232">
        <ele>721.6</ele>
        <time>2026-08-30T12:29:43Z</time>
      </trkpt>
      <trkpt lat="48.765719" lon="9.914254">
        <ele>721.8</ele>
        <time>2026-08-30T12:29:44Z</time>
      </trkpt>
      <trkpt lat="48.765715" lon="9.914266">
        <ele>722</ele>
        <time>2026-08-30T12:29:45Z</time>
      </trkpt>
      <trkpt lat="48.765715" lon="9.914276">
        <ele>722.2</ele>
        <time>2026-08-30T12:29:46Z</time>
      </trkpt>
      <trkpt lat="48.765711" lon="9.914294">
        <ele>722.4</ele>
        <time>2026-08-30T12:29:47Z</time>
      </trkpt>
      <trkpt lat="48.765711" lon="9.914305">
        <ele>722.6</ele>
        <time>2026-08-30T12:29:48Z</time>
      </trkpt>
      <trkpt lat="48.765709" lon="9.914319">
        <ele>722.8</ele>
        <time>2026-08-30T12:29:49Z</time>
      </trkpt>
      <trkpt lat="48.765708" lon="9.914339">
        <ele>723</ele>
        <time>2026-08-30T12:29:50Z</time>
      </trkpt>
      <trkpt lat="48.765704" lon="9.914365">
        <ele>723.2</ele>
        <time>2026-08-30T12:29:51Z</time>
      </trkpt>
      <trkpt lat="48.765703" lon="9.914377">
        <ele>723.4</ele>
        <time>2026-08-30T12:29:52Z</time>
      </trkpt>
      <trkpt lat="48.765702" lon="9.914395">
        <ele>723.6</ele>
        <time>2026-08-30T12:29:53Z</time>
      </trkpt>
      <trkpt lat="48.765705" lon="9.914403">
        <ele>723.8</ele>
        <time>2026-08-30T12:29:54Z</time>
      </trkpt>
      <trkpt lat="48.765704" lon="9.914411">
        <ele>724</ele>
        <time>2026-08-30T12:29:55Z</time>
      </trkpt>
      <trkpt lat="48.765703" lon="9.914424">
        <ele>724.2</ele>
        <time>2026-08-30T12:29:56Z</time>
      </trkpt>
      <trkpt lat="48.765701" lon="9.914433">
        <ele>724.4</ele>
        <time>2026-08-30T12:29:57Z</time>
      </trkpt>
      <trkpt lat="48.765699" lon="9.914448">
        <ele>724.6</ele>
        <time>2026-08-30T12:29:58Z</time>
      </trkpt>
      <trkpt lat="48.765696" lon="9.914464">
        <ele>724.8</ele>
        <time>2026-08-30T12:29:59Z</time>
      </trkpt>
      <trkpt lat="48.765693" lon="9.914477">
        <ele>725</ele>
        <time>2026-08-30T12:30:00Z</time>
      </trkpt>
      <trkpt lat="48.765691" lon="9.914497">
        <ele>725.2</ele>
        <time>2026-08-30T12:30:01Z</time>
      </trkpt>
      <trkpt lat="48.765687" lon="9.914508">
        <ele>725.4</ele>
        <time>2026-08-30T12:30:02Z</time>
      </trkpt>
      <trkpt lat="48.765686" lon="9.914520">
        <ele>725.6</ele>
        <time>2026-08-30T12:30:03Z</time>
      </trkpt>
      <trkpt lat="48.765688" lon="9.914532">
        <ele>725.6</ele>
        <time>2026-08-30T12:30:04Z</time>
      </trkpt>
      <trkpt lat="48.765686" lon="9.914544">
        <ele>726</ele>
        <time>2026-08-30T12:30:05Z</time>
      </trkpt>
      <trkpt lat="48.765684" lon="9.914556">
        <ele>726</ele>
        <time>2026-08-30T12:30:06Z</time>
      </trkpt>
      <trkpt lat="48.765683" lon="9.914578">
        <ele>726.2</ele>
        <time>2026-08-30T12:30:07Z</time>
      </trkpt>
      <trkpt lat="48.765679" lon="9.914589">
        <ele>726.4</ele>
        <time>2026-08-30T12:30:08Z</time>
      </trkpt>
      <trkpt lat="48.765677" lon="9.914608">
        <ele>726.6</ele>
        <time>2026-08-30T12:30:09Z</time>
      </trkpt>
      <trkpt lat="48.765673" lon="9.914627">
        <ele>726.8</ele>
        <time>2026-08-30T12:30:10Z</time>
      </trkpt>
      <trkpt lat="48.765670" lon="9.914648">
        <ele>727.2</ele>
        <time>2026-08-30T12:30:11Z</time>
      </trkpt>
      <trkpt lat="48.765665" lon="9.914664">
        <ele>727.4</ele>
        <time>2026-08-30T12:30:12Z</time>
      </trkpt>
      <trkpt lat="48.765659" lon="9.914672">
        <ele>727.6</ele>
        <time>2026-08-30T12:30:13Z</time>
      </trkpt>
      <trkpt lat="48.765654" lon="9.914683">
        <ele>727.8</ele>
        <time>2026-08-30T12:30:14Z</time>
      </trkpt>
      <trkpt lat="48.765648" lon="9.914699">
        <ele>728.2</ele>
        <time>2026-08-30T12:30:15Z</time>
      </trkpt>
      <trkpt lat="48.765647" lon="9.914711">
        <ele>728.4</ele>
        <time>2026-08-30T12:30:16Z</time>
      </trkpt>
      <trkpt lat="48.765645" lon="9.914724">
        <ele>728.6</ele>
        <time>2026-08-30T12:30:17Z</time>
      </trkpt>
      <trkpt lat="48.765642" lon="9.914729">
        <ele>728.8</ele>
        <time>2026-08-30T12:30:18Z</time>
      </trkpt>
      <trkpt lat="48.765637" lon="9.914743">
        <ele>729</ele>
        <time>2026-08-30T12:30:19Z</time>
      </trkpt>
      <trkpt lat="48.765640" lon="9.914758">
        <ele>729.4</ele>
        <time>2026-08-30T12:30:20Z</time>
      </trkpt>
      <trkpt lat="48.765641" lon="9.914767">
        <ele>729.6</ele>
        <time>2026-08-30T12:30:21Z</time>
      </trkpt>
      <trkpt lat="48.765640" lon="9.914777">
        <ele>729.8</ele>
        <time>2026-08-30T12:30:22Z</time>
      </trkpt>
      <trkpt lat="48.765638" lon="9.914792">
        <ele>730</ele>
        <time>2026-08-30T12:30:23Z</time>
      </trkpt>
      <trkpt lat="48.765636" lon="9.914811">
        <ele>730.2</ele>
        <time>2026-08-30T12:30:24Z</time>
      </trkpt>
      <trkpt lat="48.765629" lon="9.914821">
        <ele>730.4</ele>
        <time>2026-08-30T12:30:25Z</time>
      </trkpt>
      <trkpt lat="48.765624" lon="9.914832">
        <ele>730.6</ele>
        <time>2026-08-30T12:30:26Z</time>
      </trkpt>
      <trkpt lat="48.765623" lon="9.914843">
        <ele>730.8</ele>
        <time>2026-08-30T12:30:27Z</time>
      </trkpt>
      <trkpt lat="48.765618" lon="9.914857">
        <ele>731</ele>
        <time>2026-08-30T12:30:28Z</time>
      </trkpt>
      <trkpt lat="48.765616" lon="9.914867">
        <ele>731.2</ele>
        <time>2026-08-30T12:30:29Z</time>
      </trkpt>
      <trkpt lat="48.765609" lon="9.914885">
        <ele>731.6</ele>
        <time>2026-08-30T12:30:30Z</time>
      </trkpt>
      <trkpt lat="48.765604" lon="9.914902">
        <ele>731.8</ele>
        <time>2026-08-30T12:30:31Z</time>
      </trkpt>
      <trkpt lat="48.765599" lon="9.914921">
        <ele>732</ele>
        <time>2026-08-30T12:30:32Z</time>
      </trkpt>
      <trkpt lat="48.765593" lon="9.914935">
        <ele>732.2</ele>
        <time>2026-08-30T12:30:33Z</time>
      </trkpt>
      <trkpt lat="48.765582" lon="9.914954">
        <ele>732.4</ele>
        <time>2026-08-30T12:30:34Z</time>
      </trkpt>
      <trkpt lat="48.765575" lon="9.914965">
        <ele>732.6</ele>
        <time>2026-08-30T12:30:35Z</time>
      </trkpt>
      <trkpt lat="48.765572" lon="9.914977">
        <ele>733</ele>
        <time>2026-08-30T12:30:36Z</time>
      </trkpt>
      <trkpt lat="48.765570" lon="9.914981">
        <ele>733.2</ele>
        <time>2026-08-30T12:30:37Z</time>
      </trkpt>
      <trkpt lat="48.765564" lon="9.914990">
        <ele>733.4</ele>
        <time>2026-08-30T12:30:38Z</time>
      </trkpt>
      <trkpt lat="48.765558" lon="9.915001">
        <ele>733.6</ele>
        <time>2026-08-30T12:30:39Z</time>
      </trkpt>
      <trkpt lat="48.765550" lon="9.915014">
        <ele>733.8</ele>
        <time>2026-08-30T12:30:40Z</time>
      </trkpt>
      <trkpt lat="48.765548" lon="9.915023">
        <ele>734</ele>
        <time>2026-08-30T12:30:41Z</time>
      </trkpt>
      <trkpt lat="48.765543" lon="9.915037">
        <ele>734.2</ele>
        <time>2026-08-30T12:30:42Z</time>
      </trkpt>
      <trkpt lat="48.765540" lon="9.915048">
        <ele>734.4</ele>
        <time>2026-08-30T12:30:43Z</time>
      </trkpt>
      <trkpt lat="48.765535" lon="9.915066">
        <ele>734.6</ele>
        <time>2026-08-30T12:30:44Z</time>
      </trkpt>
      <trkpt lat="48.765531" lon="9.915086">
        <ele>734.8</ele>
        <time>2026-08-30T12:30:45Z</time>
      </trkpt>
      <trkpt lat="48.765526" lon="9.915101">
        <ele>735</ele>
        <time>2026-08-30T12:30:46Z</time>
      </trkpt>
      <trkpt lat="48.765518" lon="9.915113">
        <ele>735.2</ele>
        <time>2026-08-30T12:30:47Z</time>
      </trkpt>
      <trkpt lat="48.765512" lon="9.915131">
        <ele>735.4</ele>
        <time>2026-08-30T12:30:48Z</time>
      </trkpt>
      <trkpt lat="48.765510" lon="9.915151">
        <ele>735.6</ele>
        <time>2026-08-30T12:30:49Z</time>
      </trkpt>
      <trkpt lat="48.765508" lon="9.915163">
        <ele>735.8</ele>
        <time>2026-08-30T12:30:50Z</time>
      </trkpt>
      <trkpt lat="48.765504" lon="9.915182">
        <ele>736</ele>
        <time>2026-08-30T12:30:51Z</time>
      </trkpt>
      <trkpt lat="48.765496" lon="9.915195">
        <ele>736.2</ele>
        <time>2026-08-30T12:30:52Z</time>
      </trkpt>
      <trkpt lat="48.765491" lon="9.915208">
        <ele>736.2</ele>
        <time>2026-08-30T12:30:53Z</time>
      </trkpt>
      <trkpt lat="48.765482" lon="9.915222">
        <ele>736.4</ele>
        <time>2026-08-30T12:30:54Z</time>
      </trkpt>
      <trkpt lat="48.765472" lon="9.915238">
        <ele>736.6</ele>
        <time>2026-08-30T12:30:55Z</time>
      </trkpt>
      <trkpt lat="48.765468" lon="9.915248">
        <ele>737</ele>
        <time>2026-08-30T12:30:56Z</time>
      </trkpt>
      <trkpt lat="48.765462" lon="9.915259">
        <ele>737.2</ele>
        <time>2026-08-30T12:30:57Z</time>
      </trkpt>
      <trkpt lat="48.765452" lon="9.915270">
        <ele>737.4</ele>
        <time>2026-08-30T12:30:58Z</time>
      </trkpt>
      <trkpt lat="48.765446" lon="9.915285">
        <ele>737.4</ele>
        <time>2026-08-30T12:30:59Z</time>
      </trkpt>
      <trkpt lat="48.765441" lon="9.915295">
        <ele>737.6</ele>
        <time>2026-08-30T12:31:00Z</time>
      </trkpt>
      <trkpt lat="48.765434" lon="9.915302">
        <ele>738</ele>
        <time>2026-08-30T12:31:01Z</time>
      </trkpt>
      <trkpt lat="48.765423" lon="9.915307">
        <ele>738.2</ele>
        <time>2026-08-30T12:31:02Z</time>
      </trkpt>
      <trkpt lat="48.765411" lon="9.915317">
        <ele>738.4</ele>
        <time>2026-08-30T12:31:03Z</time>
      </trkpt>
      <trkpt lat="48.765405" lon="9.915324">
        <ele>738.4</ele>
        <time>2026-08-30T12:31:04Z</time>
      </trkpt>
      <trkpt lat="48.765396" lon="9.915325">
        <ele>738.6</ele>
        <time>2026-08-30T12:31:05Z</time>
      </trkpt>
      <trkpt lat="48.765394" lon="9.915330">
        <ele>738.8</ele>
        <time>2026-08-30T12:31:06Z</time>
      </trkpt>
      <trkpt lat="48.765389" lon="9.915334">
        <ele>739</ele>
        <time>2026-08-30T12:31:07Z</time>
      </trkpt>
      <trkpt lat="48.765387" lon="9.915343">
        <ele>739.2</ele>
        <time>2026-08-30T12:31:08Z</time>
      </trkpt>
      <trkpt lat="48.765379" lon="9.915353">
        <ele>739.4</ele>
        <time>2026-08-30T12:31:09Z</time>
      </trkpt>
      <trkpt lat="48.765375" lon="9.915354">
        <ele>739.6</ele>
        <time>2026-08-30T12:31:10Z</time>
      </trkpt>
      <trkpt lat="48.765364" lon="9.915364">
        <ele>739.8</ele>
        <time>2026-08-30T12:31:11Z</time>
      </trkpt>
      <trkpt lat="48.765358" lon="9.915373">
        <ele>740</ele>
        <time>2026-08-30T12:31:12Z</time>
      </trkpt>
      <trkpt lat="48.765354" lon="9.915384">
        <ele>740.2</ele>
        <time>2026-08-30T12:31:13Z</time>
      </trkpt>
      <trkpt lat="48.765349" lon="9.915381">
        <ele>740.4</ele>
        <time>2026-08-30T12:31:14Z</time>
      </trkpt>
      <trkpt lat="48.765336" lon="9.915392">
        <ele>740.6</ele>
        <time>2026-08-30T12:31:15Z</time>
      </trkpt>
      <trkpt lat="48.765325" lon="9.915407">
        <ele>740.8</ele>
        <time>2026-08-30T12:31:16Z</time>
      </trkpt>
      <trkpt lat="48.765314" lon="9.915416">
        <ele>741</ele>
        <time>2026-08-30T12:31:17Z</time>
      </trkpt>
      <trkpt lat="48.765305" lon="9.915427">
        <ele>741.2</ele>
        <time>2026-08-30T12:31:18Z</time>
      </trkpt>
      <trkpt lat="48.765293" lon="9.915435">
        <ele>741.4</ele>
        <time>2026-08-30T12:31:19Z</time>
      </trkpt>
      <trkpt lat="48.765281" lon="9.915437">
        <ele>741.6</ele>
        <time>2026-08-30T12:31:20Z</time>
      </trkpt>
      <trkpt lat="48.765273" lon="9.915438">
        <ele>742</ele>
        <time>2026-08-30T12:31:21Z</time>
      </trkpt>
      <trkpt lat="48.765260" lon="9.915440">
        <ele>742.2</ele>
        <time>2026-08-30T12:31:22Z</time>
      </trkpt>
      <trkpt lat="48.765252" lon="9.915440">
        <ele>742.4</ele>
        <time>2026-08-30T12:31:23Z</time>
      </trkpt>
      <trkpt lat="48.765239" lon="9.915445">
        <ele>742.6</ele>
        <time>2026-08-30T12:31:24Z</time>
      </trkpt>
      <trkpt lat="48.765230" lon="9.915450">
        <ele>742.8</ele>
        <time>2026-08-30T12:31:25Z</time>
      </trkpt>
      <trkpt lat="48.765213" lon="9.915454">
        <ele>743</ele>
        <time>2026-08-30T12:31:26Z</time>
      </trkpt>
      <trkpt lat="48.765200" lon="9.915459">
        <ele>743.2</ele>
        <time>2026-08-30T12:31:27Z</time>
      </trkpt>
      <trkpt lat="48.765187" lon="9.915468">
        <ele>743.4</ele>
        <time>2026-08-30T12:31:28Z</time>
      </trkpt>
      <trkpt lat="48.765171" lon="9.915472">
        <ele>743.6</ele>
        <time>2026-08-30T12:31:29Z</time>
      </trkpt>
      <trkpt lat="48.765153" lon="9.915473">
        <ele>743.8</ele>
        <time>2026-08-30T12:31:30Z</time>
      </trkpt>
      <trkpt lat="48.765143" lon="9.915476">
        <ele>744</ele>
        <time>2026-08-30T12:31:31Z</time>
      </trkpt>
      <trkpt lat="48.765132" lon="9.915484">
        <ele>744.2</ele>
        <time>2026-08-30T12:31:32Z</time>
      </trkpt>
      <trkpt lat="48.765120" lon="9.915489">
        <ele>744.4</ele>
        <time>2026-08-30T12:31:33Z</time>
      </trkpt>
      <trkpt lat="48.765110" lon="9.915488">
        <ele>744.6</ele>
        <time>2026-08-30T12:31:34Z</time>
      </trkpt>
      <trkpt lat="48.765096" lon="9.915485">
        <ele>744.6</ele>
        <time>2026-08-30T12:31:35Z</time>
      </trkpt>
      <trkpt lat="48.765085" lon="9.915487">
        <ele>744.8</ele>
        <time>2026-08-30T12:31:36Z</time>
      </trkpt>
      <trkpt lat="48.765072" lon="9.915489">
        <ele>745</ele>
        <time>2026-08-30T12:31:37Z</time>
      </trkpt>
      <trkpt lat="48.765061" lon="9.915497">
        <ele>745.2</ele>
        <time>2026-08-30T12:31:38Z</time>
      </trkpt>
      <trkpt lat="48.765047" lon="9.915507">
        <ele>745.4</ele>
        <time>2026-08-30T12:31:39Z</time>
      </trkpt>
      <trkpt lat="48.765034" lon="9.915505">
        <ele>745.6</ele>
        <time>2026-08-30T12:31:40Z</time>
      </trkpt>
      <trkpt lat="48.765015" lon="9.915510">
        <ele>745.8</ele>
        <time>2026-08-30T12:31:41Z</time>
      </trkpt>
      <trkpt lat="48.765001" lon="9.915516">
        <ele>746</ele>
        <time>2026-08-30T12:31:42Z</time>
      </trkpt>
      <trkpt lat="48.764985" lon="9.915520">
        <ele>746.2</ele>
        <time>2026-08-30T12:31:43Z</time>
      </trkpt>
      <trkpt lat="48.764971" lon="9.915527">
        <ele>746.4</ele>
        <time>2026-08-30T12:31:44Z</time>
      </trkpt>
      <trkpt lat="48.764961" lon="9.915528">
        <ele>746.6</ele>
        <time>2026-08-30T12:31:45Z</time>
      </trkpt>
      <trkpt lat="48.764951" lon="9.915530">
        <ele>746.8</ele>
        <time>2026-08-30T12:31:46Z</time>
      </trkpt>
      <trkpt lat="48.764939" lon="9.915537">
        <ele>746.8</ele>
        <time>2026-08-30T12:31:47Z</time>
      </trkpt>
      <trkpt lat="48.764930" lon="9.915542">
        <ele>747</ele>
        <time>2026-08-30T12:31:48Z</time>
      </trkpt>
      <trkpt lat="48.764919" lon="9.915547">
        <ele>747.2</ele>
        <time>2026-08-30T12:31:49Z</time>
      </trkpt>
      <trkpt lat="48.764907" lon="9.915552">
        <ele>747.4</ele>
        <time>2026-08-30T12:31:50Z</time>
      </trkpt>
      <trkpt lat="48.764891" lon="9.915555">
        <ele>747.6</ele>
        <time>2026-08-30T12:31:51Z</time>
      </trkpt>
      <trkpt lat="48.764871" lon="9.915555">
        <ele>747.8</ele>
        <time>2026-08-30T12:31:52Z</time>
      </trkpt>
      <trkpt lat="48.764854" lon="9.915552">
        <ele>748</ele>
        <time>2026-08-30T12:31:53Z</time>
      </trkpt>
      <trkpt lat="48.764839" lon="9.915557">
        <ele>748</ele>
        <time>2026-08-30T12:31:54Z</time>
      </trkpt>
      <trkpt lat="48.764828" lon="9.915562">
        <ele>748.2</ele>
        <time>2026-08-30T12:31:55Z</time>
      </trkpt>
      <trkpt lat="48.764816" lon="9.915564">
        <ele>748.4</ele>
        <time>2026-08-30T12:31:56Z</time>
      </trkpt>
      <trkpt lat="48.764804" lon="9.915568">
        <ele>748.6</ele>
        <time>2026-08-30T12:31:57Z</time>
      </trkpt>
      <trkpt lat="48.764788" lon="9.915572">
        <ele>748.6</ele>
        <time>2026-08-30T12:31:58Z</time>
      </trkpt>
      <trkpt lat="48.764773" lon="9.915574">
        <ele>748.8</ele>
        <time>2026-08-30T12:31:59Z</time>
      </trkpt>
      <trkpt lat="48.764759" lon="9.915575">
        <ele>749</ele>
        <time>2026-08-30T12:32:00Z</time>
      </trkpt>
      <trkpt lat="48.764744" lon="9.915578">
        <ele>749.2</ele>
        <time>2026-08-30T12:32:01Z</time>
      </trkpt>
      <trkpt lat="48.764733" lon="9.915581">
        <ele>749.4</ele>
        <time>2026-08-30T12:32:02Z</time>
      </trkpt>
      <trkpt lat="48.764720" lon="9.915584">
        <ele>749.6</ele>
        <time>2026-08-30T12:32:03Z</time>
      </trkpt>
      <trkpt lat="48.764707" lon="9.915589">
        <ele>749.8</ele>
        <time>2026-08-30T12:32:04Z</time>
      </trkpt>
      <trkpt lat="48.764695" lon="9.915599">
        <ele>750</ele>
        <time>2026-08-30T12:32:05Z</time>
      </trkpt>
      <trkpt lat="48.764681" lon="9.915606">
        <ele>750.2</ele>
        <time>2026-08-30T12:32:06Z</time>
      </trkpt>
      <trkpt lat="48.764667" lon="9.915611">
        <ele>750.4</ele>
        <time>2026-08-30T12:32:07Z</time>
      </trkpt>
      <trkpt lat="48.764657" lon="9.915615">
        <ele>750.6</ele>
        <time>2026-08-30T12:32:08Z</time>
      </trkpt>
      <trkpt lat="48.764646" lon="9.915617">
        <ele>750.8</ele>
        <time>2026-08-30T12:32:09Z</time>
      </trkpt>
      <trkpt lat="48.764631" lon="9.915620">
        <ele>750.8</ele>
        <time>2026-08-30T12:32:10Z</time>
      </trkpt>
      <trkpt lat="48.764613" lon="9.915625">
        <ele>751.2</ele>
        <time>2026-08-30T12:32:11Z</time>
      </trkpt>
      <trkpt lat="48.764595" lon="9.915628">
        <ele>751.2</ele>
        <time>2026-08-30T12:32:12Z</time>
      </trkpt>
      <trkpt lat="48.764574" lon="9.915633">
        <ele>751.4</ele>
        <time>2026-08-30T12:32:13Z</time>
      </trkpt>
      <trkpt lat="48.764555" lon="9.915637">
        <ele>751.8</ele>
        <time>2026-08-30T12:32:14Z</time>
      </trkpt>
      <trkpt lat="48.764538" lon="9.915644">
        <ele>751.8</ele>
        <time>2026-08-30T12:32:15Z</time>
      </trkpt>
      <trkpt lat="48.764521" lon="9.915650">
        <ele>752.2</ele>
        <time>2026-08-30T12:32:16Z</time>
      </trkpt>
      <trkpt lat="48.764499" lon="9.915657">
        <ele>752.4</ele>
        <time>2026-08-30T12:32:17Z</time>
      </trkpt>
      <trkpt lat="48.764480" lon="9.915661">
        <ele>752.6</ele>
        <time>2026-08-30T12:32:18Z</time>
      </trkpt>
      <trkpt lat="48.764461" lon="9.915662">
        <ele>752.6</ele>
        <time>2026-08-30T12:32:19Z</time>
      </trkpt>
      <trkpt lat="48.764441" lon="9.915665">
        <ele>752.8</ele>
        <time>2026-08-30T12:32:20Z</time>
      </trkpt>
      <trkpt lat="48.764421" lon="9.915665">
        <ele>753</ele>
        <time>2026-08-30T12:32:21Z</time>
      </trkpt>
      <trkpt lat="48.764405" lon="9.915658">
        <ele>753.2</ele>
        <time>2026-08-30T12:32:22Z</time>
      </trkpt>
      <trkpt lat="48.764387" lon="9.915652">
        <ele>753.2</ele>
        <time>2026-08-30T12:32:23Z</time>
      </trkpt>
      <trkpt lat="48.764368" lon="9.915645">
        <ele>753.4</ele>
        <time>2026-08-30T12:32:24Z</time>
      </trkpt>
      <trkpt lat="48.764348" lon="9.915643">
        <ele>753.6</ele>
        <time>2026-08-30T12:32:25Z</time>
      </trkpt>
      <trkpt lat="48.764324" lon="9.915643">
        <ele>753.6</ele>
        <time>2026-08-30T12:32:26Z</time>
      </trkpt>
      <trkpt lat="48.764299" lon="9.915642">
        <ele>753.8</ele>
        <time>2026-08-30T12:32:27Z</time>
      </trkpt>
      <trkpt lat="48.764281" lon="9.915636">
        <ele>754</ele>
        <time>2026-08-30T12:32:28Z</time>
      </trkpt>
      <trkpt lat="48.764261" lon="9.915633">
        <ele>754</ele>
        <time>2026-08-30T12:32:29Z</time>
      </trkpt>
      <trkpt lat="48.764238" lon="9.915623">
        <ele>754.2</ele>
        <time>2026-08-30T12:32:30Z</time>
      </trkpt>
      <trkpt lat="48.764214" lon="9.915615">
        <ele>754.2</ele>
        <time>2026-08-30T12:32:31Z</time>
      </trkpt>
      <trkpt lat="48.764189" lon="9.915599">
        <ele>754.2</ele>
        <time>2026-08-30T12:32:32Z</time>
      </trkpt>
      <trkpt lat="48.764167" lon="9.915575">
        <ele>754.4</ele>
        <time>2026-08-30T12:32:33Z</time>
      </trkpt>
      <trkpt lat="48.764152" lon="9.915549">
        <ele>754.4</ele>
        <time>2026-08-30T12:32:34Z</time>
      </trkpt>
      <trkpt lat="48.764150" lon="9.915521">
        <ele>754.4</ele>
        <time>2026-08-30T12:32:35Z</time>
      </trkpt>
      <trkpt lat="48.764146" lon="9.915490">
        <ele>754.4</ele>
        <time>2026-08-30T12:32:36Z</time>
      </trkpt>
      <trkpt lat="48.764135" lon="9.915456">
        <ele>754.6</ele>
        <time>2026-08-30T12:32:37Z</time>
      </trkpt>
      <trkpt lat="48.764135" lon="9.915418">
        <ele>754.6</ele>
        <time>2026-08-30T12:32:38Z</time>
      </trkpt>
      <trkpt lat="48.764132" lon="9.915378">
        <ele>754.6</ele>
        <time>2026-08-30T12:32:39Z</time>
      </trkpt>
      <trkpt lat="48.764125" lon="9.915335">
        <ele>754.6</ele>
        <time>2026-08-30T12:32:40Z</time>
      </trkpt>
      <trkpt lat="48.764114" lon="9.915296">
        <ele>754.6</ele>
        <time>2026-08-30T12:32:41Z</time>
      </trkpt>
      <trkpt lat="48.764103" lon="9.915255">
        <ele>754.6</ele>
        <time>2026-08-30T12:32:42Z</time>
      </trkpt>
      <trkpt lat="48.764093" lon="9.915215">
        <ele>754.6</ele>
        <time>2026-08-30T12:32:43Z</time>
      </trkpt>
      <trkpt lat="48.764081" lon="9.915174">
        <ele>754.6</ele>
        <time>2026-08-30T12:32:44Z</time>
      </trkpt>
      <trkpt lat="48.764062" lon="9.915133">
        <ele>754.8</ele>
        <time>2026-08-30T12:32:45Z</time>
      </trkpt>
      <trkpt lat="48.764041" lon="9.915096">
        <ele>754.8</ele>
        <time>2026-08-30T12:32:46Z</time>
      </trkpt>
      <trkpt lat="48.764020" lon="9.915057">
        <ele>754.8</ele>
        <time>2026-08-30T12:32:47Z</time>
      </trkpt>
      <trkpt lat="48.764005" lon="9.915007">
        <ele>754.8</ele>
        <time>2026-08-30T12:32:48Z</time>
      </trkpt>
      <trkpt lat="48.763987" lon="9.914968">
        <ele>754.8</ele>
        <time>2026-08-30T12:32:49Z</time>
      </trkpt>
      <trkpt lat="48.763968" lon="9.914922">
        <ele>754.8</ele>
        <time>2026-08-30T12:32:50Z</time>
      </trkpt>
      <trkpt lat="48.763954" lon="9.914865">
        <ele>754.8</ele>
        <time>2026-08-30T12:32:51Z</time>
      </trkpt>
      <trkpt lat="48.763939" lon="9.914801">
        <ele>754.8</ele>
        <time>2026-08-30T12:32:52Z</time>
      </trkpt>
      <trkpt lat="48.763934" lon="9.914730">
        <ele>754.8</ele>
        <time>2026-08-30T12:32:53Z</time>
      </trkpt>
      <trkpt lat="48.763931" lon="9.914666">
        <ele>754.8</ele>
        <time>2026-08-30T12:32:54Z</time>
      </trkpt>
      <trkpt lat="48.763931" lon="9.914612">
        <ele>754.8</ele>
        <time>2026-08-30T12:32:55Z</time>
      </trkpt>
      <trkpt lat="48.763924" lon="9.914553">
        <ele>754.8</ele>
        <time>2026-08-30T12:32:56Z</time>
      </trkpt>
      <trkpt lat="48.763920" lon="9.914496">
        <ele>754.8</ele>
        <time>2026-08-30T12:32:57Z</time>
      </trkpt>
      <trkpt lat="48.763918" lon="9.914446">
        <ele>755</ele>
        <time>2026-08-30T12:32:58Z</time>
      </trkpt>
      <trkpt lat="48.763921" lon="9.914396">
        <ele>755</ele>
        <time>2026-08-30T12:32:59Z</time>
      </trkpt>
      <trkpt lat="48.763916" lon="9.914357">
        <ele>755</ele>
        <time>2026-08-30T12:33:00Z</time>
      </trkpt>
      <trkpt lat="48.763917" lon="9.914316">
        <ele>755.2</ele>
        <time>2026-08-30T12:33:01Z</time>
      </trkpt>
      <trkpt lat="48.763916" lon="9.914273">
        <ele>755.4</ele>
        <time>2026-08-30T12:33:02Z</time>
      </trkpt>
      <trkpt lat="48.763916" lon="9.914239">
        <ele>755.4</ele>
        <time>2026-08-30T12:33:03Z</time>
      </trkpt>
      <trkpt lat="48.763922" lon="9.914199">
        <ele>755.6</ele>
        <time>2026-08-30T12:33:04Z</time>
      </trkpt>
      <trkpt lat="48.763921" lon="9.914161">
        <ele>755.6</ele>
        <time>2026-08-30T12:33:05Z</time>
      </trkpt>
      <trkpt lat="48.763928" lon="9.914117">
        <ele>755.8</ele>
        <time>2026-08-30T12:33:06Z</time>
      </trkpt>
      <trkpt lat="48.763929" lon="9.914068">
        <ele>755.8</ele>
        <time>2026-08-30T12:33:07Z</time>
      </trkpt>
      <trkpt lat="48.763932" lon="9.914030">
        <ele>756</ele>
        <time>2026-08-30T12:33:08Z</time>
      </trkpt>
      <trkpt lat="48.763931" lon="9.913985">
        <ele>756</ele>
        <time>2026-08-30T12:33:09Z</time>
      </trkpt>
      <trkpt lat="48.763935" lon="9.913941">
        <ele>756</ele>
        <time>2026-08-30T12:33:10Z</time>
      </trkpt>
      <trkpt lat="48.763938" lon="9.913888">
        <ele>756.2</ele>
        <time>2026-08-30T12:33:11Z</time>
      </trkpt>
      <trkpt lat="48.763938" lon="9.913848">
        <ele>756.2</ele>
        <time>2026-08-30T12:33:12Z</time>
      </trkpt>
      <trkpt lat="48.763934" lon="9.913807">
        <ele>756.4</ele>
        <time>2026-08-30T12:33:13Z</time>
      </trkpt>
      <trkpt lat="48.763940" lon="9.913772">
        <ele>756.4</ele>
        <time>2026-08-30T12:33:14Z</time>
      </trkpt>
      <trkpt lat="48.763935" lon="9.913731">
        <ele>756.4</ele>
        <time>2026-08-30T12:33:15Z</time>
      </trkpt>
      <trkpt lat="48.763936" lon="9.913691">
        <ele>756.6</ele>
        <time>2026-08-30T12:33:16Z</time>
      </trkpt>
      <trkpt lat="48.763939" lon="9.913661">
        <ele>756.6</ele>
        <time>2026-08-30T12:33:17Z</time>
      </trkpt>
      <trkpt lat="48.763938" lon="9.913636">
        <ele>756.8</ele>
        <time>2026-08-30T12:33:18Z</time>
      </trkpt>
      <trkpt lat="48.763937" lon="9.913610">
        <ele>756.8</ele>
        <time>2026-08-30T12:33:19Z</time>
      </trkpt>
      <trkpt lat="48.763941" lon="9.913575">
        <ele>756.8</ele>
        <time>2026-08-30T12:33:20Z</time>
      </trkpt>
      <trkpt lat="48.763940" lon="9.913543">
        <ele>757</ele>
        <time>2026-08-30T12:33:21Z</time>
      </trkpt>
      <trkpt lat="48.763936" lon="9.913513">
        <ele>757</ele>
        <time>2026-08-30T12:33:22Z</time>
      </trkpt>
      <trkpt lat="48.763934" lon="9.913498">
        <ele>757.2</ele>
        <time>2026-08-30T12:33:23Z</time>
      </trkpt>
      <trkpt lat="48.763939" lon="9.913472">
        <ele>757.2</ele>
        <time>2026-08-30T12:33:24Z</time>
      </trkpt>
      <trkpt lat="48.763944" lon="9.913446">
        <ele>757.2</ele>
        <time>2026-08-30T12:33:25Z</time>
      </trkpt>
      <trkpt lat="48.763951" lon="9.913417">
        <ele>757.2</ele>
        <time>2026-08-30T12:33:26Z</time>
      </trkpt>
      <trkpt lat="48.763958" lon="9.913389">
        <ele>757.4</ele>
        <time>2026-08-30T12:33:27Z</time>
      </trkpt>
      <trkpt lat="48.763964" lon="9.913361">
        <ele>757.4</ele>
        <time>2026-08-30T12:33:28Z</time>
      </trkpt>
      <trkpt lat="48.763970" lon="9.913330">
        <ele>757.4</ele>
        <time>2026-08-30T12:33:29Z</time>
      </trkpt>
      <trkpt lat="48.763974" lon="9.913290">
        <ele>757.4</ele>
        <time>2026-08-30T12:33:30Z</time>
      </trkpt>
      <trkpt lat="48.763978" lon="9.913254">
        <ele>757.6</ele>
        <time>2026-08-30T12:33:31Z</time>
      </trkpt>
      <trkpt lat="48.763982" lon="9.913215">
        <ele>757.6</ele>
        <time>2026-08-30T12:33:32Z</time>
      </trkpt>
      <trkpt lat="48.763987" lon="9.913180">
        <ele>757.8</ele>
        <time>2026-08-30T12:33:33Z</time>
      </trkpt>
      <trkpt lat="48.763989" lon="9.913146">
        <ele>757.8</ele>
        <time>2026-08-30T12:33:34Z</time>
      </trkpt>
      <trkpt lat="48.763992" lon="9.913114">
        <ele>757.8</ele>
        <time>2026-08-30T12:33:35Z</time>
      </trkpt>
      <trkpt lat="48.763997" lon="9.913074">
        <ele>758</ele>
        <time>2026-08-30T12:33:36Z</time>
      </trkpt>
      <trkpt lat="48.763997" lon="9.913036">
        <ele>758</ele>
        <time>2026-08-30T12:33:37Z</time>
      </trkpt>
      <trkpt lat="48.763999" lon="9.913008">
        <ele>758</ele>
        <time>2026-08-30T12:33:38Z</time>
      </trkpt>
      <trkpt lat="48.764001" lon="9.912973">
        <ele>758.2</ele>
        <time>2026-08-30T12:33:39Z</time>
      </trkpt>
      <trkpt lat="48.764000" lon="9.912936">
        <ele>758.2</ele>
        <time>2026-08-30T12:33:40Z</time>
      </trkpt>
      <trkpt lat="48.764000" lon="9.912906">
        <ele>758</ele>
        <time>2026-08-30T12:33:41Z</time>
      </trkpt>
      <trkpt lat="48.763997" lon="9.912873">
        <ele>758</ele>
        <time>2026-08-30T12:33:42Z</time>
      </trkpt>
      <trkpt lat="48.763996" lon="9.912847">
        <ele>758</ele>
        <time>2026-08-30T12:33:43Z</time>
      </trkpt>
      <trkpt lat="48.763996" lon="9.912821">
        <ele>758</ele>
        <time>2026-08-30T12:33:44Z</time>
      </trkpt>
      <trkpt lat="48.763993" lon="9.912792">
        <ele>758</ele>
        <time>2026-08-30T12:33:45Z</time>
      </trkpt>
      <trkpt lat="48.763989" lon="9.912762">
        <ele>758</ele>
        <time>2026-08-30T12:33:46Z</time>
      </trkpt>
      <trkpt lat="48.763984" lon="9.912730">
        <ele>758</ele>
        <time>2026-08-30T12:33:47Z</time>
      </trkpt>
      <trkpt lat="48.763979" lon="9.912692">
        <ele>758.2</ele>
        <time>2026-08-30T12:33:48Z</time>
      </trkpt>
      <trkpt lat="48.763973" lon="9.912652">
        <ele>758.2</ele>
        <time>2026-08-30T12:33:49Z</time>
      </trkpt>
      <trkpt lat="48.763970" lon="9.912605">
        <ele>758.4</ele>
        <time>2026-08-30T12:33:50Z</time>
      </trkpt>
      <trkpt lat="48.763965" lon="9.912567">
        <ele>758.4</ele>
        <time>2026-08-30T12:33:51Z</time>
      </trkpt>
      <trkpt lat="48.763958" lon="9.912526">
        <ele>758.6</ele>
        <time>2026-08-30T12:33:52Z</time>
      </trkpt>
      <trkpt lat="48.763950" lon="9.912482">
        <ele>758.8</ele>
        <time>2026-08-30T12:33:53Z</time>
      </trkpt>
      <trkpt lat="48.763951" lon="9.912439">
        <ele>758.8</ele>
        <time>2026-08-30T12:33:54Z</time>
      </trkpt>
      <trkpt lat="48.763949" lon="9.912394">
        <ele>759</ele>
        <time>2026-08-30T12:33:55Z</time>
      </trkpt>
      <trkpt lat="48.763944" lon="9.912353">
        <ele>759.2</ele>
        <time>2026-08-30T12:33:56Z</time>
      </trkpt>
      <trkpt lat="48.763943" lon="9.912311">
        <ele>759.2</ele>
        <time>2026-08-30T12:33:57Z</time>
      </trkpt>
      <trkpt lat="48.763939" lon="9.912271">
        <ele>759.4</ele>
        <time>2026-08-30T12:33:58Z</time>
      </trkpt>
      <trkpt lat="48.763932" lon="9.912236">
        <ele>759.6</ele>
        <time>2026-08-30T12:33:59Z</time>
      </trkpt>
      <trkpt lat="48.763928" lon="9.912196">
        <ele>759.6</ele>
        <time>2026-08-30T12:34:00Z</time>
      </trkpt>
      <trkpt lat="48.763922" lon="9.912158">
        <ele>759.8</ele>
        <time>2026-08-30T12:34:01Z</time>
      </trkpt>
      <trkpt lat="48.763916" lon="9.912119">
        <ele>760</ele>
        <time>2026-08-30T12:34:02Z</time>
      </trkpt>
      <trkpt lat="48.763913" lon="9.912086">
        <ele>760</ele>
        <time>2026-08-30T12:34:03Z</time>
      </trkpt>
      <trkpt lat="48.763908" lon="9.912053">
        <ele>760.2</ele>
        <time>2026-08-30T12:34:04Z</time>
      </trkpt>
      <trkpt lat="48.763903" lon="9.912019">
        <ele>760.2</ele>
        <time>2026-08-30T12:34:05Z</time>
      </trkpt>
      <trkpt lat="48.763899" lon="9.911982">
        <ele>760.4</ele>
        <time>2026-08-30T12:34:06Z</time>
      </trkpt>
      <trkpt lat="48.763890" lon="9.911950">
        <ele>760.4</ele>
        <time>2026-08-30T12:34:07Z</time>
      </trkpt>
      <trkpt lat="48.763888" lon="9.911916">
        <ele>760.4</ele>
        <time>2026-08-30T12:34:08Z</time>
      </trkpt>
      <trkpt lat="48.763881" lon="9.911888">
        <ele>760.4</ele>
        <time>2026-08-30T12:34:09Z</time>
      </trkpt>
      <trkpt lat="48.763877" lon="9.911854">
        <ele>760.6</ele>
        <time>2026-08-30T12:34:10Z</time>
      </trkpt>
      <trkpt lat="48.763875" lon="9.911818">
        <ele>760.6</ele>
        <time>2026-08-30T12:34:11Z</time>
      </trkpt>
      <trkpt lat="48.763871" lon="9.911781">
        <ele>760.6</ele>
        <time>2026-08-30T12:34:12Z</time>
      </trkpt>
      <trkpt lat="48.763866" lon="9.911740">
        <ele>760.6</ele>
        <time>2026-08-30T12:34:13Z</time>
      </trkpt>
      <trkpt lat="48.763865" lon="9.911696">
        <ele>760.6</ele>
        <time>2026-08-30T12:34:14Z</time>
      </trkpt>
      <trkpt lat="48.763862" lon="9.911654">
        <ele>760.8</ele>
        <time>2026-08-30T12:34:15Z</time>
      </trkpt>
      <trkpt lat="48.763856" lon="9.911610">
        <ele>760.8</ele>
        <time>2026-08-30T12:34:16Z</time>
      </trkpt>
      <trkpt lat="48.763850" lon="9.911563">
        <ele>760.8</ele>
        <time>2026-08-30T12:34:17Z</time>
      </trkpt>
      <trkpt lat="48.763847" lon="9.911530">
        <ele>761</ele>
        <time>2026-08-30T12:34:18Z</time>
      </trkpt>
      <trkpt lat="48.763852" lon="9.911493">
        <ele>761</ele>
        <time>2026-08-30T12:34:19Z</time>
      </trkpt>
      <trkpt lat="48.763848" lon="9.911448">
        <ele>761</ele>
        <time>2026-08-30T12:34:20Z</time>
      </trkpt>
      <trkpt lat="48.763846" lon="9.911403">
        <ele>761.2</ele>
        <time>2026-08-30T12:34:21Z</time>
      </trkpt>
      <trkpt lat="48.763843" lon="9.911359">
        <ele>761.2</ele>
        <time>2026-08-30T12:34:22Z</time>
      </trkpt>
      <trkpt lat="48.763834" lon="9.911321">
        <ele>761.4</ele>
        <time>2026-08-30T12:34:23Z</time>
      </trkpt>
      <trkpt lat="48.763834" lon="9.911283">
        <ele>761.4</ele>
        <time>2026-08-30T12:34:24Z</time>
      </trkpt>
      <trkpt lat="48.763835" lon="9.911236">
        <ele>761.6</ele>
        <time>2026-08-30T12:34:25Z</time>
      </trkpt>
      <trkpt lat="48.763834" lon="9.911185">
        <ele>761.6</ele>
        <time>2026-08-30T12:34:26Z</time>
      </trkpt>
      <trkpt lat="48.763833" lon="9.911139">
        <ele>761.8</ele>
        <time>2026-08-30T12:34:27Z</time>
      </trkpt>
      <trkpt lat="48.763831" lon="9.911090">
        <ele>761.8</ele>
        <time>2026-08-30T12:34:28Z</time>
      </trkpt>
      <trkpt lat="48.763828" lon="9.911046">
        <ele>761.8</ele>
        <time>2026-08-30T12:34:29Z</time>
      </trkpt>
      <trkpt lat="48.763829" lon="9.910994">
        <ele>762</ele>
        <time>2026-08-30T12:34:30Z</time>
      </trkpt>
      <trkpt lat="48.763827" lon="9.910954">
        <ele>762</ele>
        <time>2026-08-30T12:34:31Z</time>
      </trkpt>
      <trkpt lat="48.763818" lon="9.910913">
        <ele>762</ele>
        <time>2026-08-30T12:34:32Z</time>
      </trkpt>
      <trkpt lat="48.763812" lon="9.910870">
        <ele>762.2</ele>
        <time>2026-08-30T12:34:33Z</time>
      </trkpt>
      <trkpt lat="48.763808" lon="9.910833">
        <ele>762.2</ele>
        <time>2026-08-30T12:34:34Z</time>
      </trkpt>
      <trkpt lat="48.763805" lon="9.910791">
        <ele>762.2</ele>
        <time>2026-08-30T12:34:35Z</time>
      </trkpt>
      <trkpt lat="48.763804" lon="9.910751">
        <ele>762.4</ele>
        <time>2026-08-30T12:34:36Z</time>
      </trkpt>
      <trkpt lat="48.763800" lon="9.910707">
        <ele>762.4</ele>
        <time>2026-08-30T12:34:37Z</time>
      </trkpt>
      <trkpt lat="48.763795" lon="9.910659">
        <ele>762.4</ele>
        <time>2026-08-30T12:34:38Z</time>
      </trkpt>
      <trkpt lat="48.763793" lon="9.910618">
        <ele>762.6</ele>
        <time>2026-08-30T12:34:39Z</time>
      </trkpt>
      <trkpt lat="48.763790" lon="9.910578">
        <ele>762.6</ele>
        <time>2026-08-30T12:34:40Z</time>
      </trkpt>
      <trkpt lat="48.763785" lon="9.910536">
        <ele>762.8</ele>
        <time>2026-08-30T12:34:41Z</time>
      </trkpt>
      <trkpt lat="48.763781" lon="9.910490">
        <ele>762.8</ele>
        <time>2026-08-30T12:34:42Z</time>
      </trkpt>
      <trkpt lat="48.763775" lon="9.910452">
        <ele>762.8</ele>
        <time>2026-08-30T12:34:43Z</time>
      </trkpt>
      <trkpt lat="48.763769" lon="9.910413">
        <ele>763</ele>
        <time>2026-08-30T12:34:44Z</time>
      </trkpt>
      <trkpt lat="48.763762" lon="9.910369">
        <ele>763</ele>
        <time>2026-08-30T12:34:45Z</time>
      </trkpt>
      <trkpt lat="48.763757" lon="9.910330">
        <ele>763</ele>
        <time>2026-08-30T12:34:46Z</time>
      </trkpt>
      <trkpt lat="48.763751" lon="9.910289">
        <ele>763</ele>
        <time>2026-08-30T12:34:47Z</time>
      </trkpt>
      <trkpt lat="48.763743" lon="9.910245">
        <ele>763</ele>
        <time>2026-08-30T12:34:48Z</time>
      </trkpt>
      <trkpt lat="48.763733" lon="9.910197">
        <ele>762.8</ele>
        <time>2026-08-30T12:34:49Z</time>
      </trkpt>
      <trkpt lat="48.763730" lon="9.910151">
        <ele>762.8</ele>
        <time>2026-08-30T12:34:50Z</time>
      </trkpt>
      <trkpt lat="48.763723" lon="9.910105">
        <ele>762.8</ele>
        <time>2026-08-30T12:34:51Z</time>
      </trkpt>
      <trkpt lat="48.763715" lon="9.910053">
        <ele>763</ele>
        <time>2026-08-30T12:34:52Z</time>
      </trkpt>
      <trkpt lat="48.763714" lon="9.910000">
        <ele>763</ele>
        <time>2026-08-30T12:34:53Z</time>
      </trkpt>
      <trkpt lat="48.763708" lon="9.909959">
        <ele>763.2</ele>
        <time>2026-08-30T12:34:54Z</time>
      </trkpt>
      <trkpt lat="48.763707" lon="9.909921">
        <ele>763.2</ele>
        <time>2026-08-30T12:34:55Z</time>
      </trkpt>
      <trkpt lat="48.763708" lon="9.909881">
        <ele>763.4</ele>
        <time>2026-08-30T12:34:56Z</time>
      </trkpt>
      <trkpt lat="48.763705" lon="9.909845">
        <ele>763.4</ele>
        <time>2026-08-30T12:34:57Z</time>
      </trkpt>
      <trkpt lat="48.763713" lon="9.909803">
        <ele>763.6</ele>
        <time>2026-08-30T12:34:58Z</time>
      </trkpt>
      <trkpt lat="48.763723" lon="9.909765">
        <ele>763.8</ele>
        <time>2026-08-30T12:34:59Z</time>
      </trkpt>
      <trkpt lat="48.763738" lon="9.909713">
        <ele>763.8</ele>
        <time>2026-08-30T12:35:00Z</time>
      </trkpt>
      <trkpt lat="48.763760" lon="9.909666">
        <ele>764</ele>
        <time>2026-08-30T12:35:01Z</time>
      </trkpt>
      <trkpt lat="48.763772" lon="9.909629">
        <ele>764</ele>
        <time>2026-08-30T12:35:02Z</time>
      </trkpt>
      <trkpt lat="48.763782" lon="9.909591">
        <ele>764.2</ele>
        <time>2026-08-30T12:35:03Z</time>
      </trkpt>
      <trkpt lat="48.763796" lon="9.909554">
        <ele>764.4</ele>
        <time>2026-08-30T12:35:04Z</time>
      </trkpt>
      <trkpt lat="48.763809" lon="9.909510">
        <ele>764.4</ele>
        <time>2026-08-30T12:35:05Z</time>
      </trkpt>
      <trkpt lat="48.763818" lon="9.909469">
        <ele>764.4</ele>
        <time>2026-08-30T12:35:06Z</time>
      </trkpt>
      <trkpt lat="48.763834" lon="9.909415">
        <ele>764.6</ele>
        <time>2026-08-30T12:35:07Z</time>
      </trkpt>
      <trkpt lat="48.763844" lon="9.909369">
        <ele>764.6</ele>
        <time>2026-08-30T12:35:08Z</time>
      </trkpt>
      <trkpt lat="48.763851" lon="9.909327">
        <ele>764.6</ele>
        <time>2026-08-30T12:35:09Z</time>
      </trkpt>
      <trkpt lat="48.763851" lon="9.909283">
        <ele>764.6</ele>
        <time>2026-08-30T12:35:10Z</time>
      </trkpt>
      <trkpt lat="48.763850" lon="9.909243">
        <ele>764.8</ele>
        <time>2026-08-30T12:35:11Z</time>
      </trkpt>
      <trkpt lat="48.763848" lon="9.909199">
        <ele>764.8</ele>
        <time>2026-08-30T12:35:12Z</time>
      </trkpt>
      <trkpt lat="48.763847" lon="9.909156">
        <ele>764.8</ele>
        <time>2026-08-30T12:35:13Z</time>
      </trkpt>
      <trkpt lat="48.763845" lon="9.909110">
        <ele>764.8</ele>
        <time>2026-08-30T12:35:14Z</time>
      </trkpt>
      <trkpt lat="48.763840" lon="9.909065">
        <ele>765</ele>
        <time>2026-08-30T12:35:15Z</time>
      </trkpt>
      <trkpt lat="48.763826" lon="9.909030">
        <ele>765</ele>
        <time>2026-08-30T12:35:16Z</time>
      </trkpt>
      <trkpt lat="48.763824" lon="9.908994">
        <ele>765</ele>
        <time>2026-08-30T12:35:17Z</time>
      </trkpt>
      <trkpt lat="48.763817" lon="9.908951">
        <ele>765.2</ele>
        <time>2026-08-30T12:35:18Z</time>
      </trkpt>
      <trkpt lat="48.763811" lon="9.908909">
        <ele>765.2</ele>
        <time>2026-08-30T12:35:19Z</time>
      </trkpt>
      <trkpt lat="48.763798" lon="9.908864">
        <ele>765.2</ele>
        <time>2026-08-30T12:35:20Z</time>
      </trkpt>
      <trkpt lat="48.763790" lon="9.908817">
        <ele>765.2</ele>
        <time>2026-08-30T12:35:21Z</time>
      </trkpt>
      <trkpt lat="48.763776" lon="9.908764">
        <ele>765.2</ele>
        <time>2026-08-30T12:35:22Z</time>
      </trkpt>
      <trkpt lat="48.763774" lon="9.908719">
        <ele>765.4</ele>
        <time>2026-08-30T12:35:23Z</time>
      </trkpt>
      <trkpt lat="48.763770" lon="9.908675">
        <ele>765.4</ele>
        <time>2026-08-30T12:35:24Z</time>
      </trkpt>
      <trkpt lat="48.763766" lon="9.908622">
        <ele>765.4</ele>
        <time>2026-08-30T12:35:25Z</time>
      </trkpt>
      <trkpt lat="48.763760" lon="9.908567">
        <ele>765.4</ele>
        <time>2026-08-30T12:35:26Z</time>
      </trkpt>
      <trkpt lat="48.763763" lon="9.908507">
        <ele>765.4</ele>
        <time>2026-08-30T12:35:27Z</time>
      </trkpt>
      <trkpt lat="48.763762" lon="9.908454">
        <ele>765.4</ele>
        <time>2026-08-30T12:35:28Z</time>
      </trkpt>
      <trkpt lat="48.763760" lon="9.908406">
        <ele>765.4</ele>
        <time>2026-08-30T12:35:29Z</time>
      </trkpt>
      <trkpt lat="48.763765" lon="9.908352">
        <ele>765.4</ele>
        <time>2026-08-30T12:35:30Z</time>
      </trkpt>
      <trkpt lat="48.763762" lon="9.908300">
        <ele>765.6</ele>
        <time>2026-08-30T12:35:31Z</time>
      </trkpt>
      <trkpt lat="48.763760" lon="9.908241">
        <ele>765.6</ele>
        <time>2026-08-30T12:35:32Z</time>
      </trkpt>
      <trkpt lat="48.763763" lon="9.908193">
        <ele>765.6</ele>
        <time>2026-08-30T12:35:33Z</time>
      </trkpt>
      <trkpt lat="48.763764" lon="9.908142">
        <ele>765.6</ele>
        <time>2026-08-30T12:35:34Z</time>
      </trkpt>
      <trkpt lat="48.763763" lon="9.908093">
        <ele>765.8</ele>
        <time>2026-08-30T12:35:35Z</time>
      </trkpt>
      <trkpt lat="48.763758" lon="9.908040">
        <ele>765.8</ele>
        <time>2026-08-30T12:35:36Z</time>
      </trkpt>
      <trkpt lat="48.763760" lon="9.907995">
        <ele>765.8</ele>
        <time>2026-08-30T12:35:37Z</time>
      </trkpt>
      <trkpt lat="48.763757" lon="9.907945">
        <ele>765.8</ele>
        <time>2026-08-30T12:35:38Z</time>
      </trkpt>
      <trkpt lat="48.763761" lon="9.907903">
        <ele>765.8</ele>
        <time>2026-08-30T12:35:39Z</time>
      </trkpt>
      <trkpt lat="48.763765" lon="9.907854">
        <ele>765.8</ele>
        <time>2026-08-30T12:35:40Z</time>
      </trkpt>
      <trkpt lat="48.763765" lon="9.907807">
        <ele>765.6</ele>
        <time>2026-08-30T12:35:41Z</time>
      </trkpt>
      <trkpt lat="48.763764" lon="9.907761">
        <ele>765.6</ele>
        <time>2026-08-30T12:35:42Z</time>
      </trkpt>
      <trkpt lat="48.763766" lon="9.907709">
        <ele>765.6</ele>
        <time>2026-08-30T12:35:43Z</time>
      </trkpt>
      <trkpt lat="48.763774" lon="9.907658">
        <ele>765.4</ele>
        <time>2026-08-30T12:35:44Z</time>
      </trkpt>
      <trkpt lat="48.763785" lon="9.907604">
        <ele>765.4</ele>
        <time>2026-08-30T12:35:45Z</time>
      </trkpt>
      <trkpt lat="48.763794" lon="9.907546">
        <ele>765.4</ele>
        <time>2026-08-30T12:35:46Z</time>
      </trkpt>
      <trkpt lat="48.763806" lon="9.907485">
        <ele>765.2</ele>
        <time>2026-08-30T12:35:47Z</time>
      </trkpt>
      <trkpt lat="48.763816" lon="9.907431">
        <ele>765.2</ele>
        <time>2026-08-30T12:35:48Z</time>
      </trkpt>
      <trkpt lat="48.763827" lon="9.907370">
        <ele>765</ele>
        <time>2026-08-30T12:35:49Z</time>
      </trkpt>
      <trkpt lat="48.763835" lon="9.907311">
        <ele>765</ele>
        <time>2026-08-30T12:35:50Z</time>
      </trkpt>
      <trkpt lat="48.763847" lon="9.907255">
        <ele>764.8</ele>
        <time>2026-08-30T12:35:51Z</time>
      </trkpt>
      <trkpt lat="48.763849" lon="9.907205">
        <ele>764.8</ele>
        <time>2026-08-30T12:35:52Z</time>
      </trkpt>
      <trkpt lat="48.763853" lon="9.907155">
        <ele>764.6</ele>
        <time>2026-08-30T12:35:53Z</time>
      </trkpt>
      <trkpt lat="48.763852" lon="9.907102">
        <ele>764.6</ele>
        <time>2026-08-30T12:35:54Z</time>
      </trkpt>
      <trkpt lat="48.763846" lon="9.907036">
        <ele>764.4</ele>
        <time>2026-08-30T12:35:55Z</time>
      </trkpt>
      <trkpt lat="48.763843" lon="9.906969">
        <ele>764.2</ele>
        <time>2026-08-30T12:35:56Z</time>
      </trkpt>
      <trkpt lat="48.763832" lon="9.906891">
        <ele>764</ele>
        <time>2026-08-30T12:35:57Z</time>
      </trkpt>
      <trkpt lat="48.763826" lon="9.906801">
        <ele>763.4</ele>
        <time>2026-08-30T12:35:58Z</time>
      </trkpt>
      <trkpt lat="48.763824" lon="9.906702">
        <ele>763.2</ele>
        <time>2026-08-30T12:35:59Z</time>
      </trkpt>
      <trkpt lat="48.763827" lon="9.906613">
        <ele>762.8</ele>
        <time>2026-08-30T12:36:00Z</time>
      </trkpt>
      <trkpt lat="48.763832" lon="9.906526">
        <ele>762.4</ele>
        <time>2026-08-30T12:36:01Z</time>
      </trkpt>
      <trkpt lat="48.763837" lon="9.906434">
        <ele>762.2</ele>
        <time>2026-08-30T12:36:02Z</time>
      </trkpt>
      <trkpt lat="48.763851" lon="9.906351">
        <ele>761.8</ele>
        <time>2026-08-30T12:36:03Z</time>
      </trkpt>
      <trkpt lat="48.763876" lon="9.906275">
        <ele>761.4</ele>
        <time>2026-08-30T12:36:04Z</time>
      </trkpt>
      <trkpt lat="48.763917" lon="9.906217">
        <ele>761</ele>
        <time>2026-08-30T12:36:05Z</time>
      </trkpt>
      <trkpt lat="48.763960" lon="9.906154">
        <ele>760.6</ele>
        <time>2026-08-30T12:36:06Z</time>
      </trkpt>
      <trkpt lat="48.764002" lon="9.906100">
        <ele>760.2</ele>
        <time>2026-08-30T12:36:07Z</time>
      </trkpt>
      <trkpt lat="48.764048" lon="9.906035">
        <ele>759.6</ele>
        <time>2026-08-30T12:36:08Z</time>
      </trkpt>
      <trkpt lat="48.764076" lon="9.905958">
        <ele>759.2</ele>
        <time>2026-08-30T12:36:09Z</time>
      </trkpt>
      <trkpt lat="48.764117" lon="9.905884">
        <ele>758.6</ele>
        <time>2026-08-30T12:36:10Z</time>
      </trkpt>
      <trkpt lat="48.764165" lon="9.905814">
        <ele>758.2</ele>
        <time>2026-08-30T12:36:11Z</time>
      </trkpt>
      <trkpt lat="48.764214" lon="9.905752">
        <ele>757.8</ele>
        <time>2026-08-30T12:36:12Z</time>
      </trkpt>
      <trkpt lat="48.764265" lon="9.905684">
        <ele>757.2</ele>
        <time>2026-08-30T12:36:13Z</time>
      </trkpt>
      <trkpt lat="48.764309" lon="9.905624">
        <ele>756.8</ele>
        <time>2026-08-30T12:36:14Z</time>
      </trkpt>
      <trkpt lat="48.764357" lon="9.905562">
        <ele>756.4</ele>
        <time>2026-08-30T12:36:15Z</time>
      </trkpt>
      <trkpt lat="48.764401" lon="9.905496">
        <ele>755.8</ele>
        <time>2026-08-30T12:36:16Z</time>
      </trkpt>
      <trkpt lat="48.764449" lon="9.905429">
        <ele>755.4</ele>
        <time>2026-08-30T12:36:17Z</time>
      </trkpt>
      <trkpt lat="48.764489" lon="9.905358">
        <ele>754.6</ele>
        <time>2026-08-30T12:36:18Z</time>
      </trkpt>
      <trkpt lat="48.764530" lon="9.905277">
        <ele>754</ele>
        <time>2026-08-30T12:36:19Z</time>
      </trkpt>
      <trkpt lat="48.764569" lon="9.905196">
        <ele>753.4</ele>
        <time>2026-08-30T12:36:20Z</time>
      </trkpt>
      <trkpt lat="48.764602" lon="9.905111">
        <ele>752.8</ele>
        <time>2026-08-30T12:36:21Z</time>
      </trkpt>
      <trkpt lat="48.764635" lon="9.905012">
        <ele>752.2</ele>
        <time>2026-08-30T12:36:22Z</time>
      </trkpt>
      <trkpt lat="48.764665" lon="9.904916">
        <ele>751.6</ele>
        <time>2026-08-30T12:36:23Z</time>
      </trkpt>
      <trkpt lat="48.764695" lon="9.904838">
        <ele>751</ele>
        <time>2026-08-30T12:36:24Z</time>
      </trkpt>
      <trkpt lat="48.764725" lon="9.904757">
        <ele>750.4</ele>
        <time>2026-08-30T12:36:25Z</time>
      </trkpt>
      <trkpt lat="48.764755" lon="9.904672">
        <ele>749.8</ele>
        <time>2026-08-30T12:36:26Z</time>
      </trkpt>
      <trkpt lat="48.764779" lon="9.904587">
        <ele>749.4</ele>
        <time>2026-08-30T12:36:27Z</time>
      </trkpt>
      <trkpt lat="48.764806" lon="9.904515">
        <ele>748.8</ele>
        <time>2026-08-30T12:36:28Z</time>
      </trkpt>
      <trkpt lat="48.764829" lon="9.904448">
        <ele>748.4</ele>
        <time>2026-08-30T12:36:29Z</time>
      </trkpt>
      <trkpt lat="48.764853" lon="9.904377">
        <ele>748</ele>
        <time>2026-08-30T12:36:30Z</time>
      </trkpt>
      <trkpt lat="48.764878" lon="9.904307">
        <ele>747.4</ele>
        <time>2026-08-30T12:36:31Z</time>
      </trkpt>
      <trkpt lat="48.764901" lon="9.904239">
        <ele>747</ele>
        <time>2026-08-30T12:36:32Z</time>
      </trkpt>
      <trkpt lat="48.764916" lon="9.904166">
        <ele>746.4</ele>
        <time>2026-08-30T12:36:33Z</time>
      </trkpt>
      <trkpt lat="48.764931" lon="9.904086">
        <ele>745.8</ele>
        <time>2026-08-30T12:36:34Z</time>
      </trkpt>
      <trkpt lat="48.764955" lon="9.903998">
        <ele>745.2</ele>
        <time>2026-08-30T12:36:35Z</time>
      </trkpt>
      <trkpt lat="48.764984" lon="9.903906">
        <ele>744.6</ele>
        <time>2026-08-30T12:36:36Z</time>
      </trkpt>
      <trkpt lat="48.765010" lon="9.903830">
        <ele>744</ele>
        <time>2026-08-30T12:36:37Z</time>
      </trkpt>
      <trkpt lat="48.765037" lon="9.903742">
        <ele>743.2</ele>
        <time>2026-08-30T12:36:38Z</time>
      </trkpt>
      <trkpt lat="48.765059" lon="9.903658">
        <ele>742.8</ele>
        <time>2026-08-30T12:36:39Z</time>
      </trkpt>
      <trkpt lat="48.765073" lon="9.903579">
        <ele>742.2</ele>
        <time>2026-08-30T12:36:40Z</time>
      </trkpt>
      <trkpt lat="48.765085" lon="9.903511">
        <ele>741.6</ele>
        <time>2026-08-30T12:36:41Z</time>
      </trkpt>
      <trkpt lat="48.765092" lon="9.903441">
        <ele>741</ele>
        <time>2026-08-30T12:36:42Z</time>
      </trkpt>
      <trkpt lat="48.765096" lon="9.903379">
        <ele>740.4</ele>
        <time>2026-08-30T12:36:43Z</time>
      </trkpt>
      <trkpt lat="48.765106" lon="9.903322">
        <ele>740</ele>
        <time>2026-08-30T12:36:44Z</time>
      </trkpt>
      <trkpt lat="48.765117" lon="9.903262">
        <ele>739.4</ele>
        <time>2026-08-30T12:36:45Z</time>
      </trkpt>
      <trkpt lat="48.765125" lon="9.903200">
        <ele>739</ele>
        <time>2026-08-30T12:36:46Z</time>
      </trkpt>
      <trkpt lat="48.765139" lon="9.903134">
        <ele>738.4</ele>
        <time>2026-08-30T12:36:47Z</time>
      </trkpt>
      <trkpt lat="48.765157" lon="9.903061">
        <ele>737.8</ele>
        <time>2026-08-30T12:36:48Z</time>
      </trkpt>
      <trkpt lat="48.765179" lon="9.902991">
        <ele>737.2</ele>
        <time>2026-08-30T12:36:49Z</time>
      </trkpt>
      <trkpt lat="48.765201" lon="9.902921">
        <ele>736.8</ele>
        <time>2026-08-30T12:36:50Z</time>
      </trkpt>
      <trkpt lat="48.765217" lon="9.902862">
        <ele>736.4</ele>
        <time>2026-08-30T12:36:51Z</time>
      </trkpt>
      <trkpt lat="48.765230" lon="9.902813">
        <ele>736</ele>
        <time>2026-08-30T12:36:52Z</time>
      </trkpt>
      <trkpt lat="48.765240" lon="9.902767">
        <ele>735.6</ele>
        <time>2026-08-30T12:36:53Z</time>
      </trkpt>
      <trkpt lat="48.765251" lon="9.902718">
        <ele>735.4</ele>
        <time>2026-08-30T12:36:54Z</time>
      </trkpt>
      <trkpt lat="48.765256" lon="9.902665">
        <ele>735</ele>
        <time>2026-08-30T12:36:55Z</time>
      </trkpt>
      <trkpt lat="48.765260" lon="9.902617">
        <ele>734.6</ele>
        <time>2026-08-30T12:36:56Z</time>
      </trkpt>
      <trkpt lat="48.765272" lon="9.902569">
        <ele>734.4</ele>
        <time>2026-08-30T12:36:57Z</time>
      </trkpt>
      <trkpt lat="48.765279" lon="9.902518">
        <ele>734</ele>
        <time>2026-08-30T12:36:58Z</time>
      </trkpt>
      <trkpt lat="48.765284" lon="9.902467">
        <ele>733.6</ele>
        <time>2026-08-30T12:36:59Z</time>
      </trkpt>
      <trkpt lat="48.765295" lon="9.902407">
        <ele>733.2</ele>
        <time>2026-08-30T12:37:00Z</time>
      </trkpt>
      <trkpt lat="48.765315" lon="9.902345">
        <ele>732.8</ele>
        <time>2026-08-30T12:37:01Z</time>
      </trkpt>
      <trkpt lat="48.765326" lon="9.902286">
        <ele>732.4</ele>
        <time>2026-08-30T12:37:02Z</time>
      </trkpt>
      <trkpt lat="48.765334" lon="9.902229">
        <ele>731.8</ele>
        <time>2026-08-30T12:37:03Z</time>
      </trkpt>
      <trkpt lat="48.765337" lon="9.902180">
        <ele>731.2</ele>
        <time>2026-08-30T12:37:04Z</time>
      </trkpt>
      <trkpt lat="48.765349" lon="9.902133">
        <ele>730.8</ele>
        <time>2026-08-30T12:37:05Z</time>
      </trkpt>
      <trkpt lat="48.765364" lon="9.902086">
        <ele>730.4</ele>
        <time>2026-08-30T12:37:06Z</time>
      </trkpt>
      <trkpt lat="48.765375" lon="9.902042">
        <ele>730</ele>
        <time>2026-08-30T12:37:07Z</time>
      </trkpt>
      <trkpt lat="48.765389" lon="9.902001">
        <ele>729.4</ele>
        <time>2026-08-30T12:37:08Z</time>
      </trkpt>
      <trkpt lat="48.765406" lon="9.901949">
        <ele>729</ele>
        <time>2026-08-30T12:37:09Z</time>
      </trkpt>
      <trkpt lat="48.765415" lon="9.901896">
        <ele>728.6</ele>
        <time>2026-08-30T12:37:10Z</time>
      </trkpt>
      <trkpt lat="48.765421" lon="9.901856">
        <ele>728</ele>
        <time>2026-08-30T12:37:11Z</time>
      </trkpt>
      <trkpt lat="48.765431" lon="9.901820">
        <ele>727.6</ele>
        <time>2026-08-30T12:37:12Z</time>
      </trkpt>
      <trkpt lat="48.765436" lon="9.901779">
        <ele>727</ele>
        <time>2026-08-30T12:37:13Z</time>
      </trkpt>
      <trkpt lat="48.765441" lon="9.901741">
        <ele>726.4</ele>
        <time>2026-08-30T12:37:14Z</time>
      </trkpt>
      <trkpt lat="48.765457" lon="9.901706">
        <ele>726</ele>
        <time>2026-08-30T12:37:15Z</time>
      </trkpt>
      <trkpt lat="48.765466" lon="9.901667">
        <ele>725.4</ele>
        <time>2026-08-30T12:37:16Z</time>
      </trkpt>
      <trkpt lat="48.765467" lon="9.901632">
        <ele>725</ele>
        <time>2026-08-30T12:37:17Z</time>
      </trkpt>
      <trkpt lat="48.765467" lon="9.901598">
        <ele>724.4</ele>
        <time>2026-08-30T12:37:18Z</time>
      </trkpt>
      <trkpt lat="48.765466" lon="9.901560">
        <ele>723.8</ele>
        <time>2026-08-30T12:37:19Z</time>
      </trkpt>
      <trkpt lat="48.765464" lon="9.901540">
        <ele>723.4</ele>
        <time>2026-08-30T12:37:20Z</time>
      </trkpt>
      <trkpt lat="48.765460" lon="9.901534">
        <ele>723.2</ele>
        <time>2026-08-30T12:37:21Z</time>
      </trkpt>
      <trkpt lat="48.765459" lon="9.901522">
        <ele>722.8</ele>
        <time>2026-08-30T12:37:22Z</time>
      </trkpt>
      <trkpt lat="48.765456" lon="9.901518">
        <ele>722.4</ele>
        <time>2026-08-30T12:37:23Z</time>
      </trkpt>
      <trkpt lat="48.765456" lon="9.901518">
        <ele>722.2</ele>
        <time>2026-08-30T12:37:24Z</time>
      </trkpt>
      <trkpt lat="48.765456" lon="9.901518">
        <ele>722</ele>
        <time>2026-08-30T12:37:25Z</time>
      </trkpt>
      <trkpt lat="48.765456" lon="9.901518">
        <ele>722</ele>
        <time>2026-08-30T12:37:26Z</time>
      </trkpt>
      <trkpt lat="48.765456" lon="9.901518">
        <ele>721.8</ele>
        <time>2026-08-30T12:37:27Z</time>
      </trkpt>
      <trkpt lat="48.765456" lon="9.901518">
        <ele>721.6</ele>
        <time>2026-08-30T12:37:28Z</time>
      </trkpt>
      <trkpt lat="48.765456" lon="9.901518">
        <ele>721.4</ele>
        <time>2026-08-30T12:37:29Z</time>
      </trkpt>
      <trkpt lat="48.765456" lon="9.901518">
        <ele>721.4</ele>
        <time>2026-08-30T12:37:30Z</time>
      </trkpt>
      <trkpt lat="48.765456" lon="9.901518">
        <ele>721.2</ele>
        <time>2026-08-30T12:37:31Z</time>
      </trkpt>
      <trkpt lat="48.765456" lon="9.901518">
        <ele>721.2</ele>
        <time>2026-08-30T12:37:32Z</time>
      </trkpt>
      <trkpt lat="48.765457" lon="9.901511">
        <ele>721.2</ele>
        <time>2026-08-30T12:37:33Z</time>
      </trkpt>
      <trkpt lat="48.765459" lon="9.901479">
        <ele>721</ele>
        <time>2026-08-30T12:37:34Z</time>
      </trkpt>
      <trkpt lat="48.765453" lon="9.901471">
        <ele>720.8</ele>
        <time>2026-08-30T12:37:35Z</time>
      </trkpt>
      <trkpt lat="48.765441" lon="9.901470">
        <ele>720.8</ele>
        <time>2026-08-30T12:37:36Z</time>
      </trkpt>
      <trkpt lat="48.765432" lon="9.901477">
        <ele>720.6</ele>
        <time>2026-08-30T12:37:37Z</time>
      </trkpt>
      <trkpt lat="48.765424" lon="9.901486">
        <ele>720.4</ele>
        <time>2026-08-30T12:37:38Z</time>
      </trkpt>
      <trkpt lat="48.765424" lon="9.901486">
        <ele>720.2</ele>
        <time>2026-08-30T12:37:39Z</time>
      </trkpt>
      <trkpt lat="48.765424" lon="9.901486">
        <ele>720</ele>
        <time>2026-08-30T12:37:40Z</time>
      </trkpt>
      <trkpt lat="48.765424" lon="9.901486">
        <ele>720</ele>
        <time>2026-08-30T12:37:41Z</time>
      </trkpt>
      <trkpt lat="48.765424" lon="9.901486">
        <ele>719.8</ele>
        <time>2026-08-30T12:37:42Z</time>
      </trkpt>
      <trkpt lat="48.765424" lon="9.901486">
        <ele>719.6</ele>
        <time>2026-08-30T12:37:43Z</time>
      </trkpt>
      <trkpt lat="48.765424" lon="9.901486">
        <ele>719.4</ele>
        <time>2026-08-30T12:37:44Z</time>
      </trkpt>
      <trkpt lat="48.765424" lon="9.901486">
        <ele>719.4</ele>
        <time>2026-08-30T12:37:45Z</time>
      </trkpt>
      <trkpt lat="48.765424" lon="9.901486">
        <ele>719.2</ele>
        <time>2026-08-30T12:37:46Z</time>
      </trkpt>
      <trkpt lat="48.765424" lon="9.901486">
        <ele>719</ele>
        <time>2026-08-30T12:37:47Z</time>
      </trkpt>
      <trkpt lat="48.765424" lon="9.901486">
        <ele>719</ele>
        <time>2026-08-30T12:37:48Z</time>
      </trkpt>
      <trkpt lat="48.765424" lon="9.901486">
        <ele>718.8</ele>
        <time>2026-08-30T12:37:49Z</time>
      </trkpt>
      <trkpt lat="48.765424" lon="9.901486">
        <ele>718.8</ele>
        <time>2026-08-30T12:37:50Z</time>
      </trkpt>
      <trkpt lat="48.765424" lon="9.901486">
        <ele>718.8</ele>
        <time>2026-08-30T12:37:51Z</time>
      </trkpt>
      <trkpt lat="48.765424" lon="9.901486">
        <ele>718.8</ele>
        <time>2026-08-30T12:37:52Z</time>
      </trkpt>
      <trkpt lat="48.765424" lon="9.901486">
        <ele>718.8</ele>
        <time>2026-08-30T12:37:53Z</time>
      </trkpt>
      <trkpt lat="48.765424" lon="9.901486">
        <ele>718.8</ele>
        <time>2026-08-30T12:37:54Z</time>
      </trkpt>
      <trkpt lat="48.765424" lon="9.901486">
        <ele>718.8</ele>
        <time>2026-08-30T12:37:55Z</time>
      </trkpt>
      <trkpt lat="48.765424" lon="9.901486">
        <ele>718.8</ele>
        <time>2026-08-30T12:37:56Z</time>
      </trkpt>
      <trkpt lat="48.765424" lon="9.901486">
        <ele>718.8</ele>
        <time>2026-08-30T12:37:57Z</time>
      </trkpt>
      <trkpt lat="48.765424" lon="9.901486">
        <ele>718.8</ele>
        <time>2026-08-30T12:37:58Z</time>
      </trkpt>
      <trkpt lat="48.765424" lon="9.901486">
        <ele>718.8</ele>
        <time>2026-08-30T12:37:59Z</time>
      </trkpt>
      <trkpt lat="48.765424" lon="9.901486">
        <ele>718.8</ele>
        <time>2026-08-30T12:38:00Z</time>
      </trkpt>
      <trkpt lat="48.765424" lon="9.901486">
        <ele>718.8</ele>
        <time>2026-08-30T12:38:01Z</time>
      </trkpt>
      <trkpt lat="48.765424" lon="9.901486">
        <ele>718.8</ele>
        <time>2026-08-30T12:38:02Z</time>
      </trkpt>
      <trkpt lat="48.765424" lon="9.901486">
        <ele>718.8</ele>
        <time>2026-08-30T12:38:03Z</time>
      </trkpt>
      <trkpt lat="48.765424" lon="9.901486">
        <ele>718.8</ele>
        <time>2026-08-30T12:38:04Z</time>
      </trkpt>
      <trkpt lat="48.765424" lon="9.901486">
        <ele>718.8</ele>
        <time>2026-08-30T12:38:05Z</time>
      </trkpt>
      <trkpt lat="48.765424" lon="9.901486">
        <ele>718.8</ele>
        <time>2026-08-30T12:38:06Z</time>
      </trkpt>
      <trkpt lat="48.765424" lon="9.901486">
        <ele>718.8</ele>
        <time>2026-08-30T12:38:07Z</time>
      </trkpt>
      <trkpt lat="48.765424" lon="9.901486">
        <ele>718.8</ele>
        <time>2026-08-30T12:38:08Z</time>
      </trkpt>
      <trkpt lat="48.765424" lon="9.901486">
        <ele>718.8</ele>
        <time>2026-08-30T12:38:09Z</time>
      </trkpt>
      <trkpt lat="48.765424" lon="9.901486">
        <ele>718.8</ele>
        <time>2026-08-30T12:38:10Z</time>
      </trkpt>
      <trkpt lat="48.765424" lon="9.901486">
        <ele>718.8</ele>
        <time>2026-08-30T12:38:11Z</time>
      </trkpt>
      <trkpt lat="48.765424" lon="9.901486">
        <ele>718.8</ele>
        <time>2026-08-30T12:38:12Z</time>
      </trkpt>
      <trkpt lat="48.765424" lon="9.901486">
        <ele>718.8</ele>
        <time>2026-08-30T12:38:13Z</time>
      </trkpt>
      <trkpt lat="48.765424" lon="9.901486">
        <ele>718.8</ele>
        <time>2026-08-30T12:38:14Z</time>
      </trkpt>
      <trkpt lat="48.765424" lon="9.901486">
        <ele>718.8</ele>
        <time>2026-08-30T12:38:15Z</time>
      </trkpt>
      <trkpt lat="48.765424" lon="9.901486">
        <ele>718.6</ele>
        <time>2026-08-30T12:38:16Z</time>
      </trkpt>
      <trkpt lat="48.765424" lon="9.901486">
        <ele>718.6</ele>
        <time>2026-08-30T12:38:17Z</time>
      </trkpt>
      <trkpt lat="48.765424" lon="9.901486">
        <ele>718.6</ele>
        <time>2026-08-30T12:38:18Z</time>
      </trkpt>
      <trkpt lat="48.765424" lon="9.901486">
        <ele>718.6</ele>
        <time>2026-08-30T12:38:19Z</time>
      </trkpt>
      <trkpt lat="48.765424" lon="9.901486">
        <ele>718.6</ele>
        <time>2026-08-30T12:38:20Z</time>
      </trkpt>
      <trkpt lat="48.765424" lon="9.901486">
        <ele>718.6</ele>
        <time>2026-08-30T12:38:21Z</time>
      </trkpt>
      <trkpt lat="48.765424" lon="9.901486">
        <ele>718.4</ele>
        <time>2026-08-30T12:38:22Z</time>
      </trkpt>
      <trkpt lat="48.765424" lon="9.901486">
        <ele>718.4</ele>
        <time>2026-08-30T12:38:23Z</time>
      </trkpt>
      <trkpt lat="48.765424" lon="9.901486">
        <ele>718.4</ele>
        <time>2026-08-30T12:38:24Z</time>
      </trkpt>
      <trkpt lat="48.765424" lon="9.901486">
        <ele>718.4</ele>
        <time>2026-08-30T12:38:25Z</time>
      </trkpt>
      <trkpt lat="48.765424" lon="9.901486">
        <ele>718.4</ele>
        <time>2026-08-30T12:38:26Z</time>
      </trkpt>
      <trkpt lat="48.765424" lon="9.901486">
        <ele>718.4</ele>
        <time>2026-08-30T12:38:27Z</time>
      </trkpt>
      <trkpt lat="48.765424" lon="9.901486">
        <ele>718.4</ele>
        <time>2026-08-30T12:38:28Z</time>
      </trkpt>
      <trkpt lat="48.765424" lon="9.901486">
        <ele>718.4</ele>
        <time>2026-08-30T12:38:29Z</time>
      </trkpt>
      <trkpt lat="48.765424" lon="9.901486">
        <ele>718.6</ele>
        <time>2026-08-30T12:38:30Z</time>
      </trkpt>
      <trkpt lat="48.765424" lon="9.901486">
        <ele>718.6</ele>
        <time>2026-08-30T12:38:31Z</time>
      </trkpt>
      <trkpt lat="48.765424" lon="9.901486">
        <ele>718.6</ele>
        <time>2026-08-30T12:38:32Z</time>
      </trkpt>
      <trkpt lat="48.765424" lon="9.901486">
        <ele>718.8</ele>
        <time>2026-08-30T12:38:33Z</time>
      </trkpt>
      <trkpt lat="48.765424" lon="9.901486">
        <ele>718.8</ele>
        <time>2026-08-30T12:38:34Z</time>
      </trkpt>
      <trkpt lat="48.765424" lon="9.901486">
        <ele>718.8</ele>
        <time>2026-08-30T12:38:35Z</time>
      </trkpt>
      <trkpt lat="48.765424" lon="9.901486">
        <ele>718.8</ele>
        <time>2026-08-30T12:38:36Z</time>
      </trkpt>
      <trkpt lat="48.765424" lon="9.901486">
        <ele>718.8</ele>
        <time>2026-08-30T12:38:37Z</time>
      </trkpt>
      <trkpt lat="48.765424" lon="9.901486">
        <ele>718.8</ele>
        <time>2026-08-30T12:38:38Z</time>
      </trkpt>
      <trkpt lat="48.765424" lon="9.901486">
        <ele>718.8</ele>
        <time>2026-08-30T12:38:39Z</time>
      </trkpt>
      <trkpt lat="48.765424" lon="9.901486">
        <ele>718.8</ele>
        <time>2026-08-30T12:38:40Z</time>
      </trkpt>
      <trkpt lat="48.765424" lon="9.901486">
        <ele>718.8</ele>
        <time>2026-08-30T12:38:41Z</time>
      </trkpt>
      <trkpt lat="48.765424" lon="9.901486">
        <ele>718.8</ele>
        <time>2026-08-30T12:38:42Z</time>
      </trkpt>
      <trkpt lat="48.765424" lon="9.901486">
        <ele>718.6</ele>
        <time>2026-08-30T12:38:43Z</time>
      </trkpt>
      <trkpt lat="48.765424" lon="9.901486">
        <ele>718.6</ele>
        <time>2026-08-30T12:38:44Z</time>
      </trkpt>
      <trkpt lat="48.765424" lon="9.901486">
        <ele>718.6</ele>
        <time>2026-08-30T12:38:45Z</time>
      </trkpt>
      <trkpt lat="48.765424" lon="9.901486">
        <ele>718.6</ele>
        <time>2026-08-30T12:38:46Z</time>
      </trkpt>
      <trkpt lat="48.765424" lon="9.901486">
        <ele>718.6</ele>
        <time>2026-08-30T12:38:47Z</time>
      </trkpt>
      <trkpt lat="48.765424" lon="9.901486">
        <ele>718.4</ele>
        <time>2026-08-30T12:38:48Z</time>
      </trkpt>
      <trkpt lat="48.765424" lon="9.901486">
        <ele>718.4</ele>
        <time>2026-08-30T12:38:49Z</time>
      </trkpt>
      <trkpt lat="48.765424" lon="9.901486">
        <ele>718.4</ele>
        <time>2026-08-30T12:38:50Z</time>
      </trkpt>
      <trkpt lat="48.765424" lon="9.901486">
        <ele>718.4</ele>
        <time>2026-08-30T12:38:51Z</time>
      </trkpt>
      <trkpt lat="48.765424" lon="9.901486">
        <ele>718.4</ele>
        <time>2026-08-30T12:38:52Z</time>
      </trkpt>
      <trkpt lat="48.765424" lon="9.901486">
        <ele>718.2</ele>
        <time>2026-08-30T12:38:53Z</time>
      </trkpt>
      <trkpt lat="48.765424" lon="9.901486">
        <ele>718.2</ele>
        <time>2026-08-30T12:38:54Z</time>
      </trkpt>
      <trkpt lat="48.765424" lon="9.901486">
        <ele>718.2</ele>
        <time>2026-08-30T12:38:55Z</time>
      </trkpt>
      <trkpt lat="48.765424" lon="9.901486">
        <ele>718</ele>
        <time>2026-08-30T12:38:56Z</time>
      </trkpt>
      <trkpt lat="48.765424" lon="9.901486">
        <ele>718</ele>
        <time>2026-08-30T12:38:57Z</time>
      </trkpt>
      <trkpt lat="48.765424" lon="9.901486">
        <ele>718</ele>
        <time>2026-08-30T12:38:58Z</time>
      </trkpt>
      <trkpt lat="48.765424" lon="9.901486">
        <ele>718</ele>
        <time>2026-08-30T12:38:59Z</time>
      </trkpt>
      <trkpt lat="48.765424" lon="9.901486">
        <ele>717.8</ele>
        <time>2026-08-30T12:39:00Z</time>
      </trkpt>
      <trkpt lat="48.765424" lon="9.901486">
        <ele>717.8</ele>
        <time>2026-08-30T12:39:01Z</time>
      </trkpt>
      <trkpt lat="48.765424" lon="9.901486">
        <ele>718</ele>
        <time>2026-08-30T12:39:02Z</time>
      </trkpt>
      <trkpt lat="48.765424" lon="9.901486">
        <ele>718</ele>
        <time>2026-08-30T12:39:03Z</time>
      </trkpt>
      <trkpt lat="48.765424" lon="9.901486">
        <ele>717.8</ele>
        <time>2026-08-30T12:39:04Z</time>
      </trkpt>
      <trkpt lat="48.765424" lon="9.901486">
        <ele>717.8</ele>
        <time>2026-08-30T12:39:05Z</time>
      </trkpt>
      <trkpt lat="48.765424" lon="9.901486">
        <ele>717.8</ele>
        <time>2026-08-30T12:39:06Z</time>
      </trkpt>
      <trkpt lat="48.765424" lon="9.901486">
        <ele>717.6</ele>
        <time>2026-08-30T12:39:07Z</time>
      </trkpt>
      <trkpt lat="48.765424" lon="9.901486">
        <ele>717.6</ele>
        <time>2026-08-30T12:39:08Z</time>
      </trkpt>
      <trkpt lat="48.765424" lon="9.901486">
        <ele>717.4</ele>
        <time>2026-08-30T12:39:09Z</time>
      </trkpt>
      <trkpt lat="48.765424" lon="9.901486">
        <ele>717.4</ele>
        <time>2026-08-30T12:39:10Z</time>
      </trkpt>
      <trkpt lat="48.765424" lon="9.901486">
        <ele>717.2</ele>
        <time>2026-08-30T12:39:11Z</time>
      </trkpt>
      <trkpt lat="48.765424" lon="9.901486">
        <ele>717.2</ele>
        <time>2026-08-30T12:39:12Z</time>
      </trkpt>
      <trkpt lat="48.765424" lon="9.901486">
        <ele>717.2</ele>
        <time>2026-08-30T12:39:13Z</time>
      </trkpt>
      <trkpt lat="48.765424" lon="9.901486">
        <ele>717</ele>
        <time>2026-08-30T12:39:14Z</time>
      </trkpt>
      <trkpt lat="48.765424" lon="9.901486">
        <ele>717</ele>
        <time>2026-08-30T12:39:15Z</time>
      </trkpt>
      <trkpt lat="48.765424" lon="9.901486">
        <ele>717</ele>
        <time>2026-08-30T12:39:16Z</time>
      </trkpt>
      <trkpt lat="48.765424" lon="9.901486">
        <ele>717</ele>
        <time>2026-08-30T12:39:17Z</time>
      </trkpt>
      <trkpt lat="48.765424" lon="9.901486">
        <ele>717.2</ele>
        <time>2026-08-30T12:39:18Z</time>
      </trkpt>
      <trkpt lat="48.765424" lon="9.901486">
        <ele>717.2</ele>
        <time>2026-08-30T12:39:19Z</time>
      </trkpt>
      <trkpt lat="48.765424" lon="9.901486">
        <ele>717.2</ele>
        <time>2026-08-30T12:39:20Z</time>
      </trkpt>
      <trkpt lat="48.765424" lon="9.901486">
        <ele>717.2</ele>
        <time>2026-08-30T12:39:21Z</time>
      </trkpt>
      <trkpt lat="48.765424" lon="9.901486">
        <ele>717.2</ele>
        <time>2026-08-30T12:39:22Z</time>
      </trkpt>
      <trkpt lat="48.765424" lon="9.901486">
        <ele>717.2</ele>
        <time>2026-08-30T12:39:23Z</time>
      </trkpt>
      <trkpt lat="48.765424" lon="9.901486">
        <ele>717</ele>
        <time>2026-08-30T12:39:24Z</time>
      </trkpt>
      <trkpt lat="48.765424" lon="9.901486">
        <ele>716.8</ele>
        <time>2026-08-30T12:39:25Z</time>
      </trkpt>
      <trkpt lat="48.765424" lon="9.901486">
        <ele>716.8</ele>
        <time>2026-08-30T12:39:26Z</time>
      </trkpt>
      <trkpt lat="48.765424" lon="9.901486">
        <ele>716.8</ele>
        <time>2026-08-30T12:39:27Z</time>
      </trkpt>
      <trkpt lat="48.765424" lon="9.901486">
        <ele>716.8</ele>
        <time>2026-08-30T12:39:28Z</time>
      </trkpt>
      <trkpt lat="48.765424" lon="9.901486">
        <ele>716.8</ele>
        <time>2026-08-30T12:39:29Z</time>
      </trkpt>
      <trkpt lat="48.765424" lon="9.901486">
        <ele>717</ele>
        <time>2026-08-30T12:39:30Z</time>
      </trkpt>
      <trkpt lat="48.765424" lon="9.901486">
        <ele>717</ele>
        <time>2026-08-30T12:39:31Z</time>
      </trkpt>
      <trkpt lat="48.765424" lon="9.901486">
        <ele>717</ele>
        <time>2026-08-30T12:39:32Z</time>
      </trkpt>
      <trkpt lat="48.765424" lon="9.901486">
        <ele>717</ele>
        <time>2026-08-30T12:39:33Z</time>
      </trkpt>
      <trkpt lat="48.765424" lon="9.901486">
        <ele>717</ele>
        <time>2026-08-30T12:39:34Z</time>
      </trkpt>
      <trkpt lat="48.765424" lon="9.901486">
        <ele>716.8</ele>
        <time>2026-08-30T12:39:35Z</time>
      </trkpt>
      <trkpt lat="48.765424" lon="9.901486">
        <ele>716.8</ele>
        <time>2026-08-30T12:39:36Z</time>
      </trkpt>
      <trkpt lat="48.765424" lon="9.901486">
        <ele>716.8</ele>
        <time>2026-08-30T12:39:37Z</time>
      </trkpt>
      <trkpt lat="48.765424" lon="9.901486">
        <ele>716.8</ele>
        <time>2026-08-30T12:39:38Z</time>
      </trkpt>
      <trkpt lat="48.765424" lon="9.901486">
        <ele>716.8</ele>
        <time>2026-08-30T12:39:39Z</time>
      </trkpt>
      <trkpt lat="48.765424" lon="9.901486">
        <ele>716.8</ele>
        <time>2026-08-30T12:39:40Z</time>
      </trkpt>
      <trkpt lat="48.765424" lon="9.901486">
        <ele>716.8</ele>
        <time>2026-08-30T12:39:41Z</time>
      </trkpt>
      <trkpt lat="48.765424" lon="9.901486">
        <ele>716.8</ele>
        <time>2026-08-30T12:39:42Z</time>
      </trkpt>
      <trkpt lat="48.765424" lon="9.901486">
        <ele>716.8</ele>
        <time>2026-08-30T12:39:43Z</time>
      </trkpt>
      <trkpt lat="48.765424" lon="9.901486">
        <ele>716.8</ele>
        <time>2026-08-30T12:39:44Z</time>
      </trkpt>
      <trkpt lat="48.765424" lon="9.901486">
        <ele>717</ele>
        <time>2026-08-30T12:39:45Z</time>
      </trkpt>
      <trkpt lat="48.765424" lon="9.901486">
        <ele>717</ele>
        <time>2026-08-30T12:39:46Z</time>
      </trkpt>
      <trkpt lat="48.765424" lon="9.901486">
        <ele>717</ele>
        <time>2026-08-30T12:39:47Z</time>
      </trkpt>
      <trkpt lat="48.765424" lon="9.901486">
        <ele>717</ele>
        <time>2026-08-30T12:39:48Z</time>
      </trkpt>
      <trkpt lat="48.765424" lon="9.901486">
        <ele>717</ele>
        <time>2026-08-30T12:39:49Z</time>
      </trkpt>
      <trkpt lat="48.765424" lon="9.901486">
        <ele>717</ele>
        <time>2026-08-30T12:39:50Z</time>
      </trkpt>
      <trkpt lat="48.765424" lon="9.901486">
        <ele>716.8</ele>
        <time>2026-08-30T12:39:51Z</time>
      </trkpt>
      <trkpt lat="48.765424" lon="9.901486">
        <ele>716.8</ele>
        <time>2026-08-30T12:39:52Z</time>
      </trkpt>
      <trkpt lat="48.765424" lon="9.901486">
        <ele>716.8</ele>
        <time>2026-08-30T12:39:53Z</time>
      </trkpt>
      <trkpt lat="48.765424" lon="9.901486">
        <ele>716.8</ele>
        <time>2026-08-30T12:39:54Z</time>
      </trkpt>
      <trkpt lat="48.765424" lon="9.901486">
        <ele>716.8</ele>
        <time>2026-08-30T12:39:55Z</time>
      </trkpt>
      <trkpt lat="48.765424" lon="9.901486">
        <ele>716.6</ele>
        <time>2026-08-30T12:39:56Z</time>
      </trkpt>
      <trkpt lat="48.765424" lon="9.901486">
        <ele>716.6</ele>
        <time>2026-08-30T12:39:57Z</time>
      </trkpt>
      <trkpt lat="48.765424" lon="9.901486">
        <ele>716.6</ele>
        <time>2026-08-30T12:39:58Z</time>
      </trkpt>
      <trkpt lat="48.765424" lon="9.901486">
        <ele>716.4</ele>
        <time>2026-08-30T12:39:59Z</time>
      </trkpt>
      <trkpt lat="48.765424" lon="9.901486">
        <ele>716.4</ele>
        <time>2026-08-30T12:40:00Z</time>
      </trkpt>
      <trkpt lat="48.765424" lon="9.901486">
        <ele>716.4</ele>
        <time>2026-08-30T12:40:01Z</time>
      </trkpt>
      <trkpt lat="48.765424" lon="9.901486">
        <ele>716.2</ele>
        <time>2026-08-30T12:40:02Z</time>
      </trkpt>
      <trkpt lat="48.765424" lon="9.901486">
        <ele>716.2</ele>
        <time>2026-08-30T12:40:03Z</time>
      </trkpt>
      <trkpt lat="48.765424" lon="9.901486">
        <ele>716.2</ele>
        <time>2026-08-30T12:40:04Z</time>
      </trkpt>
      <trkpt lat="48.765424" lon="9.901486">
        <ele>716.2</ele>
        <time>2026-08-30T12:40:05Z</time>
      </trkpt>
      <trkpt lat="48.765424" lon="9.901486">
        <ele>716.2</ele>
        <time>2026-08-30T12:40:06Z</time>
      </trkpt>
      <trkpt lat="48.765424" lon="9.901486">
        <ele>716</ele>
        <time>2026-08-30T12:40:07Z</time>
      </trkpt>
      <trkpt lat="48.765424" lon="9.901486">
        <ele>716</ele>
        <time>2026-08-30T12:40:08Z</time>
      </trkpt>
      <trkpt lat="48.765424" lon="9.901486">
        <ele>715.8</ele>
        <time>2026-08-30T12:40:09Z</time>
      </trkpt>
      <trkpt lat="48.765424" lon="9.901486">
        <ele>715.8</ele>
        <time>2026-08-30T12:40:10Z</time>
      </trkpt>
      <trkpt lat="48.765424" lon="9.901486">
        <ele>715.8</ele>
        <time>2026-08-30T12:40:11Z</time>
      </trkpt>
      <trkpt lat="48.765424" lon="9.901486">
        <ele>715.8</ele>
        <time>2026-08-30T12:40:12Z</time>
      </trkpt>
      <trkpt lat="48.765424" lon="9.901486">
        <ele>715.6</ele>
        <time>2026-08-30T12:40:13Z</time>
      </trkpt>
      <trkpt lat="48.765424" lon="9.901486">
        <ele>715.6</ele>
        <time>2026-08-30T12:40:14Z</time>
      </trkpt>
      <trkpt lat="48.765424" lon="9.901486">
        <ele>715.6</ele>
        <time>2026-08-30T12:40:15Z</time>
      </trkpt>
      <trkpt lat="48.765424" lon="9.901486">
        <ele>715.6</ele>
        <time>2026-08-30T12:40:16Z</time>
      </trkpt>
      <trkpt lat="48.765424" lon="9.901486">
        <ele>715.4</ele>
        <time>2026-08-30T12:40:17Z</time>
      </trkpt>
      <trkpt lat="48.765424" lon="9.901486">
        <ele>715.4</ele>
        <time>2026-08-30T12:40:18Z</time>
      </trkpt>
      <trkpt lat="48.765424" lon="9.901486">
        <ele>715.4</ele>
        <time>2026-08-30T12:40:19Z</time>
      </trkpt>
      <trkpt lat="48.765424" lon="9.901486">
        <ele>715.4</ele>
        <time>2026-08-30T12:40:20Z</time>
      </trkpt>
      <trkpt lat="48.765424" lon="9.901486">
        <ele>715.4</ele>
        <time>2026-08-30T12:40:21Z</time>
      </trkpt>
      <trkpt lat="48.765424" lon="9.901486">
        <ele>715.4</ele>
        <time>2026-08-30T12:40:22Z</time>
      </trkpt>
      <trkpt lat="48.765424" lon="9.901486">
        <ele>715.6</ele>
        <time>2026-08-30T12:40:23Z</time>
      </trkpt>
      <trkpt lat="48.765424" lon="9.901486">
        <ele>715.6</ele>
        <time>2026-08-30T12:40:24Z</time>
      </trkpt>
      <trkpt lat="48.765424" lon="9.901486">
        <ele>715.6</ele>
        <time>2026-08-30T12:40:25Z</time>
      </trkpt>
      <trkpt lat="48.765424" lon="9.901486">
        <ele>715.6</ele>
        <time>2026-08-30T12:40:26Z</time>
      </trkpt>
      <trkpt lat="48.765424" lon="9.901486">
        <ele>715.6</ele>
        <time>2026-08-30T12:40:27Z</time>
      </trkpt>
      <trkpt lat="48.765424" lon="9.901486">
        <ele>715.6</ele>
        <time>2026-08-30T12:40:28Z</time>
      </trkpt>
      <trkpt lat="48.765424" lon="9.901486">
        <ele>715.6</ele>
        <time>2026-08-30T12:40:29Z</time>
      </trkpt>
      <trkpt lat="48.765424" lon="9.901486">
        <ele>715.6</ele>
        <time>2026-08-30T12:40:30Z</time>
      </trkpt>
      <trkpt lat="48.765424" lon="9.901486">
        <ele>715.6</ele>
        <time>2026-08-30T12:40:31Z</time>
      </trkpt>
      <trkpt lat="48.765424" lon="9.901486">
        <ele>715.6</ele>
        <time>2026-08-30T12:40:32Z</time>
      </trkpt>
      <trkpt lat="48.765424" lon="9.901486">
        <ele>715.6</ele>
        <time>2026-08-30T12:40:33Z</time>
      </trkpt>
      <trkpt lat="48.765424" lon="9.901486">
        <ele>715.4</ele>
        <time>2026-08-30T12:40:34Z</time>
      </trkpt>
      <trkpt lat="48.765424" lon="9.901486">
        <ele>715.4</ele>
        <time>2026-08-30T12:40:35Z</time>
      </trkpt>
      <trkpt lat="48.765424" lon="9.901486">
        <ele>715.4</ele>
        <time>2026-08-30T12:40:36Z</time>
      </trkpt>
      <trkpt lat="48.765424" lon="9.901486">
        <ele>715.4</ele>
        <time>2026-08-30T12:40:37Z</time>
      </trkpt>
      <trkpt lat="48.765424" lon="9.901486">
        <ele>715.4</ele>
        <time>2026-08-30T12:40:38Z</time>
      </trkpt>
      <trkpt lat="48.765424" lon="9.901486">
        <ele>715.4</ele>
        <time>2026-08-30T12:40:39Z</time>
      </trkpt>
      <trkpt lat="48.765424" lon="9.901486">
        <ele>715.4</ele>
        <time>2026-08-30T12:40:40Z</time>
      </trkpt>
      <trkpt lat="48.765424" lon="9.901486">
        <ele>715.4</ele>
        <time>2026-08-30T12:40:41Z</time>
      </trkpt>
      <trkpt lat="48.765424" lon="9.901486">
        <ele>715.4</ele>
        <time>2026-08-30T12:40:42Z</time>
      </trkpt>
      <trkpt lat="48.765424" lon="9.901486">
        <ele>715.4</ele>
        <time>2026-08-30T12:40:43Z</time>
      </trkpt>
      <trkpt lat="48.765424" lon="9.901486">
        <ele>715.4</ele>
        <time>2026-08-30T12:40:44Z</time>
      </trkpt>
      <trkpt lat="48.765424" lon="9.901486">
        <ele>715.4</ele>
        <time>2026-08-30T12:40:45Z</time>
      </trkpt>
      <trkpt lat="48.765424" lon="9.901486">
        <ele>715.4</ele>
        <time>2026-08-30T12:40:46Z</time>
      </trkpt>
      <trkpt lat="48.765424" lon="9.901486">
        <ele>715.4</ele>
        <time>2026-08-30T12:40:47Z</time>
      </trkpt>
      <trkpt lat="48.765424" lon="9.901486">
        <ele>715.2</ele>
        <time>2026-08-30T12:40:48Z</time>
      </trkpt>
      <trkpt lat="48.765424" lon="9.901486">
        <ele>715.2</ele>
        <time>2026-08-30T12:40:49Z</time>
      </trkpt>
      <trkpt lat="48.765424" lon="9.901486">
        <ele>715.2</ele>
        <time>2026-08-30T12:40:50Z</time>
      </trkpt>
      <trkpt lat="48.765424" lon="9.901486">
        <ele>715.2</ele>
        <time>2026-08-30T12:40:51Z</time>
      </trkpt>
      <trkpt lat="48.765424" lon="9.901486">
        <ele>715</ele>
        <time>2026-08-30T12:40:52Z</time>
      </trkpt>
      <trkpt lat="48.765424" lon="9.901486">
        <ele>715</ele>
        <time>2026-08-30T12:40:53Z</time>
      </trkpt>
      <trkpt lat="48.765424" lon="9.901486">
        <ele>715</ele>
        <time>2026-08-30T12:40:54Z</time>
      </trkpt>
      <trkpt lat="48.765424" lon="9.901486">
        <ele>714.8</ele>
        <time>2026-08-30T12:40:55Z</time>
      </trkpt>
      <trkpt lat="48.765424" lon="9.901486">
        <ele>714.8</ele>
        <time>2026-08-30T12:40:56Z</time>
      </trkpt>
      <trkpt lat="48.765424" lon="9.901486">
        <ele>714.8</ele>
        <time>2026-08-30T12:40:57Z</time>
      </trkpt>
      <trkpt lat="48.765424" lon="9.901486">
        <ele>714.8</ele>
        <time>2026-08-30T12:40:58Z</time>
      </trkpt>
      <trkpt lat="48.765424" lon="9.901486">
        <ele>714.8</ele>
        <time>2026-08-30T12:40:59Z</time>
      </trkpt>
      <trkpt lat="48.765424" lon="9.901486">
        <ele>714.8</ele>
        <time>2026-08-30T12:41:00Z</time>
      </trkpt>
      <trkpt lat="48.765424" lon="9.901486">
        <ele>714.6</ele>
        <time>2026-08-30T12:41:01Z</time>
      </trkpt>
      <trkpt lat="48.765424" lon="9.901486">
        <ele>714.6</ele>
        <time>2026-08-30T12:41:02Z</time>
      </trkpt>
      <trkpt lat="48.765424" lon="9.901486">
        <ele>714.6</ele>
        <time>2026-08-30T12:41:03Z</time>
      </trkpt>
      <trkpt lat="48.765424" lon="9.901486">
        <ele>714.6</ele>
        <time>2026-08-30T12:41:04Z</time>
      </trkpt>
      <trkpt lat="48.765424" lon="9.901486">
        <ele>714.6</ele>
        <time>2026-08-30T12:41:05Z</time>
      </trkpt>
      <trkpt lat="48.765424" lon="9.901486">
        <ele>714.6</ele>
        <time>2026-08-30T12:41:06Z</time>
      </trkpt>
      <trkpt lat="48.765424" lon="9.901486">
        <ele>714.6</ele>
        <time>2026-08-30T12:41:07Z</time>
      </trkpt>
      <trkpt lat="48.765424" lon="9.901486">
        <ele>714.6</ele>
        <time>2026-08-30T12:41:08Z</time>
      </trkpt>
      <trkpt lat="48.765424" lon="9.901486">
        <ele>714.6</ele>
        <time>2026-08-30T12:41:09Z</time>
      </trkpt>
      <trkpt lat="48.765424" lon="9.901486">
        <ele>714.6</ele>
        <time>2026-08-30T12:41:10Z</time>
      </trkpt>
      <trkpt lat="48.765424" lon="9.901486">
        <ele>714.6</ele>
        <time>2026-08-30T12:41:11Z</time>
      </trkpt>
      <trkpt lat="48.765424" lon="9.901486">
        <ele>714.6</ele>
        <time>2026-08-30T12:41:12Z</time>
      </trkpt>
      <trkpt lat="48.765424" lon="9.901486">
        <ele>714.4</ele>
        <time>2026-08-30T12:41:13Z</time>
      </trkpt>
      <trkpt lat="48.765424" lon="9.901486">
        <ele>714.4</ele>
        <time>2026-08-30T12:41:14Z</time>
      </trkpt>
      <trkpt lat="48.765424" lon="9.901486">
        <ele>714.4</ele>
        <time>2026-08-30T12:41:15Z</time>
      </trkpt>
      <trkpt lat="48.765424" lon="9.901486">
        <ele>714.4</ele>
        <time>2026-08-30T12:41:16Z</time>
      </trkpt>
      <trkpt lat="48.765424" lon="9.901486">
        <ele>714.2</ele>
        <time>2026-08-30T12:41:17Z</time>
      </trkpt>
      <trkpt lat="48.765424" lon="9.901486">
        <ele>714.2</ele>
        <time>2026-08-30T12:41:18Z</time>
      </trkpt>
      <trkpt lat="48.765424" lon="9.901486">
        <ele>714.2</ele>
        <time>2026-08-30T12:41:19Z</time>
      </trkpt>
      <trkpt lat="48.765424" lon="9.901486">
        <ele>714.4</ele>
        <time>2026-08-30T12:41:20Z</time>
      </trkpt>
      <trkpt lat="48.765424" lon="9.901486">
        <ele>714.4</ele>
        <time>2026-08-30T12:41:21Z</time>
      </trkpt>
      <trkpt lat="48.765424" lon="9.901486">
        <ele>714.4</ele>
        <time>2026-08-30T12:41:22Z</time>
      </trkpt>
      <trkpt lat="48.765424" lon="9.901486">
        <ele>714.4</ele>
        <time>2026-08-30T12:41:23Z</time>
      </trkpt>
      <trkpt lat="48.765424" lon="9.901486">
        <ele>714.4</ele>
        <time>2026-08-30T12:41:24Z</time>
      </trkpt>
      <trkpt lat="48.765424" lon="9.901486">
        <ele>714.4</ele>
        <time>2026-08-30T12:41:25Z</time>
      </trkpt>
      <trkpt lat="48.765424" lon="9.901486">
        <ele>714.4</ele>
        <time>2026-08-30T12:41:26Z</time>
      </trkpt>
      <trkpt lat="48.765424" lon="9.901486">
        <ele>714.4</ele>
        <time>2026-08-30T12:41:27Z</time>
      </trkpt>
      <trkpt lat="48.765424" lon="9.901486">
        <ele>714.4</ele>
        <time>2026-08-30T12:41:28Z</time>
      </trkpt>
      <trkpt lat="48.765424" lon="9.901486">
        <ele>714.4</ele>
        <time>2026-08-30T12:41:29Z</time>
      </trkpt>
      <trkpt lat="48.765424" lon="9.901486">
        <ele>714.4</ele>
        <time>2026-08-30T12:41:30Z</time>
      </trkpt>
      <trkpt lat="48.765424" lon="9.901486">
        <ele>714.6</ele>
        <time>2026-08-30T12:41:31Z</time>
      </trkpt>
      <trkpt lat="48.765424" lon="9.901486">
        <ele>714.6</ele>
        <time>2026-08-30T12:41:32Z</time>
      </trkpt>
      <trkpt lat="48.765424" lon="9.901486">
        <ele>714.6</ele>
        <time>2026-08-30T12:41:33Z</time>
      </trkpt>
      <trkpt lat="48.765424" lon="9.901486">
        <ele>714.6</ele>
        <time>2026-08-30T12:41:34Z</time>
      </trkpt>
      <trkpt lat="48.765424" lon="9.901486">
        <ele>714.8</ele>
        <time>2026-08-30T12:41:35Z</time>
      </trkpt>
      <trkpt lat="48.765424" lon="9.901486">
        <ele>714.8</ele>
        <time>2026-08-30T12:41:36Z</time>
      </trkpt>
      <trkpt lat="48.765424" lon="9.901486">
        <ele>714.8</ele>
        <time>2026-08-30T12:41:37Z</time>
      </trkpt>
      <trkpt lat="48.765424" lon="9.901486">
        <ele>714.8</ele>
        <time>2026-08-30T12:41:38Z</time>
      </trkpt>
      <trkpt lat="48.765424" lon="9.901486">
        <ele>714.8</ele>
        <time>2026-08-30T12:41:39Z</time>
      </trkpt>
      <trkpt lat="48.765424" lon="9.901486">
        <ele>714.8</ele>
        <time>2026-08-30T12:41:40Z</time>
      </trkpt>
      <trkpt lat="48.765424" lon="9.901486">
        <ele>714.8</ele>
        <time>2026-08-30T12:41:41Z</time>
      </trkpt>
      <trkpt lat="48.765424" lon="9.901486">
        <ele>714.8</ele>
        <time>2026-08-30T12:41:42Z</time>
      </trkpt>
      <trkpt lat="48.765424" lon="9.901486">
        <ele>714.8</ele>
        <time>2026-08-30T12:41:43Z</time>
      </trkpt>
      <trkpt lat="48.765424" lon="9.901486">
        <ele>714.6</ele>
        <time>2026-08-30T12:41:44Z</time>
      </trkpt>
      <trkpt lat="48.765424" lon="9.901486">
        <ele>714.6</ele>
        <time>2026-08-30T12:41:45Z</time>
      </trkpt>
      <trkpt lat="48.765424" lon="9.901486">
        <ele>714.6</ele>
        <time>2026-08-30T12:41:46Z</time>
      </trkpt>
      <trkpt lat="48.765424" lon="9.901486">
        <ele>714.6</ele>
        <time>2026-08-30T12:41:47Z</time>
      </trkpt>
      <trkpt lat="48.765424" lon="9.901486">
        <ele>714.6</ele>
        <time>2026-08-30T12:41:48Z</time>
      </trkpt>
      <trkpt lat="48.765424" lon="9.901486">
        <ele>714.6</ele>
        <time>2026-08-30T12:41:49Z</time>
      </trkpt>
      <trkpt lat="48.765424" lon="9.901486">
        <ele>714.6</ele>
        <time>2026-08-30T12:41:50Z</time>
      </trkpt>
      <trkpt lat="48.765424" lon="9.901486">
        <ele>714.6</ele>
        <time>2026-08-30T12:41:51Z</time>
      </trkpt>
      <trkpt lat="48.765424" lon="9.901486">
        <ele>714.6</ele>
        <time>2026-08-30T12:41:52Z</time>
      </trkpt>
      <trkpt lat="48.765424" lon="9.901486">
        <ele>714.6</ele>
        <time>2026-08-30T12:41:53Z</time>
      </trkpt>
      <trkpt lat="48.765424" lon="9.901486">
        <ele>714.6</ele>
        <time>2026-08-30T12:41:54Z</time>
      </trkpt>
      <trkpt lat="48.765424" lon="9.901486">
        <ele>714.4</ele>
        <time>2026-08-30T12:41:55Z</time>
      </trkpt>
      <trkpt lat="48.765424" lon="9.901486">
        <ele>714.4</ele>
        <time>2026-08-30T12:41:56Z</time>
      </trkpt>
      <trkpt lat="48.765424" lon="9.901486">
        <ele>714.4</ele>
        <time>2026-08-30T12:41:57Z</time>
      </trkpt>
      <trkpt lat="48.765424" lon="9.901486">
        <ele>714.4</ele>
        <time>2026-08-30T12:41:58Z</time>
      </trkpt>
      <trkpt lat="48.765424" lon="9.901486">
        <ele>714.4</ele>
        <time>2026-08-30T12:41:59Z</time>
      </trkpt>
      <trkpt lat="48.765424" lon="9.901486">
        <ele>714.4</ele>
        <time>2026-08-30T12:42:00Z</time>
      </trkpt>
      <trkpt lat="48.765424" lon="9.901486">
        <ele>714.4</ele>
        <time>2026-08-30T12:42:01Z</time>
      </trkpt>
      <trkpt lat="48.765424" lon="9.901486">
        <ele>714.4</ele>
        <time>2026-08-30T12:42:02Z</time>
      </trkpt>
      <trkpt lat="48.765424" lon="9.901486">
        <ele>714.4</ele>
        <time>2026-08-30T12:42:03Z</time>
      </trkpt>
      <trkpt lat="48.765424" lon="9.901486">
        <ele>714.4</ele>
        <time>2026-08-30T12:42:04Z</time>
      </trkpt>
      <trkpt lat="48.765424" lon="9.901486">
        <ele>714.4</ele>
        <time>2026-08-30T12:42:05Z</time>
      </trkpt>
      <trkpt lat="48.765424" lon="9.901486">
        <ele>714.2</ele>
        <time>2026-08-30T12:42:06Z</time>
      </trkpt>
      <trkpt lat="48.765424" lon="9.901486">
        <ele>714.2</ele>
        <time>2026-08-30T12:42:07Z</time>
      </trkpt>
      <trkpt lat="48.765424" lon="9.901486">
        <ele>714.2</ele>
        <time>2026-08-30T12:42:08Z</time>
      </trkpt>
      <trkpt lat="48.765424" lon="9.901486">
        <ele>714</ele>
        <time>2026-08-30T12:42:09Z</time>
      </trkpt>
      <trkpt lat="48.765424" lon="9.901486">
        <ele>714</ele>
        <time>2026-08-30T12:42:10Z</time>
      </trkpt>
      <trkpt lat="48.765424" lon="9.901486">
        <ele>714</ele>
        <time>2026-08-30T12:42:11Z</time>
      </trkpt>
      <trkpt lat="48.765424" lon="9.901486">
        <ele>714</ele>
        <time>2026-08-30T12:42:12Z</time>
      </trkpt>
      <trkpt lat="48.765424" lon="9.901486">
        <ele>714</ele>
        <time>2026-08-30T12:42:13Z</time>
      </trkpt>
      <trkpt lat="48.765424" lon="9.901486">
        <ele>714</ele>
        <time>2026-08-30T12:42:14Z</time>
      </trkpt>
      <trkpt lat="48.765424" lon="9.901486">
        <ele>714</ele>
        <time>2026-08-30T12:42:15Z</time>
      </trkpt>
      <trkpt lat="48.765424" lon="9.901486">
        <ele>714</ele>
        <time>2026-08-30T12:42:16Z</time>
      </trkpt>
      <trkpt lat="48.765424" lon="9.901486">
        <ele>714</ele>
        <time>2026-08-30T12:42:17Z</time>
      </trkpt>
      <trkpt lat="48.765424" lon="9.901486">
        <ele>714</ele>
        <time>2026-08-30T12:42:18Z</time>
      </trkpt>
      <trkpt lat="48.765424" lon="9.901486">
        <ele>714</ele>
        <time>2026-08-30T12:42:19Z</time>
      </trkpt>
      <trkpt lat="48.765424" lon="9.901486">
        <ele>714</ele>
        <time>2026-08-30T12:42:20Z</time>
      </trkpt>
      <trkpt lat="48.765424" lon="9.901486">
        <ele>714</ele>
        <time>2026-08-30T12:42:21Z</time>
      </trkpt>
      <trkpt lat="48.765424" lon="9.901486">
        <ele>714</ele>
        <time>2026-08-30T12:42:22Z</time>
      </trkpt>
      <trkpt lat="48.765424" lon="9.901486">
        <ele>714</ele>
        <time>2026-08-30T12:42:23Z</time>
      </trkpt>
      <trkpt lat="48.765424" lon="9.901486">
        <ele>714</ele>
        <time>2026-08-30T12:42:24Z</time>
      </trkpt>
      <trkpt lat="48.765424" lon="9.901486">
        <ele>714</ele>
        <time>2026-08-30T12:42:25Z</time>
      </trkpt>
      <trkpt lat="48.765424" lon="9.901486">
        <ele>714</ele>
        <time>2026-08-30T12:42:26Z</time>
      </trkpt>
      <trkpt lat="48.765424" lon="9.901486">
        <ele>714</ele>
        <time>2026-08-30T12:42:27Z</time>
      </trkpt>
      <trkpt lat="48.765424" lon="9.901486">
        <ele>714</ele>
        <time>2026-08-30T12:42:28Z</time>
      </trkpt>
      <trkpt lat="48.765424" lon="9.901486">
        <ele>714</ele>
        <time>2026-08-30T12:42:29Z</time>
      </trkpt>
      <trkpt lat="48.765424" lon="9.901486">
        <ele>714</ele>
        <time>2026-08-30T12:42:30Z</time>
      </trkpt>
      <trkpt lat="48.765424" lon="9.901486">
        <ele>714</ele>
        <time>2026-08-30T12:42:31Z</time>
      </trkpt>
      <trkpt lat="48.765424" lon="9.901486">
        <ele>714</ele>
        <time>2026-08-30T12:42:32Z</time>
      </trkpt>
      <trkpt lat="48.765424" lon="9.901486">
        <ele>714</ele>
        <time>2026-08-30T12:42:33Z</time>
      </trkpt>
      <trkpt lat="48.765424" lon="9.901486">
        <ele>714</ele>
        <time>2026-08-30T12:42:34Z</time>
      </trkpt>
      <trkpt lat="48.765424" lon="9.901486">
        <ele>714</ele>
        <time>2026-08-30T12:42:35Z</time>
      </trkpt>
      <trkpt lat="48.765424" lon="9.901486">
        <ele>714</ele>
        <time>2026-08-30T12:42:36Z</time>
      </trkpt>
      <trkpt lat="48.765424" lon="9.901486">
        <ele>714</ele>
        <time>2026-08-30T12:42:37Z</time>
      </trkpt>
      <trkpt lat="48.765424" lon="9.901486">
        <ele>714</ele>
        <time>2026-08-30T12:42:38Z</time>
      </trkpt>
      <trkpt lat="48.765424" lon="9.901486">
        <ele>714</ele>
        <time>2026-08-30T12:42:39Z</time>
      </trkpt>
      <trkpt lat="48.765424" lon="9.901486">
        <ele>714</ele>
        <time>2026-08-30T12:42:40Z</time>
      </trkpt>
      <trkpt lat="48.765424" lon="9.901486">
        <ele>714</ele>
        <time>2026-08-30T12:42:41Z</time>
      </trkpt>
      <trkpt lat="48.765424" lon="9.901486">
        <ele>714</ele>
        <time>2026-08-30T12:42:42Z</time>
      </trkpt>
      <trkpt lat="48.765424" lon="9.901486">
        <ele>714</ele>
        <time>2026-08-30T12:42:43Z</time>
      </trkpt>
      <trkpt lat="48.765424" lon="9.901486">
        <ele>714</ele>
        <time>2026-08-30T12:42:44Z</time>
      </trkpt>
      <trkpt lat="48.765424" lon="9.901486">
        <ele>714</ele>
        <time>2026-08-30T12:42:45Z</time>
      </trkpt>
      <trkpt lat="48.765424" lon="9.901486">
        <ele>714</ele>
        <time>2026-08-30T12:42:46Z</time>
      </trkpt>
      <trkpt lat="48.765424" lon="9.901486">
        <ele>714</ele>
        <time>2026-08-30T12:42:47Z</time>
      </trkpt>
      <trkpt lat="48.765424" lon="9.901486">
        <ele>714</ele>
        <time>2026-08-30T12:42:48Z</time>
      </trkpt>
      <trkpt lat="48.765424" lon="9.901486">
        <ele>714</ele>
        <time>2026-08-30T12:42:49Z</time>
      </trkpt>
      <trkpt lat="48.765424" lon="9.901486">
        <ele>714</ele>
        <time>2026-08-30T12:42:50Z</time>
      </trkpt>
      <trkpt lat="48.765424" lon="9.901486">
        <ele>714</ele>
        <time>2026-08-30T12:42:51Z</time>
      </trkpt>
      <trkpt lat="48.765424" lon="9.901486">
        <ele>714</ele>
        <time>2026-08-30T12:42:52Z</time>
      </trkpt>
      <trkpt lat="48.765424" lon="9.901486">
        <ele>714</ele>
        <time>2026-08-30T12:42:53Z</time>
      </trkpt>
      <trkpt lat="48.765424" lon="9.901486">
        <ele>714</ele>
        <time>2026-08-30T12:42:54Z</time>
      </trkpt>
      <trkpt lat="48.765424" lon="9.901486">
        <ele>714</ele>
        <time>2026-08-30T12:42:55Z</time>
      </trkpt>
      <trkpt lat="48.765424" lon="9.901486">
        <ele>714</ele>
        <time>2026-08-30T12:42:56Z</time>
      </trkpt>
      <trkpt lat="48.765424" lon="9.901486">
        <ele>714</ele>
        <time>2026-08-30T12:42:57Z</time>
      </trkpt>
      <trkpt lat="48.765424" lon="9.901486">
        <ele>714</ele>
        <time>2026-08-30T12:42:58Z</time>
      </trkpt>
      <trkpt lat="48.765424" lon="9.901486">
        <ele>714</ele>
        <time>2026-08-30T12:42:59Z</time>
      </trkpt>
      <trkpt lat="48.765424" lon="9.901486">
        <ele>714</ele>
        <time>2026-08-30T12:43:00Z</time>
      </trkpt>
      <trkpt lat="48.765424" lon="9.901486">
        <ele>714</ele>
        <time>2026-08-30T12:43:01Z</time>
      </trkpt>
      <trkpt lat="48.765424" lon="9.901486">
        <ele>714</ele>
        <time>2026-08-30T12:43:02Z</time>
      </trkpt>
      <trkpt lat="48.765424" lon="9.901486">
        <ele>714</ele>
        <time>2026-08-30T12:43:03Z</time>
      </trkpt>
      <trkpt lat="48.765424" lon="9.901486">
        <ele>714</ele>
        <time>2026-08-30T12:43:04Z</time>
      </trkpt>
      <trkpt lat="48.765424" lon="9.901486">
        <ele>714</ele>
        <time>2026-08-30T12:43:05Z</time>
      </trkpt>
      <trkpt lat="48.765424" lon="9.901486">
        <ele>714</ele>
        <time>2026-08-30T12:43:06Z</time>
      </trkpt>
      <trkpt lat="48.765424" lon="9.901486">
        <ele>714</ele>
        <time>2026-08-30T12:43:07Z</time>
      </trkpt>
      <trkpt lat="48.765424" lon="9.901486">
        <ele>714</ele>
        <time>2026-08-30T12:43:08Z</time>
      </trkpt>
      <trkpt lat="48.765424" lon="9.901486">
        <ele>714</ele>
        <time>2026-08-30T12:43:09Z</time>
      </trkpt>
      <trkpt lat="48.765424" lon="9.901486">
        <ele>714</ele>
        <time>2026-08-30T12:43:10Z</time>
      </trkpt>
      <trkpt lat="48.765424" lon="9.901486">
        <ele>714</ele>
        <time>2026-08-30T12:43:11Z</time>
      </trkpt>
      <trkpt lat="48.765424" lon="9.901486">
        <ele>714</ele>
        <time>2026-08-30T12:43:12Z</time>
      </trkpt>
      <trkpt lat="48.765424" lon="9.901486">
        <ele>714</ele>
        <time>2026-08-30T12:43:13Z</time>
      </trkpt>
      <trkpt lat="48.765424" lon="9.901486">
        <ele>714</ele>
        <time>2026-08-30T12:43:14Z</time>
      </trkpt>
      <trkpt lat="48.765424" lon="9.901486">
        <ele>714</ele>
        <time>2026-08-30T12:43:15Z</time>
      </trkpt>
      <trkpt lat="48.765424" lon="9.901486">
        <ele>714</ele>
        <time>2026-08-30T12:43:16Z</time>
      </trkpt>
      <trkpt lat="48.765424" lon="9.901486">
        <ele>714</ele>
        <time>2026-08-30T12:43:17Z</time>
      </trkpt>
      <trkpt lat="48.765424" lon="9.901486">
        <ele>714</ele>
        <time>2026-08-30T12:43:18Z</time>
      </trkpt>
      <trkpt lat="48.765424" lon="9.901486">
        <ele>714</ele>
        <time>2026-08-30T12:43:19Z</time>
      </trkpt>
      <trkpt lat="48.765424" lon="9.901486">
        <ele>714</ele>
        <time>2026-08-30T12:43:20Z</time>
      </trkpt>
      <trkpt lat="48.765424" lon="9.901486">
        <ele>714</ele>
        <time>2026-08-30T12:43:21Z</time>
      </trkpt>
      <trkpt lat="48.765424" lon="9.901486">
        <ele>714</ele>
        <time>2026-08-30T12:43:22Z</time>
      </trkpt>
      <trkpt lat="48.765424" lon="9.901486">
        <ele>714</ele>
        <time>2026-08-30T12:43:23Z</time>
      </trkpt>
      <trkpt lat="48.765424" lon="9.901486">
        <ele>714</ele>
        <time>2026-08-30T12:43:24Z</time>
      </trkpt>
      <trkpt lat="48.765424" lon="9.901486">
        <ele>714</ele>
        <time>2026-08-30T12:43:25Z</time>
      </trkpt>
      <trkpt lat="48.765424" lon="9.901486">
        <ele>714</ele>
        <time>2026-08-30T12:43:26Z</time>
      </trkpt>
      <trkpt lat="48.765424" lon="9.901486">
        <ele>714</ele>
        <time>2026-08-30T12:43:27Z</time>
      </trkpt>
      <trkpt lat="48.765424" lon="9.901486">
        <ele>714</ele>
        <time>2026-08-30T12:43:28Z</time>
      </trkpt>
      <trkpt lat="48.765424" lon="9.901486">
        <ele>714</ele>
        <time>2026-08-30T12:43:29Z</time>
      </trkpt>
      <trkpt lat="48.765424" lon="9.901486">
        <ele>714</ele>
        <time>2026-08-30T12:43:30Z</time>
      </trkpt>
      <trkpt lat="48.765424" lon="9.901486">
        <ele>714</ele>
        <time>2026-08-30T12:43:31Z</time>
      </trkpt>
      <trkpt lat="48.765424" lon="9.901486">
        <ele>714</ele>
        <time>2026-08-30T12:43:32Z</time>
      </trkpt>
      <trkpt lat="48.765424" lon="9.901486">
        <ele>714</ele>
        <time>2026-08-30T12:43:33Z</time>
      </trkpt>
      <trkpt lat="48.765424" lon="9.901486">
        <ele>714</ele>
        <time>2026-08-30T12:43:34Z</time>
      </trkpt>
      <trkpt lat="48.765424" lon="9.901486">
        <ele>714</ele>
        <time>2026-08-30T12:43:35Z</time>
      </trkpt>
      <trkpt lat="48.765424" lon="9.901486">
        <ele>714</ele>
        <time>2026-08-30T12:43:36Z</time>
      </trkpt>
      <trkpt lat="48.765424" lon="9.901486">
        <ele>714</ele>
        <time>2026-08-30T12:43:37Z</time>
      </trkpt>
      <trkpt lat="48.765424" lon="9.901486">
        <ele>714</ele>
        <time>2026-08-30T12:43:38Z</time>
      </trkpt>
      <trkpt lat="48.765424" lon="9.901486">
        <ele>714</ele>
        <time>2026-08-30T12:43:39Z</time>
      </trkpt>
      <trkpt lat="48.765424" lon="9.901486">
        <ele>714</ele>
        <time>2026-08-30T12:43:40Z</time>
      </trkpt>
      <trkpt lat="48.765424" lon="9.901486">
        <ele>714</ele>
        <time>2026-08-30T12:43:41Z</time>
      </trkpt>
      <trkpt lat="48.765424" lon="9.901486">
        <ele>714</ele>
        <time>2026-08-30T12:43:42Z</time>
      </trkpt>
      <trkpt lat="48.765424" lon="9.901486">
        <ele>714</ele>
        <time>2026-08-30T12:43:43Z</time>
      </trkpt>
      <trkpt lat="48.765424" lon="9.901486">
        <ele>714</ele>
        <time>2026-08-30T12:43:44Z</time>
      </trkpt>
      <trkpt lat="48.765424" lon="9.901486">
        <ele>714</ele>
        <time>2026-08-30T12:43:45Z</time>
      </trkpt>
      <trkpt lat="48.765424" lon="9.901486">
        <ele>714</ele>
        <time>2026-08-30T12:43:46Z</time>
      </trkpt>
      <trkpt lat="48.765424" lon="9.901486">
        <ele>714</ele>
        <time>2026-08-30T12:43:47Z</time>
      </trkpt>
      <trkpt lat="48.765424" lon="9.901486">
        <ele>714</ele>
        <time>2026-08-30T12:43:48Z</time>
      </trkpt>
      <trkpt lat="48.765424" lon="9.901486">
        <ele>714</ele>
        <time>2026-08-30T12:43:49Z</time>
      </trkpt>
      <trkpt lat="48.765424" lon="9.901486">
        <ele>714</ele>
        <time>2026-08-30T12:43:50Z</time>
      </trkpt>
      <trkpt lat="48.765424" lon="9.901486">
        <ele>714</ele>
        <time>2026-08-30T12:43:51Z</time>
      </trkpt>
      <trkpt lat="48.765424" lon="9.901486">
        <ele>714</ele>
        <time>2026-08-30T12:43:52Z</time>
      </trkpt>
      <trkpt lat="48.765424" lon="9.901486">
        <ele>714</ele>
        <time>2026-08-30T12:43:53Z</time>
      </trkpt>
      <trkpt lat="48.765424" lon="9.901486">
        <ele>714</ele>
        <time>2026-08-30T12:43:54Z</time>
      </trkpt>
      <trkpt lat="48.765424" lon="9.901486">
        <ele>714</ele>
        <time>2026-08-30T12:43:55Z</time>
      </trkpt>
      <trkpt lat="48.765424" lon="9.901486">
        <ele>714</ele>
        <time>2026-08-30T12:43:56Z</time>
      </trkpt>
      <trkpt lat="48.765424" lon="9.901486">
        <ele>714</ele>
        <time>2026-08-30T12:43:57Z</time>
      </trkpt>
      <trkpt lat="48.765424" lon="9.901486">
        <ele>714</ele>
        <time>2026-08-30T12:43:58Z</time>
      </trkpt>
      <trkpt lat="48.765424" lon="9.901486">
        <ele>714</ele>
        <time>2026-08-30T12:43:59Z</time>
      </trkpt>
      <trkpt lat="48.765424" lon="9.901486">
        <ele>714</ele>
        <time>2026-08-30T12:44:00Z</time>
      </trkpt>
      <trkpt lat="48.765424" lon="9.901486">
        <ele>714</ele>
        <time>2026-08-30T12:44:01Z</time>
      </trkpt>
      <trkpt lat="48.765424" lon="9.901486">
        <ele>714</ele>
        <time>2026-08-30T12:44:02Z</time>
      </trkpt>
      <trkpt lat="48.765424" lon="9.901486">
        <ele>714</ele>
        <time>2026-08-30T12:44:03Z</time>
      </trkpt>
      <trkpt lat="48.765424" lon="9.901486">
        <ele>714</ele>
        <time>2026-08-30T12:44:04Z</time>
      </trkpt>
      <trkpt lat="48.765424" lon="9.901486">
        <ele>714</ele>
        <time>2026-08-30T12:44:05Z</time>
      </trkpt>
      <trkpt lat="48.765424" lon="9.901486">
        <ele>714</ele>
        <time>2026-08-30T12:44:06Z</time>
      </trkpt>
      <trkpt lat="48.765424" lon="9.901486">
        <ele>714</ele>
        <time>2026-08-30T12:44:07Z</time>
      </trkpt>
      <trkpt lat="48.765424" lon="9.901486">
        <ele>714</ele>
        <time>2026-08-30T12:44:08Z</time>
      </trkpt>
      <trkpt lat="48.765424" lon="9.901486">
        <ele>714</ele>
        <time>2026-08-30T12:44:09Z</time>
      </trkpt>
      <trkpt lat="48.765424" lon="9.901486">
        <ele>714</ele>
        <time>2026-08-30T12:44:10Z</time>
      </trkpt>
      <trkpt lat="48.765424" lon="9.901486">
        <ele>714</ele>
        <time>2026-08-30T12:44:11Z</time>
      </trkpt>
      <trkpt lat="48.765424" lon="9.901486">
        <ele>714</ele>
        <time>2026-08-30T12:44:12Z</time>
      </trkpt>
      <trkpt lat="48.765424" lon="9.901486">
        <ele>714</ele>
        <time>2026-08-30T12:44:13Z</time>
      </trkpt>
      <trkpt lat="48.765424" lon="9.901486">
        <ele>714</ele>
        <time>2026-08-30T12:44:14Z</time>
      </trkpt>
      <trkpt lat="48.765424" lon="9.901486">
        <ele>714</ele>
        <time>2026-08-30T12:44:15Z</time>
      </trkpt>
      <trkpt lat="48.765424" lon="9.901486">
        <ele>714</ele>
        <time>2026-08-30T12:44:16Z</time>
      </trkpt>
      <trkpt lat="48.765424" lon="9.901486">
        <ele>714</ele>
        <time>2026-08-30T12:44:17Z</time>
      </trkpt>
      <trkpt lat="48.765424" lon="9.901486">
        <ele>714</ele>
        <time>2026-08-30T12:44:18Z</time>
      </trkpt>
      <trkpt lat="48.765424" lon="9.901486">
        <ele>714</ele>
        <time>2026-08-30T12:44:19Z</time>
      </trkpt>
      <trkpt lat="48.765424" lon="9.901486">
        <ele>714</ele>
        <time>2026-08-30T12:44:20Z</time>
      </trkpt>
      <trkpt lat="48.765424" lon="9.901486">
        <ele>714</ele>
        <time>2026-08-30T12:44:21Z</time>
      </trkpt>
      <trkpt lat="48.765424" lon="9.901486">
        <ele>714</ele>
        <time>2026-08-30T12:44:22Z</time>
      </trkpt>
      <trkpt lat="48.765424" lon="9.901486">
        <ele>714</ele>
        <time>2026-08-30T12:44:23Z</time>
      </trkpt>
      <trkpt lat="48.765424" lon="9.901486">
        <ele>714</ele>
        <time>2026-08-30T12:44:24Z</time>
      </trkpt>
      <trkpt lat="48.765424" lon="9.901486">
        <ele>714</ele>
        <time>2026-08-30T12:44:25Z</time>
      </trkpt>
      <trkpt lat="48.765424" lon="9.901486">
        <ele>714</ele>
        <time>2026-08-30T12:44:26Z</time>
      </trkpt>
      <trkpt lat="48.765424" lon="9.901486">
        <ele>714</ele>
        <time>2026-08-30T12:44:27Z</time>
      </trkpt>
      <trkpt lat="48.765424" lon="9.901486">
        <ele>714</ele>
        <time>2026-08-30T12:44:28Z</time>
      </trkpt>
      <trkpt lat="48.765424" lon="9.901486">
        <ele>714</ele>
        <time>2026-08-30T12:44:29Z</time>
      </trkpt>
      <trkpt lat="48.765424" lon="9.901486">
        <ele>714</ele>
        <time>2026-08-30T12:44:30Z</time>
      </trkpt>
      <trkpt lat="48.765424" lon="9.901486">
        <ele>714</ele>
        <time>2026-08-30T12:44:31Z</time>
      </trkpt>
      <trkpt lat="48.765424" lon="9.901486">
        <ele>714</ele>
        <time>2026-08-30T12:44:32Z</time>
      </trkpt>
      <trkpt lat="48.765424" lon="9.901486">
        <ele>714</ele>
        <time>2026-08-30T12:44:33Z</time>
      </trkpt>
      <trkpt lat="48.765424" lon="9.901486">
        <ele>714</ele>
        <time>2026-08-30T12:44:34Z</time>
      </trkpt>
      <trkpt lat="48.765424" lon="9.901486">
        <ele>714</ele>
        <time>2026-08-30T12:44:35Z</time>
      </trkpt>
      <trkpt lat="48.765424" lon="9.901486">
        <ele>714</ele>
        <time>2026-08-30T12:44:36Z</time>
      </trkpt>
      <trkpt lat="48.765424" lon="9.901486">
        <ele>714</ele>
        <time>2026-08-30T12:44:37Z</time>
      </trkpt>
      <trkpt lat="48.765424" lon="9.901486">
        <ele>714</ele>
        <time>2026-08-30T12:44:38Z</time>
      </trkpt>
      <trkpt lat="48.765424" lon="9.901486">
        <ele>714</ele>
        <time>2026-08-30T12:44:39Z</time>
      </trkpt>
      <trkpt lat="48.765424" lon="9.901486">
        <ele>714</ele>
        <time>2026-08-30T12:44:40Z</time>
      </trkpt>
      <trkpt lat="48.765424" lon="9.901486">
        <ele>714</ele>
        <time>2026-08-30T12:44:41Z</time>
      </trkpt>
      <trkpt lat="48.765424" lon="9.901486">
        <ele>714</ele>
        <time>2026-08-30T12:44:42Z</time>
      </trkpt>
      <trkpt lat="48.765424" lon="9.901486">
        <ele>714</ele>
        <time>2026-08-30T12:44:43Z</time>
      </trkpt>
      <trkpt lat="48.765424" lon="9.901486">
        <ele>714</ele>
        <time>2026-08-30T12:44:44Z</time>
      </trkpt>
      <trkpt lat="48.765424" lon="9.901486">
        <ele>714</ele>
        <time>2026-08-30T12:44:45Z</time>
      </trkpt>
      <trkpt lat="48.765424" lon="9.901486">
        <ele>714</ele>
        <time>2026-08-30T12:44:46Z</time>
      </trkpt>
      <trkpt lat="48.765424" lon="9.901486">
        <ele>714</ele>
        <time>2026-08-30T12:44:47Z</time>
      </trkpt>
      <trkpt lat="48.765424" lon="9.901486">
        <ele>714</ele>
        <time>2026-08-30T12:44:48Z</time>
      </trkpt>
      <trkpt lat="48.765424" lon="9.901486">
        <ele>714</ele>
        <time>2026-08-30T12:44:49Z</time>
      </trkpt>
      <trkpt lat="48.765424" lon="9.901486">
        <ele>714</ele>
        <time>2026-08-30T12:44:50Z</time>
      </trkpt>
      <trkpt lat="48.765424" lon="9.901486">
        <ele>714</ele>
        <time>2026-08-30T12:44:51Z</time>
      </trkpt>
      <trkpt lat="48.765424" lon="9.901486">
        <ele>714</ele>
        <time>2026-08-30T12:44:52Z</time>
      </trkpt>
      <trkpt lat="48.765424" lon="9.901486">
        <ele>714</ele>
        <time>2026-08-30T12:44:53Z</time>
      </trkpt>
      <trkpt lat="48.765424" lon="9.901486">
        <ele>714</ele>
        <time>2026-08-30T12:44:54Z</time>
      </trkpt>
      <trkpt lat="48.765424" lon="9.901486">
        <ele>714</ele>
        <time>2026-08-30T12:44:55Z</time>
      </trkpt>
      <trkpt lat="48.765424" lon="9.901486">
        <ele>714</ele>
        <time>2026-08-30T12:44:56Z</time>
      </trkpt>
      <trkpt lat="48.765424" lon="9.901486">
        <ele>714</ele>
        <time>2026-08-30T12:44:57Z</time>
      </trkpt>
      <trkpt lat="48.765424" lon="9.901486">
        <ele>714</ele>
        <time>2026-08-30T12:44:58Z</time>
      </trkpt>
      <trkpt lat="48.765424" lon="9.901486">
        <ele>714</ele>
        <time>2026-08-30T12:44:59Z</time>
      </trkpt>
      <trkpt lat="48.765424" lon="9.901486">
        <ele>714</ele>
        <time>2026-08-30T12:45:00Z</time>
      </trkpt>
      <trkpt lat="48.765424" lon="9.901486">
        <ele>714</ele>
        <time>2026-08-30T12:45:01Z</time>
      </trkpt>
      <trkpt lat="48.765424" lon="9.901486">
        <ele>714</ele>
        <time>2026-08-30T12:45:02Z</time>
      </trkpt>
      <trkpt lat="48.765424" lon="9.901486">
        <ele>714</ele>
        <time>2026-08-30T12:45:03Z</time>
      </trkpt>
      <trkpt lat="48.765424" lon="9.901486">
        <ele>714</ele>
        <time>2026-08-30T12:45:04Z</time>
      </trkpt>
      <trkpt lat="48.765424" lon="9.901486">
        <ele>714</ele>
        <time>2026-08-30T12:45:05Z</time>
      </trkpt>
      <trkpt lat="48.765424" lon="9.901486">
        <ele>714</ele>
        <time>2026-08-30T12:45:06Z</time>
      </trkpt>
      <trkpt lat="48.765424" lon="9.901486">
        <ele>714</ele>
        <time>2026-08-30T12:45:07Z</time>
      </trkpt>
      <trkpt lat="48.765424" lon="9.901486">
        <ele>714</ele>
        <time>2026-08-30T12:45:08Z</time>
      </trkpt>
      <trkpt lat="48.765424" lon="9.901486">
        <ele>714</ele>
        <time>2026-08-30T12:45:09Z</time>
      </trkpt>
      <trkpt lat="48.765424" lon="9.901486">
        <ele>714</ele>
        <time>2026-08-30T12:45:10Z</time>
      </trkpt>
      <trkpt lat="48.765424" lon="9.901486">
        <ele>714</ele>
        <time>2026-08-30T12:45:11Z</time>
      </trkpt>
      <trkpt lat="48.765424" lon="9.901486">
        <ele>714</ele>
        <time>2026-08-30T12:45:12Z</time>
      </trkpt>
      <trkpt lat="48.765424" lon="9.901486">
        <ele>714</ele>
        <time>2026-08-30T12:45:13Z</time>
      </trkpt>
      <trkpt lat="48.765424" lon="9.901486">
        <ele>714</ele>
        <time>2026-08-30T12:45:14Z</time>
      </trkpt>
      <trkpt lat="48.765424" lon="9.901486">
        <ele>714</ele>
        <time>2026-08-30T12:45:15Z</time>
      </trkpt>
      <trkpt lat="48.765424" lon="9.901486">
        <ele>714</ele>
        <time>2026-08-30T12:45:16Z</time>
      </trkpt>
      <trkpt lat="48.765424" lon="9.901486">
        <ele>714</ele>
        <time>2026-08-30T12:45:17Z</time>
      </trkpt>
      <trkpt lat="48.765424" lon="9.901486">
        <ele>714</ele>
        <time>2026-08-30T12:45:18Z</time>
      </trkpt>
      <trkpt lat="48.765424" lon="9.901486">
        <ele>714</ele>
        <time>2026-08-30T12:45:19Z</time>
      </trkpt>
      <trkpt lat="48.765424" lon="9.901486">
        <ele>714</ele>
        <time>2026-08-30T12:45:20Z</time>
      </trkpt>
      <trkpt lat="48.765424" lon="9.901486">
        <ele>714</ele>
        <time>2026-08-30T12:45:21Z</time>
      </trkpt>
      <trkpt lat="48.765424" lon="9.901486">
        <ele>714</ele>
        <time>2026-08-30T12:45:22Z</time>
      </trkpt>
      <trkpt lat="48.765424" lon="9.901486">
        <ele>714</ele>
        <time>2026-08-30T12:45:23Z</time>
      </trkpt>
      <trkpt lat="48.765424" lon="9.901486">
        <ele>714</ele>
        <time>2026-08-30T12:45:24Z</time>
      </trkpt>
      <trkpt lat="48.765424" lon="9.901486">
        <ele>714</ele>
        <time>2026-08-30T12:45:25Z</time>
      </trkpt>
      <trkpt lat="48.765424" lon="9.901486">
        <ele>714</ele>
        <time>2026-08-30T12:45:26Z</time>
      </trkpt>
      <trkpt lat="48.765424" lon="9.901486">
        <ele>714</ele>
        <time>2026-08-30T12:45:27Z</time>
      </trkpt>
      <trkpt lat="48.765424" lon="9.901486">
        <ele>714</ele>
        <time>2026-08-30T12:45:28Z</time>
      </trkpt>
      <trkpt lat="48.765424" lon="9.901486">
        <ele>714</ele>
        <time>2026-08-30T12:45:29Z</time>
      </trkpt>
      <trkpt lat="48.765424" lon="9.901486">
        <ele>714</ele>
        <time>2026-08-30T12:45:30Z</time>
      </trkpt>
      <trkpt lat="48.765424" lon="9.901486">
        <ele>714</ele>
        <time>2026-08-30T12:45:31Z</time>
      </trkpt>
      <trkpt lat="48.765424" lon="9.901486">
        <ele>714</ele>
        <time>2026-08-30T12:45:32Z</time>
      </trkpt>
      <trkpt lat="48.765424" lon="9.901486">
        <ele>714</ele>
        <time>2026-08-30T12:45:33Z</time>
      </trkpt>
      <trkpt lat="48.765424" lon="9.901486">
        <ele>714</ele>
        <time>2026-08-30T12:45:34Z</time>
      </trkpt>
      <trkpt lat="48.765424" lon="9.901486">
        <ele>714</ele>
        <time>2026-08-30T12:45:35Z</time>
      </trkpt>
      <trkpt lat="48.765424" lon="9.901486">
        <ele>714</ele>
        <time>2026-08-30T12:45:36Z</time>
      </trkpt>
      <trkpt lat="48.765424" lon="9.901486">
        <ele>714</ele>
        <time>2026-08-30T12:45:37Z</time>
      </trkpt>
      <trkpt lat="48.765424" lon="9.901486">
        <ele>714</ele>
        <time>2026-08-30T12:45:38Z</time>
      </trkpt>
      <trkpt lat="48.765424" lon="9.901486">
        <ele>714</ele>
        <time>2026-08-30T12:45:39Z</time>
      </trkpt>
      <trkpt lat="48.765424" lon="9.901486">
        <ele>714</ele>
        <time>2026-08-30T12:45:40Z</time>
      </trkpt>
      <trkpt lat="48.765424" lon="9.901486">
        <ele>714</ele>
        <time>2026-08-30T12:45:41Z</time>
      </trkpt>
      <trkpt lat="48.765424" lon="9.901486">
        <ele>714</ele>
        <time>2026-08-30T12:45:42Z</time>
      </trkpt>
      <trkpt lat="48.765424" lon="9.901486">
        <ele>714</ele>
        <time>2026-08-30T12:45:43Z</time>
      </trkpt>
      <trkpt lat="48.765424" lon="9.901486">
        <ele>714</ele>
        <time>2026-08-30T12:45:44Z</time>
      </trkpt>
      <trkpt lat="48.765424" lon="9.901486">
        <ele>714</ele>
        <time>2026-08-30T12:45:45Z</time>
      </trkpt>
      <trkpt lat="48.765424" lon="9.901486">
        <ele>714</ele>
        <time>2026-08-30T12:45:46Z</time>
      </trkpt>
      <trkpt lat="48.765424" lon="9.901486">
        <ele>714</ele>
        <time>2026-08-30T12:45:47Z</time>
      </trkpt>
      <trkpt lat="48.765424" lon="9.901486">
        <ele>714</ele>
        <time>2026-08-30T12:45:48Z</time>
      </trkpt>
      <trkpt lat="48.765424" lon="9.901486">
        <ele>714</ele>
        <time>2026-08-30T12:45:49Z</time>
      </trkpt>
      <trkpt lat="48.765424" lon="9.901486">
        <ele>714</ele>
        <time>2026-08-30T12:45:50Z</time>
      </trkpt>
      <trkpt lat="48.765424" lon="9.901486">
        <ele>714</ele>
        <time>2026-08-30T12:45:51Z</time>
      </trkpt>
      <trkpt lat="48.765424" lon="9.901486">
        <ele>714</ele>
        <time>2026-08-30T12:45:52Z</time>
      </trkpt>
      <trkpt lat="48.765424" lon="9.901486">
        <ele>714</ele>
        <time>2026-08-30T12:45:53Z</time>
      </trkpt>
      <trkpt lat="48.765424" lon="9.901486">
        <ele>714</ele>
        <time>2026-08-30T12:45:54Z</time>
      </trkpt>
      <trkpt lat="48.765424" lon="9.901486">
        <ele>714</ele>
        <time>2026-08-30T12:45:55Z</time>
      </trkpt>
      <trkpt lat="48.765424" lon="9.901486">
        <ele>714</ele>
        <time>2026-08-30T12:45:56Z</time>
      </trkpt>
      <trkpt lat="48.765424" lon="9.901486">
        <ele>714</ele>
        <time>2026-08-30T12:45:57Z</time>
      </trkpt>
      <trkpt lat="48.765424" lon="9.901486">
        <ele>714</ele>
        <time>2026-08-30T12:45:58Z</time>
      </trkpt>
      <trkpt lat="48.765424" lon="9.901486">
        <ele>714</ele>
        <time>2026-08-30T12:45:59Z</time>
      </trkpt>
      <trkpt lat="48.765424" lon="9.901486">
        <ele>714</ele>
        <time>2026-08-30T12:46:00Z</time>
      </trkpt>
      <trkpt lat="48.765424" lon="9.901486">
        <ele>714</ele>
        <time>2026-08-30T12:46:01Z</time>
      </trkpt>
      <trkpt lat="48.765424" lon="9.901486">
        <ele>714</ele>
        <time>2026-08-30T12:46:02Z</time>
      </trkpt>
      <trkpt lat="48.765424" lon="9.901486">
        <ele>714</ele>
        <time>2026-08-30T12:46:03Z</time>
      </trkpt>
      <trkpt lat="48.765424" lon="9.901486">
        <ele>714</ele>
        <time>2026-08-30T12:46:04Z</time>
      </trkpt>
      <trkpt lat="48.765424" lon="9.901486">
        <ele>714</ele>
        <time>2026-08-30T12:46:05Z</time>
      </trkpt>
      <trkpt lat="48.765424" lon="9.901486">
        <ele>714</ele>
        <time>2026-08-30T12:46:06Z</time>
      </trkpt>
      <trkpt lat="48.765424" lon="9.901486">
        <ele>714</ele>
        <time>2026-08-30T12:46:07Z</time>
      </trkpt>
      <trkpt lat="48.765424" lon="9.901486">
        <ele>714</ele>
        <time>2026-08-30T12:46:08Z</time>
      </trkpt>
      <trkpt lat="48.765424" lon="9.901486">
        <ele>714</ele>
        <time>2026-08-30T12:46:09Z</time>
      </trkpt>
      <trkpt lat="48.765424" lon="9.901486">
        <ele>714</ele>
        <time>2026-08-30T12:46:10Z</time>
      </trkpt>
      <trkpt lat="48.765424" lon="9.901486">
        <ele>714</ele>
        <time>2026-08-30T12:46:11Z</time>
      </trkpt>
      <trkpt lat="48.765424" lon="9.901486">
        <ele>714</ele>
        <time>2026-08-30T12:46:12Z</time>
      </trkpt>
      <trkpt lat="48.765424" lon="9.901486">
        <ele>714</ele>
        <time>2026-08-30T12:46:13Z</time>
      </trkpt>
      <trkpt lat="48.765424" lon="9.901486">
        <ele>714</ele>
        <time>2026-08-30T12:46:14Z</time>
      </trkpt>
      <trkpt lat="48.765424" lon="9.901486">
        <ele>714</ele>
        <time>2026-08-30T12:46:15Z</time>
      </trkpt>
      <trkpt lat="48.765424" lon="9.901486">
        <ele>714</ele>
        <time>2026-08-30T12:46:16Z</time>
      </trkpt>
      <trkpt lat="48.765424" lon="9.901486">
        <ele>714</ele>
        <time>2026-08-30T12:46:17Z</time>
      </trkpt>
      <trkpt lat="48.765424" lon="9.901486">
        <ele>714</ele>
        <time>2026-08-30T12:46:18Z</time>
      </trkpt>
      <trkpt lat="48.765424" lon="9.901486">
        <ele>714</ele>
        <time>2026-08-30T12:46:19Z</time>
      </trkpt>
      <trkpt lat="48.765424" lon="9.901486">
        <ele>714</ele>
        <time>2026-08-30T12:46:20Z</time>
      </trkpt>
      <trkpt lat="48.765424" lon="9.901486">
        <ele>714</ele>
        <time>2026-08-30T12:46:21Z</time>
      </trkpt>
      <trkpt lat="48.765424" lon="9.901486">
        <ele>714</ele>
        <time>2026-08-30T12:46:22Z</time>
      </trkpt>
      <trkpt lat="48.765424" lon="9.901486">
        <ele>714</ele>
        <time>2026-08-30T12:46:23Z</time>
      </trkpt>
      <trkpt lat="48.765424" lon="9.901486">
        <ele>714</ele>
        <time>2026-08-30T12:46:24Z</time>
      </trkpt>
      <trkpt lat="48.765424" lon="9.901486">
        <ele>714</ele>
        <time>2026-08-30T12:46:25Z</time>
      </trkpt>
      <trkpt lat="48.765424" lon="9.901486">
        <ele>714</ele>
        <time>2026-08-30T12:46:26Z</time>
      </trkpt>
      <trkpt lat="48.765424" lon="9.901486">
        <ele>714</ele>
        <time>2026-08-30T12:46:27Z</time>
      </trkpt>
      <trkpt lat="48.765424" lon="9.901486">
        <ele>714</ele>
        <time>2026-08-30T12:46:28Z</time>
      </trkpt>
      <trkpt lat="48.765424" lon="9.901486">
        <ele>714</ele>
        <time>2026-08-30T12:46:29Z</time>
      </trkpt>
      <trkpt lat="48.765424" lon="9.901486">
        <ele>714</ele>
        <time>2026-08-30T12:46:30Z</time>
      </trkpt>
      <trkpt lat="48.765424" lon="9.901486">
        <ele>714</ele>
        <time>2026-08-30T12:46:31Z</time>
      </trkpt>
      <trkpt lat="48.765424" lon="9.901486">
        <ele>714</ele>
        <time>2026-08-30T12:46:32Z</time>
      </trkpt>
      <trkpt lat="48.765424" lon="9.901486">
        <ele>714</ele>
        <time>2026-08-30T12:46:33Z</time>
      </trkpt>
      <trkpt lat="48.765424" lon="9.901486">
        <ele>714</ele>
        <time>2026-08-30T12:46:34Z</time>
      </trkpt>
      <trkpt lat="48.765424" lon="9.901486">
        <ele>714</ele>
        <time>2026-08-30T12:46:35Z</time>
      </trkpt>
      <trkpt lat="48.765424" lon="9.901486">
        <ele>714</ele>
        <time>2026-08-30T12:46:36Z</time>
      </trkpt>
      <trkpt lat="48.765424" lon="9.901486">
        <ele>714</ele>
        <time>2026-08-30T12:46:37Z</time>
      </trkpt>
      <trkpt lat="48.765424" lon="9.901486">
        <ele>714</ele>
        <time>2026-08-30T12:46:38Z</time>
      </trkpt>
      <trkpt lat="48.765424" lon="9.901486">
        <ele>714</ele>
        <time>2026-08-30T12:46:39Z</time>
      </trkpt>
      <trkpt lat="48.765424" lon="9.901486">
        <ele>714</ele>
        <time>2026-08-30T12:46:40Z</time>
      </trkpt>
      <trkpt lat="48.765424" lon="9.901486">
        <ele>714</ele>
        <time>2026-08-30T12:46:41Z</time>
      </trkpt>
      <trkpt lat="48.765424" lon="9.901486">
        <ele>714</ele>
        <time>2026-08-30T12:46:42Z</time>
      </trkpt>
      <trkpt lat="48.765424" lon="9.901486">
        <ele>714</ele>
        <time>2026-08-30T12:46:43Z</time>
      </trkpt>
      <trkpt lat="48.765424" lon="9.901486">
        <ele>714</ele>
        <time>2026-08-30T12:46:44Z</time>
      </trkpt>
      <trkpt lat="48.765424" lon="9.901486">
        <ele>714</ele>
        <time>2026-08-30T12:46:45Z</time>
      </trkpt>
      <trkpt lat="48.765424" lon="9.901486">
        <ele>714</ele>
        <time>2026-08-30T12:46:46Z</time>
      </trkpt>
      <trkpt lat="48.765424" lon="9.901486">
        <ele>714</ele>
        <time>2026-08-30T12:46:47Z</time>
      </trkpt>
      <trkpt lat="48.765424" lon="9.901486">
        <ele>714</ele>
        <time>2026-08-30T12:46:48Z</time>
      </trkpt>
      <trkpt lat="48.765424" lon="9.901486">
        <ele>714</ele>
        <time>2026-08-30T12:46:49Z</time>
      </trkpt>
      <trkpt lat="48.765424" lon="9.901486">
        <ele>714</ele>
        <time>2026-08-30T12:46:50Z</time>
      </trkpt>
      <trkpt lat="48.765424" lon="9.901486">
        <ele>714</ele>
        <time>2026-08-30T12:46:51Z</time>
      </trkpt>
      <trkpt lat="48.765424" lon="9.901486">
        <ele>714</ele>
        <time>2026-08-30T12:46:52Z</time>
      </trkpt>
      <trkpt lat="48.765424" lon="9.901486">
        <ele>714</ele>
        <time>2026-08-30T12:46:53Z</time>
      </trkpt>
      <trkpt lat="48.765424" lon="9.901486">
        <ele>714</ele>
        <time>2026-08-30T12:46:54Z</time>
      </trkpt>
      <trkpt lat="48.765424" lon="9.901486">
        <ele>714</ele>
        <time>2026-08-30T12:46:55Z</time>
      </trkpt>
      <trkpt lat="48.765424" lon="9.901486">
        <ele>714</ele>
        <time>2026-08-30T12:46:56Z</time>
      </trkpt>
      <trkpt lat="48.765424" lon="9.901486">
        <ele>714</ele>
        <time>2026-08-30T12:46:57Z</time>
      </trkpt>
      <trkpt lat="48.765424" lon="9.901486">
        <ele>714</ele>
        <time>2026-08-30T12:46:58Z</time>
      </trkpt>
      <trkpt lat="48.765424" lon="9.901486">
        <ele>714</ele>
        <time>2026-08-30T12:46:59Z</time>
      </trkpt>
      <trkpt lat="48.765424" lon="9.901486">
        <ele>714</ele>
        <time>2026-08-30T12:47:00Z</time>
      </trkpt>
      <trkpt lat="48.765424" lon="9.901486">
        <ele>714</ele>
        <time>2026-08-30T12:47:01Z</time>
      </trkpt>
      <trkpt lat="48.765424" lon="9.901486">
        <ele>714</ele>
        <time>2026-08-30T12:47:02Z</time>
      </trkpt>
      <trkpt lat="48.765424" lon="9.901486">
        <ele>714</ele>
        <time>2026-08-30T12:47:03Z</time>
      </trkpt>
      <trkpt lat="48.765424" lon="9.901486">
        <ele>714</ele>
        <time>2026-08-30T12:47:04Z</time>
      </trkpt>
      <trkpt lat="48.765424" lon="9.901486">
        <ele>714</ele>
        <time>2026-08-30T12:47:05Z</time>
      </trkpt>
      <trkpt lat="48.765424" lon="9.901486">
        <ele>714</ele>
        <time>2026-08-30T12:47:06Z</time>
      </trkpt>
      <trkpt lat="48.765424" lon="9.901486">
        <ele>714</ele>
        <time>2026-08-30T12:47:07Z</time>
      </trkpt>
      <trkpt lat="48.765424" lon="9.901486">
        <ele>714</ele>
        <time>2026-08-30T12:47:08Z</time>
      </trkpt>
      <trkpt lat="48.765424" lon="9.901486">
        <ele>714</ele>
        <time>2026-08-30T12:47:09Z</time>
      </trkpt>
      <trkpt lat="48.765424" lon="9.901486">
        <ele>714</ele>
        <time>2026-08-30T12:47:10Z</time>
      </trkpt>
      <trkpt lat="48.765424" lon="9.901486">
        <ele>714</ele>
        <time>2026-08-30T12:47:11Z</time>
      </trkpt>
      <trkpt lat="48.765424" lon="9.901486">
        <ele>714</ele>
        <time>2026-08-30T12:47:12Z</time>
      </trkpt>
      <trkpt lat="48.765424" lon="9.901486">
        <ele>714</ele>
        <time>2026-08-30T12:47:13Z</time>
      </trkpt>
      <trkpt lat="48.765424" lon="9.901486">
        <ele>714</ele>
        <time>2026-08-30T12:47:14Z</time>
      </trkpt>
      <trkpt lat="48.765424" lon="9.901486">
        <ele>714</ele>
        <time>2026-08-30T12:47:15Z</time>
      </trkpt>
      <trkpt lat="48.765424" lon="9.901486">
        <ele>714</ele>
        <time>2026-08-30T12:47:16Z</time>
      </trkpt>
      <trkpt lat="48.765424" lon="9.901486">
        <ele>714</ele>
        <time>2026-08-30T12:47:17Z</time>
      </trkpt>
      <trkpt lat="48.765424" lon="9.901486">
        <ele>714</ele>
        <time>2026-08-30T12:47:18Z</time>
      </trkpt>
      <trkpt lat="48.765424" lon="9.901486">
        <ele>714</ele>
        <time>2026-08-30T12:47:19Z</time>
      </trkpt>
      <trkpt lat="48.765424" lon="9.901486">
        <ele>714</ele>
        <time>2026-08-30T12:47:20Z</time>
      </trkpt>
      <trkpt lat="48.765424" lon="9.901486">
        <ele>714</ele>
        <time>2026-08-30T12:47:21Z</time>
      </trkpt>
      <trkpt lat="48.765424" lon="9.901486">
        <ele>714</ele>
        <time>2026-08-30T12:47:22Z</time>
      </trkpt>
      <trkpt lat="48.765424" lon="9.901486">
        <ele>714</ele>
        <time>2026-08-30T12:47:23Z</time>
      </trkpt>
      <trkpt lat="48.765424" lon="9.901486">
        <ele>714</ele>
        <time>2026-08-30T12:47:24Z</time>
      </trkpt>
      <trkpt lat="48.765424" lon="9.901486">
        <ele>714</ele>
        <time>2026-08-30T12:47:25Z</time>
      </trkpt>
      <trkpt lat="48.765424" lon="9.901486">
        <ele>714</ele>
        <time>2026-08-30T12:47:26Z</time>
      </trkpt>
      <trkpt lat="48.765424" lon="9.901486">
        <ele>714</ele>
        <time>2026-08-30T12:47:27Z</time>
      </trkpt>
      <trkpt lat="48.765424" lon="9.901486">
        <ele>714</ele>
        <time>2026-08-30T12:47:28Z</time>
      </trkpt>
      <trkpt lat="48.765424" lon="9.901486">
        <ele>714</ele>
        <time>2026-08-30T12:47:29Z</time>
      </trkpt>
      <trkpt lat="48.765424" lon="9.901486">
        <ele>714</ele>
        <time>2026-08-30T12:47:30Z</time>
      </trkpt>
      <trkpt lat="48.765424" lon="9.901486">
        <ele>714</ele>
        <time>2026-08-30T12:47:31Z</time>
      </trkpt>
      <trkpt lat="48.765424" lon="9.901486">
        <ele>714</ele>
        <time>2026-08-30T12:47:32Z</time>
      </trkpt>
      <trkpt lat="48.765424" lon="9.901486">
        <ele>714</ele>
        <time>2026-08-30T12:47:33Z</time>
      </trkpt>
      <trkpt lat="48.765424" lon="9.901486">
        <ele>714</ele>
        <time>2026-08-30T12:47:34Z</time>
      </trkpt>
      <trkpt lat="48.765424" lon="9.901486">
        <ele>714</ele>
        <time>2026-08-30T12:47:35Z</time>
      </trkpt>
      <trkpt lat="48.765424" lon="9.901486">
        <ele>714</ele>
        <time>2026-08-30T12:47:36Z</time>
      </trkpt>
      <trkpt lat="48.765424" lon="9.901486">
        <ele>714</ele>
        <time>2026-08-30T12:47:37Z</time>
      </trkpt>
      <trkpt lat="48.765424" lon="9.901486">
        <ele>714</ele>
        <time>2026-08-30T12:47:38Z</time>
      </trkpt>
      <trkpt lat="48.765424" lon="9.901486">
        <ele>714</ele>
        <time>2026-08-30T12:47:39Z</time>
      </trkpt>
      <trkpt lat="48.765424" lon="9.901486">
        <ele>714</ele>
        <time>2026-08-30T12:47:40Z</time>
      </trkpt>
      <trkpt lat="48.765424" lon="9.901486">
        <ele>714</ele>
        <time>2026-08-30T12:47:41Z</time>
      </trkpt>
      <trkpt lat="48.765424" lon="9.901486">
        <ele>714</ele>
        <time>2026-08-30T12:47:42Z</time>
      </trkpt>
      <trkpt lat="48.765424" lon="9.901486">
        <ele>714</ele>
        <time>2026-08-30T12:47:43Z</time>
      </trkpt>
      <trkpt lat="48.765424" lon="9.901486">
        <ele>714</ele>
        <time>2026-08-30T12:47:44Z</time>
      </trkpt>
      <trkpt lat="48.765424" lon="9.901486">
        <ele>714</ele>
        <time>2026-08-30T12:47:45Z</time>
      </trkpt>
      <trkpt lat="48.765424" lon="9.901486">
        <ele>714</ele>
        <time>2026-08-30T12:47:46Z</time>
      </trkpt>
      <trkpt lat="48.765424" lon="9.901486">
        <ele>714</ele>
        <time>2026-08-30T12:47:47Z</time>
      </trkpt>
      <trkpt lat="48.765424" lon="9.901486">
        <ele>714</ele>
        <time>2026-08-30T12:47:48Z</time>
      </trkpt>
      <trkpt lat="48.765424" lon="9.901486">
        <ele>714</ele>
        <time>2026-08-30T12:47:49Z</time>
      </trkpt>
      <trkpt lat="48.765424" lon="9.901486">
        <ele>714</ele>
        <time>2026-08-30T12:47:50Z</time>
      </trkpt>
      <trkpt lat="48.765424" lon="9.901486">
        <ele>714</ele>
        <time>2026-08-30T12:47:51Z</time>
      </trkpt>
      <trkpt lat="48.765424" lon="9.901486">
        <ele>714</ele>
        <time>2026-08-30T12:47:52Z</time>
      </trkpt>
      <trkpt lat="48.765424" lon="9.901486">
        <ele>714</ele>
        <time>2026-08-30T12:47:53Z</time>
      </trkpt>
      <trkpt lat="48.765424" lon="9.901486">
        <ele>714</ele>
        <time>2026-08-30T12:47:54Z</time>
      </trkpt>
      <trkpt lat="48.765424" lon="9.901486">
        <ele>714</ele>
        <time>2026-08-30T12:47:55Z</time>
      </trkpt>
      <trkpt lat="48.765424" lon="9.901486">
        <ele>714</ele>
        <time>2026-08-30T12:47:56Z</time>
      </trkpt>
      <trkpt lat="48.765424" lon="9.901486">
        <ele>714</ele>
        <time>2026-08-30T12:47:57Z</time>
      </trkpt>
      <trkpt lat="48.765424" lon="9.901486">
        <ele>714</ele>
        <time>2026-08-30T12:47:58Z</time>
      </trkpt>
      <trkpt lat="48.765424" lon="9.901486">
        <ele>714</ele>
        <time>2026-08-30T12:47:59Z</time>
      </trkpt>
      <trkpt lat="48.765424" lon="9.901486">
        <ele>714</ele>
        <time>2026-08-30T12:48:00Z</time>
      </trkpt>
      <trkpt lat="48.765424" lon="9.901486">
        <ele>714</ele>
        <time>2026-08-30T12:48:01Z</time>
      </trkpt>
      <trkpt lat="48.765424" lon="9.901486">
        <ele>714</ele>
        <time>2026-08-30T12:48:02Z</time>
      </trkpt>
      <trkpt lat="48.765424" lon="9.901486">
        <ele>714</ele>
        <time>2026-08-30T12:48:03Z</time>
      </trkpt>
      <trkpt lat="48.765424" lon="9.901486">
        <ele>714</ele>
        <time>2026-08-30T12:48:04Z</time>
      </trkpt>
      <trkpt lat="48.765424" lon="9.901486">
        <ele>714</ele>
        <time>2026-08-30T12:48:05Z</time>
      </trkpt>
      <trkpt lat="48.765424" lon="9.901486">
        <ele>714</ele>
        <time>2026-08-30T12:48:06Z</time>
      </trkpt>
      <trkpt lat="48.765424" lon="9.901486">
        <ele>714</ele>
        <time>2026-08-30T12:48:07Z</time>
      </trkpt>
      <trkpt lat="48.765424" lon="9.901486">
        <ele>714</ele>
        <time>2026-08-30T12:48:08Z</time>
      </trkpt>
      <trkpt lat="48.765424" lon="9.901486">
        <ele>714</ele>
        <time>2026-08-30T12:48:09Z</time>
      </trkpt>
      <trkpt lat="48.765424" lon="9.901486">
        <ele>714</ele>
        <time>2026-08-30T12:48:10Z</time>
      </trkpt>
      <trkpt lat="48.765424" lon="9.901486">
        <ele>714</ele>
        <time>2026-08-30T12:48:11Z</time>
      </trkpt>
      <trkpt lat="48.765424" lon="9.901486">
        <ele>714</ele>
        <time>2026-08-30T12:48:12Z</time>
      </trkpt>
      <trkpt lat="48.765424" lon="9.901486">
        <ele>714</ele>
        <time>2026-08-30T12:48:13Z</time>
      </trkpt>
      <trkpt lat="48.765424" lon="9.901486">
        <ele>714</ele>
        <time>2026-08-30T12:48:14Z</time>
      </trkpt>
      <trkpt lat="48.765424" lon="9.901486">
        <ele>714</ele>
        <time>2026-08-30T12:48:15Z</time>
      </trkpt>
      <trkpt lat="48.765424" lon="9.901486">
        <ele>714</ele>
        <time>2026-08-30T12:48:16Z</time>
      </trkpt>
      <trkpt lat="48.765424" lon="9.901486">
        <ele>714</ele>
        <time>2026-08-30T12:48:17Z</time>
      </trkpt>
      <trkpt lat="48.765422" lon="9.901487">
        <ele>714</ele>
        <time>2026-08-30T12:48:18Z</time>
      </trkpt>
      <trkpt lat="48.765420" lon="9.901482">
        <ele>714</ele>
        <time>2026-08-30T12:48:19Z</time>
      </trkpt>
      <trkpt lat="48.765419" lon="9.901487">
        <ele>714</ele>
        <time>2026-08-30T12:48:20Z</time>
      </trkpt>
      <trkpt lat="48.765424" lon="9.901486">
        <ele>714</ele>
        <time>2026-08-30T12:48:21Z</time>
      </trkpt>
      <trkpt lat="48.765424" lon="9.901486">
        <ele>714</ele>
        <time>2026-08-30T12:48:22Z</time>
      </trkpt>
      <trkpt lat="48.765424" lon="9.901486">
        <ele>714</ele>
        <time>2026-08-30T12:48:23Z</time>
      </trkpt>
      <trkpt lat="48.765424" lon="9.901486">
        <ele>714</ele>
        <time>2026-08-30T12:48:24Z</time>
      </trkpt>
      <trkpt lat="48.765424" lon="9.901486">
        <ele>714</ele>
        <time>2026-08-30T12:48:25Z</time>
      </trkpt>
      <trkpt lat="48.765418" lon="9.901490">
        <ele>714</ele>
        <time>2026-08-30T12:48:26Z</time>
      </trkpt>
      <trkpt lat="48.765431" lon="9.901508">
        <ele>714</ele>
        <time>2026-08-30T12:48:27Z</time>
      </trkpt>
      <trkpt lat="48.765444" lon="9.901506">
        <ele>714</ele>
        <time>2026-08-30T12:48:28Z</time>
      </trkpt>
      <trkpt lat="48.765443" lon="9.901508">
        <ele>714</ele>
        <time>2026-08-30T12:48:29Z</time>
      </trkpt>
      <trkpt lat="48.765443" lon="9.901508">
        <ele>714</ele>
        <time>2026-08-30T12:48:30Z</time>
      </trkpt>
      <trkpt lat="48.765443" lon="9.901508">
        <ele>710.8</ele>
        <time>2026-08-30T12:48:31Z</time>
      </trkpt>
      <trkpt lat="48.765443" lon="9.901508">
        <ele>710.8</ele>
        <time>2026-08-30T12:48:32Z</time>
      </trkpt>
      <trkpt lat="48.765443" lon="9.901508">
        <ele>710.8</ele>
        <time>2026-08-30T12:48:33Z</time>
      </trkpt>
      <trkpt lat="48.765443" lon="9.901508">
        <ele>710.8</ele>
        <time>2026-08-30T12:48:34Z</time>
      </trkpt>
      <trkpt lat="48.765443" lon="9.901508">
        <ele>710.8</ele>
        <time>2026-08-30T12:48:35Z</time>
      </trkpt>
      <trkpt lat="48.765443" lon="9.901508">
        <ele>710.6</ele>
        <time>2026-08-30T12:48:36Z</time>
      </trkpt>
      <trkpt lat="48.765443" lon="9.901508">
        <ele>710.6</ele>
        <time>2026-08-30T12:48:37Z</time>
      </trkpt>
      <trkpt lat="48.765443" lon="9.901508">
        <ele>710.4</ele>
        <time>2026-08-30T12:48:38Z</time>
      </trkpt>
      <trkpt lat="48.765443" lon="9.901508">
        <ele>710.4</ele>
        <time>2026-08-30T12:48:39Z</time>
      </trkpt>
      <trkpt lat="48.765443" lon="9.901508">
        <ele>710.4</ele>
        <time>2026-08-30T12:48:40Z</time>
      </trkpt>
      <trkpt lat="48.765443" lon="9.901508">
        <ele>710.4</ele>
        <time>2026-08-30T12:48:41Z</time>
      </trkpt>
      <trkpt lat="48.765443" lon="9.901508">
        <ele>710.4</ele>
        <time>2026-08-30T12:48:42Z</time>
      </trkpt>
      <trkpt lat="48.765443" lon="9.901508">
        <ele>710.4</ele>
        <time>2026-08-30T12:48:43Z</time>
      </trkpt>
      <trkpt lat="48.765443" lon="9.901508">
        <ele>710.4</ele>
        <time>2026-08-30T12:48:44Z</time>
      </trkpt>
      <trkpt lat="48.765439" lon="9.901505">
        <ele>710.4</ele>
        <time>2026-08-30T12:48:45Z</time>
      </trkpt>
      <trkpt lat="48.765430" lon="9.901479">
        <ele>710.2</ele>
        <time>2026-08-30T12:48:46Z</time>
      </trkpt>
      <trkpt lat="48.765433" lon="9.901456">
        <ele>710.2</ele>
        <time>2026-08-30T12:48:47Z</time>
      </trkpt>
      <trkpt lat="48.765444" lon="9.901446">
        <ele>710.2</ele>
        <time>2026-08-30T12:48:48Z</time>
      </trkpt>
      <trkpt lat="48.765457" lon="9.901441">
        <ele>710</ele>
        <time>2026-08-30T12:48:49Z</time>
      </trkpt>
      <trkpt lat="48.765476" lon="9.901429">
        <ele>710</ele>
        <time>2026-08-30T12:48:50Z</time>
      </trkpt>
      <trkpt lat="48.765493" lon="9.901413">
        <ele>709.8</ele>
        <time>2026-08-30T12:48:51Z</time>
      </trkpt>
      <trkpt lat="48.765502" lon="9.901394">
        <ele>709.8</ele>
        <time>2026-08-30T12:48:52Z</time>
      </trkpt>
      <trkpt lat="48.765515" lon="9.901382">
        <ele>709.6</ele>
        <time>2026-08-30T12:48:53Z</time>
      </trkpt>
      <trkpt lat="48.765527" lon="9.901377">
        <ele>709.4</ele>
        <time>2026-08-30T12:48:54Z</time>
      </trkpt>
      <trkpt lat="48.765543" lon="9.901377">
        <ele>709</ele>
        <time>2026-08-30T12:48:55Z</time>
      </trkpt>
      <trkpt lat="48.765559" lon="9.901381">
        <ele>708.8</ele>
        <time>2026-08-30T12:48:56Z</time>
      </trkpt>
      <trkpt lat="48.765574" lon="9.901384">
        <ele>708.6</ele>
        <time>2026-08-30T12:48:57Z</time>
      </trkpt>
      <trkpt lat="48.765590" lon="9.901397">
        <ele>708.2</ele>
        <time>2026-08-30T12:48:58Z</time>
      </trkpt>
      <trkpt lat="48.765604" lon="9.901412">
        <ele>707.8</ele>
        <time>2026-08-30T12:48:59Z</time>
      </trkpt>
      <trkpt lat="48.765619" lon="9.901420">
        <ele>707.4</ele>
        <time>2026-08-30T12:49:00Z</time>
      </trkpt>
      <trkpt lat="48.765637" lon="9.901425">
        <ele>707.2</ele>
        <time>2026-08-30T12:49:01Z</time>
      </trkpt>
      <trkpt lat="48.765656" lon="9.901441">
        <ele>706.6</ele>
        <time>2026-08-30T12:49:02Z</time>
      </trkpt>
      <trkpt lat="48.765676" lon="9.901453">
        <ele>706.2</ele>
        <time>2026-08-30T12:49:03Z</time>
      </trkpt>
      <trkpt lat="48.765687" lon="9.901470">
        <ele>705.8</ele>
        <time>2026-08-30T12:49:04Z</time>
      </trkpt>
      <trkpt lat="48.765702" lon="9.901492">
        <ele>705.2</ele>
        <time>2026-08-30T12:49:05Z</time>
      </trkpt>
      <trkpt lat="48.765718" lon="9.901518">
        <ele>704.8</ele>
        <time>2026-08-30T12:49:06Z</time>
      </trkpt>
      <trkpt lat="48.765735" lon="9.901542">
        <ele>704.4</ele>
        <time>2026-08-30T12:49:07Z</time>
      </trkpt>
      <trkpt lat="48.765753" lon="9.901575">
        <ele>704</ele>
        <time>2026-08-30T12:49:08Z</time>
      </trkpt>
      <trkpt lat="48.765776" lon="9.901599">
        <ele>703.6</ele>
        <time>2026-08-30T12:49:09Z</time>
      </trkpt>
      <trkpt lat="48.765805" lon="9.901629">
        <ele>703.2</ele>
        <time>2026-08-30T12:49:10Z</time>
      </trkpt>
      <trkpt lat="48.765813" lon="9.901656">
        <ele>702.8</ele>
        <time>2026-08-30T12:49:11Z</time>
      </trkpt>
      <trkpt lat="48.765812" lon="9.901682">
        <ele>702.6</ele>
        <time>2026-08-30T12:49:12Z</time>
      </trkpt>
      <trkpt lat="48.765824" lon="9.901704">
        <ele>702.4</ele>
        <time>2026-08-30T12:49:13Z</time>
      </trkpt>
      <trkpt lat="48.765836" lon="9.901728">
        <ele>702.2</ele>
        <time>2026-08-30T12:49:14Z</time>
      </trkpt>
      <trkpt lat="48.765858" lon="9.901748">
        <ele>702</ele>
        <time>2026-08-30T12:49:15Z</time>
      </trkpt>
      <trkpt lat="48.765877" lon="9.901773">
        <ele>701.8</ele>
        <time>2026-08-30T12:49:16Z</time>
      </trkpt>
      <trkpt lat="48.765904" lon="9.901808">
        <ele>701.6</ele>
        <time>2026-08-30T12:49:17Z</time>
      </trkpt>
      <trkpt lat="48.765917" lon="9.901852">
        <ele>701.4</ele>
        <time>2026-08-30T12:49:18Z</time>
      </trkpt>
      <trkpt lat="48.765934" lon="9.901906">
        <ele>701.2</ele>
        <time>2026-08-30T12:49:19Z</time>
      </trkpt>
      <trkpt lat="48.765937" lon="9.901959">
        <ele>701</ele>
        <time>2026-08-30T12:49:20Z</time>
      </trkpt>
      <trkpt lat="48.765941" lon="9.902009">
        <ele>700.8</ele>
        <time>2026-08-30T12:49:21Z</time>
      </trkpt>
      <trkpt lat="48.765940" lon="9.902062">
        <ele>700.6</ele>
        <time>2026-08-30T12:49:22Z</time>
      </trkpt>
      <trkpt lat="48.765943" lon="9.902107">
        <ele>700.6</ele>
        <time>2026-08-30T12:49:23Z</time>
      </trkpt>
      <trkpt lat="48.765945" lon="9.902152">
        <ele>700.6</ele>
        <time>2026-08-30T12:49:24Z</time>
      </trkpt>
      <trkpt lat="48.765951" lon="9.902193">
        <ele>700.6</ele>
        <time>2026-08-30T12:49:25Z</time>
      </trkpt>
      <trkpt lat="48.765952" lon="9.902238">
        <ele>700.6</ele>
        <time>2026-08-30T12:49:26Z</time>
      </trkpt>
      <trkpt lat="48.765948" lon="9.902292">
        <ele>700.6</ele>
        <time>2026-08-30T12:49:27Z</time>
      </trkpt>
      <trkpt lat="48.765942" lon="9.902344">
        <ele>700.4</ele>
        <time>2026-08-30T12:49:28Z</time>
      </trkpt>
      <trkpt lat="48.765936" lon="9.902400">
        <ele>700.4</ele>
        <time>2026-08-30T12:49:29Z</time>
      </trkpt>
      <trkpt lat="48.765931" lon="9.902458">
        <ele>700.4</ele>
        <time>2026-08-30T12:49:30Z</time>
      </trkpt>
      <trkpt lat="48.765926" lon="9.902514">
        <ele>700.6</ele>
        <time>2026-08-30T12:49:31Z</time>
      </trkpt>
      <trkpt lat="48.765921" lon="9.902566">
        <ele>700.6</ele>
        <time>2026-08-30T12:49:32Z</time>
      </trkpt>
      <trkpt lat="48.765912" lon="9.902624">
        <ele>700.6</ele>
        <time>2026-08-30T12:49:33Z</time>
      </trkpt>
      <trkpt lat="48.765905" lon="9.902682">
        <ele>700.6</ele>
        <time>2026-08-30T12:49:34Z</time>
      </trkpt>
      <trkpt lat="48.765902" lon="9.902739">
        <ele>700.6</ele>
        <time>2026-08-30T12:49:35Z</time>
      </trkpt>
      <trkpt lat="48.765899" lon="9.902799">
        <ele>700.6</ele>
        <time>2026-08-30T12:49:36Z</time>
      </trkpt>
      <trkpt lat="48.765894" lon="9.902857">
        <ele>700.6</ele>
        <time>2026-08-30T12:49:37Z</time>
      </trkpt>
      <trkpt lat="48.765895" lon="9.902924">
        <ele>700.4</ele>
        <time>2026-08-30T12:49:38Z</time>
      </trkpt>
      <trkpt lat="48.765895" lon="9.902987">
        <ele>700.4</ele>
        <time>2026-08-30T12:49:39Z</time>
      </trkpt>
      <trkpt lat="48.765889" lon="9.903051">
        <ele>700.4</ele>
        <time>2026-08-30T12:49:40Z</time>
      </trkpt>
      <trkpt lat="48.765883" lon="9.903106">
        <ele>700.4</ele>
        <time>2026-08-30T12:49:41Z</time>
      </trkpt>
      <trkpt lat="48.765877" lon="9.903171">
        <ele>700.6</ele>
        <time>2026-08-30T12:49:42Z</time>
      </trkpt>
      <trkpt lat="48.765872" lon="9.903238">
        <ele>700.6</ele>
        <time>2026-08-30T12:49:43Z</time>
      </trkpt>
      <trkpt lat="48.765868" lon="9.903304">
        <ele>700.6</ele>
        <time>2026-08-30T12:49:44Z</time>
      </trkpt>
      <trkpt lat="48.765855" lon="9.903366">
        <ele>700.8</ele>
        <time>2026-08-30T12:49:45Z</time>
      </trkpt>
      <trkpt lat="48.765853" lon="9.903419">
        <ele>700.8</ele>
        <time>2026-08-30T12:49:46Z</time>
      </trkpt>
      <trkpt lat="48.765843" lon="9.903476">
        <ele>701</ele>
        <time>2026-08-30T12:49:47Z</time>
      </trkpt>
      <trkpt lat="48.765835" lon="9.903531">
        <ele>701</ele>
        <time>2026-08-30T12:49:48Z</time>
      </trkpt>
      <trkpt lat="48.765829" lon="9.903592">
        <ele>701.2</ele>
        <time>2026-08-30T12:49:49Z</time>
      </trkpt>
      <trkpt lat="48.765823" lon="9.903644">
        <ele>701.4</ele>
        <time>2026-08-30T12:49:50Z</time>
      </trkpt>
      <trkpt lat="48.765827" lon="9.903691">
        <ele>701.4</ele>
        <time>2026-08-30T12:49:51Z</time>
      </trkpt>
      <trkpt lat="48.765834" lon="9.903743">
        <ele>701.4</ele>
        <time>2026-08-30T12:49:52Z</time>
      </trkpt>
      <trkpt lat="48.765851" lon="9.903807">
        <ele>701.4</ele>
        <time>2026-08-30T12:49:53Z</time>
      </trkpt>
      <trkpt lat="48.765874" lon="9.903873">
        <ele>701.4</ele>
        <time>2026-08-30T12:49:54Z</time>
      </trkpt>
      <trkpt lat="48.765898" lon="9.903945">
        <ele>701</ele>
        <time>2026-08-30T12:49:55Z</time>
      </trkpt>
      <trkpt lat="48.765923" lon="9.904019">
        <ele>700.8</ele>
        <time>2026-08-30T12:49:56Z</time>
      </trkpt>
      <trkpt lat="48.765946" lon="9.904084">
        <ele>700.4</ele>
        <time>2026-08-30T12:49:57Z</time>
      </trkpt>
      <trkpt lat="48.765970" lon="9.904158">
        <ele>700</ele>
        <time>2026-08-30T12:49:58Z</time>
      </trkpt>
      <trkpt lat="48.765990" lon="9.904239">
        <ele>699.6</ele>
        <time>2026-08-30T12:49:59Z</time>
      </trkpt>
      <trkpt lat="48.766011" lon="9.904322">
        <ele>699.2</ele>
        <time>2026-08-30T12:50:00Z</time>
      </trkpt>
      <trkpt lat="48.766029" lon="9.904399">
        <ele>698.8</ele>
        <time>2026-08-30T12:50:01Z</time>
      </trkpt>
      <trkpt lat="48.766045" lon="9.904483">
        <ele>698.2</ele>
        <time>2026-08-30T12:50:02Z</time>
      </trkpt>
      <trkpt lat="48.766061" lon="9.904561">
        <ele>697.8</ele>
        <time>2026-08-30T12:50:03Z</time>
      </trkpt>
      <trkpt lat="48.766081" lon="9.904636">
        <ele>697.6</ele>
        <time>2026-08-30T12:50:04Z</time>
      </trkpt>
      <trkpt lat="48.766098" lon="9.904702">
        <ele>697.2</ele>
        <time>2026-08-30T12:50:05Z</time>
      </trkpt>
      <trkpt lat="48.766113" lon="9.904770">
        <ele>696.8</ele>
        <time>2026-08-30T12:50:06Z</time>
      </trkpt>
      <trkpt lat="48.766120" lon="9.904853">
        <ele>696.4</ele>
        <time>2026-08-30T12:50:07Z</time>
      </trkpt>
      <trkpt lat="48.766125" lon="9.904939">
        <ele>696</ele>
        <time>2026-08-30T12:50:08Z</time>
      </trkpt>
      <trkpt lat="48.766129" lon="9.905009">
        <ele>695.6</ele>
        <time>2026-08-30T12:50:09Z</time>
      </trkpt>
      <trkpt lat="48.766133" lon="9.905086">
        <ele>695.2</ele>
        <time>2026-08-30T12:50:10Z</time>
      </trkpt>
      <trkpt lat="48.766139" lon="9.905161">
        <ele>695</ele>
        <time>2026-08-30T12:50:11Z</time>
      </trkpt>
      <trkpt lat="48.766145" lon="9.905234">
        <ele>694.6</ele>
        <time>2026-08-30T12:50:12Z</time>
      </trkpt>
      <trkpt lat="48.766151" lon="9.905306">
        <ele>694.4</ele>
        <time>2026-08-30T12:50:13Z</time>
      </trkpt>
      <trkpt lat="48.766157" lon="9.905376">
        <ele>694.4</ele>
        <time>2026-08-30T12:50:14Z</time>
      </trkpt>
      <trkpt lat="48.766160" lon="9.905447">
        <ele>694.2</ele>
        <time>2026-08-30T12:50:15Z</time>
      </trkpt>
      <trkpt lat="48.766169" lon="9.905512">
        <ele>694</ele>
        <time>2026-08-30T12:50:16Z</time>
      </trkpt>
      <trkpt lat="48.766177" lon="9.905581">
        <ele>693.8</ele>
        <time>2026-08-30T12:50:17Z</time>
      </trkpt>
      <trkpt lat="48.766179" lon="9.905632">
        <ele>693.8</ele>
        <time>2026-08-30T12:50:18Z</time>
      </trkpt>
      <trkpt lat="48.766179" lon="9.905690">
        <ele>693.8</ele>
        <time>2026-08-30T12:50:19Z</time>
      </trkpt>
      <trkpt lat="48.766180" lon="9.905753">
        <ele>693.6</ele>
        <time>2026-08-30T12:50:20Z</time>
      </trkpt>
      <trkpt lat="48.766182" lon="9.905812">
        <ele>693.6</ele>
        <time>2026-08-30T12:50:21Z</time>
      </trkpt>
      <trkpt lat="48.766181" lon="9.905872">
        <ele>693.6</ele>
        <time>2026-08-30T12:50:22Z</time>
      </trkpt>
      <trkpt lat="48.766179" lon="9.905936">
        <ele>693.6</ele>
        <time>2026-08-30T12:50:23Z</time>
      </trkpt>
      <trkpt lat="48.766172" lon="9.905999">
        <ele>693.6</ele>
        <time>2026-08-30T12:50:24Z</time>
      </trkpt>
      <trkpt lat="48.766168" lon="9.906060">
        <ele>693.4</ele>
        <time>2026-08-30T12:50:25Z</time>
      </trkpt>
      <trkpt lat="48.766169" lon="9.906124">
        <ele>693.4</ele>
        <time>2026-08-30T12:50:26Z</time>
      </trkpt>
      <trkpt lat="48.766161" lon="9.906183">
        <ele>693.4</ele>
        <time>2026-08-30T12:50:27Z</time>
      </trkpt>
      <trkpt lat="48.766152" lon="9.906240">
        <ele>693.4</ele>
        <time>2026-08-30T12:50:28Z</time>
      </trkpt>
      <trkpt lat="48.766142" lon="9.906297">
        <ele>693.4</ele>
        <time>2026-08-30T12:50:29Z</time>
      </trkpt>
      <trkpt lat="48.766131" lon="9.906358">
        <ele>693.4</ele>
        <time>2026-08-30T12:50:30Z</time>
      </trkpt>
      <trkpt lat="48.766119" lon="9.906410">
        <ele>693.4</ele>
        <time>2026-08-30T12:50:31Z</time>
      </trkpt>
      <trkpt lat="48.766101" lon="9.906452">
        <ele>693.6</ele>
        <time>2026-08-30T12:50:32Z</time>
      </trkpt>
      <trkpt lat="48.766091" lon="9.906506">
        <ele>693.6</ele>
        <time>2026-08-30T12:50:33Z</time>
      </trkpt>
      <trkpt lat="48.766083" lon="9.906556">
        <ele>693.8</ele>
        <time>2026-08-30T12:50:34Z</time>
      </trkpt>
      <trkpt lat="48.766076" lon="9.906605">
        <ele>693.8</ele>
        <time>2026-08-30T12:50:35Z</time>
      </trkpt>
      <trkpt lat="48.766062" lon="9.906660">
        <ele>693.8</ele>
        <time>2026-08-30T12:50:36Z</time>
      </trkpt>
      <trkpt lat="48.766049" lon="9.906718">
        <ele>693.8</ele>
        <time>2026-08-30T12:50:37Z</time>
      </trkpt>
      <trkpt lat="48.766036" lon="9.906779">
        <ele>694</ele>
        <time>2026-08-30T12:50:38Z</time>
      </trkpt>
      <trkpt lat="48.766027" lon="9.906838">
        <ele>694</ele>
        <time>2026-08-30T12:50:39Z</time>
      </trkpt>
      <trkpt lat="48.766017" lon="9.906895">
        <ele>694</ele>
        <time>2026-08-30T12:50:40Z</time>
      </trkpt>
      <trkpt lat="48.766006" lon="9.906947">
        <ele>694</ele>
        <time>2026-08-30T12:50:41Z</time>
      </trkpt>
      <trkpt lat="48.766002" lon="9.906990">
        <ele>694.2</ele>
        <time>2026-08-30T12:50:42Z</time>
      </trkpt>
      <trkpt lat="48.766001" lon="9.907037">
        <ele>694.2</ele>
        <time>2026-08-30T12:50:43Z</time>
      </trkpt>
      <trkpt lat="48.765994" lon="9.907079">
        <ele>694.4</ele>
        <time>2026-08-30T12:50:44Z</time>
      </trkpt>
      <trkpt lat="48.765988" lon="9.907121">
        <ele>694.6</ele>
        <time>2026-08-30T12:50:45Z</time>
      </trkpt>
      <trkpt lat="48.765983" lon="9.907163">
        <ele>694.6</ele>
        <time>2026-08-30T12:50:46Z</time>
      </trkpt>
      <trkpt lat="48.765983" lon="9.907205">
        <ele>694.6</ele>
        <time>2026-08-30T12:50:47Z</time>
      </trkpt>
      <trkpt lat="48.765984" lon="9.907250">
        <ele>694.8</ele>
        <time>2026-08-30T12:50:48Z</time>
      </trkpt>
      <trkpt lat="48.765982" lon="9.907296">
        <ele>694.8</ele>
        <time>2026-08-30T12:50:49Z</time>
      </trkpt>
      <trkpt lat="48.765986" lon="9.907346">
        <ele>694.8</ele>
        <time>2026-08-30T12:50:50Z</time>
      </trkpt>
      <trkpt lat="48.765994" lon="9.907407">
        <ele>694.6</ele>
        <time>2026-08-30T12:50:51Z</time>
      </trkpt>
      <trkpt lat="48.766005" lon="9.907467">
        <ele>694.6</ele>
        <time>2026-08-30T12:50:52Z</time>
      </trkpt>
      <trkpt lat="48.766022" lon="9.907522">
        <ele>694.4</ele>
        <time>2026-08-30T12:50:53Z</time>
      </trkpt>
      <trkpt lat="48.766029" lon="9.907579">
        <ele>694.2</ele>
        <time>2026-08-30T12:50:54Z</time>
      </trkpt>
      <trkpt lat="48.766040" lon="9.907646">
        <ele>693.8</ele>
        <time>2026-08-30T12:50:55Z</time>
      </trkpt>
      <trkpt lat="48.766053" lon="9.907709">
        <ele>693.6</ele>
        <time>2026-08-30T12:50:56Z</time>
      </trkpt>
      <trkpt lat="48.766067" lon="9.907772">
        <ele>693.2</ele>
        <time>2026-08-30T12:50:57Z</time>
      </trkpt>
      <trkpt lat="48.766081" lon="9.907834">
        <ele>692.8</ele>
        <time>2026-08-30T12:50:58Z</time>
      </trkpt>
      <trkpt lat="48.766093" lon="9.907901">
        <ele>692.4</ele>
        <time>2026-08-30T12:50:59Z</time>
      </trkpt>
      <trkpt lat="48.766102" lon="9.907968">
        <ele>692</ele>
        <time>2026-08-30T12:51:00Z</time>
      </trkpt>
      <trkpt lat="48.766105" lon="9.908040">
        <ele>691.4</ele>
        <time>2026-08-30T12:51:01Z</time>
      </trkpt>
      <trkpt lat="48.766111" lon="9.908111">
        <ele>691</ele>
        <time>2026-08-30T12:51:02Z</time>
      </trkpt>
      <trkpt lat="48.766118" lon="9.908183">
        <ele>690.4</ele>
        <time>2026-08-30T12:51:03Z</time>
      </trkpt>
      <trkpt lat="48.766134" lon="9.908251">
        <ele>689.6</ele>
        <time>2026-08-30T12:51:04Z</time>
      </trkpt>
      <trkpt lat="48.766163" lon="9.908304">
        <ele>689</ele>
        <time>2026-08-30T12:51:05Z</time>
      </trkpt>
      <trkpt lat="48.766202" lon="9.908343">
        <ele>688.4</ele>
        <time>2026-08-30T12:51:06Z</time>
      </trkpt>
      <trkpt lat="48.766252" lon="9.908366">
        <ele>687.8</ele>
        <time>2026-08-30T12:51:07Z</time>
      </trkpt>
      <trkpt lat="48.766299" lon="9.908384">
        <ele>687.2</ele>
        <time>2026-08-30T12:51:08Z</time>
      </trkpt>
      <trkpt lat="48.766347" lon="9.908403">
        <ele>686.8</ele>
        <time>2026-08-30T12:51:09Z</time>
      </trkpt>
      <trkpt lat="48.766400" lon="9.908419">
        <ele>686.2</ele>
        <time>2026-08-30T12:51:10Z</time>
      </trkpt>
      <trkpt lat="48.766447" lon="9.908438">
        <ele>685.8</ele>
        <time>2026-08-30T12:51:11Z</time>
      </trkpt>
      <trkpt lat="48.766493" lon="9.908451">
        <ele>685.6</ele>
        <time>2026-08-30T12:51:12Z</time>
      </trkpt>
      <trkpt lat="48.766537" lon="9.908462">
        <ele>685.2</ele>
        <time>2026-08-30T12:51:13Z</time>
      </trkpt>
      <trkpt lat="48.766579" lon="9.908478">
        <ele>685</ele>
        <time>2026-08-30T12:51:14Z</time>
      </trkpt>
      <trkpt lat="48.766617" lon="9.908487">
        <ele>685</ele>
        <time>2026-08-30T12:51:15Z</time>
      </trkpt>
      <trkpt lat="48.766655" lon="9.908493">
        <ele>684.8</ele>
        <time>2026-08-30T12:51:16Z</time>
      </trkpt>
      <trkpt lat="48.766691" lon="9.908501">
        <ele>684.8</ele>
        <time>2026-08-30T12:51:17Z</time>
      </trkpt>
      <trkpt lat="48.766724" lon="9.908504">
        <ele>684.8</ele>
        <time>2026-08-30T12:51:18Z</time>
      </trkpt>
      <trkpt lat="48.766756" lon="9.908511">
        <ele>685</ele>
        <time>2026-08-30T12:51:19Z</time>
      </trkpt>
      <trkpt lat="48.766779" lon="9.908516">
        <ele>685</ele>
        <time>2026-08-30T12:51:20Z</time>
      </trkpt>
      <trkpt lat="48.766807" lon="9.908521">
        <ele>685.2</ele>
        <time>2026-08-30T12:51:21Z</time>
      </trkpt>
      <trkpt lat="48.766830" lon="9.908526">
        <ele>685.4</ele>
        <time>2026-08-30T12:51:22Z</time>
      </trkpt>
      <trkpt lat="48.766852" lon="9.908534">
        <ele>685.6</ele>
        <time>2026-08-30T12:51:23Z</time>
      </trkpt>
      <trkpt lat="48.766870" lon="9.908538">
        <ele>685.6</ele>
        <time>2026-08-30T12:51:24Z</time>
      </trkpt>
      <trkpt lat="48.766891" lon="9.908545">
        <ele>685.8</ele>
        <time>2026-08-30T12:51:25Z</time>
      </trkpt>
      <trkpt lat="48.766913" lon="9.908538">
        <ele>686</ele>
        <time>2026-08-30T12:51:26Z</time>
      </trkpt>
      <trkpt lat="48.766933" lon="9.908515">
        <ele>685.8</ele>
        <time>2026-08-30T12:51:27Z</time>
      </trkpt>
      <trkpt lat="48.766955" lon="9.908487">
        <ele>685.8</ele>
        <time>2026-08-30T12:51:28Z</time>
      </trkpt>
      <trkpt lat="48.766974" lon="9.908453">
        <ele>685.6</ele>
        <time>2026-08-30T12:51:29Z</time>
      </trkpt>
      <trkpt lat="48.766988" lon="9.908420">
        <ele>685.4</ele>
        <time>2026-08-30T12:51:30Z</time>
      </trkpt>
      <trkpt lat="48.767003" lon="9.908382">
        <ele>685</ele>
        <time>2026-08-30T12:51:31Z</time>
      </trkpt>
      <trkpt lat="48.767025" lon="9.908346">
        <ele>684.8</ele>
        <time>2026-08-30T12:51:32Z</time>
      </trkpt>
      <trkpt lat="48.767047" lon="9.908310">
        <ele>684.4</ele>
        <time>2026-08-30T12:51:33Z</time>
      </trkpt>
      <trkpt lat="48.767070" lon="9.908276">
        <ele>684</ele>
        <time>2026-08-30T12:51:34Z</time>
      </trkpt>
      <trkpt lat="48.767087" lon="9.908241">
        <ele>683.4</ele>
        <time>2026-08-30T12:51:35Z</time>
      </trkpt>
      <trkpt lat="48.767112" lon="9.908214">
        <ele>682.8</ele>
        <time>2026-08-30T12:51:36Z</time>
      </trkpt>
      <trkpt lat="48.767139" lon="9.908196">
        <ele>682.4</ele>
        <time>2026-08-30T12:51:37Z</time>
      </trkpt>
      <trkpt lat="48.767172" lon="9.908186">
        <ele>681.8</ele>
        <time>2026-08-30T12:51:38Z</time>
      </trkpt>
      <trkpt lat="48.767211" lon="9.908188">
        <ele>681.4</ele>
        <time>2026-08-30T12:51:39Z</time>
      </trkpt>
      <trkpt lat="48.767252" lon="9.908189">
        <ele>680.6</ele>
        <time>2026-08-30T12:51:40Z</time>
      </trkpt>
      <trkpt lat="48.767293" lon="9.908187">
        <ele>680.2</ele>
        <time>2026-08-30T12:51:41Z</time>
      </trkpt>
      <trkpt lat="48.767343" lon="9.908187">
        <ele>679.6</ele>
        <time>2026-08-30T12:51:42Z</time>
      </trkpt>
      <trkpt lat="48.767380" lon="9.908191">
        <ele>679.2</ele>
        <time>2026-08-30T12:51:43Z</time>
      </trkpt>
      <trkpt lat="48.767414" lon="9.908189">
        <ele>678.6</ele>
        <time>2026-08-30T12:51:44Z</time>
      </trkpt>
      <trkpt lat="48.767438" lon="9.908198">
        <ele>678.2</ele>
        <time>2026-08-30T12:51:45Z</time>
      </trkpt>
      <trkpt lat="48.767459" lon="9.908208">
        <ele>677.8</ele>
        <time>2026-08-30T12:51:46Z</time>
      </trkpt>
      <trkpt lat="48.767493" lon="9.908214">
        <ele>677.4</ele>
        <time>2026-08-30T12:51:47Z</time>
      </trkpt>
      <trkpt lat="48.767531" lon="9.908220">
        <ele>677</ele>
        <time>2026-08-30T12:51:48Z</time>
      </trkpt>
      <trkpt lat="48.767571" lon="9.908219">
        <ele>676.4</ele>
        <time>2026-08-30T12:51:49Z</time>
      </trkpt>
      <trkpt lat="48.767607" lon="9.908206">
        <ele>676</ele>
        <time>2026-08-30T12:51:50Z</time>
      </trkpt>
      <trkpt lat="48.767645" lon="9.908177">
        <ele>675.4</ele>
        <time>2026-08-30T12:51:51Z</time>
      </trkpt>
      <trkpt lat="48.767675" lon="9.908149">
        <ele>675</ele>
        <time>2026-08-30T12:51:52Z</time>
      </trkpt>
      <trkpt lat="48.767707" lon="9.908124">
        <ele>674.4</ele>
        <time>2026-08-30T12:51:53Z</time>
      </trkpt>
      <trkpt lat="48.767731" lon="9.908099">
        <ele>674</ele>
        <time>2026-08-30T12:51:54Z</time>
      </trkpt>
      <trkpt lat="48.767762" lon="9.908077">
        <ele>673.4</ele>
        <time>2026-08-30T12:51:55Z</time>
      </trkpt>
      <trkpt lat="48.767793" lon="9.908051">
        <ele>672.6</ele>
        <time>2026-08-30T12:51:56Z</time>
      </trkpt>
      <trkpt lat="48.767817" lon="9.908040">
        <ele>672</ele>
        <time>2026-08-30T12:51:57Z</time>
      </trkpt>
      <trkpt lat="48.767846" lon="9.908018">
        <ele>671.4</ele>
        <time>2026-08-30T12:51:58Z</time>
      </trkpt>
      <trkpt lat="48.767883" lon="9.907999">
        <ele>670.8</ele>
        <time>2026-08-30T12:51:59Z</time>
      </trkpt>
      <trkpt lat="48.767917" lon="9.907983">
        <ele>670.2</ele>
        <time>2026-08-30T12:52:00Z</time>
      </trkpt>
      <trkpt lat="48.767954" lon="9.907970">
        <ele>669.6</ele>
        <time>2026-08-30T12:52:01Z</time>
      </trkpt>
      <trkpt lat="48.767989" lon="9.907952">
        <ele>669</ele>
        <time>2026-08-30T12:52:02Z</time>
      </trkpt>
      <trkpt lat="48.768028" lon="9.907940">
        <ele>668.4</ele>
        <time>2026-08-30T12:52:03Z</time>
      </trkpt>
      <trkpt lat="48.768067" lon="9.907939">
        <ele>667.8</ele>
        <time>2026-08-30T12:52:04Z</time>
      </trkpt>
      <trkpt lat="48.768100" lon="9.907953">
        <ele>667.2</ele>
        <time>2026-08-30T12:52:05Z</time>
      </trkpt>
      <trkpt lat="48.768137" lon="9.907978">
        <ele>666.4</ele>
        <time>2026-08-30T12:52:06Z</time>
      </trkpt>
      <trkpt lat="48.768171" lon="9.908012">
        <ele>665.8</ele>
        <time>2026-08-30T12:52:07Z</time>
      </trkpt>
      <trkpt lat="48.768192" lon="9.908066">
        <ele>665.2</ele>
        <time>2026-08-30T12:52:08Z</time>
      </trkpt>
      <trkpt lat="48.768199" lon="9.908122">
        <ele>664.6</ele>
        <time>2026-08-30T12:52:09Z</time>
      </trkpt>
      <trkpt lat="48.768203" lon="9.908172">
        <ele>664.2</ele>
        <time>2026-08-30T12:52:10Z</time>
      </trkpt>
      <trkpt lat="48.768205" lon="9.908216">
        <ele>663.8</ele>
        <time>2026-08-30T12:52:11Z</time>
      </trkpt>
      <trkpt lat="48.768214" lon="9.908275">
        <ele>663.4</ele>
        <time>2026-08-30T12:52:12Z</time>
      </trkpt>
      <trkpt lat="48.768226" lon="9.908326">
        <ele>663</ele>
        <time>2026-08-30T12:52:13Z</time>
      </trkpt>
      <trkpt lat="48.768233" lon="9.908385">
        <ele>662.6</ele>
        <time>2026-08-30T12:52:14Z</time>
      </trkpt>
      <trkpt lat="48.768248" lon="9.908448">
        <ele>662.2</ele>
        <time>2026-08-30T12:52:15Z</time>
      </trkpt>
      <trkpt lat="48.768262" lon="9.908485">
        <ele>661.8</ele>
        <time>2026-08-30T12:52:16Z</time>
      </trkpt>
      <trkpt lat="48.768275" lon="9.908516">
        <ele>661.6</ele>
        <time>2026-08-30T12:52:17Z</time>
      </trkpt>
      <trkpt lat="48.768291" lon="9.908556">
        <ele>661.2</ele>
        <time>2026-08-30T12:52:18Z</time>
      </trkpt>
      <trkpt lat="48.768314" lon="9.908612">
        <ele>661</ele>
        <time>2026-08-30T12:52:19Z</time>
      </trkpt>
      <trkpt lat="48.768332" lon="9.908670">
        <ele>660.6</ele>
        <time>2026-08-30T12:52:20Z</time>
      </trkpt>
      <trkpt lat="48.768351" lon="9.908725">
        <ele>660.2</ele>
        <time>2026-08-30T12:52:21Z</time>
      </trkpt>
      <trkpt lat="48.768372" lon="9.908784">
        <ele>660</ele>
        <time>2026-08-30T12:52:22Z</time>
      </trkpt>
      <trkpt lat="48.768385" lon="9.908828">
        <ele>659.8</ele>
        <time>2026-08-30T12:52:23Z</time>
      </trkpt>
      <trkpt lat="48.768381" lon="9.908854">
        <ele>659.6</ele>
        <time>2026-08-30T12:52:24Z</time>
      </trkpt>
      <trkpt lat="48.768382" lon="9.908891">
        <ele>659.6</ele>
        <time>2026-08-30T12:52:25Z</time>
      </trkpt>
      <trkpt lat="48.768384" lon="9.908912">
        <ele>659.6</ele>
        <time>2026-08-30T12:52:26Z</time>
      </trkpt>
      <trkpt lat="48.768383" lon="9.908928">
        <ele>659.8</ele>
        <time>2026-08-30T12:52:27Z</time>
      </trkpt>
      <trkpt lat="48.768379" lon="9.908940">
        <ele>659.8</ele>
        <time>2026-08-30T12:52:28Z</time>
      </trkpt>
      <trkpt lat="48.768367" lon="9.908960">
        <ele>660</ele>
        <time>2026-08-30T12:52:29Z</time>
      </trkpt>
      <trkpt lat="48.768360" lon="9.908978">
        <ele>660</ele>
        <time>2026-08-30T12:52:30Z</time>
      </trkpt>
      <trkpt lat="48.768354" lon="9.909005">
        <ele>660.2</ele>
        <time>2026-08-30T12:52:31Z</time>
      </trkpt>
      <trkpt lat="48.768353" lon="9.909025">
        <ele>660.2</ele>
        <time>2026-08-30T12:52:32Z</time>
      </trkpt>
      <trkpt lat="48.768351" lon="9.909043">
        <ele>660.4</ele>
        <time>2026-08-30T12:52:33Z</time>
      </trkpt>
      <trkpt lat="48.768352" lon="9.909065">
        <ele>660.6</ele>
        <time>2026-08-30T12:52:34Z</time>
      </trkpt>
      <trkpt lat="48.768349" lon="9.909081">
        <ele>660.8</ele>
        <time>2026-08-30T12:52:35Z</time>
      </trkpt>
      <trkpt lat="48.768342" lon="9.909101">
        <ele>661</ele>
        <time>2026-08-30T12:52:36Z</time>
      </trkpt>
      <trkpt lat="48.768335" lon="9.909123">
        <ele>661.2</ele>
        <time>2026-08-30T12:52:37Z</time>
      </trkpt>
      <trkpt lat="48.768329" lon="9.909147">
        <ele>661.4</ele>
        <time>2026-08-30T12:52:38Z</time>
      </trkpt>
      <trkpt lat="48.768325" lon="9.909166">
        <ele>661.6</ele>
        <time>2026-08-30T12:52:39Z</time>
      </trkpt>
      <trkpt lat="48.768314" lon="9.909184">
        <ele>661.8</ele>
        <time>2026-08-30T12:52:40Z</time>
      </trkpt>
      <trkpt lat="48.768305" lon="9.909199">
        <ele>662</ele>
        <time>2026-08-30T12:52:41Z</time>
      </trkpt>
      <trkpt lat="48.768295" lon="9.909216">
        <ele>662.2</ele>
        <time>2026-08-30T12:52:42Z</time>
      </trkpt>
      <trkpt lat="48.768287" lon="9.909240">
        <ele>662.4</ele>
        <time>2026-08-30T12:52:43Z</time>
      </trkpt>
      <trkpt lat="48.768283" lon="9.909261">
        <ele>662.6</ele>
        <time>2026-08-30T12:52:44Z</time>
      </trkpt>
      <trkpt lat="48.768284" lon="9.909287">
        <ele>662.6</ele>
        <time>2026-08-30T12:52:45Z</time>
      </trkpt>
      <trkpt lat="48.768279" lon="9.909313">
        <ele>662.8</ele>
        <time>2026-08-30T12:52:46Z</time>
      </trkpt>
      <trkpt lat="48.768272" lon="9.909331">
        <ele>663</ele>
        <time>2026-08-30T12:52:47Z</time>
      </trkpt>
      <trkpt lat="48.768267" lon="9.909354">
        <ele>663.2</ele>
        <time>2026-08-30T12:52:48Z</time>
      </trkpt>
      <trkpt lat="48.768259" lon="9.909381">
        <ele>663.2</ele>
        <time>2026-08-30T12:52:49Z</time>
      </trkpt>
      <trkpt lat="48.768253" lon="9.909397">
        <ele>663.4</ele>
        <time>2026-08-30T12:52:50Z</time>
      </trkpt>
      <trkpt lat="48.768248" lon="9.909425">
        <ele>663.6</ele>
        <time>2026-08-30T12:52:51Z</time>
      </trkpt>
      <trkpt lat="48.768245" lon="9.909447">
        <ele>663.8</ele>
        <time>2026-08-30T12:52:52Z</time>
      </trkpt>
      <trkpt lat="48.768237" lon="9.909473">
        <ele>664</ele>
        <time>2026-08-30T12:52:53Z</time>
      </trkpt>
      <trkpt lat="48.768226" lon="9.909501">
        <ele>664</ele>
        <time>2026-08-30T12:52:54Z</time>
      </trkpt>
      <trkpt lat="48.768219" lon="9.909526">
        <ele>664.2</ele>
        <time>2026-08-30T12:52:55Z</time>
      </trkpt>
      <trkpt lat="48.768211" lon="9.909542">
        <ele>664.4</ele>
        <time>2026-08-30T12:52:56Z</time>
      </trkpt>
      <trkpt lat="48.768203" lon="9.909557">
        <ele>664.6</ele>
        <time>2026-08-30T12:52:57Z</time>
      </trkpt>
      <trkpt lat="48.768198" lon="9.909575">
        <ele>664.8</ele>
        <time>2026-08-30T12:52:58Z</time>
      </trkpt>
      <trkpt lat="48.768196" lon="9.909592">
        <ele>665</ele>
        <time>2026-08-30T12:52:59Z</time>
      </trkpt>
      <trkpt lat="48.768190" lon="9.909619">
        <ele>665</ele>
        <time>2026-08-30T12:53:00Z</time>
      </trkpt>
      <trkpt lat="48.768181" lon="9.909642">
        <ele>665.2</ele>
        <time>2026-08-30T12:53:01Z</time>
      </trkpt>
      <trkpt lat="48.768172" lon="9.909666">
        <ele>665.4</ele>
        <time>2026-08-30T12:53:02Z</time>
      </trkpt>
      <trkpt lat="48.768167" lon="9.909689">
        <ele>665.6</ele>
        <time>2026-08-30T12:53:03Z</time>
      </trkpt>
      <trkpt lat="48.768157" lon="9.909707">
        <ele>665.8</ele>
        <time>2026-08-30T12:53:04Z</time>
      </trkpt>
      <trkpt lat="48.768144" lon="9.909723">
        <ele>666</ele>
        <time>2026-08-30T12:53:05Z</time>
      </trkpt>
      <trkpt lat="48.768132" lon="9.909752">
        <ele>666</ele>
        <time>2026-08-30T12:53:06Z</time>
      </trkpt>
      <trkpt lat="48.768126" lon="9.909771">
        <ele>666.2</ele>
        <time>2026-08-30T12:53:07Z</time>
      </trkpt>
      <trkpt lat="48.768117" lon="9.909794">
        <ele>666.4</ele>
        <time>2026-08-30T12:53:08Z</time>
      </trkpt>
      <trkpt lat="48.768111" lon="9.909817">
        <ele>666.6</ele>
        <time>2026-08-30T12:53:09Z</time>
      </trkpt>
      <trkpt lat="48.768105" lon="9.909838">
        <ele>666.8</ele>
        <time>2026-08-30T12:53:10Z</time>
      </trkpt>
      <trkpt lat="48.768096" lon="9.909855">
        <ele>667</ele>
        <time>2026-08-30T12:53:11Z</time>
      </trkpt>
      <trkpt lat="48.768087" lon="9.909871">
        <ele>667.2</ele>
        <time>2026-08-30T12:53:12Z</time>
      </trkpt>
      <trkpt lat="48.768076" lon="9.909884">
        <ele>667.4</ele>
        <time>2026-08-30T12:53:13Z</time>
      </trkpt>
      <trkpt lat="48.768063" lon="9.909899">
        <ele>667.6</ele>
        <time>2026-08-30T12:53:14Z</time>
      </trkpt>
      <trkpt lat="48.768050" lon="9.909916">
        <ele>667.8</ele>
        <time>2026-08-30T12:53:15Z</time>
      </trkpt>
      <trkpt lat="48.768039" lon="9.909933">
        <ele>667.8</ele>
        <time>2026-08-30T12:53:16Z</time>
      </trkpt>
      <trkpt lat="48.768028" lon="9.909951">
        <ele>668</ele>
        <time>2026-08-30T12:53:17Z</time>
      </trkpt>
      <trkpt lat="48.768014" lon="9.909965">
        <ele>668.2</ele>
        <time>2026-08-30T12:53:18Z</time>
      </trkpt>
      <trkpt lat="48.768001" lon="9.909967">
        <ele>668.4</ele>
        <time>2026-08-30T12:53:19Z</time>
      </trkpt>
      <trkpt lat="48.767985" lon="9.909970">
        <ele>668.4</ele>
        <time>2026-08-30T12:53:20Z</time>
      </trkpt>
      <trkpt lat="48.767967" lon="9.909963">
        <ele>668.6</ele>
        <time>2026-08-30T12:53:21Z</time>
      </trkpt>
      <trkpt lat="48.767952" lon="9.909956">
        <ele>668.8</ele>
        <time>2026-08-30T12:53:22Z</time>
      </trkpt>
      <trkpt lat="48.767940" lon="9.909947">
        <ele>669</ele>
        <time>2026-08-30T12:53:23Z</time>
      </trkpt>
      <trkpt lat="48.767931" lon="9.909934">
        <ele>669</ele>
        <time>2026-08-30T12:53:24Z</time>
      </trkpt>
      <trkpt lat="48.767920" lon="9.909916">
        <ele>669.2</ele>
        <time>2026-08-30T12:53:25Z</time>
      </trkpt>
      <trkpt lat="48.767910" lon="9.909897">
        <ele>669.4</ele>
        <time>2026-08-30T12:53:26Z</time>
      </trkpt>
      <trkpt lat="48.767902" lon="9.909876">
        <ele>669.6</ele>
        <time>2026-08-30T12:53:27Z</time>
      </trkpt>
      <trkpt lat="48.767893" lon="9.909862">
        <ele>669.8</ele>
        <time>2026-08-30T12:53:28Z</time>
      </trkpt>
      <trkpt lat="48.767886" lon="9.909856">
        <ele>670</ele>
        <time>2026-08-30T12:53:29Z</time>
      </trkpt>
      <trkpt lat="48.767880" lon="9.909854">
        <ele>670.2</ele>
        <time>2026-08-30T12:53:30Z</time>
      </trkpt>
      <trkpt lat="48.767870" lon="9.909846">
        <ele>670.4</ele>
        <time>2026-08-30T12:53:31Z</time>
      </trkpt>
      <trkpt lat="48.767861" lon="9.909836">
        <ele>670.6</ele>
        <time>2026-08-30T12:53:32Z</time>
      </trkpt>
      <trkpt lat="48.767851" lon="9.909829">
        <ele>670.8</ele>
        <time>2026-08-30T12:53:33Z</time>
      </trkpt>
      <trkpt lat="48.767842" lon="9.909822">
        <ele>671</ele>
        <time>2026-08-30T12:53:34Z</time>
      </trkpt>
      <trkpt lat="48.767836" lon="9.909825">
        <ele>671.2</ele>
        <time>2026-08-30T12:53:35Z</time>
      </trkpt>
      <trkpt lat="48.767836" lon="9.909825">
        <ele>671.2</ele>
        <time>2026-08-30T12:53:36Z</time>
      </trkpt>
      <trkpt lat="48.767836" lon="9.909825">
        <ele>671.4</ele>
        <time>2026-08-30T12:53:37Z</time>
      </trkpt>
      <trkpt lat="48.767836" lon="9.909825">
        <ele>671.4</ele>
        <time>2026-08-30T12:53:38Z</time>
      </trkpt>
      <trkpt lat="48.767836" lon="9.909825">
        <ele>671.6</ele>
        <time>2026-08-30T12:53:39Z</time>
      </trkpt>
      <trkpt lat="48.767836" lon="9.909825">
        <ele>671.6</ele>
        <time>2026-08-30T12:53:40Z</time>
      </trkpt>
      <trkpt lat="48.767837" lon="9.909827">
        <ele>671.6</ele>
        <time>2026-08-30T12:53:41Z</time>
      </trkpt>
      <trkpt lat="48.767838" lon="9.909848">
        <ele>671.6</ele>
        <time>2026-08-30T12:53:42Z</time>
      </trkpt>
      <trkpt lat="48.767845" lon="9.909853">
        <ele>671.6</ele>
        <time>2026-08-30T12:53:43Z</time>
      </trkpt>
      <trkpt lat="48.767845" lon="9.909853">
        <ele>671.6</ele>
        <time>2026-08-30T12:53:44Z</time>
      </trkpt>
      <trkpt lat="48.767846" lon="9.909853">
        <ele>671.6</ele>
        <time>2026-08-30T12:53:45Z</time>
      </trkpt>
      <trkpt lat="48.767856" lon="9.909862">
        <ele>671.6</ele>
        <time>2026-08-30T12:53:46Z</time>
      </trkpt>
      <trkpt lat="48.767866" lon="9.909872">
        <ele>671.4</ele>
        <time>2026-08-30T12:53:47Z</time>
      </trkpt>
      <trkpt lat="48.767871" lon="9.909884">
        <ele>671.4</ele>
        <time>2026-08-30T12:53:48Z</time>
      </trkpt>
      <trkpt lat="48.767872" lon="9.909887">
        <ele>671.4</ele>
        <time>2026-08-30T12:53:49Z</time>
      </trkpt>
      <trkpt lat="48.767873" lon="9.909887">
        <ele>671.4</ele>
        <time>2026-08-30T12:53:50Z</time>
      </trkpt>
      <trkpt lat="48.767873" lon="9.909888">
        <ele>671.2</ele>
        <time>2026-08-30T12:53:51Z</time>
      </trkpt>
      <trkpt lat="48.767886" lon="9.909906">
        <ele>671.2</ele>
        <time>2026-08-30T12:53:52Z</time>
      </trkpt>
      <trkpt lat="48.767906" lon="9.909922">
        <ele>671.2</ele>
        <time>2026-08-30T12:53:53Z</time>
      </trkpt>
      <trkpt lat="48.767922" lon="9.909939">
        <ele>671</ele>
        <time>2026-08-30T12:53:54Z</time>
      </trkpt>
      <trkpt lat="48.767932" lon="9.909968">
        <ele>670.8</ele>
        <time>2026-08-30T12:53:55Z</time>
      </trkpt>
      <trkpt lat="48.767934" lon="9.910007">
        <ele>670.6</ele>
        <time>2026-08-30T12:53:56Z</time>
      </trkpt>
      <trkpt lat="48.767936" lon="9.910038">
        <ele>670.4</ele>
        <time>2026-08-30T12:53:57Z</time>
      </trkpt>
      <trkpt lat="48.767929" lon="9.910064">
        <ele>670.2</ele>
        <time>2026-08-30T12:53:58Z</time>
      </trkpt>
      <trkpt lat="48.767919" lon="9.910083">
        <ele>670</ele>
        <time>2026-08-30T12:53:59Z</time>
      </trkpt>
      <trkpt lat="48.767906" lon="9.910094">
        <ele>670</ele>
        <time>2026-08-30T12:54:00Z</time>
      </trkpt>
      <trkpt lat="48.767897" lon="9.910104">
        <ele>669.8</ele>
        <time>2026-08-30T12:54:01Z</time>
      </trkpt>
      <trkpt lat="48.767887" lon="9.910118">
        <ele>669.8</ele>
        <time>2026-08-30T12:54:02Z</time>
      </trkpt>
      <trkpt lat="48.767876" lon="9.910130">
        <ele>669.8</ele>
        <time>2026-08-30T12:54:03Z</time>
      </trkpt>
      <trkpt lat="48.767865" lon="9.910141">
        <ele>670</ele>
        <time>2026-08-30T12:54:04Z</time>
      </trkpt>
      <trkpt lat="48.767852" lon="9.910146">
        <ele>670.2</ele>
        <time>2026-08-30T12:54:05Z</time>
      </trkpt>
      <trkpt lat="48.767836" lon="9.910151">
        <ele>670.4</ele>
        <time>2026-08-30T12:54:06Z</time>
      </trkpt>
      <trkpt lat="48.767820" lon="9.910164">
        <ele>670.6</ele>
        <time>2026-08-30T12:54:07Z</time>
      </trkpt>
      <trkpt lat="48.767804" lon="9.910180">
        <ele>670.6</ele>
        <time>2026-08-30T12:54:08Z</time>
      </trkpt>
      <trkpt lat="48.767790" lon="9.910203">
        <ele>671</ele>
        <time>2026-08-30T12:54:09Z</time>
      </trkpt>
      <trkpt lat="48.767779" lon="9.910216">
        <ele>671.2</ele>
        <time>2026-08-30T12:54:10Z</time>
      </trkpt>
      <trkpt lat="48.767766" lon="9.910232">
        <ele>671.4</ele>
        <time>2026-08-30T12:54:11Z</time>
      </trkpt>
      <trkpt lat="48.767755" lon="9.910239">
        <ele>671.6</ele>
        <time>2026-08-30T12:54:12Z</time>
      </trkpt>
      <trkpt lat="48.767740" lon="9.910246">
        <ele>672</ele>
        <time>2026-08-30T12:54:13Z</time>
      </trkpt>
      <trkpt lat="48.767729" lon="9.910250">
        <ele>672.2</ele>
        <time>2026-08-30T12:54:14Z</time>
      </trkpt>
      <trkpt lat="48.767714" lon="9.910256">
        <ele>672.4</ele>
        <time>2026-08-30T12:54:15Z</time>
      </trkpt>
      <trkpt lat="48.767702" lon="9.910267">
        <ele>672.8</ele>
        <time>2026-08-30T12:54:16Z</time>
      </trkpt>
      <trkpt lat="48.767690" lon="9.910280">
        <ele>673</ele>
        <time>2026-08-30T12:54:17Z</time>
      </trkpt>
      <trkpt lat="48.767682" lon="9.910297">
        <ele>673.4</ele>
        <time>2026-08-30T12:54:18Z</time>
      </trkpt>
      <trkpt lat="48.767672" lon="9.910311">
        <ele>673.6</ele>
        <time>2026-08-30T12:54:19Z</time>
      </trkpt>
      <trkpt lat="48.767661" lon="9.910319">
        <ele>673.8</ele>
        <time>2026-08-30T12:54:20Z</time>
      </trkpt>
      <trkpt lat="48.767649" lon="9.910328">
        <ele>674.2</ele>
        <time>2026-08-30T12:54:21Z</time>
      </trkpt>
      <trkpt lat="48.767638" lon="9.910341">
        <ele>674.4</ele>
        <time>2026-08-30T12:54:22Z</time>
      </trkpt>
      <trkpt lat="48.767626" lon="9.910352">
        <ele>674.6</ele>
        <time>2026-08-30T12:54:23Z</time>
      </trkpt>
      <trkpt lat="48.767615" lon="9.910368">
        <ele>674.8</ele>
        <time>2026-08-30T12:54:24Z</time>
      </trkpt>
      <trkpt lat="48.767607" lon="9.910379">
        <ele>675.2</ele>
        <time>2026-08-30T12:54:25Z</time>
      </trkpt>
      <trkpt lat="48.767599" lon="9.910395">
        <ele>675.4</ele>
        <time>2026-08-30T12:54:26Z</time>
      </trkpt>
      <trkpt lat="48.767587" lon="9.910413">
        <ele>675.4</ele>
        <time>2026-08-30T12:54:27Z</time>
      </trkpt>
      <trkpt lat="48.767576" lon="9.910427">
        <ele>675.6</ele>
        <time>2026-08-30T12:54:28Z</time>
      </trkpt>
      <trkpt lat="48.767565" lon="9.910441">
        <ele>675.8</ele>
        <time>2026-08-30T12:54:29Z</time>
      </trkpt>
      <trkpt lat="48.767553" lon="9.910449">
        <ele>676</ele>
        <time>2026-08-30T12:54:30Z</time>
      </trkpt>
      <trkpt lat="48.767541" lon="9.910454">
        <ele>676.2</ele>
        <time>2026-08-30T12:54:31Z</time>
      </trkpt>
      <trkpt lat="48.767530" lon="9.910457">
        <ele>676.4</ele>
        <time>2026-08-30T12:54:32Z</time>
      </trkpt>
      <trkpt lat="48.767515" lon="9.910463">
        <ele>676.4</ele>
        <time>2026-08-30T12:54:33Z</time>
      </trkpt>
      <trkpt lat="48.767502" lon="9.910472">
        <ele>676.6</ele>
        <time>2026-08-30T12:54:34Z</time>
      </trkpt>
      <trkpt lat="48.767493" lon="9.910494">
        <ele>676.8</ele>
        <time>2026-08-30T12:54:35Z</time>
      </trkpt>
      <trkpt lat="48.767488" lon="9.910504">
        <ele>677</ele>
        <time>2026-08-30T12:54:36Z</time>
      </trkpt>
      <trkpt lat="48.767477" lon="9.910510">
        <ele>677.4</ele>
        <time>2026-08-30T12:54:37Z</time>
      </trkpt>
      <trkpt lat="48.767468" lon="9.910520">
        <ele>677.6</ele>
        <time>2026-08-30T12:54:38Z</time>
      </trkpt>
      <trkpt lat="48.767458" lon="9.910531">
        <ele>677.8</ele>
        <time>2026-08-30T12:54:39Z</time>
      </trkpt>
      <trkpt lat="48.767449" lon="9.910549">
        <ele>678</ele>
        <time>2026-08-30T12:54:40Z</time>
      </trkpt>
      <trkpt lat="48.767437" lon="9.910563">
        <ele>678.2</ele>
        <time>2026-08-30T12:54:41Z</time>
      </trkpt>
      <trkpt lat="48.767425" lon="9.910580">
        <ele>678.4</ele>
        <time>2026-08-30T12:54:42Z</time>
      </trkpt>
      <trkpt lat="48.767417" lon="9.910592">
        <ele>678.6</ele>
        <time>2026-08-30T12:54:43Z</time>
      </trkpt>
      <trkpt lat="48.767406" lon="9.910613">
        <ele>678.8</ele>
        <time>2026-08-30T12:54:44Z</time>
      </trkpt>
      <trkpt lat="48.767391" lon="9.910624">
        <ele>679</ele>
        <time>2026-08-30T12:54:45Z</time>
      </trkpt>
      <trkpt lat="48.767375" lon="9.910639">
        <ele>679.2</ele>
        <time>2026-08-30T12:54:46Z</time>
      </trkpt>
      <trkpt lat="48.767361" lon="9.910653">
        <ele>679.2</ele>
        <time>2026-08-30T12:54:47Z</time>
      </trkpt>
      <trkpt lat="48.767349" lon="9.910676">
        <ele>679.4</ele>
        <time>2026-08-30T12:54:48Z</time>
      </trkpt>
      <trkpt lat="48.767336" lon="9.910698">
        <ele>679.6</ele>
        <time>2026-08-30T12:54:49Z</time>
      </trkpt>
      <trkpt lat="48.767324" lon="9.910722">
        <ele>679.8</ele>
        <time>2026-08-30T12:54:50Z</time>
      </trkpt>
      <trkpt lat="48.767316" lon="9.910743">
        <ele>679.8</ele>
        <time>2026-08-30T12:54:51Z</time>
      </trkpt>
      <trkpt lat="48.767302" lon="9.910761">
        <ele>680</ele>
        <time>2026-08-30T12:54:52Z</time>
      </trkpt>
      <trkpt lat="48.767292" lon="9.910775">
        <ele>680.2</ele>
        <time>2026-08-30T12:54:53Z</time>
      </trkpt>
      <trkpt lat="48.767284" lon="9.910794">
        <ele>680.2</ele>
        <time>2026-08-30T12:54:54Z</time>
      </trkpt>
      <trkpt lat="48.767271" lon="9.910808">
        <ele>680.4</ele>
        <time>2026-08-30T12:54:55Z</time>
      </trkpt>
      <trkpt lat="48.767260" lon="9.910815">
        <ele>680.6</ele>
        <time>2026-08-30T12:54:56Z</time>
      </trkpt>
      <trkpt lat="48.767246" lon="9.910826">
        <ele>680.6</ele>
        <time>2026-08-30T12:54:57Z</time>
      </trkpt>
      <trkpt lat="48.767227" lon="9.910837">
        <ele>680.8</ele>
        <time>2026-08-30T12:54:58Z</time>
      </trkpt>
      <trkpt lat="48.767209" lon="9.910852">
        <ele>681</ele>
        <time>2026-08-30T12:54:59Z</time>
      </trkpt>
      <trkpt lat="48.767190" lon="9.910868">
        <ele>681.2</ele>
        <time>2026-08-30T12:55:00Z</time>
      </trkpt>
      <trkpt lat="48.767180" lon="9.910886">
        <ele>681.4</ele>
        <time>2026-08-30T12:55:01Z</time>
      </trkpt>
      <trkpt lat="48.767169" lon="9.910908">
        <ele>681.4</ele>
        <time>2026-08-30T12:55:02Z</time>
      </trkpt>
      <trkpt lat="48.767159" lon="9.910931">
        <ele>681.6</ele>
        <time>2026-08-30T12:55:03Z</time>
      </trkpt>
      <trkpt lat="48.767151" lon="9.910945">
        <ele>681.6</ele>
        <time>2026-08-30T12:55:04Z</time>
      </trkpt>
      <trkpt lat="48.767146" lon="9.910960">
        <ele>681.8</ele>
        <time>2026-08-30T12:55:05Z</time>
      </trkpt>
      <trkpt lat="48.767133" lon="9.910973">
        <ele>682</ele>
        <time>2026-08-30T12:55:06Z</time>
      </trkpt>
      <trkpt lat="48.767117" lon="9.910992">
        <ele>682.2</ele>
        <time>2026-08-30T12:55:07Z</time>
      </trkpt>
      <trkpt lat="48.767101" lon="9.911011">
        <ele>682.2</ele>
        <time>2026-08-30T12:55:08Z</time>
      </trkpt>
      <trkpt lat="48.767086" lon="9.911020">
        <ele>682.4</ele>
        <time>2026-08-30T12:55:09Z</time>
      </trkpt>
      <trkpt lat="48.767071" lon="9.911029">
        <ele>682.6</ele>
        <time>2026-08-30T12:55:10Z</time>
      </trkpt>
      <trkpt lat="48.767051" lon="9.911045">
        <ele>682.6</ele>
        <time>2026-08-30T12:55:11Z</time>
      </trkpt>
      <trkpt lat="48.767034" lon="9.911059">
        <ele>682.8</ele>
        <time>2026-08-30T12:55:12Z</time>
      </trkpt>
      <trkpt lat="48.767016" lon="9.911075">
        <ele>683</ele>
        <time>2026-08-30T12:55:13Z</time>
      </trkpt>
      <trkpt lat="48.767002" lon="9.911094">
        <ele>683</ele>
        <time>2026-08-30T12:55:14Z</time>
      </trkpt>
      <trkpt lat="48.766990" lon="9.911113">
        <ele>683.2</ele>
        <time>2026-08-30T12:55:15Z</time>
      </trkpt>
      <trkpt lat="48.766981" lon="9.911135">
        <ele>683.4</ele>
        <time>2026-08-30T12:55:16Z</time>
      </trkpt>
      <trkpt lat="48.766974" lon="9.911155">
        <ele>683.6</ele>
        <time>2026-08-30T12:55:17Z</time>
      </trkpt>
      <trkpt lat="48.766964" lon="9.911170">
        <ele>683.6</ele>
        <time>2026-08-30T12:55:18Z</time>
      </trkpt>
      <trkpt lat="48.766955" lon="9.911187">
        <ele>683.8</ele>
        <time>2026-08-30T12:55:19Z</time>
      </trkpt>
      <trkpt lat="48.766940" lon="9.911202">
        <ele>684</ele>
        <time>2026-08-30T12:55:20Z</time>
      </trkpt>
      <trkpt lat="48.766932" lon="9.911208">
        <ele>684.2</ele>
        <time>2026-08-30T12:55:21Z</time>
      </trkpt>
      <trkpt lat="48.766918" lon="9.911225">
        <ele>684.2</ele>
        <time>2026-08-30T12:55:22Z</time>
      </trkpt>
      <trkpt lat="48.766906" lon="9.911238">
        <ele>684.4</ele>
        <time>2026-08-30T12:55:23Z</time>
      </trkpt>
      <trkpt lat="48.766890" lon="9.911250">
        <ele>684.6</ele>
        <time>2026-08-30T12:55:24Z</time>
      </trkpt>
      <trkpt lat="48.766866" lon="9.911253">
        <ele>684.6</ele>
        <time>2026-08-30T12:55:25Z</time>
      </trkpt>
      <trkpt lat="48.766847" lon="9.911243">
        <ele>684.8</ele>
        <time>2026-08-30T12:55:26Z</time>
      </trkpt>
      <trkpt lat="48.766838" lon="9.911222">
        <ele>685</ele>
        <time>2026-08-30T12:55:27Z</time>
      </trkpt>
      <trkpt lat="48.766833" lon="9.911196">
        <ele>685.2</ele>
        <time>2026-08-30T12:55:28Z</time>
      </trkpt>
      <trkpt lat="48.766840" lon="9.911178">
        <ele>685.4</ele>
        <time>2026-08-30T12:55:29Z</time>
      </trkpt>
      <trkpt lat="48.766846" lon="9.911156">
        <ele>685.6</ele>
        <time>2026-08-30T12:55:30Z</time>
      </trkpt>
      <trkpt lat="48.766856" lon="9.911138">
        <ele>685.8</ele>
        <time>2026-08-30T12:55:31Z</time>
      </trkpt>
      <trkpt lat="48.766866" lon="9.911132">
        <ele>686</ele>
        <time>2026-08-30T12:55:32Z</time>
      </trkpt>
      <trkpt lat="48.766873" lon="9.911128">
        <ele>686.4</ele>
        <time>2026-08-30T12:55:33Z</time>
      </trkpt>
      <trkpt lat="48.766881" lon="9.911117">
        <ele>686.6</ele>
        <time>2026-08-30T12:55:34Z</time>
      </trkpt>
      <trkpt lat="48.766886" lon="9.911096">
        <ele>687</ele>
        <time>2026-08-30T12:55:35Z</time>
      </trkpt>
      <trkpt lat="48.766891" lon="9.911077">
        <ele>687.4</ele>
        <time>2026-08-30T12:55:36Z</time>
      </trkpt>
      <trkpt lat="48.766897" lon="9.911061">
        <ele>687.6</ele>
        <time>2026-08-30T12:55:37Z</time>
      </trkpt>
      <trkpt lat="48.766901" lon="9.911045">
        <ele>688</ele>
        <time>2026-08-30T12:55:38Z</time>
      </trkpt>
      <trkpt lat="48.766906" lon="9.911029">
        <ele>688.2</ele>
        <time>2026-08-30T12:55:39Z</time>
      </trkpt>
      <trkpt lat="48.766911" lon="9.911019">
        <ele>688.4</ele>
        <time>2026-08-30T12:55:40Z</time>
      </trkpt>
      <trkpt lat="48.766917" lon="9.911005">
        <ele>688.8</ele>
        <time>2026-08-30T12:55:41Z</time>
      </trkpt>
      <trkpt lat="48.766924" lon="9.910995">
        <ele>689</ele>
        <time>2026-08-30T12:55:42Z</time>
      </trkpt>
      <trkpt lat="48.766927" lon="9.910986">
        <ele>689.2</ele>
        <time>2026-08-30T12:55:43Z</time>
      </trkpt>
      <trkpt lat="48.766928" lon="9.910975">
        <ele>689.4</ele>
        <time>2026-08-30T12:55:44Z</time>
      </trkpt>
      <trkpt lat="48.766929" lon="9.910967">
        <ele>689.6</ele>
        <time>2026-08-30T12:55:45Z</time>
      </trkpt>
      <trkpt lat="48.766929" lon="9.910967">
        <ele>689.6</ele>
        <time>2026-08-30T12:55:46Z</time>
      </trkpt>
      <trkpt lat="48.766929" lon="9.910967">
        <ele>689.6</ele>
        <time>2026-08-30T12:55:47Z</time>
      </trkpt>
      <trkpt lat="48.766929" lon="9.910967">
        <ele>689.8</ele>
        <time>2026-08-30T12:55:48Z</time>
      </trkpt>
      <trkpt lat="48.766929" lon="9.910967">
        <ele>689.8</ele>
        <time>2026-08-30T12:55:49Z</time>
      </trkpt>
      <trkpt lat="48.766928" lon="9.910965">
        <ele>689.8</ele>
        <time>2026-08-30T12:55:50Z</time>
      </trkpt>
      <trkpt lat="48.766935" lon="9.910948">
        <ele>689.8</ele>
        <time>2026-08-30T12:55:51Z</time>
      </trkpt>
      <trkpt lat="48.766940" lon="9.910924">
        <ele>689.8</ele>
        <time>2026-08-30T12:55:52Z</time>
      </trkpt>
      <trkpt lat="48.766950" lon="9.910899">
        <ele>689.8</ele>
        <time>2026-08-30T12:55:53Z</time>
      </trkpt>
      <trkpt lat="48.766958" lon="9.910889">
        <ele>689.8</ele>
        <time>2026-08-30T12:55:54Z</time>
      </trkpt>
      <trkpt lat="48.766974" lon="9.910890">
        <ele>689.8</ele>
        <time>2026-08-30T12:55:55Z</time>
      </trkpt>
      <trkpt lat="48.766986" lon="9.910894">
        <ele>689.8</ele>
        <time>2026-08-30T12:55:56Z</time>
      </trkpt>
      <trkpt lat="48.766997" lon="9.910899">
        <ele>689.6</ele>
        <time>2026-08-30T12:55:57Z</time>
      </trkpt>
      <trkpt lat="48.767010" lon="9.910898">
        <ele>689.6</ele>
        <time>2026-08-30T12:55:58Z</time>
      </trkpt>
      <trkpt lat="48.767019" lon="9.910890">
        <ele>689.4</ele>
        <time>2026-08-30T12:55:59Z</time>
      </trkpt>
      <trkpt lat="48.767036" lon="9.910867">
        <ele>689.4</ele>
        <time>2026-08-30T12:56:00Z</time>
      </trkpt>
      <trkpt lat="48.767052" lon="9.910845">
        <ele>689.2</ele>
        <time>2026-08-30T12:56:01Z</time>
      </trkpt>
      <trkpt lat="48.767067" lon="9.910825">
        <ele>689</ele>
        <time>2026-08-30T12:56:02Z</time>
      </trkpt>
      <trkpt lat="48.767075" lon="9.910801">
        <ele>688.8</ele>
        <time>2026-08-30T12:56:03Z</time>
      </trkpt>
      <trkpt lat="48.767089" lon="9.910774">
        <ele>688.8</ele>
        <time>2026-08-30T12:56:04Z</time>
      </trkpt>
      <trkpt lat="48.767102" lon="9.910749">
        <ele>688.6</ele>
        <time>2026-08-30T12:56:05Z</time>
      </trkpt>
      <trkpt lat="48.767122" lon="9.910732">
        <ele>688.6</ele>
        <time>2026-08-30T12:56:06Z</time>
      </trkpt>
      <trkpt lat="48.767145" lon="9.910708">
        <ele>688.4</ele>
        <time>2026-08-30T12:56:07Z</time>
      </trkpt>
      <trkpt lat="48.767164" lon="9.910688">
        <ele>688.2</ele>
        <time>2026-08-30T12:56:08Z</time>
      </trkpt>
      <trkpt lat="48.767180" lon="9.910661">
        <ele>688.2</ele>
        <time>2026-08-30T12:56:09Z</time>
      </trkpt>
      <trkpt lat="48.767200" lon="9.910645">
        <ele>688</ele>
        <time>2026-08-30T12:56:10Z</time>
      </trkpt>
      <trkpt lat="48.767220" lon="9.910635">
        <ele>687.8</ele>
        <time>2026-08-30T12:56:11Z</time>
      </trkpt>
      <trkpt lat="48.767245" lon="9.910628">
        <ele>687.6</ele>
        <time>2026-08-30T12:56:12Z</time>
      </trkpt>
      <trkpt lat="48.767268" lon="9.910614">
        <ele>687.2</ele>
        <time>2026-08-30T12:56:13Z</time>
      </trkpt>
      <trkpt lat="48.767279" lon="9.910591">
        <ele>687</ele>
        <time>2026-08-30T12:56:14Z</time>
      </trkpt>
      <trkpt lat="48.767291" lon="9.910567">
        <ele>686.4</ele>
        <time>2026-08-30T12:56:15Z</time>
      </trkpt>
      <trkpt lat="48.767300" lon="9.910540">
        <ele>686</ele>
        <time>2026-08-30T12:56:16Z</time>
      </trkpt>
      <trkpt lat="48.767308" lon="9.910505">
        <ele>685.6</ele>
        <time>2026-08-30T12:56:17Z</time>
      </trkpt>
      <trkpt lat="48.767326" lon="9.910472">
        <ele>685.2</ele>
        <time>2026-08-30T12:56:18Z</time>
      </trkpt>
      <trkpt lat="48.767338" lon="9.910438">
        <ele>685</ele>
        <time>2026-08-30T12:56:19Z</time>
      </trkpt>
      <trkpt lat="48.767362" lon="9.910413">
        <ele>684.8</ele>
        <time>2026-08-30T12:56:20Z</time>
      </trkpt>
      <trkpt lat="48.767388" lon="9.910384">
        <ele>684.6</ele>
        <time>2026-08-30T12:56:21Z</time>
      </trkpt>
      <trkpt lat="48.767413" lon="9.910358">
        <ele>684.4</ele>
        <time>2026-08-30T12:56:22Z</time>
      </trkpt>
      <trkpt lat="48.767443" lon="9.910327">
        <ele>684.2</ele>
        <time>2026-08-30T12:56:23Z</time>
      </trkpt>
      <trkpt lat="48.767468" lon="9.910297">
        <ele>684</ele>
        <time>2026-08-30T12:56:24Z</time>
      </trkpt>
      <trkpt lat="48.767498" lon="9.910268">
        <ele>683.8</ele>
        <time>2026-08-30T12:56:25Z</time>
      </trkpt>
      <trkpt lat="48.767525" lon="9.910243">
        <ele>683.4</ele>
        <time>2026-08-30T12:56:26Z</time>
      </trkpt>
      <trkpt lat="48.767544" lon="9.910209">
        <ele>683</ele>
        <time>2026-08-30T12:56:27Z</time>
      </trkpt>
      <trkpt lat="48.767560" lon="9.910182">
        <ele>682.6</ele>
        <time>2026-08-30T12:56:28Z</time>
      </trkpt>
      <trkpt lat="48.767588" lon="9.910145">
        <ele>682.2</ele>
        <time>2026-08-30T12:56:29Z</time>
      </trkpt>
      <trkpt lat="48.767614" lon="9.910109">
        <ele>681.8</ele>
        <time>2026-08-30T12:56:30Z</time>
      </trkpt>
      <trkpt lat="48.767638" lon="9.910069">
        <ele>681.2</ele>
        <time>2026-08-30T12:56:31Z</time>
      </trkpt>
      <trkpt lat="48.767655" lon="9.910027">
        <ele>680.6</ele>
        <time>2026-08-30T12:56:32Z</time>
      </trkpt>
      <trkpt lat="48.767679" lon="9.909978">
        <ele>680.2</ele>
        <time>2026-08-30T12:56:33Z</time>
      </trkpt>
      <trkpt lat="48.767699" lon="9.909930">
        <ele>679.6</ele>
        <time>2026-08-30T12:56:34Z</time>
      </trkpt>
      <trkpt lat="48.767726" lon="9.909881">
        <ele>679</ele>
        <time>2026-08-30T12:56:35Z</time>
      </trkpt>
      <trkpt lat="48.767747" lon="9.909839">
        <ele>678.6</ele>
        <time>2026-08-30T12:56:36Z</time>
      </trkpt>
      <trkpt lat="48.767757" lon="9.909801">
        <ele>678</ele>
        <time>2026-08-30T12:56:37Z</time>
      </trkpt>
      <trkpt lat="48.767771" lon="9.909768">
        <ele>677.6</ele>
        <time>2026-08-30T12:56:38Z</time>
      </trkpt>
      <trkpt lat="48.767786" lon="9.909729">
        <ele>677.2</ele>
        <time>2026-08-30T12:56:39Z</time>
      </trkpt>
      <trkpt lat="48.767801" lon="9.909697">
        <ele>676.8</ele>
        <time>2026-08-30T12:56:40Z</time>
      </trkpt>
      <trkpt lat="48.767818" lon="9.909666">
        <ele>676.4</ele>
        <time>2026-08-30T12:56:41Z</time>
      </trkpt>
      <trkpt lat="48.767838" lon="9.909639">
        <ele>676.2</ele>
        <time>2026-08-30T12:56:42Z</time>
      </trkpt>
      <trkpt lat="48.767866" lon="9.909617">
        <ele>675.8</ele>
        <time>2026-08-30T12:56:43Z</time>
      </trkpt>
      <trkpt lat="48.767895" lon="9.909600">
        <ele>675.6</ele>
        <time>2026-08-30T12:56:44Z</time>
      </trkpt>
      <trkpt lat="48.767915" lon="9.909600">
        <ele>675.2</ele>
        <time>2026-08-30T12:56:45Z</time>
      </trkpt>
      <trkpt lat="48.767929" lon="9.909610">
        <ele>675</ele>
        <time>2026-08-30T12:56:46Z</time>
      </trkpt>
      <trkpt lat="48.767949" lon="9.909619">
        <ele>674.6</ele>
        <time>2026-08-30T12:56:47Z</time>
      </trkpt>
      <trkpt lat="48.767962" lon="9.909633">
        <ele>674.2</ele>
        <time>2026-08-30T12:56:48Z</time>
      </trkpt>
      <trkpt lat="48.767981" lon="9.909638">
        <ele>674</ele>
        <time>2026-08-30T12:56:49Z</time>
      </trkpt>
      <trkpt lat="48.767993" lon="9.909627">
        <ele>673.6</ele>
        <time>2026-08-30T12:56:50Z</time>
      </trkpt>
      <trkpt lat="48.768006" lon="9.909613">
        <ele>673.2</ele>
        <time>2026-08-30T12:56:51Z</time>
      </trkpt>
      <trkpt lat="48.768023" lon="9.909606">
        <ele>672.8</ele>
        <time>2026-08-30T12:56:52Z</time>
      </trkpt>
      <trkpt lat="48.768049" lon="9.909582">
        <ele>672.2</ele>
        <time>2026-08-30T12:56:53Z</time>
      </trkpt>
      <trkpt lat="48.768075" lon="9.909549">
        <ele>671.8</ele>
        <time>2026-08-30T12:56:54Z</time>
      </trkpt>
      <trkpt lat="48.768099" lon="9.909513">
        <ele>671.2</ele>
        <time>2026-08-30T12:56:55Z</time>
      </trkpt>
      <trkpt lat="48.768114" lon="9.909480">
        <ele>670.6</ele>
        <time>2026-08-30T12:56:56Z</time>
      </trkpt>
      <trkpt lat="48.768126" lon="9.909460">
        <ele>670.2</ele>
        <time>2026-08-30T12:56:57Z</time>
      </trkpt>
      <trkpt lat="48.768140" lon="9.909439">
        <ele>669.6</ele>
        <time>2026-08-30T12:56:58Z</time>
      </trkpt>
      <trkpt lat="48.768154" lon="9.909423">
        <ele>669.4</ele>
        <time>2026-08-30T12:56:59Z</time>
      </trkpt>
      <trkpt lat="48.768164" lon="9.909404">
        <ele>669</ele>
        <time>2026-08-30T12:57:00Z</time>
      </trkpt>
      <trkpt lat="48.768179" lon="9.909361">
        <ele>668.6</ele>
        <time>2026-08-30T12:57:01Z</time>
      </trkpt>
      <trkpt lat="48.768192" lon="9.909287">
        <ele>668.2</ele>
        <time>2026-08-30T12:57:02Z</time>
      </trkpt>
      <trkpt lat="48.768205" lon="9.909222">
        <ele>667.6</ele>
        <time>2026-08-30T12:57:03Z</time>
      </trkpt>
      <trkpt lat="48.768210" lon="9.909177">
        <ele>667.2</ele>
        <time>2026-08-30T12:57:04Z</time>
      </trkpt>
      <trkpt lat="48.768226" lon="9.909123">
        <ele>666.6</ele>
        <time>2026-08-30T12:57:05Z</time>
      </trkpt>
      <trkpt lat="48.768233" lon="9.909090">
        <ele>666.4</ele>
        <time>2026-08-30T12:57:06Z</time>
      </trkpt>
      <trkpt lat="48.768243" lon="9.909059">
        <ele>666</ele>
        <time>2026-08-30T12:57:07Z</time>
      </trkpt>
      <trkpt lat="48.768253" lon="9.909034">
        <ele>665.8</ele>
        <time>2026-08-30T12:57:08Z</time>
      </trkpt>
      <trkpt lat="48.768273" lon="9.908997">
        <ele>665.4</ele>
        <time>2026-08-30T12:57:09Z</time>
      </trkpt>
      <trkpt lat="48.768294" lon="9.908959">
        <ele>665</ele>
        <time>2026-08-30T12:57:10Z</time>
      </trkpt>
      <trkpt lat="48.768306" lon="9.908921">
        <ele>664.4</ele>
        <time>2026-08-30T12:57:11Z</time>
      </trkpt>
      <trkpt lat="48.768314" lon="9.908888">
        <ele>664</ele>
        <time>2026-08-30T12:57:12Z</time>
      </trkpt>
      <trkpt lat="48.768313" lon="9.908836">
        <ele>663.2</ele>
        <time>2026-08-30T12:57:13Z</time>
      </trkpt>
      <trkpt lat="48.768317" lon="9.908773">
        <ele>662.8</ele>
        <time>2026-08-30T12:57:14Z</time>
      </trkpt>
      <trkpt lat="48.768322" lon="9.908715">
        <ele>662.2</ele>
        <time>2026-08-30T12:57:15Z</time>
      </trkpt>
      <trkpt lat="48.768325" lon="9.908661">
        <ele>661.8</ele>
        <time>2026-08-30T12:57:16Z</time>
      </trkpt>
      <trkpt lat="48.768327" lon="9.908619">
        <ele>661.4</ele>
        <time>2026-08-30T12:57:17Z</time>
      </trkpt>
      <trkpt lat="48.768322" lon="9.908576">
        <ele>661.2</ele>
        <time>2026-08-30T12:57:18Z</time>
      </trkpt>
      <trkpt lat="48.768313" lon="9.908544">
        <ele>661</ele>
        <time>2026-08-30T12:57:19Z</time>
      </trkpt>
      <trkpt lat="48.768301" lon="9.908516">
        <ele>660.8</ele>
        <time>2026-08-30T12:57:20Z</time>
      </trkpt>
      <trkpt lat="48.768295" lon="9.908483">
        <ele>660.6</ele>
        <time>2026-08-30T12:57:21Z</time>
      </trkpt>
      <trkpt lat="48.768292" lon="9.908449">
        <ele>660.6</ele>
        <time>2026-08-30T12:57:22Z</time>
      </trkpt>
      <trkpt lat="48.768297" lon="9.908409">
        <ele>660.6</ele>
        <time>2026-08-30T12:57:23Z</time>
      </trkpt>
      <trkpt lat="48.768301" lon="9.908390">
        <ele>660.6</ele>
        <time>2026-08-30T12:57:24Z</time>
      </trkpt>
      <trkpt lat="48.768299" lon="9.908379">
        <ele>660.6</ele>
        <time>2026-08-30T12:57:25Z</time>
      </trkpt>
      <trkpt lat="48.768299" lon="9.908379">
        <ele>660.6</ele>
        <time>2026-08-30T12:57:26Z</time>
      </trkpt>
      <trkpt lat="48.768299" lon="9.908379">
        <ele>660.4</ele>
        <time>2026-08-30T12:57:27Z</time>
      </trkpt>
      <trkpt lat="48.768299" lon="9.908379">
        <ele>660.4</ele>
        <time>2026-08-30T12:57:28Z</time>
      </trkpt>
      <trkpt lat="48.768299" lon="9.908378">
        <ele>660.4</ele>
        <time>2026-08-30T12:57:29Z</time>
      </trkpt>
      <trkpt lat="48.768305" lon="9.908348">
        <ele>660.2</ele>
        <time>2026-08-30T12:57:30Z</time>
      </trkpt>
      <trkpt lat="48.768317" lon="9.908324">
        <ele>660.2</ele>
        <time>2026-08-30T12:57:31Z</time>
      </trkpt>
      <trkpt lat="48.768334" lon="9.908305">
        <ele>660.2</ele>
        <time>2026-08-30T12:57:32Z</time>
      </trkpt>
      <trkpt lat="48.768354" lon="9.908284">
        <ele>660.2</ele>
        <time>2026-08-30T12:57:33Z</time>
      </trkpt>
      <trkpt lat="48.768375" lon="9.908283">
        <ele>660</ele>
        <time>2026-08-30T12:57:34Z</time>
      </trkpt>
      <trkpt lat="48.768383" lon="9.908296">
        <ele>660</ele>
        <time>2026-08-30T12:57:35Z</time>
      </trkpt>
      <trkpt lat="48.768393" lon="9.908315">
        <ele>659.8</ele>
        <time>2026-08-30T12:57:36Z</time>
      </trkpt>
      <trkpt lat="48.768409" lon="9.908326">
        <ele>659.6</ele>
        <time>2026-08-30T12:57:37Z</time>
      </trkpt>
      <trkpt lat="48.768423" lon="9.908316">
        <ele>659.2</ele>
        <time>2026-08-30T12:57:38Z</time>
      </trkpt>
      <trkpt lat="48.768438" lon="9.908294">
        <ele>658.8</ele>
        <time>2026-08-30T12:57:39Z</time>
      </trkpt>
      <trkpt lat="48.768456" lon="9.908259">
        <ele>658.4</ele>
        <time>2026-08-30T12:57:40Z</time>
      </trkpt>
      <trkpt lat="48.768473" lon="9.908228">
        <ele>657.8</ele>
        <time>2026-08-30T12:57:41Z</time>
      </trkpt>
      <trkpt lat="48.768482" lon="9.908184">
        <ele>657.4</ele>
        <time>2026-08-30T12:57:42Z</time>
      </trkpt>
      <trkpt lat="48.768492" lon="9.908147">
        <ele>656.8</ele>
        <time>2026-08-30T12:57:43Z</time>
      </trkpt>
      <trkpt lat="48.768502" lon="9.908102">
        <ele>656.2</ele>
        <time>2026-08-30T12:57:44Z</time>
      </trkpt>
      <trkpt lat="48.768507" lon="9.908069">
        <ele>656</ele>
        <time>2026-08-30T12:57:45Z</time>
      </trkpt>
      <trkpt lat="48.768506" lon="9.908071">
        <ele>655.6</ele>
        <time>2026-08-30T12:57:46Z</time>
      </trkpt>
      <trkpt lat="48.768506" lon="9.908071">
        <ele>655.4</ele>
        <time>2026-08-30T12:57:47Z</time>
      </trkpt>
      <trkpt lat="48.768506" lon="9.908071">
        <ele>655.4</ele>
        <time>2026-08-30T12:57:48Z</time>
      </trkpt>
      <trkpt lat="48.768506" lon="9.908071">
        <ele>655.4</ele>
        <time>2026-08-30T12:57:49Z</time>
      </trkpt>
      <trkpt lat="48.768507" lon="9.908069">
        <ele>655.4</ele>
        <time>2026-08-30T12:57:50Z</time>
      </trkpt>
      <trkpt lat="48.768512" lon="9.908056">
        <ele>655.2</ele>
        <time>2026-08-30T12:57:51Z</time>
      </trkpt>
      <trkpt lat="48.768509" lon="9.908054">
        <ele>655.2</ele>
        <time>2026-08-30T12:57:52Z</time>
      </trkpt>
      <trkpt lat="48.768507" lon="9.908075">
        <ele>655</ele>
        <time>2026-08-30T12:57:53Z</time>
      </trkpt>
      <trkpt lat="48.768507" lon="9.908094">
        <ele>654.8</ele>
        <time>2026-08-30T12:57:54Z</time>
      </trkpt>
      <trkpt lat="48.768507" lon="9.908113">
        <ele>654.6</ele>
        <time>2026-08-30T12:57:55Z</time>
      </trkpt>
      <trkpt lat="48.768507" lon="9.908127">
        <ele>654.6</ele>
        <time>2026-08-30T12:57:56Z</time>
      </trkpt>
      <trkpt lat="48.768506" lon="9.908139">
        <ele>654.4</ele>
        <time>2026-08-30T12:57:57Z</time>
      </trkpt>
      <trkpt lat="48.768508" lon="9.908150">
        <ele>654.4</ele>
        <time>2026-08-30T12:57:58Z</time>
      </trkpt>
      <trkpt lat="48.768507" lon="9.908157">
        <ele>654.4</ele>
        <time>2026-08-30T12:57:59Z</time>
      </trkpt>
      <trkpt lat="48.768506" lon="9.908163">
        <ele>654.4</ele>
        <time>2026-08-30T12:58:00Z</time>
      </trkpt>
      <trkpt lat="48.768505" lon="9.908168">
        <ele>654.6</ele>
        <time>2026-08-30T12:58:01Z</time>
      </trkpt>
      <trkpt lat="48.768505" lon="9.908176">
        <ele>654.6</ele>
        <time>2026-08-30T12:58:02Z</time>
      </trkpt>
      <trkpt lat="48.768505" lon="9.908169">
        <ele>654.8</ele>
        <time>2026-08-30T12:58:03Z</time>
      </trkpt>
      <trkpt lat="48.768505" lon="9.908173">
        <ele>654.8</ele>
        <time>2026-08-30T12:58:04Z</time>
      </trkpt>
      <trkpt lat="48.768505" lon="9.908173">
        <ele>655</ele>
        <time>2026-08-30T12:58:05Z</time>
      </trkpt>
      <trkpt lat="48.768505" lon="9.908173">
        <ele>655</ele>
        <time>2026-08-30T12:58:06Z</time>
      </trkpt>
      <trkpt lat="48.768505" lon="9.908173">
        <ele>655</ele>
        <time>2026-08-30T12:58:07Z</time>
      </trkpt>
      <trkpt lat="48.768505" lon="9.908173">
        <ele>655</ele>
        <time>2026-08-30T12:58:08Z</time>
      </trkpt>
      <trkpt lat="48.768505" lon="9.908173">
        <ele>655</ele>
        <time>2026-08-30T12:58:09Z</time>
      </trkpt>
      <trkpt lat="48.768505" lon="9.908173">
        <ele>655</ele>
        <time>2026-08-30T12:58:10Z</time>
      </trkpt>
      <trkpt lat="48.768505" lon="9.908173">
        <ele>655</ele>
        <time>2026-08-30T12:58:11Z</time>
      </trkpt>
      <trkpt lat="48.768505" lon="9.908173">
        <ele>655</ele>
        <time>2026-08-30T12:58:12Z</time>
      </trkpt>
      <trkpt lat="48.768505" lon="9.908171">
        <ele>655.2</ele>
        <time>2026-08-30T12:58:13Z</time>
      </trkpt>
      <trkpt lat="48.768510" lon="9.908121">
        <ele>655</ele>
        <time>2026-08-30T12:58:14Z</time>
      </trkpt>
      <trkpt lat="48.768508" lon="9.908066">
        <ele>655</ele>
        <time>2026-08-30T12:58:15Z</time>
      </trkpt>
      <trkpt lat="48.768500" lon="9.908063">
        <ele>655</ele>
        <time>2026-08-30T12:58:16Z</time>
      </trkpt>
      <trkpt lat="48.768495" lon="9.908063">
        <ele>654.8</ele>
        <time>2026-08-30T12:58:17Z</time>
      </trkpt>
      <trkpt lat="48.768495" lon="9.908063">
        <ele>655</ele>
        <time>2026-08-30T12:58:18Z</time>
      </trkpt>
      <trkpt lat="48.768495" lon="9.908063">
        <ele>655</ele>
        <time>2026-08-30T12:58:19Z</time>
      </trkpt>
      <trkpt lat="48.768495" lon="9.908063">
        <ele>655.2</ele>
        <time>2026-08-30T12:58:20Z</time>
      </trkpt>
      <trkpt lat="48.768495" lon="9.908063">
        <ele>655.2</ele>
        <time>2026-08-30T12:58:21Z</time>
      </trkpt>
      <trkpt lat="48.768495" lon="9.908063">
        <ele>655.2</ele>
        <time>2026-08-30T12:58:22Z</time>
      </trkpt>
      <trkpt lat="48.768495" lon="9.908063">
        <ele>655.4</ele>
        <time>2026-08-30T12:58:23Z</time>
      </trkpt>
      <trkpt lat="48.768495" lon="9.908063">
        <ele>655.4</ele>
        <time>2026-08-30T12:58:24Z</time>
      </trkpt>
      <trkpt lat="48.768496" lon="9.908059">
        <ele>655.4</ele>
        <time>2026-08-30T12:58:25Z</time>
      </trkpt>
      <trkpt lat="48.768498" lon="9.908043">
        <ele>655.4</ele>
        <time>2026-08-30T12:58:26Z</time>
      </trkpt>
      <trkpt lat="48.768494" lon="9.908029">
        <ele>655.4</ele>
        <time>2026-08-30T12:58:27Z</time>
      </trkpt>
      <trkpt lat="48.768492" lon="9.908016">
        <ele>655.4</ele>
        <time>2026-08-30T12:58:28Z</time>
      </trkpt>
      <trkpt lat="48.768489" lon="9.908008">
        <ele>655.2</ele>
        <time>2026-08-30T12:58:29Z</time>
      </trkpt>
      <trkpt lat="48.768489" lon="9.907997">
        <ele>655.2</ele>
        <time>2026-08-30T12:58:30Z</time>
      </trkpt>
      <trkpt lat="48.768489" lon="9.907997">
        <ele>655.2</ele>
        <time>2026-08-30T12:58:31Z</time>
      </trkpt>
      <trkpt lat="48.768489" lon="9.907997">
        <ele>655.2</ele>
        <time>2026-08-30T12:58:32Z</time>
      </trkpt>
      <trkpt lat="48.768489" lon="9.907997">
        <ele>655.2</ele>
        <time>2026-08-30T12:58:33Z</time>
      </trkpt>
      <trkpt lat="48.768489" lon="9.907997">
        <ele>655.2</ele>
        <time>2026-08-30T12:58:34Z</time>
      </trkpt>
      <trkpt lat="48.768489" lon="9.907997">
        <ele>655.2</ele>
        <time>2026-08-30T12:58:35Z</time>
      </trkpt>
      <trkpt lat="48.768489" lon="9.907997">
        <ele>655.2</ele>
        <time>2026-08-30T12:58:36Z</time>
      </trkpt>
      <trkpt lat="48.768491" lon="9.907996">
        <ele>655.2</ele>
        <time>2026-08-30T12:58:37Z</time>
      </trkpt>
      <trkpt lat="48.768509" lon="9.907968">
        <ele>655.2</ele>
        <time>2026-08-30T12:58:38Z</time>
      </trkpt>
      <trkpt lat="48.768526" lon="9.907951">
        <ele>655</ele>
        <time>2026-08-30T12:58:39Z</time>
      </trkpt>
      <trkpt lat="48.768544" lon="9.907942">
        <ele>654.8</ele>
        <time>2026-08-30T12:58:40Z</time>
      </trkpt>
      <trkpt lat="48.768561" lon="9.907939">
        <ele>654.6</ele>
        <time>2026-08-30T12:58:41Z</time>
      </trkpt>
      <trkpt lat="48.768575" lon="9.907945">
        <ele>654.4</ele>
        <time>2026-08-30T12:58:42Z</time>
      </trkpt>
      <trkpt lat="48.768590" lon="9.907964">
        <ele>654</ele>
        <time>2026-08-30T12:58:43Z</time>
      </trkpt>
      <trkpt lat="48.768618" lon="9.907957">
        <ele>653.6</ele>
        <time>2026-08-30T12:58:44Z</time>
      </trkpt>
      <trkpt lat="48.768630" lon="9.907920">
        <ele>653</ele>
        <time>2026-08-30T12:58:45Z</time>
      </trkpt>
      <trkpt lat="48.768637" lon="9.907882">
        <ele>652.6</ele>
        <time>2026-08-30T12:58:46Z</time>
      </trkpt>
      <trkpt lat="48.768652" lon="9.907851">
        <ele>652.2</ele>
        <time>2026-08-30T12:58:47Z</time>
      </trkpt>
      <trkpt lat="48.768677" lon="9.907830">
        <ele>651.8</ele>
        <time>2026-08-30T12:58:48Z</time>
      </trkpt>
      <trkpt lat="48.768687" lon="9.907813">
        <ele>651.2</ele>
        <time>2026-08-30T12:58:49Z</time>
      </trkpt>
      <trkpt lat="48.768698" lon="9.907793">
        <ele>650.8</ele>
        <time>2026-08-30T12:58:50Z</time>
      </trkpt>
      <trkpt lat="48.768710" lon="9.907768">
        <ele>650.4</ele>
        <time>2026-08-30T12:58:51Z</time>
      </trkpt>
      <trkpt lat="48.768715" lon="9.907741">
        <ele>650</ele>
        <time>2026-08-30T12:58:52Z</time>
      </trkpt>
      <trkpt lat="48.768722" lon="9.907722">
        <ele>649.8</ele>
        <time>2026-08-30T12:58:53Z</time>
      </trkpt>
      <trkpt lat="48.768721" lon="9.907705">
        <ele>649.6</ele>
        <time>2026-08-30T12:58:54Z</time>
      </trkpt>
      <trkpt lat="48.768723" lon="9.907688">
        <ele>649.4</ele>
        <time>2026-08-30T12:58:55Z</time>
      </trkpt>
      <trkpt lat="48.768729" lon="9.907682">
        <ele>649.4</ele>
        <time>2026-08-30T12:58:56Z</time>
      </trkpt>
      <trkpt lat="48.768734" lon="9.907673">
        <ele>649.4</ele>
        <time>2026-08-30T12:58:57Z</time>
      </trkpt>
      <trkpt lat="48.768739" lon="9.907674">
        <ele>649.4</ele>
        <time>2026-08-30T12:58:58Z</time>
      </trkpt>
      <trkpt lat="48.768736" lon="9.907680">
        <ele>649.2</ele>
        <time>2026-08-30T12:58:59Z</time>
      </trkpt>
      <trkpt lat="48.768736" lon="9.907680">
        <ele>649.2</ele>
        <time>2026-08-30T12:59:00Z</time>
      </trkpt>
      <trkpt lat="48.768736" lon="9.907680">
        <ele>649.2</ele>
        <time>2026-08-30T12:59:01Z</time>
      </trkpt>
      <trkpt lat="48.768736" lon="9.907680">
        <ele>649.2</ele>
        <time>2026-08-30T12:59:02Z</time>
      </trkpt>
      <trkpt lat="48.768736" lon="9.907680">
        <ele>649</ele>
        <time>2026-08-30T12:59:03Z</time>
      </trkpt>
      <trkpt lat="48.768737" lon="9.907681">
        <ele>649</ele>
        <time>2026-08-30T12:59:04Z</time>
      </trkpt>
      <trkpt lat="48.768746" lon="9.907698">
        <ele>649</ele>
        <time>2026-08-30T12:59:05Z</time>
      </trkpt>
      <trkpt lat="48.768754" lon="9.907722">
        <ele>648.8</ele>
        <time>2026-08-30T12:59:06Z</time>
      </trkpt>
      <trkpt lat="48.768761" lon="9.907765">
        <ele>648.6</ele>
        <time>2026-08-30T12:59:07Z</time>
      </trkpt>
      <trkpt lat="48.768767" lon="9.907803">
        <ele>648.4</ele>
        <time>2026-08-30T12:59:08Z</time>
      </trkpt>
      <trkpt lat="48.768774" lon="9.907834">
        <ele>648.2</ele>
        <time>2026-08-30T12:59:09Z</time>
      </trkpt>
      <trkpt lat="48.768792" lon="9.907863">
        <ele>647.8</ele>
        <time>2026-08-30T12:59:10Z</time>
      </trkpt>
      <trkpt lat="48.768808" lon="9.907876">
        <ele>647.6</ele>
        <time>2026-08-30T12:59:11Z</time>
      </trkpt>
      <trkpt lat="48.768826" lon="9.907863">
        <ele>647.4</ele>
        <time>2026-08-30T12:59:12Z</time>
      </trkpt>
      <trkpt lat="48.768847" lon="9.907839">
        <ele>647.2</ele>
        <time>2026-08-30T12:59:13Z</time>
      </trkpt>
      <trkpt lat="48.768864" lon="9.907811">
        <ele>646.8</ele>
        <time>2026-08-30T12:59:14Z</time>
      </trkpt>
      <trkpt lat="48.768879" lon="9.907788">
        <ele>646.4</ele>
        <time>2026-08-30T12:59:15Z</time>
      </trkpt>
      <trkpt lat="48.768898" lon="9.907759">
        <ele>646</ele>
        <time>2026-08-30T12:59:16Z</time>
      </trkpt>
      <trkpt lat="48.768914" lon="9.907727">
        <ele>645.8</ele>
        <time>2026-08-30T12:59:17Z</time>
      </trkpt>
      <trkpt lat="48.768933" lon="9.907697">
        <ele>645.4</ele>
        <time>2026-08-30T12:59:18Z</time>
      </trkpt>
      <trkpt lat="48.768949" lon="9.907678">
        <ele>645.2</ele>
        <time>2026-08-30T12:59:19Z</time>
      </trkpt>
      <trkpt lat="48.768970" lon="9.907651">
        <ele>645</ele>
        <time>2026-08-30T12:59:20Z</time>
      </trkpt>
      <trkpt lat="48.768994" lon="9.907637">
        <ele>644.6</ele>
        <time>2026-08-30T12:59:21Z</time>
      </trkpt>
      <trkpt lat="48.769007" lon="9.907615">
        <ele>644.4</ele>
        <time>2026-08-30T12:59:22Z</time>
      </trkpt>
      <trkpt lat="48.769021" lon="9.907596">
        <ele>644</ele>
        <time>2026-08-30T12:59:23Z</time>
      </trkpt>
      <trkpt lat="48.769030" lon="9.907584">
        <ele>643.6</ele>
        <time>2026-08-30T12:59:24Z</time>
      </trkpt>
      <trkpt lat="48.769038" lon="9.907579">
        <ele>643.2</ele>
        <time>2026-08-30T12:59:25Z</time>
      </trkpt>
      <trkpt lat="48.769034" lon="9.907585">
        <ele>643</ele>
        <time>2026-08-30T12:59:26Z</time>
      </trkpt>
      <trkpt lat="48.769033" lon="9.907587">
        <ele>642.6</ele>
        <time>2026-08-30T12:59:27Z</time>
      </trkpt>
      <trkpt lat="48.769033" lon="9.907587">
        <ele>642.4</ele>
        <time>2026-08-30T12:59:28Z</time>
      </trkpt>
      <trkpt lat="48.769033" lon="9.907587">
        <ele>642.2</ele>
        <time>2026-08-30T12:59:29Z</time>
      </trkpt>
      <trkpt lat="48.769033" lon="9.907587">
        <ele>642</ele>
        <time>2026-08-30T12:59:30Z</time>
      </trkpt>
      <trkpt lat="48.769033" lon="9.907587">
        <ele>641.8</ele>
        <time>2026-08-30T12:59:31Z</time>
      </trkpt>
      <trkpt lat="48.769033" lon="9.907587">
        <ele>641.8</ele>
        <time>2026-08-30T12:59:32Z</time>
      </trkpt>
      <trkpt lat="48.769033" lon="9.907587">
        <ele>641.6</ele>
        <time>2026-08-30T12:59:33Z</time>
      </trkpt>
      <trkpt lat="48.769033" lon="9.907587">
        <ele>641.6</ele>
        <time>2026-08-30T12:59:34Z</time>
      </trkpt>
      <trkpt lat="48.769033" lon="9.907587">
        <ele>641.4</ele>
        <time>2026-08-30T12:59:35Z</time>
      </trkpt>
      <trkpt lat="48.769033" lon="9.907587">
        <ele>641.4</ele>
        <time>2026-08-30T12:59:36Z</time>
      </trkpt>
      <trkpt lat="48.769033" lon="9.907587">
        <ele>641.4</ele>
        <time>2026-08-30T12:59:37Z</time>
      </trkpt>
      <trkpt lat="48.769033" lon="9.907587">
        <ele>641.2</ele>
        <time>2026-08-30T12:59:38Z</time>
      </trkpt>
      <trkpt lat="48.769033" lon="9.907587">
        <ele>641.2</ele>
        <time>2026-08-30T12:59:39Z</time>
      </trkpt>
      <trkpt lat="48.769033" lon="9.907587">
        <ele>641.2</ele>
        <time>2026-08-30T12:59:40Z</time>
      </trkpt>
      <trkpt lat="48.769033" lon="9.907587">
        <ele>641.2</ele>
        <time>2026-08-30T12:59:41Z</time>
      </trkpt>
      <trkpt lat="48.769033" lon="9.907587">
        <ele>641.2</ele>
        <time>2026-08-30T12:59:42Z</time>
      </trkpt>
      <trkpt lat="48.769033" lon="9.907587">
        <ele>641.2</ele>
        <time>2026-08-30T12:59:43Z</time>
      </trkpt>
      <trkpt lat="48.769033" lon="9.907587">
        <ele>641.2</ele>
        <time>2026-08-30T12:59:44Z</time>
      </trkpt>
      <trkpt lat="48.769039" lon="9.907587">
        <ele>641.2</ele>
        <time>2026-08-30T12:59:45Z</time>
      </trkpt>
      <trkpt lat="48.769048" lon="9.907588">
        <ele>641.2</ele>
        <time>2026-08-30T12:59:46Z</time>
      </trkpt>
      <trkpt lat="48.769049" lon="9.907588">
        <ele>641.2</ele>
        <time>2026-08-30T12:59:47Z</time>
      </trkpt>
      <trkpt lat="48.769049" lon="9.907588">
        <ele>641.2</ele>
        <time>2026-08-30T12:59:48Z</time>
      </trkpt>
      <trkpt lat="48.769049" lon="9.907588">
        <ele>641.2</ele>
        <time>2026-08-30T12:59:49Z</time>
      </trkpt>
      <trkpt lat="48.769049" lon="9.907588">
        <ele>641.4</ele>
        <time>2026-08-30T12:59:50Z</time>
      </trkpt>
      <trkpt lat="48.769067" lon="9.907583">
        <ele>641.4</ele>
        <time>2026-08-30T12:59:51Z</time>
      </trkpt>
      <trkpt lat="48.769084" lon="9.907570">
        <ele>641.4</ele>
        <time>2026-08-30T12:59:52Z</time>
      </trkpt>
      <trkpt lat="48.769098" lon="9.907547">
        <ele>641.4</ele>
        <time>2026-08-30T12:59:53Z</time>
      </trkpt>
      <trkpt lat="48.769114" lon="9.907518">
        <ele>641.2</ele>
        <time>2026-08-30T12:59:54Z</time>
      </trkpt>
      <trkpt lat="48.769124" lon="9.907484">
        <ele>641</ele>
        <time>2026-08-30T12:59:55Z</time>
      </trkpt>
      <trkpt lat="48.769133" lon="9.907458">
        <ele>641</ele>
        <time>2026-08-30T12:59:56Z</time>
      </trkpt>
      <trkpt lat="48.769142" lon="9.907433">
        <ele>640.8</ele>
        <time>2026-08-30T12:59:57Z</time>
      </trkpt>
      <trkpt lat="48.769158" lon="9.907418">
        <ele>640.6</ele>
        <time>2026-08-30T12:59:58Z</time>
      </trkpt>
      <trkpt lat="48.769186" lon="9.907409">
        <ele>640.4</ele>
        <time>2026-08-30T12:59:59Z</time>
      </trkpt>
      <trkpt lat="48.769206" lon="9.907398">
        <ele>640</ele>
        <time>2026-08-30T13:00:00Z</time>
      </trkpt>
      <trkpt lat="48.769219" lon="9.907395">
        <ele>639.8</ele>
        <time>2026-08-30T13:00:01Z</time>
      </trkpt>
      <trkpt lat="48.769232" lon="9.907380">
        <ele>639.6</ele>
        <time>2026-08-30T13:00:02Z</time>
      </trkpt>
      <trkpt lat="48.769233" lon="9.907365">
        <ele>639.2</ele>
        <time>2026-08-30T13:00:03Z</time>
      </trkpt>
      <trkpt lat="48.769226" lon="9.907355">
        <ele>639</ele>
        <time>2026-08-30T13:00:04Z</time>
      </trkpt>
      <trkpt lat="48.769215" lon="9.907337">
        <ele>638.8</ele>
        <time>2026-08-30T13:00:05Z</time>
      </trkpt>
      <trkpt lat="48.769211" lon="9.907306">
        <ele>638.2</ele>
        <time>2026-08-30T13:00:06Z</time>
      </trkpt>
      <trkpt lat="48.769223" lon="9.907271">
        <ele>637.8</ele>
        <time>2026-08-30T13:00:07Z</time>
      </trkpt>
      <trkpt lat="48.769243" lon="9.907239">
        <ele>637.2</ele>
        <time>2026-08-30T13:00:08Z</time>
      </trkpt>
      <trkpt lat="48.769271" lon="9.907213">
        <ele>636.8</ele>
        <time>2026-08-30T13:00:09Z</time>
      </trkpt>
      <trkpt lat="48.769305" lon="9.907187">
        <ele>636.2</ele>
        <time>2026-08-30T13:00:10Z</time>
      </trkpt>
      <trkpt lat="48.769328" lon="9.907162">
        <ele>635.6</ele>
        <time>2026-08-30T13:00:11Z</time>
      </trkpt>
      <trkpt lat="48.769345" lon="9.907140">
        <ele>635.2</ele>
        <time>2026-08-30T13:00:12Z</time>
      </trkpt>
      <trkpt lat="48.769358" lon="9.907114">
        <ele>634.8</ele>
        <time>2026-08-30T13:00:13Z</time>
      </trkpt>
      <trkpt lat="48.769360" lon="9.907092">
        <ele>634.4</ele>
        <time>2026-08-30T13:00:14Z</time>
      </trkpt>
      <trkpt lat="48.769350" lon="9.907068">
        <ele>634</ele>
        <time>2026-08-30T13:00:15Z</time>
      </trkpt>
      <trkpt lat="48.769342" lon="9.907038">
        <ele>633.4</ele>
        <time>2026-08-30T13:00:16Z</time>
      </trkpt>
      <trkpt lat="48.769353" lon="9.907007">
        <ele>633</ele>
        <time>2026-08-30T13:00:17Z</time>
      </trkpt>
      <trkpt lat="48.769372" lon="9.906978">
        <ele>632.4</ele>
        <time>2026-08-30T13:00:18Z</time>
      </trkpt>
      <trkpt lat="48.769395" lon="9.906953">
        <ele>631.8</ele>
        <time>2026-08-30T13:00:19Z</time>
      </trkpt>
      <trkpt lat="48.769422" lon="9.906931">
        <ele>631.4</ele>
        <time>2026-08-30T13:00:20Z</time>
      </trkpt>
      <trkpt lat="48.769437" lon="9.906902">
        <ele>630.8</ele>
        <time>2026-08-30T13:00:21Z</time>
      </trkpt>
      <trkpt lat="48.769450" lon="9.906865">
        <ele>630.2</ele>
        <time>2026-08-30T13:00:22Z</time>
      </trkpt>
      <trkpt lat="48.769469" lon="9.906830">
        <ele>629.8</ele>
        <time>2026-08-30T13:00:23Z</time>
      </trkpt>
      <trkpt lat="48.769481" lon="9.906796">
        <ele>629.4</ele>
        <time>2026-08-30T13:00:24Z</time>
      </trkpt>
      <trkpt lat="48.769477" lon="9.906766">
        <ele>629.2</ele>
        <time>2026-08-30T13:00:25Z</time>
      </trkpt>
      <trkpt lat="48.769474" lon="9.906733">
        <ele>628.6</ele>
        <time>2026-08-30T13:00:26Z</time>
      </trkpt>
      <trkpt lat="48.769477" lon="9.906695">
        <ele>628.4</ele>
        <time>2026-08-30T13:00:27Z</time>
      </trkpt>
      <trkpt lat="48.769485" lon="9.906645">
        <ele>628</ele>
        <time>2026-08-30T13:00:28Z</time>
      </trkpt>
      <trkpt lat="48.769492" lon="9.906611">
        <ele>627.6</ele>
        <time>2026-08-30T13:00:29Z</time>
      </trkpt>
      <trkpt lat="48.769500" lon="9.906595">
        <ele>627.2</ele>
        <time>2026-08-30T13:00:30Z</time>
      </trkpt>
      <trkpt lat="48.769509" lon="9.906599">
        <ele>627</ele>
        <time>2026-08-30T13:00:31Z</time>
      </trkpt>
      <trkpt lat="48.769522" lon="9.906594">
        <ele>626.8</ele>
        <time>2026-08-30T13:00:32Z</time>
      </trkpt>
      <trkpt lat="48.769531" lon="9.906575">
        <ele>626.6</ele>
        <time>2026-08-30T13:00:33Z</time>
      </trkpt>
      <trkpt lat="48.769527" lon="9.906555">
        <ele>626.4</ele>
        <time>2026-08-30T13:00:34Z</time>
      </trkpt>
      <trkpt lat="48.769513" lon="9.906540">
        <ele>626.2</ele>
        <time>2026-08-30T13:00:35Z</time>
      </trkpt>
      <trkpt lat="48.769499" lon="9.906541">
        <ele>626.2</ele>
        <time>2026-08-30T13:00:36Z</time>
      </trkpt>
      <trkpt lat="48.769482" lon="9.906560">
        <ele>626</ele>
        <time>2026-08-30T13:00:37Z</time>
      </trkpt>
      <trkpt lat="48.769472" lon="9.906576">
        <ele>626</ele>
        <time>2026-08-30T13:00:38Z</time>
      </trkpt>
      <trkpt lat="48.769462" lon="9.906597">
        <ele>625.8</ele>
        <time>2026-08-30T13:00:39Z</time>
      </trkpt>
      <trkpt lat="48.769456" lon="9.906618">
        <ele>625.8</ele>
        <time>2026-08-30T13:00:40Z</time>
      </trkpt>
      <trkpt lat="48.769443" lon="9.906636">
        <ele>625.8</ele>
        <time>2026-08-30T13:00:41Z</time>
      </trkpt>
      <trkpt lat="48.769428" lon="9.906656">
        <ele>625.8</ele>
        <time>2026-08-30T13:00:42Z</time>
      </trkpt>
      <trkpt lat="48.769413" lon="9.906677">
        <ele>625.8</ele>
        <time>2026-08-30T13:00:43Z</time>
      </trkpt>
      <trkpt lat="48.769398" lon="9.906695">
        <ele>625.8</ele>
        <time>2026-08-30T13:00:44Z</time>
      </trkpt>
      <trkpt lat="48.769380" lon="9.906704">
        <ele>625.8</ele>
        <time>2026-08-30T13:00:45Z</time>
      </trkpt>
      <trkpt lat="48.769366" lon="9.906713">
        <ele>625.8</ele>
        <time>2026-08-30T13:00:46Z</time>
      </trkpt>
      <trkpt lat="48.769355" lon="9.906728">
        <ele>626</ele>
        <time>2026-08-30T13:00:47Z</time>
      </trkpt>
      <trkpt lat="48.769342" lon="9.906740">
        <ele>626</ele>
        <time>2026-08-30T13:00:48Z</time>
      </trkpt>
      <trkpt lat="48.769331" lon="9.906742">
        <ele>626</ele>
        <time>2026-08-30T13:00:49Z</time>
      </trkpt>
      <trkpt lat="48.769320" lon="9.906748">
        <ele>626</ele>
        <time>2026-08-30T13:00:50Z</time>
      </trkpt>
      <trkpt lat="48.769300" lon="9.906769">
        <ele>626</ele>
        <time>2026-08-30T13:00:51Z</time>
      </trkpt>
      <trkpt lat="48.769284" lon="9.906786">
        <ele>626</ele>
        <time>2026-08-30T13:00:52Z</time>
      </trkpt>
      <trkpt lat="48.769270" lon="9.906796">
        <ele>626</ele>
        <time>2026-08-30T13:00:53Z</time>
      </trkpt>
      <trkpt lat="48.769256" lon="9.906811">
        <ele>626</ele>
        <time>2026-08-30T13:00:54Z</time>
      </trkpt>
      <trkpt lat="48.769243" lon="9.906819">
        <ele>626</ele>
        <time>2026-08-30T13:00:55Z</time>
      </trkpt>
      <trkpt lat="48.769223" lon="9.906820">
        <ele>626</ele>
        <time>2026-08-30T13:00:56Z</time>
      </trkpt>
      <trkpt lat="48.769196" lon="9.906831">
        <ele>626</ele>
        <time>2026-08-30T13:00:57Z</time>
      </trkpt>
      <trkpt lat="48.769168" lon="9.906839">
        <ele>626</ele>
        <time>2026-08-30T13:00:58Z</time>
      </trkpt>
      <trkpt lat="48.769143" lon="9.906850">
        <ele>626</ele>
        <time>2026-08-30T13:00:59Z</time>
      </trkpt>
      <trkpt lat="48.769116" lon="9.906860">
        <ele>626</ele>
        <time>2026-08-30T13:01:00Z</time>
      </trkpt>
      <trkpt lat="48.769089" lon="9.906866">
        <ele>626</ele>
        <time>2026-08-30T13:01:01Z</time>
      </trkpt>
      <trkpt lat="48.769063" lon="9.906872">
        <ele>626</ele>
        <time>2026-08-30T13:01:02Z</time>
      </trkpt>
      <trkpt lat="48.769029" lon="9.906882">
        <ele>626</ele>
        <time>2026-08-30T13:01:03Z</time>
      </trkpt>
      <trkpt lat="48.768997" lon="9.906890">
        <ele>626</ele>
        <time>2026-08-30T13:01:04Z</time>
      </trkpt>
      <trkpt lat="48.768965" lon="9.906894">
        <ele>626</ele>
        <time>2026-08-30T13:01:05Z</time>
      </trkpt>
      <trkpt lat="48.768931" lon="9.906899">
        <ele>626</ele>
        <time>2026-08-30T13:01:06Z</time>
      </trkpt>
      <trkpt lat="48.768901" lon="9.906903">
        <ele>626</ele>
        <time>2026-08-30T13:01:07Z</time>
      </trkpt>
      <trkpt lat="48.768871" lon="9.906903">
        <ele>626</ele>
        <time>2026-08-30T13:01:08Z</time>
      </trkpt>
      <trkpt lat="48.768844" lon="9.906908">
        <ele>626</ele>
        <time>2026-08-30T13:01:09Z</time>
      </trkpt>
      <trkpt lat="48.768816" lon="9.906907">
        <ele>626.2</ele>
        <time>2026-08-30T13:01:10Z</time>
      </trkpt>
      <trkpt lat="48.768792" lon="9.906904">
        <ele>626.2</ele>
        <time>2026-08-30T13:01:11Z</time>
      </trkpt>
      <trkpt lat="48.768772" lon="9.906898">
        <ele>626.4</ele>
        <time>2026-08-30T13:01:12Z</time>
      </trkpt>
      <trkpt lat="48.768754" lon="9.906895">
        <ele>626.4</ele>
        <time>2026-08-30T13:01:13Z</time>
      </trkpt>
      <trkpt lat="48.768740" lon="9.906895">
        <ele>626.6</ele>
        <time>2026-08-30T13:01:14Z</time>
      </trkpt>
      <trkpt lat="48.768728" lon="9.906906">
        <ele>626.6</ele>
        <time>2026-08-30T13:01:15Z</time>
      </trkpt>
      <trkpt lat="48.768724" lon="9.906918">
        <ele>626.8</ele>
        <time>2026-08-30T13:01:16Z</time>
      </trkpt>
      <trkpt lat="48.768728" lon="9.906929">
        <ele>626.8</ele>
        <time>2026-08-30T13:01:17Z</time>
      </trkpt>
      <trkpt lat="48.768733" lon="9.906932">
        <ele>626.8</ele>
        <time>2026-08-30T13:01:18Z</time>
      </trkpt>
      <trkpt lat="48.768740" lon="9.906916">
        <ele>626.8</ele>
        <time>2026-08-30T13:01:19Z</time>
      </trkpt>
      <trkpt lat="48.768746" lon="9.906908">
        <ele>626.8</ele>
        <time>2026-08-30T13:01:20Z</time>
      </trkpt>
      <trkpt lat="48.768758" lon="9.906901">
        <ele>626.8</ele>
        <time>2026-08-30T13:01:21Z</time>
      </trkpt>
      <trkpt lat="48.768770" lon="9.906894">
        <ele>626.8</ele>
        <time>2026-08-30T13:01:22Z</time>
      </trkpt>
      <trkpt lat="48.768787" lon="9.906885">
        <ele>626.8</ele>
        <time>2026-08-30T13:01:23Z</time>
      </trkpt>
      <trkpt lat="48.768807" lon="9.906880">
        <ele>626.8</ele>
        <time>2026-08-30T13:01:24Z</time>
      </trkpt>
      <trkpt lat="48.768827" lon="9.906882">
        <ele>626.8</ele>
        <time>2026-08-30T13:01:25Z</time>
      </trkpt>
      <trkpt lat="48.768847" lon="9.906883">
        <ele>626.8</ele>
        <time>2026-08-30T13:01:26Z</time>
      </trkpt>
      <trkpt lat="48.768868" lon="9.906892">
        <ele>626.6</ele>
        <time>2026-08-30T13:01:27Z</time>
      </trkpt>
      <trkpt lat="48.768897" lon="9.906899">
        <ele>626.6</ele>
        <time>2026-08-30T13:01:28Z</time>
      </trkpt>
      <trkpt lat="48.768936" lon="9.906891">
        <ele>626.6</ele>
        <time>2026-08-30T13:01:29Z</time>
      </trkpt>
      <trkpt lat="48.768974" lon="9.906890">
        <ele>626.6</ele>
        <time>2026-08-30T13:01:30Z</time>
      </trkpt>
      <trkpt lat="48.769015" lon="9.906881">
        <ele>626.6</ele>
        <time>2026-08-30T13:01:31Z</time>
      </trkpt>
      <trkpt lat="48.769052" lon="9.906864">
        <ele>626.6</ele>
        <time>2026-08-30T13:01:32Z</time>
      </trkpt>
      <trkpt lat="48.769087" lon="9.906854">
        <ele>626.6</ele>
        <time>2026-08-30T13:01:33Z</time>
      </trkpt>
      <trkpt lat="48.769124" lon="9.906841">
        <ele>626.6</ele>
        <time>2026-08-30T13:01:34Z</time>
      </trkpt>
      <trkpt lat="48.769162" lon="9.906830">
        <ele>626.4</ele>
        <time>2026-08-30T13:01:35Z</time>
      </trkpt>
      <trkpt lat="48.769197" lon="9.906821">
        <ele>626.4</ele>
        <time>2026-08-30T13:01:36Z</time>
      </trkpt>
      <trkpt lat="48.769231" lon="9.906803">
        <ele>626.4</ele>
        <time>2026-08-30T13:01:37Z</time>
      </trkpt>
      <trkpt lat="48.769258" lon="9.906782">
        <ele>626.4</ele>
        <time>2026-08-30T13:01:38Z</time>
      </trkpt>
      <trkpt lat="48.769288" lon="9.906764">
        <ele>626.4</ele>
        <time>2026-08-30T13:01:39Z</time>
      </trkpt>
      <trkpt lat="48.769317" lon="9.906746">
        <ele>626.4</ele>
        <time>2026-08-30T13:01:40Z</time>
      </trkpt>
      <trkpt lat="48.769343" lon="9.906726">
        <ele>626.4</ele>
        <time>2026-08-30T13:01:41Z</time>
      </trkpt>
      <trkpt lat="48.769369" lon="9.906706">
        <ele>626.6</ele>
        <time>2026-08-30T13:01:42Z</time>
      </trkpt>
      <trkpt lat="48.769397" lon="9.906685">
        <ele>626.6</ele>
        <time>2026-08-30T13:01:43Z</time>
      </trkpt>
      <trkpt lat="48.769420" lon="9.906658">
        <ele>626.6</ele>
        <time>2026-08-30T13:01:44Z</time>
      </trkpt>
      <trkpt lat="48.769442" lon="9.906624">
        <ele>626.6</ele>
        <time>2026-08-30T13:01:45Z</time>
      </trkpt>
      <trkpt lat="48.769467" lon="9.906594">
        <ele>626.6</ele>
        <time>2026-08-30T13:01:46Z</time>
      </trkpt>
      <trkpt lat="48.769497" lon="9.906568">
        <ele>626.6</ele>
        <time>2026-08-30T13:01:47Z</time>
      </trkpt>
      <trkpt lat="48.769530" lon="9.906551">
        <ele>626.6</ele>
        <time>2026-08-30T13:01:48Z</time>
      </trkpt>
      <trkpt lat="48.769558" lon="9.906529">
        <ele>626.6</ele>
        <time>2026-08-30T13:01:49Z</time>
      </trkpt>
      <trkpt lat="48.769581" lon="9.906498">
        <ele>626.4</ele>
        <time>2026-08-30T13:01:50Z</time>
      </trkpt>
      <trkpt lat="48.769598" lon="9.906461">
        <ele>626.4</ele>
        <time>2026-08-30T13:01:51Z</time>
      </trkpt>
      <trkpt lat="48.769616" lon="9.906422">
        <ele>626.2</ele>
        <time>2026-08-30T13:01:52Z</time>
      </trkpt>
      <trkpt lat="48.769629" lon="9.906385">
        <ele>626</ele>
        <time>2026-08-30T13:01:53Z</time>
      </trkpt>
      <trkpt lat="48.769638" lon="9.906350">
        <ele>625.8</ele>
        <time>2026-08-30T13:01:54Z</time>
      </trkpt>
      <trkpt lat="48.769645" lon="9.906315">
        <ele>625.4</ele>
        <time>2026-08-30T13:01:55Z</time>
      </trkpt>
      <trkpt lat="48.769644" lon="9.906289">
        <ele>625.2</ele>
        <time>2026-08-30T13:01:56Z</time>
      </trkpt>
      <trkpt lat="48.769633" lon="9.906268">
        <ele>624.8</ele>
        <time>2026-08-30T13:01:57Z</time>
      </trkpt>
      <trkpt lat="48.769623" lon="9.906255">
        <ele>624.6</ele>
        <time>2026-08-30T13:01:58Z</time>
      </trkpt>
      <trkpt lat="48.769615" lon="9.906249">
        <ele>624.2</ele>
        <time>2026-08-30T13:01:59Z</time>
      </trkpt>
      <trkpt lat="48.769610" lon="9.906248">
        <ele>624</ele>
        <time>2026-08-30T13:02:00Z</time>
      </trkpt>
      <trkpt lat="48.769610" lon="9.906248">
        <ele>623.8</ele>
        <time>2026-08-30T13:02:01Z</time>
      </trkpt>
      <trkpt lat="48.769609" lon="9.906248">
        <ele>623.6</ele>
        <time>2026-08-30T13:02:02Z</time>
      </trkpt>
      <trkpt lat="48.769610" lon="9.906248">
        <ele>623.4</ele>
        <time>2026-08-30T13:02:03Z</time>
      </trkpt>
      <trkpt lat="48.769610" lon="9.906248">
        <ele>623.2</ele>
        <time>2026-08-30T13:02:04Z</time>
      </trkpt>
      <trkpt lat="48.769610" lon="9.906248">
        <ele>623</ele>
        <time>2026-08-30T13:02:05Z</time>
      </trkpt>
      <trkpt lat="48.769610" lon="9.906248">
        <ele>623</ele>
        <time>2026-08-30T13:02:06Z</time>
      </trkpt>
      <trkpt lat="48.769609" lon="9.906252">
        <ele>622.8</ele>
        <time>2026-08-30T13:02:07Z</time>
      </trkpt>
      <trkpt lat="48.769610" lon="9.906248">
        <ele>622.8</ele>
        <time>2026-08-30T13:02:08Z</time>
      </trkpt>
      <trkpt lat="48.769610" lon="9.906248">
        <ele>622.6</ele>
        <time>2026-08-30T13:02:09Z</time>
      </trkpt>
      <trkpt lat="48.769610" lon="9.906248">
        <ele>622.6</ele>
        <time>2026-08-30T13:02:10Z</time>
      </trkpt>
      <trkpt lat="48.769610" lon="9.906248">
        <ele>622.4</ele>
        <time>2026-08-30T13:02:11Z</time>
      </trkpt>
      <trkpt lat="48.769610" lon="9.906248">
        <ele>622.4</ele>
        <time>2026-08-30T13:02:12Z</time>
      </trkpt>
      <trkpt lat="48.769610" lon="9.906248">
        <ele>622.2</ele>
        <time>2026-08-30T13:02:13Z</time>
      </trkpt>
      <trkpt lat="48.769610" lon="9.906248">
        <ele>622.2</ele>
        <time>2026-08-30T13:02:14Z</time>
      </trkpt>
      <trkpt lat="48.769600" lon="9.906247">
        <ele>622.2</ele>
        <time>2026-08-30T13:02:15Z</time>
      </trkpt>
      <trkpt lat="48.769581" lon="9.906239">
        <ele>622</ele>
        <time>2026-08-30T13:02:16Z</time>
      </trkpt>
      <trkpt lat="48.769574" lon="9.906231">
        <ele>621.8</ele>
        <time>2026-08-30T13:02:17Z</time>
      </trkpt>
      <trkpt lat="48.769568" lon="9.906232">
        <ele>621.8</ele>
        <time>2026-08-30T13:02:18Z</time>
      </trkpt>
      <trkpt lat="48.769563" lon="9.906234">
        <ele>621.6</ele>
        <time>2026-08-30T13:02:19Z</time>
      </trkpt>
      <trkpt lat="48.769558" lon="9.906230">
        <ele>621.4</ele>
        <time>2026-08-30T13:02:20Z</time>
      </trkpt>
      <trkpt lat="48.769558" lon="9.906225">
        <ele>621.2</ele>
        <time>2026-08-30T13:02:21Z</time>
      </trkpt>
      <trkpt lat="48.769557" lon="9.906222">
        <ele>621</ele>
        <time>2026-08-30T13:02:22Z</time>
      </trkpt>
      <trkpt lat="48.769555" lon="9.906215">
        <ele>620.8</ele>
        <time>2026-08-30T13:02:23Z</time>
      </trkpt>
      <trkpt lat="48.769555" lon="9.906215">
        <ele>620.6</ele>
        <time>2026-08-30T13:02:24Z</time>
      </trkpt>
      <trkpt lat="48.769555" lon="9.906215">
        <ele>620.4</ele>
        <time>2026-08-30T13:02:25Z</time>
      </trkpt>
      <trkpt lat="48.769555" lon="9.906215">
        <ele>620.2</ele>
        <time>2026-08-30T13:02:26Z</time>
      </trkpt>
      <trkpt lat="48.769554" lon="9.906214">
        <ele>620.2</ele>
        <time>2026-08-30T13:02:27Z</time>
      </trkpt>
      <trkpt lat="48.769541" lon="9.906182">
        <ele>620</ele>
        <time>2026-08-30T13:02:28Z</time>
      </trkpt>
      <trkpt lat="48.769544" lon="9.906155">
        <ele>619.8</ele>
        <time>2026-08-30T13:02:29Z</time>
      </trkpt>
      <trkpt lat="48.769552" lon="9.906118">
        <ele>619.6</ele>
        <time>2026-08-30T13:02:30Z</time>
      </trkpt>
      <trkpt lat="48.769566" lon="9.906083">
        <ele>619.2</ele>
        <time>2026-08-30T13:02:31Z</time>
      </trkpt>
      <trkpt lat="48.769577" lon="9.906042">
        <ele>618.6</ele>
        <time>2026-08-30T13:02:32Z</time>
      </trkpt>
      <trkpt lat="48.769587" lon="9.906006">
        <ele>618</ele>
        <time>2026-08-30T13:02:33Z</time>
      </trkpt>
      <trkpt lat="48.769597" lon="9.905978">
        <ele>617.6</ele>
        <time>2026-08-30T13:02:34Z</time>
      </trkpt>
      <trkpt lat="48.769606" lon="9.905949">
        <ele>617</ele>
        <time>2026-08-30T13:02:35Z</time>
      </trkpt>
      <trkpt lat="48.769617" lon="9.905918">
        <ele>616.6</ele>
        <time>2026-08-30T13:02:36Z</time>
      </trkpt>
      <trkpt lat="48.769630" lon="9.905882">
        <ele>616.2</ele>
        <time>2026-08-30T13:02:37Z</time>
      </trkpt>
      <trkpt lat="48.769644" lon="9.905845">
        <ele>615.8</ele>
        <time>2026-08-30T13:02:38Z</time>
      </trkpt>
      <trkpt lat="48.769664" lon="9.905824">
        <ele>615.2</ele>
        <time>2026-08-30T13:02:39Z</time>
      </trkpt>
      <trkpt lat="48.769683" lon="9.905794">
        <ele>614.8</ele>
        <time>2026-08-30T13:02:40Z</time>
      </trkpt>
      <trkpt lat="48.769684" lon="9.905747">
        <ele>614.2</ele>
        <time>2026-08-30T13:02:41Z</time>
      </trkpt>
      <trkpt lat="48.769691" lon="9.905689">
        <ele>613.6</ele>
        <time>2026-08-30T13:02:42Z</time>
      </trkpt>
      <trkpt lat="48.769718" lon="9.905641">
        <ele>613</ele>
        <time>2026-08-30T13:02:43Z</time>
      </trkpt>
      <trkpt lat="48.769763" lon="9.905616">
        <ele>612.2</ele>
        <time>2026-08-30T13:02:44Z</time>
      </trkpt>
      <trkpt lat="48.769798" lon="9.905594">
        <ele>611.8</ele>
        <time>2026-08-30T13:02:45Z</time>
      </trkpt>
      <trkpt lat="48.769826" lon="9.905582">
        <ele>611.2</ele>
        <time>2026-08-30T13:02:46Z</time>
      </trkpt>
      <trkpt lat="48.769848" lon="9.905560">
        <ele>610.8</ele>
        <time>2026-08-30T13:02:47Z</time>
      </trkpt>
      <trkpt lat="48.769872" lon="9.905534">
        <ele>610.6</ele>
        <time>2026-08-30T13:02:48Z</time>
      </trkpt>
      <trkpt lat="48.769892" lon="9.905500">
        <ele>610.4</ele>
        <time>2026-08-30T13:02:49Z</time>
      </trkpt>
      <trkpt lat="48.769920" lon="9.905464">
        <ele>610.2</ele>
        <time>2026-08-30T13:02:50Z</time>
      </trkpt>
      <trkpt lat="48.769950" lon="9.905455">
        <ele>610</ele>
        <time>2026-08-30T13:02:51Z</time>
      </trkpt>
      <trkpt lat="48.769971" lon="9.905443">
        <ele>609.6</ele>
        <time>2026-08-30T13:02:52Z</time>
      </trkpt>
      <trkpt lat="48.769985" lon="9.905433">
        <ele>609.4</ele>
        <time>2026-08-30T13:02:53Z</time>
      </trkpt>
      <trkpt lat="48.769989" lon="9.905427">
        <ele>609.2</ele>
        <time>2026-08-30T13:02:54Z</time>
      </trkpt>
      <trkpt lat="48.769997" lon="9.905416">
        <ele>609</ele>
        <time>2026-08-30T13:02:55Z</time>
      </trkpt>
      <trkpt lat="48.770004" lon="9.905413">
        <ele>609</ele>
        <time>2026-08-30T13:02:56Z</time>
      </trkpt>
      <trkpt lat="48.770012" lon="9.905412">
        <ele>609</ele>
        <time>2026-08-30T13:02:57Z</time>
      </trkpt>
      <trkpt lat="48.770015" lon="9.905408">
        <ele>609</ele>
        <time>2026-08-30T13:02:58Z</time>
      </trkpt>
      <trkpt lat="48.770022" lon="9.905395">
        <ele>609</ele>
        <time>2026-08-30T13:02:59Z</time>
      </trkpt>
      <trkpt lat="48.770033" lon="9.905385">
        <ele>609</ele>
        <time>2026-08-30T13:03:00Z</time>
      </trkpt>
      <trkpt lat="48.770038" lon="9.905381">
        <ele>609</ele>
        <time>2026-08-30T13:03:01Z</time>
      </trkpt>
      <trkpt lat="48.770038" lon="9.905381">
        <ele>609</ele>
        <time>2026-08-30T13:03:02Z</time>
      </trkpt>
      <trkpt lat="48.770038" lon="9.905381">
        <ele>609</ele>
        <time>2026-08-30T13:03:03Z</time>
      </trkpt>
      <trkpt lat="48.770038" lon="9.905381">
        <ele>609</ele>
        <time>2026-08-30T13:03:04Z</time>
      </trkpt>
      <trkpt lat="48.770038" lon="9.905381">
        <ele>609</ele>
        <time>2026-08-30T13:03:05Z</time>
      </trkpt>
      <trkpt lat="48.770038" lon="9.905381">
        <ele>609</ele>
        <time>2026-08-30T13:03:06Z</time>
      </trkpt>
      <trkpt lat="48.770038" lon="9.905381">
        <ele>609</ele>
        <time>2026-08-30T13:03:07Z</time>
      </trkpt>
      <trkpt lat="48.770038" lon="9.905381">
        <ele>609</ele>
        <time>2026-08-30T13:03:08Z</time>
      </trkpt>
      <trkpt lat="48.770038" lon="9.905381">
        <ele>609</ele>
        <time>2026-08-30T13:03:09Z</time>
      </trkpt>
      <trkpt lat="48.770038" lon="9.905381">
        <ele>609</ele>
        <time>2026-08-30T13:03:10Z</time>
      </trkpt>
      <trkpt lat="48.770038" lon="9.905381">
        <ele>609</ele>
        <time>2026-08-30T13:03:11Z</time>
      </trkpt>
      <trkpt lat="48.770038" lon="9.905381">
        <ele>609</ele>
        <time>2026-08-30T13:03:12Z</time>
      </trkpt>
      <trkpt lat="48.770038" lon="9.905381">
        <ele>609</ele>
        <time>2026-08-30T13:03:13Z</time>
      </trkpt>
      <trkpt lat="48.770038" lon="9.905381">
        <ele>609</ele>
        <time>2026-08-30T13:03:14Z</time>
      </trkpt>
      <trkpt lat="48.770038" lon="9.905381">
        <ele>609</ele>
        <time>2026-08-30T13:03:15Z</time>
      </trkpt>
      <trkpt lat="48.770038" lon="9.905381">
        <ele>609</ele>
        <time>2026-08-30T13:03:16Z</time>
      </trkpt>
      <trkpt lat="48.770038" lon="9.905381">
        <ele>609</ele>
        <time>2026-08-30T13:03:17Z</time>
      </trkpt>
      <trkpt lat="48.770038" lon="9.905381">
        <ele>609</ele>
        <time>2026-08-30T13:03:18Z</time>
      </trkpt>
      <trkpt lat="48.770038" lon="9.905381">
        <ele>608.8</ele>
        <time>2026-08-30T13:03:19Z</time>
      </trkpt>
      <trkpt lat="48.770038" lon="9.905381">
        <ele>608.8</ele>
        <time>2026-08-30T13:03:20Z</time>
      </trkpt>
      <trkpt lat="48.770038" lon="9.905381">
        <ele>608.8</ele>
        <time>2026-08-30T13:03:21Z</time>
      </trkpt>
      <trkpt lat="48.770038" lon="9.905381">
        <ele>608.8</ele>
        <time>2026-08-30T13:03:22Z</time>
      </trkpt>
      <trkpt lat="48.770038" lon="9.905381">
        <ele>608.8</ele>
        <time>2026-08-30T13:03:23Z</time>
      </trkpt>
      <trkpt lat="48.770038" lon="9.905381">
        <ele>608.8</ele>
        <time>2026-08-30T13:03:24Z</time>
      </trkpt>
      <trkpt lat="48.770038" lon="9.905381">
        <ele>608.8</ele>
        <time>2026-08-30T13:03:25Z</time>
      </trkpt>
      <trkpt lat="48.770038" lon="9.905381">
        <ele>608.8</ele>
        <time>2026-08-30T13:03:26Z</time>
      </trkpt>
      <trkpt lat="48.770038" lon="9.905381">
        <ele>608.8</ele>
        <time>2026-08-30T13:03:27Z</time>
      </trkpt>
      <trkpt lat="48.770038" lon="9.905381">
        <ele>608.8</ele>
        <time>2026-08-30T13:03:28Z</time>
      </trkpt>
      <trkpt lat="48.770038" lon="9.905381">
        <ele>608.8</ele>
        <time>2026-08-30T13:03:29Z</time>
      </trkpt>
      <trkpt lat="48.770038" lon="9.905381">
        <ele>608.8</ele>
        <time>2026-08-30T13:03:30Z</time>
      </trkpt>
      <trkpt lat="48.770038" lon="9.905381">
        <ele>608.6</ele>
        <time>2026-08-30T13:03:31Z</time>
      </trkpt>
      <trkpt lat="48.770038" lon="9.905381">
        <ele>608.6</ele>
        <time>2026-08-30T13:03:32Z</time>
      </trkpt>
      <trkpt lat="48.770038" lon="9.905381">
        <ele>608.6</ele>
        <time>2026-08-30T13:03:33Z</time>
      </trkpt>
      <trkpt lat="48.770038" lon="9.905381">
        <ele>608.6</ele>
        <time>2026-08-30T13:03:34Z</time>
      </trkpt>
      <trkpt lat="48.770038" lon="9.905381">
        <ele>608.6</ele>
        <time>2026-08-30T13:03:35Z</time>
      </trkpt>
      <trkpt lat="48.770038" lon="9.905381">
        <ele>608.6</ele>
        <time>2026-08-30T13:03:36Z</time>
      </trkpt>
      <trkpt lat="48.770038" lon="9.905381">
        <ele>608.4</ele>
        <time>2026-08-30T13:03:37Z</time>
      </trkpt>
      <trkpt lat="48.770038" lon="9.905381">
        <ele>608.4</ele>
        <time>2026-08-30T13:03:38Z</time>
      </trkpt>
      <trkpt lat="48.770038" lon="9.905381">
        <ele>608.4</ele>
        <time>2026-08-30T13:03:39Z</time>
      </trkpt>
      <trkpt lat="48.770038" lon="9.905381">
        <ele>608.2</ele>
        <time>2026-08-30T13:03:40Z</time>
      </trkpt>
      <trkpt lat="48.770038" lon="9.905381">
        <ele>608.2</ele>
        <time>2026-08-30T13:03:41Z</time>
      </trkpt>
      <trkpt lat="48.770038" lon="9.905381">
        <ele>608.2</ele>
        <time>2026-08-30T13:03:42Z</time>
      </trkpt>
      <trkpt lat="48.770038" lon="9.905381">
        <ele>608</ele>
        <time>2026-08-30T13:03:43Z</time>
      </trkpt>
      <trkpt lat="48.770038" lon="9.905381">
        <ele>608</ele>
        <time>2026-08-30T13:03:44Z</time>
      </trkpt>
      <trkpt lat="48.770038" lon="9.905381">
        <ele>608</ele>
        <time>2026-08-30T13:03:45Z</time>
      </trkpt>
      <trkpt lat="48.770038" lon="9.905381">
        <ele>607.8</ele>
        <time>2026-08-30T13:03:46Z</time>
      </trkpt>
      <trkpt lat="48.770038" lon="9.905381">
        <ele>607.8</ele>
        <time>2026-08-30T13:03:47Z</time>
      </trkpt>
      <trkpt lat="48.770038" lon="9.905381">
        <ele>607.6</ele>
        <time>2026-08-30T13:03:48Z</time>
      </trkpt>
      <trkpt lat="48.770038" lon="9.905381">
        <ele>607.6</ele>
        <time>2026-08-30T13:03:49Z</time>
      </trkpt>
      <trkpt lat="48.770038" lon="9.905381">
        <ele>607.4</ele>
        <time>2026-08-30T13:03:50Z</time>
      </trkpt>
      <trkpt lat="48.770038" lon="9.905381">
        <ele>607.4</ele>
        <time>2026-08-30T13:03:51Z</time>
      </trkpt>
      <trkpt lat="48.770038" lon="9.905381">
        <ele>607.2</ele>
        <time>2026-08-30T13:03:52Z</time>
      </trkpt>
      <trkpt lat="48.770042" lon="9.905364">
        <ele>607.2</ele>
        <time>2026-08-30T13:03:53Z</time>
      </trkpt>
      <trkpt lat="48.770042" lon="9.905308">
        <ele>607</ele>
        <time>2026-08-30T13:03:54Z</time>
      </trkpt>
      <trkpt lat="48.770044" lon="9.905289">
        <ele>606.8</ele>
        <time>2026-08-30T13:03:55Z</time>
      </trkpt>
      <trkpt lat="48.770045" lon="9.905291">
        <ele>606.6</ele>
        <time>2026-08-30T13:03:56Z</time>
      </trkpt>
      <trkpt lat="48.770045" lon="9.905290">
        <ele>606.4</ele>
        <time>2026-08-30T13:03:57Z</time>
      </trkpt>
      <trkpt lat="48.770045" lon="9.905290">
        <ele>606.2</ele>
        <time>2026-08-30T13:03:58Z</time>
      </trkpt>
      <trkpt lat="48.770047" lon="9.905250">
        <ele>606</ele>
        <time>2026-08-30T13:03:59Z</time>
      </trkpt>
      <trkpt lat="48.770061" lon="9.905228">
        <ele>605.8</ele>
        <time>2026-08-30T13:04:00Z</time>
      </trkpt>
      <trkpt lat="48.770080" lon="9.905208">
        <ele>605.6</ele>
        <time>2026-08-30T13:04:01Z</time>
      </trkpt>
      <trkpt lat="48.770109" lon="9.905185">
        <ele>605.2</ele>
        <time>2026-08-30T13:04:02Z</time>
      </trkpt>
      <trkpt lat="48.770140" lon="9.905160">
        <ele>604.8</ele>
        <time>2026-08-30T13:04:03Z</time>
      </trkpt>
      <trkpt lat="48.770165" lon="9.905123">
        <ele>604.6</ele>
        <time>2026-08-30T13:04:04Z</time>
      </trkpt>
      <trkpt lat="48.770186" lon="9.905081">
        <ele>604.2</ele>
        <time>2026-08-30T13:04:05Z</time>
      </trkpt>
      <trkpt lat="48.770214" lon="9.905051">
        <ele>603.8</ele>
        <time>2026-08-30T13:04:06Z</time>
      </trkpt>
      <trkpt lat="48.770233" lon="9.905022">
        <ele>603.6</ele>
        <time>2026-08-30T13:04:07Z</time>
      </trkpt>
      <trkpt lat="48.770268" lon="9.904984">
        <ele>603.2</ele>
        <time>2026-08-30T13:04:08Z</time>
      </trkpt>
      <trkpt lat="48.770312" lon="9.904964">
        <ele>602.8</ele>
        <time>2026-08-30T13:04:09Z</time>
      </trkpt>
      <trkpt lat="48.770335" lon="9.904955">
        <ele>602.4</ele>
        <time>2026-08-30T13:04:10Z</time>
      </trkpt>
      <trkpt lat="48.770343" lon="9.904929">
        <ele>602.2</ele>
        <time>2026-08-30T13:04:11Z</time>
      </trkpt>
      <trkpt lat="48.770340" lon="9.904900">
        <ele>602</ele>
        <time>2026-08-30T13:04:12Z</time>
      </trkpt>
      <trkpt lat="48.770340" lon="9.904857">
        <ele>601.6</ele>
        <time>2026-08-30T13:04:13Z</time>
      </trkpt>
      <trkpt lat="48.770364" lon="9.904828">
        <ele>601.2</ele>
        <time>2026-08-30T13:04:14Z</time>
      </trkpt>
      <trkpt lat="48.770390" lon="9.904793">
        <ele>600.6</ele>
        <time>2026-08-30T13:04:15Z</time>
      </trkpt>
      <trkpt lat="48.770419" lon="9.904761">
        <ele>600.2</ele>
        <time>2026-08-30T13:04:16Z</time>
      </trkpt>
      <trkpt lat="48.770455" lon="9.904729">
        <ele>599.6</ele>
        <time>2026-08-30T13:04:17Z</time>
      </trkpt>
      <trkpt lat="48.770490" lon="9.904712">
        <ele>599</ele>
        <time>2026-08-30T13:04:18Z</time>
      </trkpt>
      <trkpt lat="48.770517" lon="9.904691">
        <ele>598.4</ele>
        <time>2026-08-30T13:04:19Z</time>
      </trkpt>
      <trkpt lat="48.770541" lon="9.904678">
        <ele>598</ele>
        <time>2026-08-30T13:04:20Z</time>
      </trkpt>
      <trkpt lat="48.770559" lon="9.904662">
        <ele>597.8</ele>
        <time>2026-08-30T13:04:21Z</time>
      </trkpt>
      <trkpt lat="48.770583" lon="9.904639">
        <ele>597.6</ele>
        <time>2026-08-30T13:04:22Z</time>
      </trkpt>
      <trkpt lat="48.770605" lon="9.904622">
        <ele>597.4</ele>
        <time>2026-08-30T13:04:23Z</time>
      </trkpt>
      <trkpt lat="48.770617" lon="9.904602">
        <ele>597.2</ele>
        <time>2026-08-30T13:04:24Z</time>
      </trkpt>
      <trkpt lat="48.770630" lon="9.904577">
        <ele>596.8</ele>
        <time>2026-08-30T13:04:25Z</time>
      </trkpt>
      <trkpt lat="48.770648" lon="9.904549">
        <ele>596.4</ele>
        <time>2026-08-30T13:04:26Z</time>
      </trkpt>
      <trkpt lat="48.770673" lon="9.904509">
        <ele>595.8</ele>
        <time>2026-08-30T13:04:27Z</time>
      </trkpt>
      <trkpt lat="48.770713" lon="9.904477">
        <ele>595.2</ele>
        <time>2026-08-30T13:04:28Z</time>
      </trkpt>
      <trkpt lat="48.770742" lon="9.904460">
        <ele>594.6</ele>
        <time>2026-08-30T13:04:29Z</time>
      </trkpt>
      <trkpt lat="48.770757" lon="9.904454">
        <ele>593.8</ele>
        <time>2026-08-30T13:04:30Z</time>
      </trkpt>
      <trkpt lat="48.770767" lon="9.904451">
        <ele>593.2</ele>
        <time>2026-08-30T13:04:31Z</time>
      </trkpt>
      <trkpt lat="48.770772" lon="9.904453">
        <ele>592.8</ele>
        <time>2026-08-30T13:04:32Z</time>
      </trkpt>
      <trkpt lat="48.770772" lon="9.904453">
        <ele>592.6</ele>
        <time>2026-08-30T13:04:33Z</time>
      </trkpt>
      <trkpt lat="48.770772" lon="9.904453">
        <ele>592.4</ele>
        <time>2026-08-30T13:04:34Z</time>
      </trkpt>
      <trkpt lat="48.770772" lon="9.904453">
        <ele>592.2</ele>
        <time>2026-08-30T13:04:35Z</time>
      </trkpt>
      <trkpt lat="48.770772" lon="9.904453">
        <ele>592</ele>
        <time>2026-08-30T13:04:36Z</time>
      </trkpt>
      <trkpt lat="48.770772" lon="9.904453">
        <ele>591.8</ele>
        <time>2026-08-30T13:04:37Z</time>
      </trkpt>
      <trkpt lat="48.770772" lon="9.904453">
        <ele>591.8</ele>
        <time>2026-08-30T13:04:38Z</time>
      </trkpt>
      <trkpt lat="48.770772" lon="9.904453">
        <ele>591.6</ele>
        <time>2026-08-30T13:04:39Z</time>
      </trkpt>
      <trkpt lat="48.770772" lon="9.904453">
        <ele>591.6</ele>
        <time>2026-08-30T13:04:40Z</time>
      </trkpt>
      <trkpt lat="48.770772" lon="9.904453">
        <ele>591.6</ele>
        <time>2026-08-30T13:04:41Z</time>
      </trkpt>
      <trkpt lat="48.770772" lon="9.904453">
        <ele>591.6</ele>
        <time>2026-08-30T13:04:42Z</time>
      </trkpt>
      <trkpt lat="48.770772" lon="9.904453">
        <ele>591.4</ele>
        <time>2026-08-30T13:04:43Z</time>
      </trkpt>
      <trkpt lat="48.770772" lon="9.904453">
        <ele>591.4</ele>
        <time>2026-08-30T13:04:44Z</time>
      </trkpt>
      <trkpt lat="48.770772" lon="9.904453">
        <ele>591.4</ele>
        <time>2026-08-30T13:04:45Z</time>
      </trkpt>
      <trkpt lat="48.770772" lon="9.904453">
        <ele>591.4</ele>
        <time>2026-08-30T13:04:46Z</time>
      </trkpt>
      <trkpt lat="48.770772" lon="9.904453">
        <ele>591.4</ele>
        <time>2026-08-30T13:04:47Z</time>
      </trkpt>
      <trkpt lat="48.770772" lon="9.904453">
        <ele>591.4</ele>
        <time>2026-08-30T13:04:48Z</time>
      </trkpt>
      <trkpt lat="48.770772" lon="9.904453">
        <ele>591.4</ele>
        <time>2026-08-30T13:04:49Z</time>
      </trkpt>
      <trkpt lat="48.770772" lon="9.904453">
        <ele>591.4</ele>
        <time>2026-08-30T13:04:50Z</time>
      </trkpt>
      <trkpt lat="48.770772" lon="9.904453">
        <ele>591.4</ele>
        <time>2026-08-30T13:04:51Z</time>
      </trkpt>
      <trkpt lat="48.770772" lon="9.904453">
        <ele>591.2</ele>
        <time>2026-08-30T13:04:52Z</time>
      </trkpt>
      <trkpt lat="48.770772" lon="9.904453">
        <ele>591.2</ele>
        <time>2026-08-30T13:04:53Z</time>
      </trkpt>
      <trkpt lat="48.770766" lon="9.904434">
        <ele>591.2</ele>
        <time>2026-08-30T13:04:54Z</time>
      </trkpt>
      <trkpt lat="48.770766" lon="9.904434">
        <ele>591.2</ele>
        <time>2026-08-30T13:04:55Z</time>
      </trkpt>
      <trkpt lat="48.770766" lon="9.904433">
        <ele>591.2</ele>
        <time>2026-08-30T13:04:56Z</time>
      </trkpt>
      <trkpt lat="48.770767" lon="9.904394">
        <ele>591.2</ele>
        <time>2026-08-30T13:04:57Z</time>
      </trkpt>
      <trkpt lat="48.770768" lon="9.904352">
        <ele>591.2</ele>
        <time>2026-08-30T13:04:58Z</time>
      </trkpt>
      <trkpt lat="48.770780" lon="9.904325">
        <ele>591</ele>
        <time>2026-08-30T13:04:59Z</time>
      </trkpt>
      <trkpt lat="48.770795" lon="9.904305">
        <ele>590.6</ele>
        <time>2026-08-30T13:05:00Z</time>
      </trkpt>
      <trkpt lat="48.770811" lon="9.904288">
        <ele>590.4</ele>
        <time>2026-08-30T13:05:01Z</time>
      </trkpt>
      <trkpt lat="48.770826" lon="9.904274">
        <ele>590.2</ele>
        <time>2026-08-30T13:05:02Z</time>
      </trkpt>
      <trkpt lat="48.770845" lon="9.904259">
        <ele>590.2</ele>
        <time>2026-08-30T13:05:03Z</time>
      </trkpt>
      <trkpt lat="48.770858" lon="9.904239">
        <ele>590</ele>
        <time>2026-08-30T13:05:04Z</time>
      </trkpt>
      <trkpt lat="48.770870" lon="9.904228">
        <ele>589.8</ele>
        <time>2026-08-30T13:05:05Z</time>
      </trkpt>
      <trkpt lat="48.770879" lon="9.904216">
        <ele>589.6</ele>
        <time>2026-08-30T13:05:06Z</time>
      </trkpt>
      <trkpt lat="48.770898" lon="9.904192">
        <ele>589.6</ele>
        <time>2026-08-30T13:05:07Z</time>
      </trkpt>
      <trkpt lat="48.770918" lon="9.904163">
        <ele>589.4</ele>
        <time>2026-08-30T13:05:08Z</time>
      </trkpt>
      <trkpt lat="48.770943" lon="9.904139">
        <ele>589.2</ele>
        <time>2026-08-30T13:05:09Z</time>
      </trkpt>
      <trkpt lat="48.770970" lon="9.904113">
        <ele>588.8</ele>
        <time>2026-08-30T13:05:10Z</time>
      </trkpt>
      <trkpt lat="48.771003" lon="9.904092">
        <ele>588.6</ele>
        <time>2026-08-30T13:05:11Z</time>
      </trkpt>
      <trkpt lat="48.771034" lon="9.904073">
        <ele>588.4</ele>
        <time>2026-08-30T13:05:12Z</time>
      </trkpt>
      <trkpt lat="48.771057" lon="9.904053">
        <ele>588.2</ele>
        <time>2026-08-30T13:05:13Z</time>
      </trkpt>
      <trkpt lat="48.771079" lon="9.904029">
        <ele>587.8</ele>
        <time>2026-08-30T13:05:14Z</time>
      </trkpt>
      <trkpt lat="48.771098" lon="9.904015">
        <ele>587.6</ele>
        <time>2026-08-30T13:05:15Z</time>
      </trkpt>
      <trkpt lat="48.771114" lon="9.903999">
        <ele>587.6</ele>
        <time>2026-08-30T13:05:16Z</time>
      </trkpt>
      <trkpt lat="48.771117" lon="9.903967">
        <ele>587.4</ele>
        <time>2026-08-30T13:05:17Z</time>
      </trkpt>
      <trkpt lat="48.771118" lon="9.903935">
        <ele>587.2</ele>
        <time>2026-08-30T13:05:18Z</time>
      </trkpt>
      <trkpt lat="48.771133" lon="9.903894">
        <ele>587</ele>
        <time>2026-08-30T13:05:19Z</time>
      </trkpt>
      <trkpt lat="48.771159" lon="9.903882">
        <ele>586.6</ele>
        <time>2026-08-30T13:05:20Z</time>
      </trkpt>
      <trkpt lat="48.771186" lon="9.903872">
        <ele>586.4</ele>
        <time>2026-08-30T13:05:21Z</time>
      </trkpt>
      <trkpt lat="48.771213" lon="9.903872">
        <ele>586</ele>
        <time>2026-08-30T13:05:22Z</time>
      </trkpt>
      <trkpt lat="48.771238" lon="9.903872">
        <ele>585.8</ele>
        <time>2026-08-30T13:05:23Z</time>
      </trkpt>
      <trkpt lat="48.771259" lon="9.903851">
        <ele>585.6</ele>
        <time>2026-08-30T13:05:24Z</time>
      </trkpt>
      <trkpt lat="48.771279" lon="9.903825">
        <ele>585.4</ele>
        <time>2026-08-30T13:05:25Z</time>
      </trkpt>
      <trkpt lat="48.771300" lon="9.903789">
        <ele>585</ele>
        <time>2026-08-30T13:05:26Z</time>
      </trkpt>
      <trkpt lat="48.771317" lon="9.903759">
        <ele>584.8</ele>
        <time>2026-08-30T13:05:27Z</time>
      </trkpt>
      <trkpt lat="48.771329" lon="9.903739">
        <ele>584.6</ele>
        <time>2026-08-30T13:05:28Z</time>
      </trkpt>
      <trkpt lat="48.771344" lon="9.903720">
        <ele>584.4</ele>
        <time>2026-08-30T13:05:29Z</time>
      </trkpt>
      <trkpt lat="48.771361" lon="9.903699">
        <ele>584</ele>
        <time>2026-08-30T13:05:30Z</time>
      </trkpt>
      <trkpt lat="48.771381" lon="9.903666">
        <ele>583.8</ele>
        <time>2026-08-30T13:05:31Z</time>
      </trkpt>
      <trkpt lat="48.771409" lon="9.903640">
        <ele>583.4</ele>
        <time>2026-08-30T13:05:32Z</time>
      </trkpt>
      <trkpt lat="48.771431" lon="9.903608">
        <ele>583.2</ele>
        <time>2026-08-30T13:05:33Z</time>
      </trkpt>
      <trkpt lat="48.771449" lon="9.903572">
        <ele>582.8</ele>
        <time>2026-08-30T13:05:34Z</time>
      </trkpt>
      <trkpt lat="48.771465" lon="9.903536">
        <ele>582.4</ele>
        <time>2026-08-30T13:05:35Z</time>
      </trkpt>
      <trkpt lat="48.771482" lon="9.903503">
        <ele>582</ele>
        <time>2026-08-30T13:05:36Z</time>
      </trkpt>
      <trkpt lat="48.771500" lon="9.903472">
        <ele>581.6</ele>
        <time>2026-08-30T13:05:37Z</time>
      </trkpt>
      <trkpt lat="48.771514" lon="9.903445">
        <ele>581.2</ele>
        <time>2026-08-30T13:05:38Z</time>
      </trkpt>
      <trkpt lat="48.771523" lon="9.903418">
        <ele>580.8</ele>
        <time>2026-08-30T13:05:39Z</time>
      </trkpt>
      <trkpt lat="48.771541" lon="9.903395">
        <ele>580.4</ele>
        <time>2026-08-30T13:05:40Z</time>
      </trkpt>
      <trkpt lat="48.771559" lon="9.903374">
        <ele>579.8</ele>
        <time>2026-08-30T13:05:41Z</time>
      </trkpt>
      <trkpt lat="48.771576" lon="9.903341">
        <ele>579.4</ele>
        <time>2026-08-30T13:05:42Z</time>
      </trkpt>
      <trkpt lat="48.771586" lon="9.903309">
        <ele>579</ele>
        <time>2026-08-30T13:05:43Z</time>
      </trkpt>
      <trkpt lat="48.771602" lon="9.903284">
        <ele>578.4</ele>
        <time>2026-08-30T13:05:44Z</time>
      </trkpt>
      <trkpt lat="48.771620" lon="9.903253">
        <ele>578</ele>
        <time>2026-08-30T13:05:45Z</time>
      </trkpt>
      <trkpt lat="48.771635" lon="9.903212">
        <ele>577.4</ele>
        <time>2026-08-30T13:05:46Z</time>
      </trkpt>
      <trkpt lat="48.771654" lon="9.903162">
        <ele>577</ele>
        <time>2026-08-30T13:05:47Z</time>
      </trkpt>
      <trkpt lat="48.771675" lon="9.903114">
        <ele>576.4</ele>
        <time>2026-08-30T13:05:48Z</time>
      </trkpt>
      <trkpt lat="48.771694" lon="9.903068">
        <ele>575.8</ele>
        <time>2026-08-30T13:05:49Z</time>
      </trkpt>
      <trkpt lat="48.771714" lon="9.903027">
        <ele>575.4</ele>
        <time>2026-08-30T13:05:50Z</time>
      </trkpt>
      <trkpt lat="48.771734" lon="9.902989">
        <ele>574.6</ele>
        <time>2026-08-30T13:05:51Z</time>
      </trkpt>
      <trkpt lat="48.771749" lon="9.902958">
        <ele>574</ele>
        <time>2026-08-30T13:05:52Z</time>
      </trkpt>
      <trkpt lat="48.771759" lon="9.902923">
        <ele>573.6</ele>
        <time>2026-08-30T13:05:53Z</time>
      </trkpt>
      <trkpt lat="48.771767" lon="9.902894">
        <ele>573.2</ele>
        <time>2026-08-30T13:05:54Z</time>
      </trkpt>
      <trkpt lat="48.771777" lon="9.902873">
        <ele>572.6</ele>
        <time>2026-08-30T13:05:55Z</time>
      </trkpt>
      <trkpt lat="48.771775" lon="9.902840">
        <ele>572.2</ele>
        <time>2026-08-30T13:05:56Z</time>
      </trkpt>
      <trkpt lat="48.771772" lon="9.902805">
        <ele>571.8</ele>
        <time>2026-08-30T13:05:57Z</time>
      </trkpt>
      <trkpt lat="48.771769" lon="9.902789">
        <ele>571.6</ele>
        <time>2026-08-30T13:05:58Z</time>
      </trkpt>
      <trkpt lat="48.771768" lon="9.902788">
        <ele>571.2</ele>
        <time>2026-08-30T13:05:59Z</time>
      </trkpt>
      <trkpt lat="48.771768" lon="9.902788">
        <ele>571</ele>
        <time>2026-08-30T13:06:00Z</time>
      </trkpt>
      <trkpt lat="48.771768" lon="9.902788">
        <ele>570.8</ele>
        <time>2026-08-30T13:06:01Z</time>
      </trkpt>
      <trkpt lat="48.771768" lon="9.902788">
        <ele>570.6</ele>
        <time>2026-08-30T13:06:02Z</time>
      </trkpt>
      <trkpt lat="48.771768" lon="9.902788">
        <ele>570.4</ele>
        <time>2026-08-30T13:06:03Z</time>
      </trkpt>
      <trkpt lat="48.771768" lon="9.902788">
        <ele>570.2</ele>
        <time>2026-08-30T13:06:04Z</time>
      </trkpt>
      <trkpt lat="48.771768" lon="9.902788">
        <ele>570</ele>
        <time>2026-08-30T13:06:05Z</time>
      </trkpt>
      <trkpt lat="48.771768" lon="9.902788">
        <ele>569.8</ele>
        <time>2026-08-30T13:06:06Z</time>
      </trkpt>
      <trkpt lat="48.771768" lon="9.902788">
        <ele>569.8</ele>
        <time>2026-08-30T13:06:07Z</time>
      </trkpt>
      <trkpt lat="48.771768" lon="9.902788">
        <ele>569.6</ele>
        <time>2026-08-30T13:06:08Z</time>
      </trkpt>
      <trkpt lat="48.771768" lon="9.902788">
        <ele>569.4</ele>
        <time>2026-08-30T13:06:09Z</time>
      </trkpt>
      <trkpt lat="48.771768" lon="9.902788">
        <ele>569.2</ele>
        <time>2026-08-30T13:06:10Z</time>
      </trkpt>
      <trkpt lat="48.771768" lon="9.902788">
        <ele>569.2</ele>
        <time>2026-08-30T13:06:11Z</time>
      </trkpt>
      <trkpt lat="48.771768" lon="9.902788">
        <ele>569</ele>
        <time>2026-08-30T13:06:12Z</time>
      </trkpt>
      <trkpt lat="48.771768" lon="9.902788">
        <ele>569</ele>
        <time>2026-08-30T13:06:13Z</time>
      </trkpt>
      <trkpt lat="48.771768" lon="9.902788">
        <ele>569</ele>
        <time>2026-08-30T13:06:14Z</time>
      </trkpt>
      <trkpt lat="48.771768" lon="9.902788">
        <ele>568.8</ele>
        <time>2026-08-30T13:06:15Z</time>
      </trkpt>
      <trkpt lat="48.771768" lon="9.902788">
        <ele>568.8</ele>
        <time>2026-08-30T13:06:16Z</time>
      </trkpt>
      <trkpt lat="48.771768" lon="9.902788">
        <ele>568.8</ele>
        <time>2026-08-30T13:06:17Z</time>
      </trkpt>
      <trkpt lat="48.771768" lon="9.902788">
        <ele>568.8</ele>
        <time>2026-08-30T13:06:18Z</time>
      </trkpt>
      <trkpt lat="48.771768" lon="9.902788">
        <ele>568.6</ele>
        <time>2026-08-30T13:06:19Z</time>
      </trkpt>
      <trkpt lat="48.771763" lon="9.902791">
        <ele>568.6</ele>
        <time>2026-08-30T13:06:20Z</time>
      </trkpt>
      <trkpt lat="48.771769" lon="9.902810">
        <ele>568.6</ele>
        <time>2026-08-30T13:06:21Z</time>
      </trkpt>
      <trkpt lat="48.771782" lon="9.902825">
        <ele>568.4</ele>
        <time>2026-08-30T13:06:22Z</time>
      </trkpt>
      <trkpt lat="48.771801" lon="9.902846">
        <ele>568.4</ele>
        <time>2026-08-30T13:06:23Z</time>
      </trkpt>
      <trkpt lat="48.771821" lon="9.902867">
        <ele>568.4</ele>
        <time>2026-08-30T13:06:24Z</time>
      </trkpt>
      <trkpt lat="48.771841" lon="9.902889">
        <ele>568.6</ele>
        <time>2026-08-30T13:06:25Z</time>
      </trkpt>
      <trkpt lat="48.771862" lon="9.902907">
        <ele>568.6</ele>
        <time>2026-08-30T13:06:26Z</time>
      </trkpt>
      <trkpt lat="48.771882" lon="9.902920">
        <ele>569</ele>
        <time>2026-08-30T13:06:27Z</time>
      </trkpt>
      <trkpt lat="48.771903" lon="9.902929">
        <ele>569.2</ele>
        <time>2026-08-30T13:06:28Z</time>
      </trkpt>
      <trkpt lat="48.771927" lon="9.902930">
        <ele>569.4</ele>
        <time>2026-08-30T13:06:29Z</time>
      </trkpt>
      <trkpt lat="48.771952" lon="9.902926">
        <ele>569.6</ele>
        <time>2026-08-30T13:06:30Z</time>
      </trkpt>
      <trkpt lat="48.771977" lon="9.902912">
        <ele>570</ele>
        <time>2026-08-30T13:06:31Z</time>
      </trkpt>
      <trkpt lat="48.772003" lon="9.902898">
        <ele>570.2</ele>
        <time>2026-08-30T13:06:32Z</time>
      </trkpt>
      <trkpt lat="48.772030" lon="9.902884">
        <ele>570.4</ele>
        <time>2026-08-30T13:06:33Z</time>
      </trkpt>
      <trkpt lat="48.772056" lon="9.902875">
        <ele>570.6</ele>
        <time>2026-08-30T13:06:34Z</time>
      </trkpt>
      <trkpt lat="48.772082" lon="9.902860">
        <ele>570.8</ele>
        <time>2026-08-30T13:06:35Z</time>
      </trkpt>
      <trkpt lat="48.772106" lon="9.902848">
        <ele>571</ele>
        <time>2026-08-30T13:06:36Z</time>
      </trkpt>
      <trkpt lat="48.772131" lon="9.902836">
        <ele>571.4</ele>
        <time>2026-08-30T13:06:37Z</time>
      </trkpt>
      <trkpt lat="48.772157" lon="9.902829">
        <ele>571.6</ele>
        <time>2026-08-30T13:06:38Z</time>
      </trkpt>
      <trkpt lat="48.772184" lon="9.902831">
        <ele>571.8</ele>
        <time>2026-08-30T13:06:39Z</time>
      </trkpt>
      <trkpt lat="48.772212" lon="9.902824">
        <ele>572</ele>
        <time>2026-08-30T13:06:40Z</time>
      </trkpt>
      <trkpt lat="48.772238" lon="9.902814">
        <ele>572.2</ele>
        <time>2026-08-30T13:06:41Z</time>
      </trkpt>
      <trkpt lat="48.772265" lon="9.902809">
        <ele>572.4</ele>
        <time>2026-08-30T13:06:42Z</time>
      </trkpt>
      <trkpt lat="48.772290" lon="9.902805">
        <ele>572.4</ele>
        <time>2026-08-30T13:06:43Z</time>
      </trkpt>
      <trkpt lat="48.772315" lon="9.902804">
        <ele>572.6</ele>
        <time>2026-08-30T13:06:44Z</time>
      </trkpt>
      <trkpt lat="48.772339" lon="9.902802">
        <ele>572.6</ele>
        <time>2026-08-30T13:06:45Z</time>
      </trkpt>
      <trkpt lat="48.772360" lon="9.902805">
        <ele>572.6</ele>
        <time>2026-08-30T13:06:46Z</time>
      </trkpt>
      <trkpt lat="48.772381" lon="9.902810">
        <ele>572.8</ele>
        <time>2026-08-30T13:06:47Z</time>
      </trkpt>
      <trkpt lat="48.772400" lon="9.902818">
        <ele>573</ele>
        <time>2026-08-30T13:06:48Z</time>
      </trkpt>
      <trkpt lat="48.772418" lon="9.902827">
        <ele>573.2</ele>
        <time>2026-08-30T13:06:49Z</time>
      </trkpt>
      <trkpt lat="48.772438" lon="9.902829">
        <ele>573.2</ele>
        <time>2026-08-30T13:06:50Z</time>
      </trkpt>
      <trkpt lat="48.772461" lon="9.902833">
        <ele>573.4</ele>
        <time>2026-08-30T13:06:51Z</time>
      </trkpt>
      <trkpt lat="48.772482" lon="9.902827">
        <ele>573.6</ele>
        <time>2026-08-30T13:06:52Z</time>
      </trkpt>
      <trkpt lat="48.772502" lon="9.902824">
        <ele>573.8</ele>
        <time>2026-08-30T13:06:53Z</time>
      </trkpt>
      <trkpt lat="48.772523" lon="9.902813">
        <ele>574</ele>
        <time>2026-08-30T13:06:54Z</time>
      </trkpt>
      <trkpt lat="48.772542" lon="9.902815">
        <ele>574.2</ele>
        <time>2026-08-30T13:06:55Z</time>
      </trkpt>
      <trkpt lat="48.772560" lon="9.902823">
        <ele>574.4</ele>
        <time>2026-08-30T13:06:56Z</time>
      </trkpt>
      <trkpt lat="48.772578" lon="9.902824">
        <ele>574.6</ele>
        <time>2026-08-30T13:06:57Z</time>
      </trkpt>
      <trkpt lat="48.772597" lon="9.902827">
        <ele>574.8</ele>
        <time>2026-08-30T13:06:58Z</time>
      </trkpt>
      <trkpt lat="48.772615" lon="9.902831">
        <ele>575</ele>
        <time>2026-08-30T13:06:59Z</time>
      </trkpt>
      <trkpt lat="48.772631" lon="9.902841">
        <ele>575.2</ele>
        <time>2026-08-30T13:07:00Z</time>
      </trkpt>
      <trkpt lat="48.772649" lon="9.902851">
        <ele>575.4</ele>
        <time>2026-08-30T13:07:01Z</time>
      </trkpt>
      <trkpt lat="48.772667" lon="9.902856">
        <ele>575.4</ele>
        <time>2026-08-30T13:07:02Z</time>
      </trkpt>
      <trkpt lat="48.772686" lon="9.902863">
        <ele>575.8</ele>
        <time>2026-08-30T13:07:03Z</time>
      </trkpt>
      <trkpt lat="48.772706" lon="9.902872">
        <ele>576</ele>
        <time>2026-08-30T13:07:04Z</time>
      </trkpt>
      <trkpt lat="48.772726" lon="9.902877">
        <ele>576.2</ele>
        <time>2026-08-30T13:07:05Z</time>
      </trkpt>
      <trkpt lat="48.772746" lon="9.902884">
        <ele>576.4</ele>
        <time>2026-08-30T13:07:06Z</time>
      </trkpt>
      <trkpt lat="48.772762" lon="9.902892">
        <ele>576.6</ele>
        <time>2026-08-30T13:07:07Z</time>
      </trkpt>
      <trkpt lat="48.772781" lon="9.902895">
        <ele>576.8</ele>
        <time>2026-08-30T13:07:08Z</time>
      </trkpt>
      <trkpt lat="48.772800" lon="9.902899">
        <ele>576.8</ele>
        <time>2026-08-30T13:07:09Z</time>
      </trkpt>
      <trkpt lat="48.772817" lon="9.902906">
        <ele>577</ele>
        <time>2026-08-30T13:07:10Z</time>
      </trkpt>
      <trkpt lat="48.772833" lon="9.902915">
        <ele>577.2</ele>
        <time>2026-08-30T13:07:11Z</time>
      </trkpt>
      <trkpt lat="48.772850" lon="9.902914">
        <ele>577.2</ele>
        <time>2026-08-30T13:07:12Z</time>
      </trkpt>
      <trkpt lat="48.772864" lon="9.902914">
        <ele>577.4</ele>
        <time>2026-08-30T13:07:13Z</time>
      </trkpt>
      <trkpt lat="48.772879" lon="9.902916">
        <ele>577.6</ele>
        <time>2026-08-30T13:07:14Z</time>
      </trkpt>
      <trkpt lat="48.772897" lon="9.902915">
        <ele>577.8</ele>
        <time>2026-08-30T13:07:15Z</time>
      </trkpt>
      <trkpt lat="48.772917" lon="9.902910">
        <ele>577.8</ele>
        <time>2026-08-30T13:07:16Z</time>
      </trkpt>
      <trkpt lat="48.772939" lon="9.902899">
        <ele>577.8</ele>
        <time>2026-08-30T13:07:17Z</time>
      </trkpt>
      <trkpt lat="48.772961" lon="9.902890">
        <ele>577.8</ele>
        <time>2026-08-30T13:07:18Z</time>
      </trkpt>
      <trkpt lat="48.772989" lon="9.902880">
        <ele>577.8</ele>
        <time>2026-08-30T13:07:19Z</time>
      </trkpt>
      <trkpt lat="48.773018" lon="9.902869">
        <ele>577.6</ele>
        <time>2026-08-30T13:07:20Z</time>
      </trkpt>
      <trkpt lat="48.773048" lon="9.902860">
        <ele>577.6</ele>
        <time>2026-08-30T13:07:21Z</time>
      </trkpt>
      <trkpt lat="48.773081" lon="9.902850">
        <ele>577.4</ele>
        <time>2026-08-30T13:07:22Z</time>
      </trkpt>
      <trkpt lat="48.773114" lon="9.902843">
        <ele>577.4</ele>
        <time>2026-08-30T13:07:23Z</time>
      </trkpt>
      <trkpt lat="48.773147" lon="9.902837">
        <ele>577.2</ele>
        <time>2026-08-30T13:07:24Z</time>
      </trkpt>
      <trkpt lat="48.773178" lon="9.902831">
        <ele>577</ele>
        <time>2026-08-30T13:07:25Z</time>
      </trkpt>
      <trkpt lat="48.773211" lon="9.902824">
        <ele>576.8</ele>
        <time>2026-08-30T13:07:26Z</time>
      </trkpt>
      <trkpt lat="48.773247" lon="9.902816">
        <ele>576.6</ele>
        <time>2026-08-30T13:07:27Z</time>
      </trkpt>
      <trkpt lat="48.773286" lon="9.902804">
        <ele>576.4</ele>
        <time>2026-08-30T13:07:28Z</time>
      </trkpt>
      <trkpt lat="48.773325" lon="9.902792">
        <ele>576.2</ele>
        <time>2026-08-30T13:07:29Z</time>
      </trkpt>
      <trkpt lat="48.773365" lon="9.902781">
        <ele>576</ele>
        <time>2026-08-30T13:07:30Z</time>
      </trkpt>
      <trkpt lat="48.773406" lon="9.902772">
        <ele>576</ele>
        <time>2026-08-30T13:07:31Z</time>
      </trkpt>
      <trkpt lat="48.773447" lon="9.902760">
        <ele>575.8</ele>
        <time>2026-08-30T13:07:32Z</time>
      </trkpt>
      <trkpt lat="48.773488" lon="9.902742">
        <ele>575.8</ele>
        <time>2026-08-30T13:07:33Z</time>
      </trkpt>
      <trkpt lat="48.773533" lon="9.902728">
        <ele>575.6</ele>
        <time>2026-08-30T13:07:34Z</time>
      </trkpt>
      <trkpt lat="48.773576" lon="9.902713">
        <ele>575.6</ele>
        <time>2026-08-30T13:07:35Z</time>
      </trkpt>
      <trkpt lat="48.773617" lon="9.902691">
        <ele>575.6</ele>
        <time>2026-08-30T13:07:36Z</time>
      </trkpt>
      <trkpt lat="48.773659" lon="9.902672">
        <ele>575.4</ele>
        <time>2026-08-30T13:07:37Z</time>
      </trkpt>
      <trkpt lat="48.773698" lon="9.902654">
        <ele>575.4</ele>
        <time>2026-08-30T13:07:38Z</time>
      </trkpt>
      <trkpt lat="48.773738" lon="9.902635">
        <ele>575.4</ele>
        <time>2026-08-30T13:07:39Z</time>
      </trkpt>
      <trkpt lat="48.773779" lon="9.902612">
        <ele>575.4</ele>
        <time>2026-08-30T13:07:40Z</time>
      </trkpt>
      <trkpt lat="48.773819" lon="9.902590">
        <ele>575.4</ele>
        <time>2026-08-30T13:07:41Z</time>
      </trkpt>
      <trkpt lat="48.773858" lon="9.902574">
        <ele>575.4</ele>
        <time>2026-08-30T13:07:42Z</time>
      </trkpt>
      <trkpt lat="48.773894" lon="9.902557">
        <ele>575.4</ele>
        <time>2026-08-30T13:07:43Z</time>
      </trkpt>
      <trkpt lat="48.773933" lon="9.902534">
        <ele>575.4</ele>
        <time>2026-08-30T13:07:44Z</time>
      </trkpt>
      <trkpt lat="48.773972" lon="9.902508">
        <ele>575.4</ele>
        <time>2026-08-30T13:07:45Z</time>
      </trkpt>
      <trkpt lat="48.774009" lon="9.902489">
        <ele>575.4</ele>
        <time>2026-08-30T13:07:46Z</time>
      </trkpt>
      <trkpt lat="48.774047" lon="9.902473">
        <ele>575.6</ele>
        <time>2026-08-30T13:07:47Z</time>
      </trkpt>
      <trkpt lat="48.774085" lon="9.902455">
        <ele>575.6</ele>
        <time>2026-08-30T13:07:48Z</time>
      </trkpt>
      <trkpt lat="48.774124" lon="9.902432">
        <ele>575.6</ele>
        <time>2026-08-30T13:07:49Z</time>
      </trkpt>
      <trkpt lat="48.774167" lon="9.902408">
        <ele>575.6</ele>
        <time>2026-08-30T13:07:50Z</time>
      </trkpt>
      <trkpt lat="48.774210" lon="9.902392">
        <ele>575.6</ele>
        <time>2026-08-30T13:07:51Z</time>
      </trkpt>
      <trkpt lat="48.774251" lon="9.902367">
        <ele>575.6</ele>
        <time>2026-08-30T13:07:52Z</time>
      </trkpt>
      <trkpt lat="48.774291" lon="9.902345">
        <ele>575.6</ele>
        <time>2026-08-30T13:07:53Z</time>
      </trkpt>
      <trkpt lat="48.774330" lon="9.902327">
        <ele>575.6</ele>
        <time>2026-08-30T13:07:54Z</time>
      </trkpt>
      <trkpt lat="48.774370" lon="9.902306">
        <ele>575.6</ele>
        <time>2026-08-30T13:07:55Z</time>
      </trkpt>
      <trkpt lat="48.774411" lon="9.902283">
        <ele>575.4</ele>
        <time>2026-08-30T13:07:56Z</time>
      </trkpt>
      <trkpt lat="48.774455" lon="9.902258">
        <ele>575.4</ele>
        <time>2026-08-30T13:07:57Z</time>
      </trkpt>
      <trkpt lat="48.774498" lon="9.902226">
        <ele>575.4</ele>
        <time>2026-08-30T13:07:58Z</time>
      </trkpt>
      <trkpt lat="48.774545" lon="9.902197">
        <ele>575.2</ele>
        <time>2026-08-30T13:07:59Z</time>
      </trkpt>
      <trkpt lat="48.774593" lon="9.902170">
        <ele>575.2</ele>
        <time>2026-08-30T13:08:00Z</time>
      </trkpt>
      <trkpt lat="48.774638" lon="9.902140">
        <ele>575</ele>
        <time>2026-08-30T13:08:01Z</time>
      </trkpt>
      <trkpt lat="48.774680" lon="9.902114">
        <ele>575</ele>
        <time>2026-08-30T13:08:02Z</time>
      </trkpt>
      <trkpt lat="48.774724" lon="9.902086">
        <ele>575</ele>
        <time>2026-08-30T13:08:03Z</time>
      </trkpt>
      <trkpt lat="48.774764" lon="9.902059">
        <ele>574.8</ele>
        <time>2026-08-30T13:08:04Z</time>
      </trkpt>
      <trkpt lat="48.774807" lon="9.902027">
        <ele>574.8</ele>
        <time>2026-08-30T13:08:05Z</time>
      </trkpt>
      <trkpt lat="48.774851" lon="9.901996">
        <ele>574.8</ele>
        <time>2026-08-30T13:08:06Z</time>
      </trkpt>
      <trkpt lat="48.774892" lon="9.901964">
        <ele>574.6</ele>
        <time>2026-08-30T13:08:07Z</time>
      </trkpt>
      <trkpt lat="48.774936" lon="9.901935">
        <ele>574.6</ele>
        <time>2026-08-30T13:08:08Z</time>
      </trkpt>
      <trkpt lat="48.774978" lon="9.901904">
        <ele>574.6</ele>
        <time>2026-08-30T13:08:09Z</time>
      </trkpt>
      <trkpt lat="48.775020" lon="9.901873">
        <ele>574.6</ele>
        <time>2026-08-30T13:08:10Z</time>
      </trkpt>
      <trkpt lat="48.775064" lon="9.901846">
        <ele>574.4</ele>
        <time>2026-08-30T13:08:11Z</time>
      </trkpt>
      <trkpt lat="48.775107" lon="9.901816">
        <ele>574.4</ele>
        <time>2026-08-30T13:08:12Z</time>
      </trkpt>
      <trkpt lat="48.775147" lon="9.901789">
        <ele>574.4</ele>
        <time>2026-08-30T13:08:13Z</time>
      </trkpt>
      <trkpt lat="48.775188" lon="9.901766">
        <ele>574.4</ele>
        <time>2026-08-30T13:08:14Z</time>
      </trkpt>
      <trkpt lat="48.775225" lon="9.901742">
        <ele>574.4</ele>
        <time>2026-08-30T13:08:15Z</time>
      </trkpt>
      <trkpt lat="48.775264" lon="9.901719">
        <ele>574.4</ele>
        <time>2026-08-30T13:08:16Z</time>
      </trkpt>
      <trkpt lat="48.775304" lon="9.901695">
        <ele>574.4</ele>
        <time>2026-08-30T13:08:17Z</time>
      </trkpt>
      <trkpt lat="48.775345" lon="9.901667">
        <ele>574.6</ele>
        <time>2026-08-30T13:08:18Z</time>
      </trkpt>
      <trkpt lat="48.775388" lon="9.901643">
        <ele>574.6</ele>
        <time>2026-08-30T13:08:19Z</time>
      </trkpt>
      <trkpt lat="48.775431" lon="9.901614">
        <ele>574.8</ele>
        <time>2026-08-30T13:08:20Z</time>
      </trkpt>
      <trkpt lat="48.775473" lon="9.901585">
        <ele>574.8</ele>
        <time>2026-08-30T13:08:21Z</time>
      </trkpt>
      <trkpt lat="48.775519" lon="9.901552">
        <ele>574.8</ele>
        <time>2026-08-30T13:08:22Z</time>
      </trkpt>
      <trkpt lat="48.775566" lon="9.901522">
        <ele>574.6</ele>
        <time>2026-08-30T13:08:23Z</time>
      </trkpt>
      <trkpt lat="48.775612" lon="9.901488">
        <ele>574.6</ele>
        <time>2026-08-30T13:08:24Z</time>
      </trkpt>
      <trkpt lat="48.775656" lon="9.901452">
        <ele>574.4</ele>
        <time>2026-08-30T13:08:25Z</time>
      </trkpt>
      <trkpt lat="48.775702" lon="9.901423">
        <ele>574.2</ele>
        <time>2026-08-30T13:08:26Z</time>
      </trkpt>
      <trkpt lat="48.775749" lon="9.901390">
        <ele>574.2</ele>
        <time>2026-08-30T13:08:27Z</time>
      </trkpt>
      <trkpt lat="48.775796" lon="9.901363">
        <ele>574</ele>
        <time>2026-08-30T13:08:28Z</time>
      </trkpt>
      <trkpt lat="48.775844" lon="9.901336">
        <ele>573.8</ele>
        <time>2026-08-30T13:08:29Z</time>
      </trkpt>
      <trkpt lat="48.775893" lon="9.901314">
        <ele>573.6</ele>
        <time>2026-08-30T13:08:30Z</time>
      </trkpt>
      <trkpt lat="48.775943" lon="9.901295">
        <ele>573.4</ele>
        <time>2026-08-30T13:08:31Z</time>
      </trkpt>
      <trkpt lat="48.775996" lon="9.901272">
        <ele>573.4</ele>
        <time>2026-08-30T13:08:32Z</time>
      </trkpt>
      <trkpt lat="48.776048" lon="9.901253">
        <ele>573.2</ele>
        <time>2026-08-30T13:08:33Z</time>
      </trkpt>
      <trkpt lat="48.776100" lon="9.901234">
        <ele>573.2</ele>
        <time>2026-08-30T13:08:34Z</time>
      </trkpt>
      <trkpt lat="48.776150" lon="9.901218">
        <ele>573.2</ele>
        <time>2026-08-30T13:08:35Z</time>
      </trkpt>
      <trkpt lat="48.776199" lon="9.901197">
        <ele>573</ele>
        <time>2026-08-30T13:08:36Z</time>
      </trkpt>
      <trkpt lat="48.776247" lon="9.901166">
        <ele>573</ele>
        <time>2026-08-30T13:08:37Z</time>
      </trkpt>
      <trkpt lat="48.776296" lon="9.901144">
        <ele>573</ele>
        <time>2026-08-30T13:08:38Z</time>
      </trkpt>
      <trkpt lat="48.776342" lon="9.901117">
        <ele>573</ele>
        <time>2026-08-30T13:08:39Z</time>
      </trkpt>
      <trkpt lat="48.776389" lon="9.901089">
        <ele>573</ele>
        <time>2026-08-30T13:08:40Z</time>
      </trkpt>
      <trkpt lat="48.776433" lon="9.901061">
        <ele>573</ele>
        <time>2026-08-30T13:08:41Z</time>
      </trkpt>
      <trkpt lat="48.776480" lon="9.901027">
        <ele>573</ele>
        <time>2026-08-30T13:08:42Z</time>
      </trkpt>
      <trkpt lat="48.776529" lon="9.900993">
        <ele>573</ele>
        <time>2026-08-30T13:08:43Z</time>
      </trkpt>
      <trkpt lat="48.776573" lon="9.900955">
        <ele>573</ele>
        <time>2026-08-30T13:08:44Z</time>
      </trkpt>
      <trkpt lat="48.776615" lon="9.900923">
        <ele>573</ele>
        <time>2026-08-30T13:08:45Z</time>
      </trkpt>
      <trkpt lat="48.776661" lon="9.900890">
        <ele>573.2</ele>
        <time>2026-08-30T13:08:46Z</time>
      </trkpt>
      <trkpt lat="48.776701" lon="9.900863">
        <ele>573.4</ele>
        <time>2026-08-30T13:08:47Z</time>
      </trkpt>
      <trkpt lat="48.776739" lon="9.900840">
        <ele>573.6</ele>
        <time>2026-08-30T13:08:48Z</time>
      </trkpt>
      <trkpt lat="48.776767" lon="9.900824">
        <ele>573.8</ele>
        <time>2026-08-30T13:08:49Z</time>
      </trkpt>
      <trkpt lat="48.776800" lon="9.900803">
        <ele>574</ele>
        <time>2026-08-30T13:08:50Z</time>
      </trkpt>
      <trkpt lat="48.776829" lon="9.900799">
        <ele>574.4</ele>
        <time>2026-08-30T13:08:51Z</time>
      </trkpt>
      <trkpt lat="48.776860" lon="9.900790">
        <ele>574.8</ele>
        <time>2026-08-30T13:08:52Z</time>
      </trkpt>
      <trkpt lat="48.776889" lon="9.900778">
        <ele>575</ele>
        <time>2026-08-30T13:08:53Z</time>
      </trkpt>
      <trkpt lat="48.776915" lon="9.900772">
        <ele>575.4</ele>
        <time>2026-08-30T13:08:54Z</time>
      </trkpt>
      <trkpt lat="48.776941" lon="9.900767">
        <ele>575.6</ele>
        <time>2026-08-30T13:08:55Z</time>
      </trkpt>
      <trkpt lat="48.776969" lon="9.900764">
        <ele>575.8</ele>
        <time>2026-08-30T13:08:56Z</time>
      </trkpt>
      <trkpt lat="48.777001" lon="9.900768">
        <ele>576</ele>
        <time>2026-08-30T13:08:57Z</time>
      </trkpt>
      <trkpt lat="48.777031" lon="9.900774">
        <ele>576.4</ele>
        <time>2026-08-30T13:08:58Z</time>
      </trkpt>
      <trkpt lat="48.777065" lon="9.900782">
        <ele>576.6</ele>
        <time>2026-08-30T13:08:59Z</time>
      </trkpt>
      <trkpt lat="48.777102" lon="9.900788">
        <ele>576.8</ele>
        <time>2026-08-30T13:09:00Z</time>
      </trkpt>
      <trkpt lat="48.777141" lon="9.900788">
        <ele>576.8</ele>
        <time>2026-08-30T13:09:01Z</time>
      </trkpt>
      <trkpt lat="48.777175" lon="9.900788">
        <ele>577</ele>
        <time>2026-08-30T13:09:02Z</time>
      </trkpt>
      <trkpt lat="48.777210" lon="9.900789">
        <ele>577.2</ele>
        <time>2026-08-30T13:09:03Z</time>
      </trkpt>
      <trkpt lat="48.777244" lon="9.900787">
        <ele>577.2</ele>
        <time>2026-08-30T13:09:04Z</time>
      </trkpt>
      <trkpt lat="48.777274" lon="9.900789">
        <ele>577.4</ele>
        <time>2026-08-30T13:09:05Z</time>
      </trkpt>
      <trkpt lat="48.777301" lon="9.900795">
        <ele>577.6</ele>
        <time>2026-08-30T13:09:06Z</time>
      </trkpt>
      <trkpt lat="48.777329" lon="9.900793">
        <ele>577.6</ele>
        <time>2026-08-30T13:09:07Z</time>
      </trkpt>
      <trkpt lat="48.777359" lon="9.900792">
        <ele>577.8</ele>
        <time>2026-08-30T13:09:08Z</time>
      </trkpt>
      <trkpt lat="48.777387" lon="9.900797">
        <ele>578</ele>
        <time>2026-08-30T13:09:09Z</time>
      </trkpt>
      <trkpt lat="48.777416" lon="9.900795">
        <ele>578.2</ele>
        <time>2026-08-30T13:09:10Z</time>
      </trkpt>
      <trkpt lat="48.777444" lon="9.900790">
        <ele>578.4</ele>
        <time>2026-08-30T13:09:11Z</time>
      </trkpt>
      <trkpt lat="48.777468" lon="9.900789">
        <ele>578.4</ele>
        <time>2026-08-30T13:09:12Z</time>
      </trkpt>
      <trkpt lat="48.777494" lon="9.900791">
        <ele>578.6</ele>
        <time>2026-08-30T13:09:13Z</time>
      </trkpt>
      <trkpt lat="48.777519" lon="9.900799">
        <ele>578.8</ele>
        <time>2026-08-30T13:09:14Z</time>
      </trkpt>
      <trkpt lat="48.777544" lon="9.900805">
        <ele>579</ele>
        <time>2026-08-30T13:09:15Z</time>
      </trkpt>
      <trkpt lat="48.777570" lon="9.900798">
        <ele>579.2</ele>
        <time>2026-08-30T13:09:16Z</time>
      </trkpt>
      <trkpt lat="48.777596" lon="9.900797">
        <ele>579.4</ele>
        <time>2026-08-30T13:09:17Z</time>
      </trkpt>
      <trkpt lat="48.777623" lon="9.900794">
        <ele>579.6</ele>
        <time>2026-08-30T13:09:18Z</time>
      </trkpt>
      <trkpt lat="48.777645" lon="9.900799">
        <ele>579.8</ele>
        <time>2026-08-30T13:09:19Z</time>
      </trkpt>
      <trkpt lat="48.777671" lon="9.900803">
        <ele>579.8</ele>
        <time>2026-08-30T13:09:20Z</time>
      </trkpt>
      <trkpt lat="48.777693" lon="9.900806">
        <ele>580</ele>
        <time>2026-08-30T13:09:21Z</time>
      </trkpt>
      <trkpt lat="48.777719" lon="9.900804">
        <ele>580.2</ele>
        <time>2026-08-30T13:09:22Z</time>
      </trkpt>
      <trkpt lat="48.777743" lon="9.900808">
        <ele>580.2</ele>
        <time>2026-08-30T13:09:23Z</time>
      </trkpt>
      <trkpt lat="48.777763" lon="9.900810">
        <ele>580.4</ele>
        <time>2026-08-30T13:09:24Z</time>
      </trkpt>
      <trkpt lat="48.777787" lon="9.900813">
        <ele>580.6</ele>
        <time>2026-08-30T13:09:25Z</time>
      </trkpt>
      <trkpt lat="48.777808" lon="9.900820">
        <ele>580.8</ele>
        <time>2026-08-30T13:09:26Z</time>
      </trkpt>
      <trkpt lat="48.777828" lon="9.900827">
        <ele>581</ele>
        <time>2026-08-30T13:09:27Z</time>
      </trkpt>
      <trkpt lat="48.777851" lon="9.900834">
        <ele>581</ele>
        <time>2026-08-30T13:09:28Z</time>
      </trkpt>
      <trkpt lat="48.777873" lon="9.900842">
        <ele>581.2</ele>
        <time>2026-08-30T13:09:29Z</time>
      </trkpt>
      <trkpt lat="48.777891" lon="9.900850">
        <ele>581.4</ele>
        <time>2026-08-30T13:09:30Z</time>
      </trkpt>
      <trkpt lat="48.777916" lon="9.900853">
        <ele>581.6</ele>
        <time>2026-08-30T13:09:31Z</time>
      </trkpt>
      <trkpt lat="48.777940" lon="9.900864">
        <ele>581.8</ele>
        <time>2026-08-30T13:09:32Z</time>
      </trkpt>
      <trkpt lat="48.777963" lon="9.900877">
        <ele>582</ele>
        <time>2026-08-30T13:09:33Z</time>
      </trkpt>
      <trkpt lat="48.777985" lon="9.900889">
        <ele>582.2</ele>
        <time>2026-08-30T13:09:34Z</time>
      </trkpt>
      <trkpt lat="48.778007" lon="9.900903">
        <ele>582.2</ele>
        <time>2026-08-30T13:09:35Z</time>
      </trkpt>
      <trkpt lat="48.778026" lon="9.900913">
        <ele>582.4</ele>
        <time>2026-08-30T13:09:36Z</time>
      </trkpt>
      <trkpt lat="48.778050" lon="9.900924">
        <ele>582.6</ele>
        <time>2026-08-30T13:09:37Z</time>
      </trkpt>
      <trkpt lat="48.778072" lon="9.900937">
        <ele>582.8</ele>
        <time>2026-08-30T13:09:38Z</time>
      </trkpt>
      <trkpt lat="48.778097" lon="9.900945">
        <ele>583.2</ele>
        <time>2026-08-30T13:09:39Z</time>
      </trkpt>
      <trkpt lat="48.778115" lon="9.900952">
        <ele>583.2</ele>
        <time>2026-08-30T13:09:40Z</time>
      </trkpt>
      <trkpt lat="48.778137" lon="9.900959">
        <ele>583.6</ele>
        <time>2026-08-30T13:09:41Z</time>
      </trkpt>
      <trkpt lat="48.778158" lon="9.900966">
        <ele>583.6</ele>
        <time>2026-08-30T13:09:42Z</time>
      </trkpt>
      <trkpt lat="48.778178" lon="9.900976">
        <ele>583.8</ele>
        <time>2026-08-30T13:09:43Z</time>
      </trkpt>
      <trkpt lat="48.778199" lon="9.900988">
        <ele>584</ele>
        <time>2026-08-30T13:09:44Z</time>
      </trkpt>
      <trkpt lat="48.778216" lon="9.900997">
        <ele>584.4</ele>
        <time>2026-08-30T13:09:45Z</time>
      </trkpt>
      <trkpt lat="48.778235" lon="9.901006">
        <ele>584.4</ele>
        <time>2026-08-30T13:09:46Z</time>
      </trkpt>
      <trkpt lat="48.778250" lon="9.901019">
        <ele>584.6</ele>
        <time>2026-08-30T13:09:47Z</time>
      </trkpt>
      <trkpt lat="48.778271" lon="9.901030">
        <ele>584.8</ele>
        <time>2026-08-30T13:09:48Z</time>
      </trkpt>
      <trkpt lat="48.778286" lon="9.901038">
        <ele>585</ele>
        <time>2026-08-30T13:09:49Z</time>
      </trkpt>
      <trkpt lat="48.778306" lon="9.901048">
        <ele>585.2</ele>
        <time>2026-08-30T13:09:50Z</time>
      </trkpt>
      <trkpt lat="48.778324" lon="9.901053">
        <ele>585.4</ele>
        <time>2026-08-30T13:09:51Z</time>
      </trkpt>
      <trkpt lat="48.778340" lon="9.901060">
        <ele>585.6</ele>
        <time>2026-08-30T13:09:52Z</time>
      </trkpt>
      <trkpt lat="48.778356" lon="9.901072">
        <ele>585.8</ele>
        <time>2026-08-30T13:09:53Z</time>
      </trkpt>
      <trkpt lat="48.778374" lon="9.901086">
        <ele>585.8</ele>
        <time>2026-08-30T13:09:54Z</time>
      </trkpt>
      <trkpt lat="48.778395" lon="9.901095">
        <ele>586.2</ele>
        <time>2026-08-30T13:09:55Z</time>
      </trkpt>
      <trkpt lat="48.778417" lon="9.901110">
        <ele>586.4</ele>
        <time>2026-08-30T13:09:56Z</time>
      </trkpt>
      <trkpt lat="48.778434" lon="9.901127">
        <ele>586.4</ele>
        <time>2026-08-30T13:09:57Z</time>
      </trkpt>
      <trkpt lat="48.778453" lon="9.901140">
        <ele>586.6</ele>
        <time>2026-08-30T13:09:58Z</time>
      </trkpt>
      <trkpt lat="48.778473" lon="9.901150">
        <ele>586.8</ele>
        <time>2026-08-30T13:09:59Z</time>
      </trkpt>
      <trkpt lat="48.778491" lon="9.901164">
        <ele>587</ele>
        <time>2026-08-30T13:10:00Z</time>
      </trkpt>
      <trkpt lat="48.778506" lon="9.901187">
        <ele>587</ele>
        <time>2026-08-30T13:10:01Z</time>
      </trkpt>
      <trkpt lat="48.778527" lon="9.901205">
        <ele>587.2</ele>
        <time>2026-08-30T13:10:02Z</time>
      </trkpt>
      <trkpt lat="48.778549" lon="9.901223">
        <ele>587.2</ele>
        <time>2026-08-30T13:10:03Z</time>
      </trkpt>
      <trkpt lat="48.778567" lon="9.901245">
        <ele>587.4</ele>
        <time>2026-08-30T13:10:04Z</time>
      </trkpt>
      <trkpt lat="48.778591" lon="9.901257">
        <ele>587.4</ele>
        <time>2026-08-30T13:10:05Z</time>
      </trkpt>
      <trkpt lat="48.778614" lon="9.901262">
        <ele>587.4</ele>
        <time>2026-08-30T13:10:06Z</time>
      </trkpt>
      <trkpt lat="48.778638" lon="9.901270">
        <ele>587.4</ele>
        <time>2026-08-30T13:10:07Z</time>
      </trkpt>
      <trkpt lat="48.778663" lon="9.901272">
        <ele>587.4</ele>
        <time>2026-08-30T13:10:08Z</time>
      </trkpt>
      <trkpt lat="48.778687" lon="9.901280">
        <ele>587.4</ele>
        <time>2026-08-30T13:10:09Z</time>
      </trkpt>
      <trkpt lat="48.778711" lon="9.901292">
        <ele>587.4</ele>
        <time>2026-08-30T13:10:10Z</time>
      </trkpt>
      <trkpt lat="48.778732" lon="9.901307">
        <ele>587.4</ele>
        <time>2026-08-30T13:10:11Z</time>
      </trkpt>
      <trkpt lat="48.778753" lon="9.901321">
        <ele>587.6</ele>
        <time>2026-08-30T13:10:12Z</time>
      </trkpt>
      <trkpt lat="48.778774" lon="9.901336">
        <ele>587.6</ele>
        <time>2026-08-30T13:10:13Z</time>
      </trkpt>
      <trkpt lat="48.778796" lon="9.901347">
        <ele>587.8</ele>
        <time>2026-08-30T13:10:14Z</time>
      </trkpt>
      <trkpt lat="48.778818" lon="9.901359">
        <ele>587.8</ele>
        <time>2026-08-30T13:10:15Z</time>
      </trkpt>
      <trkpt lat="48.778839" lon="9.901373">
        <ele>587.8</ele>
        <time>2026-08-30T13:10:16Z</time>
      </trkpt>
      <trkpt lat="48.778859" lon="9.901387">
        <ele>588</ele>
        <time>2026-08-30T13:10:17Z</time>
      </trkpt>
      <trkpt lat="48.778879" lon="9.901403">
        <ele>588</ele>
        <time>2026-08-30T13:10:18Z</time>
      </trkpt>
      <trkpt lat="48.778894" lon="9.901415">
        <ele>588.2</ele>
        <time>2026-08-30T13:10:19Z</time>
      </trkpt>
      <trkpt lat="48.778911" lon="9.901426">
        <ele>588.2</ele>
        <time>2026-08-30T13:10:20Z</time>
      </trkpt>
      <trkpt lat="48.778927" lon="9.901440">
        <ele>588.4</ele>
        <time>2026-08-30T13:10:21Z</time>
      </trkpt>
      <trkpt lat="48.778941" lon="9.901454">
        <ele>588.4</ele>
        <time>2026-08-30T13:10:22Z</time>
      </trkpt>
      <trkpt lat="48.778951" lon="9.901463">
        <ele>588.4</ele>
        <time>2026-08-30T13:10:23Z</time>
      </trkpt>
      <trkpt lat="48.778962" lon="9.901471">
        <ele>588.6</ele>
        <time>2026-08-30T13:10:24Z</time>
      </trkpt>
      <trkpt lat="48.778978" lon="9.901475">
        <ele>588.6</ele>
        <time>2026-08-30T13:10:25Z</time>
      </trkpt>
      <trkpt lat="48.778997" lon="9.901477">
        <ele>588.6</ele>
        <time>2026-08-30T13:10:26Z</time>
      </trkpt>
      <trkpt lat="48.779019" lon="9.901478">
        <ele>588.4</ele>
        <time>2026-08-30T13:10:27Z</time>
      </trkpt>
      <trkpt lat="48.779043" lon="9.901473">
        <ele>588.4</ele>
        <time>2026-08-30T13:10:28Z</time>
      </trkpt>
      <trkpt lat="48.779071" lon="9.901472">
        <ele>588.2</ele>
        <time>2026-08-30T13:10:29Z</time>
      </trkpt>
      <trkpt lat="48.779103" lon="9.901466">
        <ele>587.8</ele>
        <time>2026-08-30T13:10:30Z</time>
      </trkpt>
      <trkpt lat="48.779140" lon="9.901456">
        <ele>587.4</ele>
        <time>2026-08-30T13:10:31Z</time>
      </trkpt>
      <trkpt lat="48.779178" lon="9.901445">
        <ele>586.8</ele>
        <time>2026-08-30T13:10:32Z</time>
      </trkpt>
      <trkpt lat="48.779215" lon="9.901429">
        <ele>586.4</ele>
        <time>2026-08-30T13:10:33Z</time>
      </trkpt>
      <trkpt lat="48.779247" lon="9.901410">
        <ele>585.6</ele>
        <time>2026-08-30T13:10:34Z</time>
      </trkpt>
      <trkpt lat="48.779281" lon="9.901390">
        <ele>585</ele>
        <time>2026-08-30T13:10:35Z</time>
      </trkpt>
      <trkpt lat="48.779320" lon="9.901388">
        <ele>584.2</ele>
        <time>2026-08-30T13:10:36Z</time>
      </trkpt>
      <trkpt lat="48.779356" lon="9.901378">
        <ele>583.2</ele>
        <time>2026-08-30T13:10:37Z</time>
      </trkpt>
      <trkpt lat="48.779388" lon="9.901362">
        <ele>582.4</ele>
        <time>2026-08-30T13:10:38Z</time>
      </trkpt>
      <trkpt lat="48.779417" lon="9.901340">
        <ele>581.6</ele>
        <time>2026-08-30T13:10:39Z</time>
      </trkpt>
      <trkpt lat="48.779446" lon="9.901322">
        <ele>580.8</ele>
        <time>2026-08-30T13:10:40Z</time>
      </trkpt>
      <trkpt lat="48.779476" lon="9.901304">
        <ele>580</ele>
        <time>2026-08-30T13:10:41Z</time>
      </trkpt>
      <trkpt lat="48.779495" lon="9.901290">
        <ele>579</ele>
        <time>2026-08-30T13:10:42Z</time>
      </trkpt>
      <trkpt lat="48.779510" lon="9.901275">
        <ele>578.2</ele>
        <time>2026-08-30T13:10:43Z</time>
      </trkpt>
      <trkpt lat="48.779516" lon="9.901264">
        <ele>577.6</ele>
        <time>2026-08-30T13:10:44Z</time>
      </trkpt>
      <trkpt lat="48.779516" lon="9.901264">
        <ele>577</ele>
        <time>2026-08-30T13:10:45Z</time>
      </trkpt>
      <trkpt lat="48.779516" lon="9.901264">
        <ele>576.6</ele>
        <time>2026-08-30T13:10:46Z</time>
      </trkpt>
      <trkpt lat="48.779516" lon="9.901264">
        <ele>576.2</ele>
        <time>2026-08-30T13:10:47Z</time>
      </trkpt>
      <trkpt lat="48.779516" lon="9.901264">
        <ele>575.8</ele>
        <time>2026-08-30T13:10:48Z</time>
      </trkpt>
      <trkpt lat="48.779516" lon="9.901264">
        <ele>575.6</ele>
        <time>2026-08-30T13:10:49Z</time>
      </trkpt>
      <trkpt lat="48.779517" lon="9.901262">
        <ele>575.4</ele>
        <time>2026-08-30T13:10:50Z</time>
      </trkpt>
      <trkpt lat="48.779527" lon="9.901236">
        <ele>575.2</ele>
        <time>2026-08-30T13:10:51Z</time>
      </trkpt>
      <trkpt lat="48.779529" lon="9.901235">
        <ele>574.8</ele>
        <time>2026-08-30T13:10:52Z</time>
      </trkpt>
      <trkpt lat="48.779530" lon="9.901232">
        <ele>574.6</ele>
        <time>2026-08-30T13:10:53Z</time>
      </trkpt>
      <trkpt lat="48.779530" lon="9.901232">
        <ele>574.4</ele>
        <time>2026-08-30T13:10:54Z</time>
      </trkpt>
      <trkpt lat="48.779530" lon="9.901232">
        <ele>574.2</ele>
        <time>2026-08-30T13:10:55Z</time>
      </trkpt>
      <trkpt lat="48.779531" lon="9.901227">
        <ele>574</ele>
        <time>2026-08-30T13:10:56Z</time>
      </trkpt>
      <trkpt lat="48.779530" lon="9.901232">
        <ele>573.8</ele>
        <time>2026-08-30T13:10:57Z</time>
      </trkpt>
      <trkpt lat="48.779530" lon="9.901232">
        <ele>573.6</ele>
        <time>2026-08-30T13:10:58Z</time>
      </trkpt>
      <trkpt lat="48.779530" lon="9.901232">
        <ele>573.2</ele>
        <time>2026-08-30T13:10:59Z</time>
      </trkpt>
      <trkpt lat="48.779530" lon="9.901232">
        <ele>573</ele>
        <time>2026-08-30T13:11:00Z</time>
      </trkpt>
      <trkpt lat="48.779530" lon="9.901232">
        <ele>572.8</ele>
        <time>2026-08-30T13:11:01Z</time>
      </trkpt>
      <trkpt lat="48.779527" lon="9.901222">
        <ele>572.6</ele>
        <time>2026-08-30T13:11:02Z</time>
      </trkpt>
      <trkpt lat="48.779516" lon="9.901206">
        <ele>572.4</ele>
        <time>2026-08-30T13:11:03Z</time>
      </trkpt>
      <trkpt lat="48.779519" lon="9.901202">
        <ele>572.4</ele>
        <time>2026-08-30T13:11:04Z</time>
      </trkpt>
      <trkpt lat="48.779520" lon="9.901199">
        <ele>572.4</ele>
        <time>2026-08-30T13:11:05Z</time>
      </trkpt>
      <trkpt lat="48.779517" lon="9.901191">
        <ele>572.2</ele>
        <time>2026-08-30T13:11:06Z</time>
      </trkpt>
      <trkpt lat="48.779517" lon="9.901191">
        <ele>572.2</ele>
        <time>2026-08-30T13:11:07Z</time>
      </trkpt>
      <trkpt lat="48.779517" lon="9.901191">
        <ele>572.2</ele>
        <time>2026-08-30T13:11:08Z</time>
      </trkpt>
      <trkpt lat="48.779517" lon="9.901191">
        <ele>572.2</ele>
        <time>2026-08-30T13:11:09Z</time>
      </trkpt>
      <trkpt lat="48.779517" lon="9.901191">
        <ele>572.2</ele>
        <time>2026-08-30T13:11:10Z</time>
      </trkpt>
      <trkpt lat="48.779517" lon="9.901191">
        <ele>572.2</ele>
        <time>2026-08-30T13:11:11Z</time>
      </trkpt>
      <trkpt lat="48.779517" lon="9.901191">
        <ele>572.2</ele>
        <time>2026-08-30T13:11:12Z</time>
      </trkpt>
      <trkpt lat="48.779517" lon="9.901191">
        <ele>572.2</ele>
        <time>2026-08-30T13:11:13Z</time>
      </trkpt>
      <trkpt lat="48.779517" lon="9.901191">
        <ele>572.2</ele>
        <time>2026-08-30T13:11:14Z</time>
      </trkpt>
      <trkpt lat="48.779517" lon="9.901191">
        <ele>572.2</ele>
        <time>2026-08-30T13:11:15Z</time>
      </trkpt>
      <trkpt lat="48.779517" lon="9.901191">
        <ele>572.2</ele>
        <time>2026-08-30T13:11:16Z</time>
      </trkpt>
      <trkpt lat="48.779517" lon="9.901191">
        <ele>572.2</ele>
        <time>2026-08-30T13:11:17Z</time>
      </trkpt>
      <trkpt lat="48.779517" lon="9.901191">
        <ele>572</ele>
        <time>2026-08-30T13:11:18Z</time>
      </trkpt>
      <trkpt lat="48.779517" lon="9.901191">
        <ele>572</ele>
        <time>2026-08-30T13:11:19Z</time>
      </trkpt>
      <trkpt lat="48.779517" lon="9.901191">
        <ele>572</ele>
        <time>2026-08-30T13:11:20Z</time>
      </trkpt>
      <trkpt lat="48.779517" lon="9.901191">
        <ele>572</ele>
        <time>2026-08-30T13:11:21Z</time>
      </trkpt>
      <trkpt lat="48.779517" lon="9.901191">
        <ele>572</ele>
        <time>2026-08-30T13:11:22Z</time>
      </trkpt>
      <trkpt lat="48.779517" lon="9.901191">
        <ele>572</ele>
        <time>2026-08-30T13:11:23Z</time>
      </trkpt>
      <trkpt lat="48.779517" lon="9.901191">
        <ele>572</ele>
        <time>2026-08-30T13:11:24Z</time>
      </trkpt>
      <trkpt lat="48.779517" lon="9.901191">
        <ele>571.8</ele>
        <time>2026-08-30T13:11:25Z</time>
      </trkpt>
      <trkpt lat="48.779517" lon="9.901191">
        <ele>571.8</ele>
        <time>2026-08-30T13:11:26Z</time>
      </trkpt>
      <trkpt lat="48.779517" lon="9.901191">
        <ele>571.8</ele>
        <time>2026-08-30T13:11:27Z</time>
      </trkpt>
      <trkpt lat="48.779517" lon="9.901191">
        <ele>571.8</ele>
        <time>2026-08-30T13:11:28Z</time>
      </trkpt>
      <trkpt lat="48.779519" lon="9.901185">
        <ele>571.8</ele>
        <time>2026-08-30T13:11:29Z</time>
      </trkpt>
      <trkpt lat="48.779536" lon="9.901165">
        <ele>571.8</ele>
        <time>2026-08-30T13:11:30Z</time>
      </trkpt>
      <trkpt lat="48.779556" lon="9.901154">
        <ele>571.8</ele>
        <time>2026-08-30T13:11:31Z</time>
      </trkpt>
      <trkpt lat="48.779584" lon="9.901149">
        <ele>571.6</ele>
        <time>2026-08-30T13:11:32Z</time>
      </trkpt>
      <trkpt lat="48.779614" lon="9.901153">
        <ele>571.6</ele>
        <time>2026-08-30T13:11:33Z</time>
      </trkpt>
      <trkpt lat="48.779645" lon="9.901156">
        <ele>571.4</ele>
        <time>2026-08-30T13:11:34Z</time>
      </trkpt>
      <trkpt lat="48.779676" lon="9.901150">
        <ele>571.2</ele>
        <time>2026-08-30T13:11:35Z</time>
      </trkpt>
      <trkpt lat="48.779711" lon="9.901139">
        <ele>571</ele>
        <time>2026-08-30T13:11:36Z</time>
      </trkpt>
      <trkpt lat="48.779747" lon="9.901116">
        <ele>570.6</ele>
        <time>2026-08-30T13:11:37Z</time>
      </trkpt>
      <trkpt lat="48.779783" lon="9.901094">
        <ele>570.2</ele>
        <time>2026-08-30T13:11:38Z</time>
      </trkpt>
      <trkpt lat="48.779820" lon="9.901070">
        <ele>569.6</ele>
        <time>2026-08-30T13:11:39Z</time>
      </trkpt>
      <trkpt lat="48.779858" lon="9.901045">
        <ele>569.2</ele>
        <time>2026-08-30T13:11:40Z</time>
      </trkpt>
      <trkpt lat="48.779895" lon="9.901020">
        <ele>568.6</ele>
        <time>2026-08-30T13:11:41Z</time>
      </trkpt>
      <trkpt lat="48.779935" lon="9.900997">
        <ele>568.2</ele>
        <time>2026-08-30T13:11:42Z</time>
      </trkpt>
      <trkpt lat="48.779971" lon="9.900972">
        <ele>567.6</ele>
        <time>2026-08-30T13:11:43Z</time>
      </trkpt>
      <trkpt lat="48.780008" lon="9.900943">
        <ele>567</ele>
        <time>2026-08-30T13:11:44Z</time>
      </trkpt>
      <trkpt lat="48.780049" lon="9.900914">
        <ele>566.4</ele>
        <time>2026-08-30T13:11:45Z</time>
      </trkpt>
      <trkpt lat="48.780089" lon="9.900886">
        <ele>566</ele>
        <time>2026-08-30T13:11:46Z</time>
      </trkpt>
      <trkpt lat="48.780129" lon="9.900858">
        <ele>565.4</ele>
        <time>2026-08-30T13:11:47Z</time>
      </trkpt>
      <trkpt lat="48.780168" lon="9.900830">
        <ele>564.8</ele>
        <time>2026-08-30T13:11:48Z</time>
      </trkpt>
      <trkpt lat="48.780205" lon="9.900799">
        <ele>564</ele>
        <time>2026-08-30T13:11:49Z</time>
      </trkpt>
      <trkpt lat="48.780245" lon="9.900771">
        <ele>563.4</ele>
        <time>2026-08-30T13:11:50Z</time>
      </trkpt>
      <trkpt lat="48.780286" lon="9.900748">
        <ele>562.8</ele>
        <time>2026-08-30T13:11:51Z</time>
      </trkpt>
      <trkpt lat="48.780325" lon="9.900724">
        <ele>562</ele>
        <time>2026-08-30T13:11:52Z</time>
      </trkpt>
      <trkpt lat="48.780363" lon="9.900703">
        <ele>561.2</ele>
        <time>2026-08-30T13:11:53Z</time>
      </trkpt>
      <trkpt lat="48.780399" lon="9.900687">
        <ele>560.4</ele>
        <time>2026-08-30T13:11:54Z</time>
      </trkpt>
      <trkpt lat="48.780436" lon="9.900676">
        <ele>559.6</ele>
        <time>2026-08-30T13:11:55Z</time>
      </trkpt>
      <trkpt lat="48.780476" lon="9.900675">
        <ele>558.8</ele>
        <time>2026-08-30T13:11:56Z</time>
      </trkpt>
      <trkpt lat="48.780514" lon="9.900675">
        <ele>558.2</ele>
        <time>2026-08-30T13:11:57Z</time>
      </trkpt>
      <trkpt lat="48.780551" lon="9.900674">
        <ele>557.4</ele>
        <time>2026-08-30T13:11:58Z</time>
      </trkpt>
      <trkpt lat="48.780585" lon="9.900670">
        <ele>556.6</ele>
        <time>2026-08-30T13:11:59Z</time>
      </trkpt>
      <trkpt lat="48.780619" lon="9.900663">
        <ele>556</ele>
        <time>2026-08-30T13:12:00Z</time>
      </trkpt>
      <trkpt lat="48.780650" lon="9.900651">
        <ele>555.4</ele>
        <time>2026-08-30T13:12:01Z</time>
      </trkpt>
      <trkpt lat="48.780678" lon="9.900631">
        <ele>555</ele>
        <time>2026-08-30T13:12:02Z</time>
      </trkpt>
      <trkpt lat="48.780699" lon="9.900596">
        <ele>554.4</ele>
        <time>2026-08-30T13:12:03Z</time>
      </trkpt>
      <trkpt lat="48.780712" lon="9.900552">
        <ele>553.6</ele>
        <time>2026-08-30T13:12:04Z</time>
      </trkpt>
      <trkpt lat="48.780716" lon="9.900522">
        <ele>553</ele>
        <time>2026-08-30T13:12:05Z</time>
      </trkpt>
      <trkpt lat="48.780716" lon="9.900497">
        <ele>552.6</ele>
        <time>2026-08-30T13:12:06Z</time>
      </trkpt>
      <trkpt lat="48.780712" lon="9.900478">
        <ele>552.2</ele>
        <time>2026-08-30T13:12:07Z</time>
      </trkpt>
      <trkpt lat="48.780711" lon="9.900471">
        <ele>551.8</ele>
        <time>2026-08-30T13:12:08Z</time>
      </trkpt>
      <trkpt lat="48.780711" lon="9.900470">
        <ele>551.4</ele>
        <time>2026-08-30T13:12:09Z</time>
      </trkpt>
      <trkpt lat="48.780709" lon="9.900462">
        <ele>551.2</ele>
        <time>2026-08-30T13:12:10Z</time>
      </trkpt>
      <trkpt lat="48.780708" lon="9.900466">
        <ele>551</ele>
        <time>2026-08-30T13:12:11Z</time>
      </trkpt>
      <trkpt lat="48.780703" lon="9.900465">
        <ele>550.8</ele>
        <time>2026-08-30T13:12:12Z</time>
      </trkpt>
      <trkpt lat="48.780702" lon="9.900465">
        <ele>550.8</ele>
        <time>2026-08-30T13:12:13Z</time>
      </trkpt>
      <trkpt lat="48.780702" lon="9.900465">
        <ele>550.6</ele>
        <time>2026-08-30T13:12:14Z</time>
      </trkpt>
      <trkpt lat="48.780701" lon="9.900465">
        <ele>550.4</ele>
        <time>2026-08-30T13:12:15Z</time>
      </trkpt>
      <trkpt lat="48.780697" lon="9.900462">
        <ele>550.2</ele>
        <time>2026-08-30T13:12:16Z</time>
      </trkpt>
      <trkpt lat="48.780697" lon="9.900467">
        <ele>550.2</ele>
        <time>2026-08-30T13:12:17Z</time>
      </trkpt>
      <trkpt lat="48.780702" lon="9.900465">
        <ele>550</ele>
        <time>2026-08-30T13:12:18Z</time>
      </trkpt>
      <trkpt lat="48.780702" lon="9.900465">
        <ele>549.8</ele>
        <time>2026-08-30T13:12:19Z</time>
      </trkpt>
      <trkpt lat="48.780702" lon="9.900465">
        <ele>549.8</ele>
        <time>2026-08-30T13:12:20Z</time>
      </trkpt>
      <trkpt lat="48.780702" lon="9.900465">
        <ele>550</ele>
        <time>2026-08-30T13:12:21Z</time>
      </trkpt>
      <trkpt lat="48.780702" lon="9.900465">
        <ele>550</ele>
        <time>2026-08-30T13:12:22Z</time>
      </trkpt>
      <trkpt lat="48.780702" lon="9.900465">
        <ele>550.2</ele>
        <time>2026-08-30T13:12:23Z</time>
      </trkpt>
      <trkpt lat="48.780702" lon="9.900465">
        <ele>550.2</ele>
        <time>2026-08-30T13:12:24Z</time>
      </trkpt>
      <trkpt lat="48.780699" lon="9.900470">
        <ele>550.2</ele>
        <time>2026-08-30T13:12:25Z</time>
      </trkpt>
      <trkpt lat="48.780707" lon="9.900473">
        <ele>550.2</ele>
        <time>2026-08-30T13:12:26Z</time>
      </trkpt>
      <trkpt lat="48.780717" lon="9.900454">
        <ele>550</ele>
        <time>2026-08-30T13:12:27Z</time>
      </trkpt>
      <trkpt lat="48.780721" lon="9.900423">
        <ele>550</ele>
        <time>2026-08-30T13:12:28Z</time>
      </trkpt>
      <trkpt lat="48.780721" lon="9.900386">
        <ele>550</ele>
        <time>2026-08-30T13:12:29Z</time>
      </trkpt>
      <trkpt lat="48.780716" lon="9.900345">
        <ele>549.8</ele>
        <time>2026-08-30T13:12:30Z</time>
      </trkpt>
      <trkpt lat="48.780705" lon="9.900301">
        <ele>549.6</ele>
        <time>2026-08-30T13:12:31Z</time>
      </trkpt>
      <trkpt lat="48.780696" lon="9.900253">
        <ele>549.2</ele>
        <time>2026-08-30T13:12:32Z</time>
      </trkpt>
      <trkpt lat="48.780693" lon="9.900208">
        <ele>549</ele>
        <time>2026-08-30T13:12:33Z</time>
      </trkpt>
      <trkpt lat="48.780693" lon="9.900161">
        <ele>548.6</ele>
        <time>2026-08-30T13:12:34Z</time>
      </trkpt>
      <trkpt lat="48.780705" lon="9.900113">
        <ele>548</ele>
        <time>2026-08-30T13:12:35Z</time>
      </trkpt>
      <trkpt lat="48.780720" lon="9.900069">
        <ele>547.6</ele>
        <time>2026-08-30T13:12:36Z</time>
      </trkpt>
      <trkpt lat="48.780727" lon="9.900020">
        <ele>547.2</ele>
        <time>2026-08-30T13:12:37Z</time>
      </trkpt>
      <trkpt lat="48.780730" lon="9.899975">
        <ele>546.6</ele>
        <time>2026-08-30T13:12:38Z</time>
      </trkpt>
      <trkpt lat="48.780725" lon="9.899933">
        <ele>546</ele>
        <time>2026-08-30T13:12:39Z</time>
      </trkpt>
      <trkpt lat="48.780715" lon="9.899889">
        <ele>545.2</ele>
        <time>2026-08-30T13:12:40Z</time>
      </trkpt>
      <trkpt lat="48.780713" lon="9.899839">
        <ele>544.4</ele>
        <time>2026-08-30T13:12:41Z</time>
      </trkpt>
      <trkpt lat="48.780703" lon="9.899795">
        <ele>543.8</ele>
        <time>2026-08-30T13:12:42Z</time>
      </trkpt>
      <trkpt lat="48.780700" lon="9.899745">
        <ele>543.2</ele>
        <time>2026-08-30T13:12:43Z</time>
      </trkpt>
      <trkpt lat="48.780694" lon="9.899689">
        <ele>542.4</ele>
        <time>2026-08-30T13:12:44Z</time>
      </trkpt>
      <trkpt lat="48.780691" lon="9.899633">
        <ele>541.4</ele>
        <time>2026-08-30T13:12:45Z</time>
      </trkpt>
      <trkpt lat="48.780683" lon="9.899575">
        <ele>540.8</ele>
        <time>2026-08-30T13:12:46Z</time>
      </trkpt>
      <trkpt lat="48.780676" lon="9.899516">
        <ele>540</ele>
        <time>2026-08-30T13:12:47Z</time>
      </trkpt>
      <trkpt lat="48.780673" lon="9.899460">
        <ele>539.2</ele>
        <time>2026-08-30T13:12:48Z</time>
      </trkpt>
      <trkpt lat="48.780664" lon="9.899412">
        <ele>538.6</ele>
        <time>2026-08-30T13:12:49Z</time>
      </trkpt>
      <trkpt lat="48.780660" lon="9.899368">
        <ele>537.6</ele>
        <time>2026-08-30T13:12:50Z</time>
      </trkpt>
      <trkpt lat="48.780656" lon="9.899329">
        <ele>537</ele>
        <time>2026-08-30T13:12:51Z</time>
      </trkpt>
      <trkpt lat="48.780654" lon="9.899287">
        <ele>536.4</ele>
        <time>2026-08-30T13:12:52Z</time>
      </trkpt>
      <trkpt lat="48.780646" lon="9.899240">
        <ele>535.6</ele>
        <time>2026-08-30T13:12:53Z</time>
      </trkpt>
      <trkpt lat="48.780639" lon="9.899192">
        <ele>535</ele>
        <time>2026-08-30T13:12:54Z</time>
      </trkpt>
      <trkpt lat="48.780636" lon="9.899146">
        <ele>534.2</ele>
        <time>2026-08-30T13:12:55Z</time>
      </trkpt>
      <trkpt lat="48.780636" lon="9.899111">
        <ele>533.6</ele>
        <time>2026-08-30T13:12:56Z</time>
      </trkpt>
      <trkpt lat="48.780629" lon="9.899065">
        <ele>533</ele>
        <time>2026-08-30T13:12:57Z</time>
      </trkpt>
      <trkpt lat="48.780627" lon="9.899015">
        <ele>532.2</ele>
        <time>2026-08-30T13:12:58Z</time>
      </trkpt>
      <trkpt lat="48.780612" lon="9.898966">
        <ele>531.6</ele>
        <time>2026-08-30T13:12:59Z</time>
      </trkpt>
      <trkpt lat="48.780607" lon="9.898922">
        <ele>531.2</ele>
        <time>2026-08-30T13:13:00Z</time>
      </trkpt>
      <trkpt lat="48.780600" lon="9.898886">
        <ele>530.4</ele>
        <time>2026-08-30T13:13:01Z</time>
      </trkpt>
      <trkpt lat="48.780594" lon="9.898847">
        <ele>529.8</ele>
        <time>2026-08-30T13:13:02Z</time>
      </trkpt>
      <trkpt lat="48.780586" lon="9.898810">
        <ele>529.2</ele>
        <time>2026-08-30T13:13:03Z</time>
      </trkpt>
      <trkpt lat="48.780584" lon="9.898764">
        <ele>528.6</ele>
        <time>2026-08-30T13:13:04Z</time>
      </trkpt>
      <trkpt lat="48.780577" lon="9.898716">
        <ele>528</ele>
        <time>2026-08-30T13:13:05Z</time>
      </trkpt>
      <trkpt lat="48.780569" lon="9.898678">
        <ele>527.2</ele>
        <time>2026-08-30T13:13:06Z</time>
      </trkpt>
      <trkpt lat="48.780565" lon="9.898647">
        <ele>526.8</ele>
        <time>2026-08-30T13:13:07Z</time>
      </trkpt>
      <trkpt lat="48.780560" lon="9.898614">
        <ele>526.2</ele>
        <time>2026-08-30T13:13:08Z</time>
      </trkpt>
      <trkpt lat="48.780551" lon="9.898600">
        <ele>525.6</ele>
        <time>2026-08-30T13:13:09Z</time>
      </trkpt>
      <trkpt lat="48.780545" lon="9.898582">
        <ele>525.2</ele>
        <time>2026-08-30T13:13:10Z</time>
      </trkpt>
      <trkpt lat="48.780545" lon="9.898581">
        <ele>524.8</ele>
        <time>2026-08-30T13:13:11Z</time>
      </trkpt>
      <trkpt lat="48.780545" lon="9.898581">
        <ele>524.4</ele>
        <time>2026-08-30T13:13:12Z</time>
      </trkpt>
      <trkpt lat="48.780545" lon="9.898581">
        <ele>524</ele>
        <time>2026-08-30T13:13:13Z</time>
      </trkpt>
      <trkpt lat="48.780545" lon="9.898578">
        <ele>523.8</ele>
        <time>2026-08-30T13:13:14Z</time>
      </trkpt>
      <trkpt lat="48.780539" lon="9.898533">
        <ele>523.6</ele>
        <time>2026-08-30T13:13:15Z</time>
      </trkpt>
      <trkpt lat="48.780531" lon="9.898511">
        <ele>523.4</ele>
        <time>2026-08-30T13:13:16Z</time>
      </trkpt>
      <trkpt lat="48.780531" lon="9.898509">
        <ele>523.4</ele>
        <time>2026-08-30T13:13:17Z</time>
      </trkpt>
      <trkpt lat="48.780533" lon="9.898508">
        <ele>523.2</ele>
        <time>2026-08-30T13:13:18Z</time>
      </trkpt>
      <trkpt lat="48.780533" lon="9.898507">
        <ele>523</ele>
        <time>2026-08-30T13:13:19Z</time>
      </trkpt>
      <trkpt lat="48.780533" lon="9.898507">
        <ele>523</ele>
        <time>2026-08-30T13:13:20Z</time>
      </trkpt>
      <trkpt lat="48.780533" lon="9.898507">
        <ele>522.8</ele>
        <time>2026-08-30T13:13:21Z</time>
      </trkpt>
      <trkpt lat="48.780533" lon="9.898507">
        <ele>522.6</ele>
        <time>2026-08-30T13:13:22Z</time>
      </trkpt>
      <trkpt lat="48.780533" lon="9.898507">
        <ele>522.6</ele>
        <time>2026-08-30T13:13:23Z</time>
      </trkpt>
      <trkpt lat="48.780534" lon="9.898497">
        <ele>522.4</ele>
        <time>2026-08-30T13:13:24Z</time>
      </trkpt>
      <trkpt lat="48.780534" lon="9.898455">
        <ele>522.2</ele>
        <time>2026-08-30T13:13:25Z</time>
      </trkpt>
      <trkpt lat="48.780528" lon="9.898418">
        <ele>522</ele>
        <time>2026-08-30T13:13:26Z</time>
      </trkpt>
      <trkpt lat="48.780526" lon="9.898386">
        <ele>521.8</ele>
        <time>2026-08-30T13:13:27Z</time>
      </trkpt>
      <trkpt lat="48.780521" lon="9.898349">
        <ele>521.6</ele>
        <time>2026-08-30T13:13:28Z</time>
      </trkpt>
      <trkpt lat="48.780515" lon="9.898314">
        <ele>521.2</ele>
        <time>2026-08-30T13:13:29Z</time>
      </trkpt>
      <trkpt lat="48.780510" lon="9.898283">
        <ele>521</ele>
        <time>2026-08-30T13:13:30Z</time>
      </trkpt>
      <trkpt lat="48.780503" lon="9.898249">
        <ele>520.6</ele>
        <time>2026-08-30T13:13:31Z</time>
      </trkpt>
      <trkpt lat="48.780497" lon="9.898219">
        <ele>520.2</ele>
        <time>2026-08-30T13:13:32Z</time>
      </trkpt>
      <trkpt lat="48.780493" lon="9.898181">
        <ele>520</ele>
        <time>2026-08-30T13:13:33Z</time>
      </trkpt>
      <trkpt lat="48.780495" lon="9.898140">
        <ele>519.6</ele>
        <time>2026-08-30T13:13:34Z</time>
      </trkpt>
      <trkpt lat="48.780498" lon="9.898104">
        <ele>519.4</ele>
        <time>2026-08-30T13:13:35Z</time>
      </trkpt>
      <trkpt lat="48.780506" lon="9.898072">
        <ele>519</ele>
        <time>2026-08-30T13:13:36Z</time>
      </trkpt>
      <trkpt lat="48.780519" lon="9.898047">
        <ele>518.6</ele>
        <time>2026-08-30T13:13:37Z</time>
      </trkpt>
      <trkpt lat="48.780534" lon="9.898019">
        <ele>518.2</ele>
        <time>2026-08-30T13:13:38Z</time>
      </trkpt>
      <trkpt lat="48.780543" lon="9.897985">
        <ele>517.8</ele>
        <time>2026-08-30T13:13:39Z</time>
      </trkpt>
      <trkpt lat="48.780552" lon="9.897941">
        <ele>517.2</ele>
        <time>2026-08-30T13:13:40Z</time>
      </trkpt>
      <trkpt lat="48.780563" lon="9.897893">
        <ele>516.6</ele>
        <time>2026-08-30T13:13:41Z</time>
      </trkpt>
      <trkpt lat="48.780575" lon="9.897847">
        <ele>515.6</ele>
        <time>2026-08-30T13:13:42Z</time>
      </trkpt>
      <trkpt lat="48.780580" lon="9.897804">
        <ele>515</ele>
        <time>2026-08-30T13:13:43Z</time>
      </trkpt>
      <trkpt lat="48.780589" lon="9.897761">
        <ele>514.2</ele>
        <time>2026-08-30T13:13:44Z</time>
      </trkpt>
      <trkpt lat="48.780602" lon="9.897726">
        <ele>513.4</ele>
        <time>2026-08-30T13:13:45Z</time>
      </trkpt>
      <trkpt lat="48.780625" lon="9.897706">
        <ele>512.6</ele>
        <time>2026-08-30T13:13:46Z</time>
      </trkpt>
      <trkpt lat="48.780654" lon="9.897693">
        <ele>512</ele>
        <time>2026-08-30T13:13:47Z</time>
      </trkpt>
      <trkpt lat="48.780677" lon="9.897673">
        <ele>511</ele>
        <time>2026-08-30T13:13:48Z</time>
      </trkpt>
      <trkpt lat="48.780696" lon="9.897661">
        <ele>510.4</ele>
        <time>2026-08-30T13:13:49Z</time>
      </trkpt>
      <trkpt lat="48.780713" lon="9.897646">
        <ele>509.8</ele>
        <time>2026-08-30T13:13:50Z</time>
      </trkpt>
      <trkpt lat="48.780732" lon="9.897637">
        <ele>509.2</ele>
        <time>2026-08-30T13:13:51Z</time>
      </trkpt>
      <trkpt lat="48.780745" lon="9.897632">
        <ele>508.6</ele>
        <time>2026-08-30T13:13:52Z</time>
      </trkpt>
      <trkpt lat="48.780766" lon="9.897615">
        <ele>507.8</ele>
        <time>2026-08-30T13:13:53Z</time>
      </trkpt>
      <trkpt lat="48.780789" lon="9.897589">
        <ele>507</ele>
        <time>2026-08-30T13:13:54Z</time>
      </trkpt>
      <trkpt lat="48.780810" lon="9.897574">
        <ele>506.4</ele>
        <time>2026-08-30T13:13:55Z</time>
      </trkpt>
      <trkpt lat="48.780837" lon="9.897568">
        <ele>505.8</ele>
        <time>2026-08-30T13:13:56Z</time>
      </trkpt>
      <trkpt lat="48.780866" lon="9.897557">
        <ele>505</ele>
        <time>2026-08-30T13:13:57Z</time>
      </trkpt>
      <trkpt lat="48.780902" lon="9.897540">
        <ele>504.4</ele>
        <time>2026-08-30T13:13:58Z</time>
      </trkpt>
      <trkpt lat="48.780936" lon="9.897513">
        <ele>503.8</ele>
        <time>2026-08-30T13:13:59Z</time>
      </trkpt>
      <trkpt lat="48.780972" lon="9.897483">
        <ele>503.2</ele>
        <time>2026-08-30T13:14:00Z</time>
      </trkpt>
      <trkpt lat="48.781004" lon="9.897458">
        <ele>502.6</ele>
        <time>2026-08-30T13:14:01Z</time>
      </trkpt>
      <trkpt lat="48.781028" lon="9.897432">
        <ele>502</ele>
        <time>2026-08-30T13:14:02Z</time>
      </trkpt>
      <trkpt lat="48.781047" lon="9.897407">
        <ele>501.2</ele>
        <time>2026-08-30T13:14:03Z</time>
      </trkpt>
      <trkpt lat="48.781060" lon="9.897383">
        <ele>500.8</ele>
        <time>2026-08-30T13:14:04Z</time>
      </trkpt>
      <trkpt lat="48.781069" lon="9.897342">
        <ele>500.2</ele>
        <time>2026-08-30T13:14:05Z</time>
      </trkpt>
      <trkpt lat="48.781069" lon="9.897310">
        <ele>499.8</ele>
        <time>2026-08-30T13:14:06Z</time>
      </trkpt>
      <trkpt lat="48.781070" lon="9.897291">
        <ele>499.4</ele>
        <time>2026-08-30T13:14:07Z</time>
      </trkpt>
      <trkpt lat="48.781078" lon="9.897281">
        <ele>499</ele>
        <time>2026-08-30T13:14:08Z</time>
      </trkpt>
      <trkpt lat="48.781087" lon="9.897281">
        <ele>498.8</ele>
        <time>2026-08-30T13:14:09Z</time>
      </trkpt>
      <trkpt lat="48.781099" lon="9.897291">
        <ele>498.6</ele>
        <time>2026-08-30T13:14:10Z</time>
      </trkpt>
      <trkpt lat="48.781109" lon="9.897300">
        <ele>498.6</ele>
        <time>2026-08-30T13:14:11Z</time>
      </trkpt>
      <trkpt lat="48.781130" lon="9.897313">
        <ele>498.4</ele>
        <time>2026-08-30T13:14:12Z</time>
      </trkpt>
      <trkpt lat="48.781158" lon="9.897315">
        <ele>498.2</ele>
        <time>2026-08-30T13:14:13Z</time>
      </trkpt>
      <trkpt lat="48.781191" lon="9.897312">
        <ele>498</ele>
        <time>2026-08-30T13:14:14Z</time>
      </trkpt>
      <trkpt lat="48.781229" lon="9.897297">
        <ele>497.8</ele>
        <time>2026-08-30T13:14:15Z</time>
      </trkpt>
      <trkpt lat="48.781268" lon="9.897278">
        <ele>497.4</ele>
        <time>2026-08-30T13:14:16Z</time>
      </trkpt>
      <trkpt lat="48.781303" lon="9.897253">
        <ele>497.2</ele>
        <time>2026-08-30T13:14:17Z</time>
      </trkpt>
      <trkpt lat="48.781347" lon="9.897225">
        <ele>496.8</ele>
        <time>2026-08-30T13:14:18Z</time>
      </trkpt>
      <trkpt lat="48.781391" lon="9.897194">
        <ele>496.2</ele>
        <time>2026-08-30T13:14:19Z</time>
      </trkpt>
      <trkpt lat="48.781432" lon="9.897153">
        <ele>495.6</ele>
        <time>2026-08-30T13:14:20Z</time>
      </trkpt>
      <trkpt lat="48.781469" lon="9.897107">
        <ele>495</ele>
        <time>2026-08-30T13:14:21Z</time>
      </trkpt>
      <trkpt lat="48.781507" lon="9.897050">
        <ele>494.4</ele>
        <time>2026-08-30T13:14:22Z</time>
      </trkpt>
      <trkpt lat="48.781548" lon="9.896985">
        <ele>493.8</ele>
        <time>2026-08-30T13:14:23Z</time>
      </trkpt>
      <trkpt lat="48.781585" lon="9.896917">
        <ele>493</ele>
        <time>2026-08-30T13:14:24Z</time>
      </trkpt>
      <trkpt lat="48.781624" lon="9.896842">
        <ele>492.4</ele>
        <time>2026-08-30T13:14:25Z</time>
      </trkpt>
      <trkpt lat="48.781668" lon="9.896767">
        <ele>491.6</ele>
        <time>2026-08-30T13:14:26Z</time>
      </trkpt>
      <trkpt lat="48.781713" lon="9.896691">
        <ele>491</ele>
        <time>2026-08-30T13:14:27Z</time>
      </trkpt>
      <trkpt lat="48.781754" lon="9.896607">
        <ele>490.2</ele>
        <time>2026-08-30T13:14:28Z</time>
      </trkpt>
      <trkpt lat="48.781782" lon="9.896513">
        <ele>489.4</ele>
        <time>2026-08-30T13:14:29Z</time>
      </trkpt>
      <trkpt lat="48.781815" lon="9.896413">
        <ele>488.6</ele>
        <time>2026-08-30T13:14:30Z</time>
      </trkpt>
      <trkpt lat="48.781843" lon="9.896317">
        <ele>488</ele>
        <time>2026-08-30T13:14:31Z</time>
      </trkpt>
      <trkpt lat="48.781868" lon="9.896219">
        <ele>487.2</ele>
        <time>2026-08-30T13:14:32Z</time>
      </trkpt>
      <trkpt lat="48.781892" lon="9.896119">
        <ele>486.6</ele>
        <time>2026-08-30T13:14:33Z</time>
      </trkpt>
      <trkpt lat="48.781917" lon="9.896024">
        <ele>485.8</ele>
        <time>2026-08-30T13:14:34Z</time>
      </trkpt>
      <trkpt lat="48.781939" lon="9.895925">
        <ele>485.2</ele>
        <time>2026-08-30T13:14:35Z</time>
      </trkpt>
      <trkpt lat="48.781954" lon="9.895827">
        <ele>484.6</ele>
        <time>2026-08-30T13:14:36Z</time>
      </trkpt>
      <trkpt lat="48.781970" lon="9.895731">
        <ele>484</ele>
        <time>2026-08-30T13:14:37Z</time>
      </trkpt>
      <trkpt lat="48.781979" lon="9.895634">
        <ele>483.4</ele>
        <time>2026-08-30T13:14:38Z</time>
      </trkpt>
      <trkpt lat="48.781987" lon="9.895538">
        <ele>482.8</ele>
        <time>2026-08-30T13:14:39Z</time>
      </trkpt>
      <trkpt lat="48.781989" lon="9.895439">
        <ele>482.2</ele>
        <time>2026-08-30T13:14:40Z</time>
      </trkpt>
      <trkpt lat="48.781989" lon="9.895340">
        <ele>481.8</ele>
        <time>2026-08-30T13:14:41Z</time>
      </trkpt>
      <trkpt lat="48.781988" lon="9.895246">
        <ele>481.2</ele>
        <time>2026-08-30T13:14:42Z</time>
      </trkpt>
      <trkpt lat="48.781985" lon="9.895147">
        <ele>480.6</ele>
        <time>2026-08-30T13:14:43Z</time>
      </trkpt>
      <trkpt lat="48.781977" lon="9.895042">
        <ele>480.2</ele>
        <time>2026-08-30T13:14:44Z</time>
      </trkpt>
      <trkpt lat="48.781969" lon="9.894936">
        <ele>479.4</ele>
        <time>2026-08-30T13:14:45Z</time>
      </trkpt>
      <trkpt lat="48.781965" lon="9.894835">
        <ele>478.8</ele>
        <time>2026-08-30T13:14:46Z</time>
      </trkpt>
      <trkpt lat="48.781963" lon="9.894741">
        <ele>478.2</ele>
        <time>2026-08-30T13:14:47Z</time>
      </trkpt>
      <trkpt lat="48.781958" lon="9.894651">
        <ele>477.6</ele>
        <time>2026-08-30T13:14:48Z</time>
      </trkpt>
      <trkpt lat="48.781946" lon="9.894562">
        <ele>477</ele>
        <time>2026-08-30T13:14:49Z</time>
      </trkpt>
      <trkpt lat="48.781938" lon="9.894468">
        <ele>476.4</ele>
        <time>2026-08-30T13:14:50Z</time>
      </trkpt>
      <trkpt lat="48.781932" lon="9.894381">
        <ele>475.8</ele>
        <time>2026-08-30T13:14:51Z</time>
      </trkpt>
      <trkpt lat="48.781922" lon="9.894301">
        <ele>475.2</ele>
        <time>2026-08-30T13:14:52Z</time>
      </trkpt>
      <trkpt lat="48.781912" lon="9.894227">
        <ele>474.8</ele>
        <time>2026-08-30T13:14:53Z</time>
      </trkpt>
      <trkpt lat="48.781904" lon="9.894167">
        <ele>474.6</ele>
        <time>2026-08-30T13:14:54Z</time>
      </trkpt>
      <trkpt lat="48.781903" lon="9.894117">
        <ele>474.2</ele>
        <time>2026-08-30T13:14:55Z</time>
      </trkpt>
      <trkpt lat="48.781908" lon="9.894084">
        <ele>474</ele>
        <time>2026-08-30T13:14:56Z</time>
      </trkpt>
      <trkpt lat="48.781918" lon="9.894069">
        <ele>474</ele>
        <time>2026-08-30T13:14:57Z</time>
      </trkpt>
      <trkpt lat="48.781931" lon="9.894068">
        <ele>473.8</ele>
        <time>2026-08-30T13:14:58Z</time>
      </trkpt>
      <trkpt lat="48.781949" lon="9.894073">
        <ele>473.8</ele>
        <time>2026-08-30T13:14:59Z</time>
      </trkpt>
      <trkpt lat="48.781972" lon="9.894079">
        <ele>473.6</ele>
        <time>2026-08-30T13:15:00Z</time>
      </trkpt>
      <trkpt lat="48.781997" lon="9.894081">
        <ele>473.6</ele>
        <time>2026-08-30T13:15:01Z</time>
      </trkpt>
      <trkpt lat="48.782022" lon="9.894075">
        <ele>473.6</ele>
        <time>2026-08-30T13:15:02Z</time>
      </trkpt>
      <trkpt lat="48.782048" lon="9.894071">
        <ele>473.4</ele>
        <time>2026-08-30T13:15:03Z</time>
      </trkpt>
      <trkpt lat="48.782080" lon="9.894069">
        <ele>473.4</ele>
        <time>2026-08-30T13:15:04Z</time>
      </trkpt>
      <trkpt lat="48.782113" lon="9.894061">
        <ele>473.2</ele>
        <time>2026-08-30T13:15:05Z</time>
      </trkpt>
      <trkpt lat="48.782148" lon="9.894050">
        <ele>473.2</ele>
        <time>2026-08-30T13:15:06Z</time>
      </trkpt>
      <trkpt lat="48.782186" lon="9.894049">
        <ele>473</ele>
        <time>2026-08-30T13:15:07Z</time>
      </trkpt>
      <trkpt lat="48.782226" lon="9.894048">
        <ele>472.8</ele>
        <time>2026-08-30T13:15:08Z</time>
      </trkpt>
      <trkpt lat="48.782266" lon="9.894038">
        <ele>472.6</ele>
        <time>2026-08-30T13:15:09Z</time>
      </trkpt>
      <trkpt lat="48.782309" lon="9.894021">
        <ele>472.4</ele>
        <time>2026-08-30T13:15:10Z</time>
      </trkpt>
      <trkpt lat="48.782354" lon="9.894012">
        <ele>472</ele>
        <time>2026-08-30T13:15:11Z</time>
      </trkpt>
      <trkpt lat="48.782403" lon="9.894007">
        <ele>471.8</ele>
        <time>2026-08-30T13:15:12Z</time>
      </trkpt>
      <trkpt lat="48.782450" lon="9.893999">
        <ele>471.6</ele>
        <time>2026-08-30T13:15:13Z</time>
      </trkpt>
      <trkpt lat="48.782495" lon="9.893991">
        <ele>471.2</ele>
        <time>2026-08-30T13:15:14Z</time>
      </trkpt>
      <trkpt lat="48.782540" lon="9.893982">
        <ele>471</ele>
        <time>2026-08-30T13:15:15Z</time>
      </trkpt>
      <trkpt lat="48.782582" lon="9.893974">
        <ele>470.8</ele>
        <time>2026-08-30T13:15:16Z</time>
      </trkpt>
      <trkpt lat="48.782622" lon="9.893966">
        <ele>470.6</ele>
        <time>2026-08-30T13:15:17Z</time>
      </trkpt>
      <trkpt lat="48.782663" lon="9.893955">
        <ele>470.4</ele>
        <time>2026-08-30T13:15:18Z</time>
      </trkpt>
      <trkpt lat="48.782701" lon="9.893942">
        <ele>470.2</ele>
        <time>2026-08-30T13:15:19Z</time>
      </trkpt>
      <trkpt lat="48.782729" lon="9.893906">
        <ele>470</ele>
        <time>2026-08-30T13:15:20Z</time>
      </trkpt>
      <trkpt lat="48.782753" lon="9.893860">
        <ele>469.8</ele>
        <time>2026-08-30T13:15:21Z</time>
      </trkpt>
      <trkpt lat="48.782776" lon="9.893816">
        <ele>469.6</ele>
        <time>2026-08-30T13:15:22Z</time>
      </trkpt>
      <trkpt lat="48.782794" lon="9.893764">
        <ele>469.4</ele>
        <time>2026-08-30T13:15:23Z</time>
      </trkpt>
      <trkpt lat="48.782814" lon="9.893707">
        <ele>469.2</ele>
        <time>2026-08-30T13:15:24Z</time>
      </trkpt>
      <trkpt lat="48.782833" lon="9.893665">
        <ele>469</ele>
        <time>2026-08-30T13:15:25Z</time>
      </trkpt>
      <trkpt lat="48.782845" lon="9.893627">
        <ele>468.6</ele>
        <time>2026-08-30T13:15:26Z</time>
      </trkpt>
      <trkpt lat="48.782853" lon="9.893592">
        <ele>468.2</ele>
        <time>2026-08-30T13:15:27Z</time>
      </trkpt>
      <trkpt lat="48.782851" lon="9.893576">
        <ele>468</ele>
        <time>2026-08-30T13:15:28Z</time>
      </trkpt>
      <trkpt lat="48.782851" lon="9.893588">
        <ele>467.6</ele>
        <time>2026-08-30T13:15:29Z</time>
      </trkpt>
      <trkpt lat="48.782850" lon="9.893588">
        <ele>467.4</ele>
        <time>2026-08-30T13:15:30Z</time>
      </trkpt>
      <trkpt lat="48.782850" lon="9.893588">
        <ele>467.2</ele>
        <time>2026-08-30T13:15:31Z</time>
      </trkpt>
      <trkpt lat="48.782850" lon="9.893588">
        <ele>467.2</ele>
        <time>2026-08-30T13:15:32Z</time>
      </trkpt>
      <trkpt lat="48.782850" lon="9.893588">
        <ele>467</ele>
        <time>2026-08-30T13:15:33Z</time>
      </trkpt>
      <trkpt lat="48.782850" lon="9.893588">
        <ele>466.8</ele>
        <time>2026-08-30T13:15:34Z</time>
      </trkpt>
      <trkpt lat="48.782850" lon="9.893588">
        <ele>466.8</ele>
        <time>2026-08-30T13:15:35Z</time>
      </trkpt>
      <trkpt lat="48.782850" lon="9.893588">
        <ele>466.6</ele>
        <time>2026-08-30T13:15:36Z</time>
      </trkpt>
      <trkpt lat="48.782850" lon="9.893588">
        <ele>466.6</ele>
        <time>2026-08-30T13:15:37Z</time>
      </trkpt>
      <trkpt lat="48.782850" lon="9.893588">
        <ele>466.6</ele>
        <time>2026-08-30T13:15:38Z</time>
      </trkpt>
      <trkpt lat="48.782850" lon="9.893588">
        <ele>466.6</ele>
        <time>2026-08-30T13:15:39Z</time>
      </trkpt>
      <trkpt lat="48.782850" lon="9.893588">
        <ele>466.4</ele>
        <time>2026-08-30T13:15:40Z</time>
      </trkpt>
      <trkpt lat="48.782850" lon="9.893588">
        <ele>466.4</ele>
        <time>2026-08-30T13:15:41Z</time>
      </trkpt>
      <trkpt lat="48.782850" lon="9.893588">
        <ele>466.4</ele>
        <time>2026-08-30T13:15:42Z</time>
      </trkpt>
      <trkpt lat="48.782850" lon="9.893588">
        <ele>466.4</ele>
        <time>2026-08-30T13:15:43Z</time>
      </trkpt>
      <trkpt lat="48.782850" lon="9.893588">
        <ele>466.2</ele>
        <time>2026-08-30T13:15:44Z</time>
      </trkpt>
      <trkpt lat="48.782850" lon="9.893588">
        <ele>466.2</ele>
        <time>2026-08-30T13:15:45Z</time>
      </trkpt>
      <trkpt lat="48.782850" lon="9.893588">
        <ele>466.2</ele>
        <time>2026-08-30T13:15:46Z</time>
      </trkpt>
      <trkpt lat="48.782850" lon="9.893588">
        <ele>466.2</ele>
        <time>2026-08-30T13:15:47Z</time>
      </trkpt>
      <trkpt lat="48.782850" lon="9.893588">
        <ele>466.2</ele>
        <time>2026-08-30T13:15:48Z</time>
      </trkpt>
      <trkpt lat="48.782850" lon="9.893588">
        <ele>466.2</ele>
        <time>2026-08-30T13:15:49Z</time>
      </trkpt>
      <trkpt lat="48.782855" lon="9.893586">
        <ele>466.2</ele>
        <time>2026-08-30T13:15:50Z</time>
      </trkpt>
      <trkpt lat="48.782866" lon="9.893575">
        <ele>466.2</ele>
        <time>2026-08-30T13:15:51Z</time>
      </trkpt>
      <trkpt lat="48.782880" lon="9.893572">
        <ele>466</ele>
        <time>2026-08-30T13:15:52Z</time>
      </trkpt>
      <trkpt lat="48.782891" lon="9.893561">
        <ele>466</ele>
        <time>2026-08-30T13:15:53Z</time>
      </trkpt>
      <trkpt lat="48.782909" lon="9.893557">
        <ele>465.8</ele>
        <time>2026-08-30T13:15:54Z</time>
      </trkpt>
      <trkpt lat="48.782924" lon="9.893554">
        <ele>465.8</ele>
        <time>2026-08-30T13:15:55Z</time>
      </trkpt>
      <trkpt lat="48.782940" lon="9.893552">
        <ele>465.6</ele>
        <time>2026-08-30T13:15:56Z</time>
      </trkpt>
      <trkpt lat="48.782957" lon="9.893543">
        <ele>465.4</ele>
        <time>2026-08-30T13:15:57Z</time>
      </trkpt>
      <trkpt lat="48.782973" lon="9.893526">
        <ele>465</ele>
        <time>2026-08-30T13:15:58Z</time>
      </trkpt>
      <trkpt lat="48.782987" lon="9.893501">
        <ele>464.6</ele>
        <time>2026-08-30T13:15:59Z</time>
      </trkpt>
      <trkpt lat="48.783005" lon="9.893476">
        <ele>464.2</ele>
        <time>2026-08-30T13:16:00Z</time>
      </trkpt>
      <trkpt lat="48.783029" lon="9.893457">
        <ele>463.8</ele>
        <time>2026-08-30T13:16:01Z</time>
      </trkpt>
      <trkpt lat="48.783051" lon="9.893446">
        <ele>463.4</ele>
        <time>2026-08-30T13:16:02Z</time>
      </trkpt>
      <trkpt lat="48.783070" lon="9.893438">
        <ele>462.8</ele>
        <time>2026-08-30T13:16:03Z</time>
      </trkpt>
      <trkpt lat="48.783077" lon="9.893432">
        <ele>462.4</ele>
        <time>2026-08-30T13:16:04Z</time>
      </trkpt>
      <trkpt lat="48.783082" lon="9.893435">
        <ele>462</ele>
        <time>2026-08-30T13:16:05Z</time>
      </trkpt>
      <trkpt lat="48.783086" lon="9.893438">
        <ele>461.8</ele>
        <time>2026-08-30T13:16:06Z</time>
      </trkpt>
      <trkpt lat="48.783093" lon="9.893430">
        <ele>461.6</ele>
        <time>2026-08-30T13:16:07Z</time>
      </trkpt>
      <trkpt lat="48.783095" lon="9.893428">
        <ele>461.2</ele>
        <time>2026-08-30T13:16:08Z</time>
      </trkpt>
      <trkpt lat="48.783095" lon="9.893427">
        <ele>461.2</ele>
        <time>2026-08-30T13:16:09Z</time>
      </trkpt>
      <trkpt lat="48.783095" lon="9.893427">
        <ele>461.2</ele>
        <time>2026-08-30T13:16:10Z</time>
      </trkpt>
      <trkpt lat="48.783095" lon="9.893427">
        <ele>461.2</ele>
        <time>2026-08-30T13:16:11Z</time>
      </trkpt>
      <trkpt lat="48.783095" lon="9.893427">
        <ele>461.2</ele>
        <time>2026-08-30T13:16:12Z</time>
      </trkpt>
      <trkpt lat="48.783096" lon="9.893426">
        <ele>461.2</ele>
        <time>2026-08-30T13:16:13Z</time>
      </trkpt>
      <trkpt lat="48.783099" lon="9.893404">
        <ele>461</ele>
        <time>2026-08-30T13:16:14Z</time>
      </trkpt>
      <trkpt lat="48.783101" lon="9.893407">
        <ele>461</ele>
        <time>2026-08-30T13:16:15Z</time>
      </trkpt>
      <trkpt lat="48.783095" lon="9.893415">
        <ele>460.8</ele>
        <time>2026-08-30T13:16:16Z</time>
      </trkpt>
      <trkpt lat="48.783086" lon="9.893426">
        <ele>460.8</ele>
        <time>2026-08-30T13:16:17Z</time>
      </trkpt>
      <trkpt lat="48.783078" lon="9.893434">
        <ele>460.6</ele>
        <time>2026-08-30T13:16:18Z</time>
      </trkpt>
      <trkpt lat="48.783069" lon="9.893440">
        <ele>460.6</ele>
        <time>2026-08-30T13:16:19Z</time>
      </trkpt>
      <trkpt lat="48.783063" lon="9.893444">
        <ele>460.6</ele>
        <time>2026-08-30T13:16:20Z</time>
      </trkpt>
      <trkpt lat="48.783061" lon="9.893448">
        <ele>460.6</ele>
        <time>2026-08-30T13:16:21Z</time>
      </trkpt>
      <trkpt lat="48.783054" lon="9.893450">
        <ele>460.6</ele>
        <time>2026-08-30T13:16:22Z</time>
      </trkpt>
      <trkpt lat="48.783048" lon="9.893452">
        <ele>460.6</ele>
        <time>2026-08-30T13:16:23Z</time>
      </trkpt>
      <trkpt lat="48.783042" lon="9.893456">
        <ele>460.8</ele>
        <time>2026-08-30T13:16:24Z</time>
      </trkpt>
      <trkpt lat="48.783033" lon="9.893463">
        <ele>460.8</ele>
        <time>2026-08-30T13:16:25Z</time>
      </trkpt>
      <trkpt lat="48.783021" lon="9.893475">
        <ele>460.8</ele>
        <time>2026-08-30T13:16:26Z</time>
      </trkpt>
      <trkpt lat="48.783018" lon="9.893481">
        <ele>460.8</ele>
        <time>2026-08-30T13:16:27Z</time>
      </trkpt>
      <trkpt lat="48.783020" lon="9.893483">
        <ele>460.8</ele>
        <time>2026-08-30T13:16:28Z</time>
      </trkpt>
      <trkpt lat="48.783020" lon="9.893491">
        <ele>461</ele>
        <time>2026-08-30T13:16:29Z</time>
      </trkpt>
      <trkpt lat="48.783018" lon="9.893500">
        <ele>461</ele>
        <time>2026-08-30T13:16:30Z</time>
      </trkpt>
      <trkpt lat="48.783016" lon="9.893497">
        <ele>461.2</ele>
        <time>2026-08-30T13:16:31Z</time>
      </trkpt>
      <trkpt lat="48.783016" lon="9.893497">
        <ele>461.4</ele>
        <time>2026-08-30T13:16:32Z</time>
      </trkpt>
      <trkpt lat="48.783015" lon="9.893501">
        <ele>461.4</ele>
        <time>2026-08-30T13:16:33Z</time>
      </trkpt>
      <trkpt lat="48.783015" lon="9.893501">
        <ele>461.6</ele>
        <time>2026-08-30T13:16:34Z</time>
      </trkpt>
      <trkpt lat="48.783009" lon="9.893511">
        <ele>461.8</ele>
        <time>2026-08-30T13:16:35Z</time>
      </trkpt>
      <trkpt lat="48.783004" lon="9.893515">
        <ele>461.8</ele>
        <time>2026-08-30T13:16:36Z</time>
      </trkpt>
      <trkpt lat="48.782999" lon="9.893522">
        <ele>462</ele>
        <time>2026-08-30T13:16:37Z</time>
      </trkpt>
      <trkpt lat="48.782993" lon="9.893530">
        <ele>462</ele>
        <time>2026-08-30T13:16:38Z</time>
      </trkpt>
      <trkpt lat="48.782991" lon="9.893538">
        <ele>462.2</ele>
        <time>2026-08-30T13:16:39Z</time>
      </trkpt>
      <trkpt lat="48.782988" lon="9.893536">
        <ele>462.4</ele>
        <time>2026-08-30T13:16:40Z</time>
      </trkpt>
      <trkpt lat="48.782977" lon="9.893541">
        <ele>462.6</ele>
        <time>2026-08-30T13:16:41Z</time>
      </trkpt>
      <trkpt lat="48.782967" lon="9.893545">
        <ele>462.8</ele>
        <time>2026-08-30T13:16:42Z</time>
      </trkpt>
      <trkpt lat="48.782961" lon="9.893550">
        <ele>463</ele>
        <time>2026-08-30T13:16:43Z</time>
      </trkpt>
      <trkpt lat="48.782954" lon="9.893548">
        <ele>463.2</ele>
        <time>2026-08-30T13:16:44Z</time>
      </trkpt>
      <trkpt lat="48.782944" lon="9.893556">
        <ele>463.4</ele>
        <time>2026-08-30T13:16:45Z</time>
      </trkpt>
      <trkpt lat="48.782936" lon="9.893557">
        <ele>463.6</ele>
        <time>2026-08-30T13:16:46Z</time>
      </trkpt>
      <trkpt lat="48.782928" lon="9.893559">
        <ele>463.8</ele>
        <time>2026-08-30T13:16:47Z</time>
      </trkpt>
      <trkpt lat="48.782919" lon="9.893557">
        <ele>464</ele>
        <time>2026-08-30T13:16:48Z</time>
      </trkpt>
      <trkpt lat="48.782911" lon="9.893560">
        <ele>464.2</ele>
        <time>2026-08-30T13:16:49Z</time>
      </trkpt>
      <trkpt lat="48.782903" lon="9.893561">
        <ele>464.4</ele>
        <time>2026-08-30T13:16:50Z</time>
      </trkpt>
      <trkpt lat="48.782899" lon="9.893564">
        <ele>464.4</ele>
        <time>2026-08-30T13:16:51Z</time>
      </trkpt>
      <trkpt lat="48.782893" lon="9.893569">
        <ele>464.6</ele>
        <time>2026-08-30T13:16:52Z</time>
      </trkpt>
      <trkpt lat="48.782887" lon="9.893580">
        <ele>464.6</ele>
        <time>2026-08-30T13:16:53Z</time>
      </trkpt>
      <trkpt lat="48.782885" lon="9.893586">
        <ele>464.8</ele>
        <time>2026-08-30T13:16:54Z</time>
      </trkpt>
      <trkpt lat="48.782876" lon="9.893595">
        <ele>465</ele>
        <time>2026-08-30T13:16:55Z</time>
      </trkpt>
      <trkpt lat="48.782869" lon="9.893606">
        <ele>465</ele>
        <time>2026-08-30T13:16:56Z</time>
      </trkpt>
      <trkpt lat="48.782858" lon="9.893618">
        <ele>465</ele>
        <time>2026-08-30T13:16:57Z</time>
      </trkpt>
      <trkpt lat="48.782853" lon="9.893635">
        <ele>465</ele>
        <time>2026-08-30T13:16:58Z</time>
      </trkpt>
      <trkpt lat="48.782852" lon="9.893649">
        <ele>465</ele>
        <time>2026-08-30T13:16:59Z</time>
      </trkpt>
      <trkpt lat="48.782854" lon="9.893663">
        <ele>465</ele>
        <time>2026-08-30T13:17:00Z</time>
      </trkpt>
      <trkpt lat="48.782856" lon="9.893668">
        <ele>465.2</ele>
        <time>2026-08-30T13:17:01Z</time>
      </trkpt>
      <trkpt lat="48.782857" lon="9.893671">
        <ele>465.2</ele>
        <time>2026-08-30T13:17:02Z</time>
      </trkpt>
      <trkpt lat="48.782857" lon="9.893671">
        <ele>465.2</ele>
        <time>2026-08-30T13:17:03Z</time>
      </trkpt>
      <trkpt lat="48.782857" lon="9.893671">
        <ele>465.2</ele>
        <time>2026-08-30T13:17:04Z</time>
      </trkpt>
      <trkpt lat="48.782857" lon="9.893671">
        <ele>465.4</ele>
        <time>2026-08-30T13:17:05Z</time>
      </trkpt>
      <trkpt lat="48.782858" lon="9.893671">
        <ele>465.4</ele>
        <time>2026-08-30T13:17:06Z</time>
      </trkpt>
      <trkpt lat="48.782861" lon="9.893686">
        <ele>465.4</ele>
        <time>2026-08-30T13:17:07Z</time>
      </trkpt>
      <trkpt lat="48.782866" lon="9.893706">
        <ele>465.4</ele>
        <time>2026-08-30T13:17:08Z</time>
      </trkpt>
      <trkpt lat="48.782869" lon="9.893710">
        <ele>465.4</ele>
        <time>2026-08-30T13:17:09Z</time>
      </trkpt>
      <trkpt lat="48.782872" lon="9.893711">
        <ele>465.4</ele>
        <time>2026-08-30T13:17:10Z</time>
      </trkpt>
      <trkpt lat="48.782871" lon="9.893712">
        <ele>465.4</ele>
        <time>2026-08-30T13:17:11Z</time>
      </trkpt>
      <trkpt lat="48.782871" lon="9.893712">
        <ele>465.4</ele>
        <time>2026-08-30T13:17:12Z</time>
      </trkpt>
      <trkpt lat="48.782871" lon="9.893712">
        <ele>465.4</ele>
        <time>2026-08-30T13:17:13Z</time>
      </trkpt>
      <trkpt lat="48.782871" lon="9.893712">
        <ele>465.4</ele>
        <time>2026-08-30T13:17:14Z</time>
      </trkpt>
      <trkpt lat="48.782871" lon="9.893712">
        <ele>465.4</ele>
        <time>2026-08-30T13:17:15Z</time>
      </trkpt>
      <trkpt lat="48.782871" lon="9.893712">
        <ele>465.4</ele>
        <time>2026-08-30T13:17:16Z</time>
      </trkpt>
      <trkpt lat="48.782871" lon="9.893712">
        <ele>465.4</ele>
        <time>2026-08-30T13:17:17Z</time>
      </trkpt>
      <trkpt lat="48.782871" lon="9.893712">
        <ele>465.4</ele>
        <time>2026-08-30T13:17:18Z</time>
      </trkpt>
      <trkpt lat="48.782872" lon="9.893713">
        <ele>465.4</ele>
        <time>2026-08-30T13:17:19Z</time>
      </trkpt>
      <trkpt lat="48.782871" lon="9.893712">
        <ele>465.4</ele>
        <time>2026-08-30T13:17:20Z</time>
      </trkpt>
      <trkpt lat="48.782871" lon="9.893712">
        <ele>465.4</ele>
        <time>2026-08-30T13:17:21Z</time>
      </trkpt>
      <trkpt lat="48.782871" lon="9.893712">
        <ele>465.4</ele>
        <time>2026-08-30T13:17:22Z</time>
      </trkpt>
      <trkpt lat="48.782871" lon="9.893712">
        <ele>465.4</ele>
        <time>2026-08-30T13:17:23Z</time>
      </trkpt>
      <trkpt lat="48.782874" lon="9.893723">
        <ele>465.4</ele>
        <time>2026-08-30T13:17:24Z</time>
      </trkpt>
      <trkpt lat="48.782879" lon="9.893748">
        <ele>465.4</ele>
        <time>2026-08-30T13:17:25Z</time>
      </trkpt>
      <trkpt lat="48.782888" lon="9.893761">
        <ele>465.4</ele>
        <time>2026-08-30T13:17:26Z</time>
      </trkpt>
      <trkpt lat="48.782888" lon="9.893767">
        <ele>465.4</ele>
        <time>2026-08-30T13:17:27Z</time>
      </trkpt>
      <trkpt lat="48.782890" lon="9.893786">
        <ele>465.4</ele>
        <time>2026-08-30T13:17:28Z</time>
      </trkpt>
      <trkpt lat="48.782897" lon="9.893810">
        <ele>465.4</ele>
        <time>2026-08-30T13:17:29Z</time>
      </trkpt>
      <trkpt lat="48.782909" lon="9.893831">
        <ele>465.4</ele>
        <time>2026-08-30T13:17:30Z</time>
      </trkpt>
      <trkpt lat="48.782932" lon="9.893844">
        <ele>465.4</ele>
        <time>2026-08-30T13:17:31Z</time>
      </trkpt>
      <trkpt lat="48.782958" lon="9.893851">
        <ele>465.4</ele>
        <time>2026-08-30T13:17:32Z</time>
      </trkpt>
      <trkpt lat="48.782986" lon="9.893834">
        <ele>465.4</ele>
        <time>2026-08-30T13:17:33Z</time>
      </trkpt>
      <trkpt lat="48.783018" lon="9.893813">
        <ele>465.4</ele>
        <time>2026-08-30T13:17:34Z</time>
      </trkpt>
      <trkpt lat="48.783046" lon="9.893787">
        <ele>465.4</ele>
        <time>2026-08-30T13:17:35Z</time>
      </trkpt>
      <trkpt lat="48.783074" lon="9.893749">
        <ele>465.2</ele>
        <time>2026-08-30T13:17:36Z</time>
      </trkpt>
      <trkpt lat="48.783101" lon="9.893704">
        <ele>465</ele>
        <time>2026-08-30T13:17:37Z</time>
      </trkpt>
      <trkpt lat="48.783135" lon="9.893652">
        <ele>465</ele>
        <time>2026-08-30T13:17:38Z</time>
      </trkpt>
      <trkpt lat="48.783168" lon="9.893603">
        <ele>464.8</ele>
        <time>2026-08-30T13:17:39Z</time>
      </trkpt>
      <trkpt lat="48.783198" lon="9.893552">
        <ele>464.6</ele>
        <time>2026-08-30T13:17:40Z</time>
      </trkpt>
      <trkpt lat="48.783230" lon="9.893500">
        <ele>464.6</ele>
        <time>2026-08-30T13:17:41Z</time>
      </trkpt>
      <trkpt lat="48.783267" lon="9.893452">
        <ele>464.4</ele>
        <time>2026-08-30T13:17:42Z</time>
      </trkpt>
      <trkpt lat="48.783303" lon="9.893406">
        <ele>464.2</ele>
        <time>2026-08-30T13:17:43Z</time>
      </trkpt>
      <trkpt lat="48.783341" lon="9.893362">
        <ele>464</ele>
        <time>2026-08-30T13:17:44Z</time>
      </trkpt>
      <trkpt lat="48.783381" lon="9.893317">
        <ele>463.8</ele>
        <time>2026-08-30T13:17:45Z</time>
      </trkpt>
      <trkpt lat="48.783426" lon="9.893266">
        <ele>463.6</ele>
        <time>2026-08-30T13:17:46Z</time>
      </trkpt>
      <trkpt lat="48.783467" lon="9.893211">
        <ele>463.2</ele>
        <time>2026-08-30T13:17:47Z</time>
      </trkpt>
      <trkpt lat="48.783503" lon="9.893155">
        <ele>463</ele>
        <time>2026-08-30T13:17:48Z</time>
      </trkpt>
      <trkpt lat="48.783538" lon="9.893101">
        <ele>462.8</ele>
        <time>2026-08-30T13:17:49Z</time>
      </trkpt>
      <trkpt lat="48.783574" lon="9.893042">
        <ele>462.6</ele>
        <time>2026-08-30T13:17:50Z</time>
      </trkpt>
      <trkpt lat="48.783610" lon="9.892985">
        <ele>462.2</ele>
        <time>2026-08-30T13:17:51Z</time>
      </trkpt>
      <trkpt lat="48.783645" lon="9.892928">
        <ele>462</ele>
        <time>2026-08-30T13:17:52Z</time>
      </trkpt>
      <trkpt lat="48.783685" lon="9.892864">
        <ele>461.8</ele>
        <time>2026-08-30T13:17:53Z</time>
      </trkpt>
      <trkpt lat="48.783721" lon="9.892799">
        <ele>461.6</ele>
        <time>2026-08-30T13:17:54Z</time>
      </trkpt>
      <trkpt lat="48.783759" lon="9.892733">
        <ele>461.4</ele>
        <time>2026-08-30T13:17:55Z</time>
      </trkpt>
      <trkpt lat="48.783796" lon="9.892665">
        <ele>461</ele>
        <time>2026-08-30T13:17:56Z</time>
      </trkpt>
      <trkpt lat="48.783825" lon="9.892594">
        <ele>460.8</ele>
        <time>2026-08-30T13:17:57Z</time>
      </trkpt>
      <trkpt lat="48.783856" lon="9.892524">
        <ele>460.6</ele>
        <time>2026-08-30T13:17:58Z</time>
      </trkpt>
      <trkpt lat="48.783894" lon="9.892456">
        <ele>460.6</ele>
        <time>2026-08-30T13:17:59Z</time>
      </trkpt>
      <trkpt lat="48.783926" lon="9.892388">
        <ele>460.4</ele>
        <time>2026-08-30T13:18:00Z</time>
      </trkpt>
      <trkpt lat="48.783956" lon="9.892312">
        <ele>460.2</ele>
        <time>2026-08-30T13:18:01Z</time>
      </trkpt>
      <trkpt lat="48.783989" lon="9.892233">
        <ele>459.8</ele>
        <time>2026-08-30T13:18:02Z</time>
      </trkpt>
      <trkpt lat="48.784026" lon="9.892150">
        <ele>459.6</ele>
        <time>2026-08-30T13:18:03Z</time>
      </trkpt>
      <trkpt lat="48.784067" lon="9.892074">
        <ele>459.2</ele>
        <time>2026-08-30T13:18:04Z</time>
      </trkpt>
      <trkpt lat="48.784113" lon="9.891999">
        <ele>459</ele>
        <time>2026-08-30T13:18:05Z</time>
      </trkpt>
      <trkpt lat="48.784156" lon="9.891925">
        <ele>458.6</ele>
        <time>2026-08-30T13:18:06Z</time>
      </trkpt>
      <trkpt lat="48.784201" lon="9.891861">
        <ele>458.2</ele>
        <time>2026-08-30T13:18:07Z</time>
      </trkpt>
      <trkpt lat="48.784243" lon="9.891814">
        <ele>458</ele>
        <time>2026-08-30T13:18:08Z</time>
      </trkpt>
      <trkpt lat="48.784280" lon="9.891769">
        <ele>457.6</ele>
        <time>2026-08-30T13:18:09Z</time>
      </trkpt>
      <trkpt lat="48.784321" lon="9.891722">
        <ele>457.4</ele>
        <time>2026-08-30T13:18:10Z</time>
      </trkpt>
      <trkpt lat="48.784360" lon="9.891680">
        <ele>457</ele>
        <time>2026-08-30T13:18:11Z</time>
      </trkpt>
      <trkpt lat="48.784399" lon="9.891649">
        <ele>456.6</ele>
        <time>2026-08-30T13:18:12Z</time>
      </trkpt>
      <trkpt lat="48.784433" lon="9.891622">
        <ele>456.4</ele>
        <time>2026-08-30T13:18:13Z</time>
      </trkpt>
      <trkpt lat="48.784455" lon="9.891595">
        <ele>456</ele>
        <time>2026-08-30T13:18:14Z</time>
      </trkpt>
      <trkpt lat="48.784466" lon="9.891563">
        <ele>455.8</ele>
        <time>2026-08-30T13:18:15Z</time>
      </trkpt>
      <trkpt lat="48.784469" lon="9.891528">
        <ele>455.6</ele>
        <time>2026-08-30T13:18:16Z</time>
      </trkpt>
      <trkpt lat="48.784479" lon="9.891488">
        <ele>455.4</ele>
        <time>2026-08-30T13:18:17Z</time>
      </trkpt>
      <trkpt lat="48.784503" lon="9.891457">
        <ele>455.2</ele>
        <time>2026-08-30T13:18:18Z</time>
      </trkpt>
      <trkpt lat="48.784525" lon="9.891417">
        <ele>455</ele>
        <time>2026-08-30T13:18:19Z</time>
      </trkpt>
      <trkpt lat="48.784535" lon="9.891367">
        <ele>454.8</ele>
        <time>2026-08-30T13:18:20Z</time>
      </trkpt>
      <trkpt lat="48.784537" lon="9.891312">
        <ele>454.8</ele>
        <time>2026-08-30T13:18:21Z</time>
      </trkpt>
      <trkpt lat="48.784533" lon="9.891252">
        <ele>454.4</ele>
        <time>2026-08-30T13:18:22Z</time>
      </trkpt>
      <trkpt lat="48.784527" lon="9.891186">
        <ele>454.4</ele>
        <time>2026-08-30T13:18:23Z</time>
      </trkpt>
      <trkpt lat="48.784530" lon="9.891119">
        <ele>454.2</ele>
        <time>2026-08-30T13:18:24Z</time>
      </trkpt>
      <trkpt lat="48.784550" lon="9.891064">
        <ele>454</ele>
        <time>2026-08-30T13:18:25Z</time>
      </trkpt>
      <trkpt lat="48.784579" lon="9.891028">
        <ele>453.8</ele>
        <time>2026-08-30T13:18:26Z</time>
      </trkpt>
      <trkpt lat="48.784602" lon="9.891005">
        <ele>453.8</ele>
        <time>2026-08-30T13:18:27Z</time>
      </trkpt>
      <trkpt lat="48.784617" lon="9.890982">
        <ele>453.8</ele>
        <time>2026-08-30T13:18:28Z</time>
      </trkpt>
      <trkpt lat="48.784628" lon="9.890964">
        <ele>453.8</ele>
        <time>2026-08-30T13:18:29Z</time>
      </trkpt>
      <trkpt lat="48.784636" lon="9.890962">
        <ele>453.8</ele>
        <time>2026-08-30T13:18:30Z</time>
      </trkpt>
      <trkpt lat="48.784638" lon="9.890952">
        <ele>453.8</ele>
        <time>2026-08-30T13:18:31Z</time>
      </trkpt>
      <trkpt lat="48.784636" lon="9.890937">
        <ele>453.8</ele>
        <time>2026-08-30T13:18:32Z</time>
      </trkpt>
      <trkpt lat="48.784638" lon="9.890930">
        <ele>453.8</ele>
        <time>2026-08-30T13:18:33Z</time>
      </trkpt>
      <trkpt lat="48.784642" lon="9.890928">
        <ele>453.8</ele>
        <time>2026-08-30T13:18:34Z</time>
      </trkpt>
      <trkpt lat="48.784650" lon="9.890928">
        <ele>453.8</ele>
        <time>2026-08-30T13:18:35Z</time>
      </trkpt>
      <trkpt lat="48.784658" lon="9.890928">
        <ele>453.8</ele>
        <time>2026-08-30T13:18:36Z</time>
      </trkpt>
      <trkpt lat="48.784659" lon="9.890928">
        <ele>453.8</ele>
        <time>2026-08-30T13:18:37Z</time>
      </trkpt>
      <trkpt lat="48.784659" lon="9.890928">
        <ele>453.8</ele>
        <time>2026-08-30T13:18:38Z</time>
      </trkpt>
      <trkpt lat="48.784666" lon="9.890911">
        <ele>453.6</ele>
        <time>2026-08-30T13:18:39Z</time>
      </trkpt>
      <trkpt lat="48.784677" lon="9.890897">
        <ele>453.6</ele>
        <time>2026-08-30T13:18:40Z</time>
      </trkpt>
      <trkpt lat="48.784696" lon="9.890882">
        <ele>453.4</ele>
        <time>2026-08-30T13:18:41Z</time>
      </trkpt>
      <trkpt lat="48.784720" lon="9.890871">
        <ele>453.4</ele>
        <time>2026-08-30T13:18:42Z</time>
      </trkpt>
      <trkpt lat="48.784746" lon="9.890857">
        <ele>453.2</ele>
        <time>2026-08-30T13:18:43Z</time>
      </trkpt>
      <trkpt lat="48.784777" lon="9.890836">
        <ele>453</ele>
        <time>2026-08-30T13:18:44Z</time>
      </trkpt>
      <trkpt lat="48.784806" lon="9.890802">
        <ele>452.8</ele>
        <time>2026-08-30T13:18:45Z</time>
      </trkpt>
      <trkpt lat="48.784834" lon="9.890759">
        <ele>452.6</ele>
        <time>2026-08-30T13:18:46Z</time>
      </trkpt>
      <trkpt lat="48.784870" lon="9.890720">
        <ele>452.4</ele>
        <time>2026-08-30T13:18:47Z</time>
      </trkpt>
      <trkpt lat="48.784907" lon="9.890686">
        <ele>452</ele>
        <time>2026-08-30T13:18:48Z</time>
      </trkpt>
      <trkpt lat="48.784942" lon="9.890643">
        <ele>451.8</ele>
        <time>2026-08-30T13:18:49Z</time>
      </trkpt>
      <trkpt lat="48.784969" lon="9.890592">
        <ele>451.6</ele>
        <time>2026-08-30T13:18:50Z</time>
      </trkpt>
      <trkpt lat="48.785006" lon="9.890542">
        <ele>451.4</ele>
        <time>2026-08-30T13:18:51Z</time>
      </trkpt>
      <trkpt lat="48.785038" lon="9.890482">
        <ele>451.2</ele>
        <time>2026-08-30T13:18:52Z</time>
      </trkpt>
      <trkpt lat="48.785070" lon="9.890418">
        <ele>451</ele>
        <time>2026-08-30T13:18:53Z</time>
      </trkpt>
      <trkpt lat="48.785108" lon="9.890360">
        <ele>450.8</ele>
        <time>2026-08-30T13:18:54Z</time>
      </trkpt>
      <trkpt lat="48.785148" lon="9.890308">
        <ele>450.8</ele>
        <time>2026-08-30T13:18:55Z</time>
      </trkpt>
      <trkpt lat="48.785194" lon="9.890265">
        <ele>450.6</ele>
        <time>2026-08-30T13:18:56Z</time>
      </trkpt>
      <trkpt lat="48.785241" lon="9.890235">
        <ele>450.4</ele>
        <time>2026-08-30T13:18:57Z</time>
      </trkpt>
      <trkpt lat="48.785293" lon="9.890206">
        <ele>450.2</ele>
        <time>2026-08-30T13:18:58Z</time>
      </trkpt>
      <trkpt lat="48.785346" lon="9.890170">
        <ele>449.8</ele>
        <time>2026-08-30T13:18:59Z</time>
      </trkpt>
      <trkpt lat="48.785404" lon="9.890143">
        <ele>449.6</ele>
        <time>2026-08-30T13:19:00Z</time>
      </trkpt>
      <trkpt lat="48.785465" lon="9.890112">
        <ele>449.2</ele>
        <time>2026-08-30T13:19:01Z</time>
      </trkpt>
      <trkpt lat="48.785530" lon="9.890075">
        <ele>448.8</ele>
        <time>2026-08-30T13:19:02Z</time>
      </trkpt>
      <trkpt lat="48.785599" lon="9.890036">
        <ele>448.2</ele>
        <time>2026-08-30T13:19:03Z</time>
      </trkpt>
      <trkpt lat="48.785666" lon="9.889995">
        <ele>447.6</ele>
        <time>2026-08-30T13:19:04Z</time>
      </trkpt>
      <trkpt lat="48.785733" lon="9.889946">
        <ele>447</ele>
        <time>2026-08-30T13:19:05Z</time>
      </trkpt>
      <trkpt lat="48.785803" lon="9.889885">
        <ele>446.2</ele>
        <time>2026-08-30T13:19:06Z</time>
      </trkpt>
      <trkpt lat="48.785870" lon="9.889820">
        <ele>445.6</ele>
        <time>2026-08-30T13:19:07Z</time>
      </trkpt>
      <trkpt lat="48.785935" lon="9.889750">
        <ele>444.6</ele>
        <time>2026-08-30T13:19:08Z</time>
      </trkpt>
      <trkpt lat="48.785996" lon="9.889675">
        <ele>444</ele>
        <time>2026-08-30T13:19:09Z</time>
      </trkpt>
      <trkpt lat="48.786049" lon="9.889597">
        <ele>443.6</ele>
        <time>2026-08-30T13:19:10Z</time>
      </trkpt>
      <trkpt lat="48.786100" lon="9.889510">
        <ele>443.2</ele>
        <time>2026-08-30T13:19:11Z</time>
      </trkpt>
      <trkpt lat="48.786146" lon="9.889428">
        <ele>442.8</ele>
        <time>2026-08-30T13:19:12Z</time>
      </trkpt>
      <trkpt lat="48.786193" lon="9.889358">
        <ele>442.6</ele>
        <time>2026-08-30T13:19:13Z</time>
      </trkpt>
      <trkpt lat="48.786241" lon="9.889299">
        <ele>442.4</ele>
        <time>2026-08-30T13:19:14Z</time>
      </trkpt>
      <trkpt lat="48.786288" lon="9.889241">
        <ele>442.2</ele>
        <time>2026-08-30T13:19:15Z</time>
      </trkpt>
      <trkpt lat="48.786327" lon="9.889189">
        <ele>442.2</ele>
        <time>2026-08-30T13:19:16Z</time>
      </trkpt>
      <trkpt lat="48.786365" lon="9.889142">
        <ele>442.2</ele>
        <time>2026-08-30T13:19:17Z</time>
      </trkpt>
      <trkpt lat="48.786397" lon="9.889101">
        <ele>442.2</ele>
        <time>2026-08-30T13:19:18Z</time>
      </trkpt>
      <trkpt lat="48.786423" lon="9.889067">
        <ele>442.2</ele>
        <time>2026-08-30T13:19:19Z</time>
      </trkpt>
      <trkpt lat="48.786449" lon="9.889035">
        <ele>442.2</ele>
        <time>2026-08-30T13:19:20Z</time>
      </trkpt>
      <trkpt lat="48.786472" lon="9.888995">
        <ele>442.4</ele>
        <time>2026-08-30T13:19:21Z</time>
      </trkpt>
      <trkpt lat="48.786494" lon="9.888954">
        <ele>442.6</ele>
        <time>2026-08-30T13:19:22Z</time>
      </trkpt>
      <trkpt lat="48.786520" lon="9.888911">
        <ele>442.8</ele>
        <time>2026-08-30T13:19:23Z</time>
      </trkpt>
      <trkpt lat="48.786546" lon="9.888870">
        <ele>442.8</ele>
        <time>2026-08-30T13:19:24Z</time>
      </trkpt>
      <trkpt lat="48.786571" lon="9.888831">
        <ele>443</ele>
        <time>2026-08-30T13:19:25Z</time>
      </trkpt>
      <trkpt lat="48.786592" lon="9.888792">
        <ele>443</ele>
        <time>2026-08-30T13:19:26Z</time>
      </trkpt>
      <trkpt lat="48.786617" lon="9.888755">
        <ele>443</ele>
        <time>2026-08-30T13:19:27Z</time>
      </trkpt>
      <trkpt lat="48.786649" lon="9.888719">
        <ele>443.2</ele>
        <time>2026-08-30T13:19:28Z</time>
      </trkpt>
      <trkpt lat="48.786682" lon="9.888682">
        <ele>443.2</ele>
        <time>2026-08-30T13:19:29Z</time>
      </trkpt>
      <trkpt lat="48.786717" lon="9.888634">
        <ele>443.2</ele>
        <time>2026-08-30T13:19:30Z</time>
      </trkpt>
      <trkpt lat="48.786752" lon="9.888588">
        <ele>443.2</ele>
        <time>2026-08-30T13:19:31Z</time>
      </trkpt>
      <trkpt lat="48.786793" lon="9.888537">
        <ele>443</ele>
        <time>2026-08-30T13:19:32Z</time>
      </trkpt>
      <trkpt lat="48.786834" lon="9.888491">
        <ele>443</ele>
        <time>2026-08-30T13:19:33Z</time>
      </trkpt>
      <trkpt lat="48.786873" lon="9.888441">
        <ele>442.8</ele>
        <time>2026-08-30T13:19:34Z</time>
      </trkpt>
      <trkpt lat="48.786913" lon="9.888388">
        <ele>442.6</ele>
        <time>2026-08-30T13:19:35Z</time>
      </trkpt>
      <trkpt lat="48.786955" lon="9.888339">
        <ele>442.4</ele>
        <time>2026-08-30T13:19:36Z</time>
      </trkpt>
      <trkpt lat="48.786998" lon="9.888285">
        <ele>442.2</ele>
        <time>2026-08-30T13:19:37Z</time>
      </trkpt>
      <trkpt lat="48.787045" lon="9.888232">
        <ele>441.8</ele>
        <time>2026-08-30T13:19:38Z</time>
      </trkpt>
      <trkpt lat="48.787091" lon="9.888175">
        <ele>441.6</ele>
        <time>2026-08-30T13:19:39Z</time>
      </trkpt>
      <trkpt lat="48.787138" lon="9.888118">
        <ele>441.4</ele>
        <time>2026-08-30T13:19:40Z</time>
      </trkpt>
      <trkpt lat="48.787184" lon="9.888064">
        <ele>441.2</ele>
        <time>2026-08-30T13:19:41Z</time>
      </trkpt>
      <trkpt lat="48.787229" lon="9.888016">
        <ele>440.8</ele>
        <time>2026-08-30T13:19:42Z</time>
      </trkpt>
      <trkpt lat="48.787278" lon="9.887976">
        <ele>440.6</ele>
        <time>2026-08-30T13:19:43Z</time>
      </trkpt>
      <trkpt lat="48.787327" lon="9.887931">
        <ele>440.6</ele>
        <time>2026-08-30T13:19:44Z</time>
      </trkpt>
      <trkpt lat="48.787374" lon="9.887894">
        <ele>440.2</ele>
        <time>2026-08-30T13:19:45Z</time>
      </trkpt>
      <trkpt lat="48.787419" lon="9.887850">
        <ele>440.2</ele>
        <time>2026-08-30T13:19:46Z</time>
      </trkpt>
      <trkpt lat="48.787462" lon="9.887805">
        <ele>440</ele>
        <time>2026-08-30T13:19:47Z</time>
      </trkpt>
      <trkpt lat="48.787501" lon="9.887761">
        <ele>439.8</ele>
        <time>2026-08-30T13:19:48Z</time>
      </trkpt>
      <trkpt lat="48.787534" lon="9.887721">
        <ele>439.8</ele>
        <time>2026-08-30T13:19:49Z</time>
      </trkpt>
      <trkpt lat="48.787558" lon="9.887672">
        <ele>439.6</ele>
        <time>2026-08-30T13:19:50Z</time>
      </trkpt>
      <trkpt lat="48.787568" lon="9.887609">
        <ele>439.6</ele>
        <time>2026-08-30T13:19:51Z</time>
      </trkpt>
      <trkpt lat="48.787568" lon="9.887536">
        <ele>439.4</ele>
        <time>2026-08-30T13:19:52Z</time>
      </trkpt>
      <trkpt lat="48.787556" lon="9.887464">
        <ele>439.2</ele>
        <time>2026-08-30T13:19:53Z</time>
      </trkpt>
      <trkpt lat="48.787537" lon="9.887399">
        <ele>439.2</ele>
        <time>2026-08-30T13:19:54Z</time>
      </trkpt>
      <trkpt lat="48.787513" lon="9.887335">
        <ele>439</ele>
        <time>2026-08-30T13:19:55Z</time>
      </trkpt>
      <trkpt lat="48.787490" lon="9.887271">
        <ele>439</ele>
        <time>2026-08-30T13:19:56Z</time>
      </trkpt>
      <trkpt lat="48.787463" lon="9.887204">
        <ele>439</ele>
        <time>2026-08-30T13:19:57Z</time>
      </trkpt>
      <trkpt lat="48.787440" lon="9.887140">
        <ele>439</ele>
        <time>2026-08-30T13:19:58Z</time>
      </trkpt>
      <trkpt lat="48.787422" lon="9.887072">
        <ele>438.8</ele>
        <time>2026-08-30T13:19:59Z</time>
      </trkpt>
      <trkpt lat="48.787404" lon="9.887005">
        <ele>439</ele>
        <time>2026-08-30T13:20:00Z</time>
      </trkpt>
      <trkpt lat="48.787387" lon="9.886941">
        <ele>439</ele>
        <time>2026-08-30T13:20:01Z</time>
      </trkpt>
      <trkpt lat="48.787370" lon="9.886875">
        <ele>439</ele>
        <time>2026-08-30T13:20:02Z</time>
      </trkpt>
      <trkpt lat="48.787352" lon="9.886814">
        <ele>438.8</ele>
        <time>2026-08-30T13:20:03Z</time>
      </trkpt>
      <trkpt lat="48.787332" lon="9.886749">
        <ele>438.8</ele>
        <time>2026-08-30T13:20:04Z</time>
      </trkpt>
      <trkpt lat="48.787315" lon="9.886687">
        <ele>438.8</ele>
        <time>2026-08-30T13:20:05Z</time>
      </trkpt>
      <trkpt lat="48.787296" lon="9.886628">
        <ele>438.6</ele>
        <time>2026-08-30T13:20:06Z</time>
      </trkpt>
      <trkpt lat="48.787282" lon="9.886562">
        <ele>438.6</ele>
        <time>2026-08-30T13:20:07Z</time>
      </trkpt>
      <trkpt lat="48.787275" lon="9.886496">
        <ele>438.4</ele>
        <time>2026-08-30T13:20:08Z</time>
      </trkpt>
      <trkpt lat="48.787267" lon="9.886431">
        <ele>438.2</ele>
        <time>2026-08-30T13:20:09Z</time>
      </trkpt>
      <trkpt lat="48.787259" lon="9.886364">
        <ele>438.2</ele>
        <time>2026-08-30T13:20:10Z</time>
      </trkpt>
      <trkpt lat="48.787250" lon="9.886298">
        <ele>438</ele>
        <time>2026-08-30T13:20:11Z</time>
      </trkpt>
      <trkpt lat="48.787240" lon="9.886227">
        <ele>437.8</ele>
        <time>2026-08-30T13:20:12Z</time>
      </trkpt>
      <trkpt lat="48.787233" lon="9.886158">
        <ele>437.8</ele>
        <time>2026-08-30T13:20:13Z</time>
      </trkpt>
      <trkpt lat="48.787225" lon="9.886089">
        <ele>437.6</ele>
        <time>2026-08-30T13:20:14Z</time>
      </trkpt>
      <trkpt lat="48.787222" lon="9.886019">
        <ele>437.6</ele>
        <time>2026-08-30T13:20:15Z</time>
      </trkpt>
      <trkpt lat="48.787221" lon="9.885955">
        <ele>437.4</ele>
        <time>2026-08-30T13:20:16Z</time>
      </trkpt>
      <trkpt lat="48.787221" lon="9.885890">
        <ele>437.4</ele>
        <time>2026-08-30T13:20:17Z</time>
      </trkpt>
      <trkpt lat="48.787222" lon="9.885821">
        <ele>437.4</ele>
        <time>2026-08-30T13:20:18Z</time>
      </trkpt>
      <trkpt lat="48.787222" lon="9.885748">
        <ele>437.2</ele>
        <time>2026-08-30T13:20:19Z</time>
      </trkpt>
      <trkpt lat="48.787223" lon="9.885678">
        <ele>437</ele>
        <time>2026-08-30T13:20:20Z</time>
      </trkpt>
      <trkpt lat="48.787230" lon="9.885607">
        <ele>437</ele>
        <time>2026-08-30T13:20:21Z</time>
      </trkpt>
      <trkpt lat="48.787231" lon="9.885534">
        <ele>436.8</ele>
        <time>2026-08-30T13:20:22Z</time>
      </trkpt>
      <trkpt lat="48.787235" lon="9.885463">
        <ele>436.6</ele>
        <time>2026-08-30T13:20:23Z</time>
      </trkpt>
      <trkpt lat="48.787244" lon="9.885392">
        <ele>436.6</ele>
        <time>2026-08-30T13:20:24Z</time>
      </trkpt>
      <trkpt lat="48.787250" lon="9.885315">
        <ele>436.4</ele>
        <time>2026-08-30T13:20:25Z</time>
      </trkpt>
      <trkpt lat="48.787253" lon="9.885238">
        <ele>436.2</ele>
        <time>2026-08-30T13:20:26Z</time>
      </trkpt>
      <trkpt lat="48.787258" lon="9.885161">
        <ele>436</ele>
        <time>2026-08-30T13:20:27Z</time>
      </trkpt>
      <trkpt lat="48.787262" lon="9.885081">
        <ele>435.8</ele>
        <time>2026-08-30T13:20:28Z</time>
      </trkpt>
      <trkpt lat="48.787264" lon="9.885003">
        <ele>435.8</ele>
        <time>2026-08-30T13:20:29Z</time>
      </trkpt>
      <trkpt lat="48.787267" lon="9.884920">
        <ele>435.6</ele>
        <time>2026-08-30T13:20:30Z</time>
      </trkpt>
      <trkpt lat="48.787277" lon="9.884838">
        <ele>435.4</ele>
        <time>2026-08-30T13:20:31Z</time>
      </trkpt>
      <trkpt lat="48.787288" lon="9.884756">
        <ele>435.2</ele>
        <time>2026-08-30T13:20:32Z</time>
      </trkpt>
      <trkpt lat="48.787288" lon="9.884673">
        <ele>435</ele>
        <time>2026-08-30T13:20:33Z</time>
      </trkpt>
      <trkpt lat="48.787290" lon="9.884590">
        <ele>435</ele>
        <time>2026-08-30T13:20:34Z</time>
      </trkpt>
      <trkpt lat="48.787297" lon="9.884509">
        <ele>434.8</ele>
        <time>2026-08-30T13:20:35Z</time>
      </trkpt>
      <trkpt lat="48.787304" lon="9.884428">
        <ele>434.6</ele>
        <time>2026-08-30T13:20:36Z</time>
      </trkpt>
      <trkpt lat="48.787308" lon="9.884345">
        <ele>434.4</ele>
        <time>2026-08-30T13:20:37Z</time>
      </trkpt>
      <trkpt lat="48.787313" lon="9.884261">
        <ele>434.2</ele>
        <time>2026-08-30T13:20:38Z</time>
      </trkpt>
      <trkpt lat="48.787316" lon="9.884182">
        <ele>434</ele>
        <time>2026-08-30T13:20:39Z</time>
      </trkpt>
      <trkpt lat="48.787323" lon="9.884103">
        <ele>433.8</ele>
        <time>2026-08-30T13:20:40Z</time>
      </trkpt>
      <trkpt lat="48.787333" lon="9.884025">
        <ele>433.6</ele>
        <time>2026-08-30T13:20:41Z</time>
      </trkpt>
      <trkpt lat="48.787340" lon="9.883941">
        <ele>433.4</ele>
        <time>2026-08-30T13:20:42Z</time>
      </trkpt>
      <trkpt lat="48.787342" lon="9.883854">
        <ele>433.2</ele>
        <time>2026-08-30T13:20:43Z</time>
      </trkpt>
      <trkpt lat="48.787347" lon="9.883767">
        <ele>433</ele>
        <time>2026-08-30T13:20:44Z</time>
      </trkpt>
      <trkpt lat="48.787359" lon="9.883689">
        <ele>432.8</ele>
        <time>2026-08-30T13:20:45Z</time>
      </trkpt>
      <trkpt lat="48.787375" lon="9.883612">
        <ele>432.4</ele>
        <time>2026-08-30T13:20:46Z</time>
      </trkpt>
      <trkpt lat="48.787394" lon="9.883536">
        <ele>432.2</ele>
        <time>2026-08-30T13:20:47Z</time>
      </trkpt>
      <trkpt lat="48.787412" lon="9.883454">
        <ele>432</ele>
        <time>2026-08-30T13:20:48Z</time>
      </trkpt>
      <trkpt lat="48.787449" lon="9.883386">
        <ele>431.8</ele>
        <time>2026-08-30T13:20:49Z</time>
      </trkpt>
      <trkpt lat="48.787485" lon="9.883320">
        <ele>431.6</ele>
        <time>2026-08-30T13:20:50Z</time>
      </trkpt>
      <trkpt lat="48.787504" lon="9.883248">
        <ele>431.4</ele>
        <time>2026-08-30T13:20:51Z</time>
      </trkpt>
      <trkpt lat="48.787512" lon="9.883171">
        <ele>431.2</ele>
        <time>2026-08-30T13:20:52Z</time>
      </trkpt>
      <trkpt lat="48.787514" lon="9.883087">
        <ele>431</ele>
        <time>2026-08-30T13:20:53Z</time>
      </trkpt>
      <trkpt lat="48.787514" lon="9.883002">
        <ele>430.8</ele>
        <time>2026-08-30T13:20:54Z</time>
      </trkpt>
      <trkpt lat="48.787514" lon="9.882918">
        <ele>430.8</ele>
        <time>2026-08-30T13:20:55Z</time>
      </trkpt>
      <trkpt lat="48.787513" lon="9.882834">
        <ele>430.6</ele>
        <time>2026-08-30T13:20:56Z</time>
      </trkpt>
      <trkpt lat="48.787516" lon="9.882748">
        <ele>430.4</ele>
        <time>2026-08-30T13:20:57Z</time>
      </trkpt>
      <trkpt lat="48.787524" lon="9.882663">
        <ele>430.2</ele>
        <time>2026-08-30T13:20:58Z</time>
      </trkpt>
      <trkpt lat="48.787533" lon="9.882581">
        <ele>430</ele>
        <time>2026-08-30T13:20:59Z</time>
      </trkpt>
      <trkpt lat="48.787543" lon="9.882500">
        <ele>429.8</ele>
        <time>2026-08-30T13:21:00Z</time>
      </trkpt>
      <trkpt lat="48.787551" lon="9.882417">
        <ele>429.8</ele>
        <time>2026-08-30T13:21:01Z</time>
      </trkpt>
      <trkpt lat="48.787564" lon="9.882332">
        <ele>429.6</ele>
        <time>2026-08-30T13:21:02Z</time>
      </trkpt>
      <trkpt lat="48.787573" lon="9.882249">
        <ele>429.4</ele>
        <time>2026-08-30T13:21:03Z</time>
      </trkpt>
      <trkpt lat="48.787584" lon="9.882167">
        <ele>429.4</ele>
        <time>2026-08-30T13:21:04Z</time>
      </trkpt>
      <trkpt lat="48.787596" lon="9.882085">
        <ele>429.2</ele>
        <time>2026-08-30T13:21:05Z</time>
      </trkpt>
      <trkpt lat="48.787605" lon="9.882004">
        <ele>429</ele>
        <time>2026-08-30T13:21:06Z</time>
      </trkpt>
      <trkpt lat="48.787617" lon="9.881919">
        <ele>428.8</ele>
        <time>2026-08-30T13:21:07Z</time>
      </trkpt>
      <trkpt lat="48.787628" lon="9.881835">
        <ele>428.6</ele>
        <time>2026-08-30T13:21:08Z</time>
      </trkpt>
      <trkpt lat="48.787637" lon="9.881752">
        <ele>428.4</ele>
        <time>2026-08-30T13:21:09Z</time>
      </trkpt>
      <trkpt lat="48.787652" lon="9.881670">
        <ele>428.2</ele>
        <time>2026-08-30T13:21:10Z</time>
      </trkpt>
      <trkpt lat="48.787666" lon="9.881591">
        <ele>428</ele>
        <time>2026-08-30T13:21:11Z</time>
      </trkpt>
      <trkpt lat="48.787679" lon="9.881513">
        <ele>427.8</ele>
        <time>2026-08-30T13:21:12Z</time>
      </trkpt>
      <trkpt lat="48.787692" lon="9.881433">
        <ele>427.6</ele>
        <time>2026-08-30T13:21:13Z</time>
      </trkpt>
      <trkpt lat="48.787703" lon="9.881353">
        <ele>427.4</ele>
        <time>2026-08-30T13:21:14Z</time>
      </trkpt>
      <trkpt lat="48.787716" lon="9.881272">
        <ele>427.2</ele>
        <time>2026-08-30T13:21:15Z</time>
      </trkpt>
      <trkpt lat="48.787729" lon="9.881191">
        <ele>427.2</ele>
        <time>2026-08-30T13:21:16Z</time>
      </trkpt>
      <trkpt lat="48.787742" lon="9.881112">
        <ele>427</ele>
        <time>2026-08-30T13:21:17Z</time>
      </trkpt>
      <trkpt lat="48.787758" lon="9.881030">
        <ele>426.8</ele>
        <time>2026-08-30T13:21:18Z</time>
      </trkpt>
      <trkpt lat="48.787779" lon="9.880945">
        <ele>426.6</ele>
        <time>2026-08-30T13:21:19Z</time>
      </trkpt>
      <trkpt lat="48.787798" lon="9.880864">
        <ele>426.2</ele>
        <time>2026-08-30T13:21:20Z</time>
      </trkpt>
      <trkpt lat="48.787816" lon="9.880781">
        <ele>426</ele>
        <time>2026-08-30T13:21:21Z</time>
      </trkpt>
      <trkpt lat="48.787833" lon="9.880702">
        <ele>425.6</ele>
        <time>2026-08-30T13:21:22Z</time>
      </trkpt>
      <trkpt lat="48.787853" lon="9.880625">
        <ele>425.2</ele>
        <time>2026-08-30T13:21:23Z</time>
      </trkpt>
      <trkpt lat="48.787878" lon="9.880549">
        <ele>424.8</ele>
        <time>2026-08-30T13:21:24Z</time>
      </trkpt>
      <trkpt lat="48.787904" lon="9.880474">
        <ele>424.4</ele>
        <time>2026-08-30T13:21:25Z</time>
      </trkpt>
      <trkpt lat="48.787934" lon="9.880405">
        <ele>424</ele>
        <time>2026-08-30T13:21:26Z</time>
      </trkpt>
      <trkpt lat="48.787959" lon="9.880333">
        <ele>423.6</ele>
        <time>2026-08-30T13:21:27Z</time>
      </trkpt>
      <trkpt lat="48.787977" lon="9.880256">
        <ele>423.2</ele>
        <time>2026-08-30T13:21:28Z</time>
      </trkpt>
      <trkpt lat="48.787993" lon="9.880183">
        <ele>423.2</ele>
        <time>2026-08-30T13:21:29Z</time>
      </trkpt>
      <trkpt lat="48.788008" lon="9.880110">
        <ele>423</ele>
        <time>2026-08-30T13:21:30Z</time>
      </trkpt>
      <trkpt lat="48.788025" lon="9.880045">
        <ele>422.8</ele>
        <time>2026-08-30T13:21:31Z</time>
      </trkpt>
      <trkpt lat="48.788041" lon="9.879975">
        <ele>422.8</ele>
        <time>2026-08-30T13:21:32Z</time>
      </trkpt>
      <trkpt lat="48.788057" lon="9.879909">
        <ele>422.6</ele>
        <time>2026-08-30T13:21:33Z</time>
      </trkpt>
      <trkpt lat="48.788073" lon="9.879839">
        <ele>422.6</ele>
        <time>2026-08-30T13:21:34Z</time>
      </trkpt>
      <trkpt lat="48.788086" lon="9.879770">
        <ele>422.6</ele>
        <time>2026-08-30T13:21:35Z</time>
      </trkpt>
      <trkpt lat="48.788095" lon="9.879698">
        <ele>422.6</ele>
        <time>2026-08-30T13:21:36Z</time>
      </trkpt>
      <trkpt lat="48.788095" lon="9.879630">
        <ele>422.6</ele>
        <time>2026-08-30T13:21:37Z</time>
      </trkpt>
      <trkpt lat="48.788097" lon="9.879568">
        <ele>422.6</ele>
        <time>2026-08-30T13:21:38Z</time>
      </trkpt>
      <trkpt lat="48.788104" lon="9.879508">
        <ele>422.6</ele>
        <time>2026-08-30T13:21:39Z</time>
      </trkpt>
      <trkpt lat="48.788113" lon="9.879444">
        <ele>422.6</ele>
        <time>2026-08-30T13:21:40Z</time>
      </trkpt>
      <trkpt lat="48.788127" lon="9.879375">
        <ele>422.6</ele>
        <time>2026-08-30T13:21:41Z</time>
      </trkpt>
      <trkpt lat="48.788145" lon="9.879307">
        <ele>422.6</ele>
        <time>2026-08-30T13:21:42Z</time>
      </trkpt>
      <trkpt lat="48.788168" lon="9.879243">
        <ele>422.6</ele>
        <time>2026-08-30T13:21:43Z</time>
      </trkpt>
      <trkpt lat="48.788196" lon="9.879185">
        <ele>422.6</ele>
        <time>2026-08-30T13:21:44Z</time>
      </trkpt>
      <trkpt lat="48.788226" lon="9.879129">
        <ele>422.6</ele>
        <time>2026-08-30T13:21:45Z</time>
      </trkpt>
      <trkpt lat="48.788255" lon="9.879080">
        <ele>422.6</ele>
        <time>2026-08-30T13:21:46Z</time>
      </trkpt>
      <trkpt lat="48.788277" lon="9.879025">
        <ele>422.8</ele>
        <time>2026-08-30T13:21:47Z</time>
      </trkpt>
      <trkpt lat="48.788283" lon="9.878961">
        <ele>422.8</ele>
        <time>2026-08-30T13:21:48Z</time>
      </trkpt>
      <trkpt lat="48.788278" lon="9.878898">
        <ele>422.8</ele>
        <time>2026-08-30T13:21:49Z</time>
      </trkpt>
      <trkpt lat="48.788269" lon="9.878838">
        <ele>423</ele>
        <time>2026-08-30T13:21:50Z</time>
      </trkpt>
      <trkpt lat="48.788253" lon="9.878782">
        <ele>423</ele>
        <time>2026-08-30T13:21:51Z</time>
      </trkpt>
      <trkpt lat="48.788232" lon="9.878721">
        <ele>423</ele>
        <time>2026-08-30T13:21:52Z</time>
      </trkpt>
      <trkpt lat="48.788225" lon="9.878655">
        <ele>423</ele>
        <time>2026-08-30T13:21:53Z</time>
      </trkpt>
      <trkpt lat="48.788228" lon="9.878590">
        <ele>423.2</ele>
        <time>2026-08-30T13:21:54Z</time>
      </trkpt>
      <trkpt lat="48.788237" lon="9.878524">
        <ele>423.2</ele>
        <time>2026-08-30T13:21:55Z</time>
      </trkpt>
      <trkpt lat="48.788249" lon="9.878459">
        <ele>423.2</ele>
        <time>2026-08-30T13:21:56Z</time>
      </trkpt>
      <trkpt lat="48.788260" lon="9.878392">
        <ele>423.2</ele>
        <time>2026-08-30T13:21:57Z</time>
      </trkpt>
      <trkpt lat="48.788270" lon="9.878325">
        <ele>423.2</ele>
        <time>2026-08-30T13:21:58Z</time>
      </trkpt>
      <trkpt lat="48.788279" lon="9.878258">
        <ele>423.4</ele>
        <time>2026-08-30T13:21:59Z</time>
      </trkpt>
      <trkpt lat="48.788288" lon="9.878192">
        <ele>423.4</ele>
        <time>2026-08-30T13:22:00Z</time>
      </trkpt>
      <trkpt lat="48.788297" lon="9.878130">
        <ele>423.6</ele>
        <time>2026-08-30T13:22:01Z</time>
      </trkpt>
      <trkpt lat="48.788304" lon="9.878067">
        <ele>423.6</ele>
        <time>2026-08-30T13:22:02Z</time>
      </trkpt>
      <trkpt lat="48.788306" lon="9.878002">
        <ele>423.8</ele>
        <time>2026-08-30T13:22:03Z</time>
      </trkpt>
      <trkpt lat="48.788311" lon="9.877934">
        <ele>423.8</ele>
        <time>2026-08-30T13:22:04Z</time>
      </trkpt>
      <trkpt lat="48.788318" lon="9.877871">
        <ele>424</ele>
        <time>2026-08-30T13:22:05Z</time>
      </trkpt>
      <trkpt lat="48.788324" lon="9.877801">
        <ele>424</ele>
        <time>2026-08-30T13:22:06Z</time>
      </trkpt>
      <trkpt lat="48.788333" lon="9.877733">
        <ele>424</ele>
        <time>2026-08-30T13:22:07Z</time>
      </trkpt>
      <trkpt lat="48.788337" lon="9.877666">
        <ele>424</ele>
        <time>2026-08-30T13:22:08Z</time>
      </trkpt>
      <trkpt lat="48.788343" lon="9.877593">
        <ele>424</ele>
        <time>2026-08-30T13:22:09Z</time>
      </trkpt>
      <trkpt lat="48.788346" lon="9.877523">
        <ele>424</ele>
        <time>2026-08-30T13:22:10Z</time>
      </trkpt>
      <trkpt lat="48.788350" lon="9.877456">
        <ele>424.2</ele>
        <time>2026-08-30T13:22:11Z</time>
      </trkpt>
      <trkpt lat="48.788352" lon="9.877390">
        <ele>424.2</ele>
        <time>2026-08-30T13:22:12Z</time>
      </trkpt>
      <trkpt lat="48.788352" lon="9.877319">
        <ele>424.2</ele>
        <time>2026-08-30T13:22:13Z</time>
      </trkpt>
      <trkpt lat="48.788366" lon="9.877246">
        <ele>424.2</ele>
        <time>2026-08-30T13:22:14Z</time>
      </trkpt>
      <trkpt lat="48.788394" lon="9.877193">
        <ele>424.4</ele>
        <time>2026-08-30T13:22:15Z</time>
      </trkpt>
      <trkpt lat="48.788431" lon="9.877161">
        <ele>424.4</ele>
        <time>2026-08-30T13:22:16Z</time>
      </trkpt>
      <trkpt lat="48.788467" lon="9.877147">
        <ele>424.4</ele>
        <time>2026-08-30T13:22:17Z</time>
      </trkpt>
      <trkpt lat="48.788503" lon="9.877138">
        <ele>424.4</ele>
        <time>2026-08-30T13:22:18Z</time>
      </trkpt>
      <trkpt lat="48.788544" lon="9.877135">
        <ele>424.4</ele>
        <time>2026-08-30T13:22:19Z</time>
      </trkpt>
      <trkpt lat="48.788585" lon="9.877126">
        <ele>424.6</ele>
        <time>2026-08-30T13:22:20Z</time>
      </trkpt>
      <trkpt lat="48.788624" lon="9.877112">
        <ele>424.6</ele>
        <time>2026-08-30T13:22:21Z</time>
      </trkpt>
      <trkpt lat="48.788661" lon="9.877100">
        <ele>424.8</ele>
        <time>2026-08-30T13:22:22Z</time>
      </trkpt>
      <trkpt lat="48.788701" lon="9.877084">
        <ele>424.8</ele>
        <time>2026-08-30T13:22:23Z</time>
      </trkpt>
      <trkpt lat="48.788740" lon="9.877074">
        <ele>425</ele>
        <time>2026-08-30T13:22:24Z</time>
      </trkpt>
      <trkpt lat="48.788782" lon="9.877072">
        <ele>425</ele>
        <time>2026-08-30T13:22:25Z</time>
      </trkpt>
      <trkpt lat="48.788823" lon="9.877061">
        <ele>425.2</ele>
        <time>2026-08-30T13:22:26Z</time>
      </trkpt>
      <trkpt lat="48.788863" lon="9.877041">
        <ele>425.2</ele>
        <time>2026-08-30T13:22:27Z</time>
      </trkpt>
      <trkpt lat="48.788899" lon="9.877018">
        <ele>425.4</ele>
        <time>2026-08-30T13:22:28Z</time>
      </trkpt>
      <trkpt lat="48.788937" lon="9.876999">
        <ele>425.6</ele>
        <time>2026-08-30T13:22:29Z</time>
      </trkpt>
      <trkpt lat="48.788976" lon="9.876982">
        <ele>425.8</ele>
        <time>2026-08-30T13:22:30Z</time>
      </trkpt>
      <trkpt lat="48.789013" lon="9.876971">
        <ele>425.8</ele>
        <time>2026-08-30T13:22:31Z</time>
      </trkpt>
      <trkpt lat="48.789050" lon="9.876976">
        <ele>425.8</ele>
        <time>2026-08-30T13:22:32Z</time>
      </trkpt>
      <trkpt lat="48.789090" lon="9.876976">
        <ele>426</ele>
        <time>2026-08-30T13:22:33Z</time>
      </trkpt>
      <trkpt lat="48.789129" lon="9.876969">
        <ele>426</ele>
        <time>2026-08-30T13:22:34Z</time>
      </trkpt>
      <trkpt lat="48.789167" lon="9.876955">
        <ele>426</ele>
        <time>2026-08-30T13:22:35Z</time>
      </trkpt>
      <trkpt lat="48.789201" lon="9.876932">
        <ele>426.2</ele>
        <time>2026-08-30T13:22:36Z</time>
      </trkpt>
      <trkpt lat="48.789235" lon="9.876914">
        <ele>426.2</ele>
        <time>2026-08-30T13:22:37Z</time>
      </trkpt>
      <trkpt lat="48.789269" lon="9.876910">
        <ele>426.4</ele>
        <time>2026-08-30T13:22:38Z</time>
      </trkpt>
      <trkpt lat="48.789303" lon="9.876913">
        <ele>426.4</ele>
        <time>2026-08-30T13:22:39Z</time>
      </trkpt>
      <trkpt lat="48.789337" lon="9.876911">
        <ele>426.6</ele>
        <time>2026-08-30T13:22:40Z</time>
      </trkpt>
      <trkpt lat="48.789374" lon="9.876902">
        <ele>426.6</ele>
        <time>2026-08-30T13:22:41Z</time>
      </trkpt>
      <trkpt lat="48.789406" lon="9.876879">
        <ele>426.6</ele>
        <time>2026-08-30T13:22:42Z</time>
      </trkpt>
      <trkpt lat="48.789443" lon="9.876859">
        <ele>426.6</ele>
        <time>2026-08-30T13:22:43Z</time>
      </trkpt>
      <trkpt lat="48.789474" lon="9.876833">
        <ele>426.8</ele>
        <time>2026-08-30T13:22:44Z</time>
      </trkpt>
      <trkpt lat="48.789500" lon="9.876797">
        <ele>426.8</ele>
        <time>2026-08-30T13:22:45Z</time>
      </trkpt>
      <trkpt lat="48.789519" lon="9.876749">
        <ele>426.8</ele>
        <time>2026-08-30T13:22:46Z</time>
      </trkpt>
      <trkpt lat="48.789533" lon="9.876700">
        <ele>426.8</ele>
        <time>2026-08-30T13:22:47Z</time>
      </trkpt>
      <trkpt lat="48.789545" lon="9.876647">
        <ele>427</ele>
        <time>2026-08-30T13:22:48Z</time>
      </trkpt>
      <trkpt lat="48.789554" lon="9.876587">
        <ele>426.8</ele>
        <time>2026-08-30T13:22:49Z</time>
      </trkpt>
      <trkpt lat="48.789565" lon="9.876519">
        <ele>426.8</ele>
        <time>2026-08-30T13:22:50Z</time>
      </trkpt>
      <trkpt lat="48.789577" lon="9.876447">
        <ele>426.8</ele>
        <time>2026-08-30T13:22:51Z</time>
      </trkpt>
      <trkpt lat="48.789590" lon="9.876372">
        <ele>426.6</ele>
        <time>2026-08-30T13:22:52Z</time>
      </trkpt>
      <trkpt lat="48.789603" lon="9.876298">
        <ele>426.4</ele>
        <time>2026-08-30T13:22:53Z</time>
      </trkpt>
      <trkpt lat="48.789616" lon="9.876224">
        <ele>426.2</ele>
        <time>2026-08-30T13:22:54Z</time>
      </trkpt>
      <trkpt lat="48.789625" lon="9.876145">
        <ele>426</ele>
        <time>2026-08-30T13:22:55Z</time>
      </trkpt>
      <trkpt lat="48.789630" lon="9.876062">
        <ele>425.8</ele>
        <time>2026-08-30T13:22:56Z</time>
      </trkpt>
      <trkpt lat="48.789631" lon="9.875979">
        <ele>425.6</ele>
        <time>2026-08-30T13:22:57Z</time>
      </trkpt>
      <trkpt lat="48.789623" lon="9.875897">
        <ele>425.6</ele>
        <time>2026-08-30T13:22:58Z</time>
      </trkpt>
      <trkpt lat="48.789606" lon="9.875817">
        <ele>425.4</ele>
        <time>2026-08-30T13:22:59Z</time>
      </trkpt>
      <trkpt lat="48.789586" lon="9.875742">
        <ele>425.4</ele>
        <time>2026-08-30T13:23:00Z</time>
      </trkpt>
      <trkpt lat="48.789564" lon="9.875667">
        <ele>425.2</ele>
        <time>2026-08-30T13:23:01Z</time>
      </trkpt>
      <trkpt lat="48.789547" lon="9.875597">
        <ele>425.2</ele>
        <time>2026-08-30T13:23:02Z</time>
      </trkpt>
      <trkpt lat="48.789538" lon="9.875529">
        <ele>425.2</ele>
        <time>2026-08-30T13:23:03Z</time>
      </trkpt>
      <trkpt lat="48.789537" lon="9.875466">
        <ele>425.2</ele>
        <time>2026-08-30T13:23:04Z</time>
      </trkpt>
      <trkpt lat="48.789536" lon="9.875407">
        <ele>425.2</ele>
        <time>2026-08-30T13:23:05Z</time>
      </trkpt>
      <trkpt lat="48.789530" lon="9.875359">
        <ele>425.4</ele>
        <time>2026-08-30T13:23:06Z</time>
      </trkpt>
      <trkpt lat="48.789523" lon="9.875315">
        <ele>425.8</ele>
        <time>2026-08-30T13:23:07Z</time>
      </trkpt>
      <trkpt lat="48.789519" lon="9.875275">
        <ele>426</ele>
        <time>2026-08-30T13:23:08Z</time>
      </trkpt>
      <trkpt lat="48.789516" lon="9.875233">
        <ele>426.2</ele>
        <time>2026-08-30T13:23:09Z</time>
      </trkpt>
      <trkpt lat="48.789510" lon="9.875187">
        <ele>426.4</ele>
        <time>2026-08-30T13:23:10Z</time>
      </trkpt>
      <trkpt lat="48.789508" lon="9.875140">
        <ele>426.6</ele>
        <time>2026-08-30T13:23:11Z</time>
      </trkpt>
      <trkpt lat="48.789504" lon="9.875093">
        <ele>426.6</ele>
        <time>2026-08-30T13:23:12Z</time>
      </trkpt>
      <trkpt lat="48.789504" lon="9.875041">
        <ele>426.6</ele>
        <time>2026-08-30T13:23:13Z</time>
      </trkpt>
      <trkpt lat="48.789511" lon="9.874993">
        <ele>426.6</ele>
        <time>2026-08-30T13:23:14Z</time>
      </trkpt>
      <trkpt lat="48.789516" lon="9.874939">
        <ele>426.6</ele>
        <time>2026-08-30T13:23:15Z</time>
      </trkpt>
      <trkpt lat="48.789516" lon="9.874879">
        <ele>426.6</ele>
        <time>2026-08-30T13:23:16Z</time>
      </trkpt>
      <trkpt lat="48.789511" lon="9.874816">
        <ele>426.6</ele>
        <time>2026-08-30T13:23:17Z</time>
      </trkpt>
      <trkpt lat="48.789504" lon="9.874753">
        <ele>426.4</ele>
        <time>2026-08-30T13:23:18Z</time>
      </trkpt>
      <trkpt lat="48.789497" lon="9.874692">
        <ele>426.4</ele>
        <time>2026-08-30T13:23:19Z</time>
      </trkpt>
      <trkpt lat="48.789489" lon="9.874628">
        <ele>426.2</ele>
        <time>2026-08-30T13:23:20Z</time>
      </trkpt>
      <trkpt lat="48.789483" lon="9.874563">
        <ele>426</ele>
        <time>2026-08-30T13:23:21Z</time>
      </trkpt>
      <trkpt lat="48.789479" lon="9.874495">
        <ele>426</ele>
        <time>2026-08-30T13:23:22Z</time>
      </trkpt>
      <trkpt lat="48.789473" lon="9.874430">
        <ele>425.8</ele>
        <time>2026-08-30T13:23:23Z</time>
      </trkpt>
      <trkpt lat="48.789465" lon="9.874360">
        <ele>425.8</ele>
        <time>2026-08-30T13:23:24Z</time>
      </trkpt>
      <trkpt lat="48.789453" lon="9.874288">
        <ele>425.6</ele>
        <time>2026-08-30T13:23:25Z</time>
      </trkpt>
      <trkpt lat="48.789445" lon="9.874214">
        <ele>425.6</ele>
        <time>2026-08-30T13:23:26Z</time>
      </trkpt>
      <trkpt lat="48.789434" lon="9.874140">
        <ele>425.4</ele>
        <time>2026-08-30T13:23:27Z</time>
      </trkpt>
      <trkpt lat="48.789419" lon="9.874065">
        <ele>425.2</ele>
        <time>2026-08-30T13:23:28Z</time>
      </trkpt>
      <trkpt lat="48.789399" lon="9.873988">
        <ele>425</ele>
        <time>2026-08-30T13:23:29Z</time>
      </trkpt>
      <trkpt lat="48.789379" lon="9.873909">
        <ele>424.8</ele>
        <time>2026-08-30T13:23:30Z</time>
      </trkpt>
      <trkpt lat="48.789358" lon="9.873826">
        <ele>424.6</ele>
        <time>2026-08-30T13:23:31Z</time>
      </trkpt>
      <trkpt lat="48.789337" lon="9.873743">
        <ele>424.2</ele>
        <time>2026-08-30T13:23:32Z</time>
      </trkpt>
      <trkpt lat="48.789319" lon="9.873659">
        <ele>424</ele>
        <time>2026-08-30T13:23:33Z</time>
      </trkpt>
      <trkpt lat="48.789301" lon="9.873575">
        <ele>423.8</ele>
        <time>2026-08-30T13:23:34Z</time>
      </trkpt>
      <trkpt lat="48.789280" lon="9.873493">
        <ele>423.4</ele>
        <time>2026-08-30T13:23:35Z</time>
      </trkpt>
      <trkpt lat="48.789260" lon="9.873416">
        <ele>423.2</ele>
        <time>2026-08-30T13:23:36Z</time>
      </trkpt>
      <trkpt lat="48.789242" lon="9.873341">
        <ele>423</ele>
        <time>2026-08-30T13:23:37Z</time>
      </trkpt>
      <trkpt lat="48.789223" lon="9.873267">
        <ele>422.8</ele>
        <time>2026-08-30T13:23:38Z</time>
      </trkpt>
      <trkpt lat="48.789207" lon="9.873191">
        <ele>422.6</ele>
        <time>2026-08-30T13:23:39Z</time>
      </trkpt>
      <trkpt lat="48.789198" lon="9.873111">
        <ele>422.4</ele>
        <time>2026-08-30T13:23:40Z</time>
      </trkpt>
      <trkpt lat="48.789184" lon="9.873026">
        <ele>422.2</ele>
        <time>2026-08-30T13:23:41Z</time>
      </trkpt>
      <trkpt lat="48.789165" lon="9.872943">
        <ele>422.2</ele>
        <time>2026-08-30T13:23:42Z</time>
      </trkpt>
      <trkpt lat="48.789145" lon="9.872864">
        <ele>422</ele>
        <time>2026-08-30T13:23:43Z</time>
      </trkpt>
      <trkpt lat="48.789132" lon="9.872787">
        <ele>422</ele>
        <time>2026-08-30T13:23:44Z</time>
      </trkpt>
      <trkpt lat="48.789124" lon="9.872712">
        <ele>422</ele>
        <time>2026-08-30T13:23:45Z</time>
      </trkpt>
      <trkpt lat="48.789116" lon="9.872639">
        <ele>422</ele>
        <time>2026-08-30T13:23:46Z</time>
      </trkpt>
      <trkpt lat="48.789106" lon="9.872572">
        <ele>422</ele>
        <time>2026-08-30T13:23:47Z</time>
      </trkpt>
      <trkpt lat="48.789095" lon="9.872503">
        <ele>422.2</ele>
        <time>2026-08-30T13:23:48Z</time>
      </trkpt>
      <trkpt lat="48.789087" lon="9.872437">
        <ele>422.4</ele>
        <time>2026-08-30T13:23:49Z</time>
      </trkpt>
      <trkpt lat="48.789079" lon="9.872375">
        <ele>422.4</ele>
        <time>2026-08-30T13:23:50Z</time>
      </trkpt>
      <trkpt lat="48.789064" lon="9.872307">
        <ele>422.6</ele>
        <time>2026-08-30T13:23:51Z</time>
      </trkpt>
      <trkpt lat="48.789050" lon="9.872241">
        <ele>422.6</ele>
        <time>2026-08-30T13:23:52Z</time>
      </trkpt>
      <trkpt lat="48.789038" lon="9.872169">
        <ele>422.6</ele>
        <time>2026-08-30T13:23:53Z</time>
      </trkpt>
      <trkpt lat="48.789024" lon="9.872091">
        <ele>422.6</ele>
        <time>2026-08-30T13:23:54Z</time>
      </trkpt>
      <trkpt lat="48.789014" lon="9.872011">
        <ele>422.4</ele>
        <time>2026-08-30T13:23:55Z</time>
      </trkpt>
      <trkpt lat="48.789005" lon="9.871933">
        <ele>422.2</ele>
        <time>2026-08-30T13:23:56Z</time>
      </trkpt>
      <trkpt lat="48.788999" lon="9.871851">
        <ele>422</ele>
        <time>2026-08-30T13:23:57Z</time>
      </trkpt>
      <trkpt lat="48.788996" lon="9.871771">
        <ele>421.8</ele>
        <time>2026-08-30T13:23:58Z</time>
      </trkpt>
      <trkpt lat="48.788995" lon="9.871694">
        <ele>421.6</ele>
        <time>2026-08-30T13:23:59Z</time>
      </trkpt>
      <trkpt lat="48.788998" lon="9.871622">
        <ele>421.4</ele>
        <time>2026-08-30T13:24:00Z</time>
      </trkpt>
      <trkpt lat="48.788998" lon="9.871555">
        <ele>421.4</ele>
        <time>2026-08-30T13:24:01Z</time>
      </trkpt>
      <trkpt lat="48.788994" lon="9.871486">
        <ele>421.2</ele>
        <time>2026-08-30T13:24:02Z</time>
      </trkpt>
      <trkpt lat="48.788992" lon="9.871417">
        <ele>421.4</ele>
        <time>2026-08-30T13:24:03Z</time>
      </trkpt>
      <trkpt lat="48.788994" lon="9.871349">
        <ele>421.4</ele>
        <time>2026-08-30T13:24:04Z</time>
      </trkpt>
      <trkpt lat="48.788999" lon="9.871282">
        <ele>421.6</ele>
        <time>2026-08-30T13:24:05Z</time>
      </trkpt>
      <trkpt lat="48.789001" lon="9.871222">
        <ele>421.6</ele>
        <time>2026-08-30T13:24:06Z</time>
      </trkpt>
      <trkpt lat="48.788997" lon="9.871163">
        <ele>421.8</ele>
        <time>2026-08-30T13:24:07Z</time>
      </trkpt>
      <trkpt lat="48.788995" lon="9.871105">
        <ele>421.8</ele>
        <time>2026-08-30T13:24:08Z</time>
      </trkpt>
      <trkpt lat="48.788993" lon="9.871046">
        <ele>421.8</ele>
        <time>2026-08-30T13:24:09Z</time>
      </trkpt>
      <trkpt lat="48.788995" lon="9.870986">
        <ele>421.8</ele>
        <time>2026-08-30T13:24:10Z</time>
      </trkpt>
      <trkpt lat="48.788999" lon="9.870926">
        <ele>422</ele>
        <time>2026-08-30T13:24:11Z</time>
      </trkpt>
      <trkpt lat="48.789006" lon="9.870868">
        <ele>422</ele>
        <time>2026-08-30T13:24:12Z</time>
      </trkpt>
      <trkpt lat="48.789009" lon="9.870812">
        <ele>422.2</ele>
        <time>2026-08-30T13:24:13Z</time>
      </trkpt>
      <trkpt lat="48.789016" lon="9.870757">
        <ele>422.2</ele>
        <time>2026-08-30T13:24:14Z</time>
      </trkpt>
      <trkpt lat="48.789018" lon="9.870704">
        <ele>422.2</ele>
        <time>2026-08-30T13:24:15Z</time>
      </trkpt>
      <trkpt lat="48.789016" lon="9.870652">
        <ele>422.4</ele>
        <time>2026-08-30T13:24:16Z</time>
      </trkpt>
      <trkpt lat="48.789015" lon="9.870598">
        <ele>422.4</ele>
        <time>2026-08-30T13:24:17Z</time>
      </trkpt>
      <trkpt lat="48.789019" lon="9.870542">
        <ele>422.6</ele>
        <time>2026-08-30T13:24:18Z</time>
      </trkpt>
      <trkpt lat="48.789023" lon="9.870487">
        <ele>422.6</ele>
        <time>2026-08-30T13:24:19Z</time>
      </trkpt>
      <trkpt lat="48.789023" lon="9.870436">
        <ele>422.6</ele>
        <time>2026-08-30T13:24:20Z</time>
      </trkpt>
      <trkpt lat="48.789024" lon="9.870384">
        <ele>422.6</ele>
        <time>2026-08-30T13:24:21Z</time>
      </trkpt>
      <trkpt lat="48.789023" lon="9.870332">
        <ele>422.8</ele>
        <time>2026-08-30T13:24:22Z</time>
      </trkpt>
      <trkpt lat="48.789024" lon="9.870281">
        <ele>422.8</ele>
        <time>2026-08-30T13:24:23Z</time>
      </trkpt>
      <trkpt lat="48.789026" lon="9.870231">
        <ele>422.8</ele>
        <time>2026-08-30T13:24:24Z</time>
      </trkpt>
      <trkpt lat="48.789025" lon="9.870179">
        <ele>423</ele>
        <time>2026-08-30T13:24:25Z</time>
      </trkpt>
      <trkpt lat="48.789024" lon="9.870129">
        <ele>423.2</ele>
        <time>2026-08-30T13:24:26Z</time>
      </trkpt>
      <trkpt lat="48.789027" lon="9.870073">
        <ele>423.2</ele>
        <time>2026-08-30T13:24:27Z</time>
      </trkpt>
      <trkpt lat="48.789041" lon="9.870023">
        <ele>423.4</ele>
        <time>2026-08-30T13:24:28Z</time>
      </trkpt>
      <trkpt lat="48.789059" lon="9.869978">
        <ele>423.4</ele>
        <time>2026-08-30T13:24:29Z</time>
      </trkpt>
      <trkpt lat="48.789080" lon="9.869934">
        <ele>423.4</ele>
        <time>2026-08-30T13:24:30Z</time>
      </trkpt>
      <trkpt lat="48.789098" lon="9.869887">
        <ele>423.4</ele>
        <time>2026-08-30T13:24:31Z</time>
      </trkpt>
      <trkpt lat="48.789117" lon="9.869844">
        <ele>423.4</ele>
        <time>2026-08-30T13:24:32Z</time>
      </trkpt>
      <trkpt lat="48.789137" lon="9.869800">
        <ele>423.2</ele>
        <time>2026-08-30T13:24:33Z</time>
      </trkpt>
      <trkpt lat="48.789160" lon="9.869755">
        <ele>423.2</ele>
        <time>2026-08-30T13:24:34Z</time>
      </trkpt>
      <trkpt lat="48.789181" lon="9.869708">
        <ele>423.2</ele>
        <time>2026-08-30T13:24:35Z</time>
      </trkpt>
      <trkpt lat="48.789204" lon="9.869661">
        <ele>423</ele>
        <time>2026-08-30T13:24:36Z</time>
      </trkpt>
      <trkpt lat="48.789224" lon="9.869605">
        <ele>423</ele>
        <time>2026-08-30T13:24:37Z</time>
      </trkpt>
      <trkpt lat="48.789239" lon="9.869545">
        <ele>423</ele>
        <time>2026-08-30T13:24:38Z</time>
      </trkpt>
      <trkpt lat="48.789252" lon="9.869482">
        <ele>422.8</ele>
        <time>2026-08-30T13:24:39Z</time>
      </trkpt>
      <trkpt lat="48.789268" lon="9.869416">
        <ele>422.8</ele>
        <time>2026-08-30T13:24:40Z</time>
      </trkpt>
      <trkpt lat="48.789287" lon="9.869347">
        <ele>422.6</ele>
        <time>2026-08-30T13:24:41Z</time>
      </trkpt>
      <trkpt lat="48.789308" lon="9.869278">
        <ele>422.4</ele>
        <time>2026-08-30T13:24:42Z</time>
      </trkpt>
      <trkpt lat="48.789329" lon="9.869204">
        <ele>422.4</ele>
        <time>2026-08-30T13:24:43Z</time>
      </trkpt>
      <trkpt lat="48.789349" lon="9.869129">
        <ele>422.2</ele>
        <time>2026-08-30T13:24:44Z</time>
      </trkpt>
      <trkpt lat="48.789369" lon="9.869051">
        <ele>422</ele>
        <time>2026-08-30T13:24:45Z</time>
      </trkpt>
      <trkpt lat="48.789389" lon="9.868970">
        <ele>421.8</ele>
        <time>2026-08-30T13:24:46Z</time>
      </trkpt>
      <trkpt lat="48.789411" lon="9.868889">
        <ele>421.6</ele>
        <time>2026-08-30T13:24:47Z</time>
      </trkpt>
      <trkpt lat="48.789432" lon="9.868806">
        <ele>421.4</ele>
        <time>2026-08-30T13:24:48Z</time>
      </trkpt>
      <trkpt lat="48.789457" lon="9.868727">
        <ele>421.2</ele>
        <time>2026-08-30T13:24:49Z</time>
      </trkpt>
      <trkpt lat="48.789480" lon="9.868647">
        <ele>421</ele>
        <time>2026-08-30T13:24:50Z</time>
      </trkpt>
      <trkpt lat="48.789501" lon="9.868565">
        <ele>420.6</ele>
        <time>2026-08-30T13:24:51Z</time>
      </trkpt>
      <trkpt lat="48.789525" lon="9.868482">
        <ele>420.4</ele>
        <time>2026-08-30T13:24:52Z</time>
      </trkpt>
      <trkpt lat="48.789550" lon="9.868400">
        <ele>420.2</ele>
        <time>2026-08-30T13:24:53Z</time>
      </trkpt>
      <trkpt lat="48.789573" lon="9.868311">
        <ele>420</ele>
        <time>2026-08-30T13:24:54Z</time>
      </trkpt>
      <trkpt lat="48.789595" lon="9.868222">
        <ele>419.6</ele>
        <time>2026-08-30T13:24:55Z</time>
      </trkpt>
      <trkpt lat="48.789621" lon="9.868135">
        <ele>419.4</ele>
        <time>2026-08-30T13:24:56Z</time>
      </trkpt>
      <trkpt lat="48.789644" lon="9.868043">
        <ele>419</ele>
        <time>2026-08-30T13:24:57Z</time>
      </trkpt>
      <trkpt lat="48.789666" lon="9.867956">
        <ele>418.8</ele>
        <time>2026-08-30T13:24:58Z</time>
      </trkpt>
      <trkpt lat="48.789692" lon="9.867873">
        <ele>418.4</ele>
        <time>2026-08-30T13:24:59Z</time>
      </trkpt>
      <trkpt lat="48.789719" lon="9.867794">
        <ele>418.2</ele>
        <time>2026-08-30T13:25:00Z</time>
      </trkpt>
      <trkpt lat="48.789749" lon="9.867721">
        <ele>418</ele>
        <time>2026-08-30T13:25:01Z</time>
      </trkpt>
      <trkpt lat="48.789779" lon="9.867653">
        <ele>417.6</ele>
        <time>2026-08-30T13:25:02Z</time>
      </trkpt>
      <trkpt lat="48.789805" lon="9.867585">
        <ele>417.6</ele>
        <time>2026-08-30T13:25:03Z</time>
      </trkpt>
      <trkpt lat="48.789829" lon="9.867515">
        <ele>417.4</ele>
        <time>2026-08-30T13:25:04Z</time>
      </trkpt>
      <trkpt lat="48.789852" lon="9.867443">
        <ele>417.2</ele>
        <time>2026-08-30T13:25:05Z</time>
      </trkpt>
      <trkpt lat="48.789869" lon="9.867367">
        <ele>417.2</ele>
        <time>2026-08-30T13:25:06Z</time>
      </trkpt>
      <trkpt lat="48.789889" lon="9.867289">
        <ele>417</ele>
        <time>2026-08-30T13:25:07Z</time>
      </trkpt>
      <trkpt lat="48.789905" lon="9.867212">
        <ele>417</ele>
        <time>2026-08-30T13:25:08Z</time>
      </trkpt>
      <trkpt lat="48.789918" lon="9.867132">
        <ele>417</ele>
        <time>2026-08-30T13:25:09Z</time>
      </trkpt>
      <trkpt lat="48.789926" lon="9.867055">
        <ele>417</ele>
        <time>2026-08-30T13:25:10Z</time>
      </trkpt>
      <trkpt lat="48.789934" lon="9.866975">
        <ele>416.8</ele>
        <time>2026-08-30T13:25:11Z</time>
      </trkpt>
      <trkpt lat="48.789936" lon="9.866895">
        <ele>416.8</ele>
        <time>2026-08-30T13:25:12Z</time>
      </trkpt>
      <trkpt lat="48.789935" lon="9.866815">
        <ele>416.6</ele>
        <time>2026-08-30T13:25:13Z</time>
      </trkpt>
      <trkpt lat="48.789938" lon="9.866735">
        <ele>416.6</ele>
        <time>2026-08-30T13:25:14Z</time>
      </trkpt>
      <trkpt lat="48.789945" lon="9.866654">
        <ele>416.4</ele>
        <time>2026-08-30T13:25:15Z</time>
      </trkpt>
      <trkpt lat="48.789952" lon="9.866572">
        <ele>416.4</ele>
        <time>2026-08-30T13:25:16Z</time>
      </trkpt>
      <trkpt lat="48.789958" lon="9.866492">
        <ele>416.4</ele>
        <time>2026-08-30T13:25:17Z</time>
      </trkpt>
      <trkpt lat="48.789960" lon="9.866414">
        <ele>416.4</ele>
        <time>2026-08-30T13:25:18Z</time>
      </trkpt>
      <trkpt lat="48.789966" lon="9.866341">
        <ele>416.4</ele>
        <time>2026-08-30T13:25:19Z</time>
      </trkpt>
      <trkpt lat="48.789971" lon="9.866266">
        <ele>416.4</ele>
        <time>2026-08-30T13:25:20Z</time>
      </trkpt>
      <trkpt lat="48.789984" lon="9.866197">
        <ele>416.4</ele>
        <time>2026-08-30T13:25:21Z</time>
      </trkpt>
      <trkpt lat="48.789997" lon="9.866128">
        <ele>416.4</ele>
        <time>2026-08-30T13:25:22Z</time>
      </trkpt>
      <trkpt lat="48.790003" lon="9.866057">
        <ele>416.4</ele>
        <time>2026-08-30T13:25:23Z</time>
      </trkpt>
      <trkpt lat="48.790009" lon="9.865981">
        <ele>416.4</ele>
        <time>2026-08-30T13:25:24Z</time>
      </trkpt>
      <trkpt lat="48.790020" lon="9.865908">
        <ele>416.4</ele>
        <time>2026-08-30T13:25:25Z</time>
      </trkpt>
      <trkpt lat="48.790030" lon="9.865835">
        <ele>416.4</ele>
        <time>2026-08-30T13:25:26Z</time>
      </trkpt>
      <trkpt lat="48.790041" lon="9.865761">
        <ele>416.4</ele>
        <time>2026-08-30T13:25:27Z</time>
      </trkpt>
      <trkpt lat="48.790052" lon="9.865686">
        <ele>416.4</ele>
        <time>2026-08-30T13:25:28Z</time>
      </trkpt>
      <trkpt lat="48.790058" lon="9.865611">
        <ele>416.4</ele>
        <time>2026-08-30T13:25:29Z</time>
      </trkpt>
      <trkpt lat="48.790061" lon="9.865536">
        <ele>416.4</ele>
        <time>2026-08-30T13:25:30Z</time>
      </trkpt>
      <trkpt lat="48.790063" lon="9.865460">
        <ele>416.4</ele>
        <time>2026-08-30T13:25:31Z</time>
      </trkpt>
      <trkpt lat="48.790068" lon="9.865384">
        <ele>416.4</ele>
        <time>2026-08-30T13:25:32Z</time>
      </trkpt>
      <trkpt lat="48.790074" lon="9.865311">
        <ele>416.4</ele>
        <time>2026-08-30T13:25:33Z</time>
      </trkpt>
      <trkpt lat="48.790075" lon="9.865235">
        <ele>416.4</ele>
        <time>2026-08-30T13:25:34Z</time>
      </trkpt>
      <trkpt lat="48.790075" lon="9.865159">
        <ele>416.2</ele>
        <time>2026-08-30T13:25:35Z</time>
      </trkpt>
      <trkpt lat="48.790074" lon="9.865086">
        <ele>416.4</ele>
        <time>2026-08-30T13:25:36Z</time>
      </trkpt>
      <trkpt lat="48.790075" lon="9.865011">
        <ele>416.4</ele>
        <time>2026-08-30T13:25:37Z</time>
      </trkpt>
      <trkpt lat="48.790075" lon="9.864935">
        <ele>416.4</ele>
        <time>2026-08-30T13:25:38Z</time>
      </trkpt>
      <trkpt lat="48.790073" lon="9.864858">
        <ele>416.4</ele>
        <time>2026-08-30T13:25:39Z</time>
      </trkpt>
      <trkpt lat="48.790073" lon="9.864781">
        <ele>416.2</ele>
        <time>2026-08-30T13:25:40Z</time>
      </trkpt>
      <trkpt lat="48.790072" lon="9.864703">
        <ele>416.2</ele>
        <time>2026-08-30T13:25:41Z</time>
      </trkpt>
      <trkpt lat="48.790068" lon="9.864626">
        <ele>416.2</ele>
        <time>2026-08-30T13:25:42Z</time>
      </trkpt>
      <trkpt lat="48.790062" lon="9.864552">
        <ele>416.2</ele>
        <time>2026-08-30T13:25:43Z</time>
      </trkpt>
      <trkpt lat="48.790060" lon="9.864478">
        <ele>416</ele>
        <time>2026-08-30T13:25:44Z</time>
      </trkpt>
      <trkpt lat="48.790060" lon="9.864405">
        <ele>416</ele>
        <time>2026-08-30T13:25:45Z</time>
      </trkpt>
      <trkpt lat="48.790054" lon="9.864334">
        <ele>416</ele>
        <time>2026-08-30T13:25:46Z</time>
      </trkpt>
      <trkpt lat="48.790047" lon="9.864264">
        <ele>416</ele>
        <time>2026-08-30T13:25:47Z</time>
      </trkpt>
      <trkpt lat="48.790043" lon="9.864192">
        <ele>416</ele>
        <time>2026-08-30T13:25:48Z</time>
      </trkpt>
      <trkpt lat="48.790038" lon="9.864118">
        <ele>416</ele>
        <time>2026-08-30T13:25:49Z</time>
      </trkpt>
      <trkpt lat="48.790031" lon="9.864039">
        <ele>415.8</ele>
        <time>2026-08-30T13:25:50Z</time>
      </trkpt>
      <trkpt lat="48.790020" lon="9.863956">
        <ele>415.6</ele>
        <time>2026-08-30T13:25:51Z</time>
      </trkpt>
      <trkpt lat="48.790006" lon="9.863868">
        <ele>415.2</ele>
        <time>2026-08-30T13:25:52Z</time>
      </trkpt>
      <trkpt lat="48.789987" lon="9.863776">
        <ele>415</ele>
        <time>2026-08-30T13:25:53Z</time>
      </trkpt>
      <trkpt lat="48.789966" lon="9.863684">
        <ele>414.6</ele>
        <time>2026-08-30T13:25:54Z</time>
      </trkpt>
      <trkpt lat="48.789947" lon="9.863592">
        <ele>414.4</ele>
        <time>2026-08-30T13:25:55Z</time>
      </trkpt>
      <trkpt lat="48.789931" lon="9.863504">
        <ele>414.2</ele>
        <time>2026-08-30T13:25:56Z</time>
      </trkpt>
      <trkpt lat="48.789928" lon="9.863416">
        <ele>414</ele>
        <time>2026-08-30T13:25:57Z</time>
      </trkpt>
      <trkpt lat="48.789931" lon="9.863331">
        <ele>413.8</ele>
        <time>2026-08-30T13:25:58Z</time>
      </trkpt>
      <trkpt lat="48.789948" lon="9.863253">
        <ele>413.8</ele>
        <time>2026-08-30T13:25:59Z</time>
      </trkpt>
      <trkpt lat="48.789960" lon="9.863175">
        <ele>413.8</ele>
        <time>2026-08-30T13:26:00Z</time>
      </trkpt>
      <trkpt lat="48.789972" lon="9.863111">
        <ele>413.8</ele>
        <time>2026-08-30T13:26:01Z</time>
      </trkpt>
      <trkpt lat="48.789985" lon="9.863046">
        <ele>414</ele>
        <time>2026-08-30T13:26:02Z</time>
      </trkpt>
      <trkpt lat="48.789996" lon="9.862981">
        <ele>414</ele>
        <time>2026-08-30T13:26:03Z</time>
      </trkpt>
      <trkpt lat="48.790003" lon="9.862921">
        <ele>414.2</ele>
        <time>2026-08-30T13:26:04Z</time>
      </trkpt>
      <trkpt lat="48.790006" lon="9.862862">
        <ele>414.4</ele>
        <time>2026-08-30T13:26:05Z</time>
      </trkpt>
      <trkpt lat="48.790004" lon="9.862801">
        <ele>414.4</ele>
        <time>2026-08-30T13:26:06Z</time>
      </trkpt>
      <trkpt lat="48.789995" lon="9.862746">
        <ele>414.6</ele>
        <time>2026-08-30T13:26:07Z</time>
      </trkpt>
      <trkpt lat="48.789981" lon="9.862693">
        <ele>414.8</ele>
        <time>2026-08-30T13:26:08Z</time>
      </trkpt>
      <trkpt lat="48.789974" lon="9.862647">
        <ele>415</ele>
        <time>2026-08-30T13:26:09Z</time>
      </trkpt>
      <trkpt lat="48.789980" lon="9.862600">
        <ele>415</ele>
        <time>2026-08-30T13:26:10Z</time>
      </trkpt>
      <trkpt lat="48.789994" lon="9.862550">
        <ele>415.2</ele>
        <time>2026-08-30T13:26:11Z</time>
      </trkpt>
      <trkpt lat="48.790007" lon="9.862498">
        <ele>415.2</ele>
        <time>2026-08-30T13:26:12Z</time>
      </trkpt>
      <trkpt lat="48.790021" lon="9.862443">
        <ele>415.4</ele>
        <time>2026-08-30T13:26:13Z</time>
      </trkpt>
      <trkpt lat="48.790037" lon="9.862388">
        <ele>415.4</ele>
        <time>2026-08-30T13:26:14Z</time>
      </trkpt>
      <trkpt lat="48.790057" lon="9.862335">
        <ele>415.4</ele>
        <time>2026-08-30T13:26:15Z</time>
      </trkpt>
      <trkpt lat="48.790074" lon="9.862279">
        <ele>415.6</ele>
        <time>2026-08-30T13:26:16Z</time>
      </trkpt>
      <trkpt lat="48.790093" lon="9.862221">
        <ele>415.8</ele>
        <time>2026-08-30T13:26:17Z</time>
      </trkpt>
      <trkpt lat="48.790116" lon="9.862166">
        <ele>415.8</ele>
        <time>2026-08-30T13:26:18Z</time>
      </trkpt>
      <trkpt lat="48.790144" lon="9.862118">
        <ele>415.8</ele>
        <time>2026-08-30T13:26:19Z</time>
      </trkpt>
      <trkpt lat="48.790173" lon="9.862072">
        <ele>416</ele>
        <time>2026-08-30T13:26:20Z</time>
      </trkpt>
      <trkpt lat="48.790199" lon="9.862022">
        <ele>416</ele>
        <time>2026-08-30T13:26:21Z</time>
      </trkpt>
      <trkpt lat="48.790225" lon="9.861970">
        <ele>416</ele>
        <time>2026-08-30T13:26:22Z</time>
      </trkpt>
      <trkpt lat="48.790253" lon="9.861922">
        <ele>416</ele>
        <time>2026-08-30T13:26:23Z</time>
      </trkpt>
      <trkpt lat="48.790284" lon="9.861878">
        <ele>415.8</ele>
        <time>2026-08-30T13:26:24Z</time>
      </trkpt>
      <trkpt lat="48.790314" lon="9.861839">
        <ele>415.8</ele>
        <time>2026-08-30T13:26:25Z</time>
      </trkpt>
      <trkpt lat="48.790344" lon="9.861808">
        <ele>415.8</ele>
        <time>2026-08-30T13:26:26Z</time>
      </trkpt>
      <trkpt lat="48.790373" lon="9.861767">
        <ele>415.8</ele>
        <time>2026-08-30T13:26:27Z</time>
      </trkpt>
      <trkpt lat="48.790389" lon="9.861713">
        <ele>416</ele>
        <time>2026-08-30T13:26:28Z</time>
      </trkpt>
      <trkpt lat="48.790386" lon="9.861650">
        <ele>416</ele>
        <time>2026-08-30T13:26:29Z</time>
      </trkpt>
      <trkpt lat="48.790368" lon="9.861604">
        <ele>416.2</ele>
        <time>2026-08-30T13:26:30Z</time>
      </trkpt>
      <trkpt lat="48.790344" lon="9.861571">
        <ele>416.4</ele>
        <time>2026-08-30T13:26:31Z</time>
      </trkpt>
      <trkpt lat="48.790319" lon="9.861542">
        <ele>416.6</ele>
        <time>2026-08-30T13:26:32Z</time>
      </trkpt>
      <trkpt lat="48.790292" lon="9.861508">
        <ele>416.8</ele>
        <time>2026-08-30T13:26:33Z</time>
      </trkpt>
      <trkpt lat="48.790261" lon="9.861474">
        <ele>417</ele>
        <time>2026-08-30T13:26:34Z</time>
      </trkpt>
      <trkpt lat="48.790227" lon="9.861438">
        <ele>417.2</ele>
        <time>2026-08-30T13:26:35Z</time>
      </trkpt>
      <trkpt lat="48.790190" lon="9.861401">
        <ele>417.2</ele>
        <time>2026-08-30T13:26:36Z</time>
      </trkpt>
      <trkpt lat="48.790153" lon="9.861360">
        <ele>417.4</ele>
        <time>2026-08-30T13:26:37Z</time>
      </trkpt>
      <trkpt lat="48.790124" lon="9.861306">
        <ele>417.4</ele>
        <time>2026-08-30T13:26:38Z</time>
      </trkpt>
      <trkpt lat="48.790102" lon="9.861246">
        <ele>417.4</ele>
        <time>2026-08-30T13:26:39Z</time>
      </trkpt>
      <trkpt lat="48.790085" lon="9.861181">
        <ele>417.6</ele>
        <time>2026-08-30T13:26:40Z</time>
      </trkpt>
      <trkpt lat="48.790072" lon="9.861116">
        <ele>417.6</ele>
        <time>2026-08-30T13:26:41Z</time>
      </trkpt>
      <trkpt lat="48.790070" lon="9.861049">
        <ele>417.8</ele>
        <time>2026-08-30T13:26:42Z</time>
      </trkpt>
      <trkpt lat="48.790073" lon="9.860982">
        <ele>417.8</ele>
        <time>2026-08-30T13:26:43Z</time>
      </trkpt>
      <trkpt lat="48.790075" lon="9.860916">
        <ele>417.8</ele>
        <time>2026-08-30T13:26:44Z</time>
      </trkpt>
      <trkpt lat="48.790076" lon="9.860849">
        <ele>418</ele>
        <time>2026-08-30T13:26:45Z</time>
      </trkpt>
      <trkpt lat="48.790082" lon="9.860785">
        <ele>418</ele>
        <time>2026-08-30T13:26:46Z</time>
      </trkpt>
      <trkpt lat="48.790087" lon="9.860719">
        <ele>418.2</ele>
        <time>2026-08-30T13:26:47Z</time>
      </trkpt>
      <trkpt lat="48.790094" lon="9.860653">
        <ele>418.2</ele>
        <time>2026-08-30T13:26:48Z</time>
      </trkpt>
      <trkpt lat="48.790103" lon="9.860588">
        <ele>418.4</ele>
        <time>2026-08-30T13:26:49Z</time>
      </trkpt>
      <trkpt lat="48.790110" lon="9.860524">
        <ele>418.6</ele>
        <time>2026-08-30T13:26:50Z</time>
      </trkpt>
      <trkpt lat="48.790117" lon="9.860457">
        <ele>418.8</ele>
        <time>2026-08-30T13:26:51Z</time>
      </trkpt>
      <trkpt lat="48.790127" lon="9.860392">
        <ele>418.8</ele>
        <time>2026-08-30T13:26:52Z</time>
      </trkpt>
      <trkpt lat="48.790139" lon="9.860324">
        <ele>419</ele>
        <time>2026-08-30T13:26:53Z</time>
      </trkpt>
      <trkpt lat="48.790148" lon="9.860260">
        <ele>419.2</ele>
        <time>2026-08-30T13:26:54Z</time>
      </trkpt>
      <trkpt lat="48.790158" lon="9.860197">
        <ele>419.2</ele>
        <time>2026-08-30T13:26:55Z</time>
      </trkpt>
      <trkpt lat="48.790167" lon="9.860136">
        <ele>419.4</ele>
        <time>2026-08-30T13:26:56Z</time>
      </trkpt>
      <trkpt lat="48.790177" lon="9.860075">
        <ele>419.4</ele>
        <time>2026-08-30T13:26:57Z</time>
      </trkpt>
      <trkpt lat="48.790186" lon="9.860007">
        <ele>419.6</ele>
        <time>2026-08-30T13:26:58Z</time>
      </trkpt>
      <trkpt lat="48.790200" lon="9.859939">
        <ele>419.6</ele>
        <time>2026-08-30T13:26:59Z</time>
      </trkpt>
      <trkpt lat="48.790217" lon="9.859875">
        <ele>419.8</ele>
        <time>2026-08-30T13:27:00Z</time>
      </trkpt>
      <trkpt lat="48.790237" lon="9.859814">
        <ele>419.8</ele>
        <time>2026-08-30T13:27:01Z</time>
      </trkpt>
      <trkpt lat="48.790260" lon="9.859757">
        <ele>419.8</ele>
        <time>2026-08-30T13:27:02Z</time>
      </trkpt>
      <trkpt lat="48.790286" lon="9.859705">
        <ele>419.8</ele>
        <time>2026-08-30T13:27:03Z</time>
      </trkpt>
      <trkpt lat="48.790311" lon="9.859650">
        <ele>420</ele>
        <time>2026-08-30T13:27:04Z</time>
      </trkpt>
      <trkpt lat="48.790337" lon="9.859597">
        <ele>420</ele>
        <time>2026-08-30T13:27:05Z</time>
      </trkpt>
      <trkpt lat="48.790362" lon="9.859546">
        <ele>420</ele>
        <time>2026-08-30T13:27:06Z</time>
      </trkpt>
      <trkpt lat="48.790389" lon="9.859495">
        <ele>420</ele>
        <time>2026-08-30T13:27:07Z</time>
      </trkpt>
      <trkpt lat="48.790417" lon="9.859443">
        <ele>420.2</ele>
        <time>2026-08-30T13:27:08Z</time>
      </trkpt>
      <trkpt lat="48.790441" lon="9.859389">
        <ele>420.2</ele>
        <time>2026-08-30T13:27:09Z</time>
      </trkpt>
      <trkpt lat="48.790464" lon="9.859335">
        <ele>420.4</ele>
        <time>2026-08-30T13:27:10Z</time>
      </trkpt>
      <trkpt lat="48.790489" lon="9.859278">
        <ele>420.4</ele>
        <time>2026-08-30T13:27:11Z</time>
      </trkpt>
      <trkpt lat="48.790516" lon="9.859225">
        <ele>420.4</ele>
        <time>2026-08-30T13:27:12Z</time>
      </trkpt>
      <trkpt lat="48.790542" lon="9.859172">
        <ele>420.6</ele>
        <time>2026-08-30T13:27:13Z</time>
      </trkpt>
      <trkpt lat="48.790565" lon="9.859121">
        <ele>420.6</ele>
        <time>2026-08-30T13:27:14Z</time>
      </trkpt>
      <trkpt lat="48.790587" lon="9.859071">
        <ele>420.6</ele>
        <time>2026-08-30T13:27:15Z</time>
      </trkpt>
      <trkpt lat="48.790606" lon="9.859019">
        <ele>420.6</ele>
        <time>2026-08-30T13:27:16Z</time>
      </trkpt>
      <trkpt lat="48.790627" lon="9.858964">
        <ele>420.6</ele>
        <time>2026-08-30T13:27:17Z</time>
      </trkpt>
      <trkpt lat="48.790650" lon="9.858910">
        <ele>420.8</ele>
        <time>2026-08-30T13:27:18Z</time>
      </trkpt>
      <trkpt lat="48.790672" lon="9.858855">
        <ele>420.8</ele>
        <time>2026-08-30T13:27:19Z</time>
      </trkpt>
      <trkpt lat="48.790689" lon="9.858800">
        <ele>420.8</ele>
        <time>2026-08-30T13:27:20Z</time>
      </trkpt>
      <trkpt lat="48.790702" lon="9.858742">
        <ele>420.8</ele>
        <time>2026-08-30T13:27:21Z</time>
      </trkpt>
      <trkpt lat="48.790719" lon="9.858683">
        <ele>420.8</ele>
        <time>2026-08-30T13:27:22Z</time>
      </trkpt>
      <trkpt lat="48.790733" lon="9.858625">
        <ele>420.8</ele>
        <time>2026-08-30T13:27:23Z</time>
      </trkpt>
      <trkpt lat="48.790744" lon="9.858563">
        <ele>421</ele>
        <time>2026-08-30T13:27:24Z</time>
      </trkpt>
      <trkpt lat="48.790753" lon="9.858503">
        <ele>421</ele>
        <time>2026-08-30T13:27:25Z</time>
      </trkpt>
      <trkpt lat="48.790767" lon="9.858443">
        <ele>421.2</ele>
        <time>2026-08-30T13:27:26Z</time>
      </trkpt>
      <trkpt lat="48.790778" lon="9.858384">
        <ele>421.2</ele>
        <time>2026-08-30T13:27:27Z</time>
      </trkpt>
      <trkpt lat="48.790788" lon="9.858325">
        <ele>421.2</ele>
        <time>2026-08-30T13:27:28Z</time>
      </trkpt>
      <trkpt lat="48.790795" lon="9.858263">
        <ele>421.4</ele>
        <time>2026-08-30T13:27:29Z</time>
      </trkpt>
      <trkpt lat="48.790800" lon="9.858200">
        <ele>421.4</ele>
        <time>2026-08-30T13:27:30Z</time>
      </trkpt>
      <trkpt lat="48.790805" lon="9.858138">
        <ele>421.4</ele>
        <time>2026-08-30T13:27:31Z</time>
      </trkpt>
      <trkpt lat="48.790814" lon="9.858076">
        <ele>421.4</ele>
        <time>2026-08-30T13:27:32Z</time>
      </trkpt>
      <trkpt lat="48.790822" lon="9.858015">
        <ele>421.4</ele>
        <time>2026-08-30T13:27:33Z</time>
      </trkpt>
      <trkpt lat="48.790828" lon="9.857948">
        <ele>421.4</ele>
        <time>2026-08-30T13:27:34Z</time>
      </trkpt>
      <trkpt lat="48.790836" lon="9.857881">
        <ele>421.6</ele>
        <time>2026-08-30T13:27:35Z</time>
      </trkpt>
      <trkpt lat="48.790847" lon="9.857820">
        <ele>421.6</ele>
        <time>2026-08-30T13:27:36Z</time>
      </trkpt>
      <trkpt lat="48.790855" lon="9.857755">
        <ele>421.6</ele>
        <time>2026-08-30T13:27:37Z</time>
      </trkpt>
      <trkpt lat="48.790867" lon="9.857689">
        <ele>421.6</ele>
        <time>2026-08-30T13:27:38Z</time>
      </trkpt>
      <trkpt lat="48.790882" lon="9.857622">
        <ele>421.6</ele>
        <time>2026-08-30T13:27:39Z</time>
      </trkpt>
      <trkpt lat="48.790897" lon="9.857554">
        <ele>421.6</ele>
        <time>2026-08-30T13:27:40Z</time>
      </trkpt>
      <trkpt lat="48.790913" lon="9.857488">
        <ele>421.6</ele>
        <time>2026-08-30T13:27:41Z</time>
      </trkpt>
      <trkpt lat="48.790934" lon="9.857425">
        <ele>421.4</ele>
        <time>2026-08-30T13:27:42Z</time>
      </trkpt>
      <trkpt lat="48.790957" lon="9.857366">
        <ele>421.4</ele>
        <time>2026-08-30T13:27:43Z</time>
      </trkpt>
      <trkpt lat="48.790983" lon="9.857308">
        <ele>421.4</ele>
        <time>2026-08-30T13:27:44Z</time>
      </trkpt>
      <trkpt lat="48.791008" lon="9.857249">
        <ele>421.2</ele>
        <time>2026-08-30T13:27:45Z</time>
      </trkpt>
      <trkpt lat="48.791034" lon="9.857190">
        <ele>421.2</ele>
        <time>2026-08-30T13:27:46Z</time>
      </trkpt>
      <trkpt lat="48.791060" lon="9.857129">
        <ele>421.2</ele>
        <time>2026-08-30T13:27:47Z</time>
      </trkpt>
      <trkpt lat="48.791085" lon="9.857070">
        <ele>421</ele>
        <time>2026-08-30T13:27:48Z</time>
      </trkpt>
      <trkpt lat="48.791109" lon="9.857009">
        <ele>421</ele>
        <time>2026-08-30T13:27:49Z</time>
      </trkpt>
      <trkpt lat="48.791137" lon="9.856952">
        <ele>420.8</ele>
        <time>2026-08-30T13:27:50Z</time>
      </trkpt>
      <trkpt lat="48.791164" lon="9.856897">
        <ele>420.8</ele>
        <time>2026-08-30T13:27:51Z</time>
      </trkpt>
      <trkpt lat="48.791186" lon="9.856837">
        <ele>420.6</ele>
        <time>2026-08-30T13:27:52Z</time>
      </trkpt>
      <trkpt lat="48.791202" lon="9.856773">
        <ele>420.6</ele>
        <time>2026-08-30T13:27:53Z</time>
      </trkpt>
      <trkpt lat="48.791223" lon="9.856708">
        <ele>420.6</ele>
        <time>2026-08-30T13:27:54Z</time>
      </trkpt>
      <trkpt lat="48.791246" lon="9.856639">
        <ele>420.4</ele>
        <time>2026-08-30T13:27:55Z</time>
      </trkpt>
      <trkpt lat="48.791270" lon="9.856563">
        <ele>420.2</ele>
        <time>2026-08-30T13:27:56Z</time>
      </trkpt>
      <trkpt lat="48.791297" lon="9.856484">
        <ele>420</ele>
        <time>2026-08-30T13:27:57Z</time>
      </trkpt>
      <trkpt lat="48.791329" lon="9.856404">
        <ele>419.8</ele>
        <time>2026-08-30T13:27:58Z</time>
      </trkpt>
      <trkpt lat="48.791366" lon="9.856326">
        <ele>419.4</ele>
        <time>2026-08-30T13:27:59Z</time>
      </trkpt>
      <trkpt lat="48.791399" lon="9.856251">
        <ele>419.2</ele>
        <time>2026-08-30T13:28:00Z</time>
      </trkpt>
      <trkpt lat="48.791434" lon="9.856178">
        <ele>419</ele>
        <time>2026-08-30T13:28:01Z</time>
      </trkpt>
      <trkpt lat="48.791475" lon="9.856108">
        <ele>418.8</ele>
        <time>2026-08-30T13:28:02Z</time>
      </trkpt>
      <trkpt lat="48.791512" lon="9.856036">
        <ele>418.4</ele>
        <time>2026-08-30T13:28:03Z</time>
      </trkpt>
      <trkpt lat="48.791544" lon="9.855964">
        <ele>418.2</ele>
        <time>2026-08-30T13:28:04Z</time>
      </trkpt>
      <trkpt lat="48.791577" lon="9.855889">
        <ele>418</ele>
        <time>2026-08-30T13:28:05Z</time>
      </trkpt>
      <trkpt lat="48.791606" lon="9.855804">
        <ele>417.8</ele>
        <time>2026-08-30T13:28:06Z</time>
      </trkpt>
      <trkpt lat="48.791627" lon="9.855712">
        <ele>417.6</ele>
        <time>2026-08-30T13:28:07Z</time>
      </trkpt>
      <trkpt lat="48.791648" lon="9.855622">
        <ele>417.2</ele>
        <time>2026-08-30T13:28:08Z</time>
      </trkpt>
      <trkpt lat="48.791665" lon="9.855531">
        <ele>417</ele>
        <time>2026-08-30T13:28:09Z</time>
      </trkpt>
      <trkpt lat="48.791673" lon="9.855437">
        <ele>416.8</ele>
        <time>2026-08-30T13:28:10Z</time>
      </trkpt>
      <trkpt lat="48.791674" lon="9.855342">
        <ele>416.8</ele>
        <time>2026-08-30T13:28:11Z</time>
      </trkpt>
      <trkpt lat="48.791671" lon="9.855249">
        <ele>416.6</ele>
        <time>2026-08-30T13:28:12Z</time>
      </trkpt>
      <trkpt lat="48.791665" lon="9.855159">
        <ele>416.4</ele>
        <time>2026-08-30T13:28:13Z</time>
      </trkpt>
      <trkpt lat="48.791655" lon="9.855075">
        <ele>416.4</ele>
        <time>2026-08-30T13:28:14Z</time>
      </trkpt>
      <trkpt lat="48.791645" lon="9.854993">
        <ele>416.4</ele>
        <time>2026-08-30T13:28:15Z</time>
      </trkpt>
      <trkpt lat="48.791634" lon="9.854909">
        <ele>416.4</ele>
        <time>2026-08-30T13:28:16Z</time>
      </trkpt>
      <trkpt lat="48.791622" lon="9.854828">
        <ele>416.4</ele>
        <time>2026-08-30T13:28:17Z</time>
      </trkpt>
      <trkpt lat="48.791610" lon="9.854750">
        <ele>416.4</ele>
        <time>2026-08-30T13:28:18Z</time>
      </trkpt>
      <trkpt lat="48.791598" lon="9.854673">
        <ele>416.4</ele>
        <time>2026-08-30T13:28:19Z</time>
      </trkpt>
      <trkpt lat="48.791590" lon="9.854594">
        <ele>416.4</ele>
        <time>2026-08-30T13:28:20Z</time>
      </trkpt>
      <trkpt lat="48.791580" lon="9.854517">
        <ele>416.4</ele>
        <time>2026-08-30T13:28:21Z</time>
      </trkpt>
      <trkpt lat="48.791570" lon="9.854445">
        <ele>416.6</ele>
        <time>2026-08-30T13:28:22Z</time>
      </trkpt>
      <trkpt lat="48.791560" lon="9.854371">
        <ele>416.6</ele>
        <time>2026-08-30T13:28:23Z</time>
      </trkpt>
      <trkpt lat="48.791551" lon="9.854297">
        <ele>416.6</ele>
        <time>2026-08-30T13:28:24Z</time>
      </trkpt>
      <trkpt lat="48.791543" lon="9.854227">
        <ele>416.8</ele>
        <time>2026-08-30T13:28:25Z</time>
      </trkpt>
      <trkpt lat="48.791533" lon="9.854157">
        <ele>416.8</ele>
        <time>2026-08-30T13:28:26Z</time>
      </trkpt>
      <trkpt lat="48.791529" lon="9.854087">
        <ele>417</ele>
        <time>2026-08-30T13:28:27Z</time>
      </trkpt>
      <trkpt lat="48.791520" lon="9.854014">
        <ele>417</ele>
        <time>2026-08-30T13:28:28Z</time>
      </trkpt>
      <trkpt lat="48.791515" lon="9.853944">
        <ele>417.2</ele>
        <time>2026-08-30T13:28:29Z</time>
      </trkpt>
      <trkpt lat="48.791510" lon="9.853872">
        <ele>417.2</ele>
        <time>2026-08-30T13:28:30Z</time>
      </trkpt>
      <trkpt lat="48.791503" lon="9.853801">
        <ele>417.2</ele>
        <time>2026-08-30T13:28:31Z</time>
      </trkpt>
      <trkpt lat="48.791500" lon="9.853733">
        <ele>417.4</ele>
        <time>2026-08-30T13:28:32Z</time>
      </trkpt>
      <trkpt lat="48.791501" lon="9.853665">
        <ele>417.4</ele>
        <time>2026-08-30T13:28:33Z</time>
      </trkpt>
      <trkpt lat="48.791503" lon="9.853593">
        <ele>417.6</ele>
        <time>2026-08-30T13:28:34Z</time>
      </trkpt>
      <trkpt lat="48.791505" lon="9.853520">
        <ele>417.6</ele>
        <time>2026-08-30T13:28:35Z</time>
      </trkpt>
      <trkpt lat="48.791509" lon="9.853447">
        <ele>417.8</ele>
        <time>2026-08-30T13:28:36Z</time>
      </trkpt>
      <trkpt lat="48.791518" lon="9.853381">
        <ele>418</ele>
        <time>2026-08-30T13:28:37Z</time>
      </trkpt>
      <trkpt lat="48.791529" lon="9.853317">
        <ele>418</ele>
        <time>2026-08-30T13:28:38Z</time>
      </trkpt>
      <trkpt lat="48.791535" lon="9.853251">
        <ele>418.2</ele>
        <time>2026-08-30T13:28:39Z</time>
      </trkpt>
      <trkpt lat="48.791538" lon="9.853185">
        <ele>418.2</ele>
        <time>2026-08-30T13:28:40Z</time>
      </trkpt>
      <trkpt lat="48.791540" lon="9.853118">
        <ele>418.4</ele>
        <time>2026-08-30T13:28:41Z</time>
      </trkpt>
      <trkpt lat="48.791543" lon="9.853051">
        <ele>418.4</ele>
        <time>2026-08-30T13:28:42Z</time>
      </trkpt>
      <trkpt lat="48.791543" lon="9.852982">
        <ele>418.6</ele>
        <time>2026-08-30T13:28:43Z</time>
      </trkpt>
      <trkpt lat="48.791544" lon="9.852911">
        <ele>418.6</ele>
        <time>2026-08-30T13:28:44Z</time>
      </trkpt>
      <trkpt lat="48.791548" lon="9.852844">
        <ele>418.8</ele>
        <time>2026-08-30T13:28:45Z</time>
      </trkpt>
      <trkpt lat="48.791549" lon="9.852776">
        <ele>418.8</ele>
        <time>2026-08-30T13:28:46Z</time>
      </trkpt>
      <trkpt lat="48.791548" lon="9.852708">
        <ele>419</ele>
        <time>2026-08-30T13:28:47Z</time>
      </trkpt>
      <trkpt lat="48.791543" lon="9.852640">
        <ele>419</ele>
        <time>2026-08-30T13:28:48Z</time>
      </trkpt>
      <trkpt lat="48.791536" lon="9.852573">
        <ele>419</ele>
        <time>2026-08-30T13:28:49Z</time>
      </trkpt>
      <trkpt lat="48.791531" lon="9.852510">
        <ele>419.2</ele>
        <time>2026-08-30T13:28:50Z</time>
      </trkpt>
      <trkpt lat="48.791525" lon="9.852442">
        <ele>419.2</ele>
        <time>2026-08-30T13:28:51Z</time>
      </trkpt>
      <trkpt lat="48.791519" lon="9.852371">
        <ele>419.4</ele>
        <time>2026-08-30T13:28:52Z</time>
      </trkpt>
      <trkpt lat="48.791510" lon="9.852301">
        <ele>419.4</ele>
        <time>2026-08-30T13:28:53Z</time>
      </trkpt>
      <trkpt lat="48.791506" lon="9.852233">
        <ele>419.6</ele>
        <time>2026-08-30T13:28:54Z</time>
      </trkpt>
      <trkpt lat="48.791500" lon="9.852166">
        <ele>419.6</ele>
        <time>2026-08-30T13:28:55Z</time>
      </trkpt>
      <trkpt lat="48.791490" lon="9.852101">
        <ele>419.6</ele>
        <time>2026-08-30T13:28:56Z</time>
      </trkpt>
      <trkpt lat="48.791479" lon="9.852036">
        <ele>419.6</ele>
        <time>2026-08-30T13:28:57Z</time>
      </trkpt>
      <trkpt lat="48.791468" lon="9.851966">
        <ele>419.6</ele>
        <time>2026-08-30T13:28:58Z</time>
      </trkpt>
      <trkpt lat="48.791465" lon="9.851901">
        <ele>419.6</ele>
        <time>2026-08-30T13:28:59Z</time>
      </trkpt>
      <trkpt lat="48.791459" lon="9.851829">
        <ele>419.8</ele>
        <time>2026-08-30T13:29:00Z</time>
      </trkpt>
      <trkpt lat="48.791451" lon="9.851757">
        <ele>419.8</ele>
        <time>2026-08-30T13:29:01Z</time>
      </trkpt>
      <trkpt lat="48.791445" lon="9.851685">
        <ele>419.8</ele>
        <time>2026-08-30T13:29:02Z</time>
      </trkpt>
      <trkpt lat="48.791438" lon="9.851614">
        <ele>419.8</ele>
        <time>2026-08-30T13:29:03Z</time>
      </trkpt>
      <trkpt lat="48.791433" lon="9.851541">
        <ele>419.8</ele>
        <time>2026-08-30T13:29:04Z</time>
      </trkpt>
      <trkpt lat="48.791428" lon="9.851466">
        <ele>419.8</ele>
        <time>2026-08-30T13:29:05Z</time>
      </trkpt>
      <trkpt lat="48.791421" lon="9.851396">
        <ele>420</ele>
        <time>2026-08-30T13:29:06Z</time>
      </trkpt>
      <trkpt lat="48.791413" lon="9.851323">
        <ele>420</ele>
        <time>2026-08-30T13:29:07Z</time>
      </trkpt>
      <trkpt lat="48.791405" lon="9.851250">
        <ele>420</ele>
        <time>2026-08-30T13:29:08Z</time>
      </trkpt>
      <trkpt lat="48.791396" lon="9.851178">
        <ele>420</ele>
        <time>2026-08-30T13:29:09Z</time>
      </trkpt>
      <trkpt lat="48.791389" lon="9.851104">
        <ele>420</ele>
        <time>2026-08-30T13:29:10Z</time>
      </trkpt>
      <trkpt lat="48.791382" lon="9.851028">
        <ele>420</ele>
        <time>2026-08-30T13:29:11Z</time>
      </trkpt>
      <trkpt lat="48.791375" lon="9.850956">
        <ele>420</ele>
        <time>2026-08-30T13:29:12Z</time>
      </trkpt>
      <trkpt lat="48.791369" lon="9.850880">
        <ele>420</ele>
        <time>2026-08-30T13:29:13Z</time>
      </trkpt>
      <trkpt lat="48.791363" lon="9.850806">
        <ele>420.2</ele>
        <time>2026-08-30T13:29:14Z</time>
      </trkpt>
      <trkpt lat="48.791354" lon="9.850735">
        <ele>420.2</ele>
        <time>2026-08-30T13:29:15Z</time>
      </trkpt>
      <trkpt lat="48.791347" lon="9.850663">
        <ele>420.2</ele>
        <time>2026-08-30T13:29:16Z</time>
      </trkpt>
      <trkpt lat="48.791335" lon="9.850591">
        <ele>420.2</ele>
        <time>2026-08-30T13:29:17Z</time>
      </trkpt>
      <trkpt lat="48.791321" lon="9.850518">
        <ele>420.2</ele>
        <time>2026-08-30T13:29:18Z</time>
      </trkpt>
      <trkpt lat="48.791307" lon="9.850451">
        <ele>420.2</ele>
        <time>2026-08-30T13:29:19Z</time>
      </trkpt>
      <trkpt lat="48.791298" lon="9.850380">
        <ele>420.2</ele>
        <time>2026-08-30T13:29:20Z</time>
      </trkpt>
      <trkpt lat="48.791291" lon="9.850304">
        <ele>420.4</ele>
        <time>2026-08-30T13:29:21Z</time>
      </trkpt>
      <trkpt lat="48.791286" lon="9.850232">
        <ele>420.4</ele>
        <time>2026-08-30T13:29:22Z</time>
      </trkpt>
      <trkpt lat="48.791278" lon="9.850161">
        <ele>420.4</ele>
        <time>2026-08-30T13:29:23Z</time>
      </trkpt>
      <trkpt lat="48.791266" lon="9.850088">
        <ele>420.4</ele>
        <time>2026-08-30T13:29:24Z</time>
      </trkpt>
      <trkpt lat="48.791253" lon="9.850016">
        <ele>420.4</ele>
        <time>2026-08-30T13:29:25Z</time>
      </trkpt>
      <trkpt lat="48.791236" lon="9.849946">
        <ele>420.4</ele>
        <time>2026-08-30T13:29:26Z</time>
      </trkpt>
      <trkpt lat="48.791221" lon="9.849880">
        <ele>420.4</ele>
        <time>2026-08-30T13:29:27Z</time>
      </trkpt>
      <trkpt lat="48.791205" lon="9.849816">
        <ele>420.6</ele>
        <time>2026-08-30T13:29:28Z</time>
      </trkpt>
      <trkpt lat="48.791186" lon="9.849749">
        <ele>420.6</ele>
        <time>2026-08-30T13:29:29Z</time>
      </trkpt>
      <trkpt lat="48.791168" lon="9.849685">
        <ele>420.6</ele>
        <time>2026-08-30T13:29:30Z</time>
      </trkpt>
      <trkpt lat="48.791148" lon="9.849620">
        <ele>420.6</ele>
        <time>2026-08-30T13:29:31Z</time>
      </trkpt>
      <trkpt lat="48.791125" lon="9.849559">
        <ele>420.4</ele>
        <time>2026-08-30T13:29:32Z</time>
      </trkpt>
      <trkpt lat="48.791103" lon="9.849502">
        <ele>420.4</ele>
        <time>2026-08-30T13:29:33Z</time>
      </trkpt>
      <trkpt lat="48.791078" lon="9.849438">
        <ele>420.4</ele>
        <time>2026-08-30T13:29:34Z</time>
      </trkpt>
      <trkpt lat="48.791053" lon="9.849374">
        <ele>420.2</ele>
        <time>2026-08-30T13:29:35Z</time>
      </trkpt>
      <trkpt lat="48.791028" lon="9.849310">
        <ele>420.2</ele>
        <time>2026-08-30T13:29:36Z</time>
      </trkpt>
      <trkpt lat="48.791002" lon="9.849244">
        <ele>420.2</ele>
        <time>2026-08-30T13:29:37Z</time>
      </trkpt>
      <trkpt lat="48.790975" lon="9.849184">
        <ele>420.2</ele>
        <time>2026-08-30T13:29:38Z</time>
      </trkpt>
      <trkpt lat="48.790948" lon="9.849120">
        <ele>420.2</ele>
        <time>2026-08-30T13:29:39Z</time>
      </trkpt>
      <trkpt lat="48.790921" lon="9.849058">
        <ele>420</ele>
        <time>2026-08-30T13:29:40Z</time>
      </trkpt>
      <trkpt lat="48.790894" lon="9.848994">
        <ele>419.8</ele>
        <time>2026-08-30T13:29:41Z</time>
      </trkpt>
      <trkpt lat="48.790873" lon="9.848924">
        <ele>419.8</ele>
        <time>2026-08-30T13:29:42Z</time>
      </trkpt>
      <trkpt lat="48.790852" lon="9.848856">
        <ele>419.6</ele>
        <time>2026-08-30T13:29:43Z</time>
      </trkpt>
      <trkpt lat="48.790827" lon="9.848790">
        <ele>419.4</ele>
        <time>2026-08-30T13:29:44Z</time>
      </trkpt>
      <trkpt lat="48.790798" lon="9.848726">
        <ele>419.2</ele>
        <time>2026-08-30T13:29:45Z</time>
      </trkpt>
      <trkpt lat="48.790769" lon="9.848663">
        <ele>419.2</ele>
        <time>2026-08-30T13:29:46Z</time>
      </trkpt>
      <trkpt lat="48.790743" lon="9.848596">
        <ele>419</ele>
        <time>2026-08-30T13:29:47Z</time>
      </trkpt>
      <trkpt lat="48.790712" lon="9.848526">
        <ele>418.8</ele>
        <time>2026-08-30T13:29:48Z</time>
      </trkpt>
      <trkpt lat="48.790679" lon="9.848462">
        <ele>418.6</ele>
        <time>2026-08-30T13:29:49Z</time>
      </trkpt>
      <trkpt lat="48.790646" lon="9.848400">
        <ele>418.4</ele>
        <time>2026-08-30T13:29:50Z</time>
      </trkpt>
      <trkpt lat="48.790616" lon="9.848337">
        <ele>418.2</ele>
        <time>2026-08-30T13:29:51Z</time>
      </trkpt>
      <trkpt lat="48.790584" lon="9.848281">
        <ele>418</ele>
        <time>2026-08-30T13:29:52Z</time>
      </trkpt>
      <trkpt lat="48.790550" lon="9.848225">
        <ele>417.8</ele>
        <time>2026-08-30T13:29:53Z</time>
      </trkpt>
      <trkpt lat="48.790522" lon="9.848158">
        <ele>417.6</ele>
        <time>2026-08-30T13:29:54Z</time>
      </trkpt>
      <trkpt lat="48.790499" lon="9.848092">
        <ele>417.6</ele>
        <time>2026-08-30T13:29:55Z</time>
      </trkpt>
      <trkpt lat="48.790485" lon="9.848022">
        <ele>417.4</ele>
        <time>2026-08-30T13:29:56Z</time>
      </trkpt>
      <trkpt lat="48.790484" lon="9.847941">
        <ele>417.2</ele>
        <time>2026-08-30T13:29:57Z</time>
      </trkpt>
      <trkpt lat="48.790485" lon="9.847861">
        <ele>417.2</ele>
        <time>2026-08-30T13:29:58Z</time>
      </trkpt>
      <trkpt lat="48.790485" lon="9.847786">
        <ele>417</ele>
        <time>2026-08-30T13:29:59Z</time>
      </trkpt>
      <trkpt lat="48.790487" lon="9.847714">
        <ele>417</ele>
        <time>2026-08-30T13:30:00Z</time>
      </trkpt>
      <trkpt lat="48.790491" lon="9.847655">
        <ele>417</ele>
        <time>2026-08-30T13:30:01Z</time>
      </trkpt>
      <trkpt lat="48.790494" lon="9.847610">
        <ele>417</ele>
        <time>2026-08-30T13:30:02Z</time>
      </trkpt>
      <trkpt lat="48.790496" lon="9.847571">
        <ele>417.2</ele>
        <time>2026-08-30T13:30:03Z</time>
      </trkpt>
      <trkpt lat="48.790498" lon="9.847536">
        <ele>417.2</ele>
        <time>2026-08-30T13:30:04Z</time>
      </trkpt>
      <trkpt lat="48.790503" lon="9.847502">
        <ele>417.2</ele>
        <time>2026-08-30T13:30:05Z</time>
      </trkpt>
      <trkpt lat="48.790507" lon="9.847460">
        <ele>417.2</ele>
        <time>2026-08-30T13:30:06Z</time>
      </trkpt>
      <trkpt lat="48.790514" lon="9.847412">
        <ele>417.2</ele>
        <time>2026-08-30T13:30:07Z</time>
      </trkpt>
      <trkpt lat="48.790519" lon="9.847363">
        <ele>417</ele>
        <time>2026-08-30T13:30:08Z</time>
      </trkpt>
      <trkpt lat="48.790520" lon="9.847302">
        <ele>417</ele>
        <time>2026-08-30T13:30:09Z</time>
      </trkpt>
      <trkpt lat="48.790516" lon="9.847240">
        <ele>416.8</ele>
        <time>2026-08-30T13:30:10Z</time>
      </trkpt>
      <trkpt lat="48.790510" lon="9.847176">
        <ele>416.8</ele>
        <time>2026-08-30T13:30:11Z</time>
      </trkpt>
      <trkpt lat="48.790496" lon="9.847114">
        <ele>416.8</ele>
        <time>2026-08-30T13:30:12Z</time>
      </trkpt>
      <trkpt lat="48.790481" lon="9.847056">
        <ele>416.8</ele>
        <time>2026-08-30T13:30:13Z</time>
      </trkpt>
      <trkpt lat="48.790465" lon="9.846993">
        <ele>416.8</ele>
        <time>2026-08-30T13:30:14Z</time>
      </trkpt>
      <trkpt lat="48.790451" lon="9.846927">
        <ele>416.8</ele>
        <time>2026-08-30T13:30:15Z</time>
      </trkpt>
      <trkpt lat="48.790435" lon="9.846862">
        <ele>416.8</ele>
        <time>2026-08-30T13:30:16Z</time>
      </trkpt>
      <trkpt lat="48.790419" lon="9.846795">
        <ele>416.8</ele>
        <time>2026-08-30T13:30:17Z</time>
      </trkpt>
      <trkpt lat="48.790402" lon="9.846728">
        <ele>416.6</ele>
        <time>2026-08-30T13:30:18Z</time>
      </trkpt>
      <trkpt lat="48.790383" lon="9.846662">
        <ele>416.6</ele>
        <time>2026-08-30T13:30:19Z</time>
      </trkpt>
      <trkpt lat="48.790364" lon="9.846601">
        <ele>416.6</ele>
        <time>2026-08-30T13:30:20Z</time>
      </trkpt>
      <trkpt lat="48.790346" lon="9.846537">
        <ele>416.6</ele>
        <time>2026-08-30T13:30:21Z</time>
      </trkpt>
      <trkpt lat="48.790330" lon="9.846472">
        <ele>416.8</ele>
        <time>2026-08-30T13:30:22Z</time>
      </trkpt>
      <trkpt lat="48.790311" lon="9.846409">
        <ele>416.8</ele>
        <time>2026-08-30T13:30:23Z</time>
      </trkpt>
      <trkpt lat="48.790293" lon="9.846340">
        <ele>417</ele>
        <time>2026-08-30T13:30:24Z</time>
      </trkpt>
      <trkpt lat="48.790276" lon="9.846275">
        <ele>417.2</ele>
        <time>2026-08-30T13:30:25Z</time>
      </trkpt>
      <trkpt lat="48.790260" lon="9.846217">
        <ele>417.2</ele>
        <time>2026-08-30T13:30:26Z</time>
      </trkpt>
      <trkpt lat="48.790243" lon="9.846157">
        <ele>417.4</ele>
        <time>2026-08-30T13:30:27Z</time>
      </trkpt>
      <trkpt lat="48.790226" lon="9.846099">
        <ele>417.6</ele>
        <time>2026-08-30T13:30:28Z</time>
      </trkpt>
      <trkpt lat="48.790209" lon="9.846041">
        <ele>417.6</ele>
        <time>2026-08-30T13:30:29Z</time>
      </trkpt>
      <trkpt lat="48.790190" lon="9.845982">
        <ele>417.8</ele>
        <time>2026-08-30T13:30:30Z</time>
      </trkpt>
      <trkpt lat="48.790175" lon="9.845923">
        <ele>418</ele>
        <time>2026-08-30T13:30:31Z</time>
      </trkpt>
      <trkpt lat="48.790161" lon="9.845860">
        <ele>418</ele>
        <time>2026-08-30T13:30:32Z</time>
      </trkpt>
      <trkpt lat="48.790145" lon="9.845794">
        <ele>418.2</ele>
        <time>2026-08-30T13:30:33Z</time>
      </trkpt>
      <trkpt lat="48.790128" lon="9.845729">
        <ele>418.2</ele>
        <time>2026-08-30T13:30:34Z</time>
      </trkpt>
      <trkpt lat="48.790113" lon="9.845662">
        <ele>418.4</ele>
        <time>2026-08-30T13:30:35Z</time>
      </trkpt>
      <trkpt lat="48.790101" lon="9.845594">
        <ele>418.6</ele>
        <time>2026-08-30T13:30:36Z</time>
      </trkpt>
      <trkpt lat="48.790085" lon="9.845525">
        <ele>418.6</ele>
        <time>2026-08-30T13:30:37Z</time>
      </trkpt>
      <trkpt lat="48.790069" lon="9.845456">
        <ele>418.8</ele>
        <time>2026-08-30T13:30:38Z</time>
      </trkpt>
      <trkpt lat="48.790050" lon="9.845392">
        <ele>418.8</ele>
        <time>2026-08-30T13:30:39Z</time>
      </trkpt>
      <trkpt lat="48.790030" lon="9.845326">
        <ele>419</ele>
        <time>2026-08-30T13:30:40Z</time>
      </trkpt>
      <trkpt lat="48.790013" lon="9.845260">
        <ele>419</ele>
        <time>2026-08-30T13:30:41Z</time>
      </trkpt>
      <trkpt lat="48.789995" lon="9.845193">
        <ele>419.2</ele>
        <time>2026-08-30T13:30:42Z</time>
      </trkpt>
      <trkpt lat="48.789975" lon="9.845126">
        <ele>419.2</ele>
        <time>2026-08-30T13:30:43Z</time>
      </trkpt>
      <trkpt lat="48.789956" lon="9.845062">
        <ele>419.2</ele>
        <time>2026-08-30T13:30:44Z</time>
      </trkpt>
      <trkpt lat="48.789937" lon="9.845001">
        <ele>419.2</ele>
        <time>2026-08-30T13:30:45Z</time>
      </trkpt>
      <trkpt lat="48.789921" lon="9.844935">
        <ele>419.2</ele>
        <time>2026-08-30T13:30:46Z</time>
      </trkpt>
      <trkpt lat="48.789907" lon="9.844865">
        <ele>419.2</ele>
        <time>2026-08-30T13:30:47Z</time>
      </trkpt>
      <trkpt lat="48.789893" lon="9.844797">
        <ele>419.2</ele>
        <time>2026-08-30T13:30:48Z</time>
      </trkpt>
      <trkpt lat="48.789876" lon="9.844735">
        <ele>419.2</ele>
        <time>2026-08-30T13:30:49Z</time>
      </trkpt>
      <trkpt lat="48.789858" lon="9.844673">
        <ele>419.2</ele>
        <time>2026-08-30T13:30:50Z</time>
      </trkpt>
      <trkpt lat="48.789841" lon="9.844612">
        <ele>419.2</ele>
        <time>2026-08-30T13:30:51Z</time>
      </trkpt>
      <trkpt lat="48.789822" lon="9.844548">
        <ele>419.2</ele>
        <time>2026-08-30T13:30:52Z</time>
      </trkpt>
      <trkpt lat="48.789803" lon="9.844484">
        <ele>419.2</ele>
        <time>2026-08-30T13:30:53Z</time>
      </trkpt>
      <trkpt lat="48.789780" lon="9.844421">
        <ele>419.4</ele>
        <time>2026-08-30T13:30:54Z</time>
      </trkpt>
      <trkpt lat="48.789759" lon="9.844362">
        <ele>419.4</ele>
        <time>2026-08-30T13:30:55Z</time>
      </trkpt>
      <trkpt lat="48.789741" lon="9.844302">
        <ele>419.6</ele>
        <time>2026-08-30T13:30:56Z</time>
      </trkpt>
      <trkpt lat="48.789724" lon="9.844239">
        <ele>419.6</ele>
        <time>2026-08-30T13:30:57Z</time>
      </trkpt>
      <trkpt lat="48.789701" lon="9.844174">
        <ele>419.8</ele>
        <time>2026-08-30T13:30:58Z</time>
      </trkpt>
      <trkpt lat="48.789676" lon="9.844110">
        <ele>420</ele>
        <time>2026-08-30T13:30:59Z</time>
      </trkpt>
      <trkpt lat="48.789653" lon="9.844048">
        <ele>420</ele>
        <time>2026-08-30T13:31:00Z</time>
      </trkpt>
      <trkpt lat="48.789631" lon="9.843980">
        <ele>420</ele>
        <time>2026-08-30T13:31:01Z</time>
      </trkpt>
      <trkpt lat="48.789607" lon="9.843907">
        <ele>420</ele>
        <time>2026-08-30T13:31:02Z</time>
      </trkpt>
      <trkpt lat="48.789583" lon="9.843837">
        <ele>420</ele>
        <time>2026-08-30T13:31:03Z</time>
      </trkpt>
      <trkpt lat="48.789562" lon="9.843766">
        <ele>420</ele>
        <time>2026-08-30T13:31:04Z</time>
      </trkpt>
      <trkpt lat="48.789543" lon="9.843693">
        <ele>420</ele>
        <time>2026-08-30T13:31:05Z</time>
      </trkpt>
      <trkpt lat="48.789525" lon="9.843617">
        <ele>419.8</ele>
        <time>2026-08-30T13:31:06Z</time>
      </trkpt>
      <trkpt lat="48.789512" lon="9.843538">
        <ele>419.8</ele>
        <time>2026-08-30T13:31:07Z</time>
      </trkpt>
      <trkpt lat="48.789498" lon="9.843459">
        <ele>419.8</ele>
        <time>2026-08-30T13:31:08Z</time>
      </trkpt>
      <trkpt lat="48.789484" lon="9.843379">
        <ele>419.8</ele>
        <time>2026-08-30T13:31:09Z</time>
      </trkpt>
      <trkpt lat="48.789469" lon="9.843294">
        <ele>419.6</ele>
        <time>2026-08-30T13:31:10Z</time>
      </trkpt>
      <trkpt lat="48.789455" lon="9.843210">
        <ele>419.6</ele>
        <time>2026-08-30T13:31:11Z</time>
      </trkpt>
      <trkpt lat="48.789445" lon="9.843127">
        <ele>419.6</ele>
        <time>2026-08-30T13:31:12Z</time>
      </trkpt>
      <trkpt lat="48.789437" lon="9.843040">
        <ele>419.6</ele>
        <time>2026-08-30T13:31:13Z</time>
      </trkpt>
      <trkpt lat="48.789425" lon="9.842952">
        <ele>419.4</ele>
        <time>2026-08-30T13:31:14Z</time>
      </trkpt>
      <trkpt lat="48.789416" lon="9.842861">
        <ele>419.4</ele>
        <time>2026-08-30T13:31:15Z</time>
      </trkpt>
      <trkpt lat="48.789409" lon="9.842770">
        <ele>419.2</ele>
        <time>2026-08-30T13:31:16Z</time>
      </trkpt>
      <trkpt lat="48.789399" lon="9.842682">
        <ele>419.2</ele>
        <time>2026-08-30T13:31:17Z</time>
      </trkpt>
      <trkpt lat="48.789388" lon="9.842591">
        <ele>419.2</ele>
        <time>2026-08-30T13:31:18Z</time>
      </trkpt>
      <trkpt lat="48.789376" lon="9.842502">
        <ele>419</ele>
        <time>2026-08-30T13:31:19Z</time>
      </trkpt>
      <trkpt lat="48.789366" lon="9.842417">
        <ele>419</ele>
        <time>2026-08-30T13:31:20Z</time>
      </trkpt>
      <trkpt lat="48.789357" lon="9.842332">
        <ele>419</ele>
        <time>2026-08-30T13:31:21Z</time>
      </trkpt>
      <trkpt lat="48.789346" lon="9.842245">
        <ele>419</ele>
        <time>2026-08-30T13:31:22Z</time>
      </trkpt>
      <trkpt lat="48.789335" lon="9.842158">
        <ele>419</ele>
        <time>2026-08-30T13:31:23Z</time>
      </trkpt>
      <trkpt lat="48.789322" lon="9.842069">
        <ele>419</ele>
        <time>2026-08-30T13:31:24Z</time>
      </trkpt>
      <trkpt lat="48.789312" lon="9.841986">
        <ele>419</ele>
        <time>2026-08-30T13:31:25Z</time>
      </trkpt>
      <trkpt lat="48.789304" lon="9.841904">
        <ele>419</ele>
        <time>2026-08-30T13:31:26Z</time>
      </trkpt>
      <trkpt lat="48.789297" lon="9.841819">
        <ele>419</ele>
        <time>2026-08-30T13:31:27Z</time>
      </trkpt>
      <trkpt lat="48.789286" lon="9.841732">
        <ele>419</ele>
        <time>2026-08-30T13:31:28Z</time>
      </trkpt>
      <trkpt lat="48.789275" lon="9.841645">
        <ele>419</ele>
        <time>2026-08-30T13:31:29Z</time>
      </trkpt>
      <trkpt lat="48.789262" lon="9.841562">
        <ele>419</ele>
        <time>2026-08-30T13:31:30Z</time>
      </trkpt>
      <trkpt lat="48.789252" lon="9.841482">
        <ele>419</ele>
        <time>2026-08-30T13:31:31Z</time>
      </trkpt>
      <trkpt lat="48.789244" lon="9.841403">
        <ele>419</ele>
        <time>2026-08-30T13:31:32Z</time>
      </trkpt>
      <trkpt lat="48.789234" lon="9.841321">
        <ele>419</ele>
        <time>2026-08-30T13:31:33Z</time>
      </trkpt>
      <trkpt lat="48.789224" lon="9.841244">
        <ele>419.2</ele>
        <time>2026-08-30T13:31:34Z</time>
      </trkpt>
      <trkpt lat="48.789214" lon="9.841164">
        <ele>419.2</ele>
        <time>2026-08-30T13:31:35Z</time>
      </trkpt>
      <trkpt lat="48.789206" lon="9.841085">
        <ele>419.2</ele>
        <time>2026-08-30T13:31:36Z</time>
      </trkpt>
      <trkpt lat="48.789196" lon="9.841010">
        <ele>419.4</ele>
        <time>2026-08-30T13:31:37Z</time>
      </trkpt>
      <trkpt lat="48.789187" lon="9.840934">
        <ele>419.6</ele>
        <time>2026-08-30T13:31:38Z</time>
      </trkpt>
      <trkpt lat="48.789179" lon="9.840856">
        <ele>419.6</ele>
        <time>2026-08-30T13:31:39Z</time>
      </trkpt>
      <trkpt lat="48.789174" lon="9.840775">
        <ele>419.6</ele>
        <time>2026-08-30T13:31:40Z</time>
      </trkpt>
      <trkpt lat="48.789168" lon="9.840700">
        <ele>419.8</ele>
        <time>2026-08-30T13:31:41Z</time>
      </trkpt>
      <trkpt lat="48.789162" lon="9.840623">
        <ele>420</ele>
        <time>2026-08-30T13:31:42Z</time>
      </trkpt>
      <trkpt lat="48.789158" lon="9.840545">
        <ele>420</ele>
        <time>2026-08-30T13:31:43Z</time>
      </trkpt>
      <trkpt lat="48.789154" lon="9.840467">
        <ele>420.2</ele>
        <time>2026-08-30T13:31:44Z</time>
      </trkpt>
      <trkpt lat="48.789151" lon="9.840390">
        <ele>420.2</ele>
        <time>2026-08-30T13:31:45Z</time>
      </trkpt>
      <trkpt lat="48.789149" lon="9.840312">
        <ele>420.4</ele>
        <time>2026-08-30T13:31:46Z</time>
      </trkpt>
      <trkpt lat="48.789151" lon="9.840232">
        <ele>420.4</ele>
        <time>2026-08-30T13:31:47Z</time>
      </trkpt>
      <trkpt lat="48.789153" lon="9.840150">
        <ele>420.4</ele>
        <time>2026-08-30T13:31:48Z</time>
      </trkpt>
      <trkpt lat="48.789151" lon="9.840070">
        <ele>420.4</ele>
        <time>2026-08-30T13:31:49Z</time>
      </trkpt>
      <trkpt lat="48.789151" lon="9.839993">
        <ele>420.4</ele>
        <time>2026-08-30T13:31:50Z</time>
      </trkpt>
      <trkpt lat="48.789152" lon="9.839916">
        <ele>420.4</ele>
        <time>2026-08-30T13:31:51Z</time>
      </trkpt>
      <trkpt lat="48.789152" lon="9.839839">
        <ele>420.4</ele>
        <time>2026-08-30T13:31:52Z</time>
      </trkpt>
      <trkpt lat="48.789150" lon="9.839762">
        <ele>420.4</ele>
        <time>2026-08-30T13:31:53Z</time>
      </trkpt>
      <trkpt lat="48.789151" lon="9.839684">
        <ele>420.6</ele>
        <time>2026-08-30T13:31:54Z</time>
      </trkpt>
      <trkpt lat="48.789156" lon="9.839603">
        <ele>420.6</ele>
        <time>2026-08-30T13:31:55Z</time>
      </trkpt>
      <trkpt lat="48.789162" lon="9.839523">
        <ele>420.6</ele>
        <time>2026-08-30T13:31:56Z</time>
      </trkpt>
      <trkpt lat="48.789169" lon="9.839442">
        <ele>420.6</ele>
        <time>2026-08-30T13:31:57Z</time>
      </trkpt>
      <trkpt lat="48.789175" lon="9.839362">
        <ele>420.6</ele>
        <time>2026-08-30T13:31:58Z</time>
      </trkpt>
      <trkpt lat="48.789182" lon="9.839282">
        <ele>420.6</ele>
        <time>2026-08-30T13:31:59Z</time>
      </trkpt>
      <trkpt lat="48.789190" lon="9.839201">
        <ele>420.6</ele>
        <time>2026-08-30T13:32:00Z</time>
      </trkpt>
      <trkpt lat="48.789198" lon="9.839122">
        <ele>420.6</ele>
        <time>2026-08-30T13:32:01Z</time>
      </trkpt>
      <trkpt lat="48.789206" lon="9.839041">
        <ele>420.6</ele>
        <time>2026-08-30T13:32:02Z</time>
      </trkpt>
      <trkpt lat="48.789216" lon="9.838960">
        <ele>420.6</ele>
        <time>2026-08-30T13:32:03Z</time>
      </trkpt>
      <trkpt lat="48.789219" lon="9.838875">
        <ele>420.6</ele>
        <time>2026-08-30T13:32:04Z</time>
      </trkpt>
      <trkpt lat="48.789226" lon="9.838795">
        <ele>420.6</ele>
        <time>2026-08-30T13:32:05Z</time>
      </trkpt>
      <trkpt lat="48.789239" lon="9.838718">
        <ele>420.6</ele>
        <time>2026-08-30T13:32:06Z</time>
      </trkpt>
      <trkpt lat="48.789250" lon="9.838642">
        <ele>420.6</ele>
        <time>2026-08-30T13:32:07Z</time>
      </trkpt>
      <trkpt lat="48.789262" lon="9.838567">
        <ele>420.6</ele>
        <time>2026-08-30T13:32:08Z</time>
      </trkpt>
      <trkpt lat="48.789271" lon="9.838491">
        <ele>420.6</ele>
        <time>2026-08-30T13:32:09Z</time>
      </trkpt>
      <trkpt lat="48.789280" lon="9.838413">
        <ele>420.6</ele>
        <time>2026-08-30T13:32:10Z</time>
      </trkpt>
      <trkpt lat="48.789285" lon="9.838333">
        <ele>420.6</ele>
        <time>2026-08-30T13:32:11Z</time>
      </trkpt>
      <trkpt lat="48.789287" lon="9.838253">
        <ele>420.6</ele>
        <time>2026-08-30T13:32:12Z</time>
      </trkpt>
      <trkpt lat="48.789287" lon="9.838171">
        <ele>420.6</ele>
        <time>2026-08-30T13:32:13Z</time>
      </trkpt>
      <trkpt lat="48.789287" lon="9.838092">
        <ele>420.6</ele>
        <time>2026-08-30T13:32:14Z</time>
      </trkpt>
      <trkpt lat="48.789286" lon="9.838016">
        <ele>420.8</ele>
        <time>2026-08-30T13:32:15Z</time>
      </trkpt>
      <trkpt lat="48.789287" lon="9.837937">
        <ele>420.8</ele>
        <time>2026-08-30T13:32:16Z</time>
      </trkpt>
      <trkpt lat="48.789287" lon="9.837856">
        <ele>420.8</ele>
        <time>2026-08-30T13:32:17Z</time>
      </trkpt>
      <trkpt lat="48.789286" lon="9.837774">
        <ele>420.8</ele>
        <time>2026-08-30T13:32:18Z</time>
      </trkpt>
      <trkpt lat="48.789282" lon="9.837693">
        <ele>420.8</ele>
        <time>2026-08-30T13:32:19Z</time>
      </trkpt>
      <trkpt lat="48.789279" lon="9.837611">
        <ele>421</ele>
        <time>2026-08-30T13:32:20Z</time>
      </trkpt>
      <trkpt lat="48.789275" lon="9.837529">
        <ele>421</ele>
        <time>2026-08-30T13:32:21Z</time>
      </trkpt>
      <trkpt lat="48.789271" lon="9.837450">
        <ele>421</ele>
        <time>2026-08-30T13:32:22Z</time>
      </trkpt>
      <trkpt lat="48.789270" lon="9.837373">
        <ele>421</ele>
        <time>2026-08-30T13:32:23Z</time>
      </trkpt>
      <trkpt lat="48.789266" lon="9.837301">
        <ele>421</ele>
        <time>2026-08-30T13:32:24Z</time>
      </trkpt>
      <trkpt lat="48.789260" lon="9.837229">
        <ele>421</ele>
        <time>2026-08-30T13:32:25Z</time>
      </trkpt>
      <trkpt lat="48.789255" lon="9.837157">
        <ele>421</ele>
        <time>2026-08-30T13:32:26Z</time>
      </trkpt>
      <trkpt lat="48.789253" lon="9.837085">
        <ele>421</ele>
        <time>2026-08-30T13:32:27Z</time>
      </trkpt>
      <trkpt lat="48.789254" lon="9.837015">
        <ele>421</ele>
        <time>2026-08-30T13:32:28Z</time>
      </trkpt>
      <trkpt lat="48.789251" lon="9.836946">
        <ele>421.2</ele>
        <time>2026-08-30T13:32:29Z</time>
      </trkpt>
      <trkpt lat="48.789248" lon="9.836878">
        <ele>421.2</ele>
        <time>2026-08-30T13:32:30Z</time>
      </trkpt>
      <trkpt lat="48.789252" lon="9.836810">
        <ele>421.2</ele>
        <time>2026-08-30T13:32:31Z</time>
      </trkpt>
      <trkpt lat="48.789260" lon="9.836744">
        <ele>421.4</ele>
        <time>2026-08-30T13:32:32Z</time>
      </trkpt>
      <trkpt lat="48.789263" lon="9.836675">
        <ele>421.4</ele>
        <time>2026-08-30T13:32:33Z</time>
      </trkpt>
      <trkpt lat="48.789267" lon="9.836602">
        <ele>421.4</ele>
        <time>2026-08-30T13:32:34Z</time>
      </trkpt>
      <trkpt lat="48.789272" lon="9.836527">
        <ele>421.4</ele>
        <time>2026-08-30T13:32:35Z</time>
      </trkpt>
      <trkpt lat="48.789279" lon="9.836453">
        <ele>421.4</ele>
        <time>2026-08-30T13:32:36Z</time>
      </trkpt>
      <trkpt lat="48.789286" lon="9.836373">
        <ele>421.6</ele>
        <time>2026-08-30T13:32:37Z</time>
      </trkpt>
      <trkpt lat="48.789294" lon="9.836296">
        <ele>421.6</ele>
        <time>2026-08-30T13:32:38Z</time>
      </trkpt>
      <trkpt lat="48.789306" lon="9.836217">
        <ele>421.6</ele>
        <time>2026-08-30T13:32:39Z</time>
      </trkpt>
      <trkpt lat="48.789320" lon="9.836141">
        <ele>421.6</ele>
        <time>2026-08-30T13:32:40Z</time>
      </trkpt>
      <trkpt lat="48.789332" lon="9.836066">
        <ele>421.6</ele>
        <time>2026-08-30T13:32:41Z</time>
      </trkpt>
      <trkpt lat="48.789342" lon="9.835984">
        <ele>421.6</ele>
        <time>2026-08-30T13:32:42Z</time>
      </trkpt>
      <trkpt lat="48.789358" lon="9.835909">
        <ele>421.8</ele>
        <time>2026-08-30T13:32:43Z</time>
      </trkpt>
      <trkpt lat="48.789374" lon="9.835838">
        <ele>421.8</ele>
        <time>2026-08-30T13:32:44Z</time>
      </trkpt>
      <trkpt lat="48.789393" lon="9.835768">
        <ele>421.8</ele>
        <time>2026-08-30T13:32:45Z</time>
      </trkpt>
      <trkpt lat="48.789411" lon="9.835699">
        <ele>421.8</ele>
        <time>2026-08-30T13:32:46Z</time>
      </trkpt>
      <trkpt lat="48.789430" lon="9.835626">
        <ele>421.8</ele>
        <time>2026-08-30T13:32:47Z</time>
      </trkpt>
      <trkpt lat="48.789453" lon="9.835559">
        <ele>421.8</ele>
        <time>2026-08-30T13:32:48Z</time>
      </trkpt>
      <trkpt lat="48.789478" lon="9.835499">
        <ele>422</ele>
        <time>2026-08-30T13:32:49Z</time>
      </trkpt>
      <trkpt lat="48.789507" lon="9.835439">
        <ele>422</ele>
        <time>2026-08-30T13:32:50Z</time>
      </trkpt>
      <trkpt lat="48.789536" lon="9.835381">
        <ele>422</ele>
        <time>2026-08-30T13:32:51Z</time>
      </trkpt>
      <trkpt lat="48.789571" lon="9.835332">
        <ele>422</ele>
        <time>2026-08-30T13:32:52Z</time>
      </trkpt>
      <trkpt lat="48.789609" lon="9.835294">
        <ele>422</ele>
        <time>2026-08-30T13:32:53Z</time>
      </trkpt>
      <trkpt lat="48.789648" lon="9.835259">
        <ele>422</ele>
        <time>2026-08-30T13:32:54Z</time>
      </trkpt>
      <trkpt lat="48.789683" lon="9.835210">
        <ele>422</ele>
        <time>2026-08-30T13:32:55Z</time>
      </trkpt>
      <trkpt lat="48.789708" lon="9.835147">
        <ele>422</ele>
        <time>2026-08-30T13:32:56Z</time>
      </trkpt>
      <trkpt lat="48.789721" lon="9.835085">
        <ele>422</ele>
        <time>2026-08-30T13:32:57Z</time>
      </trkpt>
      <trkpt lat="48.789731" lon="9.835016">
        <ele>422</ele>
        <time>2026-08-30T13:32:58Z</time>
      </trkpt>
      <trkpt lat="48.789744" lon="9.834952">
        <ele>422.2</ele>
        <time>2026-08-30T13:32:59Z</time>
      </trkpt>
      <trkpt lat="48.789765" lon="9.834885">
        <ele>422.2</ele>
        <time>2026-08-30T13:33:00Z</time>
      </trkpt>
      <trkpt lat="48.789790" lon="9.834825">
        <ele>422.2</ele>
        <time>2026-08-30T13:33:01Z</time>
      </trkpt>
      <trkpt lat="48.789818" lon="9.834765">
        <ele>422.4</ele>
        <time>2026-08-30T13:33:02Z</time>
      </trkpt>
      <trkpt lat="48.789845" lon="9.834706">
        <ele>422.4</ele>
        <time>2026-08-30T13:33:03Z</time>
      </trkpt>
      <trkpt lat="48.789876" lon="9.834645">
        <ele>422.4</ele>
        <time>2026-08-30T13:33:04Z</time>
      </trkpt>
      <trkpt lat="48.789907" lon="9.834590">
        <ele>422.6</ele>
        <time>2026-08-30T13:33:05Z</time>
      </trkpt>
      <trkpt lat="48.789936" lon="9.834534">
        <ele>422.6</ele>
        <time>2026-08-30T13:33:06Z</time>
      </trkpt>
      <trkpt lat="48.789964" lon="9.834474">
        <ele>422.6</ele>
        <time>2026-08-30T13:33:07Z</time>
      </trkpt>
      <trkpt lat="48.789994" lon="9.834416">
        <ele>422.6</ele>
        <time>2026-08-30T13:33:08Z</time>
      </trkpt>
      <trkpt lat="48.790025" lon="9.834359">
        <ele>422.6</ele>
        <time>2026-08-30T13:33:09Z</time>
      </trkpt>
      <trkpt lat="48.790057" lon="9.834305">
        <ele>422.6</ele>
        <time>2026-08-30T13:33:10Z</time>
      </trkpt>
      <trkpt lat="48.790091" lon="9.834246">
        <ele>422.8</ele>
        <time>2026-08-30T13:33:11Z</time>
      </trkpt>
      <trkpt lat="48.790122" lon="9.834188">
        <ele>422.8</ele>
        <time>2026-08-30T13:33:12Z</time>
      </trkpt>
      <trkpt lat="48.790150" lon="9.834135">
        <ele>422.8</ele>
        <time>2026-08-30T13:33:13Z</time>
      </trkpt>
      <trkpt lat="48.790169" lon="9.834080">
        <ele>422.8</ele>
        <time>2026-08-30T13:33:14Z</time>
      </trkpt>
      <trkpt lat="48.790162" lon="9.834020">
        <ele>422.8</ele>
        <time>2026-08-30T13:33:15Z</time>
      </trkpt>
      <trkpt lat="48.790134" lon="9.833988">
        <ele>422.8</ele>
        <time>2026-08-30T13:33:16Z</time>
      </trkpt>
      <trkpt lat="48.790102" lon="9.833980">
        <ele>422.8</ele>
        <time>2026-08-30T13:33:17Z</time>
      </trkpt>
      <trkpt lat="48.790071" lon="9.833977">
        <ele>422.8</ele>
        <time>2026-08-30T13:33:18Z</time>
      </trkpt>
      <trkpt lat="48.790039" lon="9.833961">
        <ele>422.6</ele>
        <time>2026-08-30T13:33:19Z</time>
      </trkpt>
      <trkpt lat="48.790007" lon="9.833932">
        <ele>422.6</ele>
        <time>2026-08-30T13:33:20Z</time>
      </trkpt>
      <trkpt lat="48.789980" lon="9.833883">
        <ele>422.4</ele>
        <time>2026-08-30T13:33:21Z</time>
      </trkpt>
      <trkpt lat="48.789950" lon="9.833834">
        <ele>422.4</ele>
        <time>2026-08-30T13:33:22Z</time>
      </trkpt>
      <trkpt lat="48.789915" lon="9.833798">
        <ele>422.2</ele>
        <time>2026-08-30T13:33:23Z</time>
      </trkpt>
      <trkpt lat="48.789878" lon="9.833763">
        <ele>422</ele>
        <time>2026-08-30T13:33:24Z</time>
      </trkpt>
      <trkpt lat="48.789842" lon="9.833729">
        <ele>422</ele>
        <time>2026-08-30T13:33:25Z</time>
      </trkpt>
      <trkpt lat="48.789804" lon="9.833693">
        <ele>421.8</ele>
        <time>2026-08-30T13:33:26Z</time>
      </trkpt>
      <trkpt lat="48.789764" lon="9.833656">
        <ele>421.6</ele>
        <time>2026-08-30T13:33:27Z</time>
      </trkpt>
      <trkpt lat="48.789728" lon="9.833611">
        <ele>421.4</ele>
        <time>2026-08-30T13:33:28Z</time>
      </trkpt>
      <trkpt lat="48.789690" lon="9.833566">
        <ele>421.2</ele>
        <time>2026-08-30T13:33:29Z</time>
      </trkpt>
      <trkpt lat="48.789649" lon="9.833531">
        <ele>421</ele>
        <time>2026-08-30T13:33:30Z</time>
      </trkpt>
      <trkpt lat="48.789613" lon="9.833502">
        <ele>420.8</ele>
        <time>2026-08-30T13:33:31Z</time>
      </trkpt>
      <trkpt lat="48.789581" lon="9.833474">
        <ele>420.6</ele>
        <time>2026-08-30T13:33:32Z</time>
      </trkpt>
      <trkpt lat="48.789551" lon="9.833443">
        <ele>420.4</ele>
        <time>2026-08-30T13:33:33Z</time>
      </trkpt>
      <trkpt lat="48.789524" lon="9.833412">
        <ele>420.2</ele>
        <time>2026-08-30T13:33:34Z</time>
      </trkpt>
      <trkpt lat="48.789501" lon="9.833387">
        <ele>420.2</ele>
        <time>2026-08-30T13:33:35Z</time>
      </trkpt>
      <trkpt lat="48.789482" lon="9.833371">
        <ele>420</ele>
        <time>2026-08-30T13:33:36Z</time>
      </trkpt>
      <trkpt lat="48.789465" lon="9.833347">
        <ele>420</ele>
        <time>2026-08-30T13:33:37Z</time>
      </trkpt>
      <trkpt lat="48.789448" lon="9.833330">
        <ele>419.8</ele>
        <time>2026-08-30T13:33:38Z</time>
      </trkpt>
      <trkpt lat="48.789429" lon="9.833307">
        <ele>419.6</ele>
        <time>2026-08-30T13:33:39Z</time>
      </trkpt>
      <trkpt lat="48.789409" lon="9.833292">
        <ele>419.4</ele>
        <time>2026-08-30T13:33:40Z</time>
      </trkpt>
      <trkpt lat="48.789388" lon="9.833275">
        <ele>419.2</ele>
        <time>2026-08-30T13:33:41Z</time>
      </trkpt>
      <trkpt lat="48.789367" lon="9.833260">
        <ele>419</ele>
        <time>2026-08-30T13:33:42Z</time>
      </trkpt>
      <trkpt lat="48.789346" lon="9.833236">
        <ele>418.6</ele>
        <time>2026-08-30T13:33:43Z</time>
      </trkpt>
      <trkpt lat="48.789323" lon="9.833204">
        <ele>418.2</ele>
        <time>2026-08-30T13:33:44Z</time>
      </trkpt>
      <trkpt lat="48.789296" lon="9.833177">
        <ele>418</ele>
        <time>2026-08-30T13:33:45Z</time>
      </trkpt>
      <trkpt lat="48.789265" lon="9.833178">
        <ele>417.6</ele>
        <time>2026-08-30T13:33:46Z</time>
      </trkpt>
      <trkpt lat="48.789241" lon="9.833205">
        <ele>417.6</ele>
        <time>2026-08-30T13:33:47Z</time>
      </trkpt>
      <trkpt lat="48.789222" lon="9.833241">
        <ele>417.4</ele>
        <time>2026-08-30T13:33:48Z</time>
      </trkpt>
      <trkpt lat="48.789198" lon="9.833272">
        <ele>417.2</ele>
        <time>2026-08-30T13:33:49Z</time>
      </trkpt>
      <trkpt lat="48.789173" lon="9.833297">
        <ele>416.8</ele>
        <time>2026-08-30T13:33:50Z</time>
      </trkpt>
      <trkpt lat="48.789148" lon="9.833330">
        <ele>416.6</ele>
        <time>2026-08-30T13:33:51Z</time>
      </trkpt>
      <trkpt lat="48.789120" lon="9.833358">
        <ele>416.6</ele>
        <time>2026-08-30T13:33:52Z</time>
      </trkpt>
      <trkpt lat="48.789091" lon="9.833385">
        <ele>416.4</ele>
        <time>2026-08-30T13:33:53Z</time>
      </trkpt>
      <trkpt lat="48.789061" lon="9.833412">
        <ele>416.2</ele>
        <time>2026-08-30T13:33:54Z</time>
      </trkpt>
      <trkpt lat="48.789030" lon="9.833449">
        <ele>416</ele>
        <time>2026-08-30T13:33:55Z</time>
      </trkpt>
      <trkpt lat="48.789003" lon="9.833491">
        <ele>415.8</ele>
        <time>2026-08-30T13:33:56Z</time>
      </trkpt>
      <trkpt lat="48.788970" lon="9.833532">
        <ele>415.8</ele>
        <time>2026-08-30T13:33:57Z</time>
      </trkpt>
      <trkpt lat="48.788936" lon="9.833569">
        <ele>415.6</ele>
        <time>2026-08-30T13:33:58Z</time>
      </trkpt>
      <trkpt lat="48.788900" lon="9.833609">
        <ele>415.4</ele>
        <time>2026-08-30T13:33:59Z</time>
      </trkpt>
      <trkpt lat="48.788864" lon="9.833652">
        <ele>415</ele>
        <time>2026-08-30T13:34:00Z</time>
      </trkpt>
      <trkpt lat="48.788828" lon="9.833686">
        <ele>414.8</ele>
        <time>2026-08-30T13:34:01Z</time>
      </trkpt>
      <trkpt lat="48.788793" lon="9.833723">
        <ele>414.6</ele>
        <time>2026-08-30T13:34:02Z</time>
      </trkpt>
      <trkpt lat="48.788755" lon="9.833746">
        <ele>414.6</ele>
        <time>2026-08-30T13:34:03Z</time>
      </trkpt>
      <trkpt lat="48.788721" lon="9.833760">
        <ele>414.4</ele>
        <time>2026-08-30T13:34:04Z</time>
      </trkpt>
      <trkpt lat="48.788685" lon="9.833770">
        <ele>414.4</ele>
        <time>2026-08-30T13:34:05Z</time>
      </trkpt>
      <trkpt lat="48.788653" lon="9.833791">
        <ele>414.4</ele>
        <time>2026-08-30T13:34:06Z</time>
      </trkpt>
      <trkpt lat="48.788622" lon="9.833824">
        <ele>414.4</ele>
        <time>2026-08-30T13:34:07Z</time>
      </trkpt>
      <trkpt lat="48.788595" lon="9.833863">
        <ele>414.2</ele>
        <time>2026-08-30T13:34:08Z</time>
      </trkpt>
      <trkpt lat="48.788579" lon="9.833907">
        <ele>414.2</ele>
        <time>2026-08-30T13:34:09Z</time>
      </trkpt>
      <trkpt lat="48.788562" lon="9.833950">
        <ele>414.2</ele>
        <time>2026-08-30T13:34:10Z</time>
      </trkpt>
      <trkpt lat="48.788545" lon="9.833983">
        <ele>414.2</ele>
        <time>2026-08-30T13:34:11Z</time>
      </trkpt>
      <trkpt lat="48.788520" lon="9.834011">
        <ele>414.2</ele>
        <time>2026-08-30T13:34:12Z</time>
      </trkpt>
      <trkpt lat="48.788490" lon="9.834034">
        <ele>414</ele>
        <time>2026-08-30T13:34:13Z</time>
      </trkpt>
      <trkpt lat="48.788457" lon="9.834027">
        <ele>414</ele>
        <time>2026-08-30T13:34:14Z</time>
      </trkpt>
      <trkpt lat="48.788432" lon="9.834004">
        <ele>413.8</ele>
        <time>2026-08-30T13:34:15Z</time>
      </trkpt>
      <trkpt lat="48.788407" lon="9.833958">
        <ele>413.6</ele>
        <time>2026-08-30T13:34:16Z</time>
      </trkpt>
      <trkpt lat="48.788379" lon="9.833899">
        <ele>413.4</ele>
        <time>2026-08-30T13:34:17Z</time>
      </trkpt>
      <trkpt lat="48.788344" lon="9.833843">
        <ele>413</ele>
        <time>2026-08-30T13:34:18Z</time>
      </trkpt>
      <trkpt lat="48.788309" lon="9.833780">
        <ele>412.6</ele>
        <time>2026-08-30T13:34:19Z</time>
      </trkpt>
      <trkpt lat="48.788272" lon="9.833713">
        <ele>412</ele>
        <time>2026-08-30T13:34:20Z</time>
      </trkpt>
      <trkpt lat="48.788238" lon="9.833638">
        <ele>411.4</ele>
        <time>2026-08-30T13:34:21Z</time>
      </trkpt>
      <trkpt lat="48.788199" lon="9.833555">
        <ele>410.8</ele>
        <time>2026-08-30T13:34:22Z</time>
      </trkpt>
      <trkpt lat="48.788156" lon="9.833470">
        <ele>410</ele>
        <time>2026-08-30T13:34:23Z</time>
      </trkpt>
      <trkpt lat="48.788109" lon="9.833387">
        <ele>409</ele>
        <time>2026-08-30T13:34:24Z</time>
      </trkpt>
      <trkpt lat="48.788057" lon="9.833318">
        <ele>408.2</ele>
        <time>2026-08-30T13:34:25Z</time>
      </trkpt>
      <trkpt lat="48.788000" lon="9.833271">
        <ele>407</ele>
        <time>2026-08-30T13:34:26Z</time>
      </trkpt>
      <trkpt lat="48.787961" lon="9.833213">
        <ele>406</ele>
        <time>2026-08-30T13:34:27Z</time>
      </trkpt>
      <trkpt lat="48.787945" lon="9.833137">
        <ele>405</ele>
        <time>2026-08-30T13:34:28Z</time>
      </trkpt>
      <trkpt lat="48.787962" lon="9.833059">
        <ele>404.2</ele>
        <time>2026-08-30T13:34:29Z</time>
      </trkpt>
      <trkpt lat="48.787997" lon="9.833002">
        <ele>403.6</ele>
        <time>2026-08-30T13:34:30Z</time>
      </trkpt>
      <trkpt lat="48.788038" lon="9.832959">
        <ele>402.8</ele>
        <time>2026-08-30T13:34:31Z</time>
      </trkpt>
      <trkpt lat="48.788083" lon="9.832927">
        <ele>402.4</ele>
        <time>2026-08-30T13:34:32Z</time>
      </trkpt>
      <trkpt lat="48.788131" lon="9.832894">
        <ele>402.2</ele>
        <time>2026-08-30T13:34:33Z</time>
      </trkpt>
      <trkpt lat="48.788173" lon="9.832867">
        <ele>402</ele>
        <time>2026-08-30T13:34:34Z</time>
      </trkpt>
      <trkpt lat="48.788214" lon="9.832849">
        <ele>401.8</ele>
        <time>2026-08-30T13:34:35Z</time>
      </trkpt>
      <trkpt lat="48.788261" lon="9.832822">
        <ele>401.8</ele>
        <time>2026-08-30T13:34:36Z</time>
      </trkpt>
      <trkpt lat="48.788308" lon="9.832792">
        <ele>401.8</ele>
        <time>2026-08-30T13:34:37Z</time>
      </trkpt>
      <trkpt lat="48.788358" lon="9.832764">
        <ele>401.8</ele>
        <time>2026-08-30T13:34:38Z</time>
      </trkpt>
      <trkpt lat="48.788409" lon="9.832742">
        <ele>401.8</ele>
        <time>2026-08-30T13:34:39Z</time>
      </trkpt>
      <trkpt lat="48.788458" lon="9.832719">
        <ele>401.8</ele>
        <time>2026-08-30T13:34:40Z</time>
      </trkpt>
      <trkpt lat="48.788507" lon="9.832696">
        <ele>401.8</ele>
        <time>2026-08-30T13:34:41Z</time>
      </trkpt>
      <trkpt lat="48.788551" lon="9.832670">
        <ele>401.8</ele>
        <time>2026-08-30T13:34:42Z</time>
      </trkpt>
      <trkpt lat="48.788594" lon="9.832641">
        <ele>401.8</ele>
        <time>2026-08-30T13:34:43Z</time>
      </trkpt>
      <trkpt lat="48.788635" lon="9.832611">
        <ele>402</ele>
        <time>2026-08-30T13:34:44Z</time>
      </trkpt>
      <trkpt lat="48.788679" lon="9.832579">
        <ele>402</ele>
        <time>2026-08-30T13:34:45Z</time>
      </trkpt>
      <trkpt lat="48.788724" lon="9.832545">
        <ele>402.2</ele>
        <time>2026-08-30T13:34:46Z</time>
      </trkpt>
      <trkpt lat="48.788765" lon="9.832511">
        <ele>402.2</ele>
        <time>2026-08-30T13:34:47Z</time>
      </trkpt>
      <trkpt lat="48.788806" lon="9.832475">
        <ele>402.2</ele>
        <time>2026-08-30T13:34:48Z</time>
      </trkpt>
      <trkpt lat="48.788841" lon="9.832430">
        <ele>402.2</ele>
        <time>2026-08-30T13:34:49Z</time>
      </trkpt>
      <trkpt lat="48.788876" lon="9.832381">
        <ele>402.2</ele>
        <time>2026-08-30T13:34:50Z</time>
      </trkpt>
      <trkpt lat="48.788910" lon="9.832336">
        <ele>402</ele>
        <time>2026-08-30T13:34:51Z</time>
      </trkpt>
      <trkpt lat="48.788941" lon="9.832287">
        <ele>402</ele>
        <time>2026-08-30T13:34:52Z</time>
      </trkpt>
      <trkpt lat="48.788971" lon="9.832240">
        <ele>401.8</ele>
        <time>2026-08-30T13:34:53Z</time>
      </trkpt>
      <trkpt lat="48.789001" lon="9.832191">
        <ele>401.8</ele>
        <time>2026-08-30T13:34:54Z</time>
      </trkpt>
      <trkpt lat="48.789027" lon="9.832148">
        <ele>401.6</ele>
        <time>2026-08-30T13:34:55Z</time>
      </trkpt>
      <trkpt lat="48.789057" lon="9.832112">
        <ele>401.6</ele>
        <time>2026-08-30T13:34:56Z</time>
      </trkpt>
      <trkpt lat="48.789086" lon="9.832076">
        <ele>401.6</ele>
        <time>2026-08-30T13:34:57Z</time>
      </trkpt>
      <trkpt lat="48.789113" lon="9.832037">
        <ele>401.4</ele>
        <time>2026-08-30T13:34:58Z</time>
      </trkpt>
      <trkpt lat="48.789136" lon="9.831994">
        <ele>401.4</ele>
        <time>2026-08-30T13:34:59Z</time>
      </trkpt>
      <trkpt lat="48.789157" lon="9.831952">
        <ele>401.2</ele>
        <time>2026-08-30T13:35:00Z</time>
      </trkpt>
      <trkpt lat="48.789179" lon="9.831915">
        <ele>401.2</ele>
        <time>2026-08-30T13:35:01Z</time>
      </trkpt>
      <trkpt lat="48.789203" lon="9.831880">
        <ele>401.2</ele>
        <time>2026-08-30T13:35:02Z</time>
      </trkpt>
      <trkpt lat="48.789225" lon="9.831844">
        <ele>401</ele>
        <time>2026-08-30T13:35:03Z</time>
      </trkpt>
      <trkpt lat="48.789232" lon="9.831798">
        <ele>401</ele>
        <time>2026-08-30T13:35:04Z</time>
      </trkpt>
      <trkpt lat="48.789221" lon="9.831759">
        <ele>400.8</ele>
        <time>2026-08-30T13:35:05Z</time>
      </trkpt>
      <trkpt lat="48.789207" lon="9.831739">
        <ele>400.8</ele>
        <time>2026-08-30T13:35:06Z</time>
      </trkpt>
      <trkpt lat="48.789185" lon="9.831719">
        <ele>400.6</ele>
        <time>2026-08-30T13:35:07Z</time>
      </trkpt>
      <trkpt lat="48.789165" lon="9.831698">
        <ele>400.4</ele>
        <time>2026-08-30T13:35:08Z</time>
      </trkpt>
      <trkpt lat="48.789144" lon="9.831683">
        <ele>400.2</ele>
        <time>2026-08-30T13:35:09Z</time>
      </trkpt>
      <trkpt lat="48.789125" lon="9.831662">
        <ele>400</ele>
        <time>2026-08-30T13:35:10Z</time>
      </trkpt>
      <trkpt lat="48.789106" lon="9.831644">
        <ele>399.6</ele>
        <time>2026-08-30T13:35:11Z</time>
      </trkpt>
      <trkpt lat="48.789086" lon="9.831624">
        <ele>399.2</ele>
        <time>2026-08-30T13:35:12Z</time>
      </trkpt>
      <trkpt lat="48.789064" lon="9.831609">
        <ele>399</ele>
        <time>2026-08-30T13:35:13Z</time>
      </trkpt>
      <trkpt lat="48.789040" lon="9.831598">
        <ele>398.4</ele>
        <time>2026-08-30T13:35:14Z</time>
      </trkpt>
      <trkpt lat="48.789023" lon="9.831572">
        <ele>398</ele>
        <time>2026-08-30T13:35:15Z</time>
      </trkpt>
      <trkpt lat="48.789016" lon="9.831536">
        <ele>397.6</ele>
        <time>2026-08-30T13:35:16Z</time>
      </trkpt>
      <trkpt lat="48.789011" lon="9.831498">
        <ele>397</ele>
        <time>2026-08-30T13:35:17Z</time>
      </trkpt>
      <trkpt lat="48.789005" lon="9.831471">
        <ele>396.6</ele>
        <time>2026-08-30T13:35:18Z</time>
      </trkpt>
      <trkpt lat="48.789000" lon="9.831449">
        <ele>396.2</ele>
        <time>2026-08-30T13:35:19Z</time>
      </trkpt>
      <trkpt lat="48.788994" lon="9.831426">
        <ele>395.8</ele>
        <time>2026-08-30T13:35:20Z</time>
      </trkpt>
      <trkpt lat="48.788980" lon="9.831394">
        <ele>395.4</ele>
        <time>2026-08-30T13:35:21Z</time>
      </trkpt>
      <trkpt lat="48.788961" lon="9.831367">
        <ele>395.2</ele>
        <time>2026-08-30T13:35:22Z</time>
      </trkpt>
      <trkpt lat="48.788941" lon="9.831349">
        <ele>394.8</ele>
        <time>2026-08-30T13:35:23Z</time>
      </trkpt>
      <trkpt lat="48.788922" lon="9.831338">
        <ele>394.6</ele>
        <time>2026-08-30T13:35:24Z</time>
      </trkpt>
      <trkpt lat="48.788903" lon="9.831330">
        <ele>394.2</ele>
        <time>2026-08-30T13:35:25Z</time>
      </trkpt>
      <trkpt lat="48.788879" lon="9.831330">
        <ele>394</ele>
        <time>2026-08-30T13:35:26Z</time>
      </trkpt>
      <trkpt lat="48.788847" lon="9.831334">
        <ele>393.8</ele>
        <time>2026-08-30T13:35:27Z</time>
      </trkpt>
      <trkpt lat="48.788813" lon="9.831340">
        <ele>393.6</ele>
        <time>2026-08-30T13:35:28Z</time>
      </trkpt>
      <trkpt lat="48.788773" lon="9.831343">
        <ele>393.2</ele>
        <time>2026-08-30T13:35:29Z</time>
      </trkpt>
      <trkpt lat="48.788733" lon="9.831345">
        <ele>392.8</ele>
        <time>2026-08-30T13:35:30Z</time>
      </trkpt>
      <trkpt lat="48.788695" lon="9.831347">
        <ele>392.6</ele>
        <time>2026-08-30T13:35:31Z</time>
      </trkpt>
      <trkpt lat="48.788658" lon="9.831348">
        <ele>392.2</ele>
        <time>2026-08-30T13:35:32Z</time>
      </trkpt>
      <trkpt lat="48.788616" lon="9.831350">
        <ele>392</ele>
        <time>2026-08-30T13:35:33Z</time>
      </trkpt>
      <trkpt lat="48.788565" lon="9.831352">
        <ele>391.6</ele>
        <time>2026-08-30T13:35:34Z</time>
      </trkpt>
      <trkpt lat="48.788510" lon="9.831352">
        <ele>391.2</ele>
        <time>2026-08-30T13:35:35Z</time>
      </trkpt>
      <trkpt lat="48.788449" lon="9.831357">
        <ele>390.8</ele>
        <time>2026-08-30T13:35:36Z</time>
      </trkpt>
      <trkpt lat="48.788389" lon="9.831365">
        <ele>390.2</ele>
        <time>2026-08-30T13:35:37Z</time>
      </trkpt>
      <trkpt lat="48.788331" lon="9.831376">
        <ele>389.8</ele>
        <time>2026-08-30T13:35:38Z</time>
      </trkpt>
      <trkpt lat="48.788269" lon="9.831392">
        <ele>389.4</ele>
        <time>2026-08-30T13:35:39Z</time>
      </trkpt>
      <trkpt lat="48.788208" lon="9.831393">
        <ele>388.8</ele>
        <time>2026-08-30T13:35:40Z</time>
      </trkpt>
      <trkpt lat="48.788150" lon="9.831367">
        <ele>388.4</ele>
        <time>2026-08-30T13:35:41Z</time>
      </trkpt>
      <trkpt lat="48.788100" lon="9.831321">
        <ele>387.8</ele>
        <time>2026-08-30T13:35:42Z</time>
      </trkpt>
      <trkpt lat="48.788064" lon="9.831264">
        <ele>387.2</ele>
        <time>2026-08-30T13:35:43Z</time>
      </trkpt>
      <trkpt lat="48.788042" lon="9.831210">
        <ele>386.6</ele>
        <time>2026-08-30T13:35:44Z</time>
      </trkpt>
      <trkpt lat="48.788017" lon="9.831178">
        <ele>385.8</ele>
        <time>2026-08-30T13:35:45Z</time>
      </trkpt>
      <trkpt lat="48.787980" lon="9.831163">
        <ele>385.2</ele>
        <time>2026-08-30T13:35:46Z</time>
      </trkpt>
      <trkpt lat="48.787938" lon="9.831148">
        <ele>384.6</ele>
        <time>2026-08-30T13:35:47Z</time>
      </trkpt>
      <trkpt lat="48.787891" lon="9.831112">
        <ele>384</ele>
        <time>2026-08-30T13:35:48Z</time>
      </trkpt>
      <trkpt lat="48.787847" lon="9.831059">
        <ele>383.2</ele>
        <time>2026-08-30T13:35:49Z</time>
      </trkpt>
      <trkpt lat="48.787800" lon="9.830995">
        <ele>382.2</ele>
        <time>2026-08-30T13:35:50Z</time>
      </trkpt>
      <trkpt lat="48.787744" lon="9.830939">
        <ele>381.4</ele>
        <time>2026-08-30T13:35:51Z</time>
      </trkpt>
      <trkpt lat="48.787683" lon="9.830874">
        <ele>380.6</ele>
        <time>2026-08-30T13:35:52Z</time>
      </trkpt>
      <trkpt lat="48.787623" lon="9.830801">
        <ele>379.6</ele>
        <time>2026-08-30T13:35:53Z</time>
      </trkpt>
      <trkpt lat="48.787564" lon="9.830729">
        <ele>378.8</ele>
        <time>2026-08-30T13:35:54Z</time>
      </trkpt>
      <trkpt lat="48.787508" lon="9.830660">
        <ele>378</ele>
        <time>2026-08-30T13:35:55Z</time>
      </trkpt>
      <trkpt lat="48.787449" lon="9.830606">
        <ele>376.8</ele>
        <time>2026-08-30T13:35:56Z</time>
      </trkpt>
      <trkpt lat="48.787384" lon="9.830556">
        <ele>375.8</ele>
        <time>2026-08-30T13:35:57Z</time>
      </trkpt>
      <trkpt lat="48.787317" lon="9.830499">
        <ele>375</ele>
        <time>2026-08-30T13:35:58Z</time>
      </trkpt>
      <trkpt lat="48.787249" lon="9.830443">
        <ele>374</ele>
        <time>2026-08-30T13:35:59Z</time>
      </trkpt>
      <trkpt lat="48.787182" lon="9.830379">
        <ele>373.2</ele>
        <time>2026-08-30T13:36:00Z</time>
      </trkpt>
      <trkpt lat="48.787116" lon="9.830328">
        <ele>372.2</ele>
        <time>2026-08-30T13:36:01Z</time>
      </trkpt>
      <trkpt lat="48.787051" lon="9.830279">
        <ele>371.4</ele>
        <time>2026-08-30T13:36:02Z</time>
      </trkpt>
      <trkpt lat="48.786989" lon="9.830232">
        <ele>370.8</ele>
        <time>2026-08-30T13:36:03Z</time>
      </trkpt>
      <trkpt lat="48.786936" lon="9.830189">
        <ele>370.2</ele>
        <time>2026-08-30T13:36:04Z</time>
      </trkpt>
      <trkpt lat="48.786890" lon="9.830149">
        <ele>369.8</ele>
        <time>2026-08-30T13:36:05Z</time>
      </trkpt>
      <trkpt lat="48.786849" lon="9.830118">
        <ele>369</ele>
        <time>2026-08-30T13:36:06Z</time>
      </trkpt>
      <trkpt lat="48.786814" lon="9.830082">
        <ele>368.6</ele>
        <time>2026-08-30T13:36:07Z</time>
      </trkpt>
      <trkpt lat="48.786784" lon="9.830048">
        <ele>368.2</ele>
        <time>2026-08-30T13:36:08Z</time>
      </trkpt>
      <trkpt lat="48.786759" lon="9.830018">
        <ele>367.6</ele>
        <time>2026-08-30T13:36:09Z</time>
      </trkpt>
      <trkpt lat="48.786731" lon="9.829987">
        <ele>367.2</ele>
        <time>2026-08-30T13:36:10Z</time>
      </trkpt>
      <trkpt lat="48.786699" lon="9.829965">
        <ele>366.6</ele>
        <time>2026-08-30T13:36:11Z</time>
      </trkpt>
      <trkpt lat="48.786668" lon="9.829956">
        <ele>366.2</ele>
        <time>2026-08-30T13:36:12Z</time>
      </trkpt>
      <trkpt lat="48.786638" lon="9.829961">
        <ele>365.8</ele>
        <time>2026-08-30T13:36:13Z</time>
      </trkpt>
      <trkpt lat="48.786616" lon="9.829974">
        <ele>365.4</ele>
        <time>2026-08-30T13:36:14Z</time>
      </trkpt>
      <trkpt lat="48.786604" lon="9.829986">
        <ele>365.2</ele>
        <time>2026-08-30T13:36:15Z</time>
      </trkpt>
      <trkpt lat="48.786605" lon="9.829989">
        <ele>365</ele>
        <time>2026-08-30T13:36:16Z</time>
      </trkpt>
      <trkpt lat="48.786605" lon="9.829989">
        <ele>365</ele>
        <time>2026-08-30T13:36:17Z</time>
      </trkpt>
      <trkpt lat="48.786605" lon="9.829989">
        <ele>365</ele>
        <time>2026-08-30T13:36:18Z</time>
      </trkpt>
      <trkpt lat="48.786605" lon="9.829989">
        <ele>365.2</ele>
        <time>2026-08-30T13:36:19Z</time>
      </trkpt>
      <trkpt lat="48.786605" lon="9.829989">
        <ele>365.2</ele>
        <time>2026-08-30T13:36:20Z</time>
      </trkpt>
      <trkpt lat="48.786605" lon="9.829989">
        <ele>365</ele>
        <time>2026-08-30T13:36:21Z</time>
      </trkpt>
      <trkpt lat="48.786605" lon="9.829989">
        <ele>364.8</ele>
        <time>2026-08-30T13:36:22Z</time>
      </trkpt>
      <trkpt lat="48.786605" lon="9.829989">
        <ele>364.6</ele>
        <time>2026-08-30T13:36:23Z</time>
      </trkpt>
      <trkpt lat="48.786605" lon="9.829989">
        <ele>364.4</ele>
        <time>2026-08-30T13:36:24Z</time>
      </trkpt>
      <trkpt lat="48.786605" lon="9.829989">
        <ele>364.4</ele>
        <time>2026-08-30T13:36:25Z</time>
      </trkpt>
      <trkpt lat="48.786605" lon="9.829989">
        <ele>364.4</ele>
        <time>2026-08-30T13:36:26Z</time>
      </trkpt>
      <trkpt lat="48.786605" lon="9.829989">
        <ele>364.4</ele>
        <time>2026-08-30T13:36:27Z</time>
      </trkpt>
      <trkpt lat="48.786605" lon="9.829989">
        <ele>364.4</ele>
        <time>2026-08-30T13:36:28Z</time>
      </trkpt>
      <trkpt lat="48.786605" lon="9.829989">
        <ele>364.4</ele>
        <time>2026-08-30T13:36:29Z</time>
      </trkpt>
      <trkpt lat="48.786605" lon="9.829989">
        <ele>364.2</ele>
        <time>2026-08-30T13:36:30Z</time>
      </trkpt>
      <trkpt lat="48.786607" lon="9.829991">
        <ele>364.2</ele>
        <time>2026-08-30T13:36:31Z</time>
      </trkpt>
      <trkpt lat="48.786602" lon="9.830013">
        <ele>364.2</ele>
        <time>2026-08-30T13:36:32Z</time>
      </trkpt>
      <trkpt lat="48.786597" lon="9.830032">
        <ele>364.2</ele>
        <time>2026-08-30T13:36:33Z</time>
      </trkpt>
      <trkpt lat="48.786595" lon="9.830054">
        <ele>364</ele>
        <time>2026-08-30T13:36:34Z</time>
      </trkpt>
      <trkpt lat="48.786591" lon="9.830077">
        <ele>364</ele>
        <time>2026-08-30T13:36:35Z</time>
      </trkpt>
      <trkpt lat="48.786588" lon="9.830112">
        <ele>364</ele>
        <time>2026-08-30T13:36:36Z</time>
      </trkpt>
      <trkpt lat="48.786584" lon="9.830150">
        <ele>364</ele>
        <time>2026-08-30T13:36:37Z</time>
      </trkpt>
      <trkpt lat="48.786582" lon="9.830193">
        <ele>364</ele>
        <time>2026-08-30T13:36:38Z</time>
      </trkpt>
      <trkpt lat="48.786572" lon="9.830246">
        <ele>364</ele>
        <time>2026-08-30T13:36:39Z</time>
      </trkpt>
      <trkpt lat="48.786561" lon="9.830304">
        <ele>364</ele>
        <time>2026-08-30T13:36:40Z</time>
      </trkpt>
      <trkpt lat="48.786548" lon="9.830364">
        <ele>364</ele>
        <time>2026-08-30T13:36:41Z</time>
      </trkpt>
      <trkpt lat="48.786540" lon="9.830423">
        <ele>364</ele>
        <time>2026-08-30T13:36:42Z</time>
      </trkpt>
      <trkpt lat="48.786530" lon="9.830484">
        <ele>364.2</ele>
        <time>2026-08-30T13:36:43Z</time>
      </trkpt>
      <trkpt lat="48.786525" lon="9.830540">
        <ele>364.2</ele>
        <time>2026-08-30T13:36:44Z</time>
      </trkpt>
      <trkpt lat="48.786526" lon="9.830602">
        <ele>364.4</ele>
        <time>2026-08-30T13:36:45Z</time>
      </trkpt>
      <trkpt lat="48.786526" lon="9.830655">
        <ele>364.6</ele>
        <time>2026-08-30T13:36:46Z</time>
      </trkpt>
      <trkpt lat="48.786525" lon="9.830710">
        <ele>364.6</ele>
        <time>2026-08-30T13:36:47Z</time>
      </trkpt>
      <trkpt lat="48.786527" lon="9.830760">
        <ele>364.8</ele>
        <time>2026-08-30T13:36:48Z</time>
      </trkpt>
      <trkpt lat="48.786531" lon="9.830817">
        <ele>365</ele>
        <time>2026-08-30T13:36:49Z</time>
      </trkpt>
      <trkpt lat="48.786534" lon="9.830876">
        <ele>365</ele>
        <time>2026-08-30T13:36:50Z</time>
      </trkpt>
      <trkpt lat="48.786530" lon="9.830934">
        <ele>365</ele>
        <time>2026-08-30T13:36:51Z</time>
      </trkpt>
      <trkpt lat="48.786509" lon="9.830981">
        <ele>365</ele>
        <time>2026-08-30T13:36:52Z</time>
      </trkpt>
      <trkpt lat="48.786475" lon="9.831013">
        <ele>364.8</ele>
        <time>2026-08-30T13:36:53Z</time>
      </trkpt>
      <trkpt lat="48.786432" lon="9.831020">
        <ele>364.6</ele>
        <time>2026-08-30T13:36:54Z</time>
      </trkpt>
      <trkpt lat="48.786383" lon="9.831014">
        <ele>364.2</ele>
        <time>2026-08-30T13:36:55Z</time>
      </trkpt>
      <trkpt lat="48.786325" lon="9.830999">
        <ele>364</ele>
        <time>2026-08-30T13:36:56Z</time>
      </trkpt>
      <trkpt lat="48.786257" lon="9.830983">
        <ele>363.6</ele>
        <time>2026-08-30T13:36:57Z</time>
      </trkpt>
      <trkpt lat="48.786187" lon="9.830970">
        <ele>363</ele>
        <time>2026-08-30T13:36:58Z</time>
      </trkpt>
      <trkpt lat="48.786117" lon="9.830955">
        <ele>362.4</ele>
        <time>2026-08-30T13:36:59Z</time>
      </trkpt>
      <trkpt lat="48.786048" lon="9.830941">
        <ele>362</ele>
        <time>2026-08-30T13:37:00Z</time>
      </trkpt>
      <trkpt lat="48.785984" lon="9.830925">
        <ele>361.4</ele>
        <time>2026-08-30T13:37:01Z</time>
      </trkpt>
      <trkpt lat="48.785928" lon="9.830911">
        <ele>361</ele>
        <time>2026-08-30T13:37:02Z</time>
      </trkpt>
      <trkpt lat="48.785876" lon="9.830903">
        <ele>360.6</ele>
        <time>2026-08-30T13:37:03Z</time>
      </trkpt>
      <trkpt lat="48.785827" lon="9.830903">
        <ele>360.2</ele>
        <time>2026-08-30T13:37:04Z</time>
      </trkpt>
      <trkpt lat="48.785781" lon="9.830902">
        <ele>360</ele>
        <time>2026-08-30T13:37:05Z</time>
      </trkpt>
      <trkpt lat="48.785737" lon="9.830902">
        <ele>359.6</ele>
        <time>2026-08-30T13:37:06Z</time>
      </trkpt>
      <trkpt lat="48.785693" lon="9.830893">
        <ele>359.4</ele>
        <time>2026-08-30T13:37:07Z</time>
      </trkpt>
      <trkpt lat="48.785645" lon="9.830880">
        <ele>359.2</ele>
        <time>2026-08-30T13:37:08Z</time>
      </trkpt>
      <trkpt lat="48.785596" lon="9.830860">
        <ele>358.8</ele>
        <time>2026-08-30T13:37:09Z</time>
      </trkpt>
      <trkpt lat="48.785544" lon="9.830838">
        <ele>358.6</ele>
        <time>2026-08-30T13:37:10Z</time>
      </trkpt>
      <trkpt lat="48.785500" lon="9.830813">
        <ele>358.4</ele>
        <time>2026-08-30T13:37:11Z</time>
      </trkpt>
      <trkpt lat="48.785455" lon="9.830791">
        <ele>358.2</ele>
        <time>2026-08-30T13:37:12Z</time>
      </trkpt>
      <trkpt lat="48.785417" lon="9.830766">
        <ele>357.8</ele>
        <time>2026-08-30T13:37:13Z</time>
      </trkpt>
      <trkpt lat="48.785377" lon="9.830738">
        <ele>357.6</ele>
        <time>2026-08-30T13:37:14Z</time>
      </trkpt>
      <trkpt lat="48.785339" lon="9.830709">
        <ele>357.4</ele>
        <time>2026-08-30T13:37:15Z</time>
      </trkpt>
      <trkpt lat="48.785301" lon="9.830683">
        <ele>357.4</ele>
        <time>2026-08-30T13:37:16Z</time>
      </trkpt>
      <trkpt lat="48.785263" lon="9.830655">
        <ele>357.2</ele>
        <time>2026-08-30T13:37:17Z</time>
      </trkpt>
      <trkpt lat="48.785221" lon="9.830629">
        <ele>357</ele>
        <time>2026-08-30T13:37:18Z</time>
      </trkpt>
      <trkpt lat="48.785179" lon="9.830602">
        <ele>356.8</ele>
        <time>2026-08-30T13:37:19Z</time>
      </trkpt>
      <trkpt lat="48.785138" lon="9.830575">
        <ele>356.6</ele>
        <time>2026-08-30T13:37:20Z</time>
      </trkpt>
      <trkpt lat="48.785101" lon="9.830539">
        <ele>356.4</ele>
        <time>2026-08-30T13:37:21Z</time>
      </trkpt>
      <trkpt lat="48.785067" lon="9.830500">
        <ele>356.4</ele>
        <time>2026-08-30T13:37:22Z</time>
      </trkpt>
      <trkpt lat="48.785042" lon="9.830444">
        <ele>356.2</ele>
        <time>2026-08-30T13:37:23Z</time>
      </trkpt>
      <trkpt lat="48.785030" lon="9.830384">
        <ele>356</ele>
        <time>2026-08-30T13:37:24Z</time>
      </trkpt>
      <trkpt lat="48.785033" lon="9.830324">
        <ele>355.8</ele>
        <time>2026-08-30T13:37:25Z</time>
      </trkpt>
      <trkpt lat="48.785054" lon="9.830265">
        <ele>355.6</ele>
        <time>2026-08-30T13:37:26Z</time>
      </trkpt>
      <trkpt lat="48.785082" lon="9.830200">
        <ele>355.4</ele>
        <time>2026-08-30T13:37:27Z</time>
      </trkpt>
      <trkpt lat="48.785101" lon="9.830130">
        <ele>355.4</ele>
        <time>2026-08-30T13:37:28Z</time>
      </trkpt>
      <trkpt lat="48.785125" lon="9.830054">
        <ele>355.2</ele>
        <time>2026-08-30T13:37:29Z</time>
      </trkpt>
      <trkpt lat="48.785154" lon="9.829984">
        <ele>355.2</ele>
        <time>2026-08-30T13:37:30Z</time>
      </trkpt>
      <trkpt lat="48.785181" lon="9.829908">
        <ele>355</ele>
        <time>2026-08-30T13:37:31Z</time>
      </trkpt>
      <trkpt lat="48.785207" lon="9.829827">
        <ele>355</ele>
        <time>2026-08-30T13:37:32Z</time>
      </trkpt>
      <trkpt lat="48.785232" lon="9.829742">
        <ele>354.8</ele>
        <time>2026-08-30T13:37:33Z</time>
      </trkpt>
      <trkpt lat="48.785257" lon="9.829659">
        <ele>354.8</ele>
        <time>2026-08-30T13:37:34Z</time>
      </trkpt>
      <trkpt lat="48.785282" lon="9.829574">
        <ele>354.6</ele>
        <time>2026-08-30T13:37:35Z</time>
      </trkpt>
      <trkpt lat="48.785308" lon="9.829493">
        <ele>354.6</ele>
        <time>2026-08-30T13:37:36Z</time>
      </trkpt>
      <trkpt lat="48.785331" lon="9.829413">
        <ele>354.6</ele>
        <time>2026-08-30T13:37:37Z</time>
      </trkpt>
      <trkpt lat="48.785353" lon="9.829330">
        <ele>354.6</ele>
        <time>2026-08-30T13:37:38Z</time>
      </trkpt>
      <trkpt lat="48.785375" lon="9.829247">
        <ele>354.6</ele>
        <time>2026-08-30T13:37:39Z</time>
      </trkpt>
      <trkpt lat="48.785395" lon="9.829164">
        <ele>354.4</ele>
        <time>2026-08-30T13:37:40Z</time>
      </trkpt>
      <trkpt lat="48.785418" lon="9.829081">
        <ele>354.4</ele>
        <time>2026-08-30T13:37:41Z</time>
      </trkpt>
      <trkpt lat="48.785442" lon="9.829001">
        <ele>354.4</ele>
        <time>2026-08-30T13:37:42Z</time>
      </trkpt>
      <trkpt lat="48.785465" lon="9.828920">
        <ele>354.2</ele>
        <time>2026-08-30T13:37:43Z</time>
      </trkpt>
      <trkpt lat="48.785483" lon="9.828839">
        <ele>354.2</ele>
        <time>2026-08-30T13:37:44Z</time>
      </trkpt>
      <trkpt lat="48.785500" lon="9.828758">
        <ele>354</ele>
        <time>2026-08-30T13:37:45Z</time>
      </trkpt>
      <trkpt lat="48.785519" lon="9.828676">
        <ele>354</ele>
        <time>2026-08-30T13:37:46Z</time>
      </trkpt>
      <trkpt lat="48.785543" lon="9.828601">
        <ele>353.8</ele>
        <time>2026-08-30T13:37:47Z</time>
      </trkpt>
      <trkpt lat="48.785578" lon="9.828538">
        <ele>353.8</ele>
        <time>2026-08-30T13:37:48Z</time>
      </trkpt>
      <trkpt lat="48.785605" lon="9.828470">
        <ele>353.8</ele>
        <time>2026-08-30T13:37:49Z</time>
      </trkpt>
      <trkpt lat="48.785627" lon="9.828390">
        <ele>353.8</ele>
        <time>2026-08-30T13:37:50Z</time>
      </trkpt>
      <trkpt lat="48.785645" lon="9.828309">
        <ele>353.6</ele>
        <time>2026-08-30T13:37:51Z</time>
      </trkpt>
      <trkpt lat="48.785668" lon="9.828229">
        <ele>353.6</ele>
        <time>2026-08-30T13:37:52Z</time>
      </trkpt>
      <trkpt lat="48.785688" lon="9.828149">
        <ele>353.4</ele>
        <time>2026-08-30T13:37:53Z</time>
      </trkpt>
      <trkpt lat="48.785708" lon="9.828068">
        <ele>353.4</ele>
        <time>2026-08-30T13:37:54Z</time>
      </trkpt>
      <trkpt lat="48.785730" lon="9.827990">
        <ele>353.2</ele>
        <time>2026-08-30T13:37:55Z</time>
      </trkpt>
      <trkpt lat="48.785750" lon="9.827907">
        <ele>353.2</ele>
        <time>2026-08-30T13:37:56Z</time>
      </trkpt>
      <trkpt lat="48.785773" lon="9.827826">
        <ele>353</ele>
        <time>2026-08-30T13:37:57Z</time>
      </trkpt>
      <trkpt lat="48.785795" lon="9.827748">
        <ele>353</ele>
        <time>2026-08-30T13:37:58Z</time>
      </trkpt>
      <trkpt lat="48.785819" lon="9.827678">
        <ele>353</ele>
        <time>2026-08-30T13:37:59Z</time>
      </trkpt>
      <trkpt lat="48.785841" lon="9.827615">
        <ele>352.8</ele>
        <time>2026-08-30T13:38:00Z</time>
      </trkpt>
      <trkpt lat="48.785860" lon="9.827549">
        <ele>352.8</ele>
        <time>2026-08-30T13:38:01Z</time>
      </trkpt>
      <trkpt lat="48.785892" lon="9.827493">
        <ele>352.8</ele>
        <time>2026-08-30T13:38:02Z</time>
      </trkpt>
      <trkpt lat="48.785929" lon="9.827442">
        <ele>352.8</ele>
        <time>2026-08-30T13:38:03Z</time>
      </trkpt>
      <trkpt lat="48.785965" lon="9.827413">
        <ele>352.8</ele>
        <time>2026-08-30T13:38:04Z</time>
      </trkpt>
      <trkpt lat="48.786003" lon="9.827375">
        <ele>352.8</ele>
        <time>2026-08-30T13:38:05Z</time>
      </trkpt>
      <trkpt lat="48.786037" lon="9.827319">
        <ele>352.8</ele>
        <time>2026-08-30T13:38:06Z</time>
      </trkpt>
      <trkpt lat="48.786070" lon="9.827247">
        <ele>352.8</ele>
        <time>2026-08-30T13:38:07Z</time>
      </trkpt>
      <trkpt lat="48.786093" lon="9.827167">
        <ele>352.8</ele>
        <time>2026-08-30T13:38:08Z</time>
      </trkpt>
      <trkpt lat="48.786114" lon="9.827090">
        <ele>352.8</ele>
        <time>2026-08-30T13:38:09Z</time>
      </trkpt>
      <trkpt lat="48.786133" lon="9.827012">
        <ele>352.6</ele>
        <time>2026-08-30T13:38:10Z</time>
      </trkpt>
      <trkpt lat="48.786156" lon="9.826935">
        <ele>352.6</ele>
        <time>2026-08-30T13:38:11Z</time>
      </trkpt>
      <trkpt lat="48.786179" lon="9.826862">
        <ele>352.6</ele>
        <time>2026-08-30T13:38:12Z</time>
      </trkpt>
      <trkpt lat="48.786197" lon="9.826790">
        <ele>352.6</ele>
        <time>2026-08-30T13:38:13Z</time>
      </trkpt>
      <trkpt lat="48.786213" lon="9.826718">
        <ele>352.4</ele>
        <time>2026-08-30T13:38:14Z</time>
      </trkpt>
      <trkpt lat="48.786231" lon="9.826650">
        <ele>352.4</ele>
        <time>2026-08-30T13:38:15Z</time>
      </trkpt>
      <trkpt lat="48.786258" lon="9.826583">
        <ele>352.4</ele>
        <time>2026-08-30T13:38:16Z</time>
      </trkpt>
      <trkpt lat="48.786294" lon="9.826544">
        <ele>352.2</ele>
        <time>2026-08-30T13:38:17Z</time>
      </trkpt>
      <trkpt lat="48.786332" lon="9.826535">
        <ele>352.2</ele>
        <time>2026-08-30T13:38:18Z</time>
      </trkpt>
      <trkpt lat="48.786374" lon="9.826542">
        <ele>352.2</ele>
        <time>2026-08-30T13:38:19Z</time>
      </trkpt>
      <trkpt lat="48.786411" lon="9.826565">
        <ele>352.2</ele>
        <time>2026-08-30T13:38:20Z</time>
      </trkpt>
      <trkpt lat="48.786446" lon="9.826591">
        <ele>352.4</ele>
        <time>2026-08-30T13:38:21Z</time>
      </trkpt>
      <trkpt lat="48.786479" lon="9.826613">
        <ele>352.6</ele>
        <time>2026-08-30T13:38:22Z</time>
      </trkpt>
      <trkpt lat="48.786516" lon="9.826636">
        <ele>352.6</ele>
        <time>2026-08-30T13:38:23Z</time>
      </trkpt>
      <trkpt lat="48.786557" lon="9.826651">
        <ele>352.8</ele>
        <time>2026-08-30T13:38:24Z</time>
      </trkpt>
      <trkpt lat="48.786601" lon="9.826652">
        <ele>353</ele>
        <time>2026-08-30T13:38:25Z</time>
      </trkpt>
      <trkpt lat="48.786636" lon="9.826623">
        <ele>353</ele>
        <time>2026-08-30T13:38:26Z</time>
      </trkpt>
      <trkpt lat="48.786666" lon="9.826580">
        <ele>353.2</ele>
        <time>2026-08-30T13:38:27Z</time>
      </trkpt>
      <trkpt lat="48.786692" lon="9.826523">
        <ele>353.4</ele>
        <time>2026-08-30T13:38:28Z</time>
      </trkpt>
      <trkpt lat="48.786715" lon="9.826454">
        <ele>353.4</ele>
        <time>2026-08-30T13:38:29Z</time>
      </trkpt>
      <trkpt lat="48.786735" lon="9.826389">
        <ele>353.4</ele>
        <time>2026-08-30T13:38:30Z</time>
      </trkpt>
      <trkpt lat="48.786753" lon="9.826323">
        <ele>353.6</ele>
        <time>2026-08-30T13:38:31Z</time>
      </trkpt>
      <trkpt lat="48.786767" lon="9.826255">
        <ele>353.6</ele>
        <time>2026-08-30T13:38:32Z</time>
      </trkpt>
      <trkpt lat="48.786786" lon="9.826194">
        <ele>353.6</ele>
        <time>2026-08-30T13:38:33Z</time>
      </trkpt>
      <trkpt lat="48.786808" lon="9.826136">
        <ele>353.6</ele>
        <time>2026-08-30T13:38:34Z</time>
      </trkpt>
      <trkpt lat="48.786824" lon="9.826080">
        <ele>353.6</ele>
        <time>2026-08-30T13:38:35Z</time>
      </trkpt>
      <trkpt lat="48.786842" lon="9.826018">
        <ele>353.6</ele>
        <time>2026-08-30T13:38:36Z</time>
      </trkpt>
      <trkpt lat="48.786855" lon="9.825956">
        <ele>353.6</ele>
        <time>2026-08-30T13:38:37Z</time>
      </trkpt>
      <trkpt lat="48.786871" lon="9.825895">
        <ele>353.4</ele>
        <time>2026-08-30T13:38:38Z</time>
      </trkpt>
      <trkpt lat="48.786890" lon="9.825841">
        <ele>353.4</ele>
        <time>2026-08-30T13:38:39Z</time>
      </trkpt>
      <trkpt lat="48.786905" lon="9.825786">
        <ele>353.4</ele>
        <time>2026-08-30T13:38:40Z</time>
      </trkpt>
      <trkpt lat="48.786920" lon="9.825732">
        <ele>353.4</ele>
        <time>2026-08-30T13:38:41Z</time>
      </trkpt>
      <trkpt lat="48.786926" lon="9.825672">
        <ele>353.2</ele>
        <time>2026-08-30T13:38:42Z</time>
      </trkpt>
      <trkpt lat="48.786921" lon="9.825608">
        <ele>353.2</ele>
        <time>2026-08-30T13:38:43Z</time>
      </trkpt>
      <trkpt lat="48.786908" lon="9.825551">
        <ele>353</ele>
        <time>2026-08-30T13:38:44Z</time>
      </trkpt>
      <trkpt lat="48.786897" lon="9.825491">
        <ele>352.8</ele>
        <time>2026-08-30T13:38:45Z</time>
      </trkpt>
      <trkpt lat="48.786889" lon="9.825425">
        <ele>352.8</ele>
        <time>2026-08-30T13:38:46Z</time>
      </trkpt>
      <trkpt lat="48.786879" lon="9.825365">
        <ele>352.6</ele>
        <time>2026-08-30T13:38:47Z</time>
      </trkpt>
      <trkpt lat="48.786865" lon="9.825306">
        <ele>352.4</ele>
        <time>2026-08-30T13:38:48Z</time>
      </trkpt>
      <trkpt lat="48.786850" lon="9.825240">
        <ele>352.2</ele>
        <time>2026-08-30T13:38:49Z</time>
      </trkpt>
      <trkpt lat="48.786839" lon="9.825169">
        <ele>352</ele>
        <time>2026-08-30T13:38:50Z</time>
      </trkpt>
      <trkpt lat="48.786840" lon="9.825092">
        <ele>351.8</ele>
        <time>2026-08-30T13:38:51Z</time>
      </trkpt>
      <trkpt lat="48.786853" lon="9.825015">
        <ele>351.4</ele>
        <time>2026-08-30T13:38:52Z</time>
      </trkpt>
      <trkpt lat="48.786880" lon="9.824944">
        <ele>351.2</ele>
        <time>2026-08-30T13:38:53Z</time>
      </trkpt>
      <trkpt lat="48.786911" lon="9.824879">
        <ele>350.8</ele>
        <time>2026-08-30T13:38:54Z</time>
      </trkpt>
      <trkpt lat="48.786944" lon="9.824822">
        <ele>350.6</ele>
        <time>2026-08-30T13:38:55Z</time>
      </trkpt>
      <trkpt lat="48.786982" lon="9.824769">
        <ele>350.4</ele>
        <time>2026-08-30T13:38:56Z</time>
      </trkpt>
      <trkpt lat="48.787023" lon="9.824717">
        <ele>350.2</ele>
        <time>2026-08-30T13:38:57Z</time>
      </trkpt>
      <trkpt lat="48.787063" lon="9.824669">
        <ele>350.2</ele>
        <time>2026-08-30T13:38:58Z</time>
      </trkpt>
      <trkpt lat="48.787099" lon="9.824619">
        <ele>350.2</ele>
        <time>2026-08-30T13:38:59Z</time>
      </trkpt>
      <trkpt lat="48.787137" lon="9.824569">
        <ele>350.2</ele>
        <time>2026-08-30T13:39:00Z</time>
      </trkpt>
      <trkpt lat="48.787175" lon="9.824521">
        <ele>350.4</ele>
        <time>2026-08-30T13:39:01Z</time>
      </trkpt>
      <trkpt lat="48.787202" lon="9.824469">
        <ele>350.6</ele>
        <time>2026-08-30T13:39:02Z</time>
      </trkpt>
      <trkpt lat="48.787218" lon="9.824410">
        <ele>350.6</ele>
        <time>2026-08-30T13:39:03Z</time>
      </trkpt>
      <trkpt lat="48.787228" lon="9.824344">
        <ele>350.8</ele>
        <time>2026-08-30T13:39:04Z</time>
      </trkpt>
      <trkpt lat="48.787233" lon="9.824275">
        <ele>350.8</ele>
        <time>2026-08-30T13:39:05Z</time>
      </trkpt>
      <trkpt lat="48.787231" lon="9.824202">
        <ele>351</ele>
        <time>2026-08-30T13:39:06Z</time>
      </trkpt>
      <trkpt lat="48.787236" lon="9.824134">
        <ele>351</ele>
        <time>2026-08-30T13:39:07Z</time>
      </trkpt>
      <trkpt lat="48.787240" lon="9.824064">
        <ele>351</ele>
        <time>2026-08-30T13:39:08Z</time>
      </trkpt>
      <trkpt lat="48.787242" lon="9.823992">
        <ele>351</ele>
        <time>2026-08-30T13:39:09Z</time>
      </trkpt>
      <trkpt lat="48.787244" lon="9.823919">
        <ele>351</ele>
        <time>2026-08-30T13:39:10Z</time>
      </trkpt>
      <trkpt lat="48.787244" lon="9.823847">
        <ele>351</ele>
        <time>2026-08-30T13:39:11Z</time>
      </trkpt>
      <trkpt lat="48.787244" lon="9.823776">
        <ele>351</ele>
        <time>2026-08-30T13:39:12Z</time>
      </trkpt>
      <trkpt lat="48.787247" lon="9.823705">
        <ele>351</ele>
        <time>2026-08-30T13:39:13Z</time>
      </trkpt>
      <trkpt lat="48.787253" lon="9.823635">
        <ele>351</ele>
        <time>2026-08-30T13:39:14Z</time>
      </trkpt>
      <trkpt lat="48.787260" lon="9.823572">
        <ele>351</ele>
        <time>2026-08-30T13:39:15Z</time>
      </trkpt>
      <trkpt lat="48.787266" lon="9.823507">
        <ele>350.8</ele>
        <time>2026-08-30T13:39:16Z</time>
      </trkpt>
      <trkpt lat="48.787278" lon="9.823454">
        <ele>350.8</ele>
        <time>2026-08-30T13:39:17Z</time>
      </trkpt>
      <trkpt lat="48.787285" lon="9.823407">
        <ele>350.6</ele>
        <time>2026-08-30T13:39:18Z</time>
      </trkpt>
      <trkpt lat="48.787274" lon="9.823363">
        <ele>350.4</ele>
        <time>2026-08-30T13:39:19Z</time>
      </trkpt>
      <trkpt lat="48.787254" lon="9.823332">
        <ele>350.4</ele>
        <time>2026-08-30T13:39:20Z</time>
      </trkpt>
      <trkpt lat="48.787224" lon="9.823312">
        <ele>350.2</ele>
        <time>2026-08-30T13:39:21Z</time>
      </trkpt>
      <trkpt lat="48.787188" lon="9.823307">
        <ele>350</ele>
        <time>2026-08-30T13:39:22Z</time>
      </trkpt>
      <trkpt lat="48.787147" lon="9.823309">
        <ele>349.8</ele>
        <time>2026-08-30T13:39:23Z</time>
      </trkpt>
      <trkpt lat="48.787109" lon="9.823290">
        <ele>349.8</ele>
        <time>2026-08-30T13:39:24Z</time>
      </trkpt>
      <trkpt lat="48.787099" lon="9.823250">
        <ele>349.6</ele>
        <time>2026-08-30T13:39:25Z</time>
      </trkpt>
      <trkpt lat="48.787106" lon="9.823192">
        <ele>349.4</ele>
        <time>2026-08-30T13:39:26Z</time>
      </trkpt>
      <trkpt lat="48.787121" lon="9.823138">
        <ele>349.4</ele>
        <time>2026-08-30T13:39:27Z</time>
      </trkpt>
      <trkpt lat="48.787141" lon="9.823080">
        <ele>349.2</ele>
        <time>2026-08-30T13:39:28Z</time>
      </trkpt>
      <trkpt lat="48.787163" lon="9.823018">
        <ele>349.2</ele>
        <time>2026-08-30T13:39:29Z</time>
      </trkpt>
      <trkpt lat="48.787185" lon="9.822943">
        <ele>349</ele>
        <time>2026-08-30T13:39:30Z</time>
      </trkpt>
      <trkpt lat="48.787208" lon="9.822865">
        <ele>349</ele>
        <time>2026-08-30T13:39:31Z</time>
      </trkpt>
      <trkpt lat="48.787231" lon="9.822784">
        <ele>348.8</ele>
        <time>2026-08-30T13:39:32Z</time>
      </trkpt>
      <trkpt lat="48.787253" lon="9.822705">
        <ele>348.8</ele>
        <time>2026-08-30T13:39:33Z</time>
      </trkpt>
      <trkpt lat="48.787277" lon="9.822625">
        <ele>348.6</ele>
        <time>2026-08-30T13:39:34Z</time>
      </trkpt>
      <trkpt lat="48.787300" lon="9.822548">
        <ele>348.4</ele>
        <time>2026-08-30T13:39:35Z</time>
      </trkpt>
      <trkpt lat="48.787322" lon="9.822466">
        <ele>348.4</ele>
        <time>2026-08-30T13:39:36Z</time>
      </trkpt>
      <trkpt lat="48.787345" lon="9.822386">
        <ele>348.2</ele>
        <time>2026-08-30T13:39:37Z</time>
      </trkpt>
      <trkpt lat="48.787369" lon="9.822307">
        <ele>348.2</ele>
        <time>2026-08-30T13:39:38Z</time>
      </trkpt>
      <trkpt lat="48.787392" lon="9.822229">
        <ele>348</ele>
        <time>2026-08-30T13:39:39Z</time>
      </trkpt>
      <trkpt lat="48.787414" lon="9.822148">
        <ele>348</ele>
        <time>2026-08-30T13:39:40Z</time>
      </trkpt>
      <trkpt lat="48.787439" lon="9.822069">
        <ele>347.8</ele>
        <time>2026-08-30T13:39:41Z</time>
      </trkpt>
      <trkpt lat="48.787465" lon="9.821992">
        <ele>347.8</ele>
        <time>2026-08-30T13:39:42Z</time>
      </trkpt>
      <trkpt lat="48.787491" lon="9.821916">
        <ele>347.8</ele>
        <time>2026-08-30T13:39:43Z</time>
      </trkpt>
      <trkpt lat="48.787514" lon="9.821843">
        <ele>347.8</ele>
        <time>2026-08-30T13:39:44Z</time>
      </trkpt>
      <trkpt lat="48.787534" lon="9.821772">
        <ele>347.8</ele>
        <time>2026-08-30T13:39:45Z</time>
      </trkpt>
      <trkpt lat="48.787553" lon="9.821703">
        <ele>347.8</ele>
        <time>2026-08-30T13:39:46Z</time>
      </trkpt>
      <trkpt lat="48.787570" lon="9.821633">
        <ele>347.8</ele>
        <time>2026-08-30T13:39:47Z</time>
      </trkpt>
      <trkpt lat="48.787590" lon="9.821570">
        <ele>347.8</ele>
        <time>2026-08-30T13:39:48Z</time>
      </trkpt>
      <trkpt lat="48.787610" lon="9.821505">
        <ele>347.8</ele>
        <time>2026-08-30T13:39:49Z</time>
      </trkpt>
      <trkpt lat="48.787630" lon="9.821443">
        <ele>347.6</ele>
        <time>2026-08-30T13:39:50Z</time>
      </trkpt>
      <trkpt lat="48.787650" lon="9.821383">
        <ele>347.6</ele>
        <time>2026-08-30T13:39:51Z</time>
      </trkpt>
      <trkpt lat="48.787666" lon="9.821323">
        <ele>347.6</ele>
        <time>2026-08-30T13:39:52Z</time>
      </trkpt>
      <trkpt lat="48.787678" lon="9.821259">
        <ele>347.4</ele>
        <time>2026-08-30T13:39:53Z</time>
      </trkpt>
      <trkpt lat="48.787695" lon="9.821193">
        <ele>347.4</ele>
        <time>2026-08-30T13:39:54Z</time>
      </trkpt>
      <trkpt lat="48.787712" lon="9.821132">
        <ele>347.2</ele>
        <time>2026-08-30T13:39:55Z</time>
      </trkpt>
      <trkpt lat="48.787729" lon="9.821078">
        <ele>347.2</ele>
        <time>2026-08-30T13:39:56Z</time>
      </trkpt>
      <trkpt lat="48.787747" lon="9.821032">
        <ele>347.2</ele>
        <time>2026-08-30T13:39:57Z</time>
      </trkpt>
      <trkpt lat="48.787766" lon="9.820979">
        <ele>347</ele>
        <time>2026-08-30T13:39:58Z</time>
      </trkpt>
      <trkpt lat="48.787786" lon="9.820920">
        <ele>347</ele>
        <time>2026-08-30T13:39:59Z</time>
      </trkpt>
      <trkpt lat="48.787808" lon="9.820859">
        <ele>347</ele>
        <time>2026-08-30T13:40:00Z</time>
      </trkpt>
      <trkpt lat="48.787830" lon="9.820801">
        <ele>346.8</ele>
        <time>2026-08-30T13:40:01Z</time>
      </trkpt>
      <trkpt lat="48.787848" lon="9.820734">
        <ele>346.8</ele>
        <time>2026-08-30T13:40:02Z</time>
      </trkpt>
      <trkpt lat="48.787863" lon="9.820667">
        <ele>346.8</ele>
        <time>2026-08-30T13:40:03Z</time>
      </trkpt>
      <trkpt lat="48.787878" lon="9.820602">
        <ele>346.6</ele>
        <time>2026-08-30T13:40:04Z</time>
      </trkpt>
      <trkpt lat="48.787893" lon="9.820537">
        <ele>346.6</ele>
        <time>2026-08-30T13:40:05Z</time>
      </trkpt>
      <trkpt lat="48.787906" lon="9.820471">
        <ele>346.6</ele>
        <time>2026-08-30T13:40:06Z</time>
      </trkpt>
      <trkpt lat="48.787922" lon="9.820407">
        <ele>346.6</ele>
        <time>2026-08-30T13:40:07Z</time>
      </trkpt>
      <trkpt lat="48.787936" lon="9.820343">
        <ele>346.6</ele>
        <time>2026-08-30T13:40:08Z</time>
      </trkpt>
      <trkpt lat="48.787947" lon="9.820283">
        <ele>346.8</ele>
        <time>2026-08-30T13:40:09Z</time>
      </trkpt>
      <trkpt lat="48.787959" lon="9.820223">
        <ele>346.8</ele>
        <time>2026-08-30T13:40:10Z</time>
      </trkpt>
      <trkpt lat="48.787970" lon="9.820166">
        <ele>347</ele>
        <time>2026-08-30T13:40:11Z</time>
      </trkpt>
      <trkpt lat="48.787984" lon="9.820103">
        <ele>347</ele>
        <time>2026-08-30T13:40:12Z</time>
      </trkpt>
      <trkpt lat="48.787993" lon="9.820038">
        <ele>347</ele>
        <time>2026-08-30T13:40:13Z</time>
      </trkpt>
      <trkpt lat="48.788003" lon="9.819974">
        <ele>347</ele>
        <time>2026-08-30T13:40:14Z</time>
      </trkpt>
      <trkpt lat="48.788018" lon="9.819908">
        <ele>347.2</ele>
        <time>2026-08-30T13:40:15Z</time>
      </trkpt>
      <trkpt lat="48.788035" lon="9.819836">
        <ele>347.2</ele>
        <time>2026-08-30T13:40:16Z</time>
      </trkpt>
      <trkpt lat="48.788046" lon="9.819763">
        <ele>347</ele>
        <time>2026-08-30T13:40:17Z</time>
      </trkpt>
      <trkpt lat="48.788057" lon="9.819691">
        <ele>347</ele>
        <time>2026-08-30T13:40:18Z</time>
      </trkpt>
      <trkpt lat="48.788071" lon="9.819622">
        <ele>347</ele>
        <time>2026-08-30T13:40:19Z</time>
      </trkpt>
      <trkpt lat="48.788083" lon="9.819551">
        <ele>346.8</ele>
        <time>2026-08-30T13:40:20Z</time>
      </trkpt>
      <trkpt lat="48.788094" lon="9.819476">
        <ele>346.8</ele>
        <time>2026-08-30T13:40:21Z</time>
      </trkpt>
      <trkpt lat="48.788106" lon="9.819398">
        <ele>346.8</ele>
        <time>2026-08-30T13:40:22Z</time>
      </trkpt>
      <trkpt lat="48.788120" lon="9.819318">
        <ele>346.8</ele>
        <time>2026-08-30T13:40:23Z</time>
      </trkpt>
      <trkpt lat="48.788136" lon="9.819240">
        <ele>346.6</ele>
        <time>2026-08-30T13:40:24Z</time>
      </trkpt>
      <trkpt lat="48.788154" lon="9.819162">
        <ele>346.6</ele>
        <time>2026-08-30T13:40:25Z</time>
      </trkpt>
      <trkpt lat="48.788172" lon="9.819084">
        <ele>346.6</ele>
        <time>2026-08-30T13:40:26Z</time>
      </trkpt>
      <trkpt lat="48.788188" lon="9.819008">
        <ele>346.6</ele>
        <time>2026-08-30T13:40:27Z</time>
      </trkpt>
      <trkpt lat="48.788204" lon="9.818937">
        <ele>346.6</ele>
        <time>2026-08-30T13:40:28Z</time>
      </trkpt>
      <trkpt lat="48.788221" lon="9.818862">
        <ele>346.6</ele>
        <time>2026-08-30T13:40:29Z</time>
      </trkpt>
      <trkpt lat="48.788234" lon="9.818794">
        <ele>346.4</ele>
        <time>2026-08-30T13:40:30Z</time>
      </trkpt>
      <trkpt lat="48.788247" lon="9.818727">
        <ele>346.4</ele>
        <time>2026-08-30T13:40:31Z</time>
      </trkpt>
      <trkpt lat="48.788262" lon="9.818658">
        <ele>346.2</ele>
        <time>2026-08-30T13:40:32Z</time>
      </trkpt>
      <trkpt lat="48.788283" lon="9.818592">
        <ele>346.2</ele>
        <time>2026-08-30T13:40:33Z</time>
      </trkpt>
      <trkpt lat="48.788304" lon="9.818526">
        <ele>346</ele>
        <time>2026-08-30T13:40:34Z</time>
      </trkpt>
      <trkpt lat="48.788325" lon="9.818456">
        <ele>346</ele>
        <time>2026-08-30T13:40:35Z</time>
      </trkpt>
      <trkpt lat="48.788342" lon="9.818383">
        <ele>346</ele>
        <time>2026-08-30T13:40:36Z</time>
      </trkpt>
      <trkpt lat="48.788359" lon="9.818308">
        <ele>345.8</ele>
        <time>2026-08-30T13:40:37Z</time>
      </trkpt>
      <trkpt lat="48.788375" lon="9.818235">
        <ele>345.8</ele>
        <time>2026-08-30T13:40:38Z</time>
      </trkpt>
      <trkpt lat="48.788389" lon="9.818161">
        <ele>345.6</ele>
        <time>2026-08-30T13:40:39Z</time>
      </trkpt>
      <trkpt lat="48.788402" lon="9.818084">
        <ele>345.6</ele>
        <time>2026-08-30T13:40:40Z</time>
      </trkpt>
      <trkpt lat="48.788419" lon="9.818010">
        <ele>345.6</ele>
        <time>2026-08-30T13:40:41Z</time>
      </trkpt>
      <trkpt lat="48.788438" lon="9.817934">
        <ele>345.6</ele>
        <time>2026-08-30T13:40:42Z</time>
      </trkpt>
      <trkpt lat="48.788452" lon="9.817859">
        <ele>345.4</ele>
        <time>2026-08-30T13:40:43Z</time>
      </trkpt>
      <trkpt lat="48.788467" lon="9.817780">
        <ele>345.4</ele>
        <time>2026-08-30T13:40:44Z</time>
      </trkpt>
      <trkpt lat="48.788485" lon="9.817703">
        <ele>345.4</ele>
        <time>2026-08-30T13:40:45Z</time>
      </trkpt>
      <trkpt lat="48.788503" lon="9.817631">
        <ele>345.4</ele>
        <time>2026-08-30T13:40:46Z</time>
      </trkpt>
      <trkpt lat="48.788520" lon="9.817558">
        <ele>345.2</ele>
        <time>2026-08-30T13:40:47Z</time>
      </trkpt>
      <trkpt lat="48.788537" lon="9.817486">
        <ele>345.2</ele>
        <time>2026-08-30T13:40:48Z</time>
      </trkpt>
      <trkpt lat="48.788551" lon="9.817410">
        <ele>345.2</ele>
        <time>2026-08-30T13:40:49Z</time>
      </trkpt>
      <trkpt lat="48.788562" lon="9.817334">
        <ele>345.2</ele>
        <time>2026-08-30T13:40:50Z</time>
      </trkpt>
      <trkpt lat="48.788575" lon="9.817258">
        <ele>345</ele>
        <time>2026-08-30T13:40:51Z</time>
      </trkpt>
      <trkpt lat="48.788591" lon="9.817185">
        <ele>345</ele>
        <time>2026-08-30T13:40:52Z</time>
      </trkpt>
      <trkpt lat="48.788606" lon="9.817110">
        <ele>345</ele>
        <time>2026-08-30T13:40:53Z</time>
      </trkpt>
      <trkpt lat="48.788621" lon="9.817042">
        <ele>344.8</ele>
        <time>2026-08-30T13:40:54Z</time>
      </trkpt>
      <trkpt lat="48.788633" lon="9.816973">
        <ele>344.8</ele>
        <time>2026-08-30T13:40:55Z</time>
      </trkpt>
      <trkpt lat="48.788643" lon="9.816904">
        <ele>344.8</ele>
        <time>2026-08-30T13:40:56Z</time>
      </trkpt>
      <trkpt lat="48.788652" lon="9.816831">
        <ele>344.8</ele>
        <time>2026-08-30T13:40:57Z</time>
      </trkpt>
      <trkpt lat="48.788664" lon="9.816758">
        <ele>344.6</ele>
        <time>2026-08-30T13:40:58Z</time>
      </trkpt>
      <trkpt lat="48.788683" lon="9.816689">
        <ele>344.6</ele>
        <time>2026-08-30T13:40:59Z</time>
      </trkpt>
      <trkpt lat="48.788699" lon="9.816617">
        <ele>344.4</ele>
        <time>2026-08-30T13:41:00Z</time>
      </trkpt>
      <trkpt lat="48.788712" lon="9.816542">
        <ele>344.4</ele>
        <time>2026-08-30T13:41:01Z</time>
      </trkpt>
      <trkpt lat="48.788725" lon="9.816467">
        <ele>344.4</ele>
        <time>2026-08-30T13:41:02Z</time>
      </trkpt>
      <trkpt lat="48.788740" lon="9.816396">
        <ele>344.2</ele>
        <time>2026-08-30T13:41:03Z</time>
      </trkpt>
      <trkpt lat="48.788757" lon="9.816325">
        <ele>344.2</ele>
        <time>2026-08-30T13:41:04Z</time>
      </trkpt>
      <trkpt lat="48.788771" lon="9.816250">
        <ele>344.2</ele>
        <time>2026-08-30T13:41:05Z</time>
      </trkpt>
      <trkpt lat="48.788781" lon="9.816174">
        <ele>344</ele>
        <time>2026-08-30T13:41:06Z</time>
      </trkpt>
      <trkpt lat="48.788791" lon="9.816097">
        <ele>344</ele>
        <time>2026-08-30T13:41:07Z</time>
      </trkpt>
      <trkpt lat="48.788803" lon="9.816023">
        <ele>344</ele>
        <time>2026-08-30T13:41:08Z</time>
      </trkpt>
      <trkpt lat="48.788819" lon="9.815949">
        <ele>343.8</ele>
        <time>2026-08-30T13:41:09Z</time>
      </trkpt>
      <trkpt lat="48.788836" lon="9.815874">
        <ele>343.8</ele>
        <time>2026-08-30T13:41:10Z</time>
      </trkpt>
      <trkpt lat="48.788852" lon="9.815797">
        <ele>343.6</ele>
        <time>2026-08-30T13:41:11Z</time>
      </trkpt>
      <trkpt lat="48.788867" lon="9.815720">
        <ele>343.6</ele>
        <time>2026-08-30T13:41:12Z</time>
      </trkpt>
      <trkpt lat="48.788883" lon="9.815640">
        <ele>343.6</ele>
        <time>2026-08-30T13:41:13Z</time>
      </trkpt>
      <trkpt lat="48.788900" lon="9.815563">
        <ele>343.4</ele>
        <time>2026-08-30T13:41:14Z</time>
      </trkpt>
      <trkpt lat="48.788916" lon="9.815484">
        <ele>343.4</ele>
        <time>2026-08-30T13:41:15Z</time>
      </trkpt>
      <trkpt lat="48.788932" lon="9.815408">
        <ele>343.4</ele>
        <time>2026-08-30T13:41:16Z</time>
      </trkpt>
      <trkpt lat="48.788947" lon="9.815332">
        <ele>343.2</ele>
        <time>2026-08-30T13:41:17Z</time>
      </trkpt>
      <trkpt lat="48.788962" lon="9.815250">
        <ele>343.2</ele>
        <time>2026-08-30T13:41:18Z</time>
      </trkpt>
      <trkpt lat="48.788979" lon="9.815175">
        <ele>343.2</ele>
        <time>2026-08-30T13:41:19Z</time>
      </trkpt>
      <trkpt lat="48.788998" lon="9.815104">
        <ele>343.2</ele>
        <time>2026-08-30T13:41:20Z</time>
      </trkpt>
      <trkpt lat="48.789018" lon="9.815034">
        <ele>343.2</ele>
        <time>2026-08-30T13:41:21Z</time>
      </trkpt>
      <trkpt lat="48.789035" lon="9.814964">
        <ele>343.2</ele>
        <time>2026-08-30T13:41:22Z</time>
      </trkpt>
      <trkpt lat="48.789052" lon="9.814893">
        <ele>343.2</ele>
        <time>2026-08-30T13:41:23Z</time>
      </trkpt>
      <trkpt lat="48.789070" lon="9.814823">
        <ele>343.2</ele>
        <time>2026-08-30T13:41:24Z</time>
      </trkpt>
      <trkpt lat="48.789086" lon="9.814754">
        <ele>343.2</ele>
        <time>2026-08-30T13:41:25Z</time>
      </trkpt>
      <trkpt lat="48.789107" lon="9.814685">
        <ele>343.2</ele>
        <time>2026-08-30T13:41:26Z</time>
      </trkpt>
      <trkpt lat="48.789128" lon="9.814620">
        <ele>343.2</ele>
        <time>2026-08-30T13:41:27Z</time>
      </trkpt>
      <trkpt lat="48.789145" lon="9.814548">
        <ele>343</ele>
        <time>2026-08-30T13:41:28Z</time>
      </trkpt>
      <trkpt lat="48.789160" lon="9.814479">
        <ele>343.2</ele>
        <time>2026-08-30T13:41:29Z</time>
      </trkpt>
      <trkpt lat="48.789175" lon="9.814408">
        <ele>343</ele>
        <time>2026-08-30T13:41:30Z</time>
      </trkpt>
      <trkpt lat="48.789194" lon="9.814339">
        <ele>343</ele>
        <time>2026-08-30T13:41:31Z</time>
      </trkpt>
      <trkpt lat="48.789223" lon="9.814284">
        <ele>343</ele>
        <time>2026-08-30T13:41:32Z</time>
      </trkpt>
      <trkpt lat="48.789258" lon="9.814244">
        <ele>343</ele>
        <time>2026-08-30T13:41:33Z</time>
      </trkpt>
      <trkpt lat="48.789301" lon="9.814220">
        <ele>343</ele>
        <time>2026-08-30T13:41:34Z</time>
      </trkpt>
      <trkpt lat="48.789347" lon="9.814215">
        <ele>342.8</ele>
        <time>2026-08-30T13:41:35Z</time>
      </trkpt>
      <trkpt lat="48.789393" lon="9.814223">
        <ele>342.8</ele>
        <time>2026-08-30T13:41:36Z</time>
      </trkpt>
      <trkpt lat="48.789444" lon="9.814236">
        <ele>342.8</ele>
        <time>2026-08-30T13:41:37Z</time>
      </trkpt>
      <trkpt lat="48.789499" lon="9.814249">
        <ele>342.6</ele>
        <time>2026-08-30T13:41:38Z</time>
      </trkpt>
      <trkpt lat="48.789552" lon="9.814265">
        <ele>342.6</ele>
        <time>2026-08-30T13:41:39Z</time>
      </trkpt>
      <trkpt lat="48.789605" lon="9.814281">
        <ele>342.6</ele>
        <time>2026-08-30T13:41:40Z</time>
      </trkpt>
      <trkpt lat="48.789660" lon="9.814297">
        <ele>342.8</ele>
        <time>2026-08-30T13:41:41Z</time>
      </trkpt>
      <trkpt lat="48.789712" lon="9.814311">
        <ele>342.8</ele>
        <time>2026-08-30T13:41:42Z</time>
      </trkpt>
      <trkpt lat="48.789763" lon="9.814327">
        <ele>342.8</ele>
        <time>2026-08-30T13:41:43Z</time>
      </trkpt>
      <trkpt lat="48.789819" lon="9.814347">
        <ele>342.8</ele>
        <time>2026-08-30T13:41:44Z</time>
      </trkpt>
      <trkpt lat="48.789875" lon="9.814358">
        <ele>342.8</ele>
        <time>2026-08-30T13:41:45Z</time>
      </trkpt>
      <trkpt lat="48.789935" lon="9.814364">
        <ele>342.8</ele>
        <time>2026-08-30T13:41:46Z</time>
      </trkpt>
      <trkpt lat="48.789992" lon="9.814378">
        <ele>342.8</ele>
        <time>2026-08-30T13:41:47Z</time>
      </trkpt>
      <trkpt lat="48.790046" lon="9.814406">
        <ele>342.8</ele>
        <time>2026-08-30T13:41:48Z</time>
      </trkpt>
      <trkpt lat="48.790099" lon="9.814439">
        <ele>342.6</ele>
        <time>2026-08-30T13:41:49Z</time>
      </trkpt>
      <trkpt lat="48.790152" lon="9.814471">
        <ele>342.6</ele>
        <time>2026-08-30T13:41:50Z</time>
      </trkpt>
      <trkpt lat="48.790209" lon="9.814503">
        <ele>342.6</ele>
        <time>2026-08-30T13:41:51Z</time>
      </trkpt>
      <trkpt lat="48.790264" lon="9.814538">
        <ele>342.4</ele>
        <time>2026-08-30T13:41:52Z</time>
      </trkpt>
      <trkpt lat="48.790319" lon="9.814568">
        <ele>342.4</ele>
        <time>2026-08-30T13:41:53Z</time>
      </trkpt>
      <trkpt lat="48.790372" lon="9.814609">
        <ele>342.4</ele>
        <time>2026-08-30T13:41:54Z</time>
      </trkpt>
      <trkpt lat="48.790424" lon="9.814658">
        <ele>342.2</ele>
        <time>2026-08-30T13:41:55Z</time>
      </trkpt>
      <trkpt lat="48.790475" lon="9.814701">
        <ele>342.2</ele>
        <time>2026-08-30T13:41:56Z</time>
      </trkpt>
      <trkpt lat="48.790533" lon="9.814744">
        <ele>342.2</ele>
        <time>2026-08-30T13:41:57Z</time>
      </trkpt>
      <trkpt lat="48.790593" lon="9.814784">
        <ele>342.2</ele>
        <time>2026-08-30T13:41:58Z</time>
      </trkpt>
      <trkpt lat="48.790651" lon="9.814823">
        <ele>342.2</ele>
        <time>2026-08-30T13:41:59Z</time>
      </trkpt>
      <trkpt lat="48.790703" lon="9.814863">
        <ele>342</ele>
        <time>2026-08-30T13:42:00Z</time>
      </trkpt>
      <trkpt lat="48.790751" lon="9.814908">
        <ele>342.2</ele>
        <time>2026-08-30T13:42:01Z</time>
      </trkpt>
      <trkpt lat="48.790796" lon="9.814945">
        <ele>342.2</ele>
        <time>2026-08-30T13:42:02Z</time>
      </trkpt>
      <trkpt lat="48.790839" lon="9.814965">
        <ele>342.2</ele>
        <time>2026-08-30T13:42:03Z</time>
      </trkpt>
      <trkpt lat="48.790889" lon="9.814959">
        <ele>342.2</ele>
        <time>2026-08-30T13:42:04Z</time>
      </trkpt>
      <trkpt lat="48.790935" lon="9.814938">
        <ele>342</ele>
        <time>2026-08-30T13:42:05Z</time>
      </trkpt>
      <trkpt lat="48.790975" lon="9.814898">
        <ele>342</ele>
        <time>2026-08-30T13:42:06Z</time>
      </trkpt>
      <trkpt lat="48.791010" lon="9.814849">
        <ele>342</ele>
        <time>2026-08-30T13:42:07Z</time>
      </trkpt>
      <trkpt lat="48.791044" lon="9.814797">
        <ele>341.8</ele>
        <time>2026-08-30T13:42:08Z</time>
      </trkpt>
      <trkpt lat="48.791076" lon="9.814741">
        <ele>341.8</ele>
        <time>2026-08-30T13:42:09Z</time>
      </trkpt>
      <trkpt lat="48.791108" lon="9.814687">
        <ele>341.8</ele>
        <time>2026-08-30T13:42:10Z</time>
      </trkpt>
      <trkpt lat="48.791142" lon="9.814628">
        <ele>341.6</ele>
        <time>2026-08-30T13:42:11Z</time>
      </trkpt>
      <trkpt lat="48.791174" lon="9.814568">
        <ele>341.6</ele>
        <time>2026-08-30T13:42:12Z</time>
      </trkpt>
      <trkpt lat="48.791209" lon="9.814510">
        <ele>341.6</ele>
        <time>2026-08-30T13:42:13Z</time>
      </trkpt>
      <trkpt lat="48.791245" lon="9.814453">
        <ele>341.6</ele>
        <time>2026-08-30T13:42:14Z</time>
      </trkpt>
      <trkpt lat="48.791281" lon="9.814396">
        <ele>341.6</ele>
        <time>2026-08-30T13:42:15Z</time>
      </trkpt>
      <trkpt lat="48.791314" lon="9.814330">
        <ele>341.6</ele>
        <time>2026-08-30T13:42:16Z</time>
      </trkpt>
      <trkpt lat="48.791347" lon="9.814264">
        <ele>341.4</ele>
        <time>2026-08-30T13:42:17Z</time>
      </trkpt>
      <trkpt lat="48.791382" lon="9.814197">
        <ele>341.4</ele>
        <time>2026-08-30T13:42:18Z</time>
      </trkpt>
      <trkpt lat="48.791418" lon="9.814131">
        <ele>341.4</ele>
        <time>2026-08-30T13:42:19Z</time>
      </trkpt>
      <trkpt lat="48.791454" lon="9.814062">
        <ele>341.4</ele>
        <time>2026-08-30T13:42:20Z</time>
      </trkpt>
      <trkpt lat="48.791487" lon="9.813993">
        <ele>341.4</ele>
        <time>2026-08-30T13:42:21Z</time>
      </trkpt>
      <trkpt lat="48.791519" lon="9.813923">
        <ele>341.6</ele>
        <time>2026-08-30T13:42:22Z</time>
      </trkpt>
      <trkpt lat="48.791554" lon="9.813854">
        <ele>341.6</ele>
        <time>2026-08-30T13:42:23Z</time>
      </trkpt>
      <trkpt lat="48.791589" lon="9.813781">
        <ele>341.6</ele>
        <time>2026-08-30T13:42:24Z</time>
      </trkpt>
      <trkpt lat="48.791618" lon="9.813706">
        <ele>341.6</ele>
        <time>2026-08-30T13:42:25Z</time>
      </trkpt>
      <trkpt lat="48.791644" lon="9.813630">
        <ele>341.6</ele>
        <time>2026-08-30T13:42:26Z</time>
      </trkpt>
      <trkpt lat="48.791672" lon="9.813555">
        <ele>341.6</ele>
        <time>2026-08-30T13:42:27Z</time>
      </trkpt>
      <trkpt lat="48.791705" lon="9.813480">
        <ele>341.4</ele>
        <time>2026-08-30T13:42:28Z</time>
      </trkpt>
      <trkpt lat="48.791735" lon="9.813407">
        <ele>341.4</ele>
        <time>2026-08-30T13:42:29Z</time>
      </trkpt>
      <trkpt lat="48.791763" lon="9.813332">
        <ele>341.4</ele>
        <time>2026-08-30T13:42:30Z</time>
      </trkpt>
      <trkpt lat="48.791793" lon="9.813257">
        <ele>341.4</ele>
        <time>2026-08-30T13:42:31Z</time>
      </trkpt>
      <trkpt lat="48.791821" lon="9.813177">
        <ele>341.4</ele>
        <time>2026-08-30T13:42:32Z</time>
      </trkpt>
      <trkpt lat="48.791852" lon="9.813098">
        <ele>341.2</ele>
        <time>2026-08-30T13:42:33Z</time>
      </trkpt>
      <trkpt lat="48.791885" lon="9.813021">
        <ele>341.2</ele>
        <time>2026-08-30T13:42:34Z</time>
      </trkpt>
      <trkpt lat="48.791920" lon="9.812949">
        <ele>341</ele>
        <time>2026-08-30T13:42:35Z</time>
      </trkpt>
      <trkpt lat="48.791952" lon="9.812880">
        <ele>340.8</ele>
        <time>2026-08-30T13:42:36Z</time>
      </trkpt>
      <trkpt lat="48.791980" lon="9.812809">
        <ele>340.8</ele>
        <time>2026-08-30T13:42:37Z</time>
      </trkpt>
      <trkpt lat="48.792009" lon="9.812738">
        <ele>340.6</ele>
        <time>2026-08-30T13:42:38Z</time>
      </trkpt>
      <trkpt lat="48.792031" lon="9.812667">
        <ele>340.4</ele>
        <time>2026-08-30T13:42:39Z</time>
      </trkpt>
      <trkpt lat="48.792055" lon="9.812592">
        <ele>340.4</ele>
        <time>2026-08-30T13:42:40Z</time>
      </trkpt>
      <trkpt lat="48.792075" lon="9.812523">
        <ele>340.4</ele>
        <time>2026-08-30T13:42:41Z</time>
      </trkpt>
      <trkpt lat="48.792094" lon="9.812454">
        <ele>340.2</ele>
        <time>2026-08-30T13:42:42Z</time>
      </trkpt>
      <trkpt lat="48.792121" lon="9.812387">
        <ele>340.2</ele>
        <time>2026-08-30T13:42:43Z</time>
      </trkpt>
      <trkpt lat="48.792148" lon="9.812321">
        <ele>340.2</ele>
        <time>2026-08-30T13:42:44Z</time>
      </trkpt>
      <trkpt lat="48.792175" lon="9.812253">
        <ele>340.2</ele>
        <time>2026-08-30T13:42:45Z</time>
      </trkpt>
      <trkpt lat="48.792202" lon="9.812183">
        <ele>340</ele>
        <time>2026-08-30T13:42:46Z</time>
      </trkpt>
      <trkpt lat="48.792232" lon="9.812115">
        <ele>340</ele>
        <time>2026-08-30T13:42:47Z</time>
      </trkpt>
      <trkpt lat="48.792259" lon="9.812042">
        <ele>340</ele>
        <time>2026-08-30T13:42:48Z</time>
      </trkpt>
      <trkpt lat="48.792285" lon="9.811965">
        <ele>339.8</ele>
        <time>2026-08-30T13:42:49Z</time>
      </trkpt>
      <trkpt lat="48.792310" lon="9.811888">
        <ele>339.8</ele>
        <time>2026-08-30T13:42:50Z</time>
      </trkpt>
      <trkpt lat="48.792335" lon="9.811813">
        <ele>339.8</ele>
        <time>2026-08-30T13:42:51Z</time>
      </trkpt>
      <trkpt lat="48.792361" lon="9.811743">
        <ele>339.8</ele>
        <time>2026-08-30T13:42:52Z</time>
      </trkpt>
      <trkpt lat="48.792391" lon="9.811671">
        <ele>339.6</ele>
        <time>2026-08-30T13:42:53Z</time>
      </trkpt>
      <trkpt lat="48.792420" lon="9.811605">
        <ele>339.4</ele>
        <time>2026-08-30T13:42:54Z</time>
      </trkpt>
      <trkpt lat="48.792450" lon="9.811537">
        <ele>339.4</ele>
        <time>2026-08-30T13:42:55Z</time>
      </trkpt>
      <trkpt lat="48.792479" lon="9.811467">
        <ele>339.2</ele>
        <time>2026-08-30T13:42:56Z</time>
      </trkpt>
      <trkpt lat="48.792510" lon="9.811400">
        <ele>339</ele>
        <time>2026-08-30T13:42:57Z</time>
      </trkpt>
      <trkpt lat="48.792541" lon="9.811332">
        <ele>339</ele>
        <time>2026-08-30T13:42:58Z</time>
      </trkpt>
      <trkpt lat="48.792571" lon="9.811264">
        <ele>339</ele>
        <time>2026-08-30T13:42:59Z</time>
      </trkpt>
      <trkpt lat="48.792603" lon="9.811196">
        <ele>339</ele>
        <time>2026-08-30T13:43:00Z</time>
      </trkpt>
      <trkpt lat="48.792632" lon="9.811124">
        <ele>338.8</ele>
        <time>2026-08-30T13:43:01Z</time>
      </trkpt>
      <trkpt lat="48.792660" lon="9.811050">
        <ele>338.8</ele>
        <time>2026-08-30T13:43:02Z</time>
      </trkpt>
      <trkpt lat="48.792692" lon="9.810976">
        <ele>338.8</ele>
        <time>2026-08-30T13:43:03Z</time>
      </trkpt>
      <trkpt lat="48.792727" lon="9.810901">
        <ele>338.6</ele>
        <time>2026-08-30T13:43:04Z</time>
      </trkpt>
      <trkpt lat="48.792757" lon="9.810825">
        <ele>338.6</ele>
        <time>2026-08-30T13:43:05Z</time>
      </trkpt>
      <trkpt lat="48.792782" lon="9.810746">
        <ele>338.4</ele>
        <time>2026-08-30T13:43:06Z</time>
      </trkpt>
      <trkpt lat="48.792808" lon="9.810661">
        <ele>338.4</ele>
        <time>2026-08-30T13:43:07Z</time>
      </trkpt>
      <trkpt lat="48.792833" lon="9.810581">
        <ele>338.2</ele>
        <time>2026-08-30T13:43:08Z</time>
      </trkpt>
      <trkpt lat="48.792854" lon="9.810502">
        <ele>338.2</ele>
        <time>2026-08-30T13:43:09Z</time>
      </trkpt>
      <trkpt lat="48.792874" lon="9.810421">
        <ele>338</ele>
        <time>2026-08-30T13:43:10Z</time>
      </trkpt>
      <trkpt lat="48.792893" lon="9.810338">
        <ele>338</ele>
        <time>2026-08-30T13:43:11Z</time>
      </trkpt>
      <trkpt lat="48.792911" lon="9.810250">
        <ele>337.8</ele>
        <time>2026-08-30T13:43:12Z</time>
      </trkpt>
      <trkpt lat="48.792934" lon="9.810166">
        <ele>337.8</ele>
        <time>2026-08-30T13:43:13Z</time>
      </trkpt>
      <trkpt lat="48.792958" lon="9.810082">
        <ele>337.8</ele>
        <time>2026-08-30T13:43:14Z</time>
      </trkpt>
      <trkpt lat="48.792979" lon="9.810002">
        <ele>337.8</ele>
        <time>2026-08-30T13:43:15Z</time>
      </trkpt>
      <trkpt lat="48.792996" lon="9.809922">
        <ele>337.6</ele>
        <time>2026-08-30T13:43:16Z</time>
      </trkpt>
      <trkpt lat="48.793017" lon="9.809839">
        <ele>337.6</ele>
        <time>2026-08-30T13:43:17Z</time>
      </trkpt>
      <trkpt lat="48.793031" lon="9.809756">
        <ele>337.6</ele>
        <time>2026-08-30T13:43:18Z</time>
      </trkpt>
      <trkpt lat="48.793045" lon="9.809674">
        <ele>337.6</ele>
        <time>2026-08-30T13:43:19Z</time>
      </trkpt>
      <trkpt lat="48.793064" lon="9.809594">
        <ele>337.6</ele>
        <time>2026-08-30T13:43:20Z</time>
      </trkpt>
      <trkpt lat="48.793081" lon="9.809515">
        <ele>337.6</ele>
        <time>2026-08-30T13:43:21Z</time>
      </trkpt>
      <trkpt lat="48.793099" lon="9.809435">
        <ele>337.6</ele>
        <time>2026-08-30T13:43:22Z</time>
      </trkpt>
      <trkpt lat="48.793120" lon="9.809359">
        <ele>337.6</ele>
        <time>2026-08-30T13:43:23Z</time>
      </trkpt>
      <trkpt lat="48.793138" lon="9.809279">
        <ele>337.6</ele>
        <time>2026-08-30T13:43:24Z</time>
      </trkpt>
      <trkpt lat="48.793156" lon="9.809206">
        <ele>337.8</ele>
        <time>2026-08-30T13:43:25Z</time>
      </trkpt>
      <trkpt lat="48.793178" lon="9.809128">
        <ele>337.8</ele>
        <time>2026-08-30T13:43:26Z</time>
      </trkpt>
      <trkpt lat="48.793200" lon="9.809058">
        <ele>337.8</ele>
        <time>2026-08-30T13:43:27Z</time>
      </trkpt>
      <trkpt lat="48.793224" lon="9.808987">
        <ele>338</ele>
        <time>2026-08-30T13:43:28Z</time>
      </trkpt>
      <trkpt lat="48.793248" lon="9.808913">
        <ele>338</ele>
        <time>2026-08-30T13:43:29Z</time>
      </trkpt>
      <trkpt lat="48.793267" lon="9.808841">
        <ele>338</ele>
        <time>2026-08-30T13:43:30Z</time>
      </trkpt>
      <trkpt lat="48.793280" lon="9.808765">
        <ele>338</ele>
        <time>2026-08-30T13:43:31Z</time>
      </trkpt>
      <trkpt lat="48.793291" lon="9.808686">
        <ele>338</ele>
        <time>2026-08-30T13:43:32Z</time>
      </trkpt>
      <trkpt lat="48.793305" lon="9.808603">
        <ele>338</ele>
        <time>2026-08-30T13:43:33Z</time>
      </trkpt>
      <trkpt lat="48.793323" lon="9.808523">
        <ele>338</ele>
        <time>2026-08-30T13:43:34Z</time>
      </trkpt>
      <trkpt lat="48.793340" lon="9.808449">
        <ele>338</ele>
        <time>2026-08-30T13:43:35Z</time>
      </trkpt>
      <trkpt lat="48.793360" lon="9.808372">
        <ele>338</ele>
        <time>2026-08-30T13:43:36Z</time>
      </trkpt>
      <trkpt lat="48.793375" lon="9.808296">
        <ele>338</ele>
        <time>2026-08-30T13:43:37Z</time>
      </trkpt>
      <trkpt lat="48.793390" lon="9.808218">
        <ele>338</ele>
        <time>2026-08-30T13:43:38Z</time>
      </trkpt>
      <trkpt lat="48.793413" lon="9.808142">
        <ele>338</ele>
        <time>2026-08-30T13:43:39Z</time>
      </trkpt>
      <trkpt lat="48.793434" lon="9.808065">
        <ele>338</ele>
        <time>2026-08-30T13:43:40Z</time>
      </trkpt>
      <trkpt lat="48.793453" lon="9.807987">
        <ele>338</ele>
        <time>2026-08-30T13:43:41Z</time>
      </trkpt>
      <trkpt lat="48.793472" lon="9.807907">
        <ele>338</ele>
        <time>2026-08-30T13:43:42Z</time>
      </trkpt>
      <trkpt lat="48.793490" lon="9.807824">
        <ele>338</ele>
        <time>2026-08-30T13:43:43Z</time>
      </trkpt>
      <trkpt lat="48.793505" lon="9.807747">
        <ele>338</ele>
        <time>2026-08-30T13:43:44Z</time>
      </trkpt>
      <trkpt lat="48.793526" lon="9.807673">
        <ele>337.8</ele>
        <time>2026-08-30T13:43:45Z</time>
      </trkpt>
      <trkpt lat="48.793545" lon="9.807598">
        <ele>337.8</ele>
        <time>2026-08-30T13:43:46Z</time>
      </trkpt>
      <trkpt lat="48.793567" lon="9.807526">
        <ele>337.8</ele>
        <time>2026-08-30T13:43:47Z</time>
      </trkpt>
      <trkpt lat="48.793582" lon="9.807454">
        <ele>337.8</ele>
        <time>2026-08-30T13:43:48Z</time>
      </trkpt>
      <trkpt lat="48.793596" lon="9.807379">
        <ele>337.8</ele>
        <time>2026-08-30T13:43:49Z</time>
      </trkpt>
      <trkpt lat="48.793610" lon="9.807309">
        <ele>337.8</ele>
        <time>2026-08-30T13:43:50Z</time>
      </trkpt>
      <trkpt lat="48.793629" lon="9.807246">
        <ele>337.8</ele>
        <time>2026-08-30T13:43:51Z</time>
      </trkpt>
      <trkpt lat="48.793645" lon="9.807189">
        <ele>337.8</ele>
        <time>2026-08-30T13:43:52Z</time>
      </trkpt>
      <trkpt lat="48.793670" lon="9.807122">
        <ele>337.6</ele>
        <time>2026-08-30T13:43:53Z</time>
      </trkpt>
      <trkpt lat="48.793695" lon="9.807051">
        <ele>337.6</ele>
        <time>2026-08-30T13:43:54Z</time>
      </trkpt>
      <trkpt lat="48.793718" lon="9.806976">
        <ele>337.4</ele>
        <time>2026-08-30T13:43:55Z</time>
      </trkpt>
      <trkpt lat="48.793743" lon="9.806908">
        <ele>337.4</ele>
        <time>2026-08-30T13:43:56Z</time>
      </trkpt>
      <trkpt lat="48.793767" lon="9.806840">
        <ele>337.2</ele>
        <time>2026-08-30T13:43:57Z</time>
      </trkpt>
      <trkpt lat="48.793792" lon="9.806775">
        <ele>337.2</ele>
        <time>2026-08-30T13:43:58Z</time>
      </trkpt>
      <trkpt lat="48.793820" lon="9.806708">
        <ele>337</ele>
        <time>2026-08-30T13:43:59Z</time>
      </trkpt>
      <trkpt lat="48.793850" lon="9.806646">
        <ele>337</ele>
        <time>2026-08-30T13:44:00Z</time>
      </trkpt>
      <trkpt lat="48.793880" lon="9.806586">
        <ele>336.8</ele>
        <time>2026-08-30T13:44:01Z</time>
      </trkpt>
      <trkpt lat="48.793907" lon="9.806521">
        <ele>336.6</ele>
        <time>2026-08-30T13:44:02Z</time>
      </trkpt>
      <trkpt lat="48.793937" lon="9.806451">
        <ele>336.6</ele>
        <time>2026-08-30T13:44:03Z</time>
      </trkpt>
      <trkpt lat="48.793966" lon="9.806383">
        <ele>336.4</ele>
        <time>2026-08-30T13:44:04Z</time>
      </trkpt>
      <trkpt lat="48.793994" lon="9.806323">
        <ele>336.4</ele>
        <time>2026-08-30T13:44:05Z</time>
      </trkpt>
      <trkpt lat="48.794022" lon="9.806261">
        <ele>336.4</ele>
        <time>2026-08-30T13:44:06Z</time>
      </trkpt>
      <trkpt lat="48.794052" lon="9.806194">
        <ele>336.4</ele>
        <time>2026-08-30T13:44:07Z</time>
      </trkpt>
      <trkpt lat="48.794086" lon="9.806131">
        <ele>336.4</ele>
        <time>2026-08-30T13:44:08Z</time>
      </trkpt>
      <trkpt lat="48.794123" lon="9.806072">
        <ele>336.2</ele>
        <time>2026-08-30T13:44:09Z</time>
      </trkpt>
      <trkpt lat="48.794152" lon="9.806008">
        <ele>336.2</ele>
        <time>2026-08-30T13:44:10Z</time>
      </trkpt>
      <trkpt lat="48.794178" lon="9.805944">
        <ele>336.2</ele>
        <time>2026-08-30T13:44:11Z</time>
      </trkpt>
      <trkpt lat="48.794209" lon="9.805882">
        <ele>336.2</ele>
        <time>2026-08-30T13:44:12Z</time>
      </trkpt>
      <trkpt lat="48.794238" lon="9.805820">
        <ele>336.2</ele>
        <time>2026-08-30T13:44:13Z</time>
      </trkpt>
      <trkpt lat="48.794267" lon="9.805760">
        <ele>336.2</ele>
        <time>2026-08-30T13:44:14Z</time>
      </trkpt>
      <trkpt lat="48.794295" lon="9.805694">
        <ele>336</ele>
        <time>2026-08-30T13:44:15Z</time>
      </trkpt>
      <trkpt lat="48.794325" lon="9.805622">
        <ele>336</ele>
        <time>2026-08-30T13:44:16Z</time>
      </trkpt>
      <trkpt lat="48.794354" lon="9.805553">
        <ele>335.8</ele>
        <time>2026-08-30T13:44:17Z</time>
      </trkpt>
      <trkpt lat="48.794386" lon="9.805491">
        <ele>335.8</ele>
        <time>2026-08-30T13:44:18Z</time>
      </trkpt>
      <trkpt lat="48.794416" lon="9.805425">
        <ele>335.6</ele>
        <time>2026-08-30T13:44:19Z</time>
      </trkpt>
      <trkpt lat="48.794442" lon="9.805351">
        <ele>335.6</ele>
        <time>2026-08-30T13:44:20Z</time>
      </trkpt>
      <trkpt lat="48.794471" lon="9.805276">
        <ele>335.4</ele>
        <time>2026-08-30T13:44:21Z</time>
      </trkpt>
      <trkpt lat="48.794502" lon="9.805206">
        <ele>335.4</ele>
        <time>2026-08-30T13:44:22Z</time>
      </trkpt>
      <trkpt lat="48.794535" lon="9.805140">
        <ele>335.2</ele>
        <time>2026-08-30T13:44:23Z</time>
      </trkpt>
      <trkpt lat="48.794566" lon="9.805069">
        <ele>335.2</ele>
        <time>2026-08-30T13:44:24Z</time>
      </trkpt>
      <trkpt lat="48.794591" lon="9.804991">
        <ele>335</ele>
        <time>2026-08-30T13:44:25Z</time>
      </trkpt>
      <trkpt lat="48.794622" lon="9.804914">
        <ele>335</ele>
        <time>2026-08-30T13:44:26Z</time>
      </trkpt>
      <trkpt lat="48.794655" lon="9.804839">
        <ele>334.8</ele>
        <time>2026-08-30T13:44:27Z</time>
      </trkpt>
      <trkpt lat="48.794685" lon="9.804764">
        <ele>334.8</ele>
        <time>2026-08-30T13:44:28Z</time>
      </trkpt>
      <trkpt lat="48.794714" lon="9.804692">
        <ele>334.6</ele>
        <time>2026-08-30T13:44:29Z</time>
      </trkpt>
      <trkpt lat="48.794744" lon="9.804613">
        <ele>334.4</ele>
        <time>2026-08-30T13:44:30Z</time>
      </trkpt>
      <trkpt lat="48.794777" lon="9.804538">
        <ele>334.4</ele>
        <time>2026-08-30T13:44:31Z</time>
      </trkpt>
      <trkpt lat="48.794810" lon="9.804463">
        <ele>334.2</ele>
        <time>2026-08-30T13:44:32Z</time>
      </trkpt>
      <trkpt lat="48.794841" lon="9.804390">
        <ele>334.2</ele>
        <time>2026-08-30T13:44:33Z</time>
      </trkpt>
      <trkpt lat="48.794872" lon="9.804321">
        <ele>334</ele>
        <time>2026-08-30T13:44:34Z</time>
      </trkpt>
      <trkpt lat="48.794902" lon="9.804255">
        <ele>334</ele>
        <time>2026-08-30T13:44:35Z</time>
      </trkpt>
      <trkpt lat="48.794930" lon="9.804184">
        <ele>334</ele>
        <time>2026-08-30T13:44:36Z</time>
      </trkpt>
      <trkpt lat="48.794957" lon="9.804112">
        <ele>334</ele>
        <time>2026-08-30T13:44:37Z</time>
      </trkpt>
      <trkpt lat="48.794985" lon="9.804040">
        <ele>334</ele>
        <time>2026-08-30T13:44:38Z</time>
      </trkpt>
      <trkpt lat="48.795019" lon="9.803977">
        <ele>334</ele>
        <time>2026-08-30T13:44:39Z</time>
      </trkpt>
      <trkpt lat="48.795050" lon="9.803913">
        <ele>334</ele>
        <time>2026-08-30T13:44:40Z</time>
      </trkpt>
      <trkpt lat="48.795083" lon="9.803834">
        <ele>334</ele>
        <time>2026-08-30T13:44:41Z</time>
      </trkpt>
      <trkpt lat="48.795117" lon="9.803752">
        <ele>333.8</ele>
        <time>2026-08-30T13:44:42Z</time>
      </trkpt>
      <trkpt lat="48.795150" lon="9.803667">
        <ele>333.8</ele>
        <time>2026-08-30T13:44:43Z</time>
      </trkpt>
      <trkpt lat="48.795179" lon="9.803585">
        <ele>333.8</ele>
        <time>2026-08-30T13:44:44Z</time>
      </trkpt>
      <trkpt lat="48.795213" lon="9.803498">
        <ele>333.6</ele>
        <time>2026-08-30T13:44:45Z</time>
      </trkpt>
      <trkpt lat="48.795245" lon="9.803410">
        <ele>333.6</ele>
        <time>2026-08-30T13:44:46Z</time>
      </trkpt>
      <trkpt lat="48.795278" lon="9.803327">
        <ele>333.4</ele>
        <time>2026-08-30T13:44:47Z</time>
      </trkpt>
      <trkpt lat="48.795307" lon="9.803246">
        <ele>333.4</ele>
        <time>2026-08-30T13:44:48Z</time>
      </trkpt>
      <trkpt lat="48.795336" lon="9.803157">
        <ele>333.2</ele>
        <time>2026-08-30T13:44:49Z</time>
      </trkpt>
      <trkpt lat="48.795364" lon="9.803069">
        <ele>333.2</ele>
        <time>2026-08-30T13:44:50Z</time>
      </trkpt>
      <trkpt lat="48.795393" lon="9.802987">
        <ele>333</ele>
        <time>2026-08-30T13:44:51Z</time>
      </trkpt>
      <trkpt lat="48.795426" lon="9.802902">
        <ele>333</ele>
        <time>2026-08-30T13:44:52Z</time>
      </trkpt>
      <trkpt lat="48.795462" lon="9.802821">
        <ele>332.8</ele>
        <time>2026-08-30T13:44:53Z</time>
      </trkpt>
      <trkpt lat="48.795496" lon="9.802751">
        <ele>332.6</ele>
        <time>2026-08-30T13:44:54Z</time>
      </trkpt>
      <trkpt lat="48.795528" lon="9.802688">
        <ele>332.4</ele>
        <time>2026-08-30T13:44:55Z</time>
      </trkpt>
      <trkpt lat="48.795566" lon="9.802626">
        <ele>332.4</ele>
        <time>2026-08-30T13:44:56Z</time>
      </trkpt>
      <trkpt lat="48.795595" lon="9.802548">
        <ele>332.2</ele>
        <time>2026-08-30T13:44:57Z</time>
      </trkpt>
      <trkpt lat="48.795620" lon="9.802467">
        <ele>332</ele>
        <time>2026-08-30T13:44:58Z</time>
      </trkpt>
      <trkpt lat="48.795653" lon="9.802393">
        <ele>331.8</ele>
        <time>2026-08-30T13:44:59Z</time>
      </trkpt>
      <trkpt lat="48.795692" lon="9.802324">
        <ele>331.6</ele>
        <time>2026-08-30T13:45:00Z</time>
      </trkpt>
      <trkpt lat="48.795727" lon="9.802253">
        <ele>331.4</ele>
        <time>2026-08-30T13:45:01Z</time>
      </trkpt>
      <trkpt lat="48.795760" lon="9.802182">
        <ele>331.4</ele>
        <time>2026-08-30T13:45:02Z</time>
      </trkpt>
      <trkpt lat="48.795788" lon="9.802109">
        <ele>331.2</ele>
        <time>2026-08-30T13:45:03Z</time>
      </trkpt>
      <trkpt lat="48.795820" lon="9.802036">
        <ele>331.2</ele>
        <time>2026-08-30T13:45:04Z</time>
      </trkpt>
      <trkpt lat="48.795853" lon="9.801968">
        <ele>331.2</ele>
        <time>2026-08-30T13:45:05Z</time>
      </trkpt>
      <trkpt lat="48.795881" lon="9.801896">
        <ele>331.4</ele>
        <time>2026-08-30T13:45:06Z</time>
      </trkpt>
      <trkpt lat="48.795912" lon="9.801828">
        <ele>331.4</ele>
        <time>2026-08-30T13:45:07Z</time>
      </trkpt>
      <trkpt lat="48.795946" lon="9.801766">
        <ele>331.4</ele>
        <time>2026-08-30T13:45:08Z</time>
      </trkpt>
      <trkpt lat="48.795978" lon="9.801705">
        <ele>331.6</ele>
        <time>2026-08-30T13:45:09Z</time>
      </trkpt>
      <trkpt lat="48.796009" lon="9.801644">
        <ele>331.6</ele>
        <time>2026-08-30T13:45:10Z</time>
      </trkpt>
      <trkpt lat="48.796036" lon="9.801583">
        <ele>331.8</ele>
        <time>2026-08-30T13:45:11Z</time>
      </trkpt>
      <trkpt lat="48.796063" lon="9.801519">
        <ele>332</ele>
        <time>2026-08-30T13:45:12Z</time>
      </trkpt>
      <trkpt lat="48.796095" lon="9.801463">
        <ele>332</ele>
        <time>2026-08-30T13:45:13Z</time>
      </trkpt>
      <trkpt lat="48.796124" lon="9.801418">
        <ele>332.2</ele>
        <time>2026-08-30T13:45:14Z</time>
      </trkpt>
      <trkpt lat="48.796149" lon="9.801372">
        <ele>332.4</ele>
        <time>2026-08-30T13:45:15Z</time>
      </trkpt>
      <trkpt lat="48.796174" lon="9.801322">
        <ele>332.4</ele>
        <time>2026-08-30T13:45:16Z</time>
      </trkpt>
      <trkpt lat="48.796197" lon="9.801272">
        <ele>332.6</ele>
        <time>2026-08-30T13:45:17Z</time>
      </trkpt>
      <trkpt lat="48.796217" lon="9.801216">
        <ele>332.6</ele>
        <time>2026-08-30T13:45:18Z</time>
      </trkpt>
      <trkpt lat="48.796239" lon="9.801167">
        <ele>332.8</ele>
        <time>2026-08-30T13:45:19Z</time>
      </trkpt>
      <trkpt lat="48.796263" lon="9.801121">
        <ele>333</ele>
        <time>2026-08-30T13:45:20Z</time>
      </trkpt>
      <trkpt lat="48.796292" lon="9.801085">
        <ele>333.2</ele>
        <time>2026-08-30T13:45:21Z</time>
      </trkpt>
      <trkpt lat="48.796323" lon="9.801069">
        <ele>333.4</ele>
        <time>2026-08-30T13:45:22Z</time>
      </trkpt>
      <trkpt lat="48.796344" lon="9.801083">
        <ele>333.6</ele>
        <time>2026-08-30T13:45:23Z</time>
      </trkpt>
      <trkpt lat="48.796363" lon="9.801106">
        <ele>333.8</ele>
        <time>2026-08-30T13:45:24Z</time>
      </trkpt>
      <trkpt lat="48.796384" lon="9.801136">
        <ele>334</ele>
        <time>2026-08-30T13:45:25Z</time>
      </trkpt>
      <trkpt lat="48.796405" lon="9.801150">
        <ele>334.2</ele>
        <time>2026-08-30T13:45:26Z</time>
      </trkpt>
      <trkpt lat="48.796423" lon="9.801163">
        <ele>334.4</ele>
        <time>2026-08-30T13:45:27Z</time>
      </trkpt>
      <trkpt lat="48.796442" lon="9.801173">
        <ele>334.8</ele>
        <time>2026-08-30T13:45:28Z</time>
      </trkpt>
      <trkpt lat="48.796461" lon="9.801184">
        <ele>335</ele>
        <time>2026-08-30T13:45:29Z</time>
      </trkpt>
      <trkpt lat="48.796482" lon="9.801187">
        <ele>335.2</ele>
        <time>2026-08-30T13:45:30Z</time>
      </trkpt>
      <trkpt lat="48.796502" lon="9.801184">
        <ele>335.4</ele>
        <time>2026-08-30T13:45:31Z</time>
      </trkpt>
      <trkpt lat="48.796518" lon="9.801172">
        <ele>335.6</ele>
        <time>2026-08-30T13:45:32Z</time>
      </trkpt>
      <trkpt lat="48.796539" lon="9.801158">
        <ele>335.6</ele>
        <time>2026-08-30T13:45:33Z</time>
      </trkpt>
      <trkpt lat="48.796564" lon="9.801141">
        <ele>335.8</ele>
        <time>2026-08-30T13:45:34Z</time>
      </trkpt>
      <trkpt lat="48.796592" lon="9.801126">
        <ele>336</ele>
        <time>2026-08-30T13:45:35Z</time>
      </trkpt>
      <trkpt lat="48.796624" lon="9.801107">
        <ele>336</ele>
        <time>2026-08-30T13:45:36Z</time>
      </trkpt>
      <trkpt lat="48.796649" lon="9.801082">
        <ele>336.2</ele>
        <time>2026-08-30T13:45:37Z</time>
      </trkpt>
      <trkpt lat="48.796675" lon="9.801056">
        <ele>336.4</ele>
        <time>2026-08-30T13:45:38Z</time>
      </trkpt>
      <trkpt lat="48.796698" lon="9.801028">
        <ele>336.6</ele>
        <time>2026-08-30T13:45:39Z</time>
      </trkpt>
      <trkpt lat="48.796725" lon="9.800999">
        <ele>336.6</ele>
        <time>2026-08-30T13:45:40Z</time>
      </trkpt>
      <trkpt lat="48.796756" lon="9.800973">
        <ele>336.6</ele>
        <time>2026-08-30T13:45:41Z</time>
      </trkpt>
      <trkpt lat="48.796791" lon="9.800942">
        <ele>336.6</ele>
        <time>2026-08-30T13:45:42Z</time>
      </trkpt>
      <trkpt lat="48.796824" lon="9.800906">
        <ele>336.4</ele>
        <time>2026-08-30T13:45:43Z</time>
      </trkpt>
      <trkpt lat="48.796856" lon="9.800867">
        <ele>336.4</ele>
        <time>2026-08-30T13:45:44Z</time>
      </trkpt>
      <trkpt lat="48.796891" lon="9.800827">
        <ele>336.4</ele>
        <time>2026-08-30T13:45:45Z</time>
      </trkpt>
      <trkpt lat="48.796929" lon="9.800790">
        <ele>336.4</ele>
        <time>2026-08-30T13:45:46Z</time>
      </trkpt>
      <trkpt lat="48.796968" lon="9.800749">
        <ele>336.4</ele>
        <time>2026-08-30T13:45:47Z</time>
      </trkpt>
      <trkpt lat="48.797007" lon="9.800714">
        <ele>336.2</ele>
        <time>2026-08-30T13:45:48Z</time>
      </trkpt>
      <trkpt lat="48.797047" lon="9.800670">
        <ele>336.2</ele>
        <time>2026-08-30T13:45:49Z</time>
      </trkpt>
      <trkpt lat="48.797088" lon="9.800623">
        <ele>336</ele>
        <time>2026-08-30T13:45:50Z</time>
      </trkpt>
      <trkpt lat="48.797127" lon="9.800579">
        <ele>336</ele>
        <time>2026-08-30T13:45:51Z</time>
      </trkpt>
      <trkpt lat="48.797167" lon="9.800536">
        <ele>335.8</ele>
        <time>2026-08-30T13:45:52Z</time>
      </trkpt>
      <trkpt lat="48.797208" lon="9.800492">
        <ele>335.6</ele>
        <time>2026-08-30T13:45:53Z</time>
      </trkpt>
      <trkpt lat="48.797249" lon="9.800450">
        <ele>335.6</ele>
        <time>2026-08-30T13:45:54Z</time>
      </trkpt>
      <trkpt lat="48.797288" lon="9.800408">
        <ele>335.6</ele>
        <time>2026-08-30T13:45:55Z</time>
      </trkpt>
      <trkpt lat="48.797328" lon="9.800366">
        <ele>335.4</ele>
        <time>2026-08-30T13:45:56Z</time>
      </trkpt>
      <trkpt lat="48.797368" lon="9.800325">
        <ele>335.4</ele>
        <time>2026-08-30T13:45:57Z</time>
      </trkpt>
      <trkpt lat="48.797406" lon="9.800282">
        <ele>335.4</ele>
        <time>2026-08-30T13:45:58Z</time>
      </trkpt>
      <trkpt lat="48.797445" lon="9.800241">
        <ele>335.4</ele>
        <time>2026-08-30T13:45:59Z</time>
      </trkpt>
      <trkpt lat="48.797478" lon="9.800199">
        <ele>335.2</ele>
        <time>2026-08-30T13:46:00Z</time>
      </trkpt>
      <trkpt lat="48.797510" lon="9.800156">
        <ele>335.2</ele>
        <time>2026-08-30T13:46:01Z</time>
      </trkpt>
      <trkpt lat="48.797545" lon="9.800112">
        <ele>335</ele>
        <time>2026-08-30T13:46:02Z</time>
      </trkpt>
      <trkpt lat="48.797584" lon="9.800065">
        <ele>335</ele>
        <time>2026-08-30T13:46:03Z</time>
      </trkpt>
      <trkpt lat="48.797628" lon="9.800020">
        <ele>334.8</ele>
        <time>2026-08-30T13:46:04Z</time>
      </trkpt>
      <trkpt lat="48.797678" lon="9.799985">
        <ele>334.6</ele>
        <time>2026-08-30T13:46:05Z</time>
      </trkpt>
      <trkpt lat="48.797731" lon="9.799960">
        <ele>334.4</ele>
        <time>2026-08-30T13:46:06Z</time>
      </trkpt>
      <trkpt lat="48.797788" lon="9.799944">
        <ele>334.2</ele>
        <time>2026-08-30T13:46:07Z</time>
      </trkpt>
      <trkpt lat="48.797845" lon="9.799950">
        <ele>334.2</ele>
        <time>2026-08-30T13:46:08Z</time>
      </trkpt>
      <trkpt lat="48.797893" lon="9.799973">
        <ele>334</ele>
        <time>2026-08-30T13:46:09Z</time>
      </trkpt>
      <trkpt lat="48.797933" lon="9.800008">
        <ele>334.2</ele>
        <time>2026-08-30T13:46:10Z</time>
      </trkpt>
      <trkpt lat="48.797969" lon="9.800046">
        <ele>334.2</ele>
        <time>2026-08-30T13:46:11Z</time>
      </trkpt>
      <trkpt lat="48.797996" lon="9.800082">
        <ele>334.4</ele>
        <time>2026-08-30T13:46:12Z</time>
      </trkpt>
      <trkpt lat="48.798016" lon="9.800110">
        <ele>334.8</ele>
        <time>2026-08-30T13:46:13Z</time>
      </trkpt>
      <trkpt lat="48.798032" lon="9.800136">
        <ele>335</ele>
        <time>2026-08-30T13:46:14Z</time>
      </trkpt>
      <trkpt lat="48.798048" lon="9.800161">
        <ele>335.4</ele>
        <time>2026-08-30T13:46:15Z</time>
      </trkpt>
      <trkpt lat="48.798058" lon="9.800192">
        <ele>335.6</ele>
        <time>2026-08-30T13:46:16Z</time>
      </trkpt>
      <trkpt lat="48.798073" lon="9.800226">
        <ele>336</ele>
        <time>2026-08-30T13:46:17Z</time>
      </trkpt>
      <trkpt lat="48.798090" lon="9.800248">
        <ele>336.2</ele>
        <time>2026-08-30T13:46:18Z</time>
      </trkpt>
      <trkpt lat="48.798108" lon="9.800265">
        <ele>336.4</ele>
        <time>2026-08-30T13:46:19Z</time>
      </trkpt>
      <trkpt lat="48.798125" lon="9.800286">
        <ele>336.6</ele>
        <time>2026-08-30T13:46:20Z</time>
      </trkpt>
      <trkpt lat="48.798142" lon="9.800310">
        <ele>336.8</ele>
        <time>2026-08-30T13:46:21Z</time>
      </trkpt>
      <trkpt lat="48.798156" lon="9.800335">
        <ele>337</ele>
        <time>2026-08-30T13:46:22Z</time>
      </trkpt>
      <trkpt lat="48.798172" lon="9.800357">
        <ele>337.2</ele>
        <time>2026-08-30T13:46:23Z</time>
      </trkpt>
      <trkpt lat="48.798190" lon="9.800374">
        <ele>337.6</ele>
        <time>2026-08-30T13:46:24Z</time>
      </trkpt>
      <trkpt lat="48.798206" lon="9.800384">
        <ele>337.8</ele>
        <time>2026-08-30T13:46:25Z</time>
      </trkpt>
      <trkpt lat="48.798224" lon="9.800398">
        <ele>338</ele>
        <time>2026-08-30T13:46:26Z</time>
      </trkpt>
      <trkpt lat="48.798240" lon="9.800418">
        <ele>338.2</ele>
        <time>2026-08-30T13:46:27Z</time>
      </trkpt>
      <trkpt lat="48.798251" lon="9.800443">
        <ele>338.2</ele>
        <time>2026-08-30T13:46:28Z</time>
      </trkpt>
      <trkpt lat="48.798263" lon="9.800476">
        <ele>338.4</ele>
        <time>2026-08-30T13:46:29Z</time>
      </trkpt>
      <trkpt lat="48.798281" lon="9.800511">
        <ele>338.6</ele>
        <time>2026-08-30T13:46:30Z</time>
      </trkpt>
      <trkpt lat="48.798306" lon="9.800549">
        <ele>338.6</ele>
        <time>2026-08-30T13:46:31Z</time>
      </trkpt>
      <trkpt lat="48.798328" lon="9.800586">
        <ele>338.6</ele>
        <time>2026-08-30T13:46:32Z</time>
      </trkpt>
      <trkpt lat="48.798347" lon="9.800623">
        <ele>338.8</ele>
        <time>2026-08-30T13:46:33Z</time>
      </trkpt>
      <trkpt lat="48.798367" lon="9.800664">
        <ele>338.8</ele>
        <time>2026-08-30T13:46:34Z</time>
      </trkpt>
      <trkpt lat="48.798391" lon="9.800711">
        <ele>338.8</ele>
        <time>2026-08-30T13:46:35Z</time>
      </trkpt>
      <trkpt lat="48.798419" lon="9.800753">
        <ele>338.8</ele>
        <time>2026-08-30T13:46:36Z</time>
      </trkpt>
      <trkpt lat="48.798450" lon="9.800797">
        <ele>338.8</ele>
        <time>2026-08-30T13:46:37Z</time>
      </trkpt>
      <trkpt lat="48.798480" lon="9.800837">
        <ele>338.8</ele>
        <time>2026-08-30T13:46:38Z</time>
      </trkpt>
      <trkpt lat="48.798507" lon="9.800882">
        <ele>338.8</ele>
        <time>2026-08-30T13:46:39Z</time>
      </trkpt>
      <trkpt lat="48.798533" lon="9.800927">
        <ele>338.8</ele>
        <time>2026-08-30T13:46:40Z</time>
      </trkpt>
      <trkpt lat="48.798558" lon="9.800971">
        <ele>338.8</ele>
        <time>2026-08-30T13:46:41Z</time>
      </trkpt>
      <trkpt lat="48.798582" lon="9.801010">
        <ele>339</ele>
        <time>2026-08-30T13:46:42Z</time>
      </trkpt>
      <trkpt lat="48.798609" lon="9.801047">
        <ele>339</ele>
        <time>2026-08-30T13:46:43Z</time>
      </trkpt>
      <trkpt lat="48.798636" lon="9.801058">
        <ele>339</ele>
        <time>2026-08-30T13:46:44Z</time>
      </trkpt>
      <trkpt lat="48.798659" lon="9.801042">
        <ele>339</ele>
        <time>2026-08-30T13:46:45Z</time>
      </trkpt>
      <trkpt lat="48.798674" lon="9.801019">
        <ele>338.8</ele>
        <time>2026-08-30T13:46:46Z</time>
      </trkpt>
      <trkpt lat="48.798690" lon="9.800994">
        <ele>338.8</ele>
        <time>2026-08-30T13:46:47Z</time>
      </trkpt>
      <trkpt lat="48.798705" lon="9.800971">
        <ele>338.6</ele>
        <time>2026-08-30T13:46:48Z</time>
      </trkpt>
      <trkpt lat="48.798716" lon="9.800953">
        <ele>338.2</ele>
        <time>2026-08-30T13:46:49Z</time>
      </trkpt>
      <trkpt lat="48.798731" lon="9.800924">
        <ele>338</ele>
        <time>2026-08-30T13:46:50Z</time>
      </trkpt>
      <trkpt lat="48.798739" lon="9.800902">
        <ele>337.8</ele>
        <time>2026-08-30T13:46:51Z</time>
      </trkpt>
      <trkpt lat="48.798743" lon="9.800878">
        <ele>337.4</ele>
        <time>2026-08-30T13:46:52Z</time>
      </trkpt>
      <trkpt lat="48.798742" lon="9.800855">
        <ele>337.2</ele>
        <time>2026-08-30T13:46:53Z</time>
      </trkpt>
      <trkpt lat="48.798741" lon="9.800839">
        <ele>337</ele>
        <time>2026-08-30T13:46:54Z</time>
      </trkpt>
      <trkpt lat="48.798743" lon="9.800827">
        <ele>336.8</ele>
        <time>2026-08-30T13:46:55Z</time>
      </trkpt>
      <trkpt lat="48.798744" lon="9.800824">
        <ele>336.8</ele>
        <time>2026-08-30T13:46:56Z</time>
      </trkpt>
      <trkpt lat="48.798744" lon="9.800824">
        <ele>336.6</ele>
        <time>2026-08-30T13:46:57Z</time>
      </trkpt>
      <trkpt lat="48.798744" lon="9.800824">
        <ele>336.6</ele>
        <time>2026-08-30T13:46:58Z</time>
      </trkpt>
      <trkpt lat="48.798744" lon="9.800824">
        <ele>336.4</ele>
        <time>2026-08-30T13:46:59Z</time>
      </trkpt>
      <trkpt lat="48.798744" lon="9.800824">
        <ele>336.4</ele>
        <time>2026-08-30T13:47:00Z</time>
      </trkpt>
      <trkpt lat="48.798744" lon="9.800824">
        <ele>336.6</ele>
        <time>2026-08-30T13:47:01Z</time>
      </trkpt>
      <trkpt lat="48.798744" lon="9.800824">
        <ele>336.6</ele>
        <time>2026-08-30T13:47:02Z</time>
      </trkpt>
      <trkpt lat="48.798744" lon="9.800824">
        <ele>336.6</ele>
        <time>2026-08-30T13:47:03Z</time>
      </trkpt>
      <trkpt lat="48.798744" lon="9.800824">
        <ele>336.6</ele>
        <time>2026-08-30T13:47:04Z</time>
      </trkpt>
      <trkpt lat="48.798744" lon="9.800824">
        <ele>336.6</ele>
        <time>2026-08-30T13:47:05Z</time>
      </trkpt>
      <trkpt lat="48.798751" lon="9.800807">
        <ele>336.6</ele>
        <time>2026-08-30T13:47:06Z</time>
      </trkpt>
      <trkpt lat="48.798755" lon="9.800790">
        <ele>336.6</ele>
        <time>2026-08-30T13:47:07Z</time>
      </trkpt>
      <trkpt lat="48.798763" lon="9.800767">
        <ele>336.4</ele>
        <time>2026-08-30T13:47:08Z</time>
      </trkpt>
      <trkpt lat="48.798777" lon="9.800736">
        <ele>336.2</ele>
        <time>2026-08-30T13:47:09Z</time>
      </trkpt>
      <trkpt lat="48.798799" lon="9.800700">
        <ele>336</ele>
        <time>2026-08-30T13:47:10Z</time>
      </trkpt>
      <trkpt lat="48.798814" lon="9.800671">
        <ele>335.8</ele>
        <time>2026-08-30T13:47:11Z</time>
      </trkpt>
      <trkpt lat="48.798823" lon="9.800641">
        <ele>335.8</ele>
        <time>2026-08-30T13:47:12Z</time>
      </trkpt>
      <trkpt lat="48.798832" lon="9.800610">
        <ele>335.6</ele>
        <time>2026-08-30T13:47:13Z</time>
      </trkpt>
      <trkpt lat="48.798844" lon="9.800581">
        <ele>335.6</ele>
        <time>2026-08-30T13:47:14Z</time>
      </trkpt>
      <trkpt lat="48.798865" lon="9.800570">
        <ele>335.6</ele>
        <time>2026-08-30T13:47:15Z</time>
      </trkpt>
      <trkpt lat="48.798885" lon="9.800570">
        <ele>335.6</ele>
        <time>2026-08-30T13:47:16Z</time>
      </trkpt>
      <trkpt lat="48.798908" lon="9.800574">
        <ele>335.6</ele>
        <time>2026-08-30T13:47:17Z</time>
      </trkpt>
      <trkpt lat="48.798929" lon="9.800574">
        <ele>335.6</ele>
        <time>2026-08-30T13:47:18Z</time>
      </trkpt>
      <trkpt lat="48.798948" lon="9.800551">
        <ele>335.8</ele>
        <time>2026-08-30T13:47:19Z</time>
      </trkpt>
      <trkpt lat="48.798949" lon="9.800505">
        <ele>335.8</ele>
        <time>2026-08-30T13:47:20Z</time>
      </trkpt>
      <trkpt lat="48.798952" lon="9.800468">
        <ele>335.8</ele>
        <time>2026-08-30T13:47:21Z</time>
      </trkpt>
      <trkpt lat="48.798945" lon="9.800429">
        <ele>335.8</ele>
        <time>2026-08-30T13:47:22Z</time>
      </trkpt>
      <trkpt lat="48.798943" lon="9.800398">
        <ele>335.8</ele>
        <time>2026-08-30T13:47:23Z</time>
      </trkpt>
      <trkpt lat="48.798958" lon="9.800384">
        <ele>335.8</ele>
        <time>2026-08-30T13:47:24Z</time>
      </trkpt>
      <trkpt lat="48.798970" lon="9.800393">
        <ele>335.8</ele>
        <time>2026-08-30T13:47:25Z</time>
      </trkpt>
      <trkpt lat="48.798978" lon="9.800419">
        <ele>335.8</ele>
        <time>2026-08-30T13:47:26Z</time>
      </trkpt>
      <trkpt lat="48.798986" lon="9.800453">
        <ele>335.6</ele>
        <time>2026-08-30T13:47:27Z</time>
      </trkpt>
      <trkpt lat="48.798995" lon="9.800484">
        <ele>335.4</ele>
        <time>2026-08-30T13:47:28Z</time>
      </trkpt>
      <trkpt lat="48.799007" lon="9.800514">
        <ele>335.4</ele>
        <time>2026-08-30T13:47:29Z</time>
      </trkpt>
      <trkpt lat="48.799021" lon="9.800551">
        <ele>335.2</ele>
        <time>2026-08-30T13:47:30Z</time>
      </trkpt>
      <trkpt lat="48.799023" lon="9.800591">
        <ele>335.2</ele>
        <time>2026-08-30T13:47:31Z</time>
      </trkpt>
      <trkpt lat="48.799039" lon="9.800619">
        <ele>335</ele>
        <time>2026-08-30T13:47:32Z</time>
      </trkpt>
      <trkpt lat="48.799059" lon="9.800608">
        <ele>335</ele>
        <time>2026-08-30T13:47:33Z</time>
      </trkpt>
      <trkpt lat="48.799055" lon="9.800576">
        <ele>334.8</ele>
        <time>2026-08-30T13:47:34Z</time>
      </trkpt>
      <trkpt lat="48.799051" lon="9.800555">
        <ele>334.6</ele>
        <time>2026-08-30T13:47:35Z</time>
      </trkpt>
      <trkpt lat="48.799044" lon="9.800518">
        <ele>334.4</ele>
        <time>2026-08-30T13:47:36Z</time>
      </trkpt>
      <trkpt lat="48.799041" lon="9.800476">
        <ele>334.2</ele>
        <time>2026-08-30T13:47:37Z</time>
      </trkpt>
      <trkpt lat="48.799036" lon="9.800436">
        <ele>334</ele>
        <time>2026-08-30T13:47:38Z</time>
      </trkpt>
      <trkpt lat="48.799028" lon="9.800401">
        <ele>333.8</ele>
        <time>2026-08-30T13:47:39Z</time>
      </trkpt>
      <trkpt lat="48.799023" lon="9.800369">
        <ele>333.8</ele>
        <time>2026-08-30T13:47:40Z</time>
      </trkpt>
      <trkpt lat="48.799016" lon="9.800330">
        <ele>333.8</ele>
        <time>2026-08-30T13:47:41Z</time>
      </trkpt>
      <trkpt lat="48.799012" lon="9.800296">
        <ele>333.8</ele>
        <time>2026-08-30T13:47:42Z</time>
      </trkpt>
      <trkpt lat="48.799019" lon="9.800271">
        <ele>333.8</ele>
        <time>2026-08-30T13:47:43Z</time>
      </trkpt>
      <trkpt lat="48.799035" lon="9.800262">
        <ele>333.8</ele>
        <time>2026-08-30T13:47:44Z</time>
      </trkpt>
      <trkpt lat="48.799044" lon="9.800276">
        <ele>333.6</ele>
        <time>2026-08-30T13:47:45Z</time>
      </trkpt>
      <trkpt lat="48.799049" lon="9.800301">
        <ele>333.6</ele>
        <time>2026-08-30T13:47:46Z</time>
      </trkpt>
      <trkpt lat="48.799059" lon="9.800332">
        <ele>333.6</ele>
        <time>2026-08-30T13:47:47Z</time>
      </trkpt>
      <trkpt lat="48.799070" lon="9.800363">
        <ele>333.6</ele>
        <time>2026-08-30T13:47:48Z</time>
      </trkpt>
      <trkpt lat="48.799084" lon="9.800400">
        <ele>333.4</ele>
        <time>2026-08-30T13:47:49Z</time>
      </trkpt>
      <trkpt lat="48.799099" lon="9.800442">
        <ele>333.2</ele>
        <time>2026-08-30T13:47:50Z</time>
      </trkpt>
      <trkpt lat="48.799113" lon="9.800486">
        <ele>333.2</ele>
        <time>2026-08-30T13:47:51Z</time>
      </trkpt>
      <trkpt lat="48.799117" lon="9.800534">
        <ele>333</ele>
        <time>2026-08-30T13:47:52Z</time>
      </trkpt>
      <trkpt lat="48.799129" lon="9.800570">
        <ele>333</ele>
        <time>2026-08-30T13:47:53Z</time>
      </trkpt>
      <trkpt lat="48.799147" lon="9.800570">
        <ele>332.8</ele>
        <time>2026-08-30T13:47:54Z</time>
      </trkpt>
      <trkpt lat="48.799148" lon="9.800533">
        <ele>332.6</ele>
        <time>2026-08-30T13:47:55Z</time>
      </trkpt>
      <trkpt lat="48.799145" lon="9.800498">
        <ele>332.4</ele>
        <time>2026-08-30T13:47:56Z</time>
      </trkpt>
      <trkpt lat="48.799139" lon="9.800465">
        <ele>332.2</ele>
        <time>2026-08-30T13:47:57Z</time>
      </trkpt>
      <trkpt lat="48.799136" lon="9.800429">
        <ele>332</ele>
        <time>2026-08-30T13:47:58Z</time>
      </trkpt>
      <trkpt lat="48.799133" lon="9.800382">
        <ele>331.8</ele>
        <time>2026-08-30T13:47:59Z</time>
      </trkpt>
      <trkpt lat="48.799130" lon="9.800327">
        <ele>331.6</ele>
        <time>2026-08-30T13:48:00Z</time>
      </trkpt>
      <trkpt lat="48.799122" lon="9.800275">
        <ele>331.4</ele>
        <time>2026-08-30T13:48:01Z</time>
      </trkpt>
      <trkpt lat="48.799116" lon="9.800230">
        <ele>331.4</ele>
        <time>2026-08-30T13:48:02Z</time>
      </trkpt>
      <trkpt lat="48.799121" lon="9.800193">
        <ele>331.2</ele>
        <time>2026-08-30T13:48:03Z</time>
      </trkpt>
      <trkpt lat="48.799130" lon="9.800153">
        <ele>331.2</ele>
        <time>2026-08-30T13:48:04Z</time>
      </trkpt>
      <trkpt lat="48.799129" lon="9.800110">
        <ele>331.2</ele>
        <time>2026-08-30T13:48:05Z</time>
      </trkpt>
      <trkpt lat="48.799122" lon="9.800061">
        <ele>331</ele>
        <time>2026-08-30T13:48:06Z</time>
      </trkpt>
      <trkpt lat="48.799111" lon="9.800016">
        <ele>331</ele>
        <time>2026-08-30T13:48:07Z</time>
      </trkpt>
      <trkpt lat="48.799104" lon="9.799963">
        <ele>330.8</ele>
        <time>2026-08-30T13:48:08Z</time>
      </trkpt>
      <trkpt lat="48.799092" lon="9.799902">
        <ele>330.6</ele>
        <time>2026-08-30T13:48:09Z</time>
      </trkpt>
      <trkpt lat="48.799079" lon="9.799837">
        <ele>330.4</ele>
        <time>2026-08-30T13:48:10Z</time>
      </trkpt>
      <trkpt lat="48.799058" lon="9.799774">
        <ele>330.2</ele>
        <time>2026-08-30T13:48:11Z</time>
      </trkpt>
      <trkpt lat="48.799037" lon="9.799706">
        <ele>329.8</ele>
        <time>2026-08-30T13:48:12Z</time>
      </trkpt>
      <trkpt lat="48.799011" lon="9.799643">
        <ele>329.6</ele>
        <time>2026-08-30T13:48:13Z</time>
      </trkpt>
      <trkpt lat="48.798978" lon="9.799569">
        <ele>329.2</ele>
        <time>2026-08-30T13:48:14Z</time>
      </trkpt>
      <trkpt lat="48.798948" lon="9.799496">
        <ele>328.8</ele>
        <time>2026-08-30T13:48:15Z</time>
      </trkpt>
      <trkpt lat="48.798920" lon="9.799430">
        <ele>328.6</ele>
        <time>2026-08-30T13:48:16Z</time>
      </trkpt>
      <trkpt lat="48.798893" lon="9.799357">
        <ele>328.4</ele>
        <time>2026-08-30T13:48:17Z</time>
      </trkpt>
      <trkpt lat="48.798866" lon="9.799286">
        <ele>328</ele>
        <time>2026-08-30T13:48:18Z</time>
      </trkpt>
      <trkpt lat="48.798832" lon="9.799218">
        <ele>327.8</ele>
        <time>2026-08-30T13:48:19Z</time>
      </trkpt>
      <trkpt lat="48.798802" lon="9.799155">
        <ele>327.6</ele>
        <time>2026-08-30T13:48:20Z</time>
      </trkpt>
      <trkpt lat="48.798780" lon="9.799098">
        <ele>327.2</ele>
        <time>2026-08-30T13:48:21Z</time>
      </trkpt>
      <trkpt lat="48.798764" lon="9.799046">
        <ele>327</ele>
        <time>2026-08-30T13:48:22Z</time>
      </trkpt>
      <trkpt lat="48.798768" lon="9.798993">
        <ele>326.8</ele>
        <time>2026-08-30T13:48:23Z</time>
      </trkpt>
      <trkpt lat="48.798778" lon="9.798936">
        <ele>326.8</ele>
        <time>2026-08-30T13:48:24Z</time>
      </trkpt>
      <trkpt lat="48.798792" lon="9.798883">
        <ele>326.6</ele>
        <time>2026-08-30T13:48:25Z</time>
      </trkpt>
      <trkpt lat="48.798819" lon="9.798850">
        <ele>326.4</ele>
        <time>2026-08-30T13:48:26Z</time>
      </trkpt>
      <trkpt lat="48.798844" lon="9.798827">
        <ele>326.2</ele>
        <time>2026-08-30T13:48:27Z</time>
      </trkpt>
      <trkpt lat="48.798872" lon="9.798808">
        <ele>326.2</ele>
        <time>2026-08-30T13:48:28Z</time>
      </trkpt>
      <trkpt lat="48.798905" lon="9.798795">
        <ele>326.2</ele>
        <time>2026-08-30T13:48:29Z</time>
      </trkpt>
      <trkpt lat="48.798948" lon="9.798780">
        <ele>326.2</ele>
        <time>2026-08-30T13:48:30Z</time>
      </trkpt>
      <trkpt lat="48.798986" lon="9.798766">
        <ele>326.2</ele>
        <time>2026-08-30T13:48:31Z</time>
      </trkpt>
      <trkpt lat="48.799024" lon="9.798760">
        <ele>326.2</ele>
        <time>2026-08-30T13:48:32Z</time>
      </trkpt>
      <trkpt lat="48.799056" lon="9.798746">
        <ele>326.2</ele>
        <time>2026-08-30T13:48:33Z</time>
      </trkpt>
      <trkpt lat="48.799083" lon="9.798727">
        <ele>326.4</ele>
        <time>2026-08-30T13:48:34Z</time>
      </trkpt>
      <trkpt lat="48.799109" lon="9.798711">
        <ele>326.4</ele>
        <time>2026-08-30T13:48:35Z</time>
      </trkpt>
      <trkpt lat="48.799136" lon="9.798704">
        <ele>326.4</ele>
        <time>2026-08-30T13:48:36Z</time>
      </trkpt>
      <trkpt lat="48.799156" lon="9.798687">
        <ele>326.6</ele>
        <time>2026-08-30T13:48:37Z</time>
      </trkpt>
      <trkpt lat="48.799176" lon="9.798673">
        <ele>326.6</ele>
        <time>2026-08-30T13:48:38Z</time>
      </trkpt>
      <trkpt lat="48.799199" lon="9.798663">
        <ele>326.8</ele>
        <time>2026-08-30T13:48:39Z</time>
      </trkpt>
      <trkpt lat="48.799220" lon="9.798658">
        <ele>326.8</ele>
        <time>2026-08-30T13:48:40Z</time>
      </trkpt>
      <trkpt lat="48.799247" lon="9.798649">
        <ele>326.8</ele>
        <time>2026-08-30T13:48:41Z</time>
      </trkpt>
      <trkpt lat="48.799272" lon="9.798633">
        <ele>326.8</ele>
        <time>2026-08-30T13:48:42Z</time>
      </trkpt>
      <trkpt lat="48.799302" lon="9.798625">
        <ele>326.8</ele>
        <time>2026-08-30T13:48:43Z</time>
      </trkpt>
      <trkpt lat="48.799330" lon="9.798622">
        <ele>326.8</ele>
        <time>2026-08-30T13:48:44Z</time>
      </trkpt>
      <trkpt lat="48.799355" lon="9.798615">
        <ele>326.8</ele>
        <time>2026-08-30T13:48:45Z</time>
      </trkpt>
      <trkpt lat="48.799379" lon="9.798602">
        <ele>326.8</ele>
        <time>2026-08-30T13:48:46Z</time>
      </trkpt>
      <trkpt lat="48.799402" lon="9.798582">
        <ele>326.8</ele>
        <time>2026-08-30T13:48:47Z</time>
      </trkpt>
      <trkpt lat="48.799423" lon="9.798556">
        <ele>326.8</ele>
        <time>2026-08-30T13:48:48Z</time>
      </trkpt>
      <trkpt lat="48.799442" lon="9.798532">
        <ele>326.8</ele>
        <time>2026-08-30T13:48:49Z</time>
      </trkpt>
      <trkpt lat="48.799465" lon="9.798515">
        <ele>326.8</ele>
        <time>2026-08-30T13:48:50Z</time>
      </trkpt>
      <trkpt lat="48.799491" lon="9.798501">
        <ele>326.8</ele>
        <time>2026-08-30T13:48:51Z</time>
      </trkpt>
      <trkpt lat="48.799520" lon="9.798482">
        <ele>326.8</ele>
        <time>2026-08-30T13:48:52Z</time>
      </trkpt>
      <trkpt lat="48.799547" lon="9.798464">
        <ele>326.8</ele>
        <time>2026-08-30T13:48:53Z</time>
      </trkpt>
      <trkpt lat="48.799571" lon="9.798449">
        <ele>326.8</ele>
        <time>2026-08-30T13:48:54Z</time>
      </trkpt>
      <trkpt lat="48.799600" lon="9.798427">
        <ele>326.8</ele>
        <time>2026-08-30T13:48:55Z</time>
      </trkpt>
      <trkpt lat="48.799629" lon="9.798407">
        <ele>327</ele>
        <time>2026-08-30T13:48:56Z</time>
      </trkpt>
      <trkpt lat="48.799654" lon="9.798387">
        <ele>327</ele>
        <time>2026-08-30T13:48:57Z</time>
      </trkpt>
      <trkpt lat="48.799678" lon="9.798365">
        <ele>327</ele>
        <time>2026-08-30T13:48:58Z</time>
      </trkpt>
      <trkpt lat="48.799694" lon="9.798338">
        <ele>327</ele>
        <time>2026-08-30T13:48:59Z</time>
      </trkpt>
      <trkpt lat="48.799705" lon="9.798310">
        <ele>327</ele>
        <time>2026-08-30T13:49:00Z</time>
      </trkpt>
      <trkpt lat="48.799722" lon="9.798290">
        <ele>326.8</ele>
        <time>2026-08-30T13:49:01Z</time>
      </trkpt>
      <trkpt lat="48.799738" lon="9.798275">
        <ele>326.8</ele>
        <time>2026-08-30T13:49:02Z</time>
      </trkpt>
      <trkpt lat="48.799755" lon="9.798258">
        <ele>326.8</ele>
        <time>2026-08-30T13:49:03Z</time>
      </trkpt>
      <trkpt lat="48.799769" lon="9.798239">
        <ele>326.6</ele>
        <time>2026-08-30T13:49:04Z</time>
      </trkpt>
      <trkpt lat="48.799777" lon="9.798213">
        <ele>326.6</ele>
        <time>2026-08-30T13:49:05Z</time>
      </trkpt>
      <trkpt lat="48.799783" lon="9.798184">
        <ele>326.4</ele>
        <time>2026-08-30T13:49:06Z</time>
      </trkpt>
      <trkpt lat="48.799798" lon="9.798163">
        <ele>326.4</ele>
        <time>2026-08-30T13:49:07Z</time>
      </trkpt>
      <trkpt lat="48.799817" lon="9.798141">
        <ele>326.2</ele>
        <time>2026-08-30T13:49:08Z</time>
      </trkpt>
      <trkpt lat="48.799841" lon="9.798114">
        <ele>326</ele>
        <time>2026-08-30T13:49:09Z</time>
      </trkpt>
      <trkpt lat="48.799861" lon="9.798081">
        <ele>326</ele>
        <time>2026-08-30T13:49:10Z</time>
      </trkpt>
      <trkpt lat="48.799882" lon="9.798052">
        <ele>325.8</ele>
        <time>2026-08-30T13:49:11Z</time>
      </trkpt>
      <trkpt lat="48.799900" lon="9.798019">
        <ele>325.8</ele>
        <time>2026-08-30T13:49:12Z</time>
      </trkpt>
      <trkpt lat="48.799923" lon="9.797989">
        <ele>325.6</ele>
        <time>2026-08-30T13:49:13Z</time>
      </trkpt>
      <trkpt lat="48.799947" lon="9.797959">
        <ele>325.6</ele>
        <time>2026-08-30T13:49:14Z</time>
      </trkpt>
      <trkpt lat="48.799970" lon="9.797924">
        <ele>325.6</ele>
        <time>2026-08-30T13:49:15Z</time>
      </trkpt>
      <trkpt lat="48.799995" lon="9.797891">
        <ele>325.6</ele>
        <time>2026-08-30T13:49:16Z</time>
      </trkpt>
      <trkpt lat="48.800017" lon="9.797850">
        <ele>325.6</ele>
        <time>2026-08-30T13:49:17Z</time>
      </trkpt>
      <trkpt lat="48.800036" lon="9.797813">
        <ele>325.6</ele>
        <time>2026-08-30T13:49:18Z</time>
      </trkpt>
      <trkpt lat="48.800054" lon="9.797784">
        <ele>325.6</ele>
        <time>2026-08-30T13:49:19Z</time>
      </trkpt>
      <trkpt lat="48.800076" lon="9.797755">
        <ele>325.6</ele>
        <time>2026-08-30T13:49:20Z</time>
      </trkpt>
      <trkpt lat="48.800100" lon="9.797728">
        <ele>325.6</ele>
        <time>2026-08-30T13:49:21Z</time>
      </trkpt>
      <trkpt lat="48.800126" lon="9.797706">
        <ele>325.6</ele>
        <time>2026-08-30T13:49:22Z</time>
      </trkpt>
      <trkpt lat="48.800154" lon="9.797687">
        <ele>325.6</ele>
        <time>2026-08-30T13:49:23Z</time>
      </trkpt>
      <trkpt lat="48.800182" lon="9.797670">
        <ele>325.6</ele>
        <time>2026-08-30T13:49:24Z</time>
      </trkpt>
      <trkpt lat="48.800211" lon="9.797649">
        <ele>325.6</ele>
        <time>2026-08-30T13:49:25Z</time>
      </trkpt>
      <trkpt lat="48.800236" lon="9.797625">
        <ele>325.6</ele>
        <time>2026-08-30T13:49:26Z</time>
      </trkpt>
      <trkpt lat="48.800262" lon="9.797606">
        <ele>325.6</ele>
        <time>2026-08-30T13:49:27Z</time>
      </trkpt>
      <trkpt lat="48.800287" lon="9.797589">
        <ele>325.6</ele>
        <time>2026-08-30T13:49:28Z</time>
      </trkpt>
      <trkpt lat="48.800314" lon="9.797569">
        <ele>325.6</ele>
        <time>2026-08-30T13:49:29Z</time>
      </trkpt>
      <trkpt lat="48.800336" lon="9.797552">
        <ele>325.8</ele>
        <time>2026-08-30T13:49:30Z</time>
      </trkpt>
      <trkpt lat="48.800353" lon="9.797532">
        <ele>325.8</ele>
        <time>2026-08-30T13:49:31Z</time>
      </trkpt>
      <trkpt lat="48.800367" lon="9.797512">
        <ele>325.8</ele>
        <time>2026-08-30T13:49:32Z</time>
      </trkpt>
      <trkpt lat="48.800376" lon="9.797493">
        <ele>325.8</ele>
        <time>2026-08-30T13:49:33Z</time>
      </trkpt>
      <trkpt lat="48.800384" lon="9.797469">
        <ele>325.8</ele>
        <time>2026-08-30T13:49:34Z</time>
      </trkpt>
      <trkpt lat="48.800390" lon="9.797436">
        <ele>325.8</ele>
        <time>2026-08-30T13:49:35Z</time>
      </trkpt>
      <trkpt lat="48.800387" lon="9.797406">
        <ele>325.8</ele>
        <time>2026-08-30T13:49:36Z</time>
      </trkpt>
      <trkpt lat="48.800376" lon="9.797375">
        <ele>325.8</ele>
        <time>2026-08-30T13:49:37Z</time>
      </trkpt>
      <trkpt lat="48.800359" lon="9.797351">
        <ele>325.8</ele>
        <time>2026-08-30T13:49:38Z</time>
      </trkpt>
      <trkpt lat="48.800337" lon="9.797328">
        <ele>325.8</ele>
        <time>2026-08-30T13:49:39Z</time>
      </trkpt>
      <trkpt lat="48.800317" lon="9.797316">
        <ele>325.8</ele>
        <time>2026-08-30T13:49:40Z</time>
      </trkpt>
      <trkpt lat="48.800305" lon="9.797305">
        <ele>325.8</ele>
        <time>2026-08-30T13:49:41Z</time>
      </trkpt>
      <trkpt lat="48.800297" lon="9.797302">
        <ele>325.8</ele>
        <time>2026-08-30T13:49:42Z</time>
      </trkpt>
      <trkpt lat="48.800297" lon="9.797302">
        <ele>325.8</ele>
        <time>2026-08-30T13:49:43Z</time>
      </trkpt>
      <trkpt lat="48.800297" lon="9.797302">
        <ele>325.8</ele>
        <time>2026-08-30T13:49:44Z</time>
      </trkpt>
      <trkpt lat="48.800296" lon="9.797303">
        <ele>326</ele>
        <time>2026-08-30T13:49:45Z</time>
      </trkpt>
      <trkpt lat="48.800289" lon="9.797309">
        <ele>326.2</ele>
        <time>2026-08-30T13:49:46Z</time>
      </trkpt>
      <trkpt lat="48.800297" lon="9.797302">
        <ele>326.2</ele>
        <time>2026-08-30T13:49:47Z</time>
      </trkpt>
      <trkpt lat="48.800297" lon="9.797302">
        <ele>326.2</ele>
        <time>2026-08-30T13:49:48Z</time>
      </trkpt>
      <trkpt lat="48.800297" lon="9.797302">
        <ele>326.2</ele>
        <time>2026-08-30T13:49:49Z</time>
      </trkpt>
      <trkpt lat="48.800297" lon="9.797302">
        <ele>326</ele>
        <time>2026-08-30T13:49:50Z</time>
      </trkpt>
      <trkpt lat="48.800297" lon="9.797302">
        <ele>326</ele>
        <time>2026-08-30T13:49:51Z</time>
      </trkpt>
      <trkpt lat="48.800297" lon="9.797302">
        <ele>326</ele>
        <time>2026-08-30T13:49:52Z</time>
      </trkpt>
      <trkpt lat="48.800297" lon="9.797302">
        <ele>326</ele>
        <time>2026-08-30T13:49:53Z</time>
      </trkpt>
      <trkpt lat="48.800297" lon="9.797302">
        <ele>325.8</ele>
        <time>2026-08-30T13:49:54Z</time>
      </trkpt>
      <trkpt lat="48.800297" lon="9.797302">
        <ele>325.8</ele>
        <time>2026-08-30T13:49:55Z</time>
      </trkpt>
      <trkpt lat="48.800297" lon="9.797302">
        <ele>325.8</ele>
        <time>2026-08-30T13:49:56Z</time>
      </trkpt>
      <trkpt lat="48.800297" lon="9.797302">
        <ele>325.8</ele>
        <time>2026-08-30T13:49:57Z</time>
      </trkpt>
      <trkpt lat="48.800297" lon="9.797302">
        <ele>325.8</ele>
        <time>2026-08-30T13:49:58Z</time>
      </trkpt>
      <trkpt lat="48.800297" lon="9.797302">
        <ele>325.8</ele>
        <time>2026-08-30T13:49:59Z</time>
      </trkpt>
      <trkpt lat="48.800297" lon="9.797302">
        <ele>325.8</ele>
        <time>2026-08-30T13:50:00Z</time>
      </trkpt>
      <trkpt lat="48.800297" lon="9.797302">
        <ele>326</ele>
        <time>2026-08-30T13:50:01Z</time>
      </trkpt>
      <trkpt lat="48.800297" lon="9.797302">
        <ele>326</ele>
        <time>2026-08-30T13:50:02Z</time>
      </trkpt>
      <trkpt lat="48.800297" lon="9.797302">
        <ele>326</ele>
        <time>2026-08-30T13:50:03Z</time>
      </trkpt>
      <trkpt lat="48.800297" lon="9.797302">
        <ele>326</ele>
        <time>2026-08-30T13:50:04Z</time>
      </trkpt>
      <trkpt lat="48.800297" lon="9.797302">
        <ele>326</ele>
        <time>2026-08-30T13:50:05Z</time>
      </trkpt>
      <trkpt lat="48.800297" lon="9.797302">
        <ele>326</ele>
        <time>2026-08-30T13:50:06Z</time>
      </trkpt>
      <trkpt lat="48.800297" lon="9.797302">
        <ele>326</ele>
        <time>2026-08-30T13:50:07Z</time>
      </trkpt>
      <trkpt lat="48.800297" lon="9.797302">
        <ele>325.8</ele>
        <time>2026-08-30T13:50:08Z</time>
      </trkpt>
      <trkpt lat="48.800297" lon="9.797302">
        <ele>325.8</ele>
        <time>2026-08-30T13:50:09Z</time>
      </trkpt>
      <trkpt lat="48.800297" lon="9.797302">
        <ele>325.8</ele>
        <time>2026-08-30T13:50:10Z</time>
      </trkpt>
      <trkpt lat="48.800297" lon="9.797302">
        <ele>325.8</ele>
        <time>2026-08-30T13:50:11Z</time>
      </trkpt>
      <trkpt lat="48.800297" lon="9.797302">
        <ele>325.8</ele>
        <time>2026-08-30T13:50:12Z</time>
      </trkpt>
      <trkpt lat="48.800297" lon="9.797302">
        <ele>325.8</ele>
        <time>2026-08-30T13:50:13Z</time>
      </trkpt>
      <trkpt lat="48.800297" lon="9.797302">
        <ele>325.8</ele>
        <time>2026-08-30T13:50:14Z</time>
      </trkpt>
      <trkpt lat="48.800297" lon="9.797302">
        <ele>325.8</ele>
        <time>2026-08-30T13:50:15Z</time>
      </trkpt>
      <trkpt lat="48.800297" lon="9.797302">
        <ele>325.8</ele>
        <time>2026-08-30T13:50:16Z</time>
      </trkpt>
      <trkpt lat="48.800297" lon="9.797302">
        <ele>326</ele>
        <time>2026-08-30T13:50:17Z</time>
      </trkpt>
      <trkpt lat="48.800297" lon="9.797302">
        <ele>326</ele>
        <time>2026-08-30T13:50:18Z</time>
      </trkpt>
      <trkpt lat="48.800297" lon="9.797302">
        <ele>326</ele>
        <time>2026-08-30T13:50:19Z</time>
      </trkpt>
      <trkpt lat="48.800297" lon="9.797302">
        <ele>326</ele>
        <time>2026-08-30T13:50:20Z</time>
      </trkpt>
      <trkpt lat="48.800297" lon="9.797302">
        <ele>326</ele>
        <time>2026-08-30T13:50:21Z</time>
      </trkpt>
      <trkpt lat="48.800297" lon="9.797302">
        <ele>326</ele>
        <time>2026-08-30T13:50:22Z</time>
      </trkpt>
      <trkpt lat="48.800297" lon="9.797302">
        <ele>326</ele>
        <time>2026-08-30T13:50:23Z</time>
      </trkpt>
      <trkpt lat="48.800297" lon="9.797302">
        <ele>326</ele>
        <time>2026-08-30T13:50:24Z</time>
      </trkpt>
      <trkpt lat="48.800297" lon="9.797302">
        <ele>326</ele>
        <time>2026-08-30T13:50:25Z</time>
      </trkpt>
      <trkpt lat="48.800297" lon="9.797302">
        <ele>326</ele>
        <time>2026-08-30T13:50:26Z</time>
      </trkpt>
      <trkpt lat="48.800297" lon="9.797302">
        <ele>326</ele>
        <time>2026-08-30T13:50:27Z</time>
      </trkpt>
      <trkpt lat="48.800297" lon="9.797302">
        <ele>326</ele>
        <time>2026-08-30T13:50:28Z</time>
      </trkpt>
      <trkpt lat="48.800297" lon="9.797302">
        <ele>326</ele>
        <time>2026-08-30T13:50:29Z</time>
      </trkpt>
      <trkpt lat="48.800297" lon="9.797302">
        <ele>326</ele>
        <time>2026-08-30T13:50:30Z</time>
      </trkpt>
      <trkpt lat="48.800297" lon="9.797302">
        <ele>326</ele>
        <time>2026-08-30T13:50:31Z</time>
      </trkpt>
      <trkpt lat="48.800297" lon="9.797302">
        <ele>326</ele>
        <time>2026-08-30T13:50:32Z</time>
      </trkpt>
      <trkpt lat="48.800297" lon="9.797302">
        <ele>326</ele>
        <time>2026-08-30T13:50:33Z</time>
      </trkpt>
      <trkpt lat="48.800297" lon="9.797302">
        <ele>326</ele>
        <time>2026-08-30T13:50:34Z</time>
      </trkpt>
      <trkpt lat="48.800297" lon="9.797302">
        <ele>326</ele>
        <time>2026-08-30T13:50:35Z</time>
      </trkpt>
      <trkpt lat="48.800297" lon="9.797302">
        <ele>326</ele>
        <time>2026-08-30T13:50:36Z</time>
      </trkpt>
      <trkpt lat="48.800297" lon="9.797302">
        <ele>326</ele>
        <time>2026-08-30T13:50:37Z</time>
      </trkpt>
      <trkpt lat="48.800297" lon="9.797302">
        <ele>326</ele>
        <time>2026-08-30T13:50:38Z</time>
      </trkpt>
      <trkpt lat="48.800297" lon="9.797302">
        <ele>326</ele>
        <time>2026-08-30T13:50:39Z</time>
      </trkpt>
      <trkpt lat="48.800297" lon="9.797302">
        <ele>326</ele>
        <time>2026-08-30T13:50:40Z</time>
      </trkpt>
      <trkpt lat="48.800297" lon="9.797302">
        <ele>326</ele>
        <time>2026-08-30T13:50:41Z</time>
      </trkpt>
      <trkpt lat="48.800297" lon="9.797302">
        <ele>326</ele>
        <time>2026-08-30T13:50:42Z</time>
      </trkpt>
      <trkpt lat="48.800297" lon="9.797302">
        <ele>326</ele>
        <time>2026-08-30T13:50:43Z</time>
      </trkpt>
      <trkpt lat="48.800297" lon="9.797302">
        <ele>326</ele>
        <time>2026-08-30T13:50:44Z</time>
      </trkpt>
      <trkpt lat="48.800297" lon="9.797302">
        <ele>326</ele>
        <time>2026-08-30T13:50:45Z</time>
      </trkpt>
      <trkpt lat="48.800297" lon="9.797302">
        <ele>326</ele>
        <time>2026-08-30T13:50:46Z</time>
      </trkpt>
      <trkpt lat="48.800297" lon="9.797302">
        <ele>326</ele>
        <time>2026-08-30T13:50:47Z</time>
      </trkpt>
      <trkpt lat="48.800297" lon="9.797302">
        <ele>326</ele>
        <time>2026-08-30T13:50:48Z</time>
      </trkpt>
      <trkpt lat="48.800297" lon="9.797302">
        <ele>326</ele>
        <time>2026-08-30T13:50:49Z</time>
      </trkpt>
      <trkpt lat="48.800297" lon="9.797302">
        <ele>326</ele>
        <time>2026-08-30T13:50:50Z</time>
      </trkpt>
      <trkpt lat="48.800297" lon="9.797302">
        <ele>326</ele>
        <time>2026-08-30T13:50:51Z</time>
      </trkpt>
      <trkpt lat="48.800297" lon="9.797302">
        <ele>326</ele>
        <time>2026-08-30T13:50:52Z</time>
      </trkpt>
      <trkpt lat="48.800297" lon="9.797302">
        <ele>326</ele>
        <time>2026-08-30T13:50:53Z</time>
      </trkpt>
      <trkpt lat="48.800297" lon="9.797302">
        <ele>326</ele>
        <time>2026-08-30T13:50:54Z</time>
      </trkpt>
      <trkpt lat="48.800297" lon="9.797302">
        <ele>326</ele>
        <time>2026-08-30T13:50:55Z</time>
      </trkpt>
      <trkpt lat="48.800297" lon="9.797302">
        <ele>326</ele>
        <time>2026-08-30T13:50:56Z</time>
      </trkpt>
      <trkpt lat="48.800297" lon="9.797302">
        <ele>326</ele>
        <time>2026-08-30T13:50:57Z</time>
      </trkpt>
      <trkpt lat="48.800297" lon="9.797302">
        <ele>326</ele>
        <time>2026-08-30T13:50:58Z</time>
      </trkpt>
      <trkpt lat="48.800297" lon="9.797302">
        <ele>326</ele>
        <time>2026-08-30T13:50:59Z</time>
      </trkpt>
      <trkpt lat="48.800297" lon="9.797302">
        <ele>326</ele>
        <time>2026-08-30T13:51:00Z</time>
      </trkpt>
      <trkpt lat="48.800297" lon="9.797302">
        <ele>326</ele>
        <time>2026-08-30T13:51:01Z</time>
      </trkpt>
      <trkpt lat="48.800297" lon="9.797302">
        <ele>326</ele>
        <time>2026-08-30T13:51:02Z</time>
      </trkpt>
      <trkpt lat="48.800297" lon="9.797302">
        <ele>326</ele>
        <time>2026-08-30T13:51:03Z</time>
      </trkpt>
      <trkpt lat="48.800297" lon="9.797302">
        <ele>326</ele>
        <time>2026-08-30T13:51:04Z</time>
      </trkpt>
      <trkpt lat="48.800297" lon="9.797302">
        <ele>326</ele>
        <time>2026-08-30T13:51:05Z</time>
      </trkpt>
      <trkpt lat="48.800297" lon="9.797302">
        <ele>326</ele>
        <time>2026-08-30T13:51:06Z</time>
      </trkpt>
      <trkpt lat="48.800297" lon="9.797302">
        <ele>326</ele>
        <time>2026-08-30T13:51:07Z</time>
      </trkpt>
      <trkpt lat="48.800297" lon="9.797302">
        <ele>326</ele>
        <time>2026-08-30T13:51:08Z</time>
      </trkpt>
      <trkpt lat="48.800297" lon="9.797302">
        <ele>326</ele>
        <time>2026-08-30T13:51:09Z</time>
      </trkpt>
      <trkpt lat="48.800297" lon="9.797302">
        <ele>326</ele>
        <time>2026-08-30T13:51:10Z</time>
      </trkpt>
      <trkpt lat="48.800297" lon="9.797302">
        <ele>326</ele>
        <time>2026-08-30T13:51:11Z</time>
      </trkpt>
      <trkpt lat="48.800297" lon="9.797302">
        <ele>326</ele>
        <time>2026-08-30T13:51:12Z</time>
      </trkpt>
      <trkpt lat="48.800297" lon="9.797302">
        <ele>326</ele>
        <time>2026-08-30T13:51:13Z</time>
      </trkpt>
      <trkpt lat="48.800297" lon="9.797302">
        <ele>326</ele>
        <time>2026-08-30T13:51:14Z</time>
      </trkpt>
      <trkpt lat="48.800297" lon="9.797302">
        <ele>326</ele>
        <time>2026-08-30T13:51:15Z</time>
      </trkpt>
      <trkpt lat="48.800297" lon="9.797302">
        <ele>326</ele>
        <time>2026-08-30T13:51:16Z</time>
      </trkpt>
      <trkpt lat="48.800297" lon="9.797302">
        <ele>326</ele>
        <time>2026-08-30T13:51:17Z</time>
      </trkpt>
      <trkpt lat="48.800297" lon="9.797302">
        <ele>326</ele>
        <time>2026-08-30T13:51:18Z</time>
      </trkpt>
      <trkpt lat="48.800297" lon="9.797302">
        <ele>326</ele>
        <time>2026-08-30T13:51:19Z</time>
      </trkpt>
      <trkpt lat="48.800297" lon="9.797302">
        <ele>326</ele>
        <time>2026-08-30T13:51:20Z</time>
      </trkpt>
      <trkpt lat="48.800297" lon="9.797302">
        <ele>326</ele>
        <time>2026-08-30T13:51:21Z</time>
      </trkpt>
      <trkpt lat="48.800297" lon="9.797302">
        <ele>326</ele>
        <time>2026-08-30T13:51:22Z</time>
      </trkpt>
      <trkpt lat="48.800297" lon="9.797302">
        <ele>326</ele>
        <time>2026-08-30T13:51:23Z</time>
      </trkpt>
      <trkpt lat="48.800297" lon="9.797302">
        <ele>326</ele>
        <time>2026-08-30T13:51:24Z</time>
      </trkpt>
      <trkpt lat="48.800297" lon="9.797302">
        <ele>326</ele>
        <time>2026-08-30T13:51:25Z</time>
      </trkpt>
      <trkpt lat="48.800297" lon="9.797302">
        <ele>326</ele>
        <time>2026-08-30T13:51:26Z</time>
      </trkpt>
      <trkpt lat="48.800297" lon="9.797302">
        <ele>326</ele>
        <time>2026-08-30T13:51:27Z</time>
      </trkpt>
      <trkpt lat="48.800297" lon="9.797302">
        <ele>326</ele>
        <time>2026-08-30T13:51:28Z</time>
      </trkpt>
      <trkpt lat="48.800297" lon="9.797302">
        <ele>326</ele>
        <time>2026-08-30T13:51:29Z</time>
      </trkpt>
      <trkpt lat="48.800297" lon="9.797302">
        <ele>326</ele>
        <time>2026-08-30T13:51:30Z</time>
      </trkpt>
      <trkpt lat="48.800297" lon="9.797302">
        <ele>326</ele>
        <time>2026-08-30T13:51:31Z</time>
      </trkpt>
      <trkpt lat="48.800297" lon="9.797302">
        <ele>326</ele>
        <time>2026-08-30T13:51:32Z</time>
      </trkpt>
      <trkpt lat="48.800297" lon="9.797302">
        <ele>326</ele>
        <time>2026-08-30T13:51:33Z</time>
      </trkpt>
      <trkpt lat="48.800297" lon="9.797302">
        <ele>326</ele>
        <time>2026-08-30T13:51:34Z</time>
      </trkpt>
      <trkpt lat="48.800297" lon="9.797302">
        <ele>326</ele>
        <time>2026-08-30T13:51:35Z</time>
      </trkpt>
      <trkpt lat="48.800297" lon="9.797302">
        <ele>326</ele>
        <time>2026-08-30T13:51:36Z</time>
      </trkpt>
      <trkpt lat="48.800297" lon="9.797302">
        <ele>326</ele>
        <time>2026-08-30T13:51:37Z</time>
      </trkpt>
      <trkpt lat="48.800297" lon="9.797302">
        <ele>326</ele>
        <time>2026-08-30T13:51:38Z</time>
      </trkpt>
      <trkpt lat="48.800297" lon="9.797302">
        <ele>326</ele>
        <time>2026-08-30T13:51:39Z</time>
      </trkpt>
      <trkpt lat="48.800297" lon="9.797302">
        <ele>326</ele>
        <time>2026-08-30T13:51:40Z</time>
      </trkpt>
      <trkpt lat="48.800297" lon="9.797302">
        <ele>326</ele>
        <time>2026-08-30T13:51:41Z</time>
      </trkpt>
      <trkpt lat="48.800297" lon="9.797302">
        <ele>326</ele>
        <time>2026-08-30T13:51:42Z</time>
      </trkpt>
      <trkpt lat="48.800297" lon="9.797302">
        <ele>326</ele>
        <time>2026-08-30T13:51:43Z</time>
      </trkpt>
      <trkpt lat="48.800297" lon="9.797302">
        <ele>326</ele>
        <time>2026-08-30T13:51:44Z</time>
      </trkpt>
      <trkpt lat="48.800297" lon="9.797302">
        <ele>326</ele>
        <time>2026-08-30T13:51:45Z</time>
      </trkpt>
      <trkpt lat="48.800297" lon="9.797302">
        <ele>326</ele>
        <time>2026-08-30T13:51:46Z</time>
      </trkpt>
      <trkpt lat="48.800297" lon="9.797302">
        <ele>326</ele>
        <time>2026-08-30T13:51:47Z</time>
      </trkpt>
      <trkpt lat="48.800297" lon="9.797302">
        <ele>326</ele>
        <time>2026-08-30T13:51:48Z</time>
      </trkpt>
      <trkpt lat="48.800297" lon="9.797302">
        <ele>326</ele>
        <time>2026-08-30T13:51:49Z</time>
      </trkpt>
      <trkpt lat="48.800297" lon="9.797302">
        <ele>326</ele>
        <time>2026-08-30T13:51:50Z</time>
      </trkpt>
      <trkpt lat="48.800297" lon="9.797302">
        <ele>326</ele>
        <time>2026-08-30T13:51:51Z</time>
      </trkpt>
      <trkpt lat="48.800297" lon="9.797302">
        <ele>326</ele>
        <time>2026-08-30T13:51:52Z</time>
      </trkpt>
      <trkpt lat="48.800297" lon="9.797302">
        <ele>326</ele>
        <time>2026-08-30T13:51:53Z</time>
      </trkpt>
      <trkpt lat="48.800297" lon="9.797302">
        <ele>326</ele>
        <time>2026-08-30T13:51:54Z</time>
      </trkpt>
      <trkpt lat="48.800297" lon="9.797302">
        <ele>326</ele>
        <time>2026-08-30T13:51:55Z</time>
      </trkpt>
      <trkpt lat="48.800297" lon="9.797302">
        <ele>326</ele>
        <time>2026-08-30T13:51:56Z</time>
      </trkpt>
      <trkpt lat="48.800297" lon="9.797302">
        <ele>326</ele>
        <time>2026-08-30T13:51:57Z</time>
      </trkpt>
      <trkpt lat="48.800297" lon="9.797302">
        <ele>326</ele>
        <time>2026-08-30T13:51:58Z</time>
      </trkpt>
      <trkpt lat="48.800297" lon="9.797302">
        <ele>326</ele>
        <time>2026-08-30T13:51:59Z</time>
      </trkpt>
      <trkpt lat="48.800297" lon="9.797302">
        <ele>326</ele>
        <time>2026-08-30T13:52:00Z</time>
      </trkpt>
      <trkpt lat="48.800297" lon="9.797302">
        <ele>326</ele>
        <time>2026-08-30T13:52:01Z</time>
      </trkpt>
      <trkpt lat="48.800297" lon="9.797302">
        <ele>326</ele>
        <time>2026-08-30T13:52:02Z</time>
      </trkpt>
      <trkpt lat="48.800297" lon="9.797302">
        <ele>326</ele>
        <time>2026-08-30T13:52:03Z</time>
      </trkpt>
      <trkpt lat="48.800297" lon="9.797302">
        <ele>326</ele>
        <time>2026-08-30T13:52:04Z</time>
      </trkpt>
      <trkpt lat="48.800297" lon="9.797302">
        <ele>326</ele>
        <time>2026-08-30T13:52:05Z</time>
      </trkpt>
      <trkpt lat="48.800297" lon="9.797302">
        <ele>326</ele>
        <time>2026-08-30T13:52:06Z</time>
      </trkpt>
      <trkpt lat="48.800297" lon="9.797302">
        <ele>326</ele>
        <time>2026-08-30T13:52:07Z</time>
      </trkpt>
      <trkpt lat="48.800297" lon="9.797302">
        <ele>326</ele>
        <time>2026-08-30T13:52:08Z</time>
      </trkpt>
      <trkpt lat="48.800297" lon="9.797302">
        <ele>326</ele>
        <time>2026-08-30T13:52:09Z</time>
      </trkpt>
      <trkpt lat="48.800297" lon="9.797302">
        <ele>326</ele>
        <time>2026-08-30T13:52:10Z</time>
      </trkpt>
      <trkpt lat="48.800297" lon="9.797302">
        <ele>326</ele>
        <time>2026-08-30T13:52:11Z</time>
      </trkpt>
      <trkpt lat="48.800297" lon="9.797302">
        <ele>326</ele>
        <time>2026-08-30T13:52:12Z</time>
      </trkpt>
      <trkpt lat="48.800297" lon="9.797302">
        <ele>326</ele>
        <time>2026-08-30T13:52:13Z</time>
      </trkpt>
      <trkpt lat="48.800297" lon="9.797302">
        <ele>326</ele>
        <time>2026-08-30T13:52:14Z</time>
      </trkpt>
      <trkpt lat="48.800297" lon="9.797302">
        <ele>326</ele>
        <time>2026-08-30T13:52:15Z</time>
      </trkpt>
      <trkpt lat="48.800297" lon="9.797302">
        <ele>326</ele>
        <time>2026-08-30T13:52:16Z</time>
      </trkpt>
      <trkpt lat="48.800297" lon="9.797302">
        <ele>326</ele>
        <time>2026-08-30T13:52:17Z</time>
      </trkpt>
      <trkpt lat="48.800297" lon="9.797302">
        <ele>326</ele>
        <time>2026-08-30T13:52:18Z</time>
      </trkpt>
      <trkpt lat="48.800297" lon="9.797302">
        <ele>326</ele>
        <time>2026-08-30T13:52:19Z</time>
      </trkpt>
      <trkpt lat="48.800297" lon="9.797302">
        <ele>326</ele>
        <time>2026-08-30T13:52:20Z</time>
      </trkpt>
      <trkpt lat="48.800297" lon="9.797302">
        <ele>326</ele>
        <time>2026-08-30T13:52:21Z</time>
      </trkpt>
      <trkpt lat="48.800297" lon="9.797302">
        <ele>326</ele>
        <time>2026-08-30T13:52:22Z</time>
      </trkpt>
      <trkpt lat="48.800297" lon="9.797302">
        <ele>326</ele>
        <time>2026-08-30T13:52:23Z</time>
      </trkpt>
      <trkpt lat="48.800297" lon="9.797302">
        <ele>326</ele>
        <time>2026-08-30T13:52:24Z</time>
      </trkpt>
      <trkpt lat="48.800297" lon="9.797302">
        <ele>326</ele>
        <time>2026-08-30T13:52:25Z</time>
      </trkpt>
      <trkpt lat="48.800297" lon="9.797302">
        <ele>326</ele>
        <time>2026-08-30T13:52:26Z</time>
      </trkpt>
      <trkpt lat="48.800297" lon="9.797302">
        <ele>326</ele>
        <time>2026-08-30T13:52:27Z</time>
      </trkpt>
      <trkpt lat="48.800297" lon="9.797302">
        <ele>326</ele>
        <time>2026-08-30T13:52:28Z</time>
      </trkpt>
      <trkpt lat="48.800297" lon="9.797302">
        <ele>326</ele>
        <time>2026-08-30T13:52:29Z</time>
      </trkpt>
      <trkpt lat="48.800297" lon="9.797302">
        <ele>326</ele>
        <time>2026-08-30T13:52:30Z</time>
      </trkpt>
      <trkpt lat="48.800297" lon="9.797302">
        <ele>326</ele>
        <time>2026-08-30T13:52:31Z</time>
      </trkpt>
      <trkpt lat="48.800297" lon="9.797302">
        <ele>326</ele>
        <time>2026-08-30T13:52:32Z</time>
      </trkpt>
      <trkpt lat="48.800297" lon="9.797302">
        <ele>326</ele>
        <time>2026-08-30T13:52:33Z</time>
      </trkpt>
      <trkpt lat="48.800297" lon="9.797302">
        <ele>326</ele>
        <time>2026-08-30T13:52:34Z</time>
      </trkpt>
      <trkpt lat="48.800297" lon="9.797302">
        <ele>326</ele>
        <time>2026-08-30T13:52:35Z</time>
      </trkpt>
      <trkpt lat="48.800297" lon="9.797302">
        <ele>326</ele>
        <time>2026-08-30T13:52:36Z</time>
      </trkpt>
      <trkpt lat="48.800297" lon="9.797302">
        <ele>326</ele>
        <time>2026-08-30T13:52:37Z</time>
      </trkpt>
      <trkpt lat="48.800297" lon="9.797302">
        <ele>326</ele>
        <time>2026-08-30T13:52:38Z</time>
      </trkpt>
      <trkpt lat="48.800297" lon="9.797302">
        <ele>326</ele>
        <time>2026-08-30T13:52:39Z</time>
      </trkpt>
      <trkpt lat="48.800297" lon="9.797302">
        <ele>326</ele>
        <time>2026-08-30T13:52:40Z</time>
      </trkpt>
      <trkpt lat="48.800297" lon="9.797302">
        <ele>326</ele>
        <time>2026-08-30T13:52:41Z</time>
      </trkpt>
      <trkpt lat="48.800297" lon="9.797302">
        <ele>326</ele>
        <time>2026-08-30T13:52:42Z</time>
      </trkpt>
      <trkpt lat="48.800297" lon="9.797302">
        <ele>326</ele>
        <time>2026-08-30T13:52:43Z</time>
      </trkpt>
      <trkpt lat="48.800297" lon="9.797302">
        <ele>326</ele>
        <time>2026-08-30T13:52:44Z</time>
      </trkpt>
      <trkpt lat="48.800297" lon="9.797302">
        <ele>326</ele>
        <time>2026-08-30T13:52:45Z</time>
      </trkpt>
      <trkpt lat="48.800297" lon="9.797302">
        <ele>326</ele>
        <time>2026-08-30T13:52:46Z</time>
      </trkpt>
      <trkpt lat="48.800297" lon="9.797302">
        <ele>326</ele>
        <time>2026-08-30T13:52:47Z</time>
      </trkpt>
      <trkpt lat="48.800297" lon="9.797302">
        <ele>326</ele>
        <time>2026-08-30T13:52:48Z</time>
      </trkpt>
      <trkpt lat="48.800297" lon="9.797302">
        <ele>326</ele>
        <time>2026-08-30T13:52:49Z</time>
      </trkpt>
      <trkpt lat="48.800297" lon="9.797302">
        <ele>326</ele>
        <time>2026-08-30T13:52:50Z</time>
      </trkpt>
      <trkpt lat="48.800297" lon="9.797302">
        <ele>326</ele>
        <time>2026-08-30T13:52:51Z</time>
      </trkpt>
      <trkpt lat="48.800297" lon="9.797302">
        <ele>326</ele>
        <time>2026-08-30T13:52:52Z</time>
      </trkpt>
      <trkpt lat="48.800297" lon="9.797302">
        <ele>326</ele>
        <time>2026-08-30T13:52:53Z</time>
      </trkpt>
      <trkpt lat="48.800297" lon="9.797302">
        <ele>326</ele>
        <time>2026-08-30T13:52:54Z</time>
      </trkpt>
      <trkpt lat="48.800297" lon="9.797302">
        <ele>326</ele>
        <time>2026-08-30T13:52:55Z</time>
      </trkpt>
      <trkpt lat="48.800297" lon="9.797302">
        <ele>326</ele>
        <time>2026-08-30T13:52:56Z</time>
      </trkpt>
      <trkpt lat="48.800297" lon="9.797302">
        <ele>326</ele>
        <time>2026-08-30T13:52:57Z</time>
      </trkpt>
      <trkpt lat="48.800297" lon="9.797302">
        <ele>326</ele>
        <time>2026-08-30T13:52:58Z</time>
      </trkpt>
      <trkpt lat="48.800297" lon="9.797302">
        <ele>326</ele>
        <time>2026-08-30T13:52:59Z</time>
      </trkpt>
      <trkpt lat="48.800297" lon="9.797302">
        <ele>326</ele>
        <time>2026-08-30T13:53:00Z</time>
      </trkpt>
      <trkpt lat="48.800297" lon="9.797302">
        <ele>326</ele>
        <time>2026-08-30T13:53:01Z</time>
      </trkpt>
      <trkpt lat="48.800297" lon="9.797302">
        <ele>326</ele>
        <time>2026-08-30T13:53:02Z</time>
      </trkpt>
      <trkpt lat="48.800297" lon="9.797302">
        <ele>326</ele>
        <time>2026-08-30T13:53:03Z</time>
      </trkpt>
      <trkpt lat="48.800297" lon="9.797302">
        <ele>326</ele>
        <time>2026-08-30T13:53:04Z</time>
      </trkpt>
      <trkpt lat="48.800297" lon="9.797302">
        <ele>326</ele>
        <time>2026-08-30T13:53:05Z</time>
      </trkpt>
      <trkpt lat="48.800297" lon="9.797302">
        <ele>326</ele>
        <time>2026-08-30T13:53:06Z</time>
      </trkpt>
      <trkpt lat="48.800297" lon="9.797302">
        <ele>326</ele>
        <time>2026-08-30T13:53:07Z</time>
      </trkpt>
      <trkpt lat="48.800297" lon="9.797302">
        <ele>326</ele>
        <time>2026-08-30T13:53:08Z</time>
      </trkpt>
      <trkpt lat="48.800297" lon="9.797302">
        <ele>326</ele>
        <time>2026-08-30T13:53:09Z</time>
      </trkpt>
      <trkpt lat="48.800297" lon="9.797302">
        <ele>326</ele>
        <time>2026-08-30T13:53:10Z</time>
      </trkpt>
      <trkpt lat="48.800297" lon="9.797302">
        <ele>326</ele>
        <time>2026-08-30T13:53:11Z</time>
      </trkpt>
      <trkpt lat="48.800297" lon="9.797302">
        <ele>326</ele>
        <time>2026-08-30T13:53:12Z</time>
      </trkpt>
      <trkpt lat="48.800297" lon="9.797302">
        <ele>326</ele>
        <time>2026-08-30T13:53:13Z</time>
      </trkpt>
      <trkpt lat="48.800297" lon="9.797302">
        <ele>326</ele>
        <time>2026-08-30T13:53:14Z</time>
      </trkpt>
      <trkpt lat="48.800297" lon="9.797302">
        <ele>326</ele>
        <time>2026-08-30T13:53:15Z</time>
      </trkpt>
      <trkpt lat="48.800297" lon="9.797302">
        <ele>326</ele>
        <time>2026-08-30T13:53:16Z</time>
      </trkpt>
      <trkpt lat="48.800297" lon="9.797302">
        <ele>326</ele>
        <time>2026-08-30T13:53:17Z</time>
      </trkpt>
      <trkpt lat="48.800297" lon="9.797302">
        <ele>326</ele>
        <time>2026-08-30T13:53:18Z</time>
      </trkpt>
      <trkpt lat="48.800297" lon="9.797302">
        <ele>326</ele>
        <time>2026-08-30T13:53:19Z</time>
      </trkpt>
      <trkpt lat="48.800297" lon="9.797302">
        <ele>326</ele>
        <time>2026-08-30T13:53:20Z</time>
      </trkpt>
      <trkpt lat="48.800297" lon="9.797302">
        <ele>326</ele>
        <time>2026-08-30T13:53:21Z</time>
      </trkpt>
      <trkpt lat="48.800297" lon="9.797302">
        <ele>326</ele>
        <time>2026-08-30T13:53:22Z</time>
      </trkpt>
      <trkpt lat="48.800297" lon="9.797302">
        <ele>326</ele>
        <time>2026-08-30T13:53:23Z</time>
      </trkpt>
      <trkpt lat="48.800297" lon="9.797302">
        <ele>326</ele>
        <time>2026-08-30T13:53:24Z</time>
      </trkpt>
      <trkpt lat="48.800297" lon="9.797302">
        <ele>326</ele>
        <time>2026-08-30T13:53:25Z</time>
      </trkpt>
      <trkpt lat="48.800297" lon="9.797302">
        <ele>326</ele>
        <time>2026-08-30T13:53:26Z</time>
      </trkpt>
      <trkpt lat="48.800297" lon="9.797302">
        <ele>326</ele>
        <time>2026-08-30T13:53:27Z</time>
      </trkpt>
      <trkpt lat="48.800297" lon="9.797302">
        <ele>326</ele>
        <time>2026-08-30T13:53:28Z</time>
      </trkpt>
      <trkpt lat="48.800297" lon="9.797302">
        <ele>326</ele>
        <time>2026-08-30T13:53:29Z</time>
      </trkpt>
      <trkpt lat="48.800297" lon="9.797302">
        <ele>326</ele>
        <time>2026-08-30T13:53:30Z</time>
      </trkpt>
      <trkpt lat="48.800297" lon="9.797302">
        <ele>326</ele>
        <time>2026-08-30T13:53:31Z</time>
      </trkpt>
      <trkpt lat="48.800297" lon="9.797302">
        <ele>326</ele>
        <time>2026-08-30T13:53:32Z</time>
      </trkpt>
      <trkpt lat="48.800297" lon="9.797302">
        <ele>326</ele>
        <time>2026-08-30T13:53:33Z</time>
      </trkpt>
      <trkpt lat="48.800297" lon="9.797302">
        <ele>326</ele>
        <time>2026-08-30T13:53:34Z</time>
      </trkpt>
      <trkpt lat="48.800297" lon="9.797302">
        <ele>326</ele>
        <time>2026-08-30T13:53:35Z</time>
      </trkpt>
      <trkpt lat="48.800297" lon="9.797302">
        <ele>326</ele>
        <time>2026-08-30T13:53:36Z</time>
      </trkpt>
      <trkpt lat="48.800297" lon="9.797302">
        <ele>326</ele>
        <time>2026-08-30T13:53:37Z</time>
      </trkpt>
      <trkpt lat="48.800297" lon="9.797302">
        <ele>326</ele>
        <time>2026-08-30T13:53:38Z</time>
      </trkpt>
      <trkpt lat="48.800297" lon="9.797302">
        <ele>326</ele>
        <time>2026-08-30T13:53:39Z</time>
      </trkpt>
      <trkpt lat="48.800290" lon="9.797323">
        <ele>326</ele>
        <time>2026-08-30T13:53:40Z</time>
      </trkpt>
      <trkpt lat="48.800289" lon="9.797325">
        <ele>326</ele>
        <time>2026-08-30T13:53:41Z</time>
      </trkpt>
      <trkpt lat="48.800289" lon="9.797325">
        <ele>326</ele>
        <time>2026-08-30T13:53:42Z</time>
      </trkpt>
      <trkpt lat="48.800289" lon="9.797325">
        <ele>326</ele>
        <time>2026-08-30T13:53:43Z</time>
      </trkpt>
      <trkpt lat="48.800289" lon="9.797325">
        <ele>326</ele>
        <time>2026-08-30T13:53:44Z</time>
      </trkpt>
      <trkpt lat="48.800289" lon="9.797325">
        <ele>326</ele>
        <time>2026-08-30T13:53:45Z</time>
      </trkpt>
      <trkpt lat="48.800289" lon="9.797325">
        <ele>326</ele>
        <time>2026-08-30T13:53:46Z</time>
      </trkpt>
      <trkpt lat="48.800289" lon="9.797325">
        <ele>326</ele>
        <time>2026-08-30T13:53:47Z</time>
      </trkpt>
      <trkpt lat="48.800289" lon="9.797325">
        <ele>326</ele>
        <time>2026-08-30T13:53:48Z</time>
      </trkpt>
      <trkpt lat="48.800289" lon="9.797325">
        <ele>326</ele>
        <time>2026-08-30T13:53:49Z</time>
      </trkpt>
      <trkpt lat="48.800289" lon="9.797325">
        <ele>326</ele>
        <time>2026-08-30T13:53:50Z</time>
      </trkpt>
      <trkpt lat="48.800289" lon="9.797325">
        <ele>326</ele>
        <time>2026-08-30T13:53:51Z</time>
      </trkpt>
      <trkpt lat="48.800289" lon="9.797325">
        <ele>326</ele>
        <time>2026-08-30T13:53:52Z</time>
      </trkpt>
      <trkpt lat="48.800284" lon="9.797336">
        <ele>326</ele>
        <time>2026-08-30T13:53:53Z</time>
      </trkpt>
      <trkpt lat="48.800262" lon="9.797375">
        <ele>326</ele>
        <time>2026-08-30T13:53:54Z</time>
      </trkpt>
      <trkpt lat="48.800258" lon="9.797387">
        <ele>326</ele>
        <time>2026-08-30T13:53:55Z</time>
      </trkpt>
      <trkpt lat="48.800259" lon="9.797388">
        <ele>326</ele>
        <time>2026-08-30T13:53:56Z</time>
      </trkpt>
      <trkpt lat="48.800259" lon="9.797388">
        <ele>326</ele>
        <time>2026-08-30T13:53:57Z</time>
      </trkpt>
      <trkpt lat="48.800259" lon="9.797388">
        <ele>326</ele>
        <time>2026-08-30T13:53:58Z</time>
      </trkpt>
      <trkpt lat="48.800259" lon="9.797388">
        <ele>326</ele>
        <time>2026-08-30T13:53:59Z</time>
      </trkpt>
      <trkpt lat="48.800259" lon="9.797388">
        <ele>326</ele>
        <time>2026-08-30T13:54:00Z</time>
      </trkpt>
      <trkpt lat="48.800259" lon="9.797388">
        <ele>326</ele>
        <time>2026-08-30T13:54:01Z</time>
      </trkpt>
      <trkpt lat="48.800259" lon="9.797388">
        <ele>326</ele>
        <time>2026-08-30T13:54:02Z</time>
      </trkpt>
      <trkpt lat="48.800259" lon="9.797388">
        <ele>326</ele>
        <time>2026-08-30T13:54:03Z</time>
      </trkpt>
      <trkpt lat="48.800259" lon="9.797388">
        <ele>326</ele>
        <time>2026-08-30T13:54:04Z</time>
      </trkpt>
      <trkpt lat="48.800259" lon="9.797388">
        <ele>326</ele>
        <time>2026-08-30T13:54:05Z</time>
      </trkpt>
      <trkpt lat="48.800259" lon="9.797388">
        <ele>326</ele>
        <time>2026-08-30T13:54:06Z</time>
      </trkpt>
      <trkpt lat="48.800262" lon="9.797392">
        <ele>326</ele>
        <time>2026-08-30T13:54:07Z</time>
      </trkpt>
      <trkpt lat="48.800261" lon="9.797396">
        <ele>326</ele>
        <time>2026-08-30T13:54:08Z</time>
      </trkpt>
      <trkpt lat="48.800258" lon="9.797405">
        <ele>326</ele>
        <time>2026-08-30T13:54:09Z</time>
      </trkpt>
      <trkpt lat="48.800254" lon="9.797420">
        <ele>326</ele>
        <time>2026-08-30T13:54:10Z</time>
      </trkpt>
      <trkpt lat="48.800254" lon="9.797437">
        <ele>326</ele>
        <time>2026-08-30T13:54:11Z</time>
      </trkpt>
      <trkpt lat="48.800252" lon="9.797450">
        <ele>326</ele>
        <time>2026-08-30T13:54:12Z</time>
      </trkpt>
      <trkpt lat="48.800249" lon="9.797464">
        <ele>326</ele>
        <time>2026-08-30T13:54:13Z</time>
      </trkpt>
      <trkpt lat="48.800247" lon="9.797476">
        <ele>326</ele>
        <time>2026-08-30T13:54:14Z</time>
      </trkpt>
      <trkpt lat="48.800250" lon="9.797480">
        <ele>326</ele>
        <time>2026-08-30T13:54:15Z</time>
      </trkpt>
      <trkpt lat="48.800253" lon="9.797472">
        <ele>326</ele>
        <time>2026-08-30T13:54:16Z</time>
      </trkpt>
      <trkpt lat="48.800250" lon="9.797467">
        <ele>326</ele>
        <time>2026-08-30T13:54:17Z</time>
      </trkpt>
      <trkpt lat="48.800247" lon="9.797458">
        <ele>326</ele>
        <time>2026-08-30T13:54:18Z</time>
      </trkpt>
      <trkpt lat="48.800239" lon="9.797451">
        <ele>326</ele>
        <time>2026-08-30T13:54:19Z</time>
      </trkpt>
      <trkpt lat="48.800232" lon="9.797447">
        <ele>326</ele>
        <time>2026-08-30T13:54:20Z</time>
      </trkpt>
      <trkpt lat="48.800223" lon="9.797444">
        <ele>326</ele>
        <time>2026-08-30T13:54:21Z</time>
      </trkpt>
      <trkpt lat="48.800212" lon="9.797445">
        <ele>326</ele>
        <time>2026-08-30T13:54:22Z</time>
      </trkpt>
      <trkpt lat="48.800200" lon="9.797445">
        <ele>326</ele>
        <time>2026-08-30T13:54:23Z</time>
      </trkpt>
      <trkpt lat="48.800187" lon="9.797449">
        <ele>326</ele>
        <time>2026-08-30T13:54:24Z</time>
      </trkpt>
      <trkpt lat="48.800176" lon="9.797452">
        <ele>326</ele>
        <time>2026-08-30T13:54:25Z</time>
      </trkpt>
      <trkpt lat="48.800167" lon="9.797456">
        <ele>326.2</ele>
        <time>2026-08-30T13:54:26Z</time>
      </trkpt>
      <trkpt lat="48.800160" lon="9.797459">
        <ele>326.2</ele>
        <time>2026-08-30T13:54:27Z</time>
      </trkpt>
      <trkpt lat="48.800155" lon="9.797459">
        <ele>326.2</ele>
        <time>2026-08-30T13:54:28Z</time>
      </trkpt>
      <trkpt lat="48.800149" lon="9.797464">
        <ele>326.2</ele>
        <time>2026-08-30T13:54:29Z</time>
      </trkpt>
      <trkpt lat="48.800142" lon="9.797472">
        <ele>326.2</ele>
        <time>2026-08-30T13:54:30Z</time>
      </trkpt>
      <trkpt lat="48.800134" lon="9.797481">
        <ele>326.2</ele>
        <time>2026-08-30T13:54:31Z</time>
      </trkpt>
      <trkpt lat="48.800128" lon="9.797489">
        <ele>326.2</ele>
        <time>2026-08-30T13:54:32Z</time>
      </trkpt>
      <trkpt lat="48.800120" lon="9.797498">
        <ele>326.2</ele>
        <time>2026-08-30T13:54:33Z</time>
      </trkpt>
      <trkpt lat="48.800112" lon="9.797504">
        <ele>326.2</ele>
        <time>2026-08-30T13:54:34Z</time>
      </trkpt>
      <trkpt lat="48.800104" lon="9.797508">
        <ele>326.2</ele>
        <time>2026-08-30T13:54:35Z</time>
      </trkpt>
      <trkpt lat="48.800094" lon="9.797510">
        <ele>326.2</ele>
        <time>2026-08-30T13:54:36Z</time>
      </trkpt>
      <trkpt lat="48.800084" lon="9.797506">
        <ele>326.2</ele>
        <time>2026-08-30T13:54:37Z</time>
      </trkpt>
      <trkpt lat="48.800072" lon="9.797501">
        <ele>326.2</ele>
        <time>2026-08-30T13:54:38Z</time>
      </trkpt>
      <trkpt lat="48.800062" lon="9.797496">
        <ele>326</ele>
        <time>2026-08-30T13:54:39Z</time>
      </trkpt>
      <trkpt lat="48.800051" lon="9.797489">
        <ele>326</ele>
        <time>2026-08-30T13:54:40Z</time>
      </trkpt>
      <trkpt lat="48.800041" lon="9.797482">
        <ele>326</ele>
        <time>2026-08-30T13:54:41Z</time>
      </trkpt>
      <trkpt lat="48.800033" lon="9.797473">
        <ele>326</ele>
        <time>2026-08-30T13:54:42Z</time>
      </trkpt>
      <trkpt lat="48.800026" lon="9.797464">
        <ele>326</ele>
        <time>2026-08-30T13:54:43Z</time>
      </trkpt>
      <trkpt lat="48.800019" lon="9.797455">
        <ele>326</ele>
        <time>2026-08-30T13:54:44Z</time>
      </trkpt>
      <trkpt lat="48.800012" lon="9.797445">
        <ele>326</ele>
        <time>2026-08-30T13:54:45Z</time>
      </trkpt>
      <trkpt lat="48.800005" lon="9.797434">
        <ele>326</ele>
        <time>2026-08-30T13:54:46Z</time>
      </trkpt>
      <trkpt lat="48.800000" lon="9.797422">
        <ele>326</ele>
        <time>2026-08-30T13:54:47Z</time>
      </trkpt>
      <trkpt lat="48.799994" lon="9.797415">
        <ele>326</ele>
        <time>2026-08-30T13:54:48Z</time>
      </trkpt>
      <trkpt lat="48.799986" lon="9.797400">
        <ele>326.2</ele>
        <time>2026-08-30T13:54:49Z</time>
      </trkpt>
      <trkpt lat="48.799981" lon="9.797393">
        <ele>326.2</ele>
        <time>2026-08-30T13:54:50Z</time>
      </trkpt>
      <trkpt lat="48.799981" lon="9.797394">
        <ele>326.4</ele>
        <time>2026-08-30T13:54:51Z</time>
      </trkpt>
      <trkpt lat="48.799981" lon="9.797394">
        <ele>326.4</ele>
        <time>2026-08-30T13:54:52Z</time>
      </trkpt>
      <trkpt lat="48.799981" lon="9.797394">
        <ele>326.4</ele>
        <time>2026-08-30T13:54:53Z</time>
      </trkpt>
      <trkpt lat="48.799981" lon="9.797394">
        <ele>326.6</ele>
        <time>2026-08-30T13:54:54Z</time>
      </trkpt>
      <trkpt lat="48.799981" lon="9.797394">
        <ele>326.6</ele>
        <time>2026-08-30T13:54:55Z</time>
      </trkpt>
      <trkpt lat="48.799980" lon="9.797394">
        <ele>326.6</ele>
        <time>2026-08-30T13:54:56Z</time>
      </trkpt>
      <trkpt lat="48.799981" lon="9.797394">
        <ele>326.6</ele>
        <time>2026-08-30T13:54:57Z</time>
      </trkpt>
      <trkpt lat="48.799981" lon="9.797394">
        <ele>326.8</ele>
        <time>2026-08-30T13:54:58Z</time>
      </trkpt>
      <trkpt lat="48.799981" lon="9.797394">
        <ele>326.8</ele>
        <time>2026-08-30T13:54:59Z</time>
      </trkpt>
      <trkpt lat="48.799981" lon="9.797394">
        <ele>326.8</ele>
        <time>2026-08-30T13:55:00Z</time>
      </trkpt>
      <trkpt lat="48.799981" lon="9.797394">
        <ele>326.6</ele>
        <time>2026-08-30T13:55:01Z</time>
      </trkpt>
      <trkpt lat="48.799981" lon="9.797394">
        <ele>326.6</ele>
        <time>2026-08-30T13:55:02Z</time>
      </trkpt>
      <trkpt lat="48.799981" lon="9.797394">
        <ele>326.6</ele>
        <time>2026-08-30T13:55:03Z</time>
      </trkpt>
      <trkpt lat="48.799981" lon="9.797394">
        <ele>326.4</ele>
        <time>2026-08-30T13:55:04Z</time>
      </trkpt>
      <trkpt lat="48.799981" lon="9.797394">
        <ele>326.4</ele>
        <time>2026-08-30T13:55:05Z</time>
      </trkpt>
      <trkpt lat="48.799981" lon="9.797394">
        <ele>326.4</ele>
        <time>2026-08-30T13:55:06Z</time>
      </trkpt>
      <trkpt lat="48.799981" lon="9.797394">
        <ele>326.4</ele>
        <time>2026-08-30T13:55:07Z</time>
      </trkpt>
      <trkpt lat="48.799981" lon="9.797394">
        <ele>326.4</ele>
        <time>2026-08-30T13:55:08Z</time>
      </trkpt>
      <trkpt lat="48.799981" lon="9.797394">
        <ele>326.4</ele>
        <time>2026-08-30T13:55:09Z</time>
      </trkpt>
      <trkpt lat="48.799981" lon="9.797394">
        <ele>326.4</ele>
        <time>2026-08-30T13:55:10Z</time>
      </trkpt>
      <trkpt lat="48.799981" lon="9.797394">
        <ele>326.4</ele>
        <time>2026-08-30T13:55:11Z</time>
      </trkpt>
      <trkpt lat="48.799981" lon="9.797394">
        <ele>326.4</ele>
        <time>2026-08-30T13:55:12Z</time>
      </trkpt>
      <trkpt lat="48.799981" lon="9.797394">
        <ele>326.4</ele>
        <time>2026-08-30T13:55:13Z</time>
      </trkpt>
      <trkpt lat="48.799981" lon="9.797394">
        <ele>326.4</ele>
        <time>2026-08-30T13:55:14Z</time>
      </trkpt>
      <trkpt lat="48.799981" lon="9.797394">
        <ele>326.4</ele>
        <time>2026-08-30T13:55:15Z</time>
      </trkpt>
      <trkpt lat="48.799981" lon="9.797394">
        <ele>326.4</ele>
        <time>2026-08-30T13:55:16Z</time>
      </trkpt>
      <trkpt lat="48.799981" lon="9.797394">
        <ele>326.4</ele>
        <time>2026-08-30T13:55:17Z</time>
      </trkpt>
      <trkpt lat="48.799981" lon="9.797394">
        <ele>326.4</ele>
        <time>2026-08-30T13:55:18Z</time>
      </trkpt>
      <trkpt lat="48.799981" lon="9.797394">
        <ele>326.4</ele>
        <time>2026-08-30T13:55:19Z</time>
      </trkpt>
      <trkpt lat="48.799981" lon="9.797394">
        <ele>326.4</ele>
        <time>2026-08-30T13:55:20Z</time>
      </trkpt>
      <trkpt lat="48.799981" lon="9.797394">
        <ele>326.4</ele>
        <time>2026-08-30T13:55:21Z</time>
      </trkpt>
      <trkpt lat="48.799981" lon="9.797394">
        <ele>326.4</ele>
        <time>2026-08-30T13:55:22Z</time>
      </trkpt>
      <trkpt lat="48.799981" lon="9.797394">
        <ele>326.4</ele>
        <time>2026-08-30T13:55:23Z</time>
      </trkpt>
      <trkpt lat="48.799981" lon="9.797394">
        <ele>326.4</ele>
        <time>2026-08-30T13:55:24Z</time>
      </trkpt>
      <trkpt lat="48.799981" lon="9.797394">
        <ele>326.4</ele>
        <time>2026-08-30T13:55:25Z</time>
      </trkpt>
      <trkpt lat="48.799981" lon="9.797394">
        <ele>326.4</ele>
        <time>2026-08-30T13:55:26Z</time>
      </trkpt>
      <trkpt lat="48.799981" lon="9.797394">
        <ele>326.4</ele>
        <time>2026-08-30T13:55:27Z</time>
      </trkpt>
      <trkpt lat="48.799981" lon="9.797394">
        <ele>326.4</ele>
        <time>2026-08-30T13:55:28Z</time>
      </trkpt>
      <trkpt lat="48.799981" lon="9.797394">
        <ele>326.4</ele>
        <time>2026-08-30T13:55:29Z</time>
      </trkpt>
      <trkpt lat="48.799981" lon="9.797394">
        <ele>326.4</ele>
        <time>2026-08-30T13:55:30Z</time>
      </trkpt>
      <trkpt lat="48.799981" lon="9.797394">
        <ele>326.4</ele>
        <time>2026-08-30T13:55:31Z</time>
      </trkpt>
      <trkpt lat="48.799981" lon="9.797394">
        <ele>326.4</ele>
        <time>2026-08-30T13:55:32Z</time>
      </trkpt>
      <trkpt lat="48.799981" lon="9.797394">
        <ele>326.4</ele>
        <time>2026-08-30T13:55:33Z</time>
      </trkpt>
      <trkpt lat="48.799981" lon="9.797394">
        <ele>326.4</ele>
        <time>2026-08-30T13:55:34Z</time>
      </trkpt>
      <trkpt lat="48.799981" lon="9.797394">
        <ele>326.4</ele>
        <time>2026-08-30T13:55:35Z</time>
      </trkpt>
      <trkpt lat="48.799981" lon="9.797394">
        <ele>326.4</ele>
        <time>2026-08-30T13:55:36Z</time>
      </trkpt>
      <trkpt lat="48.799981" lon="9.797394">
        <ele>326.4</ele>
        <time>2026-08-30T13:55:37Z</time>
      </trkpt>
      <trkpt lat="48.799981" lon="9.797394">
        <ele>326.4</ele>
        <time>2026-08-30T13:55:38Z</time>
      </trkpt>
      <trkpt lat="48.799981" lon="9.797394">
        <ele>326.4</ele>
        <time>2026-08-30T13:55:39Z</time>
      </trkpt>
      <trkpt lat="48.799981" lon="9.797394">
        <ele>326.4</ele>
        <time>2026-08-30T13:55:40Z</time>
      </trkpt>
      <trkpt lat="48.799981" lon="9.797394">
        <ele>326.4</ele>
        <time>2026-08-30T13:55:41Z</time>
      </trkpt>
      <trkpt lat="48.799981" lon="9.797394">
        <ele>326.4</ele>
        <time>2026-08-30T13:55:42Z</time>
      </trkpt>
      <trkpt lat="48.799981" lon="9.797394">
        <ele>326.4</ele>
        <time>2026-08-30T13:55:43Z</time>
      </trkpt>
      <trkpt lat="48.799981" lon="9.797394">
        <ele>326.4</ele>
        <time>2026-08-30T13:55:44Z</time>
      </trkpt>
      <trkpt lat="48.799981" lon="9.797394">
        <ele>326.4</ele>
        <time>2026-08-30T13:55:45Z</time>
      </trkpt>
      <trkpt lat="48.799981" lon="9.797394">
        <ele>326.4</ele>
        <time>2026-08-30T13:55:46Z</time>
      </trkpt>
      <trkpt lat="48.799981" lon="9.797394">
        <ele>326.4</ele>
        <time>2026-08-30T13:55:47Z</time>
      </trkpt>
      <trkpt lat="48.799981" lon="9.797394">
        <ele>326.4</ele>
        <time>2026-08-30T13:55:48Z</time>
      </trkpt>
      <trkpt lat="48.799981" lon="9.797394">
        <ele>326.4</ele>
        <time>2026-08-30T13:55:49Z</time>
      </trkpt>
      <trkpt lat="48.799981" lon="9.797394">
        <ele>326.4</ele>
        <time>2026-08-30T13:55:50Z</time>
      </trkpt>
      <trkpt lat="48.799981" lon="9.797394">
        <ele>326.4</ele>
        <time>2026-08-30T13:55:51Z</time>
      </trkpt>
      <trkpt lat="48.799981" lon="9.797394">
        <ele>326.4</ele>
        <time>2026-08-30T13:55:52Z</time>
      </trkpt>
      <trkpt lat="48.799981" lon="9.797394">
        <ele>326.4</ele>
        <time>2026-08-30T13:55:53Z</time>
      </trkpt>
      <trkpt lat="48.799981" lon="9.797394">
        <ele>326.4</ele>
        <time>2026-08-30T13:55:54Z</time>
      </trkpt>
      <trkpt lat="48.799981" lon="9.797394">
        <ele>326.4</ele>
        <time>2026-08-30T13:55:55Z</time>
      </trkpt>
      <trkpt lat="48.799981" lon="9.797394">
        <ele>326.4</ele>
        <time>2026-08-30T13:55:56Z</time>
      </trkpt>
      <trkpt lat="48.799981" lon="9.797394">
        <ele>326.4</ele>
        <time>2026-08-30T13:55:57Z</time>
      </trkpt>
      <trkpt lat="48.799981" lon="9.797394">
        <ele>326.4</ele>
        <time>2026-08-30T13:55:58Z</time>
      </trkpt>
      <trkpt lat="48.799981" lon="9.797394">
        <ele>326.4</ele>
        <time>2026-08-30T13:55:59Z</time>
      </trkpt>
      <trkpt lat="48.799981" lon="9.797394">
        <ele>326.4</ele>
        <time>2026-08-30T13:56:00Z</time>
      </trkpt>
      <trkpt lat="48.799981" lon="9.797394">
        <ele>326.4</ele>
        <time>2026-08-30T13:56:01Z</time>
      </trkpt>
      <trkpt lat="48.799981" lon="9.797394">
        <ele>326.4</ele>
        <time>2026-08-30T13:56:02Z</time>
      </trkpt>
      <trkpt lat="48.799981" lon="9.797394">
        <ele>326.4</ele>
        <time>2026-08-30T13:56:03Z</time>
      </trkpt>
      <trkpt lat="48.799981" lon="9.797394">
        <ele>326.4</ele>
        <time>2026-08-30T13:56:04Z</time>
      </trkpt>
      <trkpt lat="48.799981" lon="9.797394">
        <ele>326.4</ele>
        <time>2026-08-30T13:56:05Z</time>
      </trkpt>
      <trkpt lat="48.799981" lon="9.797394">
        <ele>326.4</ele>
        <time>2026-08-30T13:56:06Z</time>
      </trkpt>
      <trkpt lat="48.799981" lon="9.797394">
        <ele>326.4</ele>
        <time>2026-08-30T13:56:07Z</time>
      </trkpt>
      <trkpt lat="48.799981" lon="9.797394">
        <ele>326.4</ele>
        <time>2026-08-30T13:56:08Z</time>
      </trkpt>
      <trkpt lat="48.799981" lon="9.797394">
        <ele>326.4</ele>
        <time>2026-08-30T13:56:09Z</time>
      </trkpt>
      <trkpt lat="48.799981" lon="9.797394">
        <ele>326.4</ele>
        <time>2026-08-30T13:56:10Z</time>
      </trkpt>
      <trkpt lat="48.799981" lon="9.797394">
        <ele>326.4</ele>
        <time>2026-08-30T13:56:11Z</time>
      </trkpt>
      <trkpt lat="48.799981" lon="9.797394">
        <ele>326.4</ele>
        <time>2026-08-30T13:56:12Z</time>
      </trkpt>
      <trkpt lat="48.799981" lon="9.797394">
        <ele>326.4</ele>
        <time>2026-08-30T13:56:13Z</time>
      </trkpt>
      <trkpt lat="48.799981" lon="9.797394">
        <ele>326.4</ele>
        <time>2026-08-30T13:56:14Z</time>
      </trkpt>
      <trkpt lat="48.799981" lon="9.797394">
        <ele>326.4</ele>
        <time>2026-08-30T13:56:15Z</time>
      </trkpt>
      <trkpt lat="48.799981" lon="9.797394">
        <ele>326.4</ele>
        <time>2026-08-30T13:56:16Z</time>
      </trkpt>
      <trkpt lat="48.799981" lon="9.797394">
        <ele>326.4</ele>
        <time>2026-08-30T13:56:17Z</time>
      </trkpt>
      <trkpt lat="48.799981" lon="9.797394">
        <ele>326.4</ele>
        <time>2026-08-30T13:56:18Z</time>
      </trkpt>
      <trkpt lat="48.799981" lon="9.797394">
        <ele>326.4</ele>
        <time>2026-08-30T13:56:19Z</time>
      </trkpt>
      <trkpt lat="48.799981" lon="9.797394">
        <ele>326.4</ele>
        <time>2026-08-30T13:56:20Z</time>
      </trkpt>
      <trkpt lat="48.799981" lon="9.797394">
        <ele>326.4</ele>
        <time>2026-08-30T13:56:21Z</time>
      </trkpt>
      <trkpt lat="48.799981" lon="9.797394">
        <ele>326.4</ele>
        <time>2026-08-30T13:56:22Z</time>
      </trkpt>
      <trkpt lat="48.799981" lon="9.797394">
        <ele>326.4</ele>
        <time>2026-08-30T13:56:23Z</time>
      </trkpt>
      <trkpt lat="48.799981" lon="9.797394">
        <ele>326.4</ele>
        <time>2026-08-30T13:56:24Z</time>
      </trkpt>
      <trkpt lat="48.799981" lon="9.797394">
        <ele>326.4</ele>
        <time>2026-08-30T13:56:25Z</time>
      </trkpt>
      <trkpt lat="48.799981" lon="9.797394">
        <ele>326.4</ele>
        <time>2026-08-30T13:56:26Z</time>
      </trkpt>
      <trkpt lat="48.799981" lon="9.797394">
        <ele>326.4</ele>
        <time>2026-08-30T13:56:27Z</time>
      </trkpt>
      <trkpt lat="48.799981" lon="9.797394">
        <ele>326.4</ele>
        <time>2026-08-30T13:56:28Z</time>
      </trkpt>
      <trkpt lat="48.799981" lon="9.797394">
        <ele>326.4</ele>
        <time>2026-08-30T13:56:29Z</time>
      </trkpt>
      <trkpt lat="48.799981" lon="9.797394">
        <ele>326.4</ele>
        <time>2026-08-30T13:56:30Z</time>
      </trkpt>
      <trkpt lat="48.799981" lon="9.797394">
        <ele>326.4</ele>
        <time>2026-08-30T13:56:31Z</time>
      </trkpt>
      <trkpt lat="48.799981" lon="9.797394">
        <ele>326.4</ele>
        <time>2026-08-30T13:56:32Z</time>
      </trkpt>
      <trkpt lat="48.799981" lon="9.797394">
        <ele>326.4</ele>
        <time>2026-08-30T13:56:33Z</time>
      </trkpt>
      <trkpt lat="48.799981" lon="9.797394">
        <ele>326.4</ele>
        <time>2026-08-30T13:56:34Z</time>
      </trkpt>
      <trkpt lat="48.799981" lon="9.797394">
        <ele>326.4</ele>
        <time>2026-08-30T13:56:35Z</time>
      </trkpt>
      <trkpt lat="48.799981" lon="9.797394">
        <ele>326.4</ele>
        <time>2026-08-30T13:56:36Z</time>
      </trkpt>
      <trkpt lat="48.799981" lon="9.797394">
        <ele>326.4</ele>
        <time>2026-08-30T13:56:37Z</time>
      </trkpt>
      <trkpt lat="48.799981" lon="9.797394">
        <ele>326.4</ele>
        <time>2026-08-30T13:56:38Z</time>
      </trkpt>
      <trkpt lat="48.799981" lon="9.797394">
        <ele>326.4</ele>
        <time>2026-08-30T13:56:39Z</time>
      </trkpt>
      <trkpt lat="48.799981" lon="9.797394">
        <ele>326.4</ele>
        <time>2026-08-30T13:56:40Z</time>
      </trkpt>
      <trkpt lat="48.799981" lon="9.797394">
        <ele>326.4</ele>
        <time>2026-08-30T13:56:41Z</time>
      </trkpt>
      <trkpt lat="48.799981" lon="9.797394">
        <ele>326.4</ele>
        <time>2026-08-30T13:56:42Z</time>
      </trkpt>
      <trkpt lat="48.799981" lon="9.797394">
        <ele>326.4</ele>
        <time>2026-08-30T13:56:43Z</time>
      </trkpt>
      <trkpt lat="48.799981" lon="9.797394">
        <ele>326.4</ele>
        <time>2026-08-30T13:56:44Z</time>
      </trkpt>
      <trkpt lat="48.799981" lon="9.797394">
        <ele>326.4</ele>
        <time>2026-08-30T13:56:45Z</time>
      </trkpt>
      <trkpt lat="48.799981" lon="9.797394">
        <ele>326.4</ele>
        <time>2026-08-30T13:56:46Z</time>
      </trkpt>
      <trkpt lat="48.799981" lon="9.797394">
        <ele>326.4</ele>
        <time>2026-08-30T13:56:47Z</time>
      </trkpt>
      <trkpt lat="48.799981" lon="9.797394">
        <ele>326.4</ele>
        <time>2026-08-30T13:56:48Z</time>
      </trkpt>
      <trkpt lat="48.799981" lon="9.797394">
        <ele>326.4</ele>
        <time>2026-08-30T13:56:49Z</time>
      </trkpt>
      <trkpt lat="48.799981" lon="9.797394">
        <ele>326.4</ele>
        <time>2026-08-30T13:56:50Z</time>
      </trkpt>
      <trkpt lat="48.799981" lon="9.797394">
        <ele>326.4</ele>
        <time>2026-08-30T13:56:51Z</time>
      </trkpt>
      <trkpt lat="48.799981" lon="9.797394">
        <ele>326.4</ele>
        <time>2026-08-30T13:56:52Z</time>
      </trkpt>
      <trkpt lat="48.799981" lon="9.797394">
        <ele>326.4</ele>
        <time>2026-08-30T13:56:53Z</time>
      </trkpt>
      <trkpt lat="48.799981" lon="9.797394">
        <ele>326.4</ele>
        <time>2026-08-30T13:56:54Z</time>
      </trkpt>
      <trkpt lat="48.799981" lon="9.797394">
        <ele>326.4</ele>
        <time>2026-08-30T13:56:55Z</time>
      </trkpt>
      <trkpt lat="48.799981" lon="9.797394">
        <ele>326.4</ele>
        <time>2026-08-30T13:56:56Z</time>
      </trkpt>
      <trkpt lat="48.799981" lon="9.797394">
        <ele>326.4</ele>
        <time>2026-08-30T13:56:57Z</time>
      </trkpt>
      <trkpt lat="48.799981" lon="9.797394">
        <ele>326.4</ele>
        <time>2026-08-30T13:56:58Z</time>
      </trkpt>
      <trkpt lat="48.799981" lon="9.797394">
        <ele>326.4</ele>
        <time>2026-08-30T13:56:59Z</time>
      </trkpt>
      <trkpt lat="48.799981" lon="9.797394">
        <ele>326.4</ele>
        <time>2026-08-30T13:57:00Z</time>
      </trkpt>
      <trkpt lat="48.799981" lon="9.797394">
        <ele>326.4</ele>
        <time>2026-08-30T13:57:01Z</time>
      </trkpt>
      <trkpt lat="48.799981" lon="9.797394">
        <ele>326.4</ele>
        <time>2026-08-30T13:57:02Z</time>
      </trkpt>
      <trkpt lat="48.799981" lon="9.797394">
        <ele>326.4</ele>
        <time>2026-08-30T13:57:03Z</time>
      </trkpt>
      <trkpt lat="48.799981" lon="9.797394">
        <ele>326.4</ele>
        <time>2026-08-30T13:57:04Z</time>
      </trkpt>
      <trkpt lat="48.799981" lon="9.797394">
        <ele>326.4</ele>
        <time>2026-08-30T13:57:05Z</time>
      </trkpt>
      <trkpt lat="48.799981" lon="9.797394">
        <ele>326.4</ele>
        <time>2026-08-30T13:57:06Z</time>
      </trkpt>
      <trkpt lat="48.799981" lon="9.797394">
        <ele>326.4</ele>
        <time>2026-08-30T13:57:07Z</time>
      </trkpt>
      <trkpt lat="48.799981" lon="9.797394">
        <ele>326.4</ele>
        <time>2026-08-30T13:57:08Z</time>
      </trkpt>
      <trkpt lat="48.799981" lon="9.797394">
        <ele>326.4</ele>
        <time>2026-08-30T13:57:09Z</time>
      </trkpt>
      <trkpt lat="48.799981" lon="9.797394">
        <ele>326.4</ele>
        <time>2026-08-30T13:57:10Z</time>
      </trkpt>
      <trkpt lat="48.799981" lon="9.797394">
        <ele>326.4</ele>
        <time>2026-08-30T13:57:11Z</time>
      </trkpt>
      <trkpt lat="48.799981" lon="9.797394">
        <ele>326.4</ele>
        <time>2026-08-30T13:57:12Z</time>
      </trkpt>
      <trkpt lat="48.799981" lon="9.797394">
        <ele>326.4</ele>
        <time>2026-08-30T13:57:13Z</time>
      </trkpt>
      <trkpt lat="48.799981" lon="9.797394">
        <ele>326.4</ele>
        <time>2026-08-30T13:57:14Z</time>
      </trkpt>
      <trkpt lat="48.799981" lon="9.797394">
        <ele>326.4</ele>
        <time>2026-08-30T13:57:15Z</time>
      </trkpt>
      <trkpt lat="48.799981" lon="9.797394">
        <ele>326.4</ele>
        <time>2026-08-30T13:57:16Z</time>
      </trkpt>
      <trkpt lat="48.799981" lon="9.797394">
        <ele>326.4</ele>
        <time>2026-08-30T13:57:17Z</time>
      </trkpt>
      <trkpt lat="48.799981" lon="9.797394">
        <ele>326.4</ele>
        <time>2026-08-30T13:57:18Z</time>
      </trkpt>
      <trkpt lat="48.799981" lon="9.797394">
        <ele>326.4</ele>
        <time>2026-08-30T13:57:19Z</time>
      </trkpt>
      <trkpt lat="48.799981" lon="9.797394">
        <ele>326.4</ele>
        <time>2026-08-30T13:57:20Z</time>
      </trkpt>
      <trkpt lat="48.799981" lon="9.797394">
        <ele>326.4</ele>
        <time>2026-08-30T13:57:21Z</time>
      </trkpt>
      <trkpt lat="48.799981" lon="9.797394">
        <ele>326.4</ele>
        <time>2026-08-30T13:57:22Z</time>
      </trkpt>
      <trkpt lat="48.799981" lon="9.797394">
        <ele>326.4</ele>
        <time>2026-08-30T13:57:23Z</time>
      </trkpt>
      <trkpt lat="48.799981" lon="9.797394">
        <ele>326.4</ele>
        <time>2026-08-30T13:57:24Z</time>
      </trkpt>
      <trkpt lat="48.799981" lon="9.797394">
        <ele>326.4</ele>
        <time>2026-08-30T13:57:25Z</time>
      </trkpt>
      <trkpt lat="48.799981" lon="9.797394">
        <ele>326.4</ele>
        <time>2026-08-30T13:57:26Z</time>
      </trkpt>
      <trkpt lat="48.799981" lon="9.797394">
        <ele>326.4</ele>
        <time>2026-08-30T13:57:27Z</time>
      </trkpt>
      <trkpt lat="48.799981" lon="9.797394">
        <ele>326.4</ele>
        <time>2026-08-30T13:57:28Z</time>
      </trkpt>
      <trkpt lat="48.799981" lon="9.797394">
        <ele>326.4</ele>
        <time>2026-08-30T13:57:29Z</time>
      </trkpt>
      <trkpt lat="48.799981" lon="9.797394">
        <ele>326.4</ele>
        <time>2026-08-30T13:57:30Z</time>
      </trkpt>
      <trkpt lat="48.799981" lon="9.797394">
        <ele>326.4</ele>
        <time>2026-08-30T13:57:31Z</time>
      </trkpt>
      <trkpt lat="48.799981" lon="9.797394">
        <ele>326.4</ele>
        <time>2026-08-30T13:57:32Z</time>
      </trkpt>
      <trkpt lat="48.799981" lon="9.797394">
        <ele>326.4</ele>
        <time>2026-08-30T13:57:33Z</time>
      </trkpt>
      <trkpt lat="48.799981" lon="9.797394">
        <ele>326.4</ele>
        <time>2026-08-30T13:57:34Z</time>
      </trkpt>
      <trkpt lat="48.799981" lon="9.797394">
        <ele>326.4</ele>
        <time>2026-08-30T13:57:35Z</time>
      </trkpt>
      <trkpt lat="48.799981" lon="9.797394">
        <ele>326.4</ele>
        <time>2026-08-30T13:57:36Z</time>
      </trkpt>
      <trkpt lat="48.799981" lon="9.797394">
        <ele>326.4</ele>
        <time>2026-08-30T13:57:37Z</time>
      </trkpt>
      <trkpt lat="48.799981" lon="9.797394">
        <ele>326.4</ele>
        <time>2026-08-30T13:57:38Z</time>
      </trkpt>
      <trkpt lat="48.799981" lon="9.797394">
        <ele>326.4</ele>
        <time>2026-08-30T13:57:39Z</time>
      </trkpt>
      <trkpt lat="48.799981" lon="9.797394">
        <ele>326.4</ele>
        <time>2026-08-30T13:57:40Z</time>
      </trkpt>
      <trkpt lat="48.799981" lon="9.797394">
        <ele>326.4</ele>
        <time>2026-08-30T13:57:41Z</time>
      </trkpt>
      <trkpt lat="48.799981" lon="9.797394">
        <ele>326.4</ele>
        <time>2026-08-30T13:57:42Z</time>
      </trkpt>
      <trkpt lat="48.799981" lon="9.797394">
        <ele>326.4</ele>
        <time>2026-08-30T13:57:43Z</time>
      </trkpt>
      <trkpt lat="48.799981" lon="9.797394">
        <ele>326.4</ele>
        <time>2026-08-30T13:57:44Z</time>
      </trkpt>
      <trkpt lat="48.799981" lon="9.797394">
        <ele>326.4</ele>
        <time>2026-08-30T13:57:45Z</time>
      </trkpt>
      <trkpt lat="48.799981" lon="9.797394">
        <ele>326.4</ele>
        <time>2026-08-30T13:57:46Z</time>
      </trkpt>
      <trkpt lat="48.799981" lon="9.797394">
        <ele>326.4</ele>
        <time>2026-08-30T13:57:47Z</time>
      </trkpt>
      <trkpt lat="48.799981" lon="9.797394">
        <ele>326.4</ele>
        <time>2026-08-30T13:57:48Z</time>
      </trkpt>
      <trkpt lat="48.799981" lon="9.797394">
        <ele>326.4</ele>
        <time>2026-08-30T13:57:49Z</time>
      </trkpt>
      <trkpt lat="48.799981" lon="9.797394">
        <ele>326.4</ele>
        <time>2026-08-30T13:57:50Z</time>
      </trkpt>
      <trkpt lat="48.799981" lon="9.797394">
        <ele>326.4</ele>
        <time>2026-08-30T13:57:51Z</time>
      </trkpt>
      <trkpt lat="48.799981" lon="9.797394">
        <ele>326.4</ele>
        <time>2026-08-30T13:57:52Z</time>
      </trkpt>
      <trkpt lat="48.799981" lon="9.797394">
        <ele>326.4</ele>
        <time>2026-08-30T13:57:53Z</time>
      </trkpt>
      <trkpt lat="48.799981" lon="9.797394">
        <ele>326.4</ele>
        <time>2026-08-30T13:57:54Z</time>
      </trkpt>
      <trkpt lat="48.799981" lon="9.797394">
        <ele>326.4</ele>
        <time>2026-08-30T13:57:55Z</time>
      </trkpt>
      <trkpt lat="48.799981" lon="9.797394">
        <ele>326.4</ele>
        <time>2026-08-30T13:57:56Z</time>
      </trkpt>
      <trkpt lat="48.799981" lon="9.797394">
        <ele>326.4</ele>
        <time>2026-08-30T13:57:57Z</time>
      </trkpt>
      <trkpt lat="48.799981" lon="9.797394">
        <ele>326.4</ele>
        <time>2026-08-30T13:57:58Z</time>
      </trkpt>
      <trkpt lat="48.799981" lon="9.797394">
        <ele>326.4</ele>
        <time>2026-08-30T13:57:59Z</time>
      </trkpt>
      <trkpt lat="48.799981" lon="9.797394">
        <ele>326.4</ele>
        <time>2026-08-30T13:58:00Z</time>
      </trkpt>
      <trkpt lat="48.799981" lon="9.797394">
        <ele>326.4</ele>
        <time>2026-08-30T13:58:01Z</time>
      </trkpt>
      <trkpt lat="48.799981" lon="9.797394">
        <ele>326.4</ele>
        <time>2026-08-30T13:58:02Z</time>
      </trkpt>
      <trkpt lat="48.799981" lon="9.797394">
        <ele>326.4</ele>
        <time>2026-08-30T13:58:03Z</time>
      </trkpt>
      <trkpt lat="48.799981" lon="9.797394">
        <ele>326.4</ele>
        <time>2026-08-30T13:58:04Z</time>
      </trkpt>
      <trkpt lat="48.799981" lon="9.797394">
        <ele>326.4</ele>
        <time>2026-08-30T13:58:05Z</time>
      </trkpt>
      <trkpt lat="48.799981" lon="9.797394">
        <ele>326.4</ele>
        <time>2026-08-30T13:58:06Z</time>
      </trkpt>
      <trkpt lat="48.799981" lon="9.797394">
        <ele>326.4</ele>
        <time>2026-08-30T13:58:07Z</time>
      </trkpt>
      <trkpt lat="48.799981" lon="9.797394">
        <ele>326.4</ele>
        <time>2026-08-30T13:58:08Z</time>
      </trkpt>
      <trkpt lat="48.799981" lon="9.797394">
        <ele>326.4</ele>
        <time>2026-08-30T13:58:09Z</time>
      </trkpt>
      <trkpt lat="48.799981" lon="9.797394">
        <ele>326.4</ele>
        <time>2026-08-30T13:58:10Z</time>
      </trkpt>
      <trkpt lat="48.799981" lon="9.797394">
        <ele>326.4</ele>
        <time>2026-08-30T13:58:11Z</time>
      </trkpt>
      <trkpt lat="48.799981" lon="9.797394">
        <ele>326.4</ele>
        <time>2026-08-30T13:58:12Z</time>
      </trkpt>
      <trkpt lat="48.799981" lon="9.797394">
        <ele>326.4</ele>
        <time>2026-08-30T13:58:13Z</time>
      </trkpt>
      <trkpt lat="48.799981" lon="9.797394">
        <ele>326.4</ele>
        <time>2026-08-30T13:58:14Z</time>
      </trkpt>
      <trkpt lat="48.799981" lon="9.797394">
        <ele>326.4</ele>
        <time>2026-08-30T13:58:15Z</time>
      </trkpt>
      <trkpt lat="48.799981" lon="9.797394">
        <ele>326.4</ele>
        <time>2026-08-30T13:58:16Z</time>
      </trkpt>
      <trkpt lat="48.799981" lon="9.797394">
        <ele>326.4</ele>
        <time>2026-08-30T13:58:17Z</time>
      </trkpt>
      <trkpt lat="48.799981" lon="9.797394">
        <ele>326.4</ele>
        <time>2026-08-30T13:58:18Z</time>
      </trkpt>
      <trkpt lat="48.799981" lon="9.797394">
        <ele>326.4</ele>
        <time>2026-08-30T13:58:19Z</time>
      </trkpt>
      <trkpt lat="48.799981" lon="9.797394">
        <ele>326.4</ele>
        <time>2026-08-30T13:58:20Z</time>
      </trkpt>
      <trkpt lat="48.799981" lon="9.797394">
        <ele>326.4</ele>
        <time>2026-08-30T13:58:21Z</time>
      </trkpt>
      <trkpt lat="48.799981" lon="9.797394">
        <ele>326.4</ele>
        <time>2026-08-30T13:58:22Z</time>
      </trkpt>
      <trkpt lat="48.799981" lon="9.797394">
        <ele>326.4</ele>
        <time>2026-08-30T13:58:23Z</time>
      </trkpt>
      <trkpt lat="48.799981" lon="9.797394">
        <ele>326.4</ele>
        <time>2026-08-30T13:58:24Z</time>
      </trkpt>
      <trkpt lat="48.799981" lon="9.797394">
        <ele>326.4</ele>
        <time>2026-08-30T13:58:25Z</time>
      </trkpt>
      <trkpt lat="48.799981" lon="9.797394">
        <ele>326.4</ele>
        <time>2026-08-30T13:58:26Z</time>
      </trkpt>
      <trkpt lat="48.799981" lon="9.797394">
        <ele>326.4</ele>
        <time>2026-08-30T13:58:27Z</time>
      </trkpt>
      <trkpt lat="48.799981" lon="9.797394">
        <ele>326.4</ele>
        <time>2026-08-30T13:58:28Z</time>
      </trkpt>
      <trkpt lat="48.799981" lon="9.797394">
        <ele>326.4</ele>
        <time>2026-08-30T13:58:29Z</time>
      </trkpt>
      <trkpt lat="48.799981" lon="9.797394">
        <ele>326.4</ele>
        <time>2026-08-30T13:58:30Z</time>
      </trkpt>
      <trkpt lat="48.799981" lon="9.797394">
        <ele>326.4</ele>
        <time>2026-08-30T13:58:31Z</time>
      </trkpt>
      <trkpt lat="48.799981" lon="9.797394">
        <ele>326.4</ele>
        <time>2026-08-30T13:58:32Z</time>
      </trkpt>
      <trkpt lat="48.799981" lon="9.797394">
        <ele>326.4</ele>
        <time>2026-08-30T13:58:33Z</time>
      </trkpt>
      <trkpt lat="48.799981" lon="9.797394">
        <ele>326.4</ele>
        <time>2026-08-30T13:58:34Z</time>
      </trkpt>
      <trkpt lat="48.799981" lon="9.797394">
        <ele>326.4</ele>
        <time>2026-08-30T13:58:35Z</time>
      </trkpt>
      <trkpt lat="48.799981" lon="9.797394">
        <ele>326.4</ele>
        <time>2026-08-30T13:58:36Z</time>
      </trkpt>
      <trkpt lat="48.799981" lon="9.797394">
        <ele>326.4</ele>
        <time>2026-08-30T13:58:37Z</time>
      </trkpt>
      <trkpt lat="48.799981" lon="9.797394">
        <ele>326.4</ele>
        <time>2026-08-30T13:58:38Z</time>
      </trkpt>
      <trkpt lat="48.799981" lon="9.797394">
        <ele>326.4</ele>
        <time>2026-08-30T13:58:39Z</time>
      </trkpt>
      <trkpt lat="48.799981" lon="9.797394">
        <ele>326.4</ele>
        <time>2026-08-30T13:58:40Z</time>
      </trkpt>
      <trkpt lat="48.799981" lon="9.797394">
        <ele>326.4</ele>
        <time>2026-08-30T13:58:41Z</time>
      </trkpt>
      <trkpt lat="48.799981" lon="9.797394">
        <ele>326.4</ele>
        <time>2026-08-30T13:58:42Z</time>
      </trkpt>
      <trkpt lat="48.799981" lon="9.797394">
        <ele>326.4</ele>
        <time>2026-08-30T13:58:43Z</time>
      </trkpt>
      <trkpt lat="48.799981" lon="9.797394">
        <ele>326.4</ele>
        <time>2026-08-30T13:58:44Z</time>
      </trkpt>
      <trkpt lat="48.799981" lon="9.797394">
        <ele>326.4</ele>
        <time>2026-08-30T13:58:45Z</time>
      </trkpt>
      <trkpt lat="48.799981" lon="9.797394">
        <ele>326.4</ele>
        <time>2026-08-30T13:58:46Z</time>
      </trkpt>
      <trkpt lat="48.799981" lon="9.797394">
        <ele>326.4</ele>
        <time>2026-08-30T13:58:47Z</time>
      </trkpt>
      <trkpt lat="48.799981" lon="9.797394">
        <ele>326.4</ele>
        <time>2026-08-30T13:58:48Z</time>
      </trkpt>
      <trkpt lat="48.799981" lon="9.797394">
        <ele>326.4</ele>
        <time>2026-08-30T13:58:49Z</time>
      </trkpt>
      <trkpt lat="48.799981" lon="9.797394">
        <ele>326.4</ele>
        <time>2026-08-30T13:58:50Z</time>
      </trkpt>
      <trkpt lat="48.799981" lon="9.797394">
        <ele>326.4</ele>
        <time>2026-08-30T13:58:51Z</time>
      </trkpt>
      <trkpt lat="48.799981" lon="9.797394">
        <ele>326.4</ele>
        <time>2026-08-30T13:58:52Z</time>
      </trkpt>
      <trkpt lat="48.799981" lon="9.797394">
        <ele>326.4</ele>
        <time>2026-08-30T13:58:53Z</time>
      </trkpt>
      <trkpt lat="48.799981" lon="9.797394">
        <ele>326.4</ele>
        <time>2026-08-30T13:58:54Z</time>
      </trkpt>
      <trkpt lat="48.799981" lon="9.797394">
        <ele>326.4</ele>
        <time>2026-08-30T13:58:55Z</time>
      </trkpt>
      <trkpt lat="48.799981" lon="9.797394">
        <ele>326.4</ele>
        <time>2026-08-30T13:58:56Z</time>
      </trkpt>
      <trkpt lat="48.799981" lon="9.797394">
        <ele>326.4</ele>
        <time>2026-08-30T13:58:57Z</time>
      </trkpt>
      <trkpt lat="48.799981" lon="9.797394">
        <ele>326.4</ele>
        <time>2026-08-30T13:58:58Z</time>
      </trkpt>
      <trkpt lat="48.799981" lon="9.797394">
        <ele>326.4</ele>
        <time>2026-08-30T13:58:59Z</time>
      </trkpt>
      <trkpt lat="48.799981" lon="9.797394">
        <ele>326.4</ele>
        <time>2026-08-30T13:59:00Z</time>
      </trkpt>
      <trkpt lat="48.799981" lon="9.797394">
        <ele>326.4</ele>
        <time>2026-08-30T13:59:01Z</time>
      </trkpt>
      <trkpt lat="48.799981" lon="9.797394">
        <ele>326.4</ele>
        <time>2026-08-30T13:59:02Z</time>
      </trkpt>
      <trkpt lat="48.799981" lon="9.797394">
        <ele>326.4</ele>
        <time>2026-08-30T13:59:03Z</time>
      </trkpt>
      <trkpt lat="48.799981" lon="9.797394">
        <ele>326.4</ele>
        <time>2026-08-30T13:59:04Z</time>
      </trkpt>
      <trkpt lat="48.799981" lon="9.797394">
        <ele>326.4</ele>
        <time>2026-08-30T13:59:05Z</time>
      </trkpt>
      <trkpt lat="48.799981" lon="9.797394">
        <ele>326.4</ele>
        <time>2026-08-30T13:59:06Z</time>
      </trkpt>
      <trkpt lat="48.799981" lon="9.797394">
        <ele>326.4</ele>
        <time>2026-08-30T13:59:07Z</time>
      </trkpt>
      <trkpt lat="48.799981" lon="9.797394">
        <ele>326.4</ele>
        <time>2026-08-30T13:59:08Z</time>
      </trkpt>
      <trkpt lat="48.799981" lon="9.797394">
        <ele>326.4</ele>
        <time>2026-08-30T13:59:09Z</time>
      </trkpt>
      <trkpt lat="48.799981" lon="9.797394">
        <ele>326.4</ele>
        <time>2026-08-30T13:59:10Z</time>
      </trkpt>
      <trkpt lat="48.799981" lon="9.797394">
        <ele>326.4</ele>
        <time>2026-08-30T13:59:11Z</time>
      </trkpt>
      <trkpt lat="48.799981" lon="9.797394">
        <ele>326.4</ele>
        <time>2026-08-30T13:59:12Z</time>
      </trkpt>
      <trkpt lat="48.799981" lon="9.797394">
        <ele>326.4</ele>
        <time>2026-08-30T13:59:13Z</time>
      </trkpt>
      <trkpt lat="48.799981" lon="9.797394">
        <ele>326.4</ele>
        <time>2026-08-30T13:59:14Z</time>
      </trkpt>
      <trkpt lat="48.799981" lon="9.797394">
        <ele>326.4</ele>
        <time>2026-08-30T13:59:15Z</time>
      </trkpt>
      <trkpt lat="48.799981" lon="9.797394">
        <ele>326.4</ele>
        <time>2026-08-30T13:59:16Z</time>
      </trkpt>
      <trkpt lat="48.799981" lon="9.797394">
        <ele>326.4</ele>
        <time>2026-08-30T13:59:17Z</time>
      </trkpt>
      <trkpt lat="48.799981" lon="9.797394">
        <ele>326.4</ele>
        <time>2026-08-30T13:59:18Z</time>
      </trkpt>
      <trkpt lat="48.799981" lon="9.797394">
        <ele>326.4</ele>
        <time>2026-08-30T13:59:19Z</time>
      </trkpt>
      <trkpt lat="48.799981" lon="9.797394">
        <ele>326.4</ele>
        <time>2026-08-30T13:59:20Z</time>
      </trkpt>
      <trkpt lat="48.799981" lon="9.797394">
        <ele>326.4</ele>
        <time>2026-08-30T13:59:21Z</time>
      </trkpt>
      <trkpt lat="48.799981" lon="9.797394">
        <ele>326.4</ele>
        <time>2026-08-30T13:59:22Z</time>
      </trkpt>
      <trkpt lat="48.799981" lon="9.797394">
        <ele>326.4</ele>
        <time>2026-08-30T13:59:23Z</time>
      </trkpt>
      <trkpt lat="48.799981" lon="9.797394">
        <ele>326.4</ele>
        <time>2026-08-30T13:59:24Z</time>
      </trkpt>
      <trkpt lat="48.799981" lon="9.797394">
        <ele>326.4</ele>
        <time>2026-08-30T13:59:25Z</time>
      </trkpt>
      <trkpt lat="48.799981" lon="9.797394">
        <ele>326.4</ele>
        <time>2026-08-30T13:59:26Z</time>
      </trkpt>
      <trkpt lat="48.799981" lon="9.797394">
        <ele>326.4</ele>
        <time>2026-08-30T13:59:27Z</time>
      </trkpt>
      <trkpt lat="48.799981" lon="9.797394">
        <ele>326.4</ele>
        <time>2026-08-30T13:59:28Z</time>
      </trkpt>
      <trkpt lat="48.799981" lon="9.797394">
        <ele>326.4</ele>
        <time>2026-08-30T13:59:29Z</time>
      </trkpt>
      <trkpt lat="48.799981" lon="9.797394">
        <ele>326.4</ele>
        <time>2026-08-30T13:59:30Z</time>
      </trkpt>
      <trkpt lat="48.799981" lon="9.797394">
        <ele>326.4</ele>
        <time>2026-08-30T13:59:31Z</time>
      </trkpt>
      <trkpt lat="48.799981" lon="9.797394">
        <ele>326.4</ele>
        <time>2026-08-30T13:59:32Z</time>
      </trkpt>
      <trkpt lat="48.799981" lon="9.797394">
        <ele>326.4</ele>
        <time>2026-08-30T13:59:33Z</time>
      </trkpt>
      <trkpt lat="48.799981" lon="9.797394">
        <ele>326.4</ele>
        <time>2026-08-30T13:59:34Z</time>
      </trkpt>
      <trkpt lat="48.799981" lon="9.797394">
        <ele>326.4</ele>
        <time>2026-08-30T13:59:35Z</time>
      </trkpt>
      <trkpt lat="48.799981" lon="9.797394">
        <ele>326.4</ele>
        <time>2026-08-30T13:59:36Z</time>
      </trkpt>
      <trkpt lat="48.799981" lon="9.797394">
        <ele>326.4</ele>
        <time>2026-08-30T13:59:37Z</time>
      </trkpt>
      <trkpt lat="48.799981" lon="9.797394">
        <ele>326.4</ele>
        <time>2026-08-30T13:59:38Z</time>
      </trkpt>
      <trkpt lat="48.799981" lon="9.797394">
        <ele>326.4</ele>
        <time>2026-08-30T13:59:39Z</time>
      </trkpt>
      <trkpt lat="48.799981" lon="9.797394">
        <ele>326.4</ele>
        <time>2026-08-30T13:59:40Z</time>
      </trkpt>
      <trkpt lat="48.799981" lon="9.797394">
        <ele>326.4</ele>
        <time>2026-08-30T13:59:41Z</time>
      </trkpt>
      <trkpt lat="48.799981" lon="9.797394">
        <ele>326.4</ele>
        <time>2026-08-30T13:59:42Z</time>
      </trkpt>
      <trkpt lat="48.799981" lon="9.797394">
        <ele>326.4</ele>
        <time>2026-08-30T13:59:43Z</time>
      </trkpt>
      <trkpt lat="48.799981" lon="9.797394">
        <ele>326.4</ele>
        <time>2026-08-30T13:59:44Z</time>
      </trkpt>
      <trkpt lat="48.799981" lon="9.797394">
        <ele>326.4</ele>
        <time>2026-08-30T13:59:45Z</time>
      </trkpt>
      <trkpt lat="48.799981" lon="9.797394">
        <ele>326.4</ele>
        <time>2026-08-30T13:59:46Z</time>
      </trkpt>
      <trkpt lat="48.799981" lon="9.797394">
        <ele>326.4</ele>
        <time>2026-08-30T13:59:47Z</time>
      </trkpt>
      <trkpt lat="48.799981" lon="9.797394">
        <ele>326.4</ele>
        <time>2026-08-30T13:59:48Z</time>
      </trkpt>
      <trkpt lat="48.799981" lon="9.797394">
        <ele>326.4</ele>
        <time>2026-08-30T13:59:49Z</time>
      </trkpt>
      <trkpt lat="48.799981" lon="9.797394">
        <ele>326.4</ele>
        <time>2026-08-30T13:59:50Z</time>
      </trkpt>
      <trkpt lat="48.799981" lon="9.797394">
        <ele>326.4</ele>
        <time>2026-08-30T13:59:51Z</time>
      </trkpt>
      <trkpt lat="48.799981" lon="9.797394">
        <ele>326.4</ele>
        <time>2026-08-30T13:59:52Z</time>
      </trkpt>
      <trkpt lat="48.799981" lon="9.797394">
        <ele>326.4</ele>
        <time>2026-08-30T13:59:53Z</time>
      </trkpt>
      <trkpt lat="48.799981" lon="9.797394">
        <ele>326.4</ele>
        <time>2026-08-30T13:59:54Z</time>
      </trkpt>
      <trkpt lat="48.799981" lon="9.797394">
        <ele>326.4</ele>
        <time>2026-08-30T13:59:55Z</time>
      </trkpt>
      <trkpt lat="48.799981" lon="9.797394">
        <ele>326.4</ele>
        <time>2026-08-30T13:59:56Z</time>
      </trkpt>
      <trkpt lat="48.799981" lon="9.797394">
        <ele>326.4</ele>
        <time>2026-08-30T13:59:57Z</time>
      </trkpt>
      <trkpt lat="48.799981" lon="9.797394">
        <ele>326.4</ele>
        <time>2026-08-30T13:59:58Z</time>
      </trkpt>
      <trkpt lat="48.799981" lon="9.797394">
        <ele>326.4</ele>
        <time>2026-08-30T13:59:59Z</time>
      </trkpt>
      <trkpt lat="48.799981" lon="9.797394">
        <ele>326.4</ele>
        <time>2026-08-30T14:00:00Z</time>
      </trkpt>
      <trkpt lat="48.799981" lon="9.797394">
        <ele>326.4</ele>
        <time>2026-08-30T14:00:01Z</time>
      </trkpt>
      <trkpt lat="48.799981" lon="9.797394">
        <ele>326.4</ele>
        <time>2026-08-30T14:00:02Z</time>
      </trkpt>
      <trkpt lat="48.799981" lon="9.797394">
        <ele>326.4</ele>
        <time>2026-08-30T14:00:03Z</time>
      </trkpt>
      <trkpt lat="48.799981" lon="9.797394">
        <ele>326.4</ele>
        <time>2026-08-30T14:00:04Z</time>
      </trkpt>
      <trkpt lat="48.799981" lon="9.797394">
        <ele>326.4</ele>
        <time>2026-08-30T14:00:05Z</time>
      </trkpt>
      <trkpt lat="48.799981" lon="9.797394">
        <ele>326.4</ele>
        <time>2026-08-30T14:00:06Z</time>
      </trkpt>
      <trkpt lat="48.799981" lon="9.797394">
        <ele>326.4</ele>
        <time>2026-08-30T14:00:07Z</time>
      </trkpt>
      <trkpt lat="48.799981" lon="9.797394">
        <ele>326.4</ele>
        <time>2026-08-30T14:00:08Z</time>
      </trkpt>
      <trkpt lat="48.799981" lon="9.797394">
        <ele>326.4</ele>
        <time>2026-08-30T14:00:09Z</time>
      </trkpt>
      <trkpt lat="48.799981" lon="9.797394">
        <ele>326.4</ele>
        <time>2026-08-30T14:00:10Z</time>
      </trkpt>
      <trkpt lat="48.799981" lon="9.797394">
        <ele>326.4</ele>
        <time>2026-08-30T14:00:11Z</time>
      </trkpt>
      <trkpt lat="48.799981" lon="9.797394">
        <ele>326.4</ele>
        <time>2026-08-30T14:00:12Z</time>
      </trkpt>
      <trkpt lat="48.799981" lon="9.797394">
        <ele>326.4</ele>
        <time>2026-08-30T14:00:13Z</time>
      </trkpt>
      <trkpt lat="48.799981" lon="9.797394">
        <ele>326.4</ele>
        <time>2026-08-30T14:00:14Z</time>
      </trkpt>
      <trkpt lat="48.799981" lon="9.797394">
        <ele>326.4</ele>
        <time>2026-08-30T14:00:15Z</time>
      </trkpt>
      <trkpt lat="48.799981" lon="9.797394">
        <ele>326.4</ele>
        <time>2026-08-30T14:00:16Z</time>
      </trkpt>
      <trkpt lat="48.799981" lon="9.797394">
        <ele>326.4</ele>
        <time>2026-08-30T14:00:17Z</time>
      </trkpt>
      <trkpt lat="48.799981" lon="9.797394">
        <ele>326.4</ele>
        <time>2026-08-30T14:00:18Z</time>
      </trkpt>
      <trkpt lat="48.799981" lon="9.797394">
        <ele>326.4</ele>
        <time>2026-08-30T14:00:19Z</time>
      </trkpt>
      <trkpt lat="48.799981" lon="9.797394">
        <ele>326.4</ele>
        <time>2026-08-30T14:00:20Z</time>
      </trkpt>
      <trkpt lat="48.799981" lon="9.797394">
        <ele>326.4</ele>
        <time>2026-08-30T14:00:21Z</time>
      </trkpt>
      <trkpt lat="48.799981" lon="9.797394">
        <ele>326.4</ele>
        <time>2026-08-30T14:00:22Z</time>
      </trkpt>
      <trkpt lat="48.799981" lon="9.797394">
        <ele>326.4</ele>
        <time>2026-08-30T14:00:23Z</time>
      </trkpt>
      <trkpt lat="48.799981" lon="9.797394">
        <ele>326.4</ele>
        <time>2026-08-30T14:00:24Z</time>
      </trkpt>
      <trkpt lat="48.799981" lon="9.797394">
        <ele>326.4</ele>
        <time>2026-08-30T14:00:25Z</time>
      </trkpt>
      <trkpt lat="48.799981" lon="9.797394">
        <ele>326.4</ele>
        <time>2026-08-30T14:00:26Z</time>
      </trkpt>
      <trkpt lat="48.799981" lon="9.797394">
        <ele>326.4</ele>
        <time>2026-08-30T14:00:27Z</time>
      </trkpt>
      <trkpt lat="48.799981" lon="9.797394">
        <ele>326.4</ele>
        <time>2026-08-30T14:00:28Z</time>
      </trkpt>
      <trkpt lat="48.799981" lon="9.797394">
        <ele>326.4</ele>
        <time>2026-08-30T14:00:29Z</time>
      </trkpt>
      <trkpt lat="48.799981" lon="9.797394">
        <ele>326.4</ele>
        <time>2026-08-30T14:00:30Z</time>
      </trkpt>
      <trkpt lat="48.799981" lon="9.797394">
        <ele>326.4</ele>
        <time>2026-08-30T14:00:31Z</time>
      </trkpt>
      <trkpt lat="48.799981" lon="9.797394">
        <ele>326.4</ele>
        <time>2026-08-30T14:00:32Z</time>
      </trkpt>
      <trkpt lat="48.799981" lon="9.797394">
        <ele>326.4</ele>
        <time>2026-08-30T14:00:33Z</time>
      </trkpt>
      <trkpt lat="48.799981" lon="9.797394">
        <ele>326.4</ele>
        <time>2026-08-30T14:00:34Z</time>
      </trkpt>
      <trkpt lat="48.799981" lon="9.797394">
        <ele>326.4</ele>
        <time>2026-08-30T14:00:35Z</time>
      </trkpt>
      <trkpt lat="48.799981" lon="9.797394">
        <ele>326.4</ele>
        <time>2026-08-30T14:00:36Z</time>
      </trkpt>
      <trkpt lat="48.799981" lon="9.797394">
        <ele>326.4</ele>
        <time>2026-08-30T14:00:37Z</time>
      </trkpt>
      <trkpt lat="48.799981" lon="9.797394">
        <ele>326.4</ele>
        <time>2026-08-30T14:00:38Z</time>
      </trkpt>
      <trkpt lat="48.799981" lon="9.797394">
        <ele>326.4</ele>
        <time>2026-08-30T14:00:39Z</time>
      </trkpt>
      <trkpt lat="48.799981" lon="9.797394">
        <ele>326.4</ele>
        <time>2026-08-30T14:00:40Z</time>
      </trkpt>
      <trkpt lat="48.799981" lon="9.797394">
        <ele>326.4</ele>
        <time>2026-08-30T14:00:41Z</time>
      </trkpt>
      <trkpt lat="48.799981" lon="9.797394">
        <ele>326.4</ele>
        <time>2026-08-30T14:00:42Z</time>
      </trkpt>
      <trkpt lat="48.799981" lon="9.797394">
        <ele>326.4</ele>
        <time>2026-08-30T14:00:43Z</time>
      </trkpt>
      <trkpt lat="48.799981" lon="9.797394">
        <ele>326.4</ele>
        <time>2026-08-30T14:00:44Z</time>
      </trkpt>
      <trkpt lat="48.799981" lon="9.797394">
        <ele>326.4</ele>
        <time>2026-08-30T14:00:45Z</time>
      </trkpt>
      <trkpt lat="48.799981" lon="9.797394">
        <ele>326.4</ele>
        <time>2026-08-30T14:00:46Z</time>
      </trkpt>
      <trkpt lat="48.799981" lon="9.797394">
        <ele>326.4</ele>
        <time>2026-08-30T14:00:47Z</time>
      </trkpt>
      <trkpt lat="48.799981" lon="9.797394">
        <ele>326.4</ele>
        <time>2026-08-30T14:00:48Z</time>
      </trkpt>
      <trkpt lat="48.799981" lon="9.797394">
        <ele>326.4</ele>
        <time>2026-08-30T14:00:49Z</time>
      </trkpt>
      <trkpt lat="48.799981" lon="9.797394">
        <ele>326.4</ele>
        <time>2026-08-30T14:00:50Z</time>
      </trkpt>
      <trkpt lat="48.799981" lon="9.797394">
        <ele>326.4</ele>
        <time>2026-08-30T14:00:51Z</time>
      </trkpt>
      <trkpt lat="48.799981" lon="9.797394">
        <ele>326.4</ele>
        <time>2026-08-30T14:00:52Z</time>
      </trkpt>
      <trkpt lat="48.799981" lon="9.797394">
        <ele>326.4</ele>
        <time>2026-08-30T14:00:53Z</time>
      </trkpt>
      <trkpt lat="48.799981" lon="9.797394">
        <ele>326.4</ele>
        <time>2026-08-30T14:00:54Z</time>
      </trkpt>
      <trkpt lat="48.799981" lon="9.797394">
        <ele>326.4</ele>
        <time>2026-08-30T14:00:55Z</time>
      </trkpt>
      <trkpt lat="48.799981" lon="9.797394">
        <ele>326.4</ele>
        <time>2026-08-30T14:00:56Z</time>
      </trkpt>
      <trkpt lat="48.799981" lon="9.797394">
        <ele>326.4</ele>
        <time>2026-08-30T14:00:57Z</time>
      </trkpt>
      <trkpt lat="48.799981" lon="9.797394">
        <ele>326.4</ele>
        <time>2026-08-30T14:00:58Z</time>
      </trkpt>
      <trkpt lat="48.799981" lon="9.797394">
        <ele>326.4</ele>
        <time>2026-08-30T14:00:59Z</time>
      </trkpt>
      <trkpt lat="48.799981" lon="9.797394">
        <ele>326.4</ele>
        <time>2026-08-30T14:01:00Z</time>
      </trkpt>
      <trkpt lat="48.799981" lon="9.797394">
        <ele>326.4</ele>
        <time>2026-08-30T14:01:01Z</time>
      </trkpt>
      <trkpt lat="48.799981" lon="9.797394">
        <ele>326.4</ele>
        <time>2026-08-30T14:01:02Z</time>
      </trkpt>
      <trkpt lat="48.799981" lon="9.797394">
        <ele>326.4</ele>
        <time>2026-08-30T14:01:03Z</time>
      </trkpt>
      <trkpt lat="48.799981" lon="9.797394">
        <ele>326.4</ele>
        <time>2026-08-30T14:01:04Z</time>
      </trkpt>
      <trkpt lat="48.799981" lon="9.797394">
        <ele>326.4</ele>
        <time>2026-08-30T14:01:05Z</time>
      </trkpt>
      <trkpt lat="48.799981" lon="9.797394">
        <ele>326.4</ele>
        <time>2026-08-30T14:01:06Z</time>
      </trkpt>
      <trkpt lat="48.799981" lon="9.797394">
        <ele>326.4</ele>
        <time>2026-08-30T14:01:07Z</time>
      </trkpt>
      <trkpt lat="48.799981" lon="9.797394">
        <ele>326.4</ele>
        <time>2026-08-30T14:01:08Z</time>
      </trkpt>
      <trkpt lat="48.799981" lon="9.797394">
        <ele>326.4</ele>
        <time>2026-08-30T14:01:09Z</time>
      </trkpt>
      <trkpt lat="48.799981" lon="9.797394">
        <ele>326.4</ele>
        <time>2026-08-30T14:01:10Z</time>
      </trkpt>
      <trkpt lat="48.799981" lon="9.797394">
        <ele>326.4</ele>
        <time>2026-08-30T14:01:11Z</time>
      </trkpt>
      <trkpt lat="48.799981" lon="9.797394">
        <ele>326.4</ele>
        <time>2026-08-30T14:01:12Z</time>
      </trkpt>
      <trkpt lat="48.799981" lon="9.797394">
        <ele>326.4</ele>
        <time>2026-08-30T14:01:13Z</time>
      </trkpt>
      <trkpt lat="48.799981" lon="9.797394">
        <ele>326.4</ele>
        <time>2026-08-30T14:01:14Z</time>
      </trkpt>
      <trkpt lat="48.799981" lon="9.797394">
        <ele>326.4</ele>
        <time>2026-08-30T14:01:15Z</time>
      </trkpt>
      <trkpt lat="48.799981" lon="9.797394">
        <ele>326.4</ele>
        <time>2026-08-30T14:01:16Z</time>
      </trkpt>
      <trkpt lat="48.799981" lon="9.797394">
        <ele>326.4</ele>
        <time>2026-08-30T14:01:17Z</time>
      </trkpt>
      <trkpt lat="48.799981" lon="9.797394">
        <ele>326.4</ele>
        <time>2026-08-30T14:01:18Z</time>
      </trkpt>
      <trkpt lat="48.799981" lon="9.797394">
        <ele>326.4</ele>
        <time>2026-08-30T14:01:19Z</time>
      </trkpt>
      <trkpt lat="48.799981" lon="9.797394">
        <ele>326.4</ele>
        <time>2026-08-30T14:01:20Z</time>
      </trkpt>
      <trkpt lat="48.799981" lon="9.797394">
        <ele>326.4</ele>
        <time>2026-08-30T14:01:21Z</time>
      </trkpt>
      <trkpt lat="48.799981" lon="9.797394">
        <ele>326.4</ele>
        <time>2026-08-30T14:01:22Z</time>
      </trkpt>
      <trkpt lat="48.799981" lon="9.797394">
        <ele>326.4</ele>
        <time>2026-08-30T14:01:23Z</time>
      </trkpt>
      <trkpt lat="48.799981" lon="9.797394">
        <ele>326.4</ele>
        <time>2026-08-30T14:01:24Z</time>
      </trkpt>
      <trkpt lat="48.799981" lon="9.797394">
        <ele>326.4</ele>
        <time>2026-08-30T14:01:25Z</time>
      </trkpt>
      <trkpt lat="48.799981" lon="9.797394">
        <ele>326.4</ele>
        <time>2026-08-30T14:01:26Z</time>
      </trkpt>
      <trkpt lat="48.799981" lon="9.797394">
        <ele>326.4</ele>
        <time>2026-08-30T14:01:27Z</time>
      </trkpt>
      <trkpt lat="48.799981" lon="9.797394">
        <ele>326.4</ele>
        <time>2026-08-30T14:01:28Z</time>
      </trkpt>
      <trkpt lat="48.799981" lon="9.797394">
        <ele>326.4</ele>
        <time>2026-08-30T14:01:29Z</time>
      </trkpt>
      <trkpt lat="48.799981" lon="9.797394">
        <ele>326.4</ele>
        <time>2026-08-30T14:01:30Z</time>
      </trkpt>
      <trkpt lat="48.799981" lon="9.797394">
        <ele>326.4</ele>
        <time>2026-08-30T14:01:31Z</time>
      </trkpt>
      <trkpt lat="48.799981" lon="9.797394">
        <ele>326.4</ele>
        <time>2026-08-30T14:01:32Z</time>
      </trkpt>
      <trkpt lat="48.799981" lon="9.797394">
        <ele>326.4</ele>
        <time>2026-08-30T14:01:33Z</time>
      </trkpt>
      <trkpt lat="48.799981" lon="9.797394">
        <ele>326.4</ele>
        <time>2026-08-30T14:01:34Z</time>
      </trkpt>
      <trkpt lat="48.799981" lon="9.797394">
        <ele>326.4</ele>
        <time>2026-08-30T14:01:35Z</time>
      </trkpt>
      <trkpt lat="48.799981" lon="9.797394">
        <ele>326.4</ele>
        <time>2026-08-30T14:01:36Z</time>
      </trkpt>
      <trkpt lat="48.799981" lon="9.797394">
        <ele>326.4</ele>
        <time>2026-08-30T14:01:37Z</time>
      </trkpt>
      <trkpt lat="48.799981" lon="9.797394">
        <ele>326.4</ele>
        <time>2026-08-30T14:01:38Z</time>
      </trkpt>
      <trkpt lat="48.799981" lon="9.797394">
        <ele>326.4</ele>
        <time>2026-08-30T14:01:39Z</time>
      </trkpt>
      <trkpt lat="48.799981" lon="9.797394">
        <ele>326.4</ele>
        <time>2026-08-30T14:01:40Z</time>
      </trkpt>
      <trkpt lat="48.799981" lon="9.797394">
        <ele>326.4</ele>
        <time>2026-08-30T14:01:41Z</time>
      </trkpt>
      <trkpt lat="48.799981" lon="9.797394">
        <ele>326.4</ele>
        <time>2026-08-30T14:01:42Z</time>
      </trkpt>
      <trkpt lat="48.799981" lon="9.797394">
        <ele>326.4</ele>
        <time>2026-08-30T14:01:43Z</time>
      </trkpt>
      <trkpt lat="48.799981" lon="9.797394">
        <ele>326.4</ele>
        <time>2026-08-30T14:01:44Z</time>
      </trkpt>
      <trkpt lat="48.799981" lon="9.797394">
        <ele>326.4</ele>
        <time>2026-08-30T14:01:45Z</time>
      </trkpt>
      <trkpt lat="48.799981" lon="9.797394">
        <ele>326.4</ele>
        <time>2026-08-30T14:01:46Z</time>
      </trkpt>
      <trkpt lat="48.799981" lon="9.797394">
        <ele>326.4</ele>
        <time>2026-08-30T14:01:47Z</time>
      </trkpt>
      <trkpt lat="48.799981" lon="9.797394">
        <ele>326.4</ele>
        <time>2026-08-30T14:01:48Z</time>
      </trkpt>
      <trkpt lat="48.799981" lon="9.797394">
        <ele>326.4</ele>
        <time>2026-08-30T14:01:49Z</time>
      </trkpt>
      <trkpt lat="48.799981" lon="9.797394">
        <ele>326.4</ele>
        <time>2026-08-30T14:01:50Z</time>
      </trkpt>
      <trkpt lat="48.799981" lon="9.797394">
        <ele>326.4</ele>
        <time>2026-08-30T14:01:51Z</time>
      </trkpt>
      <trkpt lat="48.799981" lon="9.797394">
        <ele>326.4</ele>
        <time>2026-08-30T14:01:52Z</time>
      </trkpt>
      <trkpt lat="48.799981" lon="9.797394">
        <ele>326.4</ele>
        <time>2026-08-30T14:01:53Z</time>
      </trkpt>
      <trkpt lat="48.799981" lon="9.797394">
        <ele>326.4</ele>
        <time>2026-08-30T14:01:54Z</time>
      </trkpt>
      <trkpt lat="48.799981" lon="9.797394">
        <ele>326.4</ele>
        <time>2026-08-30T14:01:55Z</time>
      </trkpt>
      <trkpt lat="48.799981" lon="9.797394">
        <ele>326.4</ele>
        <time>2026-08-30T14:01:56Z</time>
      </trkpt>
      <trkpt lat="48.799981" lon="9.797394">
        <ele>326.4</ele>
        <time>2026-08-30T14:01:57Z</time>
      </trkpt>
      <trkpt lat="48.799981" lon="9.797394">
        <ele>326.4</ele>
        <time>2026-08-30T14:01:58Z</time>
      </trkpt>
      <trkpt lat="48.799981" lon="9.797394">
        <ele>326.4</ele>
        <time>2026-08-30T14:01:59Z</time>
      </trkpt>
      <trkpt lat="48.799981" lon="9.797394">
        <ele>326.4</ele>
        <time>2026-08-30T14:02:00Z</time>
      </trkpt>
      <trkpt lat="48.799981" lon="9.797394">
        <ele>326.4</ele>
        <time>2026-08-30T14:02:01Z</time>
      </trkpt>
      <trkpt lat="48.799981" lon="9.797394">
        <ele>326.4</ele>
        <time>2026-08-30T14:02:02Z</time>
      </trkpt>
      <trkpt lat="48.799981" lon="9.797394">
        <ele>326.4</ele>
        <time>2026-08-30T14:02:03Z</time>
      </trkpt>
      <trkpt lat="48.799981" lon="9.797394">
        <ele>326.4</ele>
        <time>2026-08-30T14:02:04Z</time>
      </trkpt>
      <trkpt lat="48.799981" lon="9.797394">
        <ele>326.4</ele>
        <time>2026-08-30T14:02:05Z</time>
      </trkpt>
      <trkpt lat="48.799981" lon="9.797394">
        <ele>326.4</ele>
        <time>2026-08-30T14:02:06Z</time>
      </trkpt>
      <trkpt lat="48.799981" lon="9.797394">
        <ele>326.4</ele>
        <time>2026-08-30T14:02:07Z</time>
      </trkpt>
      <trkpt lat="48.799981" lon="9.797394">
        <ele>326.4</ele>
        <time>2026-08-30T14:02:08Z</time>
      </trkpt>
      <trkpt lat="48.799981" lon="9.797394">
        <ele>326.4</ele>
        <time>2026-08-30T14:02:09Z</time>
      </trkpt>
      <trkpt lat="48.799981" lon="9.797394">
        <ele>326.4</ele>
        <time>2026-08-30T14:02:10Z</time>
      </trkpt>
      <trkpt lat="48.799981" lon="9.797394">
        <ele>326.4</ele>
        <time>2026-08-30T14:02:11Z</time>
      </trkpt>
      <trkpt lat="48.799981" lon="9.797394">
        <ele>326.4</ele>
        <time>2026-08-30T14:02:12Z</time>
      </trkpt>
      <trkpt lat="48.799981" lon="9.797394">
        <ele>326.4</ele>
        <time>2026-08-30T14:02:13Z</time>
      </trkpt>
      <trkpt lat="48.799981" lon="9.797394">
        <ele>326.4</ele>
        <time>2026-08-30T14:02:14Z</time>
      </trkpt>
      <trkpt lat="48.799981" lon="9.797394">
        <ele>326.4</ele>
        <time>2026-08-30T14:02:15Z</time>
      </trkpt>
      <trkpt lat="48.799981" lon="9.797394">
        <ele>326.4</ele>
        <time>2026-08-30T14:02:16Z</time>
      </trkpt>
      <trkpt lat="48.799981" lon="9.797394">
        <ele>326.4</ele>
        <time>2026-08-30T14:02:17Z</time>
      </trkpt>
      <trkpt lat="48.799981" lon="9.797394">
        <ele>326.4</ele>
        <time>2026-08-30T14:02:18Z</time>
      </trkpt>
      <trkpt lat="48.799981" lon="9.797394">
        <ele>326.4</ele>
        <time>2026-08-30T14:02:19Z</time>
      </trkpt>
      <trkpt lat="48.799981" lon="9.797394">
        <ele>326.4</ele>
        <time>2026-08-30T14:02:20Z</time>
      </trkpt>
      <trkpt lat="48.799981" lon="9.797394">
        <ele>326.4</ele>
        <time>2026-08-30T14:02:21Z</time>
      </trkpt>
      <trkpt lat="48.799981" lon="9.797394">
        <ele>326.4</ele>
        <time>2026-08-30T14:02:22Z</time>
      </trkpt>
      <trkpt lat="48.799981" lon="9.797394">
        <ele>326.4</ele>
        <time>2026-08-30T14:02:23Z</time>
      </trkpt>
      <trkpt lat="48.799981" lon="9.797394">
        <ele>326.4</ele>
        <time>2026-08-30T14:02:24Z</time>
      </trkpt>
      <trkpt lat="48.799981" lon="9.797394">
        <ele>326.4</ele>
        <time>2026-08-30T14:02:25Z</time>
      </trkpt>
      <trkpt lat="48.799981" lon="9.797394">
        <ele>326.4</ele>
        <time>2026-08-30T14:02:26Z</time>
      </trkpt>
      <trkpt lat="48.799981" lon="9.797394">
        <ele>326.4</ele>
        <time>2026-08-30T14:02:27Z</time>
      </trkpt>
      <trkpt lat="48.799981" lon="9.797394">
        <ele>326.4</ele>
        <time>2026-08-30T14:02:28Z</time>
      </trkpt>
      <trkpt lat="48.799981" lon="9.797394">
        <ele>326.4</ele>
        <time>2026-08-30T14:02:29Z</time>
      </trkpt>
      <trkpt lat="48.799981" lon="9.797394">
        <ele>326.4</ele>
        <time>2026-08-30T14:02:30Z</time>
      </trkpt>
      <trkpt lat="48.799981" lon="9.797394">
        <ele>326.4</ele>
        <time>2026-08-30T14:02:31Z</time>
      </trkpt>
      <trkpt lat="48.799981" lon="9.797394">
        <ele>326.4</ele>
        <time>2026-08-30T14:02:32Z</time>
      </trkpt>
      <trkpt lat="48.799981" lon="9.797394">
        <ele>326.4</ele>
        <time>2026-08-30T14:02:33Z</time>
      </trkpt>
      <trkpt lat="48.799981" lon="9.797394">
        <ele>326.4</ele>
        <time>2026-08-30T14:02:34Z</time>
      </trkpt>
      <trkpt lat="48.799981" lon="9.797394">
        <ele>326.4</ele>
        <time>2026-08-30T14:02:35Z</time>
      </trkpt>
      <trkpt lat="48.799981" lon="9.797394">
        <ele>326.4</ele>
        <time>2026-08-30T14:02:36Z</time>
      </trkpt>
      <trkpt lat="48.799981" lon="9.797394">
        <ele>326.4</ele>
        <time>2026-08-30T14:02:37Z</time>
      </trkpt>
      <trkpt lat="48.799981" lon="9.797394">
        <ele>326.4</ele>
        <time>2026-08-30T14:02:38Z</time>
      </trkpt>
      <trkpt lat="48.799981" lon="9.797394">
        <ele>326.4</ele>
        <time>2026-08-30T14:02:39Z</time>
      </trkpt>
      <trkpt lat="48.799981" lon="9.797394">
        <ele>326.4</ele>
        <time>2026-08-30T14:02:40Z</time>
      </trkpt>
      <trkpt lat="48.799981" lon="9.797394">
        <ele>326.4</ele>
        <time>2026-08-30T14:02:41Z</time>
      </trkpt>
      <trkpt lat="48.799981" lon="9.797394">
        <ele>326.4</ele>
        <time>2026-08-30T14:02:42Z</time>
      </trkpt>
      <trkpt lat="48.799981" lon="9.797394">
        <ele>326.4</ele>
        <time>2026-08-30T14:02:43Z</time>
      </trkpt>
      <trkpt lat="48.799981" lon="9.797394">
        <ele>326.4</ele>
        <time>2026-08-30T14:02:44Z</time>
      </trkpt>
      <trkpt lat="48.799981" lon="9.797394">
        <ele>326.4</ele>
        <time>2026-08-30T14:02:45Z</time>
      </trkpt>
      <trkpt lat="48.799981" lon="9.797394">
        <ele>326.4</ele>
        <time>2026-08-30T14:02:46Z</time>
      </trkpt>
      <trkpt lat="48.799981" lon="9.797394">
        <ele>326.4</ele>
        <time>2026-08-30T14:02:47Z</time>
      </trkpt>
      <trkpt lat="48.799981" lon="9.797394">
        <ele>326.4</ele>
        <time>2026-08-30T14:02:48Z</time>
      </trkpt>
      <trkpt lat="48.799981" lon="9.797394">
        <ele>326.4</ele>
        <time>2026-08-30T14:02:49Z</time>
      </trkpt>
      <trkpt lat="48.799981" lon="9.797394">
        <ele>326.4</ele>
        <time>2026-08-30T14:02:50Z</time>
      </trkpt>
      <trkpt lat="48.799981" lon="9.797394">
        <ele>326.4</ele>
        <time>2026-08-30T14:02:51Z</time>
      </trkpt>
      <trkpt lat="48.799981" lon="9.797394">
        <ele>326.4</ele>
        <time>2026-08-30T14:02:52Z</time>
      </trkpt>
      <trkpt lat="48.799981" lon="9.797394">
        <ele>326.4</ele>
        <time>2026-08-30T14:02:53Z</time>
      </trkpt>
      <trkpt lat="48.799981" lon="9.797394">
        <ele>326.4</ele>
        <time>2026-08-30T14:02:54Z</time>
      </trkpt>
      <trkpt lat="48.799981" lon="9.797394">
        <ele>326.4</ele>
        <time>2026-08-30T14:02:55Z</time>
      </trkpt>
      <trkpt lat="48.799981" lon="9.797394">
        <ele>326.4</ele>
        <time>2026-08-30T14:02:56Z</time>
      </trkpt>
      <trkpt lat="48.799981" lon="9.797394">
        <ele>326.4</ele>
        <time>2026-08-30T14:02:57Z</time>
      </trkpt>
      <trkpt lat="48.799981" lon="9.797394">
        <ele>326.4</ele>
        <time>2026-08-30T14:02:58Z</time>
      </trkpt>
      <trkpt lat="48.799981" lon="9.797394">
        <ele>326.4</ele>
        <time>2026-08-30T14:02:59Z</time>
      </trkpt>
      <trkpt lat="48.799981" lon="9.797394">
        <ele>326.4</ele>
        <time>2026-08-30T14:03:00Z</time>
      </trkpt>
      <trkpt lat="48.799981" lon="9.797394">
        <ele>326.4</ele>
        <time>2026-08-30T14:03:01Z</time>
      </trkpt>
      <trkpt lat="48.799981" lon="9.797394">
        <ele>326.4</ele>
        <time>2026-08-30T14:03:02Z</time>
      </trkpt>
      <trkpt lat="48.799981" lon="9.797394">
        <ele>326.4</ele>
        <time>2026-08-30T14:03:03Z</time>
      </trkpt>
      <trkpt lat="48.799981" lon="9.797394">
        <ele>326.4</ele>
        <time>2026-08-30T14:03:04Z</time>
      </trkpt>
      <trkpt lat="48.799981" lon="9.797394">
        <ele>326.4</ele>
        <time>2026-08-30T14:03:05Z</time>
      </trkpt>
      <trkpt lat="48.799981" lon="9.797394">
        <ele>326.4</ele>
        <time>2026-08-30T14:03:06Z</time>
      </trkpt>
      <trkpt lat="48.799981" lon="9.797394">
        <ele>326.4</ele>
        <time>2026-08-30T14:03:07Z</time>
      </trkpt>
      <trkpt lat="48.799981" lon="9.797394">
        <ele>326.4</ele>
        <time>2026-08-30T14:03:08Z</time>
      </trkpt>
      <trkpt lat="48.799981" lon="9.797394">
        <ele>326.4</ele>
        <time>2026-08-30T14:03:09Z</time>
      </trkpt>
      <trkpt lat="48.799981" lon="9.797394">
        <ele>326.4</ele>
        <time>2026-08-30T14:03:10Z</time>
      </trkpt>
      <trkpt lat="48.799981" lon="9.797394">
        <ele>326.4</ele>
        <time>2026-08-30T14:03:11Z</time>
      </trkpt>
      <trkpt lat="48.799981" lon="9.797394">
        <ele>326.4</ele>
        <time>2026-08-30T14:03:12Z</time>
      </trkpt>
      <trkpt lat="48.799981" lon="9.797394">
        <ele>326.4</ele>
        <time>2026-08-30T14:03:13Z</time>
      </trkpt>
      <trkpt lat="48.799981" lon="9.797394">
        <ele>326.4</ele>
        <time>2026-08-30T14:03:14Z</time>
      </trkpt>
      <trkpt lat="48.799981" lon="9.797394">
        <ele>326.4</ele>
        <time>2026-08-30T14:03:15Z</time>
      </trkpt>
      <trkpt lat="48.799981" lon="9.797394">
        <ele>326.4</ele>
        <time>2026-08-30T14:03:16Z</time>
      </trkpt>
      <trkpt lat="48.799981" lon="9.797394">
        <ele>326.4</ele>
        <time>2026-08-30T14:03:17Z</time>
      </trkpt>
      <trkpt lat="48.799981" lon="9.797394">
        <ele>326.4</ele>
        <time>2026-08-30T14:03:18Z</time>
      </trkpt>
      <trkpt lat="48.799981" lon="9.797394">
        <ele>326.4</ele>
        <time>2026-08-30T14:03:19Z</time>
      </trkpt>
      <trkpt lat="48.799981" lon="9.797394">
        <ele>326.4</ele>
        <time>2026-08-30T14:03:20Z</time>
      </trkpt>
      <trkpt lat="48.799981" lon="9.797394">
        <ele>326.4</ele>
        <time>2026-08-30T14:03:21Z</time>
      </trkpt>
      <trkpt lat="48.799981" lon="9.797394">
        <ele>326.4</ele>
        <time>2026-08-30T14:03:22Z</time>
      </trkpt>
      <trkpt lat="48.799981" lon="9.797394">
        <ele>326.4</ele>
        <time>2026-08-30T14:03:23Z</time>
      </trkpt>
      <trkpt lat="48.799981" lon="9.797394">
        <ele>326.4</ele>
        <time>2026-08-30T14:03:24Z</time>
      </trkpt>
      <trkpt lat="48.799981" lon="9.797394">
        <ele>326.4</ele>
        <time>2026-08-30T14:03:25Z</time>
      </trkpt>
      <trkpt lat="48.799981" lon="9.797394">
        <ele>326.4</ele>
        <time>2026-08-30T14:03:26Z</time>
      </trkpt>
      <trkpt lat="48.799981" lon="9.797394">
        <ele>326.4</ele>
        <time>2026-08-30T14:03:27Z</time>
      </trkpt>
      <trkpt lat="48.799981" lon="9.797394">
        <ele>326.4</ele>
        <time>2026-08-30T14:03:28Z</time>
      </trkpt>
      <trkpt lat="48.799981" lon="9.797394">
        <ele>326.4</ele>
        <time>2026-08-30T14:03:29Z</time>
      </trkpt>
      <trkpt lat="48.799981" lon="9.797394">
        <ele>326.4</ele>
        <time>2026-08-30T14:03:30Z</time>
      </trkpt>
      <trkpt lat="48.799981" lon="9.797394">
        <ele>326.4</ele>
        <time>2026-08-30T14:03:31Z</time>
      </trkpt>
      <trkpt lat="48.799981" lon="9.797394">
        <ele>326.4</ele>
        <time>2026-08-30T14:03:32Z</time>
      </trkpt>
      <trkpt lat="48.799981" lon="9.797394">
        <ele>326.4</ele>
        <time>2026-08-30T14:03:33Z</time>
      </trkpt>
      <trkpt lat="48.799981" lon="9.797394">
        <ele>326.4</ele>
        <time>2026-08-30T14:03:34Z</time>
      </trkpt>
      <trkpt lat="48.799981" lon="9.797394">
        <ele>326.4</ele>
        <time>2026-08-30T14:03:35Z</time>
      </trkpt>
      <trkpt lat="48.799981" lon="9.797394">
        <ele>326.4</ele>
        <time>2026-08-30T14:03:36Z</time>
      </trkpt>
      <trkpt lat="48.799981" lon="9.797394">
        <ele>326.4</ele>
        <time>2026-08-30T14:03:37Z</time>
      </trkpt>
      <trkpt lat="48.799981" lon="9.797394">
        <ele>326.4</ele>
        <time>2026-08-30T14:03:38Z</time>
      </trkpt>
      <trkpt lat="48.799981" lon="9.797394">
        <ele>326.4</ele>
        <time>2026-08-30T14:03:39Z</time>
      </trkpt>
      <trkpt lat="48.799981" lon="9.797394">
        <ele>326.4</ele>
        <time>2026-08-30T14:03:40Z</time>
      </trkpt>
      <trkpt lat="48.799981" lon="9.797394">
        <ele>326.4</ele>
        <time>2026-08-30T14:03:41Z</time>
      </trkpt>
      <trkpt lat="48.799981" lon="9.797394">
        <ele>326.4</ele>
        <time>2026-08-30T14:03:42Z</time>
      </trkpt>
      <trkpt lat="48.799981" lon="9.797394">
        <ele>326.4</ele>
        <time>2026-08-30T14:03:43Z</time>
      </trkpt>
      <trkpt lat="48.799981" lon="9.797394">
        <ele>326.4</ele>
        <time>2026-08-30T14:03:44Z</time>
      </trkpt>
      <trkpt lat="48.799981" lon="9.797394">
        <ele>326.4</ele>
        <time>2026-08-30T14:03:45Z</time>
      </trkpt>
      <trkpt lat="48.799981" lon="9.797394">
        <ele>326.4</ele>
        <time>2026-08-30T14:03:46Z</time>
      </trkpt>
      <trkpt lat="48.799981" lon="9.797394">
        <ele>326.4</ele>
        <time>2026-08-30T14:03:47Z</time>
      </trkpt>
      <trkpt lat="48.799981" lon="9.797394">
        <ele>326.4</ele>
        <time>2026-08-30T14:03:48Z</time>
      </trkpt>
      <trkpt lat="48.799981" lon="9.797394">
        <ele>326.4</ele>
        <time>2026-08-30T14:03:49Z</time>
      </trkpt>
      <trkpt lat="48.799981" lon="9.797394">
        <ele>326.4</ele>
        <time>2026-08-30T14:03:50Z</time>
      </trkpt>
      <trkpt lat="48.799981" lon="9.797394">
        <ele>326.4</ele>
        <time>2026-08-30T14:03:51Z</time>
      </trkpt>
      <trkpt lat="48.799981" lon="9.797394">
        <ele>326.4</ele>
        <time>2026-08-30T14:03:52Z</time>
      </trkpt>
      <trkpt lat="48.799981" lon="9.797394">
        <ele>326.4</ele>
        <time>2026-08-30T14:03:53Z</time>
      </trkpt>
      <trkpt lat="48.799981" lon="9.797394">
        <ele>326.4</ele>
        <time>2026-08-30T14:03:54Z</time>
      </trkpt>
      <trkpt lat="48.799981" lon="9.797394">
        <ele>326.4</ele>
        <time>2026-08-30T14:03:55Z</time>
      </trkpt>
      <trkpt lat="48.799981" lon="9.797394">
        <ele>326.4</ele>
        <time>2026-08-30T14:03:56Z</time>
      </trkpt>
      <trkpt lat="48.799981" lon="9.797394">
        <ele>326.4</ele>
        <time>2026-08-30T14:03:57Z</time>
      </trkpt>
      <trkpt lat="48.799981" lon="9.797394">
        <ele>326.4</ele>
        <time>2026-08-30T14:03:58Z</time>
      </trkpt>
      <trkpt lat="48.799981" lon="9.797394">
        <ele>326.4</ele>
        <time>2026-08-30T14:03:59Z</time>
      </trkpt>
      <trkpt lat="48.799981" lon="9.797394">
        <ele>326.4</ele>
        <time>2026-08-30T14:04:00Z</time>
      </trkpt>
      <trkpt lat="48.799981" lon="9.797394">
        <ele>326.4</ele>
        <time>2026-08-30T14:04:01Z</time>
      </trkpt>
      <trkpt lat="48.799981" lon="9.797394">
        <ele>326.4</ele>
        <time>2026-08-30T14:04:02Z</time>
      </trkpt>
      <trkpt lat="48.799981" lon="9.797394">
        <ele>326.4</ele>
        <time>2026-08-30T14:04:03Z</time>
      </trkpt>
      <trkpt lat="48.799981" lon="9.797394">
        <ele>326.4</ele>
        <time>2026-08-30T14:04:04Z</time>
      </trkpt>
      <trkpt lat="48.799981" lon="9.797394">
        <ele>326.4</ele>
        <time>2026-08-30T14:04:05Z</time>
      </trkpt>
      <trkpt lat="48.799981" lon="9.797394">
        <ele>326.4</ele>
        <time>2026-08-30T14:04:06Z</time>
      </trkpt>
      <trkpt lat="48.799981" lon="9.797394">
        <ele>326.4</ele>
        <time>2026-08-30T14:04:07Z</time>
      </trkpt>
      <trkpt lat="48.799981" lon="9.797394">
        <ele>326.4</ele>
        <time>2026-08-30T14:04:08Z</time>
      </trkpt>
      <trkpt lat="48.799981" lon="9.797394">
        <ele>326.4</ele>
        <time>2026-08-30T14:04:09Z</time>
      </trkpt>
      <trkpt lat="48.799981" lon="9.797394">
        <ele>326.4</ele>
        <time>2026-08-30T14:04:10Z</time>
      </trkpt>
      <trkpt lat="48.799981" lon="9.797394">
        <ele>326.4</ele>
        <time>2026-08-30T14:04:11Z</time>
      </trkpt>
      <trkpt lat="48.799981" lon="9.797394">
        <ele>326.4</ele>
        <time>2026-08-30T14:04:12Z</time>
      </trkpt>
      <trkpt lat="48.799981" lon="9.797394">
        <ele>326.4</ele>
        <time>2026-08-30T14:04:13Z</time>
      </trkpt>
      <trkpt lat="48.799981" lon="9.797394">
        <ele>326.4</ele>
        <time>2026-08-30T14:04:14Z</time>
      </trkpt>
      <trkpt lat="48.799981" lon="9.797394">
        <ele>326.4</ele>
        <time>2026-08-30T14:04:15Z</time>
      </trkpt>
      <trkpt lat="48.799981" lon="9.797394">
        <ele>326.4</ele>
        <time>2026-08-30T14:04:16Z</time>
      </trkpt>
      <trkpt lat="48.799981" lon="9.797394">
        <ele>326.4</ele>
        <time>2026-08-30T14:04:17Z</time>
      </trkpt>
      <trkpt lat="48.799981" lon="9.797394">
        <ele>326.4</ele>
        <time>2026-08-30T14:04:18Z</time>
      </trkpt>
      <trkpt lat="48.799981" lon="9.797394">
        <ele>326.4</ele>
        <time>2026-08-30T14:04:19Z</time>
      </trkpt>
      <trkpt lat="48.799981" lon="9.797394">
        <ele>326.4</ele>
        <time>2026-08-30T14:04:20Z</time>
      </trkpt>
      <trkpt lat="48.799981" lon="9.797394">
        <ele>326.4</ele>
        <time>2026-08-30T14:04:21Z</time>
      </trkpt>
      <trkpt lat="48.799981" lon="9.797394">
        <ele>326.4</ele>
        <time>2026-08-30T14:04:22Z</time>
      </trkpt>
      <trkpt lat="48.799981" lon="9.797394">
        <ele>326.4</ele>
        <time>2026-08-30T14:04:23Z</time>
      </trkpt>
      <trkpt lat="48.799981" lon="9.797394">
        <ele>326.4</ele>
        <time>2026-08-30T14:04:24Z</time>
      </trkpt>
      <trkpt lat="48.799981" lon="9.797394">
        <ele>326.4</ele>
        <time>2026-08-30T14:04:25Z</time>
      </trkpt>
      <trkpt lat="48.799981" lon="9.797394">
        <ele>326.4</ele>
        <time>2026-08-30T14:04:26Z</time>
      </trkpt>
      <trkpt lat="48.799981" lon="9.797394">
        <ele>326.4</ele>
        <time>2026-08-30T14:04:27Z</time>
      </trkpt>
      <trkpt lat="48.799981" lon="9.797394">
        <ele>326.4</ele>
        <time>2026-08-30T14:04:28Z</time>
      </trkpt>
      <trkpt lat="48.799981" lon="9.797394">
        <ele>326.4</ele>
        <time>2026-08-30T14:04:29Z</time>
      </trkpt>
      <trkpt lat="48.799981" lon="9.797394">
        <ele>326.4</ele>
        <time>2026-08-30T14:04:30Z</time>
      </trkpt>
      <trkpt lat="48.799981" lon="9.797394">
        <ele>326.4</ele>
        <time>2026-08-30T14:04:31Z</time>
      </trkpt>
      <trkpt lat="48.799981" lon="9.797394">
        <ele>326.4</ele>
        <time>2026-08-30T14:04:32Z</time>
      </trkpt>
      <trkpt lat="48.799981" lon="9.797394">
        <ele>326.4</ele>
        <time>2026-08-30T14:04:33Z</time>
      </trkpt>
      <trkpt lat="48.799981" lon="9.797394">
        <ele>326.4</ele>
        <time>2026-08-30T14:04:34Z</time>
      </trkpt>
      <trkpt lat="48.799981" lon="9.797394">
        <ele>326.4</ele>
        <time>2026-08-30T14:04:35Z</time>
      </trkpt>
      <trkpt lat="48.799981" lon="9.797394">
        <ele>326.4</ele>
        <time>2026-08-30T14:04:36Z</time>
      </trkpt>
      <trkpt lat="48.799981" lon="9.797394">
        <ele>326.4</ele>
        <time>2026-08-30T14:04:37Z</time>
      </trkpt>
      <trkpt lat="48.799981" lon="9.797394">
        <ele>326.4</ele>
        <time>2026-08-30T14:04:38Z</time>
      </trkpt>
      <trkpt lat="48.799981" lon="9.797394">
        <ele>326.4</ele>
        <time>2026-08-30T14:04:39Z</time>
      </trkpt>
      <trkpt lat="48.799981" lon="9.797394">
        <ele>326.4</ele>
        <time>2026-08-30T14:04:40Z</time>
      </trkpt>
      <trkpt lat="48.799981" lon="9.797394">
        <ele>326.4</ele>
        <time>2026-08-30T14:04:41Z</time>
      </trkpt>
      <trkpt lat="48.799981" lon="9.797394">
        <ele>326.4</ele>
        <time>2026-08-30T14:04:42Z</time>
      </trkpt>
      <trkpt lat="48.799981" lon="9.797394">
        <ele>326.4</ele>
        <time>2026-08-30T14:04:43Z</time>
      </trkpt>
      <trkpt lat="48.799981" lon="9.797394">
        <ele>326.4</ele>
        <time>2026-08-30T14:04:44Z</time>
      </trkpt>
      <trkpt lat="48.799981" lon="9.797394">
        <ele>326.4</ele>
        <time>2026-08-30T14:04:45Z</time>
      </trkpt>
      <trkpt lat="48.799981" lon="9.797394">
        <ele>326.4</ele>
        <time>2026-08-30T14:04:46Z</time>
      </trkpt>
      <trkpt lat="48.799981" lon="9.797394">
        <ele>326.4</ele>
        <time>2026-08-30T14:04:47Z</time>
      </trkpt>
      <trkpt lat="48.799981" lon="9.797394">
        <ele>326.4</ele>
        <time>2026-08-30T14:04:48Z</time>
      </trkpt>
      <trkpt lat="48.799981" lon="9.797394">
        <ele>326.4</ele>
        <time>2026-08-30T14:04:49Z</time>
      </trkpt>
      <trkpt lat="48.799981" lon="9.797394">
        <ele>326.4</ele>
        <time>2026-08-30T14:04:50Z</time>
      </trkpt>
      <trkpt lat="48.799981" lon="9.797394">
        <ele>326.4</ele>
        <time>2026-08-30T14:04:51Z</time>
      </trkpt>
      <trkpt lat="48.799981" lon="9.797394">
        <ele>326.4</ele>
        <time>2026-08-30T14:04:52Z</time>
      </trkpt>
      <trkpt lat="48.799981" lon="9.797394">
        <ele>326.4</ele>
        <time>2026-08-30T14:04:53Z</time>
      </trkpt>
      <trkpt lat="48.799981" lon="9.797394">
        <ele>326.4</ele>
        <time>2026-08-30T14:04:54Z</time>
      </trkpt>
      <trkpt lat="48.799981" lon="9.797394">
        <ele>326.4</ele>
        <time>2026-08-30T14:04:55Z</time>
      </trkpt>
      <trkpt lat="48.799981" lon="9.797394">
        <ele>326.4</ele>
        <time>2026-08-30T14:04:56Z</time>
      </trkpt>
      <trkpt lat="48.799981" lon="9.797394">
        <ele>326.4</ele>
        <time>2026-08-30T14:04:57Z</time>
      </trkpt>
      <trkpt lat="48.799981" lon="9.797394">
        <ele>326.4</ele>
        <time>2026-08-30T14:04:58Z</time>
      </trkpt>
      <trkpt lat="48.799981" lon="9.797394">
        <ele>326.4</ele>
        <time>2026-08-30T14:04:59Z</time>
      </trkpt>
      <trkpt lat="48.799981" lon="9.797394">
        <ele>326.4</ele>
        <time>2026-08-30T14:05:00Z</time>
      </trkpt>
      <trkpt lat="48.799981" lon="9.797394">
        <ele>326.4</ele>
        <time>2026-08-30T14:05:01Z</time>
      </trkpt>
      <trkpt lat="48.799981" lon="9.797394">
        <ele>326.4</ele>
        <time>2026-08-30T14:05:02Z</time>
      </trkpt>
      <trkpt lat="48.799981" lon="9.797394">
        <ele>326.4</ele>
        <time>2026-08-30T14:05:03Z</time>
      </trkpt>
      <trkpt lat="48.799981" lon="9.797394">
        <ele>326.4</ele>
        <time>2026-08-30T14:05:04Z</time>
      </trkpt>
      <trkpt lat="48.799981" lon="9.797394">
        <ele>326.4</ele>
        <time>2026-08-30T14:05:05Z</time>
      </trkpt>
      <trkpt lat="48.799981" lon="9.797394">
        <ele>326.4</ele>
        <time>2026-08-30T14:05:06Z</time>
      </trkpt>
      <trkpt lat="48.799981" lon="9.797394">
        <ele>326.4</ele>
        <time>2026-08-30T14:05:07Z</time>
      </trkpt>
      <trkpt lat="48.799981" lon="9.797394">
        <ele>326.4</ele>
        <time>2026-08-30T14:05:08Z</time>
      </trkpt>
      <trkpt lat="48.799981" lon="9.797394">
        <ele>326.4</ele>
        <time>2026-08-30T14:05:09Z</time>
      </trkpt>
      <trkpt lat="48.799981" lon="9.797394">
        <ele>326.4</ele>
        <time>2026-08-30T14:05:10Z</time>
      </trkpt>
      <trkpt lat="48.799981" lon="9.797394">
        <ele>326.4</ele>
        <time>2026-08-30T14:05:11Z</time>
      </trkpt>
      <trkpt lat="48.799981" lon="9.797394">
        <ele>326.4</ele>
        <time>2026-08-30T14:05:12Z</time>
      </trkpt>
      <trkpt lat="48.799981" lon="9.797394">
        <ele>326.4</ele>
        <time>2026-08-30T14:05:13Z</time>
      </trkpt>
      <trkpt lat="48.799981" lon="9.797394">
        <ele>326.4</ele>
        <time>2026-08-30T14:05:14Z</time>
      </trkpt>
      <trkpt lat="48.799981" lon="9.797394">
        <ele>326.4</ele>
        <time>2026-08-30T14:05:15Z</time>
      </trkpt>
      <trkpt lat="48.799981" lon="9.797394">
        <ele>326.4</ele>
        <time>2026-08-30T14:05:16Z</time>
      </trkpt>
      <trkpt lat="48.799981" lon="9.797394">
        <ele>326.4</ele>
        <time>2026-08-30T14:05:17Z</time>
      </trkpt>
      <trkpt lat="48.799981" lon="9.797394">
        <ele>326.4</ele>
        <time>2026-08-30T14:05:18Z</time>
      </trkpt>
      <trkpt lat="48.799981" lon="9.797394">
        <ele>326.4</ele>
        <time>2026-08-30T14:05:19Z</time>
      </trkpt>
      <trkpt lat="48.799981" lon="9.797394">
        <ele>326.4</ele>
        <time>2026-08-30T14:05:20Z</time>
      </trkpt>
      <trkpt lat="48.799981" lon="9.797394">
        <ele>326.4</ele>
        <time>2026-08-30T14:05:21Z</time>
      </trkpt>
      <trkpt lat="48.799981" lon="9.797394">
        <ele>326.4</ele>
        <time>2026-08-30T14:05:22Z</time>
      </trkpt>
      <trkpt lat="48.799981" lon="9.797394">
        <ele>326.4</ele>
        <time>2026-08-30T14:05:23Z</time>
      </trkpt>
      <trkpt lat="48.799981" lon="9.797394">
        <ele>326.4</ele>
        <time>2026-08-30T14:05:24Z</time>
      </trkpt>
      <trkpt lat="48.799981" lon="9.797394">
        <ele>326.4</ele>
        <time>2026-08-30T14:05:25Z</time>
      </trkpt>
      <trkpt lat="48.799981" lon="9.797394">
        <ele>326.4</ele>
        <time>2026-08-30T14:05:26Z</time>
      </trkpt>
      <trkpt lat="48.799981" lon="9.797394">
        <ele>326.4</ele>
        <time>2026-08-30T14:05:27Z</time>
      </trkpt>
      <trkpt lat="48.799981" lon="9.797394">
        <ele>326.4</ele>
        <time>2026-08-30T14:05:28Z</time>
      </trkpt>
      <trkpt lat="48.799981" lon="9.797394">
        <ele>326.4</ele>
        <time>2026-08-30T14:05:29Z</time>
      </trkpt>
      <trkpt lat="48.799981" lon="9.797394">
        <ele>326.4</ele>
        <time>2026-08-30T14:05:30Z</time>
      </trkpt>
      <trkpt lat="48.799981" lon="9.797394">
        <ele>326.4</ele>
        <time>2026-08-30T14:05:31Z</time>
      </trkpt>
      <trkpt lat="48.799981" lon="9.797394">
        <ele>326.4</ele>
        <time>2026-08-30T14:05:32Z</time>
      </trkpt>
      <trkpt lat="48.799981" lon="9.797394">
        <ele>326.4</ele>
        <time>2026-08-30T14:05:33Z</time>
      </trkpt>
      <trkpt lat="48.799981" lon="9.797394">
        <ele>326.4</ele>
        <time>2026-08-30T14:05:34Z</time>
      </trkpt>
      <trkpt lat="48.799981" lon="9.797394">
        <ele>326.4</ele>
        <time>2026-08-30T14:05:35Z</time>
      </trkpt>
      <trkpt lat="48.799981" lon="9.797394">
        <ele>326.4</ele>
        <time>2026-08-30T14:05:36Z</time>
      </trkpt>
      <trkpt lat="48.799981" lon="9.797394">
        <ele>326.4</ele>
        <time>2026-08-30T14:05:37Z</time>
      </trkpt>
      <trkpt lat="48.799981" lon="9.797394">
        <ele>326.4</ele>
        <time>2026-08-30T14:05:38Z</time>
      </trkpt>
      <trkpt lat="48.799981" lon="9.797394">
        <ele>326.4</ele>
        <time>2026-08-30T14:05:39Z</time>
      </trkpt>
      <trkpt lat="48.799981" lon="9.797394">
        <ele>326.4</ele>
        <time>2026-08-30T14:05:40Z</time>
      </trkpt>
      <trkpt lat="48.799981" lon="9.797394">
        <ele>326.4</ele>
        <time>2026-08-30T14:05:41Z</time>
      </trkpt>
      <trkpt lat="48.799981" lon="9.797394">
        <ele>326.4</ele>
        <time>2026-08-30T14:05:42Z</time>
      </trkpt>
      <trkpt lat="48.799981" lon="9.797394">
        <ele>326.4</ele>
        <time>2026-08-30T14:05:43Z</time>
      </trkpt>
      <trkpt lat="48.799981" lon="9.797394">
        <ele>326.4</ele>
        <time>2026-08-30T14:05:44Z</time>
      </trkpt>
      <trkpt lat="48.799981" lon="9.797394">
        <ele>326.4</ele>
        <time>2026-08-30T14:05:45Z</time>
      </trkpt>
      <trkpt lat="48.799981" lon="9.797394">
        <ele>326.4</ele>
        <time>2026-08-30T14:05:46Z</time>
      </trkpt>
      <trkpt lat="48.799981" lon="9.797394">
        <ele>326.4</ele>
        <time>2026-08-30T14:05:47Z</time>
      </trkpt>
      <trkpt lat="48.799981" lon="9.797394">
        <ele>326.4</ele>
        <time>2026-08-30T14:05:48Z</time>
      </trkpt>
      <trkpt lat="48.799981" lon="9.797394">
        <ele>326.4</ele>
        <time>2026-08-30T14:05:49Z</time>
      </trkpt>
      <trkpt lat="48.799981" lon="9.797394">
        <ele>326.4</ele>
        <time>2026-08-30T14:05:50Z</time>
      </trkpt>
      <trkpt lat="48.799981" lon="9.797394">
        <ele>326.4</ele>
        <time>2026-08-30T14:05:51Z</time>
      </trkpt>
      <trkpt lat="48.799981" lon="9.797394">
        <ele>326.4</ele>
        <time>2026-08-30T14:05:52Z</time>
      </trkpt>
      <trkpt lat="48.799981" lon="9.797394">
        <ele>326.4</ele>
        <time>2026-08-30T14:05:53Z</time>
      </trkpt>
      <trkpt lat="48.799981" lon="9.797394">
        <ele>326.4</ele>
        <time>2026-08-30T14:05:54Z</time>
      </trkpt>
      <trkpt lat="48.799981" lon="9.797394">
        <ele>326.4</ele>
        <time>2026-08-30T14:05:55Z</time>
      </trkpt>
      <trkpt lat="48.799981" lon="9.797394">
        <ele>326.4</ele>
        <time>2026-08-30T14:05:56Z</time>
      </trkpt>
      <trkpt lat="48.799981" lon="9.797394">
        <ele>326.4</ele>
        <time>2026-08-30T14:05:57Z</time>
      </trkpt>
      <trkpt lat="48.799981" lon="9.797394">
        <ele>326.4</ele>
        <time>2026-08-30T14:05:58Z</time>
      </trkpt>
      <trkpt lat="48.799981" lon="9.797394">
        <ele>326.4</ele>
        <time>2026-08-30T14:05:59Z</time>
      </trkpt>
      <trkpt lat="48.799981" lon="9.797394">
        <ele>326.4</ele>
        <time>2026-08-30T14:06:00Z</time>
      </trkpt>
      <trkpt lat="48.799981" lon="9.797394">
        <ele>326.4</ele>
        <time>2026-08-30T14:06:01Z</time>
      </trkpt>
      <trkpt lat="48.799981" lon="9.797394">
        <ele>326.4</ele>
        <time>2026-08-30T14:06:02Z</time>
      </trkpt>
      <trkpt lat="48.799981" lon="9.797394">
        <ele>326.4</ele>
        <time>2026-08-30T14:06:03Z</time>
      </trkpt>
      <trkpt lat="48.799981" lon="9.797394">
        <ele>326.4</ele>
        <time>2026-08-30T14:06:04Z</time>
      </trkpt>
      <trkpt lat="48.799981" lon="9.797394">
        <ele>326.4</ele>
        <time>2026-08-30T14:06:05Z</time>
      </trkpt>
      <trkpt lat="48.799981" lon="9.797394">
        <ele>326.4</ele>
        <time>2026-08-30T14:06:06Z</time>
      </trkpt>
      <trkpt lat="48.799981" lon="9.797394">
        <ele>326.4</ele>
        <time>2026-08-30T14:06:07Z</time>
      </trkpt>
      <trkpt lat="48.799981" lon="9.797394">
        <ele>326.4</ele>
        <time>2026-08-30T14:06:08Z</time>
      </trkpt>
      <trkpt lat="48.799981" lon="9.797394">
        <ele>326.4</ele>
        <time>2026-08-30T14:06:09Z</time>
      </trkpt>
      <trkpt lat="48.799981" lon="9.797394">
        <ele>326.4</ele>
        <time>2026-08-30T14:06:10Z</time>
      </trkpt>
      <trkpt lat="48.799981" lon="9.797394">
        <ele>326.4</ele>
        <time>2026-08-30T14:06:11Z</time>
      </trkpt>
      <trkpt lat="48.799981" lon="9.797394">
        <ele>326.4</ele>
        <time>2026-08-30T14:06:12Z</time>
      </trkpt>
      <trkpt lat="48.799981" lon="9.797394">
        <ele>326.4</ele>
        <time>2026-08-30T14:06:13Z</time>
      </trkpt>
      <trkpt lat="48.799981" lon="9.797394">
        <ele>326.4</ele>
        <time>2026-08-30T14:06:14Z</time>
      </trkpt>
      <trkpt lat="48.799981" lon="9.797394">
        <ele>326.4</ele>
        <time>2026-08-30T14:06:15Z</time>
      </trkpt>
      <trkpt lat="48.799981" lon="9.797394">
        <ele>326.4</ele>
        <time>2026-08-30T14:06:16Z</time>
      </trkpt>
      <trkpt lat="48.799981" lon="9.797394">
        <ele>326.4</ele>
        <time>2026-08-30T14:06:17Z</time>
      </trkpt>
      <trkpt lat="48.799981" lon="9.797394">
        <ele>326.4</ele>
        <time>2026-08-30T14:06:18Z</time>
      </trkpt>
      <trkpt lat="48.799981" lon="9.797394">
        <ele>326.4</ele>
        <time>2026-08-30T14:06:19Z</time>
      </trkpt>
      <trkpt lat="48.799981" lon="9.797394">
        <ele>326.4</ele>
        <time>2026-08-30T14:06:20Z</time>
      </trkpt>
      <trkpt lat="48.799981" lon="9.797394">
        <ele>326.4</ele>
        <time>2026-08-30T14:06:21Z</time>
      </trkpt>
      <trkpt lat="48.799981" lon="9.797394">
        <ele>326.4</ele>
        <time>2026-08-30T14:06:22Z</time>
      </trkpt>
      <trkpt lat="48.799981" lon="9.797394">
        <ele>326.4</ele>
        <time>2026-08-30T14:06:23Z</time>
      </trkpt>
      <trkpt lat="48.799981" lon="9.797394">
        <ele>326.4</ele>
        <time>2026-08-30T14:06:24Z</time>
      </trkpt>
      <trkpt lat="48.799981" lon="9.797394">
        <ele>326.4</ele>
        <time>2026-08-30T14:06:25Z</time>
      </trkpt>
      <trkpt lat="48.799981" lon="9.797394">
        <ele>326.4</ele>
        <time>2026-08-30T14:06:26Z</time>
      </trkpt>
      <trkpt lat="48.799981" lon="9.797394">
        <ele>326.4</ele>
        <time>2026-08-30T14:06:27Z</time>
      </trkpt>
      <trkpt lat="48.799981" lon="9.797394">
        <ele>326.4</ele>
        <time>2026-08-30T14:06:28Z</time>
      </trkpt>
      <trkpt lat="48.799981" lon="9.797394">
        <ele>326.4</ele>
        <time>2026-08-30T14:06:29Z</time>
      </trkpt>
      <trkpt lat="48.799981" lon="9.797394">
        <ele>326.4</ele>
        <time>2026-08-30T14:06:30Z</time>
      </trkpt>
      <trkpt lat="48.799981" lon="9.797394">
        <ele>326.4</ele>
        <time>2026-08-30T14:06:31Z</time>
      </trkpt>
      <trkpt lat="48.799981" lon="9.797394">
        <ele>326.4</ele>
        <time>2026-08-30T14:06:32Z</time>
      </trkpt>
      <trkpt lat="48.799981" lon="9.797394">
        <ele>326.4</ele>
        <time>2026-08-30T14:06:33Z</time>
      </trkpt>
      <trkpt lat="48.799981" lon="9.797394">
        <ele>326.4</ele>
        <time>2026-08-30T14:06:34Z</time>
      </trkpt>
      <trkpt lat="48.799981" lon="9.797394">
        <ele>326.4</ele>
        <time>2026-08-30T14:06:35Z</time>
      </trkpt>
      <trkpt lat="48.799981" lon="9.797394">
        <ele>326.4</ele>
        <time>2026-08-30T14:06:36Z</time>
      </trkpt>
      <trkpt lat="48.799981" lon="9.797394">
        <ele>326.4</ele>
        <time>2026-08-30T14:06:37Z</time>
      </trkpt>
      <trkpt lat="48.799981" lon="9.797394">
        <ele>326.4</ele>
        <time>2026-08-30T14:06:38Z</time>
      </trkpt>
      <trkpt lat="48.799981" lon="9.797394">
        <ele>326.4</ele>
        <time>2026-08-30T14:06:39Z</time>
      </trkpt>
      <trkpt lat="48.799981" lon="9.797394">
        <ele>326.4</ele>
        <time>2026-08-30T14:06:40Z</time>
      </trkpt>
      <trkpt lat="48.799981" lon="9.797394">
        <ele>326.4</ele>
        <time>2026-08-30T14:06:41Z</time>
      </trkpt>
      <trkpt lat="48.799981" lon="9.797394">
        <ele>326.4</ele>
        <time>2026-08-30T14:06:42Z</time>
      </trkpt>
      <trkpt lat="48.799981" lon="9.797394">
        <ele>326.4</ele>
        <time>2026-08-30T14:06:43Z</time>
      </trkpt>
      <trkpt lat="48.799981" lon="9.797394">
        <ele>326.4</ele>
        <time>2026-08-30T14:06:44Z</time>
      </trkpt>
      <trkpt lat="48.799981" lon="9.797394">
        <ele>326.4</ele>
        <time>2026-08-30T14:06:45Z</time>
      </trkpt>
      <trkpt lat="48.799981" lon="9.797394">
        <ele>326.4</ele>
        <time>2026-08-30T14:06:46Z</time>
      </trkpt>
      <trkpt lat="48.799981" lon="9.797394">
        <ele>326.4</ele>
        <time>2026-08-30T14:06:47Z</time>
      </trkpt>
      <trkpt lat="48.799981" lon="9.797394">
        <ele>326.4</ele>
        <time>2026-08-30T14:06:48Z</time>
      </trkpt>
      <trkpt lat="48.799981" lon="9.797394">
        <ele>326.4</ele>
        <time>2026-08-30T14:06:49Z</time>
      </trkpt>
      <trkpt lat="48.799981" lon="9.797394">
        <ele>326.4</ele>
        <time>2026-08-30T14:06:50Z</time>
      </trkpt>
      <trkpt lat="48.799981" lon="9.797394">
        <ele>326.4</ele>
        <time>2026-08-30T14:06:51Z</time>
      </trkpt>
      <trkpt lat="48.799981" lon="9.797394">
        <ele>326.4</ele>
        <time>2026-08-30T14:06:52Z</time>
      </trkpt>
      <trkpt lat="48.799981" lon="9.797394">
        <ele>326.4</ele>
        <time>2026-08-30T14:06:53Z</time>
      </trkpt>
      <trkpt lat="48.799981" lon="9.797394">
        <ele>326.4</ele>
        <time>2026-08-30T14:06:54Z</time>
      </trkpt>
      <trkpt lat="48.799981" lon="9.797394">
        <ele>326.4</ele>
        <time>2026-08-30T14:06:55Z</time>
      </trkpt>
      <trkpt lat="48.799981" lon="9.797394">
        <ele>326.4</ele>
        <time>2026-08-30T14:06:56Z</time>
      </trkpt>
      <trkpt lat="48.799981" lon="9.797394">
        <ele>326.4</ele>
        <time>2026-08-30T14:06:57Z</time>
      </trkpt>
      <trkpt lat="48.799981" lon="9.797394">
        <ele>326.4</ele>
        <time>2026-08-30T14:06:58Z</time>
      </trkpt>
      <trkpt lat="48.799981" lon="9.797394">
        <ele>326.4</ele>
        <time>2026-08-30T14:06:59Z</time>
      </trkpt>
      <trkpt lat="48.799981" lon="9.797394">
        <ele>326.4</ele>
        <time>2026-08-30T14:07:00Z</time>
      </trkpt>
      <trkpt lat="48.799981" lon="9.797394">
        <ele>326.4</ele>
        <time>2026-08-30T14:07:01Z</time>
      </trkpt>
      <trkpt lat="48.799981" lon="9.797394">
        <ele>326.4</ele>
        <time>2026-08-30T14:07:02Z</time>
      </trkpt>
      <trkpt lat="48.799981" lon="9.797394">
        <ele>326.4</ele>
        <time>2026-08-30T14:07:03Z</time>
      </trkpt>
      <trkpt lat="48.799981" lon="9.797394">
        <ele>326.4</ele>
        <time>2026-08-30T14:07:04Z</time>
      </trkpt>
      <trkpt lat="48.799981" lon="9.797394">
        <ele>326.4</ele>
        <time>2026-08-30T14:07:05Z</time>
      </trkpt>
      <trkpt lat="48.799981" lon="9.797394">
        <ele>326.4</ele>
        <time>2026-08-30T14:07:06Z</time>
      </trkpt>
      <trkpt lat="48.799981" lon="9.797394">
        <ele>326.4</ele>
        <time>2026-08-30T14:07:07Z</time>
      </trkpt>
      <trkpt lat="48.799981" lon="9.797394">
        <ele>326.4</ele>
        <time>2026-08-30T14:07:08Z</time>
      </trkpt>
      <trkpt lat="48.799981" lon="9.797394">
        <ele>326.4</ele>
        <time>2026-08-30T14:07:09Z</time>
      </trkpt>
      <trkpt lat="48.799981" lon="9.797394">
        <ele>326.4</ele>
        <time>2026-08-30T14:07:10Z</time>
      </trkpt>
      <trkpt lat="48.799981" lon="9.797394">
        <ele>326.4</ele>
        <time>2026-08-30T14:07:11Z</time>
      </trkpt>
      <trkpt lat="48.799981" lon="9.797394">
        <ele>326.4</ele>
        <time>2026-08-30T14:07:12Z</time>
      </trkpt>
      <trkpt lat="48.799981" lon="9.797394">
        <ele>326.4</ele>
        <time>2026-08-30T14:07:13Z</time>
      </trkpt>
      <trkpt lat="48.799981" lon="9.797394">
        <ele>326.4</ele>
        <time>2026-08-30T14:07:14Z</time>
      </trkpt>
      <trkpt lat="48.799981" lon="9.797394">
        <ele>326.4</ele>
        <time>2026-08-30T14:07:15Z</time>
      </trkpt>
      <trkpt lat="48.799981" lon="9.797394">
        <ele>326.4</ele>
        <time>2026-08-30T14:07:16Z</time>
      </trkpt>
      <trkpt lat="48.799981" lon="9.797394">
        <ele>326.4</ele>
        <time>2026-08-30T14:07:17Z</time>
      </trkpt>
      <trkpt lat="48.799981" lon="9.797394">
        <ele>326.4</ele>
        <time>2026-08-30T14:07:18Z</time>
      </trkpt>
      <trkpt lat="48.799981" lon="9.797394">
        <ele>326.4</ele>
        <time>2026-08-30T14:07:19Z</time>
      </trkpt>
      <trkpt lat="48.799981" lon="9.797394">
        <ele>326.4</ele>
        <time>2026-08-30T14:07:20Z</time>
      </trkpt>
      <trkpt lat="48.799981" lon="9.797394">
        <ele>326.4</ele>
        <time>2026-08-30T14:07:21Z</time>
      </trkpt>
      <trkpt lat="48.799981" lon="9.797394">
        <ele>326.4</ele>
        <time>2026-08-30T14:07:22Z</time>
      </trkpt>
      <trkpt lat="48.799981" lon="9.797394">
        <ele>326.4</ele>
        <time>2026-08-30T14:07:23Z</time>
      </trkpt>
      <trkpt lat="48.799981" lon="9.797394">
        <ele>326.4</ele>
        <time>2026-08-30T14:07:24Z</time>
      </trkpt>
      <trkpt lat="48.799981" lon="9.797394">
        <ele>326.4</ele>
        <time>2026-08-30T14:07:25Z</time>
      </trkpt>
      <trkpt lat="48.799981" lon="9.797394">
        <ele>326.4</ele>
        <time>2026-08-30T14:07:26Z</time>
      </trkpt>
      <trkpt lat="48.799981" lon="9.797394">
        <ele>326.4</ele>
        <time>2026-08-30T14:07:27Z</time>
      </trkpt>
      <trkpt lat="48.799981" lon="9.797394">
        <ele>326.4</ele>
        <time>2026-08-30T14:07:28Z</time>
      </trkpt>
      <trkpt lat="48.799981" lon="9.797394">
        <ele>326.4</ele>
        <time>2026-08-30T14:07:29Z</time>
      </trkpt>
      <trkpt lat="48.799981" lon="9.797394">
        <ele>326.4</ele>
        <time>2026-08-30T14:07:30Z</time>
      </trkpt>
      <trkpt lat="48.799981" lon="9.797394">
        <ele>326.4</ele>
        <time>2026-08-30T14:07:31Z</time>
      </trkpt>
      <trkpt lat="48.799981" lon="9.797394">
        <ele>326.4</ele>
        <time>2026-08-30T14:07:32Z</time>
      </trkpt>
      <trkpt lat="48.799981" lon="9.797394">
        <ele>326.4</ele>
        <time>2026-08-30T14:07:33Z</time>
      </trkpt>
      <trkpt lat="48.799981" lon="9.797394">
        <ele>326.4</ele>
        <time>2026-08-30T14:07:34Z</time>
      </trkpt>
      <trkpt lat="48.799981" lon="9.797394">
        <ele>326.4</ele>
        <time>2026-08-30T14:07:35Z</time>
      </trkpt>
      <trkpt lat="48.799981" lon="9.797394">
        <ele>326.4</ele>
        <time>2026-08-30T14:07:36Z</time>
      </trkpt>
      <trkpt lat="48.799981" lon="9.797394">
        <ele>326.4</ele>
        <time>2026-08-30T14:07:37Z</time>
      </trkpt>
      <trkpt lat="48.799981" lon="9.797394">
        <ele>326.4</ele>
        <time>2026-08-30T14:07:38Z</time>
      </trkpt>
      <trkpt lat="48.799981" lon="9.797394">
        <ele>326.4</ele>
        <time>2026-08-30T14:07:39Z</time>
      </trkpt>
      <trkpt lat="48.799981" lon="9.797394">
        <ele>326.4</ele>
        <time>2026-08-30T14:07:40Z</time>
      </trkpt>
      <trkpt lat="48.799981" lon="9.797394">
        <ele>326.4</ele>
        <time>2026-08-30T14:07:41Z</time>
      </trkpt>
      <trkpt lat="48.799981" lon="9.797394">
        <ele>326.4</ele>
        <time>2026-08-30T14:07:42Z</time>
      </trkpt>
      <trkpt lat="48.799981" lon="9.797394">
        <ele>326.4</ele>
        <time>2026-08-30T14:07:43Z</time>
      </trkpt>
      <trkpt lat="48.799981" lon="9.797394">
        <ele>326.4</ele>
        <time>2026-08-30T14:07:44Z</time>
      </trkpt>
      <trkpt lat="48.799977" lon="9.797413">
        <ele>326.4</ele>
        <time>2026-08-30T14:07:45Z</time>
      </trkpt>
      <trkpt lat="48.799977" lon="9.797413">
        <ele>326.4</ele>
        <time>2026-08-30T14:07:46Z</time>
      </trkpt>
      <trkpt lat="48.799977" lon="9.797413">
        <ele>326.4</ele>
        <time>2026-08-30T14:07:47Z</time>
      </trkpt>
      <trkpt lat="48.799977" lon="9.797413">
        <ele>326.4</ele>
        <time>2026-08-30T14:07:48Z</time>
      </trkpt>
      <trkpt lat="48.799977" lon="9.797413">
        <ele>326.4</ele>
        <time>2026-08-30T14:07:49Z</time>
      </trkpt>
      <trkpt lat="48.799977" lon="9.797413">
        <ele>326.4</ele>
        <time>2026-08-30T14:07:50Z</time>
      </trkpt>
      <trkpt lat="48.799977" lon="9.797413">
        <ele>326.4</ele>
        <time>2026-08-30T14:07:51Z</time>
      </trkpt>
      <trkpt lat="48.799977" lon="9.797413">
        <ele>326.4</ele>
        <time>2026-08-30T14:07:52Z</time>
      </trkpt>
      <trkpt lat="48.799977" lon="9.797413">
        <ele>326.4</ele>
        <time>2026-08-30T14:07:53Z</time>
      </trkpt>
      <trkpt lat="48.799977" lon="9.797413">
        <ele>326.4</ele>
        <time>2026-08-30T14:07:54Z</time>
      </trkpt>
      <trkpt lat="48.799977" lon="9.797413">
        <ele>326.4</ele>
        <time>2026-08-30T14:07:55Z</time>
      </trkpt>
      <trkpt lat="48.799977" lon="9.797413">
        <ele>326.4</ele>
        <time>2026-08-30T14:07:56Z</time>
      </trkpt>
      <trkpt lat="48.799977" lon="9.797413">
        <ele>326.4</ele>
        <time>2026-08-30T14:07:57Z</time>
      </trkpt>
      <trkpt lat="48.799977" lon="9.797413">
        <ele>326.4</ele>
        <time>2026-08-30T14:07:58Z</time>
      </trkpt>
      <trkpt lat="48.799977" lon="9.797413">
        <ele>326.4</ele>
        <time>2026-08-30T14:07:59Z</time>
      </trkpt>
      <trkpt lat="48.799977" lon="9.797413">
        <ele>326.4</ele>
        <time>2026-08-30T14:08:00Z</time>
      </trkpt>
      <trkpt lat="48.799977" lon="9.797413">
        <ele>326.4</ele>
        <time>2026-08-30T14:08:01Z</time>
      </trkpt>
      <trkpt lat="48.799977" lon="9.797413">
        <ele>326.4</ele>
        <time>2026-08-30T14:08:02Z</time>
      </trkpt>
      <trkpt lat="48.799977" lon="9.797413">
        <ele>326.4</ele>
        <time>2026-08-30T14:08:03Z</time>
      </trkpt>
      <trkpt lat="48.799977" lon="9.797413">
        <ele>326.4</ele>
        <time>2026-08-30T14:08:04Z</time>
      </trkpt>
      <trkpt lat="48.799977" lon="9.797413">
        <ele>326.4</ele>
        <time>2026-08-30T14:08:05Z</time>
      </trkpt>
      <trkpt lat="48.799977" lon="9.797413">
        <ele>326.4</ele>
        <time>2026-08-30T14:08:06Z</time>
      </trkpt>
      <trkpt lat="48.799977" lon="9.797413">
        <ele>326.4</ele>
        <time>2026-08-30T14:08:07Z</time>
      </trkpt>
      <trkpt lat="48.799977" lon="9.797413">
        <ele>326.4</ele>
        <time>2026-08-30T14:08:08Z</time>
      </trkpt>
      <trkpt lat="48.799977" lon="9.797413">
        <ele>326.4</ele>
        <time>2026-08-30T14:08:09Z</time>
      </trkpt>
      <trkpt lat="48.799977" lon="9.797413">
        <ele>326.4</ele>
        <time>2026-08-30T14:08:10Z</time>
      </trkpt>
      <trkpt lat="48.799977" lon="9.797413">
        <ele>326.4</ele>
        <time>2026-08-30T14:08:11Z</time>
      </trkpt>
      <trkpt lat="48.799977" lon="9.797413">
        <ele>326.4</ele>
        <time>2026-08-30T14:08:12Z</time>
      </trkpt>
      <trkpt lat="48.799977" lon="9.797413">
        <ele>326.4</ele>
        <time>2026-08-30T14:08:13Z</time>
      </trkpt>
      <trkpt lat="48.799977" lon="9.797413">
        <ele>326.4</ele>
        <time>2026-08-30T14:08:14Z</time>
      </trkpt>
      <trkpt lat="48.799977" lon="9.797413">
        <ele>326.4</ele>
        <time>2026-08-30T14:08:15Z</time>
      </trkpt>
      <trkpt lat="48.799977" lon="9.797413">
        <ele>326.4</ele>
        <time>2026-08-30T14:08:16Z</time>
      </trkpt>
      <trkpt lat="48.799977" lon="9.797413">
        <ele>326.4</ele>
        <time>2026-08-30T14:08:17Z</time>
      </trkpt>
      <trkpt lat="48.799977" lon="9.797413">
        <ele>326.4</ele>
        <time>2026-08-30T14:08:18Z</time>
      </trkpt>
      <trkpt lat="48.799977" lon="9.797413">
        <ele>326.4</ele>
        <time>2026-08-30T14:08:19Z</time>
      </trkpt>
      <trkpt lat="48.799977" lon="9.797413">
        <ele>326.4</ele>
        <time>2026-08-30T14:08:20Z</time>
      </trkpt>
      <trkpt lat="48.799977" lon="9.797413">
        <ele>326.4</ele>
        <time>2026-08-30T14:08:21Z</time>
      </trkpt>
      <trkpt lat="48.799977" lon="9.797413">
        <ele>326.4</ele>
        <time>2026-08-30T14:08:22Z</time>
      </trkpt>
      <trkpt lat="48.799977" lon="9.797413">
        <ele>326.4</ele>
        <time>2026-08-30T14:08:23Z</time>
      </trkpt>
      <trkpt lat="48.799977" lon="9.797413">
        <ele>326.4</ele>
        <time>2026-08-30T14:08:24Z</time>
      </trkpt>
      <trkpt lat="48.799977" lon="9.797413">
        <ele>326.4</ele>
        <time>2026-08-30T14:08:25Z</time>
      </trkpt>
      <trkpt lat="48.799977" lon="9.797413">
        <ele>326.4</ele>
        <time>2026-08-30T14:08:26Z</time>
      </trkpt>
      <trkpt lat="48.799977" lon="9.797413">
        <ele>326.4</ele>
        <time>2026-08-30T14:08:27Z</time>
      </trkpt>
      <trkpt lat="48.799977" lon="9.797413">
        <ele>326.4</ele>
        <time>2026-08-30T14:08:28Z</time>
      </trkpt>
      <trkpt lat="48.799977" lon="9.797413">
        <ele>326.4</ele>
        <time>2026-08-30T14:08:29Z</time>
      </trkpt>
      <trkpt lat="48.799977" lon="9.797413">
        <ele>326.4</ele>
        <time>2026-08-30T14:08:30Z</time>
      </trkpt>
      <trkpt lat="48.799977" lon="9.797413">
        <ele>326.4</ele>
        <time>2026-08-30T14:08:31Z</time>
      </trkpt>
      <trkpt lat="48.799977" lon="9.797413">
        <ele>326.4</ele>
        <time>2026-08-30T14:08:32Z</time>
      </trkpt>
      <trkpt lat="48.799977" lon="9.797413">
        <ele>326.4</ele>
        <time>2026-08-30T14:08:33Z</time>
      </trkpt>
      <trkpt lat="48.799977" lon="9.797413">
        <ele>326.4</ele>
        <time>2026-08-30T14:08:34Z</time>
      </trkpt>
      <trkpt lat="48.799977" lon="9.797413">
        <ele>326.4</ele>
        <time>2026-08-30T14:08:35Z</time>
      </trkpt>
      <trkpt lat="48.799977" lon="9.797413">
        <ele>326.4</ele>
        <time>2026-08-30T14:08:36Z</time>
      </trkpt>
      <trkpt lat="48.799977" lon="9.797413">
        <ele>326.4</ele>
        <time>2026-08-30T14:08:37Z</time>
      </trkpt>
      <trkpt lat="48.799977" lon="9.797413">
        <ele>326.4</ele>
        <time>2026-08-30T14:08:38Z</time>
      </trkpt>
      <trkpt lat="48.799977" lon="9.797413">
        <ele>326.4</ele>
        <time>2026-08-30T14:08:39Z</time>
      </trkpt>
      <trkpt lat="48.799977" lon="9.797413">
        <ele>326.4</ele>
        <time>2026-08-30T14:08:40Z</time>
      </trkpt>
      <trkpt lat="48.799977" lon="9.797413">
        <ele>326.4</ele>
        <time>2026-08-30T14:08:41Z</time>
      </trkpt>
      <trkpt lat="48.799977" lon="9.797413">
        <ele>326.4</ele>
        <time>2026-08-30T14:08:42Z</time>
      </trkpt>
      <trkpt lat="48.799977" lon="9.797413">
        <ele>326.4</ele>
        <time>2026-08-30T14:08:43Z</time>
      </trkpt>
      <trkpt lat="48.799977" lon="9.797413">
        <ele>326.4</ele>
        <time>2026-08-30T14:08:44Z</time>
      </trkpt>
      <trkpt lat="48.799977" lon="9.797413">
        <ele>326.4</ele>
        <time>2026-08-30T14:08:45Z</time>
      </trkpt>
      <trkpt lat="48.799977" lon="9.797413">
        <ele>326.4</ele>
        <time>2026-08-30T14:08:46Z</time>
      </trkpt>
      <trkpt lat="48.799977" lon="9.797413">
        <ele>326.4</ele>
        <time>2026-08-30T14:08:47Z</time>
      </trkpt>
      <trkpt lat="48.799977" lon="9.797413">
        <ele>326.4</ele>
        <time>2026-08-30T14:08:48Z</time>
      </trkpt>
      <trkpt lat="48.799977" lon="9.797413">
        <ele>326.4</ele>
        <time>2026-08-30T14:08:49Z</time>
      </trkpt>
      <trkpt lat="48.799977" lon="9.797413">
        <ele>326.4</ele>
        <time>2026-08-30T14:08:50Z</time>
      </trkpt>
      <trkpt lat="48.799977" lon="9.797413">
        <ele>326.4</ele>
        <time>2026-08-30T14:08:51Z</time>
      </trkpt>
      <trkpt lat="48.799977" lon="9.797413">
        <ele>326.4</ele>
        <time>2026-08-30T14:08:52Z</time>
      </trkpt>
      <trkpt lat="48.799977" lon="9.797413">
        <ele>326.4</ele>
        <time>2026-08-30T14:08:53Z</time>
      </trkpt>
      <trkpt lat="48.799977" lon="9.797413">
        <ele>326.4</ele>
        <time>2026-08-30T14:08:54Z</time>
      </trkpt>
      <trkpt lat="48.799977" lon="9.797413">
        <ele>326.4</ele>
        <time>2026-08-30T14:08:55Z</time>
      </trkpt>
      <trkpt lat="48.799977" lon="9.797413">
        <ele>326.4</ele>
        <time>2026-08-30T14:08:56Z</time>
      </trkpt>
      <trkpt lat="48.799977" lon="9.797413">
        <ele>326.4</ele>
        <time>2026-08-30T14:08:57Z</time>
      </trkpt>
      <trkpt lat="48.799977" lon="9.797413">
        <ele>326.4</ele>
        <time>2026-08-30T14:08:58Z</time>
      </trkpt>
      <trkpt lat="48.799977" lon="9.797413">
        <ele>326.4</ele>
        <time>2026-08-30T14:08:59Z</time>
      </trkpt>
      <trkpt lat="48.799977" lon="9.797413">
        <ele>326.4</ele>
        <time>2026-08-30T14:09:00Z</time>
      </trkpt>
      <trkpt lat="48.799977" lon="9.797413">
        <ele>326.4</ele>
        <time>2026-08-30T14:09:01Z</time>
      </trkpt>
      <trkpt lat="48.799977" lon="9.797413">
        <ele>326.4</ele>
        <time>2026-08-30T14:09:02Z</time>
      </trkpt>
      <trkpt lat="48.799977" lon="9.797413">
        <ele>326.4</ele>
        <time>2026-08-30T14:09:03Z</time>
      </trkpt>
      <trkpt lat="48.799977" lon="9.797413">
        <ele>326.4</ele>
        <time>2026-08-30T14:09:04Z</time>
      </trkpt>
      <trkpt lat="48.799977" lon="9.797413">
        <ele>326.4</ele>
        <time>2026-08-30T14:09:05Z</time>
      </trkpt>
      <trkpt lat="48.799977" lon="9.797413">
        <ele>326.4</ele>
        <time>2026-08-30T14:09:06Z</time>
      </trkpt>
      <trkpt lat="48.799977" lon="9.797413">
        <ele>326.4</ele>
        <time>2026-08-30T14:09:07Z</time>
      </trkpt>
      <trkpt lat="48.799977" lon="9.797413">
        <ele>326.4</ele>
        <time>2026-08-30T14:09:08Z</time>
      </trkpt>
      <trkpt lat="48.799977" lon="9.797413">
        <ele>326.4</ele>
        <time>2026-08-30T14:09:09Z</time>
      </trkpt>
      <trkpt lat="48.799977" lon="9.797413">
        <ele>326.4</ele>
        <time>2026-08-30T14:09:10Z</time>
      </trkpt>
      <trkpt lat="48.799977" lon="9.797413">
        <ele>326.4</ele>
        <time>2026-08-30T14:09:11Z</time>
      </trkpt>
      <trkpt lat="48.799977" lon="9.797413">
        <ele>326.4</ele>
        <time>2026-08-30T14:09:12Z</time>
      </trkpt>
      <trkpt lat="48.799977" lon="9.797413">
        <ele>326.4</ele>
        <time>2026-08-30T14:09:13Z</time>
      </trkpt>
      <trkpt lat="48.799977" lon="9.797413">
        <ele>326.4</ele>
        <time>2026-08-30T14:09:14Z</time>
      </trkpt>
      <trkpt lat="48.799977" lon="9.797413">
        <ele>326.4</ele>
        <time>2026-08-30T14:09:15Z</time>
      </trkpt>
      <trkpt lat="48.799977" lon="9.797413">
        <ele>326.4</ele>
        <time>2026-08-30T14:09:16Z</time>
      </trkpt>
      <trkpt lat="48.799977" lon="9.797413">
        <ele>326.4</ele>
        <time>2026-08-30T14:09:17Z</time>
      </trkpt>
      <trkpt lat="48.799977" lon="9.797413">
        <ele>326.4</ele>
        <time>2026-08-30T14:09:18Z</time>
      </trkpt>
      <trkpt lat="48.799977" lon="9.797413">
        <ele>326.4</ele>
        <time>2026-08-30T14:09:19Z</time>
      </trkpt>
      <trkpt lat="48.799977" lon="9.797413">
        <ele>326.4</ele>
        <time>2026-08-30T14:09:20Z</time>
      </trkpt>
      <trkpt lat="48.799977" lon="9.797413">
        <ele>326.4</ele>
        <time>2026-08-30T14:09:21Z</time>
      </trkpt>
      <trkpt lat="48.799977" lon="9.797413">
        <ele>326.4</ele>
        <time>2026-08-30T14:09:22Z</time>
      </trkpt>
      <trkpt lat="48.799977" lon="9.797413">
        <ele>326.4</ele>
        <time>2026-08-30T14:09:23Z</time>
      </trkpt>
      <trkpt lat="48.799977" lon="9.797413">
        <ele>326.4</ele>
        <time>2026-08-30T14:09:24Z</time>
      </trkpt>
      <trkpt lat="48.799977" lon="9.797413">
        <ele>326.4</ele>
        <time>2026-08-30T14:09:25Z</time>
      </trkpt>
      <trkpt lat="48.799977" lon="9.797413">
        <ele>326.4</ele>
        <time>2026-08-30T14:09:26Z</time>
      </trkpt>
      <trkpt lat="48.799977" lon="9.797413">
        <ele>326.4</ele>
        <time>2026-08-30T14:09:27Z</time>
      </trkpt>
      <trkpt lat="48.799977" lon="9.797413">
        <ele>326.4</ele>
        <time>2026-08-30T14:09:28Z</time>
      </trkpt>
      <trkpt lat="48.799977" lon="9.797413">
        <ele>326.4</ele>
        <time>2026-08-30T14:09:29Z</time>
      </trkpt>
      <trkpt lat="48.799977" lon="9.797413">
        <ele>326.4</ele>
        <time>2026-08-30T14:09:30Z</time>
      </trkpt>
      <trkpt lat="48.799977" lon="9.797413">
        <ele>326.4</ele>
        <time>2026-08-30T14:09:31Z</time>
      </trkpt>
      <trkpt lat="48.799977" lon="9.797413">
        <ele>326.4</ele>
        <time>2026-08-30T14:09:32Z</time>
      </trkpt>
      <trkpt lat="48.799977" lon="9.797413">
        <ele>326.4</ele>
        <time>2026-08-30T14:09:33Z</time>
      </trkpt>
      <trkpt lat="48.799977" lon="9.797413">
        <ele>326.4</ele>
        <time>2026-08-30T14:09:34Z</time>
      </trkpt>
      <trkpt lat="48.799977" lon="9.797413">
        <ele>326.4</ele>
        <time>2026-08-30T14:09:35Z</time>
      </trkpt>
      <trkpt lat="48.799977" lon="9.797413">
        <ele>326.4</ele>
        <time>2026-08-30T14:09:36Z</time>
      </trkpt>
      <trkpt lat="48.799977" lon="9.797413">
        <ele>326.4</ele>
        <time>2026-08-30T14:09:37Z</time>
      </trkpt>
      <trkpt lat="48.799977" lon="9.797413">
        <ele>326.4</ele>
        <time>2026-08-30T14:09:38Z</time>
      </trkpt>
      <trkpt lat="48.799977" lon="9.797413">
        <ele>326.4</ele>
        <time>2026-08-30T14:09:39Z</time>
      </trkpt>
      <trkpt lat="48.799977" lon="9.797413">
        <ele>326.4</ele>
        <time>2026-08-30T14:09:40Z</time>
      </trkpt>
      <trkpt lat="48.799977" lon="9.797413">
        <ele>326.4</ele>
        <time>2026-08-30T14:09:41Z</time>
      </trkpt>
      <trkpt lat="48.799977" lon="9.797413">
        <ele>326.4</ele>
        <time>2026-08-30T14:09:42Z</time>
      </trkpt>
      <trkpt lat="48.799977" lon="9.797413">
        <ele>326.4</ele>
        <time>2026-08-30T14:09:43Z</time>
      </trkpt>
      <trkpt lat="48.799977" lon="9.797413">
        <ele>326.4</ele>
        <time>2026-08-30T14:09:44Z</time>
      </trkpt>
      <trkpt lat="48.799977" lon="9.797413">
        <ele>326.4</ele>
        <time>2026-08-30T14:09:45Z</time>
      </trkpt>
      <trkpt lat="48.799977" lon="9.797413">
        <ele>326.4</ele>
        <time>2026-08-30T14:09:46Z</time>
      </trkpt>
      <trkpt lat="48.799977" lon="9.797413">
        <ele>326.4</ele>
        <time>2026-08-30T14:09:47Z</time>
      </trkpt>
      <trkpt lat="48.799977" lon="9.797413">
        <ele>326.4</ele>
        <time>2026-08-30T14:09:48Z</time>
      </trkpt>
      <trkpt lat="48.799977" lon="9.797413">
        <ele>326.4</ele>
        <time>2026-08-30T14:09:49Z</time>
      </trkpt>
      <trkpt lat="48.799977" lon="9.797413">
        <ele>326.4</ele>
        <time>2026-08-30T14:09:50Z</time>
      </trkpt>
      <trkpt lat="48.799977" lon="9.797413">
        <ele>326.4</ele>
        <time>2026-08-30T14:09:51Z</time>
      </trkpt>
      <trkpt lat="48.799977" lon="9.797413">
        <ele>326.4</ele>
        <time>2026-08-30T14:09:52Z</time>
      </trkpt>
      <trkpt lat="48.799977" lon="9.797413">
        <ele>326.4</ele>
        <time>2026-08-30T14:09:53Z</time>
      </trkpt>
      <trkpt lat="48.799977" lon="9.797413">
        <ele>326.4</ele>
        <time>2026-08-30T14:09:54Z</time>
      </trkpt>
      <trkpt lat="48.799977" lon="9.797413">
        <ele>326.4</ele>
        <time>2026-08-30T14:09:55Z</time>
      </trkpt>
      <trkpt lat="48.799977" lon="9.797413">
        <ele>326.4</ele>
        <time>2026-08-30T14:09:56Z</time>
      </trkpt>
      <trkpt lat="48.799977" lon="9.797413">
        <ele>326.4</ele>
        <time>2026-08-30T14:09:57Z</time>
      </trkpt>
      <trkpt lat="48.799977" lon="9.797413">
        <ele>326.4</ele>
        <time>2026-08-30T14:09:58Z</time>
      </trkpt>
      <trkpt lat="48.799977" lon="9.797413">
        <ele>326.4</ele>
        <time>2026-08-30T14:09:59Z</time>
      </trkpt>
      <trkpt lat="48.799977" lon="9.797413">
        <ele>326.4</ele>
        <time>2026-08-30T14:10:00Z</time>
      </trkpt>
      <trkpt lat="48.799977" lon="9.797413">
        <ele>326.4</ele>
        <time>2026-08-30T14:10:01Z</time>
      </trkpt>
      <trkpt lat="48.799977" lon="9.797413">
        <ele>326.4</ele>
        <time>2026-08-30T14:10:02Z</time>
      </trkpt>
      <trkpt lat="48.799977" lon="9.797413">
        <ele>326.4</ele>
        <time>2026-08-30T14:10:03Z</time>
      </trkpt>
      <trkpt lat="48.799977" lon="9.797413">
        <ele>326.4</ele>
        <time>2026-08-30T14:10:04Z</time>
      </trkpt>
      <trkpt lat="48.799977" lon="9.797413">
        <ele>326.4</ele>
        <time>2026-08-30T14:10:05Z</time>
      </trkpt>
      <trkpt lat="48.799977" lon="9.797413">
        <ele>326.4</ele>
        <time>2026-08-30T14:10:06Z</time>
      </trkpt>
      <trkpt lat="48.799977" lon="9.797413">
        <ele>326.4</ele>
        <time>2026-08-30T14:10:07Z</time>
      </trkpt>
      <trkpt lat="48.799977" lon="9.797413">
        <ele>326.4</ele>
        <time>2026-08-30T14:10:08Z</time>
      </trkpt>
      <trkpt lat="48.799977" lon="9.797413">
        <ele>326.4</ele>
        <time>2026-08-30T14:10:09Z</time>
      </trkpt>
      <trkpt lat="48.799977" lon="9.797413">
        <ele>326.4</ele>
        <time>2026-08-30T14:10:10Z</time>
      </trkpt>
      <trkpt lat="48.799977" lon="9.797413">
        <ele>326.4</ele>
        <time>2026-08-30T14:10:11Z</time>
      </trkpt>
      <trkpt lat="48.799977" lon="9.797413">
        <ele>326.4</ele>
        <time>2026-08-30T14:10:12Z</time>
      </trkpt>
      <trkpt lat="48.799977" lon="9.797413">
        <ele>326.4</ele>
        <time>2026-08-30T14:10:13Z</time>
      </trkpt>
      <trkpt lat="48.799977" lon="9.797413">
        <ele>326.4</ele>
        <time>2026-08-30T14:10:14Z</time>
      </trkpt>
      <trkpt lat="48.799977" lon="9.797413">
        <ele>326.4</ele>
        <time>2026-08-30T14:10:15Z</time>
      </trkpt>
      <trkpt lat="48.799977" lon="9.797413">
        <ele>326.4</ele>
        <time>2026-08-30T14:10:16Z</time>
      </trkpt>
      <trkpt lat="48.799977" lon="9.797413">
        <ele>326.4</ele>
        <time>2026-08-30T14:10:17Z</time>
      </trkpt>
      <trkpt lat="48.799977" lon="9.797413">
        <ele>326.4</ele>
        <time>2026-08-30T14:10:18Z</time>
      </trkpt>
      <trkpt lat="48.799977" lon="9.797413">
        <ele>326.4</ele>
        <time>2026-08-30T14:10:19Z</time>
      </trkpt>
      <trkpt lat="48.799977" lon="9.797413">
        <ele>326.4</ele>
        <time>2026-08-30T14:10:20Z</time>
      </trkpt>
      <trkpt lat="48.799977" lon="9.797413">
        <ele>326.4</ele>
        <time>2026-08-30T14:10:21Z</time>
      </trkpt>
      <trkpt lat="48.799977" lon="9.797413">
        <ele>326.4</ele>
        <time>2026-08-30T14:10:22Z</time>
      </trkpt>
      <trkpt lat="48.799977" lon="9.797413">
        <ele>326.4</ele>
        <time>2026-08-30T14:10:23Z</time>
      </trkpt>
      <trkpt lat="48.799977" lon="9.797413">
        <ele>326.4</ele>
        <time>2026-08-30T14:10:24Z</time>
      </trkpt>
      <trkpt lat="48.799977" lon="9.797413">
        <ele>326.4</ele>
        <time>2026-08-30T14:10:25Z</time>
      </trkpt>
      <trkpt lat="48.799977" lon="9.797413">
        <ele>326.4</ele>
        <time>2026-08-30T14:10:26Z</time>
      </trkpt>
      <trkpt lat="48.799977" lon="9.797413">
        <ele>326.4</ele>
        <time>2026-08-30T14:10:27Z</time>
      </trkpt>
      <trkpt lat="48.799977" lon="9.797413">
        <ele>326.4</ele>
        <time>2026-08-30T14:10:28Z</time>
      </trkpt>
      <trkpt lat="48.799977" lon="9.797413">
        <ele>326.4</ele>
        <time>2026-08-30T14:10:29Z</time>
      </trkpt>
      <trkpt lat="48.799977" lon="9.797413">
        <ele>326.4</ele>
        <time>2026-08-30T14:10:30Z</time>
      </trkpt>
      <trkpt lat="48.799977" lon="9.797413">
        <ele>326.4</ele>
        <time>2026-08-30T14:10:31Z</time>
      </trkpt>
      <trkpt lat="48.799977" lon="9.797413">
        <ele>326.4</ele>
        <time>2026-08-30T14:10:32Z</time>
      </trkpt>
      <trkpt lat="48.799977" lon="9.797413">
        <ele>326.4</ele>
        <time>2026-08-30T14:10:33Z</time>
      </trkpt>
      <trkpt lat="48.799977" lon="9.797413">
        <ele>326.4</ele>
        <time>2026-08-30T14:10:34Z</time>
      </trkpt>
      <trkpt lat="48.799977" lon="9.797413">
        <ele>326.4</ele>
        <time>2026-08-30T14:10:35Z</time>
      </trkpt>
      <trkpt lat="48.799977" lon="9.797413">
        <ele>326.4</ele>
        <time>2026-08-30T14:10:36Z</time>
      </trkpt>
      <trkpt lat="48.799977" lon="9.797413">
        <ele>326.4</ele>
        <time>2026-08-30T14:10:37Z</time>
      </trkpt>
      <trkpt lat="48.799977" lon="9.797413">
        <ele>326.4</ele>
        <time>2026-08-30T14:10:38Z</time>
      </trkpt>
      <trkpt lat="48.799977" lon="9.797413">
        <ele>326.4</ele>
        <time>2026-08-30T14:10:39Z</time>
      </trkpt>
      <trkpt lat="48.799977" lon="9.797413">
        <ele>326.4</ele>
        <time>2026-08-30T14:10:40Z</time>
      </trkpt>
      <trkpt lat="48.799977" lon="9.797413">
        <ele>326.4</ele>
        <time>2026-08-30T14:10:41Z</time>
      </trkpt>
      <trkpt lat="48.799977" lon="9.797413">
        <ele>326.4</ele>
        <time>2026-08-30T14:10:42Z</time>
      </trkpt>
      <trkpt lat="48.799977" lon="9.797413">
        <ele>326.4</ele>
        <time>2026-08-30T14:10:43Z</time>
      </trkpt>
      <trkpt lat="48.799977" lon="9.797413">
        <ele>326.4</ele>
        <time>2026-08-30T14:10:44Z</time>
      </trkpt>
      <trkpt lat="48.799977" lon="9.797413">
        <ele>326.4</ele>
        <time>2026-08-30T14:10:45Z</time>
      </trkpt>
      <trkpt lat="48.799977" lon="9.797413">
        <ele>326.4</ele>
        <time>2026-08-30T14:10:46Z</time>
      </trkpt>
      <trkpt lat="48.799977" lon="9.797413">
        <ele>326.4</ele>
        <time>2026-08-30T14:10:47Z</time>
      </trkpt>
      <trkpt lat="48.799977" lon="9.797413">
        <ele>326.4</ele>
        <time>2026-08-30T14:10:48Z</time>
      </trkpt>
      <trkpt lat="48.799977" lon="9.797413">
        <ele>326.4</ele>
        <time>2026-08-30T14:10:49Z</time>
      </trkpt>
      <trkpt lat="48.799977" lon="9.797413">
        <ele>326.4</ele>
        <time>2026-08-30T14:10:50Z</time>
      </trkpt>
      <trkpt lat="48.799977" lon="9.797413">
        <ele>326.4</ele>
        <time>2026-08-30T14:10:51Z</time>
      </trkpt>
      <trkpt lat="48.799977" lon="9.797413">
        <ele>326.4</ele>
        <time>2026-08-30T14:10:52Z</time>
      </trkpt>
      <trkpt lat="48.799977" lon="9.797413">
        <ele>326.4</ele>
        <time>2026-08-30T14:10:53Z</time>
      </trkpt>
      <trkpt lat="48.799977" lon="9.797413">
        <ele>326.4</ele>
        <time>2026-08-30T14:10:54Z</time>
      </trkpt>
      <trkpt lat="48.799977" lon="9.797413">
        <ele>326.4</ele>
        <time>2026-08-30T14:10:55Z</time>
      </trkpt>
      <trkpt lat="48.799977" lon="9.797413">
        <ele>326.4</ele>
        <time>2026-08-30T14:10:56Z</time>
      </trkpt>
      <trkpt lat="48.799977" lon="9.797413">
        <ele>326.4</ele>
        <time>2026-08-30T14:10:57Z</time>
      </trkpt>
      <trkpt lat="48.799977" lon="9.797413">
        <ele>326.4</ele>
        <time>2026-08-30T14:10:58Z</time>
      </trkpt>
      <trkpt lat="48.799977" lon="9.797413">
        <ele>326.4</ele>
        <time>2026-08-30T14:10:59Z</time>
      </trkpt>
      <trkpt lat="48.799977" lon="9.797413">
        <ele>326.4</ele>
        <time>2026-08-30T14:11:00Z</time>
      </trkpt>
      <trkpt lat="48.799977" lon="9.797413">
        <ele>326.4</ele>
        <time>2026-08-30T14:11:01Z</time>
      </trkpt>
      <trkpt lat="48.799977" lon="9.797413">
        <ele>326.4</ele>
        <time>2026-08-30T14:11:02Z</time>
      </trkpt>
      <trkpt lat="48.799977" lon="9.797413">
        <ele>326.4</ele>
        <time>2026-08-30T14:11:03Z</time>
      </trkpt>
      <trkpt lat="48.799977" lon="9.797413">
        <ele>326.4</ele>
        <time>2026-08-30T14:11:04Z</time>
      </trkpt>
      <trkpt lat="48.799977" lon="9.797413">
        <ele>326.4</ele>
        <time>2026-08-30T14:11:05Z</time>
      </trkpt>
      <trkpt lat="48.799977" lon="9.797413">
        <ele>326.4</ele>
        <time>2026-08-30T14:11:06Z</time>
      </trkpt>
      <trkpt lat="48.799977" lon="9.797413">
        <ele>326.4</ele>
        <time>2026-08-30T14:11:07Z</time>
      </trkpt>
      <trkpt lat="48.799977" lon="9.797413">
        <ele>326.4</ele>
        <time>2026-08-30T14:11:08Z</time>
      </trkpt>
      <trkpt lat="48.799977" lon="9.797413">
        <ele>326.4</ele>
        <time>2026-08-30T14:11:09Z</time>
      </trkpt>
      <trkpt lat="48.799977" lon="9.797413">
        <ele>326.4</ele>
        <time>2026-08-30T14:11:10Z</time>
      </trkpt>
      <trkpt lat="48.799977" lon="9.797413">
        <ele>326.4</ele>
        <time>2026-08-30T14:11:11Z</time>
      </trkpt>
      <trkpt lat="48.799977" lon="9.797413">
        <ele>326.4</ele>
        <time>2026-08-30T14:11:12Z</time>
      </trkpt>
      <trkpt lat="48.799977" lon="9.797413">
        <ele>326.4</ele>
        <time>2026-08-30T14:11:13Z</time>
      </trkpt>
      <trkpt lat="48.799977" lon="9.797413">
        <ele>326.4</ele>
        <time>2026-08-30T14:11:14Z</time>
      </trkpt>
      <trkpt lat="48.799977" lon="9.797413">
        <ele>326.4</ele>
        <time>2026-08-30T14:11:15Z</time>
      </trkpt>
      <trkpt lat="48.799977" lon="9.797413">
        <ele>326.4</ele>
        <time>2026-08-30T14:11:16Z</time>
      </trkpt>
      <trkpt lat="48.799977" lon="9.797413">
        <ele>326.4</ele>
        <time>2026-08-30T14:11:17Z</time>
      </trkpt>
      <trkpt lat="48.799977" lon="9.797413">
        <ele>326.4</ele>
        <time>2026-08-30T14:11:18Z</time>
      </trkpt>
      <trkpt lat="48.799977" lon="9.797413">
        <ele>326.4</ele>
        <time>2026-08-30T14:11:19Z</time>
      </trkpt>
      <trkpt lat="48.799977" lon="9.797413">
        <ele>326.4</ele>
        <time>2026-08-30T14:11:20Z</time>
      </trkpt>
      <trkpt lat="48.799977" lon="9.797413">
        <ele>326.4</ele>
        <time>2026-08-30T14:11:21Z</time>
      </trkpt>
      <trkpt lat="48.799977" lon="9.797413">
        <ele>326.4</ele>
        <time>2026-08-30T14:11:22Z</time>
      </trkpt>
      <trkpt lat="48.799977" lon="9.797413">
        <ele>326.4</ele>
        <time>2026-08-30T14:11:23Z</time>
      </trkpt>
      <trkpt lat="48.799977" lon="9.797413">
        <ele>326.4</ele>
        <time>2026-08-30T14:11:24Z</time>
      </trkpt>
      <trkpt lat="48.799977" lon="9.797413">
        <ele>326.4</ele>
        <time>2026-08-30T14:11:25Z</time>
      </trkpt>
      <trkpt lat="48.799977" lon="9.797413">
        <ele>326.4</ele>
        <time>2026-08-30T14:11:26Z</time>
      </trkpt>
      <trkpt lat="48.799977" lon="9.797413">
        <ele>326.4</ele>
        <time>2026-08-30T14:11:27Z</time>
      </trkpt>
      <trkpt lat="48.799977" lon="9.797413">
        <ele>326.4</ele>
        <time>2026-08-30T14:11:28Z</time>
      </trkpt>
      <trkpt lat="48.799977" lon="9.797413">
        <ele>326.4</ele>
        <time>2026-08-30T14:11:29Z</time>
      </trkpt>
      <trkpt lat="48.799977" lon="9.797413">
        <ele>326.4</ele>
        <time>2026-08-30T14:11:30Z</time>
      </trkpt>
      <trkpt lat="48.799977" lon="9.797413">
        <ele>326.4</ele>
        <time>2026-08-30T14:11:31Z</time>
      </trkpt>
      <trkpt lat="48.799977" lon="9.797413">
        <ele>326.4</ele>
        <time>2026-08-30T14:11:32Z</time>
      </trkpt>
      <trkpt lat="48.799977" lon="9.797413">
        <ele>326.4</ele>
        <time>2026-08-30T14:11:33Z</time>
      </trkpt>
      <trkpt lat="48.799977" lon="9.797413">
        <ele>326.4</ele>
        <time>2026-08-30T14:11:34Z</time>
      </trkpt>
      <trkpt lat="48.799977" lon="9.797413">
        <ele>326.4</ele>
        <time>2026-08-30T14:11:35Z</time>
      </trkpt>
      <trkpt lat="48.799977" lon="9.797413">
        <ele>326.4</ele>
        <time>2026-08-30T14:11:36Z</time>
      </trkpt>
      <trkpt lat="48.799977" lon="9.797413">
        <ele>326.4</ele>
        <time>2026-08-30T14:11:37Z</time>
      </trkpt>
      <trkpt lat="48.799977" lon="9.797413">
        <ele>326.4</ele>
        <time>2026-08-30T14:11:38Z</time>
      </trkpt>
      <trkpt lat="48.799977" lon="9.797413">
        <ele>326.4</ele>
        <time>2026-08-30T14:11:39Z</time>
      </trkpt>
      <trkpt lat="48.799977" lon="9.797413">
        <ele>326.4</ele>
        <time>2026-08-30T14:11:40Z</time>
      </trkpt>
      <trkpt lat="48.799977" lon="9.797413">
        <ele>326.4</ele>
        <time>2026-08-30T14:11:41Z</time>
      </trkpt>
      <trkpt lat="48.799977" lon="9.797413">
        <ele>326.4</ele>
        <time>2026-08-30T14:11:42Z</time>
      </trkpt>
      <trkpt lat="48.799977" lon="9.797413">
        <ele>326.4</ele>
        <time>2026-08-30T14:11:43Z</time>
      </trkpt>
      <trkpt lat="48.799977" lon="9.797413">
        <ele>326.4</ele>
        <time>2026-08-30T14:11:44Z</time>
      </trkpt>
      <trkpt lat="48.799977" lon="9.797413">
        <ele>326.4</ele>
        <time>2026-08-30T14:11:45Z</time>
      </trkpt>
      <trkpt lat="48.799977" lon="9.797413">
        <ele>326.4</ele>
        <time>2026-08-30T14:11:46Z</time>
      </trkpt>
      <trkpt lat="48.799977" lon="9.797413">
        <ele>326.4</ele>
        <time>2026-08-30T14:11:47Z</time>
      </trkpt>
      <trkpt lat="48.799977" lon="9.797413">
        <ele>326.4</ele>
        <time>2026-08-30T14:11:48Z</time>
      </trkpt>
      <trkpt lat="48.799977" lon="9.797413">
        <ele>326.4</ele>
        <time>2026-08-30T14:11:49Z</time>
      </trkpt>
      <trkpt lat="48.799977" lon="9.797413">
        <ele>326.4</ele>
        <time>2026-08-30T14:11:50Z</time>
      </trkpt>
      <trkpt lat="48.799977" lon="9.797413">
        <ele>326.4</ele>
        <time>2026-08-30T14:11:51Z</time>
      </trkpt>
      <trkpt lat="48.799977" lon="9.797413">
        <ele>326.4</ele>
        <time>2026-08-30T14:11:52Z</time>
      </trkpt>
      <trkpt lat="48.799977" lon="9.797413">
        <ele>326.4</ele>
        <time>2026-08-30T14:11:53Z</time>
      </trkpt>
      <trkpt lat="48.799977" lon="9.797413">
        <ele>326.4</ele>
        <time>2026-08-30T14:11:54Z</time>
      </trkpt>
      <trkpt lat="48.799977" lon="9.797413">
        <ele>326.4</ele>
        <time>2026-08-30T14:11:55Z</time>
      </trkpt>
      <trkpt lat="48.799977" lon="9.797413">
        <ele>326.4</ele>
        <time>2026-08-30T14:11:56Z</time>
      </trkpt>
      <trkpt lat="48.799977" lon="9.797413">
        <ele>326.4</ele>
        <time>2026-08-30T14:11:57Z</time>
      </trkpt>
      <trkpt lat="48.799977" lon="9.797413">
        <ele>326.4</ele>
        <time>2026-08-30T14:11:58Z</time>
      </trkpt>
      <trkpt lat="48.799977" lon="9.797413">
        <ele>326.4</ele>
        <time>2026-08-30T14:11:59Z</time>
      </trkpt>
      <trkpt lat="48.799977" lon="9.797413">
        <ele>326.4</ele>
        <time>2026-08-30T14:12:00Z</time>
      </trkpt>
      <trkpt lat="48.799977" lon="9.797413">
        <ele>326.4</ele>
        <time>2026-08-30T14:12:01Z</time>
      </trkpt>
      <trkpt lat="48.799977" lon="9.797413">
        <ele>326.4</ele>
        <time>2026-08-30T14:12:02Z</time>
      </trkpt>
      <trkpt lat="48.799977" lon="9.797413">
        <ele>326.4</ele>
        <time>2026-08-30T14:12:03Z</time>
      </trkpt>
      <trkpt lat="48.799977" lon="9.797413">
        <ele>326.4</ele>
        <time>2026-08-30T14:12:04Z</time>
      </trkpt>
      <trkpt lat="48.799977" lon="9.797413">
        <ele>326.4</ele>
        <time>2026-08-30T14:12:05Z</time>
      </trkpt>
      <trkpt lat="48.799977" lon="9.797413">
        <ele>326.4</ele>
        <time>2026-08-30T14:12:06Z</time>
      </trkpt>
      <trkpt lat="48.799977" lon="9.797413">
        <ele>326.4</ele>
        <time>2026-08-30T14:12:07Z</time>
      </trkpt>
      <trkpt lat="48.799977" lon="9.797413">
        <ele>326.4</ele>
        <time>2026-08-30T14:12:08Z</time>
      </trkpt>
      <trkpt lat="48.799977" lon="9.797413">
        <ele>326.4</ele>
        <time>2026-08-30T14:12:09Z</time>
      </trkpt>
      <trkpt lat="48.799977" lon="9.797413">
        <ele>326.4</ele>
        <time>2026-08-30T14:12:10Z</time>
      </trkpt>
      <trkpt lat="48.799977" lon="9.797413">
        <ele>326.4</ele>
        <time>2026-08-30T14:12:11Z</time>
      </trkpt>
      <trkpt lat="48.799977" lon="9.797413">
        <ele>326.4</ele>
        <time>2026-08-30T14:12:12Z</time>
      </trkpt>
      <trkpt lat="48.799977" lon="9.797413">
        <ele>326.4</ele>
        <time>2026-08-30T14:12:13Z</time>
      </trkpt>
      <trkpt lat="48.799977" lon="9.797413">
        <ele>326.4</ele>
        <time>2026-08-30T14:12:14Z</time>
      </trkpt>
      <trkpt lat="48.799977" lon="9.797413">
        <ele>326.4</ele>
        <time>2026-08-30T14:12:15Z</time>
      </trkpt>
      <trkpt lat="48.799977" lon="9.797413">
        <ele>326.4</ele>
        <time>2026-08-30T14:12:16Z</time>
      </trkpt>
      <trkpt lat="48.799977" lon="9.797413">
        <ele>326.4</ele>
        <time>2026-08-30T14:12:17Z</time>
      </trkpt>
      <trkpt lat="48.799977" lon="9.797413">
        <ele>326.4</ele>
        <time>2026-08-30T14:12:18Z</time>
      </trkpt>
      <trkpt lat="48.799977" lon="9.797413">
        <ele>326.4</ele>
        <time>2026-08-30T14:12:19Z</time>
      </trkpt>
      <trkpt lat="48.799977" lon="9.797413">
        <ele>326.4</ele>
        <time>2026-08-30T14:12:20Z</time>
      </trkpt>
      <trkpt lat="48.799977" lon="9.797413">
        <ele>326.4</ele>
        <time>2026-08-30T14:12:21Z</time>
      </trkpt>
      <trkpt lat="48.799977" lon="9.797413">
        <ele>326.4</ele>
        <time>2026-08-30T14:12:22Z</time>
      </trkpt>
      <trkpt lat="48.799977" lon="9.797413">
        <ele>326.4</ele>
        <time>2026-08-30T14:12:23Z</time>
      </trkpt>
      <trkpt lat="48.799977" lon="9.797413">
        <ele>326.4</ele>
        <time>2026-08-30T14:12:24Z</time>
      </trkpt>
      <trkpt lat="48.799977" lon="9.797413">
        <ele>326.4</ele>
        <time>2026-08-30T14:12:25Z</time>
      </trkpt>
      <trkpt lat="48.799977" lon="9.797413">
        <ele>326.4</ele>
        <time>2026-08-30T14:12:26Z</time>
      </trkpt>
      <trkpt lat="48.799977" lon="9.797413">
        <ele>326.4</ele>
        <time>2026-08-30T14:12:27Z</time>
      </trkpt>
      <trkpt lat="48.799977" lon="9.797413">
        <ele>326.4</ele>
        <time>2026-08-30T14:12:28Z</time>
      </trkpt>
      <trkpt lat="48.799977" lon="9.797413">
        <ele>326.4</ele>
        <time>2026-08-30T14:12:29Z</time>
      </trkpt>
      <trkpt lat="48.799977" lon="9.797413">
        <ele>326.4</ele>
        <time>2026-08-30T14:12:30Z</time>
      </trkpt>
      <trkpt lat="48.799977" lon="9.797413">
        <ele>326.4</ele>
        <time>2026-08-30T14:12:31Z</time>
      </trkpt>
      <trkpt lat="48.799977" lon="9.797413">
        <ele>326.4</ele>
        <time>2026-08-30T14:12:32Z</time>
      </trkpt>
      <trkpt lat="48.799977" lon="9.797413">
        <ele>326.4</ele>
        <time>2026-08-30T14:12:33Z</time>
      </trkpt>
      <trkpt lat="48.799977" lon="9.797413">
        <ele>326.4</ele>
        <time>2026-08-30T14:12:34Z</time>
      </trkpt>
      <trkpt lat="48.799977" lon="9.797413">
        <ele>326.4</ele>
        <time>2026-08-30T14:12:35Z</time>
      </trkpt>
      <trkpt lat="48.799977" lon="9.797413">
        <ele>326.4</ele>
        <time>2026-08-30T14:12:36Z</time>
      </trkpt>
      <trkpt lat="48.799977" lon="9.797413">
        <ele>326.4</ele>
        <time>2026-08-30T14:12:37Z</time>
      </trkpt>
      <trkpt lat="48.799977" lon="9.797413">
        <ele>326.4</ele>
        <time>2026-08-30T14:12:38Z</time>
      </trkpt>
      <trkpt lat="48.799977" lon="9.797413">
        <ele>326.4</ele>
        <time>2026-08-30T14:12:39Z</time>
      </trkpt>
      <trkpt lat="48.799977" lon="9.797413">
        <ele>326.4</ele>
        <time>2026-08-30T14:12:40Z</time>
      </trkpt>
      <trkpt lat="48.799977" lon="9.797413">
        <ele>326.4</ele>
        <time>2026-08-30T14:12:41Z</time>
      </trkpt>
      <trkpt lat="48.799977" lon="9.797413">
        <ele>326.4</ele>
        <time>2026-08-30T14:12:42Z</time>
      </trkpt>
      <trkpt lat="48.799977" lon="9.797413">
        <ele>326.4</ele>
        <time>2026-08-30T14:12:43Z</time>
      </trkpt>
      <trkpt lat="48.799977" lon="9.797413">
        <ele>326.4</ele>
        <time>2026-08-30T14:12:44Z</time>
      </trkpt>
      <trkpt lat="48.799977" lon="9.797413">
        <ele>326.4</ele>
        <time>2026-08-30T14:12:45Z</time>
      </trkpt>
      <trkpt lat="48.799977" lon="9.797413">
        <ele>326.4</ele>
        <time>2026-08-30T14:12:46Z</time>
      </trkpt>
      <trkpt lat="48.799977" lon="9.797413">
        <ele>326.4</ele>
        <time>2026-08-30T14:12:47Z</time>
      </trkpt>
      <trkpt lat="48.799977" lon="9.797413">
        <ele>326.4</ele>
        <time>2026-08-30T14:12:48Z</time>
      </trkpt>
      <trkpt lat="48.799977" lon="9.797413">
        <ele>326.4</ele>
        <time>2026-08-30T14:12:49Z</time>
      </trkpt>
      <trkpt lat="48.799977" lon="9.797413">
        <ele>326.4</ele>
        <time>2026-08-30T14:12:50Z</time>
      </trkpt>
      <trkpt lat="48.799977" lon="9.797413">
        <ele>326.4</ele>
        <time>2026-08-30T14:12:51Z</time>
      </trkpt>
      <trkpt lat="48.799977" lon="9.797413">
        <ele>326.4</ele>
        <time>2026-08-30T14:12:52Z</time>
      </trkpt>
      <trkpt lat="48.799977" lon="9.797413">
        <ele>326.4</ele>
        <time>2026-08-30T14:12:53Z</time>
      </trkpt>
      <trkpt lat="48.799977" lon="9.797413">
        <ele>326.4</ele>
        <time>2026-08-30T14:12:54Z</time>
      </trkpt>
      <trkpt lat="48.799977" lon="9.797413">
        <ele>326.4</ele>
        <time>2026-08-30T14:12:55Z</time>
      </trkpt>
      <trkpt lat="48.799977" lon="9.797413">
        <ele>326.4</ele>
        <time>2026-08-30T14:12:56Z</time>
      </trkpt>
      <trkpt lat="48.799977" lon="9.797413">
        <ele>326.4</ele>
        <time>2026-08-30T14:12:57Z</time>
      </trkpt>
      <trkpt lat="48.799977" lon="9.797413">
        <ele>326.4</ele>
        <time>2026-08-30T14:12:58Z</time>
      </trkpt>
      <trkpt lat="48.799977" lon="9.797413">
        <ele>326.4</ele>
        <time>2026-08-30T14:12:59Z</time>
      </trkpt>
      <trkpt lat="48.799977" lon="9.797413">
        <ele>326.4</ele>
        <time>2026-08-30T14:13:00Z</time>
      </trkpt>
      <trkpt lat="48.799977" lon="9.797413">
        <ele>326.4</ele>
        <time>2026-08-30T14:13:01Z</time>
      </trkpt>
      <trkpt lat="48.799977" lon="9.797413">
        <ele>326.4</ele>
        <time>2026-08-30T14:13:02Z</time>
      </trkpt>
      <trkpt lat="48.799977" lon="9.797413">
        <ele>326.4</ele>
        <time>2026-08-30T14:13:03Z</time>
      </trkpt>
      <trkpt lat="48.799977" lon="9.797413">
        <ele>326.4</ele>
        <time>2026-08-30T14:13:04Z</time>
      </trkpt>
      <trkpt lat="48.799977" lon="9.797413">
        <ele>326.4</ele>
        <time>2026-08-30T14:13:05Z</time>
      </trkpt>
      <trkpt lat="48.799977" lon="9.797413">
        <ele>326.4</ele>
        <time>2026-08-30T14:13:06Z</time>
      </trkpt>
      <trkpt lat="48.799977" lon="9.797413">
        <ele>326.4</ele>
        <time>2026-08-30T14:13:07Z</time>
      </trkpt>
      <trkpt lat="48.799977" lon="9.797413">
        <ele>326.4</ele>
        <time>2026-08-30T14:13:08Z</time>
      </trkpt>
      <trkpt lat="48.799977" lon="9.797413">
        <ele>326.4</ele>
        <time>2026-08-30T14:13:09Z</time>
      </trkpt>
      <trkpt lat="48.799977" lon="9.797413">
        <ele>326.4</ele>
        <time>2026-08-30T14:13:10Z</time>
      </trkpt>
      <trkpt lat="48.799977" lon="9.797413">
        <ele>326.4</ele>
        <time>2026-08-30T14:13:11Z</time>
      </trkpt>
      <trkpt lat="48.799977" lon="9.797413">
        <ele>326.4</ele>
        <time>2026-08-30T14:13:12Z</time>
      </trkpt>
      <trkpt lat="48.799977" lon="9.797413">
        <ele>326.4</ele>
        <time>2026-08-30T14:13:13Z</time>
      </trkpt>
      <trkpt lat="48.799977" lon="9.797413">
        <ele>326.4</ele>
        <time>2026-08-30T14:13:14Z</time>
      </trkpt>
      <trkpt lat="48.799977" lon="9.797413">
        <ele>326.4</ele>
        <time>2026-08-30T14:13:15Z</time>
      </trkpt>
      <trkpt lat="48.799977" lon="9.797413">
        <ele>326.4</ele>
        <time>2026-08-30T14:13:16Z</time>
      </trkpt>
      <trkpt lat="48.799977" lon="9.797413">
        <ele>326.4</ele>
        <time>2026-08-30T14:13:17Z</time>
      </trkpt>
      <trkpt lat="48.799977" lon="9.797413">
        <ele>326.4</ele>
        <time>2026-08-30T14:13:18Z</time>
      </trkpt>
      <trkpt lat="48.799977" lon="9.797413">
        <ele>326.4</ele>
        <time>2026-08-30T14:13:19Z</time>
      </trkpt>
      <trkpt lat="48.799977" lon="9.797413">
        <ele>326.4</ele>
        <time>2026-08-30T14:13:20Z</time>
      </trkpt>
      <trkpt lat="48.799977" lon="9.797413">
        <ele>326.4</ele>
        <time>2026-08-30T14:13:21Z</time>
      </trkpt>
      <trkpt lat="48.799977" lon="9.797413">
        <ele>326.4</ele>
        <time>2026-08-30T14:13:22Z</time>
      </trkpt>
      <trkpt lat="48.799977" lon="9.797413">
        <ele>326.4</ele>
        <time>2026-08-30T14:13:23Z</time>
      </trkpt>
      <trkpt lat="48.799977" lon="9.797413">
        <ele>326.4</ele>
        <time>2026-08-30T14:13:24Z</time>
      </trkpt>
      <trkpt lat="48.799977" lon="9.797413">
        <ele>326.4</ele>
        <time>2026-08-30T14:13:25Z</time>
      </trkpt>
      <trkpt lat="48.799977" lon="9.797413">
        <ele>326.4</ele>
        <time>2026-08-30T14:13:26Z</time>
      </trkpt>
      <trkpt lat="48.799977" lon="9.797413">
        <ele>326.4</ele>
        <time>2026-08-30T14:13:27Z</time>
      </trkpt>
      <trkpt lat="48.799977" lon="9.797413">
        <ele>326.4</ele>
        <time>2026-08-30T14:13:28Z</time>
      </trkpt>
      <trkpt lat="48.799977" lon="9.797413">
        <ele>326.4</ele>
        <time>2026-08-30T14:13:29Z</time>
      </trkpt>
      <trkpt lat="48.799977" lon="9.797413">
        <ele>326.4</ele>
        <time>2026-08-30T14:13:30Z</time>
      </trkpt>
      <trkpt lat="48.799977" lon="9.797413">
        <ele>326.4</ele>
        <time>2026-08-30T14:13:31Z</time>
      </trkpt>
      <trkpt lat="48.799977" lon="9.797413">
        <ele>326.4</ele>
        <time>2026-08-30T14:13:32Z</time>
      </trkpt>
      <trkpt lat="48.799977" lon="9.797413">
        <ele>326.4</ele>
        <time>2026-08-30T14:13:33Z</time>
      </trkpt>
      <trkpt lat="48.799977" lon="9.797413">
        <ele>326.4</ele>
        <time>2026-08-30T14:13:34Z</time>
      </trkpt>
      <trkpt lat="48.799977" lon="9.797413">
        <ele>326.4</ele>
        <time>2026-08-30T14:13:35Z</time>
      </trkpt>
      <trkpt lat="48.799977" lon="9.797413">
        <ele>326.4</ele>
        <time>2026-08-30T14:13:36Z</time>
      </trkpt>
      <trkpt lat="48.799977" lon="9.797413">
        <ele>326.4</ele>
        <time>2026-08-30T14:13:37Z</time>
      </trkpt>
      <trkpt lat="48.799977" lon="9.797413">
        <ele>326.4</ele>
        <time>2026-08-30T14:13:38Z</time>
      </trkpt>
      <trkpt lat="48.799977" lon="9.797413">
        <ele>326.4</ele>
        <time>2026-08-30T14:13:39Z</time>
      </trkpt>
      <trkpt lat="48.799977" lon="9.797413">
        <ele>326.4</ele>
        <time>2026-08-30T14:13:40Z</time>
      </trkpt>
      <trkpt lat="48.799977" lon="9.797413">
        <ele>326.4</ele>
        <time>2026-08-30T14:13:41Z</time>
      </trkpt>
      <trkpt lat="48.799977" lon="9.797413">
        <ele>326.4</ele>
        <time>2026-08-30T14:13:42Z</time>
      </trkpt>
      <trkpt lat="48.799977" lon="9.797413">
        <ele>326.4</ele>
        <time>2026-08-30T14:13:43Z</time>
      </trkpt>
      <trkpt lat="48.799977" lon="9.797413">
        <ele>326.4</ele>
        <time>2026-08-30T14:13:44Z</time>
      </trkpt>
      <trkpt lat="48.799977" lon="9.797413">
        <ele>326.4</ele>
        <time>2026-08-30T14:13:45Z</time>
      </trkpt>
      <trkpt lat="48.799977" lon="9.797413">
        <ele>326.4</ele>
        <time>2026-08-30T14:13:46Z</time>
      </trkpt>
      <trkpt lat="48.799977" lon="9.797413">
        <ele>326.4</ele>
        <time>2026-08-30T14:13:47Z</time>
      </trkpt>
      <trkpt lat="48.799977" lon="9.797413">
        <ele>326.4</ele>
        <time>2026-08-30T14:13:48Z</time>
      </trkpt>
      <trkpt lat="48.799977" lon="9.797413">
        <ele>326.4</ele>
        <time>2026-08-30T14:13:49Z</time>
      </trkpt>
      <trkpt lat="48.799977" lon="9.797413">
        <ele>326.4</ele>
        <time>2026-08-30T14:13:50Z</time>
      </trkpt>
      <trkpt lat="48.799977" lon="9.797413">
        <ele>326.4</ele>
        <time>2026-08-30T14:13:51Z</time>
      </trkpt>
      <trkpt lat="48.799977" lon="9.797413">
        <ele>326.4</ele>
        <time>2026-08-30T14:13:52Z</time>
      </trkpt>
      <trkpt lat="48.799977" lon="9.797413">
        <ele>326.4</ele>
        <time>2026-08-30T14:13:53Z</time>
      </trkpt>
      <trkpt lat="48.799977" lon="9.797413">
        <ele>326.4</ele>
        <time>2026-08-30T14:13:54Z</time>
      </trkpt>
      <trkpt lat="48.799977" lon="9.797413">
        <ele>326.4</ele>
        <time>2026-08-30T14:13:55Z</time>
      </trkpt>
      <trkpt lat="48.799977" lon="9.797413">
        <ele>326.4</ele>
        <time>2026-08-30T14:13:56Z</time>
      </trkpt>
      <trkpt lat="48.799977" lon="9.797413">
        <ele>326.4</ele>
        <time>2026-08-30T14:13:57Z</time>
      </trkpt>
      <trkpt lat="48.799977" lon="9.797413">
        <ele>326.4</ele>
        <time>2026-08-30T14:13:58Z</time>
      </trkpt>
      <trkpt lat="48.799977" lon="9.797413">
        <ele>326.4</ele>
        <time>2026-08-30T14:13:59Z</time>
      </trkpt>
      <trkpt lat="48.799977" lon="9.797413">
        <ele>326.4</ele>
        <time>2026-08-30T14:14:00Z</time>
      </trkpt>
      <trkpt lat="48.799977" lon="9.797413">
        <ele>326.4</ele>
        <time>2026-08-30T14:14:01Z</time>
      </trkpt>
      <trkpt lat="48.799977" lon="9.797413">
        <ele>326.4</ele>
        <time>2026-08-30T14:14:02Z</time>
      </trkpt>
      <trkpt lat="48.799977" lon="9.797413">
        <ele>326.4</ele>
        <time>2026-08-30T14:14:03Z</time>
      </trkpt>
      <trkpt lat="48.799977" lon="9.797413">
        <ele>326.4</ele>
        <time>2026-08-30T14:14:04Z</time>
      </trkpt>
      <trkpt lat="48.799977" lon="9.797413">
        <ele>326.4</ele>
        <time>2026-08-30T14:14:05Z</time>
      </trkpt>
      <trkpt lat="48.799977" lon="9.797413">
        <ele>326.4</ele>
        <time>2026-08-30T14:14:06Z</time>
      </trkpt>
      <trkpt lat="48.799977" lon="9.797413">
        <ele>326.4</ele>
        <time>2026-08-30T14:14:07Z</time>
      </trkpt>
      <trkpt lat="48.799977" lon="9.797413">
        <ele>326.4</ele>
        <time>2026-08-30T14:14:08Z</time>
      </trkpt>
      <trkpt lat="48.799977" lon="9.797413">
        <ele>326.4</ele>
        <time>2026-08-30T14:14:09Z</time>
      </trkpt>
      <trkpt lat="48.799977" lon="9.797413">
        <ele>326.4</ele>
        <time>2026-08-30T14:14:10Z</time>
      </trkpt>
      <trkpt lat="48.799977" lon="9.797413">
        <ele>326.4</ele>
        <time>2026-08-30T14:14:11Z</time>
      </trkpt>
      <trkpt lat="48.799977" lon="9.797413">
        <ele>326.4</ele>
        <time>2026-08-30T14:14:12Z</time>
      </trkpt>
      <trkpt lat="48.799977" lon="9.797413">
        <ele>326.4</ele>
        <time>2026-08-30T14:14:13Z</time>
      </trkpt>
      <trkpt lat="48.799977" lon="9.797413">
        <ele>326.4</ele>
        <time>2026-08-30T14:14:14Z</time>
      </trkpt>
      <trkpt lat="48.799977" lon="9.797413">
        <ele>326.4</ele>
        <time>2026-08-30T14:14:15Z</time>
      </trkpt>
      <trkpt lat="48.799977" lon="9.797413">
        <ele>326.4</ele>
        <time>2026-08-30T14:14:16Z</time>
      </trkpt>
      <trkpt lat="48.799977" lon="9.797413">
        <ele>326.4</ele>
        <time>2026-08-30T14:14:17Z</time>
      </trkpt>
      <trkpt lat="48.799977" lon="9.797413">
        <ele>326.4</ele>
        <time>2026-08-30T14:14:18Z</time>
      </trkpt>
      <trkpt lat="48.799977" lon="9.797413">
        <ele>326.4</ele>
        <time>2026-08-30T14:14:19Z</time>
      </trkpt>
      <trkpt lat="48.799977" lon="9.797413">
        <ele>326.4</ele>
        <time>2026-08-30T14:14:20Z</time>
      </trkpt>
      <trkpt lat="48.799977" lon="9.797413">
        <ele>326.4</ele>
        <time>2026-08-30T14:14:21Z</time>
      </trkpt>
      <trkpt lat="48.799977" lon="9.797413">
        <ele>326.4</ele>
        <time>2026-08-30T14:14:22Z</time>
      </trkpt>
      <trkpt lat="48.799977" lon="9.797413">
        <ele>326.4</ele>
        <time>2026-08-30T14:14:23Z</time>
      </trkpt>
      <trkpt lat="48.799977" lon="9.797413">
        <ele>326.4</ele>
        <time>2026-08-30T14:14:24Z</time>
      </trkpt>
      <trkpt lat="48.799977" lon="9.797413">
        <ele>326.4</ele>
        <time>2026-08-30T14:14:25Z</time>
      </trkpt>
      <trkpt lat="48.799977" lon="9.797413">
        <ele>326.4</ele>
        <time>2026-08-30T14:14:26Z</time>
      </trkpt>
      <trkpt lat="48.799977" lon="9.797413">
        <ele>326.4</ele>
        <time>2026-08-30T14:14:27Z</time>
      </trkpt>
      <trkpt lat="48.799977" lon="9.797413">
        <ele>326.4</ele>
        <time>2026-08-30T14:14:28Z</time>
      </trkpt>
      <trkpt lat="48.799977" lon="9.797413">
        <ele>326.4</ele>
        <time>2026-08-30T14:14:29Z</time>
      </trkpt>
      <trkpt lat="48.799977" lon="9.797413">
        <ele>326.4</ele>
        <time>2026-08-30T14:14:30Z</time>
      </trkpt>
      <trkpt lat="48.799977" lon="9.797413">
        <ele>326.4</ele>
        <time>2026-08-30T14:14:31Z</time>
      </trkpt>
      <trkpt lat="48.799977" lon="9.797413">
        <ele>326.4</ele>
        <time>2026-08-30T14:14:32Z</time>
      </trkpt>
      <trkpt lat="48.799977" lon="9.797413">
        <ele>326.4</ele>
        <time>2026-08-30T14:14:33Z</time>
      </trkpt>
      <trkpt lat="48.799977" lon="9.797413">
        <ele>326.4</ele>
        <time>2026-08-30T14:14:34Z</time>
      </trkpt>
      <trkpt lat="48.799977" lon="9.797413">
        <ele>326.4</ele>
        <time>2026-08-30T14:14:35Z</time>
      </trkpt>
      <trkpt lat="48.799977" lon="9.797413">
        <ele>326.4</ele>
        <time>2026-08-30T14:14:36Z</time>
      </trkpt>
      <trkpt lat="48.799977" lon="9.797413">
        <ele>326.4</ele>
        <time>2026-08-30T14:14:37Z</time>
      </trkpt>
      <trkpt lat="48.799977" lon="9.797413">
        <ele>326.4</ele>
        <time>2026-08-30T14:14:38Z</time>
      </trkpt>
      <trkpt lat="48.799977" lon="9.797413">
        <ele>326.4</ele>
        <time>2026-08-30T14:14:39Z</time>
      </trkpt>
      <trkpt lat="48.799977" lon="9.797413">
        <ele>326.4</ele>
        <time>2026-08-30T14:14:40Z</time>
      </trkpt>
      <trkpt lat="48.799977" lon="9.797413">
        <ele>326.4</ele>
        <time>2026-08-30T14:14:41Z</time>
      </trkpt>
      <trkpt lat="48.799977" lon="9.797413">
        <ele>326.4</ele>
        <time>2026-08-30T14:14:42Z</time>
      </trkpt>
      <trkpt lat="48.799977" lon="9.797413">
        <ele>326.4</ele>
        <time>2026-08-30T14:14:43Z</time>
      </trkpt>
      <trkpt lat="48.799977" lon="9.797413">
        <ele>326.4</ele>
        <time>2026-08-30T14:14:44Z</time>
      </trkpt>
      <trkpt lat="48.799977" lon="9.797413">
        <ele>326.4</ele>
        <time>2026-08-30T14:14:45Z</time>
      </trkpt>
      <trkpt lat="48.799977" lon="9.797413">
        <ele>326.4</ele>
        <time>2026-08-30T14:14:46Z</time>
      </trkpt>
      <trkpt lat="48.799977" lon="9.797413">
        <ele>326.4</ele>
        <time>2026-08-30T14:14:47Z</time>
      </trkpt>
      <trkpt lat="48.799977" lon="9.797413">
        <ele>326.4</ele>
        <time>2026-08-30T14:14:48Z</time>
      </trkpt>
      <trkpt lat="48.799977" lon="9.797413">
        <ele>326.4</ele>
        <time>2026-08-30T14:14:49Z</time>
      </trkpt>
      <trkpt lat="48.799977" lon="9.797413">
        <ele>326.4</ele>
        <time>2026-08-30T14:14:50Z</time>
      </trkpt>
      <trkpt lat="48.799977" lon="9.797413">
        <ele>326.4</ele>
        <time>2026-08-30T14:14:51Z</time>
      </trkpt>
      <trkpt lat="48.799977" lon="9.797413">
        <ele>326.4</ele>
        <time>2026-08-30T14:14:52Z</time>
      </trkpt>
      <trkpt lat="48.799977" lon="9.797413">
        <ele>326.4</ele>
        <time>2026-08-30T14:14:53Z</time>
      </trkpt>
      <trkpt lat="48.799977" lon="9.797413">
        <ele>326.4</ele>
        <time>2026-08-30T14:14:54Z</time>
      </trkpt>
      <trkpt lat="48.799977" lon="9.797413">
        <ele>326.4</ele>
        <time>2026-08-30T14:14:55Z</time>
      </trkpt>
      <trkpt lat="48.799977" lon="9.797413">
        <ele>326.4</ele>
        <time>2026-08-30T14:14:56Z</time>
      </trkpt>
      <trkpt lat="48.799977" lon="9.797413">
        <ele>326.4</ele>
        <time>2026-08-30T14:14:57Z</time>
      </trkpt>
      <trkpt lat="48.799977" lon="9.797413">
        <ele>326.4</ele>
        <time>2026-08-30T14:14:58Z</time>
      </trkpt>
      <trkpt lat="48.799977" lon="9.797413">
        <ele>326.4</ele>
        <time>2026-08-30T14:14:59Z</time>
      </trkpt>
      <trkpt lat="48.799977" lon="9.797413">
        <ele>326.4</ele>
        <time>2026-08-30T14:15:00Z</time>
      </trkpt>
      <trkpt lat="48.799977" lon="9.797413">
        <ele>326.4</ele>
        <time>2026-08-30T14:15:01Z</time>
      </trkpt>
      <trkpt lat="48.799980" lon="9.797429">
        <ele>326.4</ele>
        <time>2026-08-30T14:15:02Z</time>
      </trkpt>
      <trkpt lat="48.799979" lon="9.797446">
        <ele>326.4</ele>
        <time>2026-08-30T14:15:03Z</time>
      </trkpt>
      <trkpt lat="48.799979" lon="9.797446">
        <ele>326.4</ele>
        <time>2026-08-30T14:15:04Z</time>
      </trkpt>
      <trkpt lat="48.799979" lon="9.797446">
        <ele>326.4</ele>
        <time>2026-08-30T14:15:05Z</time>
      </trkpt>
      <trkpt lat="48.799979" lon="9.797446">
        <ele>326.4</ele>
        <time>2026-08-30T14:15:06Z</time>
      </trkpt>
      <trkpt lat="48.799979" lon="9.797446">
        <ele>326.4</ele>
        <time>2026-08-30T14:15:07Z</time>
      </trkpt>
      <trkpt lat="48.799979" lon="9.797446">
        <ele>326.4</ele>
        <time>2026-08-30T14:15:08Z</time>
      </trkpt>
      <trkpt lat="48.799979" lon="9.797446">
        <ele>326.4</ele>
        <time>2026-08-30T14:15:09Z</time>
      </trkpt>
      <trkpt lat="48.799979" lon="9.797446">
        <ele>326.4</ele>
        <time>2026-08-30T14:15:10Z</time>
      </trkpt>
      <trkpt lat="48.799979" lon="9.797446">
        <ele>326.4</ele>
        <time>2026-08-30T14:15:11Z</time>
      </trkpt>
      <trkpt lat="48.799977" lon="9.797450">
        <ele>326.4</ele>
        <time>2026-08-30T14:15:12Z</time>
      </trkpt>
      <trkpt lat="48.799971" lon="9.797473">
        <ele>326.4</ele>
        <time>2026-08-30T14:15:13Z</time>
      </trkpt>
      <trkpt lat="48.799971" lon="9.797473">
        <ele>326.4</ele>
        <time>2026-08-30T14:15:14Z</time>
      </trkpt>
      <trkpt lat="48.799971" lon="9.797473">
        <ele>326.4</ele>
        <time>2026-08-30T14:15:15Z</time>
      </trkpt>
      <trkpt lat="48.799971" lon="9.797473">
        <ele>326.4</ele>
        <time>2026-08-30T14:15:16Z</time>
      </trkpt>
      <trkpt lat="48.799971" lon="9.797473">
        <ele>326.4</ele>
        <time>2026-08-30T14:15:17Z</time>
      </trkpt>
      <trkpt lat="48.799971" lon="9.797473">
        <ele>326.4</ele>
        <time>2026-08-30T14:15:18Z</time>
      </trkpt>
      <trkpt lat="48.799971" lon="9.797473">
        <ele>326.4</ele>
        <time>2026-08-30T14:15:19Z</time>
      </trkpt>
      <trkpt lat="48.799971" lon="9.797473">
        <ele>326.4</ele>
        <time>2026-08-30T14:15:20Z</time>
      </trkpt>
      <trkpt lat="48.799971" lon="9.797473">
        <ele>326.4</ele>
        <time>2026-08-30T14:15:21Z</time>
      </trkpt>
      <trkpt lat="48.799971" lon="9.797473">
        <ele>326.4</ele>
        <time>2026-08-30T14:15:22Z</time>
      </trkpt>
      <trkpt lat="48.799971" lon="9.797473">
        <ele>326.4</ele>
        <time>2026-08-30T14:15:23Z</time>
      </trkpt>
      <trkpt lat="48.799971" lon="9.797473">
        <ele>326.4</ele>
        <time>2026-08-30T14:15:24Z</time>
      </trkpt>
      <trkpt lat="48.799971" lon="9.797473">
        <ele>326.4</ele>
        <time>2026-08-30T14:15:25Z</time>
      </trkpt>
      <trkpt lat="48.799971" lon="9.797473">
        <ele>326.4</ele>
        <time>2026-08-30T14:15:26Z</time>
      </trkpt>
      <trkpt lat="48.799971" lon="9.797473">
        <ele>326.4</ele>
        <time>2026-08-30T14:15:27Z</time>
      </trkpt>
      <trkpt lat="48.799971" lon="9.797473">
        <ele>326.4</ele>
        <time>2026-08-30T14:15:28Z</time>
      </trkpt>
      <trkpt lat="48.799971" lon="9.797473">
        <ele>326.4</ele>
        <time>2026-08-30T14:15:29Z</time>
      </trkpt>
      <trkpt lat="48.799971" lon="9.797473">
        <ele>326.4</ele>
        <time>2026-08-30T14:15:30Z</time>
      </trkpt>
      <trkpt lat="48.799971" lon="9.797473">
        <ele>326.4</ele>
        <time>2026-08-30T14:15:31Z</time>
      </trkpt>
      <trkpt lat="48.799971" lon="9.797473">
        <ele>326.4</ele>
        <time>2026-08-30T14:15:32Z</time>
      </trkpt>
      <trkpt lat="48.799971" lon="9.797473">
        <ele>326.4</ele>
        <time>2026-08-30T14:15:33Z</time>
      </trkpt>
      <trkpt lat="48.799971" lon="9.797473">
        <ele>326.4</ele>
        <time>2026-08-30T14:15:34Z</time>
      </trkpt>
      <trkpt lat="48.799971" lon="9.797473">
        <ele>326.4</ele>
        <time>2026-08-30T14:15:35Z</time>
      </trkpt>
      <trkpt lat="48.799971" lon="9.797473">
        <ele>326.4</ele>
        <time>2026-08-30T14:15:36Z</time>
      </trkpt>
      <trkpt lat="48.799971" lon="9.797473">
        <ele>326.4</ele>
        <time>2026-08-30T14:15:37Z</time>
      </trkpt>
      <trkpt lat="48.799971" lon="9.797473">
        <ele>326.4</ele>
        <time>2026-08-30T14:15:38Z</time>
      </trkpt>
      <trkpt lat="48.799971" lon="9.797473">
        <ele>326.4</ele>
        <time>2026-08-30T14:15:39Z</time>
      </trkpt>
      <trkpt lat="48.799971" lon="9.797473">
        <ele>326.4</ele>
        <time>2026-08-30T14:15:40Z</time>
      </trkpt>
      <trkpt lat="48.799971" lon="9.797473">
        <ele>326.4</ele>
        <time>2026-08-30T14:15:41Z</time>
      </trkpt>
      <trkpt lat="48.799972" lon="9.797463">
        <ele>326.4</ele>
        <time>2026-08-30T14:15:42Z</time>
      </trkpt>
      <trkpt lat="48.799971" lon="9.797461">
        <ele>326.4</ele>
        <time>2026-08-30T14:15:43Z</time>
      </trkpt>
      <trkpt lat="48.799971" lon="9.797463">
        <ele>326.4</ele>
        <time>2026-08-30T14:15:44Z</time>
      </trkpt>
      <trkpt lat="48.799973" lon="9.797468">
        <ele>326.4</ele>
        <time>2026-08-30T14:15:45Z</time>
      </trkpt>
      <trkpt lat="48.799971" lon="9.797478">
        <ele>326.4</ele>
        <time>2026-08-30T14:15:46Z</time>
      </trkpt>
      <trkpt lat="48.799969" lon="9.797494">
        <ele>326.4</ele>
        <time>2026-08-30T14:15:47Z</time>
      </trkpt>
      <trkpt lat="48.799959" lon="9.797509">
        <ele>326.4</ele>
        <time>2026-08-30T14:15:48Z</time>
      </trkpt>
      <trkpt lat="48.799948" lon="9.797524">
        <ele>326.4</ele>
        <time>2026-08-30T14:15:49Z</time>
      </trkpt>
      <trkpt lat="48.799932" lon="9.797530">
        <ele>326.4</ele>
        <time>2026-08-30T14:15:50Z</time>
      </trkpt>
      <trkpt lat="48.799913" lon="9.797528">
        <ele>326.4</ele>
        <time>2026-08-30T14:15:51Z</time>
      </trkpt>
      <trkpt lat="48.799894" lon="9.797516">
        <ele>326.4</ele>
        <time>2026-08-30T14:15:52Z</time>
      </trkpt>
      <trkpt lat="48.799877" lon="9.797497">
        <ele>326.4</ele>
        <time>2026-08-30T14:15:53Z</time>
      </trkpt>
      <trkpt lat="48.799861" lon="9.797472">
        <ele>326.4</ele>
        <time>2026-08-30T14:15:54Z</time>
      </trkpt>
      <trkpt lat="48.799848" lon="9.797437">
        <ele>326.4</ele>
        <time>2026-08-30T14:15:55Z</time>
      </trkpt>
      <trkpt lat="48.799841" lon="9.797394">
        <ele>326.4</ele>
        <time>2026-08-30T14:15:56Z</time>
      </trkpt>
      <trkpt lat="48.799834" lon="9.797352">
        <ele>326.4</ele>
        <time>2026-08-30T14:15:57Z</time>
      </trkpt>
      <trkpt lat="48.799828" lon="9.797312">
        <ele>326.6</ele>
        <time>2026-08-30T14:15:58Z</time>
      </trkpt>
      <trkpt lat="48.799822" lon="9.797268">
        <ele>326.6</ele>
        <time>2026-08-30T14:15:59Z</time>
      </trkpt>
      <trkpt lat="48.799815" lon="9.797221">
        <ele>326.8</ele>
        <time>2026-08-30T14:16:00Z</time>
      </trkpt>
      <trkpt lat="48.799808" lon="9.797183">
        <ele>326.8</ele>
        <time>2026-08-30T14:16:01Z</time>
      </trkpt>
      <trkpt lat="48.799801" lon="9.797142">
        <ele>327</ele>
        <time>2026-08-30T14:16:02Z</time>
      </trkpt>
      <trkpt lat="48.799791" lon="9.797101">
        <ele>327.2</ele>
        <time>2026-08-30T14:16:03Z</time>
      </trkpt>
      <trkpt lat="48.799784" lon="9.797060">
        <ele>327.2</ele>
        <time>2026-08-30T14:16:04Z</time>
      </trkpt>
      <trkpt lat="48.799774" lon="9.797023">
        <ele>327.2</ele>
        <time>2026-08-30T14:16:05Z</time>
      </trkpt>
      <trkpt lat="48.799767" lon="9.796983">
        <ele>327.4</ele>
        <time>2026-08-30T14:16:06Z</time>
      </trkpt>
      <trkpt lat="48.799763" lon="9.796941">
        <ele>327.4</ele>
        <time>2026-08-30T14:16:07Z</time>
      </trkpt>
      <trkpt lat="48.799756" lon="9.796898">
        <ele>327.6</ele>
        <time>2026-08-30T14:16:08Z</time>
      </trkpt>
      <trkpt lat="48.799748" lon="9.796855">
        <ele>327.6</ele>
        <time>2026-08-30T14:16:09Z</time>
      </trkpt>
      <trkpt lat="48.799739" lon="9.796814">
        <ele>327.8</ele>
        <time>2026-08-30T14:16:10Z</time>
      </trkpt>
      <trkpt lat="48.799731" lon="9.796772">
        <ele>327.8</ele>
        <time>2026-08-30T14:16:11Z</time>
      </trkpt>
      <trkpt lat="48.799726" lon="9.796724">
        <ele>328</ele>
        <time>2026-08-30T14:16:12Z</time>
      </trkpt>
      <trkpt lat="48.799722" lon="9.796675">
        <ele>328</ele>
        <time>2026-08-30T14:16:13Z</time>
      </trkpt>
      <trkpt lat="48.799720" lon="9.796622">
        <ele>328.2</ele>
        <time>2026-08-30T14:16:14Z</time>
      </trkpt>
      <trkpt lat="48.799715" lon="9.796568">
        <ele>328.2</ele>
        <time>2026-08-30T14:16:15Z</time>
      </trkpt>
      <trkpt lat="48.799707" lon="9.796519">
        <ele>328.2</ele>
        <time>2026-08-30T14:16:16Z</time>
      </trkpt>
      <trkpt lat="48.799695" lon="9.796471">
        <ele>328.4</ele>
        <time>2026-08-30T14:16:17Z</time>
      </trkpt>
    </trkseg>
  </trk>
</gpx>